<?xml version="1.0" encoding="UTF-8" standalone="no" ?>
<gpx xmlns="http://www.topografix.com/GPX/1/1" xmlns:xsi="http://www.w3.org/2001/XMLSchema-instance" xsi:schemaLocation="http://www.topografix.com/GPX/1/1 http://www.topografix.com/GPX/1/1/gpx.xsd" version="1.1" creator="VisuGPX - https://www.visugpx.com">
  <metadata>
    <name>Grabel 14062020</name>
  </metadata>
  <trk>
    <name><![CDATA[Move]]></name>
    <trkseg>
      <trkpt lat="43.62264" lon="3.84902">
        <ele>59.79999923706</ele>
        <time>2020-06-14T12:28:02.000Z</time>
      </trkpt>
      <trkpt lat="43.62263" lon="3.84903">
        <ele>59.949098638694</ele>
        <time>2020-06-14T12:28:06.000Z</time>
      </trkpt>
      <trkpt lat="43.62269" lon="3.84905">
        <ele>54.222695491768</ele>
        <time>2020-06-14T12:28:15.000Z</time>
      </trkpt>
      <trkpt lat="43.6227" lon="3.84907">
        <ele>54.188790619875</ele>
        <time>2020-06-14T12:28:16.000Z</time>
      </trkpt>
      <trkpt lat="43.62272" lon="3.84907">
        <ele>54.48377596343</ele>
        <time>2020-06-14T12:28:17.000Z</time>
      </trkpt>
      <trkpt lat="43.62274" lon="3.84907">
        <ele>54.778761306985</ele>
        <time>2020-06-14T12:28:18.000Z</time>
      </trkpt>
      <trkpt lat="43.62276" lon="3.84905">
        <ele>55.07374665054</ele>
        <time>2020-06-14T12:28:19.000Z</time>
      </trkpt>
      <trkpt lat="43.62277" lon="3.84903">
        <ele>55.368731994095</ele>
        <time>2020-06-14T12:28:20.000Z</time>
      </trkpt>
      <trkpt lat="43.62278" lon="3.849">
        <ele>55.66371733765</ele>
        <time>2020-06-14T12:28:21.000Z</time>
      </trkpt>
      <trkpt lat="43.62278" lon="3.84896">
        <ele>55.958702681204</ele>
        <time>2020-06-14T12:28:22.000Z</time>
      </trkpt>
      <trkpt lat="43.62279" lon="3.84893">
        <ele>56.253688024759</ele>
        <time>2020-06-14T12:28:23.000Z</time>
      </trkpt>
      <trkpt lat="43.62279" lon="3.8489">
        <ele>56.548673368314</ele>
        <time>2020-06-14T12:28:24.000Z</time>
      </trkpt>
      <trkpt lat="43.6228" lon="3.84887">
        <ele>56.843658711869</ele>
        <time>2020-06-14T12:28:25.000Z</time>
      </trkpt>
      <trkpt lat="43.6228" lon="3.84884">
        <ele>57.142713522267</ele>
        <time>2020-06-14T12:28:26.000Z</time>
      </trkpt>
      <trkpt lat="43.62281" lon="3.84881">
        <ele>57.446357246964</ele>
        <time>2020-06-14T12:28:27.000Z</time>
      </trkpt>
      <trkpt lat="43.62281" lon="3.84876">
        <ele>58.053644696356</ele>
        <time>2020-06-14T12:28:29.000Z</time>
      </trkpt>
      <trkpt lat="43.62282" lon="3.84874">
        <ele>58.357288421053</ele>
        <time>2020-06-14T12:28:30.000Z</time>
      </trkpt>
      <trkpt lat="43.62282" lon="3.84871">
        <ele>58.660932145749</ele>
        <time>2020-06-14T12:28:31.000Z</time>
      </trkpt>
      <trkpt lat="43.62283" lon="3.84868">
        <ele>58.964575870445</ele>
        <time>2020-06-14T12:28:32.000Z</time>
      </trkpt>
      <trkpt lat="43.62283" lon="3.84865">
        <ele>59.268219595142</ele>
        <time>2020-06-14T12:28:33.000Z</time>
      </trkpt>
      <trkpt lat="43.62283" lon="3.84863">
        <ele>59.571863319838</ele>
        <time>2020-06-14T12:28:34.000Z</time>
      </trkpt>
      <trkpt lat="43.62283" lon="3.8486">
        <ele>59.875507044534</ele>
        <time>2020-06-14T12:28:35.000Z</time>
      </trkpt>
      <trkpt lat="43.62283" lon="3.84857">
        <ele>60.121275106689</ele>
        <time>2020-06-14T12:28:36.000Z</time>
      </trkpt>
      <trkpt lat="43.62283" lon="3.84854">
        <ele>60.326825020127</ele>
        <time>2020-06-14T12:28:37.000Z</time>
      </trkpt>
      <trkpt lat="43.62283" lon="3.84852">
        <ele>60.532374933566</ele>
        <time>2020-06-14T12:28:38.000Z</time>
      </trkpt>
      <trkpt lat="43.62283" lon="3.84847">
        <ele>60.943474760444</ele>
        <time>2020-06-14T12:28:40.000Z</time>
      </trkpt>
      <trkpt lat="43.62282" lon="3.84842">
        <ele>61.354574587322</ele>
        <time>2020-06-14T12:28:42.000Z</time>
      </trkpt>
      <trkpt lat="43.62282" lon="3.84839">
        <ele>61.56012450076</ele>
        <time>2020-06-14T12:28:43.000Z</time>
      </trkpt>
      <trkpt lat="43.62281" lon="3.84836">
        <ele>61.765674414199</ele>
        <time>2020-06-14T12:28:44.000Z</time>
      </trkpt>
      <trkpt lat="43.62281" lon="3.84832">
        <ele>61.971224327638</ele>
        <time>2020-06-14T12:28:45.000Z</time>
      </trkpt>
      <trkpt lat="43.6228" lon="3.84828">
        <ele>62</ele>
        <time>2020-06-14T12:28:46.000Z</time>
      </trkpt>
      <trkpt lat="43.6228" lon="3.84824">
        <ele>62</ele>
        <time>2020-06-14T12:28:47.000Z</time>
      </trkpt>
      <trkpt lat="43.6228" lon="3.8482">
        <ele>62</ele>
        <time>2020-06-14T12:28:48.000Z</time>
      </trkpt>
      <trkpt lat="43.62279" lon="3.84815">
        <ele>62</ele>
        <time>2020-06-14T12:28:49.000Z</time>
      </trkpt>
      <trkpt lat="43.62279" lon="3.8481">
        <ele>62</ele>
        <time>2020-06-14T12:28:50.000Z</time>
      </trkpt>
      <trkpt lat="43.62279" lon="3.84805">
        <ele>62</ele>
        <time>2020-06-14T12:28:51.000Z</time>
      </trkpt>
      <trkpt lat="43.62279" lon="3.848">
        <ele>62</ele>
        <time>2020-06-14T12:28:52.000Z</time>
      </trkpt>
      <trkpt lat="43.6228" lon="3.84794">
        <ele>62</ele>
        <time>2020-06-14T12:28:53.000Z</time>
      </trkpt>
      <trkpt lat="43.62281" lon="3.84789">
        <ele>62</ele>
        <time>2020-06-14T12:28:54.000Z</time>
      </trkpt>
      <trkpt lat="43.62281" lon="3.84784">
        <ele>62</ele>
        <time>2020-06-14T12:28:55.000Z</time>
      </trkpt>
      <trkpt lat="43.62282" lon="3.84778">
        <ele>61.91299968</ele>
        <time>2020-06-14T12:28:56.000Z</time>
      </trkpt>
      <trkpt lat="43.62284" lon="3.84773">
        <ele>61.81299968</ele>
        <time>2020-06-14T12:28:57.000Z</time>
      </trkpt>
      <trkpt lat="43.62285" lon="3.84768">
        <ele>61.71299968</ele>
        <time>2020-06-14T12:28:58.000Z</time>
      </trkpt>
      <trkpt lat="43.62284" lon="3.84762">
        <ele>61.61299968</ele>
        <time>2020-06-14T12:28:59.000Z</time>
      </trkpt>
      <trkpt lat="43.62283" lon="3.84756">
        <ele>61.51299968</ele>
        <time>2020-06-14T12:29:00.000Z</time>
      </trkpt>
      <trkpt lat="43.62282" lon="3.84752">
        <ele>61.41299968</ele>
        <time>2020-06-14T12:29:01.000Z</time>
      </trkpt>
      <trkpt lat="43.62281" lon="3.84747">
        <ele>61.31299968</ele>
        <time>2020-06-14T12:29:02.000Z</time>
      </trkpt>
      <trkpt lat="43.6228" lon="3.84743">
        <ele>61.21299968</ele>
        <time>2020-06-14T12:29:03.000Z</time>
      </trkpt>
      <trkpt lat="43.62278" lon="3.84738">
        <ele>61.11299968</ele>
        <time>2020-06-14T12:29:04.000Z</time>
      </trkpt>
      <trkpt lat="43.62277" lon="3.84733">
        <ele>61.01299968</ele>
        <time>2020-06-14T12:29:05.000Z</time>
      </trkpt>
      <trkpt lat="43.62275" lon="3.84728">
        <ele>60.91299968</ele>
        <time>2020-06-14T12:29:06.000Z</time>
      </trkpt>
      <trkpt lat="43.62274" lon="3.84723">
        <ele>60.81299968</ele>
        <time>2020-06-14T12:29:07.000Z</time>
      </trkpt>
      <trkpt lat="43.62272" lon="3.84717">
        <ele>60.71299968</ele>
        <time>2020-06-14T12:29:08.000Z</time>
      </trkpt>
      <trkpt lat="43.62271" lon="3.84711">
        <ele>60.61299968</ele>
        <time>2020-06-14T12:29:09.000Z</time>
      </trkpt>
      <trkpt lat="43.62269" lon="3.84705">
        <ele>60.51299968</ele>
        <time>2020-06-14T12:29:10.000Z</time>
      </trkpt>
      <trkpt lat="43.62266" lon="3.84699">
        <ele>60.41299968</ele>
        <time>2020-06-14T12:29:11.000Z</time>
      </trkpt>
      <trkpt lat="43.62264" lon="3.84693">
        <ele>60.31299968</ele>
        <time>2020-06-14T12:29:12.000Z</time>
      </trkpt>
      <trkpt lat="43.62262" lon="3.84686">
        <ele>60.21299968</ele>
        <time>2020-06-14T12:29:13.000Z</time>
      </trkpt>
      <trkpt lat="43.62257" lon="3.8468">
        <ele>60.11299968</ele>
        <time>2020-06-14T12:29:14.000Z</time>
      </trkpt>
      <trkpt lat="43.62253" lon="3.84674">
        <ele>60.01299968</ele>
        <time>2020-06-14T12:29:15.000Z</time>
      </trkpt>
      <trkpt lat="43.62248" lon="3.84668">
        <ele>59.82599936</ele>
        <time>2020-06-14T12:29:16.000Z</time>
      </trkpt>
      <trkpt lat="43.62243" lon="3.84663">
        <ele>59.62599936</ele>
        <time>2020-06-14T12:29:17.000Z</time>
      </trkpt>
      <trkpt lat="43.62237" lon="3.84658">
        <ele>59.42599936</ele>
        <time>2020-06-14T12:29:18.000Z</time>
      </trkpt>
      <trkpt lat="43.62232" lon="3.84653">
        <ele>59.22599936</ele>
        <time>2020-06-14T12:29:19.000Z</time>
      </trkpt>
      <trkpt lat="43.62227" lon="3.84648">
        <ele>59.02599936</ele>
        <time>2020-06-14T12:29:20.000Z</time>
      </trkpt>
      <trkpt lat="43.62222" lon="3.84643">
        <ele>58.82599936</ele>
        <time>2020-06-14T12:29:21.000Z</time>
      </trkpt>
      <trkpt lat="43.62219" lon="3.84638">
        <ele>58.62599936</ele>
        <time>2020-06-14T12:29:22.000Z</time>
      </trkpt>
      <trkpt lat="43.62218" lon="3.84632">
        <ele>58.42599936</ele>
        <time>2020-06-14T12:29:23.000Z</time>
      </trkpt>
      <trkpt lat="43.62221" lon="3.84615">
        <ele>58.02599936</ele>
        <time>2020-06-14T12:29:25.000Z</time>
      </trkpt>
      <trkpt lat="43.62223" lon="3.84602">
        <ele>57.43899904</ele>
        <time>2020-06-14T12:29:27.000Z</time>
      </trkpt>
      <trkpt lat="43.62224" lon="3.84598">
        <ele>57.13899904</ele>
        <time>2020-06-14T12:29:28.000Z</time>
      </trkpt>
      <trkpt lat="43.62224" lon="3.84594">
        <ele>56.83899904</ele>
        <time>2020-06-14T12:29:29.000Z</time>
      </trkpt>
      <trkpt lat="43.62225" lon="3.84589">
        <ele>56.53899904</ele>
        <time>2020-06-14T12:29:30.000Z</time>
      </trkpt>
      <trkpt lat="43.62226" lon="3.84584">
        <ele>56.23899904</ele>
        <time>2020-06-14T12:29:31.000Z</time>
      </trkpt>
      <trkpt lat="43.62227" lon="3.8458">
        <ele>55.93899904</ele>
        <time>2020-06-14T12:29:32.000Z</time>
      </trkpt>
      <trkpt lat="43.62227" lon="3.84575">
        <ele>55.63899904</ele>
        <time>2020-06-14T12:29:33.000Z</time>
      </trkpt>
      <trkpt lat="43.62228" lon="3.8457">
        <ele>55.33899904</ele>
        <time>2020-06-14T12:29:34.000Z</time>
      </trkpt>
      <trkpt lat="43.6223" lon="3.84565">
        <ele>55.03899904</ele>
        <time>2020-06-14T12:29:35.000Z</time>
      </trkpt>
      <trkpt lat="43.62232" lon="3.84561">
        <ele>54.91299968</ele>
        <time>2020-06-14T12:29:36.000Z</time>
      </trkpt>
      <trkpt lat="43.62235" lon="3.84558">
        <ele>54.81299968</ele>
        <time>2020-06-14T12:29:37.000Z</time>
      </trkpt>
      <trkpt lat="43.62237" lon="3.84554">
        <ele>54.71299968</ele>
        <time>2020-06-14T12:29:38.000Z</time>
      </trkpt>
      <trkpt lat="43.6224" lon="3.84551">
        <ele>54.61299968</ele>
        <time>2020-06-14T12:29:39.000Z</time>
      </trkpt>
      <trkpt lat="43.62242" lon="3.84548">
        <ele>54.51299968</ele>
        <time>2020-06-14T12:29:40.000Z</time>
      </trkpt>
      <trkpt lat="43.62244" lon="3.84545">
        <ele>54.41299968</ele>
        <time>2020-06-14T12:29:41.000Z</time>
      </trkpt>
      <trkpt lat="43.62246" lon="3.84542">
        <ele>54.31299968</ele>
        <time>2020-06-14T12:29:42.000Z</time>
      </trkpt>
      <trkpt lat="43.62249" lon="3.84538">
        <ele>54.21299968</ele>
        <time>2020-06-14T12:29:43.000Z</time>
      </trkpt>
      <trkpt lat="43.62251" lon="3.84535">
        <ele>54.11299968</ele>
        <time>2020-06-14T12:29:44.000Z</time>
      </trkpt>
      <trkpt lat="43.62253" lon="3.84531">
        <ele>54.01299968</ele>
        <time>2020-06-14T12:29:45.000Z</time>
      </trkpt>
      <trkpt lat="43.62256" lon="3.84528">
        <ele>53.913173388791</ele>
        <time>2020-06-14T12:29:46.000Z</time>
      </trkpt>
      <trkpt lat="43.62258" lon="3.84524">
        <ele>53.813373053335</ele>
        <time>2020-06-14T12:29:47.000Z</time>
      </trkpt>
      <trkpt lat="43.6226" lon="3.8452">
        <ele>53.713572717878</ele>
        <time>2020-06-14T12:29:48.000Z</time>
      </trkpt>
      <trkpt lat="43.62263" lon="3.84517">
        <ele>53.613772382421</ele>
        <time>2020-06-14T12:29:49.000Z</time>
      </trkpt>
      <trkpt lat="43.62266" lon="3.84513">
        <ele>53.513972046964</ele>
        <time>2020-06-14T12:29:50.000Z</time>
      </trkpt>
      <trkpt lat="43.62269" lon="3.84508">
        <ele>53.414171711507</ele>
        <time>2020-06-14T12:29:51.000Z</time>
      </trkpt>
      <trkpt lat="43.62271" lon="3.84504">
        <ele>53.31437137605</ele>
        <time>2020-06-14T12:29:52.000Z</time>
      </trkpt>
      <trkpt lat="43.62274" lon="3.845">
        <ele>53.214571040593</ele>
        <time>2020-06-14T12:29:53.000Z</time>
      </trkpt>
      <trkpt lat="43.62277" lon="3.84495">
        <ele>53.114770705137</ele>
        <time>2020-06-14T12:29:54.000Z</time>
      </trkpt>
      <trkpt lat="43.6228" lon="3.84491">
        <ele>53.01497036968</ele>
        <time>2020-06-14T12:29:55.000Z</time>
      </trkpt>
      <trkpt lat="43.62283" lon="3.84486">
        <ele>53</ele>
        <time>2020-06-14T12:29:56.000Z</time>
      </trkpt>
      <trkpt lat="43.62285" lon="3.84482">
        <ele>53</ele>
        <time>2020-06-14T12:29:57.000Z</time>
      </trkpt>
      <trkpt lat="43.62288" lon="3.84478">
        <ele>53</ele>
        <time>2020-06-14T12:29:58.000Z</time>
      </trkpt>
      <trkpt lat="43.62291" lon="3.84474">
        <ele>53</ele>
        <time>2020-06-14T12:29:59.000Z</time>
      </trkpt>
      <trkpt lat="43.62294" lon="3.8447">
        <ele>53</ele>
        <time>2020-06-14T12:30:00.000Z</time>
      </trkpt>
      <trkpt lat="43.62296" lon="3.84466">
        <ele>53</ele>
        <time>2020-06-14T12:30:01.000Z</time>
      </trkpt>
      <trkpt lat="43.62298" lon="3.84462">
        <ele>53</ele>
        <time>2020-06-14T12:30:02.000Z</time>
      </trkpt>
      <trkpt lat="43.62299" lon="3.84457">
        <ele>53</ele>
        <time>2020-06-14T12:30:03.000Z</time>
      </trkpt>
      <trkpt lat="43.623" lon="3.84452">
        <ele>53</ele>
        <time>2020-06-14T12:30:04.000Z</time>
      </trkpt>
      <trkpt lat="43.62301" lon="3.84448">
        <ele>53</ele>
        <time>2020-06-14T12:30:05.000Z</time>
      </trkpt>
      <trkpt lat="43.62302" lon="3.84444">
        <ele>53</ele>
        <time>2020-06-14T12:30:06.000Z</time>
      </trkpt>
      <trkpt lat="43.62304" lon="3.84441">
        <ele>53</ele>
        <time>2020-06-14T12:30:07.000Z</time>
      </trkpt>
      <trkpt lat="43.62306" lon="3.84439">
        <ele>53</ele>
        <time>2020-06-14T12:30:08.000Z</time>
      </trkpt>
      <trkpt lat="43.62307" lon="3.84436">
        <ele>53</ele>
        <time>2020-06-14T12:30:09.000Z</time>
      </trkpt>
      <trkpt lat="43.62309" lon="3.84434">
        <ele>53</ele>
        <time>2020-06-14T12:30:10.000Z</time>
      </trkpt>
      <trkpt lat="43.62311" lon="3.84431">
        <ele>53</ele>
        <time>2020-06-14T12:30:11.000Z</time>
      </trkpt>
      <trkpt lat="43.62312" lon="3.84428">
        <ele>53</ele>
        <time>2020-06-14T12:30:12.000Z</time>
      </trkpt>
      <trkpt lat="43.62314" lon="3.84425">
        <ele>53</ele>
        <time>2020-06-14T12:30:13.000Z</time>
      </trkpt>
      <trkpt lat="43.62316" lon="3.84423">
        <ele>53</ele>
        <time>2020-06-14T12:30:14.000Z</time>
      </trkpt>
      <trkpt lat="43.62319" lon="3.84419">
        <ele>53</ele>
        <time>2020-06-14T12:30:15.000Z</time>
      </trkpt>
      <trkpt lat="43.62321" lon="3.84416">
        <ele>53.086913434378</ele>
        <time>2020-06-14T12:30:16.000Z</time>
      </trkpt>
      <trkpt lat="43.62323" lon="3.84412">
        <ele>53.186813566214</ele>
        <time>2020-06-14T12:30:17.000Z</time>
      </trkpt>
      <trkpt lat="43.62326" lon="3.84408">
        <ele>53.28671369805</ele>
        <time>2020-06-14T12:30:18.000Z</time>
      </trkpt>
      <trkpt lat="43.62329" lon="3.84404">
        <ele>53.386613829886</ele>
        <time>2020-06-14T12:30:19.000Z</time>
      </trkpt>
      <trkpt lat="43.62332" lon="3.84401">
        <ele>53.486513961723</ele>
        <time>2020-06-14T12:30:20.000Z</time>
      </trkpt>
      <trkpt lat="43.62335" lon="3.84397">
        <ele>53.586414093559</ele>
        <time>2020-06-14T12:30:21.000Z</time>
      </trkpt>
      <trkpt lat="43.62338" lon="3.84393">
        <ele>53.686314225395</ele>
        <time>2020-06-14T12:30:22.000Z</time>
      </trkpt>
      <trkpt lat="43.62341" lon="3.84389">
        <ele>53.786214357231</ele>
        <time>2020-06-14T12:30:23.000Z</time>
      </trkpt>
      <trkpt lat="43.62343" lon="3.84385">
        <ele>53.886114489068</ele>
        <time>2020-06-14T12:30:24.000Z</time>
      </trkpt>
      <trkpt lat="43.62346" lon="3.84382">
        <ele>53.986014620904</ele>
        <time>2020-06-14T12:30:25.000Z</time>
      </trkpt>
      <trkpt lat="43.62349" lon="3.84378">
        <ele>54</ele>
        <time>2020-06-14T12:30:26.000Z</time>
      </trkpt>
      <trkpt lat="43.62351" lon="3.84375">
        <ele>54</ele>
        <time>2020-06-14T12:30:27.000Z</time>
      </trkpt>
      <trkpt lat="43.62354" lon="3.84371">
        <ele>54</ele>
        <time>2020-06-14T12:30:28.000Z</time>
      </trkpt>
      <trkpt lat="43.62355" lon="3.84368">
        <ele>54</ele>
        <time>2020-06-14T12:30:29.000Z</time>
      </trkpt>
      <trkpt lat="43.62357" lon="3.84364">
        <ele>54</ele>
        <time>2020-06-14T12:30:30.000Z</time>
      </trkpt>
      <trkpt lat="43.62359" lon="3.84361">
        <ele>54</ele>
        <time>2020-06-14T12:30:31.000Z</time>
      </trkpt>
      <trkpt lat="43.62361" lon="3.84358">
        <ele>54</ele>
        <time>2020-06-14T12:30:32.000Z</time>
      </trkpt>
      <trkpt lat="43.62362" lon="3.84354">
        <ele>54</ele>
        <time>2020-06-14T12:30:33.000Z</time>
      </trkpt>
      <trkpt lat="43.62363" lon="3.8435">
        <ele>54</ele>
        <time>2020-06-14T12:30:34.000Z</time>
      </trkpt>
      <trkpt lat="43.62363" lon="3.84346">
        <ele>54</ele>
        <time>2020-06-14T12:30:35.000Z</time>
      </trkpt>
      <trkpt lat="43.62362" lon="3.84341">
        <ele>54.08700032</ele>
        <time>2020-06-14T12:30:36.000Z</time>
      </trkpt>
      <trkpt lat="43.62362" lon="3.84337">
        <ele>54.18700032</ele>
        <time>2020-06-14T12:30:37.000Z</time>
      </trkpt>
      <trkpt lat="43.62361" lon="3.84333">
        <ele>54.28700032</ele>
        <time>2020-06-14T12:30:38.000Z</time>
      </trkpt>
      <trkpt lat="43.6236" lon="3.84329">
        <ele>54.38700032</ele>
        <time>2020-06-14T12:30:39.000Z</time>
      </trkpt>
      <trkpt lat="43.62362" lon="3.84325">
        <ele>54.48700032</ele>
        <time>2020-06-14T12:30:40.000Z</time>
      </trkpt>
      <trkpt lat="43.62363" lon="3.84322">
        <ele>54.58700032</ele>
        <time>2020-06-14T12:30:41.000Z</time>
      </trkpt>
      <trkpt lat="43.62364" lon="3.84319">
        <ele>54.68700032</ele>
        <time>2020-06-14T12:30:42.000Z</time>
      </trkpt>
      <trkpt lat="43.62366" lon="3.84316">
        <ele>54.78700032</ele>
        <time>2020-06-14T12:30:43.000Z</time>
      </trkpt>
      <trkpt lat="43.62367" lon="3.84312">
        <ele>54.88700032</ele>
        <time>2020-06-14T12:30:44.000Z</time>
      </trkpt>
      <trkpt lat="43.62369" lon="3.8431">
        <ele>54.98700032</ele>
        <time>2020-06-14T12:30:45.000Z</time>
      </trkpt>
      <trkpt lat="43.6237" lon="3.84307">
        <ele>55</ele>
        <time>2020-06-14T12:30:46.000Z</time>
      </trkpt>
      <trkpt lat="43.62378" lon="3.84299">
        <ele>55</ele>
        <time>2020-06-14T12:30:52.000Z</time>
      </trkpt>
      <trkpt lat="43.62379" lon="3.84295">
        <ele>55</ele>
        <time>2020-06-14T12:30:53.000Z</time>
      </trkpt>
      <trkpt lat="43.62381" lon="3.84292">
        <ele>55</ele>
        <time>2020-06-14T12:30:54.000Z</time>
      </trkpt>
      <trkpt lat="43.62382" lon="3.84289">
        <ele>55</ele>
        <time>2020-06-14T12:30:55.000Z</time>
      </trkpt>
      <trkpt lat="43.62384" lon="3.84286">
        <ele>55.086086699151</ele>
        <time>2020-06-14T12:30:56.000Z</time>
      </trkpt>
      <trkpt lat="43.62384" lon="3.84282">
        <ele>55.186186767187</ele>
        <time>2020-06-14T12:30:57.000Z</time>
      </trkpt>
      <trkpt lat="43.62385" lon="3.84277">
        <ele>55.286286835223</ele>
        <time>2020-06-14T12:30:58.000Z</time>
      </trkpt>
      <trkpt lat="43.62382" lon="3.84269">
        <ele>55.486486971295</ele>
        <time>2020-06-14T12:31:00.000Z</time>
      </trkpt>
      <trkpt lat="43.62379" lon="3.84265">
        <ele>55.586587039331</ele>
        <time>2020-06-14T12:31:01.000Z</time>
      </trkpt>
      <trkpt lat="43.62377" lon="3.8426">
        <ele>55.686687107367</ele>
        <time>2020-06-14T12:31:02.000Z</time>
      </trkpt>
      <trkpt lat="43.62375" lon="3.84255">
        <ele>55.786787175403</ele>
        <time>2020-06-14T12:31:03.000Z</time>
      </trkpt>
      <trkpt lat="43.62373" lon="3.84251">
        <ele>55.88688724344</ele>
        <time>2020-06-14T12:31:04.000Z</time>
      </trkpt>
      <trkpt lat="43.6237" lon="3.84246">
        <ele>55.986987311476</ele>
        <time>2020-06-14T12:31:05.000Z</time>
      </trkpt>
      <trkpt lat="43.62369" lon="3.84241">
        <ele>56.17400064</ele>
        <time>2020-06-14T12:31:06.000Z</time>
      </trkpt>
      <trkpt lat="43.62369" lon="3.84235">
        <ele>56.37400064</ele>
        <time>2020-06-14T12:31:07.000Z</time>
      </trkpt>
      <trkpt lat="43.62371" lon="3.84231">
        <ele>56.57400064</ele>
        <time>2020-06-14T12:31:08.000Z</time>
      </trkpt>
      <trkpt lat="43.62374" lon="3.84228">
        <ele>56.77400064</ele>
        <time>2020-06-14T12:31:09.000Z</time>
      </trkpt>
      <trkpt lat="43.62379" lon="3.84227">
        <ele>56.97400064</ele>
        <time>2020-06-14T12:31:10.000Z</time>
      </trkpt>
      <trkpt lat="43.62383" lon="3.84227">
        <ele>57.17400064</ele>
        <time>2020-06-14T12:31:11.000Z</time>
      </trkpt>
      <trkpt lat="43.62387" lon="3.84225">
        <ele>57.37400064</ele>
        <time>2020-06-14T12:31:12.000Z</time>
      </trkpt>
      <trkpt lat="43.62391" lon="3.84224">
        <ele>57.57400064</ele>
        <time>2020-06-14T12:31:13.000Z</time>
      </trkpt>
      <trkpt lat="43.62395" lon="3.84218">
        <ele>58.17400064</ele>
        <time>2020-06-14T12:31:16.000Z</time>
      </trkpt>
      <trkpt lat="43.62394" lon="3.84213">
        <ele>58.37400064</ele>
        <time>2020-06-14T12:31:17.000Z</time>
      </trkpt>
      <trkpt lat="43.62393" lon="3.84209">
        <ele>58.57400064</ele>
        <time>2020-06-14T12:31:18.000Z</time>
      </trkpt>
      <trkpt lat="43.62392" lon="3.84204">
        <ele>58.77400064</ele>
        <time>2020-06-14T12:31:19.000Z</time>
      </trkpt>
      <trkpt lat="43.6239" lon="3.84194">
        <ele>59.17400064</ele>
        <time>2020-06-14T12:31:21.000Z</time>
      </trkpt>
      <trkpt lat="43.62389" lon="3.84189">
        <ele>59.37400064</ele>
        <time>2020-06-14T12:31:22.000Z</time>
      </trkpt>
      <trkpt lat="43.62389" lon="3.84185">
        <ele>59.57400064</ele>
        <time>2020-06-14T12:31:23.000Z</time>
      </trkpt>
      <trkpt lat="43.62388" lon="3.84179">
        <ele>59.77400064</ele>
        <time>2020-06-14T12:31:24.000Z</time>
      </trkpt>
      <trkpt lat="43.62387" lon="3.84174">
        <ele>59.97400064</ele>
        <time>2020-06-14T12:31:25.000Z</time>
      </trkpt>
      <trkpt lat="43.62386" lon="3.84169">
        <ele>60</ele>
        <time>2020-06-14T12:31:26.000Z</time>
      </trkpt>
      <trkpt lat="43.62384" lon="3.84167">
        <ele>60</ele>
        <time>2020-06-14T12:31:27.000Z</time>
      </trkpt>
      <trkpt lat="43.62381" lon="3.84166">
        <ele>60</ele>
        <time>2020-06-14T12:31:28.000Z</time>
      </trkpt>
      <trkpt lat="43.62379" lon="3.84164">
        <ele>60</ele>
        <time>2020-06-14T12:31:29.000Z</time>
      </trkpt>
      <trkpt lat="43.62376" lon="3.84162">
        <ele>60</ele>
        <time>2020-06-14T12:31:30.000Z</time>
      </trkpt>
      <trkpt lat="43.62373" lon="3.8416">
        <ele>60</ele>
        <time>2020-06-14T12:31:31.000Z</time>
      </trkpt>
      <trkpt lat="43.6237" lon="3.84159">
        <ele>60</ele>
        <time>2020-06-14T12:31:32.000Z</time>
      </trkpt>
      <trkpt lat="43.62367" lon="3.84157">
        <ele>60</ele>
        <time>2020-06-14T12:31:33.000Z</time>
      </trkpt>
      <trkpt lat="43.62364" lon="3.84155">
        <ele>60</ele>
        <time>2020-06-14T12:31:34.000Z</time>
      </trkpt>
      <trkpt lat="43.62363" lon="3.84152">
        <ele>60</ele>
        <time>2020-06-14T12:31:35.000Z</time>
      </trkpt>
      <trkpt lat="43.62363" lon="3.84148">
        <ele>60</ele>
        <time>2020-06-14T12:31:36.000Z</time>
      </trkpt>
      <trkpt lat="43.62364" lon="3.84146">
        <ele>60</ele>
        <time>2020-06-14T12:31:37.000Z</time>
      </trkpt>
      <trkpt lat="43.62366" lon="3.84143">
        <ele>60</ele>
        <time>2020-06-14T12:31:38.000Z</time>
      </trkpt>
      <trkpt lat="43.62367" lon="3.84141">
        <ele>60</ele>
        <time>2020-06-14T12:31:39.000Z</time>
      </trkpt>
      <trkpt lat="43.62369" lon="3.84138">
        <ele>60</ele>
        <time>2020-06-14T12:31:41.000Z</time>
      </trkpt>
      <trkpt lat="43.62368" lon="3.84138">
        <ele>60.016815267935</ele>
        <time>2020-06-14T12:31:47.000Z</time>
      </trkpt>
      <trkpt lat="43.62372" lon="3.84135">
        <ele>60.977693996474</ele>
        <time>2020-06-14T12:32:15.000Z</time>
      </trkpt>
      <trkpt lat="43.62373" lon="3.84133">
        <ele>60.964097788314</ele>
        <time>2020-06-14T12:32:16.000Z</time>
      </trkpt>
      <trkpt lat="43.62375" lon="3.8413">
        <ele>60.85850106036</ele>
        <time>2020-06-14T12:32:17.000Z</time>
      </trkpt>
      <trkpt lat="43.62376" lon="3.84127">
        <ele>60.752904332406</ele>
        <time>2020-06-14T12:32:18.000Z</time>
      </trkpt>
      <trkpt lat="43.62378" lon="3.84125">
        <ele>60.647307604451</ele>
        <time>2020-06-14T12:32:19.000Z</time>
      </trkpt>
      <trkpt lat="43.6238" lon="3.84125">
        <ele>60.541710876497</ele>
        <time>2020-06-14T12:32:20.000Z</time>
      </trkpt>
      <trkpt lat="43.62381" lon="3.84128">
        <ele>60.436114148542</ele>
        <time>2020-06-14T12:32:21.000Z</time>
      </trkpt>
      <trkpt lat="43.62379" lon="3.84131">
        <ele>60.330517420588</ele>
        <time>2020-06-14T12:32:22.000Z</time>
      </trkpt>
      <trkpt lat="43.62377" lon="3.84133">
        <ele>60.224920692633</ele>
        <time>2020-06-14T12:32:23.000Z</time>
      </trkpt>
      <trkpt lat="43.62375" lon="3.84134">
        <ele>60.119323964679</ele>
        <time>2020-06-14T12:32:24.000Z</time>
      </trkpt>
      <trkpt lat="43.62373" lon="3.84135">
        <ele>60.013727236724</ele>
        <time>2020-06-14T12:32:25.000Z</time>
      </trkpt>
      <trkpt lat="43.62371" lon="3.84137">
        <ele>60</ele>
        <time>2020-06-14T12:32:26.000Z</time>
      </trkpt>
      <trkpt lat="43.62369" lon="3.84139">
        <ele>60</ele>
        <time>2020-06-14T12:32:27.000Z</time>
      </trkpt>
      <trkpt lat="43.62369" lon="3.8414">
        <ele>60</ele>
        <time>2020-06-14T12:32:32.000Z</time>
      </trkpt>
      <trkpt lat="43.62367" lon="3.8415">
        <ele>61.993693636036</ele>
        <time>2020-06-14T12:34:23.000Z</time>
      </trkpt>
      <trkpt lat="43.62367" lon="3.84153">
        <ele>61.934493325525</ele>
        <time>2020-06-14T12:34:24.000Z</time>
      </trkpt>
      <trkpt lat="43.62366" lon="3.84156">
        <ele>61.832139146658</ele>
        <time>2020-06-14T12:34:25.000Z</time>
      </trkpt>
      <trkpt lat="43.62366" lon="3.84159">
        <ele>61.72978496779</ele>
        <time>2020-06-14T12:34:26.000Z</time>
      </trkpt>
      <trkpt lat="43.62367" lon="3.84162">
        <ele>61.627430788923</ele>
        <time>2020-06-14T12:34:27.000Z</time>
      </trkpt>
      <trkpt lat="43.6237" lon="3.84164">
        <ele>61.525076610056</ele>
        <time>2020-06-14T12:34:28.000Z</time>
      </trkpt>
      <trkpt lat="43.62373" lon="3.84164">
        <ele>61.422722431188</ele>
        <time>2020-06-14T12:34:29.000Z</time>
      </trkpt>
      <trkpt lat="43.62377" lon="3.84165">
        <ele>61.320368252321</ele>
        <time>2020-06-14T12:34:30.000Z</time>
      </trkpt>
      <trkpt lat="43.62381" lon="3.84166">
        <ele>61.218014073454</ele>
        <time>2020-06-14T12:34:31.000Z</time>
      </trkpt>
      <trkpt lat="43.62384" lon="3.84165">
        <ele>61.115659894587</ele>
        <time>2020-06-14T12:34:32.000Z</time>
      </trkpt>
      <trkpt lat="43.62387" lon="3.84161">
        <ele>61.013305715719</ele>
        <time>2020-06-14T12:34:33.000Z</time>
      </trkpt>
      <trkpt lat="43.62389" lon="3.84158">
        <ele>61</ele>
        <time>2020-06-14T12:34:34.000Z</time>
      </trkpt>
      <trkpt lat="43.62392" lon="3.84154">
        <ele>61</ele>
        <time>2020-06-14T12:34:35.000Z</time>
      </trkpt>
      <trkpt lat="43.62395" lon="3.84152">
        <ele>61</ele>
        <time>2020-06-14T12:34:36.000Z</time>
      </trkpt>
      <trkpt lat="43.62396" lon="3.84149">
        <ele>61</ele>
        <time>2020-06-14T12:34:37.000Z</time>
      </trkpt>
      <trkpt lat="43.62396" lon="3.84146">
        <ele>61</ele>
        <time>2020-06-14T12:34:38.000Z</time>
      </trkpt>
      <trkpt lat="43.62396" lon="3.84143">
        <ele>61</ele>
        <time>2020-06-14T12:34:39.000Z</time>
      </trkpt>
      <trkpt lat="43.62393" lon="3.84139">
        <ele>61</ele>
        <time>2020-06-14T12:34:40.000Z</time>
      </trkpt>
      <trkpt lat="43.6239" lon="3.84136">
        <ele>61</ele>
        <time>2020-06-14T12:34:41.000Z</time>
      </trkpt>
      <trkpt lat="43.62387" lon="3.84134">
        <ele>61</ele>
        <time>2020-06-14T12:34:42.000Z</time>
      </trkpt>
      <trkpt lat="43.62384" lon="3.84131">
        <ele>61</ele>
        <time>2020-06-14T12:34:43.000Z</time>
      </trkpt>
      <trkpt lat="43.6238" lon="3.8413">
        <ele>61.05973163475</ele>
        <time>2020-06-14T12:34:44.000Z</time>
      </trkpt>
      <trkpt lat="43.62377" lon="3.84129">
        <ele>61.162718348311</ele>
        <time>2020-06-14T12:34:45.000Z</time>
      </trkpt>
      <trkpt lat="43.62374" lon="3.84131">
        <ele>61.265705061871</ele>
        <time>2020-06-14T12:34:46.000Z</time>
      </trkpt>
      <trkpt lat="43.62372" lon="3.84134">
        <ele>61.368691775432</ele>
        <time>2020-06-14T12:34:47.000Z</time>
      </trkpt>
      <trkpt lat="43.62371" lon="3.84137">
        <ele>61.471678488992</ele>
        <time>2020-06-14T12:34:48.000Z</time>
      </trkpt>
      <trkpt lat="43.6237" lon="3.8414">
        <ele>61.574665202553</ele>
        <time>2020-06-14T12:34:49.000Z</time>
      </trkpt>
      <trkpt lat="43.6237" lon="3.84141">
        <ele>62.000255104397</ele>
        <time>2020-06-14T12:34:55.000Z</time>
      </trkpt>
      <trkpt lat="43.62369" lon="3.84151">
        <ele>62.998760954819</ele>
        <time>2020-06-14T12:39:29.000Z</time>
      </trkpt>
      <trkpt lat="43.62368" lon="3.84154">
        <ele>63</ele>
        <time>2020-06-14T12:39:30.000Z</time>
      </trkpt>
      <trkpt lat="43.62367" lon="3.84157">
        <ele>63</ele>
        <time>2020-06-14T12:39:31.000Z</time>
      </trkpt>
      <trkpt lat="43.62366" lon="3.84161">
        <ele>63</ele>
        <time>2020-06-14T12:39:32.000Z</time>
      </trkpt>
      <trkpt lat="43.62365" lon="3.84165">
        <ele>63</ele>
        <time>2020-06-14T12:39:33.000Z</time>
      </trkpt>
      <trkpt lat="43.62365" lon="3.84168">
        <ele>63</ele>
        <time>2020-06-14T12:39:34.000Z</time>
      </trkpt>
      <trkpt lat="43.62366" lon="3.84171">
        <ele>63</ele>
        <time>2020-06-14T12:39:36.000Z</time>
      </trkpt>
      <trkpt lat="43.62366" lon="3.84171">
        <ele>63.004980485801</ele>
        <time>2020-06-14T12:39:41.000Z</time>
      </trkpt>
      <trkpt lat="43.62359" lon="3.84158">
        <ele>65.993291481692</ele>
        <time>2020-06-14T12:44:35.000Z</time>
      </trkpt>
      <trkpt lat="43.62359" lon="3.84159">
        <ele>66</ele>
        <time>2020-06-14T12:44:36.000Z</time>
      </trkpt>
      <trkpt lat="43.62359" lon="3.8416">
        <ele>65.997252983164</ele>
        <time>2020-06-14T12:44:41.000Z</time>
      </trkpt>
      <trkpt lat="43.62359" lon="3.84159">
        <ele>65.001459380164</ele>
        <time>2020-06-14T12:48:33.000Z</time>
      </trkpt>
      <trkpt lat="43.62361" lon="3.84155">
        <ele>64.831288560352</ele>
        <time>2020-06-14T12:48:35.000Z</time>
      </trkpt>
      <trkpt lat="43.62364" lon="3.84154">
        <ele>64.729039004688</ele>
        <time>2020-06-14T12:48:36.000Z</time>
      </trkpt>
      <trkpt lat="43.62366" lon="3.84154">
        <ele>64.626789449024</ele>
        <time>2020-06-14T12:48:37.000Z</time>
      </trkpt>
      <trkpt lat="43.62369" lon="3.84153">
        <ele>64.524539893359</ele>
        <time>2020-06-14T12:48:38.000Z</time>
      </trkpt>
      <trkpt lat="43.62371" lon="3.84153">
        <ele>64.422290337695</ele>
        <time>2020-06-14T12:48:39.000Z</time>
      </trkpt>
      <trkpt lat="43.62374" lon="3.84154">
        <ele>64.320040782031</ele>
        <time>2020-06-14T12:48:40.000Z</time>
      </trkpt>
      <trkpt lat="43.62376" lon="3.84154">
        <ele>64.217791226366</ele>
        <time>2020-06-14T12:48:41.000Z</time>
      </trkpt>
      <trkpt lat="43.62379" lon="3.84155">
        <ele>64.115541670702</ele>
        <time>2020-06-14T12:48:42.000Z</time>
      </trkpt>
      <trkpt lat="43.62381" lon="3.84154">
        <ele>64.013292115038</ele>
        <time>2020-06-14T12:48:43.000Z</time>
      </trkpt>
      <trkpt lat="43.62382" lon="3.84153">
        <ele>64</ele>
        <time>2020-06-14T12:48:44.000Z</time>
      </trkpt>
      <trkpt lat="43.62385" lon="3.84151">
        <ele>64</ele>
        <time>2020-06-14T12:48:45.000Z</time>
      </trkpt>
      <trkpt lat="43.62388" lon="3.84151">
        <ele>64</ele>
        <time>2020-06-14T12:48:46.000Z</time>
      </trkpt>
      <trkpt lat="43.62391" lon="3.8415">
        <ele>64</ele>
        <time>2020-06-14T12:48:47.000Z</time>
      </trkpt>
      <trkpt lat="43.62394" lon="3.84149">
        <ele>64</ele>
        <time>2020-06-14T12:48:48.000Z</time>
      </trkpt>
      <trkpt lat="43.62398" lon="3.84149">
        <ele>64</ele>
        <time>2020-06-14T12:48:49.000Z</time>
      </trkpt>
      <trkpt lat="43.62401" lon="3.84148">
        <ele>64</ele>
        <time>2020-06-14T12:48:50.000Z</time>
      </trkpt>
      <trkpt lat="43.62404" lon="3.84147">
        <ele>64</ele>
        <time>2020-06-14T12:48:51.000Z</time>
      </trkpt>
      <trkpt lat="43.62407" lon="3.84146">
        <ele>64</ele>
        <time>2020-06-14T12:48:52.000Z</time>
      </trkpt>
      <trkpt lat="43.6241" lon="3.84145">
        <ele>64</ele>
        <time>2020-06-14T12:48:53.000Z</time>
      </trkpt>
      <trkpt lat="43.62413" lon="3.84144">
        <ele>64.05973163475</ele>
        <time>2020-06-14T12:48:54.000Z</time>
      </trkpt>
      <trkpt lat="43.62416" lon="3.84143">
        <ele>64.162718348311</ele>
        <time>2020-06-14T12:48:55.000Z</time>
      </trkpt>
      <trkpt lat="43.62419" lon="3.84142">
        <ele>64.265705061871</ele>
        <time>2020-06-14T12:48:56.000Z</time>
      </trkpt>
      <trkpt lat="43.62421" lon="3.84141">
        <ele>64.368691775432</ele>
        <time>2020-06-14T12:48:57.000Z</time>
      </trkpt>
      <trkpt lat="43.62424" lon="3.8414">
        <ele>64.471678488992</ele>
        <time>2020-06-14T12:48:58.000Z</time>
      </trkpt>
      <trkpt lat="43.62427" lon="3.84138">
        <ele>64.574665202553</ele>
        <time>2020-06-14T12:48:59.000Z</time>
      </trkpt>
      <trkpt lat="43.62429" lon="3.84138">
        <ele>64.677651916113</ele>
        <time>2020-06-14T12:49:00.000Z</time>
      </trkpt>
      <trkpt lat="43.62432" lon="3.84137">
        <ele>64.780638629674</ele>
        <time>2020-06-14T12:49:01.000Z</time>
      </trkpt>
      <trkpt lat="43.62435" lon="3.84136">
        <ele>64.883625343234</ele>
        <time>2020-06-14T12:49:02.000Z</time>
      </trkpt>
      <trkpt lat="43.62437" lon="3.84135">
        <ele>64.986612056795</ele>
        <time>2020-06-14T12:49:03.000Z</time>
      </trkpt>
      <trkpt lat="43.62439" lon="3.84134">
        <ele>65</ele>
        <time>2020-06-14T12:49:04.000Z</time>
      </trkpt>
      <trkpt lat="43.62442" lon="3.84133">
        <ele>65</ele>
        <time>2020-06-14T12:49:05.000Z</time>
      </trkpt>
      <trkpt lat="43.62444" lon="3.84132">
        <ele>65</ele>
        <time>2020-06-14T12:49:06.000Z</time>
      </trkpt>
      <trkpt lat="43.62446" lon="3.84132">
        <ele>65</ele>
        <time>2020-06-14T12:49:07.000Z</time>
      </trkpt>
      <trkpt lat="43.62448" lon="3.84131">
        <ele>65</ele>
        <time>2020-06-14T12:49:08.000Z</time>
      </trkpt>
      <trkpt lat="43.62451" lon="3.84131">
        <ele>65</ele>
        <time>2020-06-14T12:49:09.000Z</time>
      </trkpt>
      <trkpt lat="43.62453" lon="3.8413">
        <ele>65</ele>
        <time>2020-06-14T12:49:10.000Z</time>
      </trkpt>
      <trkpt lat="43.62456" lon="3.8413">
        <ele>65</ele>
        <time>2020-06-14T12:49:11.000Z</time>
      </trkpt>
      <trkpt lat="43.62458" lon="3.8413">
        <ele>65</ele>
        <time>2020-06-14T12:49:12.000Z</time>
      </trkpt>
      <trkpt lat="43.6246" lon="3.8413">
        <ele>65</ele>
        <time>2020-06-14T12:49:13.000Z</time>
      </trkpt>
      <trkpt lat="43.62462" lon="3.84128">
        <ele>65</ele>
        <time>2020-06-14T12:49:14.000Z</time>
      </trkpt>
      <trkpt lat="43.62464" lon="3.84127">
        <ele>65</ele>
        <time>2020-06-14T12:49:15.000Z</time>
      </trkpt>
      <trkpt lat="43.62465" lon="3.84125">
        <ele>65</ele>
        <time>2020-06-14T12:49:16.000Z</time>
      </trkpt>
      <trkpt lat="43.62467" lon="3.84123">
        <ele>65</ele>
        <time>2020-06-14T12:49:17.000Z</time>
      </trkpt>
      <trkpt lat="43.62469" lon="3.84121">
        <ele>65</ele>
        <time>2020-06-14T12:49:18.000Z</time>
      </trkpt>
      <trkpt lat="43.6247" lon="3.84118">
        <ele>65</ele>
        <time>2020-06-14T12:49:19.000Z</time>
      </trkpt>
      <trkpt lat="43.62472" lon="3.84115">
        <ele>65</ele>
        <time>2020-06-14T12:49:20.000Z</time>
      </trkpt>
      <trkpt lat="43.62473" lon="3.84113">
        <ele>65</ele>
        <time>2020-06-14T12:49:21.000Z</time>
      </trkpt>
      <trkpt lat="43.62474" lon="3.84109">
        <ele>65</ele>
        <time>2020-06-14T12:49:22.000Z</time>
      </trkpt>
      <trkpt lat="43.62475" lon="3.84106">
        <ele>65</ele>
        <time>2020-06-14T12:49:23.000Z</time>
      </trkpt>
      <trkpt lat="43.62476" lon="3.84103">
        <ele>65.08700032</ele>
        <time>2020-06-14T12:49:24.000Z</time>
      </trkpt>
      <trkpt lat="43.62478" lon="3.841">
        <ele>65.18700032</ele>
        <time>2020-06-14T12:49:25.000Z</time>
      </trkpt>
      <trkpt lat="43.62479" lon="3.84096">
        <ele>65.28700032</ele>
        <time>2020-06-14T12:49:26.000Z</time>
      </trkpt>
      <trkpt lat="43.6248" lon="3.84093">
        <ele>65.38700032</ele>
        <time>2020-06-14T12:49:27.000Z</time>
      </trkpt>
      <trkpt lat="43.6248" lon="3.8409">
        <ele>65.48700032</ele>
        <time>2020-06-14T12:49:28.000Z</time>
      </trkpt>
      <trkpt lat="43.62481" lon="3.84087">
        <ele>65.58700032</ele>
        <time>2020-06-14T12:49:29.000Z</time>
      </trkpt>
      <trkpt lat="43.62482" lon="3.84084">
        <ele>65.68700032</ele>
        <time>2020-06-14T12:49:30.000Z</time>
      </trkpt>
      <trkpt lat="43.62483" lon="3.84081">
        <ele>65.78700032</ele>
        <time>2020-06-14T12:49:31.000Z</time>
      </trkpt>
      <trkpt lat="43.62485" lon="3.84078">
        <ele>65.88700032</ele>
        <time>2020-06-14T12:49:32.000Z</time>
      </trkpt>
      <trkpt lat="43.62486" lon="3.84076">
        <ele>65.98700032</ele>
        <time>2020-06-14T12:49:33.000Z</time>
      </trkpt>
      <trkpt lat="43.62487" lon="3.84073">
        <ele>66</ele>
        <time>2020-06-14T12:49:34.000Z</time>
      </trkpt>
      <trkpt lat="43.62488" lon="3.8407">
        <ele>66</ele>
        <time>2020-06-14T12:49:35.000Z</time>
      </trkpt>
      <trkpt lat="43.6249" lon="3.84068">
        <ele>66</ele>
        <time>2020-06-14T12:49:36.000Z</time>
      </trkpt>
      <trkpt lat="43.62491" lon="3.84065">
        <ele>66</ele>
        <time>2020-06-14T12:49:37.000Z</time>
      </trkpt>
      <trkpt lat="43.62493" lon="3.84062">
        <ele>66</ele>
        <time>2020-06-14T12:49:38.000Z</time>
      </trkpt>
      <trkpt lat="43.62494" lon="3.8406">
        <ele>66</ele>
        <time>2020-06-14T12:49:39.000Z</time>
      </trkpt>
      <trkpt lat="43.62496" lon="3.84057">
        <ele>66</ele>
        <time>2020-06-14T12:49:40.000Z</time>
      </trkpt>
      <trkpt lat="43.62497" lon="3.84053">
        <ele>66</ele>
        <time>2020-06-14T12:49:41.000Z</time>
      </trkpt>
      <trkpt lat="43.62498" lon="3.8405">
        <ele>66</ele>
        <time>2020-06-14T12:49:42.000Z</time>
      </trkpt>
      <trkpt lat="43.62499" lon="3.84047">
        <ele>66</ele>
        <time>2020-06-14T12:49:43.000Z</time>
      </trkpt>
      <trkpt lat="43.62501" lon="3.84043">
        <ele>66</ele>
        <time>2020-06-14T12:49:44.000Z</time>
      </trkpt>
      <trkpt lat="43.62502" lon="3.8404">
        <ele>66</ele>
        <time>2020-06-14T12:49:45.000Z</time>
      </trkpt>
      <trkpt lat="43.62503" lon="3.84036">
        <ele>66</ele>
        <time>2020-06-14T12:49:46.000Z</time>
      </trkpt>
      <trkpt lat="43.62505" lon="3.84033">
        <ele>66</ele>
        <time>2020-06-14T12:49:47.000Z</time>
      </trkpt>
      <trkpt lat="43.62506" lon="3.84029">
        <ele>66</ele>
        <time>2020-06-14T12:49:48.000Z</time>
      </trkpt>
      <trkpt lat="43.62507" lon="3.84026">
        <ele>66</ele>
        <time>2020-06-14T12:49:49.000Z</time>
      </trkpt>
      <trkpt lat="43.62509" lon="3.84022">
        <ele>66</ele>
        <time>2020-06-14T12:49:50.000Z</time>
      </trkpt>
      <trkpt lat="43.6251" lon="3.84019">
        <ele>66</ele>
        <time>2020-06-14T12:49:51.000Z</time>
      </trkpt>
      <trkpt lat="43.62511" lon="3.84016">
        <ele>66</ele>
        <time>2020-06-14T12:49:52.000Z</time>
      </trkpt>
      <trkpt lat="43.62512" lon="3.84013">
        <ele>66</ele>
        <time>2020-06-14T12:49:53.000Z</time>
      </trkpt>
      <trkpt lat="43.62514" lon="3.8401">
        <ele>66.17400064</ele>
        <time>2020-06-14T12:49:54.000Z</time>
      </trkpt>
      <trkpt lat="43.62515" lon="3.84007">
        <ele>66.37400064</ele>
        <time>2020-06-14T12:49:55.000Z</time>
      </trkpt>
      <trkpt lat="43.62516" lon="3.84005">
        <ele>66.57400064</ele>
        <time>2020-06-14T12:49:56.000Z</time>
      </trkpt>
      <trkpt lat="43.62517" lon="3.84002">
        <ele>66.77400064</ele>
        <time>2020-06-14T12:49:57.000Z</time>
      </trkpt>
      <trkpt lat="43.62518" lon="3.83999">
        <ele>66.97400064</ele>
        <time>2020-06-14T12:49:58.000Z</time>
      </trkpt>
      <trkpt lat="43.62519" lon="3.83997">
        <ele>67.17400064</ele>
        <time>2020-06-14T12:49:59.000Z</time>
      </trkpt>
      <trkpt lat="43.62521" lon="3.83994">
        <ele>67.37400064</ele>
        <time>2020-06-14T12:50:00.000Z</time>
      </trkpt>
      <trkpt lat="43.62522" lon="3.83991">
        <ele>67.57400064</ele>
        <time>2020-06-14T12:50:01.000Z</time>
      </trkpt>
      <trkpt lat="43.62523" lon="3.83989">
        <ele>67.77400064</ele>
        <time>2020-06-14T12:50:02.000Z</time>
      </trkpt>
      <trkpt lat="43.62524" lon="3.83986">
        <ele>67.97400064</ele>
        <time>2020-06-14T12:50:03.000Z</time>
      </trkpt>
      <trkpt lat="43.62525" lon="3.83983">
        <ele>68.086913434378</ele>
        <time>2020-06-14T12:50:04.000Z</time>
      </trkpt>
      <trkpt lat="43.62526" lon="3.8398">
        <ele>68.186813566214</ele>
        <time>2020-06-14T12:50:05.000Z</time>
      </trkpt>
      <trkpt lat="43.62528" lon="3.83977">
        <ele>68.28671369805</ele>
        <time>2020-06-14T12:50:06.000Z</time>
      </trkpt>
      <trkpt lat="43.62529" lon="3.83975">
        <ele>68.386613829886</ele>
        <time>2020-06-14T12:50:07.000Z</time>
      </trkpt>
      <trkpt lat="43.6253" lon="3.83972">
        <ele>68.486513961723</ele>
        <time>2020-06-14T12:50:08.000Z</time>
      </trkpt>
      <trkpt lat="43.62532" lon="3.83969">
        <ele>68.586414093559</ele>
        <time>2020-06-14T12:50:09.000Z</time>
      </trkpt>
      <trkpt lat="43.62533" lon="3.83966">
        <ele>68.686314225395</ele>
        <time>2020-06-14T12:50:10.000Z</time>
      </trkpt>
      <trkpt lat="43.62535" lon="3.83963">
        <ele>68.786214357231</ele>
        <time>2020-06-14T12:50:11.000Z</time>
      </trkpt>
      <trkpt lat="43.62536" lon="3.8396">
        <ele>68.886114489068</ele>
        <time>2020-06-14T12:50:12.000Z</time>
      </trkpt>
      <trkpt lat="43.62537" lon="3.83956">
        <ele>68.986014620904</ele>
        <time>2020-06-14T12:50:13.000Z</time>
      </trkpt>
      <trkpt lat="43.62538" lon="3.83953">
        <ele>69.172173398303</ele>
        <time>2020-06-14T12:50:14.000Z</time>
      </trkpt>
      <trkpt lat="43.62538" lon="3.83949">
        <ele>69.372373534375</ele>
        <time>2020-06-14T12:50:15.000Z</time>
      </trkpt>
      <trkpt lat="43.62538" lon="3.83946">
        <ele>69.572573670447</ele>
        <time>2020-06-14T12:50:16.000Z</time>
      </trkpt>
      <trkpt lat="43.62538" lon="3.83943">
        <ele>69.772773806519</ele>
        <time>2020-06-14T12:50:17.000Z</time>
      </trkpt>
      <trkpt lat="43.62538" lon="3.83939">
        <ele>69.972973942591</ele>
        <time>2020-06-14T12:50:18.000Z</time>
      </trkpt>
      <trkpt lat="43.62538" lon="3.83936">
        <ele>70.173174078663</ele>
        <time>2020-06-14T12:50:19.000Z</time>
      </trkpt>
      <trkpt lat="43.62537" lon="3.83933">
        <ele>70.373374214735</ele>
        <time>2020-06-14T12:50:20.000Z</time>
      </trkpt>
      <trkpt lat="43.62537" lon="3.83929">
        <ele>70.573574350807</ele>
        <time>2020-06-14T12:50:21.000Z</time>
      </trkpt>
      <trkpt lat="43.62537" lon="3.83926">
        <ele>70.773774486879</ele>
        <time>2020-06-14T12:50:22.000Z</time>
      </trkpt>
      <trkpt lat="43.62536" lon="3.83922">
        <ele>70.973974622951</ele>
        <time>2020-06-14T12:50:23.000Z</time>
      </trkpt>
      <trkpt lat="43.62535" lon="3.83919">
        <ele>71.08700032</ele>
        <time>2020-06-14T12:50:24.000Z</time>
      </trkpt>
      <trkpt lat="43.62535" lon="3.83916">
        <ele>71.18700032</ele>
        <time>2020-06-14T12:50:25.000Z</time>
      </trkpt>
      <trkpt lat="43.62535" lon="3.83912">
        <ele>71.28700032</ele>
        <time>2020-06-14T12:50:26.000Z</time>
      </trkpt>
      <trkpt lat="43.62536" lon="3.83909">
        <ele>71.38700032</ele>
        <time>2020-06-14T12:50:27.000Z</time>
      </trkpt>
      <trkpt lat="43.62538" lon="3.83907">
        <ele>71.48700032</ele>
        <time>2020-06-14T12:50:28.000Z</time>
      </trkpt>
      <trkpt lat="43.62538" lon="3.83906">
        <ele>71.989072328278</ele>
        <time>2020-06-14T12:50:35.000Z</time>
      </trkpt>
      <trkpt lat="43.62539" lon="3.83899">
        <ele>71.007805602141</ele>
        <time>2020-06-14T12:51:19.000Z</time>
      </trkpt>
      <trkpt lat="43.62538" lon="3.83897">
        <ele>71</ele>
        <time>2020-06-14T12:51:20.000Z</time>
      </trkpt>
      <trkpt lat="43.62536" lon="3.83901">
        <ele>71</ele>
        <time>2020-06-14T12:51:22.000Z</time>
      </trkpt>
      <trkpt lat="43.62535" lon="3.83904">
        <ele>71</ele>
        <time>2020-06-14T12:51:23.000Z</time>
      </trkpt>
      <trkpt lat="43.62535" lon="3.83908">
        <ele>71</ele>
        <time>2020-06-14T12:51:24.000Z</time>
      </trkpt>
      <trkpt lat="43.62532" lon="3.8391">
        <ele>71</ele>
        <time>2020-06-14T12:51:25.000Z</time>
      </trkpt>
      <trkpt lat="43.6253" lon="3.8391">
        <ele>71</ele>
        <time>2020-06-14T12:51:26.000Z</time>
      </trkpt>
      <trkpt lat="43.62528" lon="3.83908">
        <ele>71</ele>
        <time>2020-06-14T12:51:27.000Z</time>
      </trkpt>
      <trkpt lat="43.62528" lon="3.83905">
        <ele>71</ele>
        <time>2020-06-14T12:51:28.000Z</time>
      </trkpt>
      <trkpt lat="43.6253" lon="3.83904">
        <ele>71</ele>
        <time>2020-06-14T12:51:29.000Z</time>
      </trkpt>
      <trkpt lat="43.62532" lon="3.83905">
        <ele>70.916341894049</ele>
        <time>2020-06-14T12:51:30.000Z</time>
      </trkpt>
      <trkpt lat="43.62535" lon="3.83908">
        <ele>70.81906575058</ele>
        <time>2020-06-14T12:51:31.000Z</time>
      </trkpt>
      <trkpt lat="43.62538" lon="3.83909">
        <ele>70.72178960711</ele>
        <time>2020-06-14T12:51:32.000Z</time>
      </trkpt>
      <trkpt lat="43.62541" lon="3.83909">
        <ele>70.624513463641</ele>
        <time>2020-06-14T12:51:33.000Z</time>
      </trkpt>
      <trkpt lat="43.62542" lon="3.83906">
        <ele>70.527237320171</ele>
        <time>2020-06-14T12:51:34.000Z</time>
      </trkpt>
      <trkpt lat="43.62542" lon="3.83903">
        <ele>70.429961176702</ele>
        <time>2020-06-14T12:51:35.000Z</time>
      </trkpt>
      <trkpt lat="43.6254" lon="3.83902">
        <ele>70.332685033233</ele>
        <time>2020-06-14T12:51:36.000Z</time>
      </trkpt>
      <trkpt lat="43.62538" lon="3.83902">
        <ele>70.235408889763</ele>
        <time>2020-06-14T12:51:37.000Z</time>
      </trkpt>
      <trkpt lat="43.62536" lon="3.83904">
        <ele>70.138132746294</ele>
        <time>2020-06-14T12:51:38.000Z</time>
      </trkpt>
      <trkpt lat="43.62536" lon="3.83907">
        <ele>70.040856602825</ele>
        <time>2020-06-14T12:51:39.000Z</time>
      </trkpt>
      <trkpt lat="43.62538" lon="3.83908">
        <ele>69.770349767442</ele>
        <time>2020-06-14T12:51:41.000Z</time>
      </trkpt>
      <trkpt lat="43.62539" lon="3.83908">
        <ele>69.043605581395</ele>
        <time>2020-06-14T12:51:46.000Z</time>
      </trkpt>
      <trkpt lat="43.62539" lon="3.83902">
        <ele>69</ele>
        <time>2020-06-14T12:52:11.000Z</time>
      </trkpt>
      <trkpt lat="43.62538" lon="3.83899">
        <ele>68.962065319137</ele>
        <time>2020-06-14T12:52:12.000Z</time>
      </trkpt>
      <trkpt lat="43.62537" lon="3.83897">
        <ele>68.856691205628</ele>
        <time>2020-06-14T12:52:13.000Z</time>
      </trkpt>
      <trkpt lat="43.62535" lon="3.83897">
        <ele>68.75131709212</ele>
        <time>2020-06-14T12:52:14.000Z</time>
      </trkpt>
      <trkpt lat="43.62532" lon="3.83897">
        <ele>68.645942978611</ele>
        <time>2020-06-14T12:52:15.000Z</time>
      </trkpt>
      <trkpt lat="43.62529" lon="3.83898">
        <ele>68.540568865102</ele>
        <time>2020-06-14T12:52:16.000Z</time>
      </trkpt>
      <trkpt lat="43.62527" lon="3.83899">
        <ele>68.435194751594</ele>
        <time>2020-06-14T12:52:17.000Z</time>
      </trkpt>
      <trkpt lat="43.62525" lon="3.83901">
        <ele>68.329820638085</ele>
        <time>2020-06-14T12:52:18.000Z</time>
      </trkpt>
      <trkpt lat="43.62524" lon="3.83904">
        <ele>68.224446524576</ele>
        <time>2020-06-14T12:52:19.000Z</time>
      </trkpt>
      <trkpt lat="43.62524" lon="3.83907">
        <ele>68.119072411068</ele>
        <time>2020-06-14T12:52:20.000Z</time>
      </trkpt>
      <trkpt lat="43.62527" lon="3.83909">
        <ele>68.013698297559</ele>
        <time>2020-06-14T12:52:21.000Z</time>
      </trkpt>
      <trkpt lat="43.6253" lon="3.83909">
        <ele>67.915451662941</ele>
        <time>2020-06-14T12:52:22.000Z</time>
      </trkpt>
      <trkpt lat="43.62532" lon="3.83908">
        <ele>67.818270023771</ele>
        <time>2020-06-14T12:52:23.000Z</time>
      </trkpt>
      <trkpt lat="43.62535" lon="3.83906">
        <ele>67.623906745432</ele>
        <time>2020-06-14T12:52:25.000Z</time>
      </trkpt>
      <trkpt lat="43.62537" lon="3.83905">
        <ele>67.429543467093</ele>
        <time>2020-06-14T12:52:27.000Z</time>
      </trkpt>
      <trkpt lat="43.62541" lon="3.83904">
        <ele>67.235180188753</ele>
        <time>2020-06-14T12:52:29.000Z</time>
      </trkpt>
      <trkpt lat="43.62542" lon="3.83908">
        <ele>67.040816910414</ele>
        <time>2020-06-14T12:52:31.000Z</time>
      </trkpt>
      <trkpt lat="43.62541" lon="3.83912">
        <ele>67</ele>
        <time>2020-06-14T12:52:33.000Z</time>
      </trkpt>
      <trkpt lat="43.62539" lon="3.83912">
        <ele>67</ele>
        <time>2020-06-14T12:52:34.000Z</time>
      </trkpt>
      <trkpt lat="43.62537" lon="3.8391">
        <ele>67</ele>
        <time>2020-06-14T12:52:35.000Z</time>
      </trkpt>
      <trkpt lat="43.62536" lon="3.83908">
        <ele>67</ele>
        <time>2020-06-14T12:52:36.000Z</time>
      </trkpt>
      <trkpt lat="43.62538" lon="3.83904">
        <ele>67</ele>
        <time>2020-06-14T12:52:38.000Z</time>
      </trkpt>
      <trkpt lat="43.6254" lon="3.83904">
        <ele>67</ele>
        <time>2020-06-14T12:52:39.000Z</time>
      </trkpt>
      <trkpt lat="43.62541" lon="3.83906">
        <ele>67</ele>
        <time>2020-06-14T12:52:40.000Z</time>
      </trkpt>
      <trkpt lat="43.62542" lon="3.83909">
        <ele>67</ele>
        <time>2020-06-14T12:52:41.000Z</time>
      </trkpt>
      <trkpt lat="43.62541" lon="3.83912">
        <ele>66.91299968</ele>
        <time>2020-06-14T12:52:42.000Z</time>
      </trkpt>
      <trkpt lat="43.62539" lon="3.83912">
        <ele>66.81299968</ele>
        <time>2020-06-14T12:52:43.000Z</time>
      </trkpt>
      <trkpt lat="43.62537" lon="3.8391">
        <ele>66.71299968</ele>
        <time>2020-06-14T12:52:44.000Z</time>
      </trkpt>
      <trkpt lat="43.62537" lon="3.83907">
        <ele>66.61299968</ele>
        <time>2020-06-14T12:52:45.000Z</time>
      </trkpt>
      <trkpt lat="43.62538" lon="3.83906">
        <ele>66.51299968</ele>
        <time>2020-06-14T12:52:46.000Z</time>
      </trkpt>
      <trkpt lat="43.6254" lon="3.83906">
        <ele>66.41299968</ele>
        <time>2020-06-14T12:52:47.000Z</time>
      </trkpt>
      <trkpt lat="43.62542" lon="3.83908">
        <ele>66.31299968</ele>
        <time>2020-06-14T12:52:48.000Z</time>
      </trkpt>
      <trkpt lat="43.62542" lon="3.83911">
        <ele>66.21299968</ele>
        <time>2020-06-14T12:52:49.000Z</time>
      </trkpt>
      <trkpt lat="43.62541" lon="3.83913">
        <ele>66.11299968</ele>
        <time>2020-06-14T12:52:50.000Z</time>
      </trkpt>
      <trkpt lat="43.62539" lon="3.83913">
        <ele>66.01299968</ele>
        <time>2020-06-14T12:52:51.000Z</time>
      </trkpt>
      <trkpt lat="43.62537" lon="3.83912">
        <ele>66.08700032</ele>
        <time>2020-06-14T12:52:52.000Z</time>
      </trkpt>
      <trkpt lat="43.62536" lon="3.83909">
        <ele>66.18700032</ele>
        <time>2020-06-14T12:52:53.000Z</time>
      </trkpt>
      <trkpt lat="43.62536" lon="3.83907">
        <ele>66.28700032</ele>
        <time>2020-06-14T12:52:54.000Z</time>
      </trkpt>
      <trkpt lat="43.62538" lon="3.83903">
        <ele>66.48700032</ele>
        <time>2020-06-14T12:52:56.000Z</time>
      </trkpt>
      <trkpt lat="43.6254" lon="3.83903">
        <ele>66.58700032</ele>
        <time>2020-06-14T12:52:57.000Z</time>
      </trkpt>
      <trkpt lat="43.62541" lon="3.83904">
        <ele>66.68700032</ele>
        <time>2020-06-14T12:52:58.000Z</time>
      </trkpt>
      <trkpt lat="43.62543" lon="3.83906">
        <ele>66.78700032</ele>
        <time>2020-06-14T12:52:59.000Z</time>
      </trkpt>
      <trkpt lat="43.62543" lon="3.83909">
        <ele>66.88700032</ele>
        <time>2020-06-14T12:53:00.000Z</time>
      </trkpt>
      <trkpt lat="43.62541" lon="3.83912">
        <ele>66.98700032</ele>
        <time>2020-06-14T12:53:01.000Z</time>
      </trkpt>
      <trkpt lat="43.6254" lon="3.83913">
        <ele>67</ele>
        <time>2020-06-14T12:53:02.000Z</time>
      </trkpt>
      <trkpt lat="43.62538" lon="3.83912">
        <ele>67</ele>
        <time>2020-06-14T12:53:03.000Z</time>
      </trkpt>
      <trkpt lat="43.62536" lon="3.83911">
        <ele>67</ele>
        <time>2020-06-14T12:53:04.000Z</time>
      </trkpt>
      <trkpt lat="43.62535" lon="3.83908">
        <ele>67</ele>
        <time>2020-06-14T12:53:05.000Z</time>
      </trkpt>
      <trkpt lat="43.62535" lon="3.83905">
        <ele>67</ele>
        <time>2020-06-14T12:53:06.000Z</time>
      </trkpt>
      <trkpt lat="43.62535" lon="3.83901">
        <ele>67</ele>
        <time>2020-06-14T12:53:08.000Z</time>
      </trkpt>
      <trkpt lat="43.62536" lon="3.83898">
        <ele>67</ele>
        <time>2020-06-14T12:53:09.000Z</time>
      </trkpt>
      <trkpt lat="43.62537" lon="3.83897">
        <ele>67</ele>
        <time>2020-06-14T12:53:10.000Z</time>
      </trkpt>
      <trkpt lat="43.6254" lon="3.83896">
        <ele>67</ele>
        <time>2020-06-14T12:53:11.000Z</time>
      </trkpt>
      <trkpt lat="43.62542" lon="3.83897">
        <ele>67</ele>
        <time>2020-06-14T12:53:12.000Z</time>
      </trkpt>
      <trkpt lat="43.62545" lon="3.83897">
        <ele>67</ele>
        <time>2020-06-14T12:53:13.000Z</time>
      </trkpt>
      <trkpt lat="43.62547" lon="3.83896">
        <ele>67</ele>
        <time>2020-06-14T12:53:14.000Z</time>
      </trkpt>
      <trkpt lat="43.62549" lon="3.83896">
        <ele>67</ele>
        <time>2020-06-14T12:53:15.000Z</time>
      </trkpt>
      <trkpt lat="43.62552" lon="3.83895">
        <ele>67</ele>
        <time>2020-06-14T12:53:16.000Z</time>
      </trkpt>
      <trkpt lat="43.62555" lon="3.83894">
        <ele>67</ele>
        <time>2020-06-14T12:53:17.000Z</time>
      </trkpt>
      <trkpt lat="43.62558" lon="3.83891">
        <ele>67</ele>
        <time>2020-06-14T12:53:18.000Z</time>
      </trkpt>
      <trkpt lat="43.62561" lon="3.83888">
        <ele>67</ele>
        <time>2020-06-14T12:53:19.000Z</time>
      </trkpt>
      <trkpt lat="43.62564" lon="3.83884">
        <ele>67</ele>
        <time>2020-06-14T12:53:20.000Z</time>
      </trkpt>
      <trkpt lat="43.62567" lon="3.83879">
        <ele>67</ele>
        <time>2020-06-14T12:53:21.000Z</time>
      </trkpt>
      <trkpt lat="43.62568" lon="3.83872">
        <ele>67.073096470448</ele>
        <time>2020-06-14T12:53:22.000Z</time>
      </trkpt>
      <trkpt lat="43.62567" lon="3.83866">
        <ele>67.174619346069</ele>
        <time>2020-06-14T12:53:23.000Z</time>
      </trkpt>
      <trkpt lat="43.62564" lon="3.83859">
        <ele>67.276142221691</ele>
        <time>2020-06-14T12:53:24.000Z</time>
      </trkpt>
      <trkpt lat="43.62562" lon="3.83854">
        <ele>67.377665097313</ele>
        <time>2020-06-14T12:53:25.000Z</time>
      </trkpt>
      <trkpt lat="43.62559" lon="3.83848">
        <ele>67.479187972934</ele>
        <time>2020-06-14T12:53:26.000Z</time>
      </trkpt>
      <trkpt lat="43.62557" lon="3.83843">
        <ele>67.580710848556</ele>
        <time>2020-06-14T12:53:27.000Z</time>
      </trkpt>
      <trkpt lat="43.62555" lon="3.83838">
        <ele>67.682233724177</ele>
        <time>2020-06-14T12:53:28.000Z</time>
      </trkpt>
      <trkpt lat="43.62553" lon="3.83834">
        <ele>67.783756599799</ele>
        <time>2020-06-14T12:53:29.000Z</time>
      </trkpt>
      <trkpt lat="43.62551" lon="3.8383">
        <ele>67.885279475421</ele>
        <time>2020-06-14T12:53:30.000Z</time>
      </trkpt>
      <trkpt lat="43.62549" lon="3.83826">
        <ele>67.986802351042</ele>
        <time>2020-06-14T12:53:31.000Z</time>
      </trkpt>
      <trkpt lat="43.62548" lon="3.83822">
        <ele>68.08700032</ele>
        <time>2020-06-14T12:53:32.000Z</time>
      </trkpt>
      <trkpt lat="43.62546" lon="3.83819">
        <ele>68.18700032</ele>
        <time>2020-06-14T12:53:33.000Z</time>
      </trkpt>
      <trkpt lat="43.62544" lon="3.83816">
        <ele>68.28700032</ele>
        <time>2020-06-14T12:53:34.000Z</time>
      </trkpt>
      <trkpt lat="43.62543" lon="3.83813">
        <ele>68.38700032</ele>
        <time>2020-06-14T12:53:35.000Z</time>
      </trkpt>
      <trkpt lat="43.62541" lon="3.8381">
        <ele>68.48700032</ele>
        <time>2020-06-14T12:53:36.000Z</time>
      </trkpt>
      <trkpt lat="43.62541" lon="3.83807">
        <ele>68.58700032</ele>
        <time>2020-06-14T12:53:37.000Z</time>
      </trkpt>
      <trkpt lat="43.62541" lon="3.83804">
        <ele>68.68700032</ele>
        <time>2020-06-14T12:53:38.000Z</time>
      </trkpt>
      <trkpt lat="43.62541" lon="3.838">
        <ele>68.78700032</ele>
        <time>2020-06-14T12:53:39.000Z</time>
      </trkpt>
      <trkpt lat="43.62543" lon="3.83796">
        <ele>68.88700032</ele>
        <time>2020-06-14T12:53:40.000Z</time>
      </trkpt>
      <trkpt lat="43.62544" lon="3.83792">
        <ele>68.98700032</ele>
        <time>2020-06-14T12:53:41.000Z</time>
      </trkpt>
      <trkpt lat="43.62544" lon="3.83787">
        <ele>69</ele>
        <time>2020-06-14T12:53:42.000Z</time>
      </trkpt>
      <trkpt lat="43.62543" lon="3.83783">
        <ele>69</ele>
        <time>2020-06-14T12:53:43.000Z</time>
      </trkpt>
      <trkpt lat="43.6254" lon="3.83779">
        <ele>69</ele>
        <time>2020-06-14T12:53:44.000Z</time>
      </trkpt>
      <trkpt lat="43.62537" lon="3.83776">
        <ele>69</ele>
        <time>2020-06-14T12:53:45.000Z</time>
      </trkpt>
      <trkpt lat="43.62534" lon="3.83773">
        <ele>69</ele>
        <time>2020-06-14T12:53:46.000Z</time>
      </trkpt>
      <trkpt lat="43.62531" lon="3.83771">
        <ele>69</ele>
        <time>2020-06-14T12:53:47.000Z</time>
      </trkpt>
      <trkpt lat="43.62528" lon="3.83767">
        <ele>69</ele>
        <time>2020-06-14T12:53:48.000Z</time>
      </trkpt>
      <trkpt lat="43.62525" lon="3.83764">
        <ele>69</ele>
        <time>2020-06-14T12:53:49.000Z</time>
      </trkpt>
      <trkpt lat="43.62522" lon="3.83762">
        <ele>69</ele>
        <time>2020-06-14T12:53:50.000Z</time>
      </trkpt>
      <trkpt lat="43.62519" lon="3.8376">
        <ele>69</ele>
        <time>2020-06-14T12:53:51.000Z</time>
      </trkpt>
      <trkpt lat="43.62516" lon="3.83758">
        <ele>69</ele>
        <time>2020-06-14T12:53:52.000Z</time>
      </trkpt>
      <trkpt lat="43.62513" lon="3.83756">
        <ele>69</ele>
        <time>2020-06-14T12:53:53.000Z</time>
      </trkpt>
      <trkpt lat="43.62511" lon="3.83753">
        <ele>69</ele>
        <time>2020-06-14T12:53:54.000Z</time>
      </trkpt>
      <trkpt lat="43.62508" lon="3.83752">
        <ele>69</ele>
        <time>2020-06-14T12:53:55.000Z</time>
      </trkpt>
      <trkpt lat="43.62505" lon="3.8375">
        <ele>69</ele>
        <time>2020-06-14T12:53:56.000Z</time>
      </trkpt>
      <trkpt lat="43.62502" lon="3.8375">
        <ele>69</ele>
        <time>2020-06-14T12:53:57.000Z</time>
      </trkpt>
      <trkpt lat="43.62499" lon="3.83748">
        <ele>69</ele>
        <time>2020-06-14T12:53:58.000Z</time>
      </trkpt>
      <trkpt lat="43.62496" lon="3.83747">
        <ele>69</ele>
        <time>2020-06-14T12:53:59.000Z</time>
      </trkpt>
      <trkpt lat="43.62493" lon="3.83745">
        <ele>69</ele>
        <time>2020-06-14T12:54:00.000Z</time>
      </trkpt>
      <trkpt lat="43.6249" lon="3.83743">
        <ele>69</ele>
        <time>2020-06-14T12:54:01.000Z</time>
      </trkpt>
      <trkpt lat="43.62488" lon="3.83741">
        <ele>69.08700032</ele>
        <time>2020-06-14T12:54:02.000Z</time>
      </trkpt>
      <trkpt lat="43.62485" lon="3.83739">
        <ele>69.18700032</ele>
        <time>2020-06-14T12:54:03.000Z</time>
      </trkpt>
      <trkpt lat="43.62482" lon="3.83737">
        <ele>69.28700032</ele>
        <time>2020-06-14T12:54:04.000Z</time>
      </trkpt>
      <trkpt lat="43.62479" lon="3.83736">
        <ele>69.38700032</ele>
        <time>2020-06-14T12:54:05.000Z</time>
      </trkpt>
      <trkpt lat="43.62476" lon="3.83734">
        <ele>69.48700032</ele>
        <time>2020-06-14T12:54:06.000Z</time>
      </trkpt>
      <trkpt lat="43.62473" lon="3.83733">
        <ele>69.58700032</ele>
        <time>2020-06-14T12:54:07.000Z</time>
      </trkpt>
      <trkpt lat="43.62471" lon="3.83732">
        <ele>69.68700032</ele>
        <time>2020-06-14T12:54:08.000Z</time>
      </trkpt>
      <trkpt lat="43.62468" lon="3.83731">
        <ele>69.78700032</ele>
        <time>2020-06-14T12:54:09.000Z</time>
      </trkpt>
      <trkpt lat="43.62465" lon="3.83731">
        <ele>69.88700032</ele>
        <time>2020-06-14T12:54:10.000Z</time>
      </trkpt>
      <trkpt lat="43.62462" lon="3.8373">
        <ele>69.98700032</ele>
        <time>2020-06-14T12:54:11.000Z</time>
      </trkpt>
      <trkpt lat="43.6246" lon="3.83728">
        <ele>70.173653222417</ele>
        <time>2020-06-14T12:54:12.000Z</time>
      </trkpt>
      <trkpt lat="43.62457" lon="3.83727">
        <ele>70.373253893331</ele>
        <time>2020-06-14T12:54:13.000Z</time>
      </trkpt>
      <trkpt lat="43.62455" lon="3.83727">
        <ele>70.572854564245</ele>
        <time>2020-06-14T12:54:14.000Z</time>
      </trkpt>
      <trkpt lat="43.62453" lon="3.83726">
        <ele>70.772455235158</ele>
        <time>2020-06-14T12:54:15.000Z</time>
      </trkpt>
      <trkpt lat="43.62449" lon="3.83724">
        <ele>71.171656576986</ele>
        <time>2020-06-14T12:54:17.000Z</time>
      </trkpt>
      <trkpt lat="43.62448" lon="3.83724">
        <ele>71.3712572479</ele>
        <time>2020-06-14T12:54:18.000Z</time>
      </trkpt>
      <trkpt lat="43.62445" lon="3.83723">
        <ele>71.570857918813</ele>
        <time>2020-06-14T12:54:19.000Z</time>
      </trkpt>
      <trkpt lat="43.62443" lon="3.83722">
        <ele>71.770458589727</ele>
        <time>2020-06-14T12:54:20.000Z</time>
      </trkpt>
      <trkpt lat="43.6244" lon="3.83721">
        <ele>71.970059260641</ele>
        <time>2020-06-14T12:54:21.000Z</time>
      </trkpt>
      <trkpt lat="43.62438" lon="3.8372">
        <ele>72.085170074658</ele>
        <time>2020-06-14T12:54:22.000Z</time>
      </trkpt>
      <trkpt lat="43.62436" lon="3.83719">
        <ele>72.185370539717</ele>
        <time>2020-06-14T12:54:23.000Z</time>
      </trkpt>
      <trkpt lat="43.62434" lon="3.83718">
        <ele>72.285571004775</ele>
        <time>2020-06-14T12:54:24.000Z</time>
      </trkpt>
      <trkpt lat="43.62432" lon="3.83716">
        <ele>72.385771469833</ele>
        <time>2020-06-14T12:54:25.000Z</time>
      </trkpt>
      <trkpt lat="43.6243" lon="3.83713">
        <ele>72.58617239995</ele>
        <time>2020-06-14T12:54:27.000Z</time>
      </trkpt>
      <trkpt lat="43.62429" lon="3.83708">
        <ele>72.786573330067</ele>
        <time>2020-06-14T12:54:29.000Z</time>
      </trkpt>
      <trkpt lat="43.62428" lon="3.83705">
        <ele>72.886773795126</ele>
        <time>2020-06-14T12:54:30.000Z</time>
      </trkpt>
      <trkpt lat="43.62426" lon="3.83702">
        <ele>72.986974260184</ele>
        <time>2020-06-14T12:54:31.000Z</time>
      </trkpt>
      <trkpt lat="43.62424" lon="3.83699">
        <ele>73.08700032</ele>
        <time>2020-06-14T12:54:32.000Z</time>
      </trkpt>
      <trkpt lat="43.62422" lon="3.83697">
        <ele>73.18700032</ele>
        <time>2020-06-14T12:54:33.000Z</time>
      </trkpt>
      <trkpt lat="43.6242" lon="3.83695">
        <ele>73.28700032</ele>
        <time>2020-06-14T12:54:34.000Z</time>
      </trkpt>
      <trkpt lat="43.62418" lon="3.83693">
        <ele>73.38700032</ele>
        <time>2020-06-14T12:54:35.000Z</time>
      </trkpt>
      <trkpt lat="43.62417" lon="3.83691">
        <ele>73.48700032</ele>
        <time>2020-06-14T12:54:36.000Z</time>
      </trkpt>
      <trkpt lat="43.62417" lon="3.83686">
        <ele>73.68700032</ele>
        <time>2020-06-14T12:54:38.000Z</time>
      </trkpt>
      <trkpt lat="43.62418" lon="3.83683">
        <ele>73.88700032</ele>
        <time>2020-06-14T12:54:40.000Z</time>
      </trkpt>
      <trkpt lat="43.62418" lon="3.83682">
        <ele>74.002083604549</ele>
        <time>2020-06-14T12:54:45.000Z</time>
      </trkpt>
      <trkpt lat="43.62416" lon="3.83679">
        <ele>74.991795765416</ele>
        <time>2020-06-14T12:56:01.000Z</time>
      </trkpt>
      <trkpt lat="43.62415" lon="3.83678">
        <ele>74.962065319137</ele>
        <time>2020-06-14T12:56:02.000Z</time>
      </trkpt>
      <trkpt lat="43.62414" lon="3.83678">
        <ele>74.75131709212</ele>
        <time>2020-06-14T12:56:04.000Z</time>
      </trkpt>
      <trkpt lat="43.62414" lon="3.83681">
        <ele>74.540568865102</ele>
        <time>2020-06-14T12:56:06.000Z</time>
      </trkpt>
      <trkpt lat="43.62417" lon="3.83683">
        <ele>74.329820638085</ele>
        <time>2020-06-14T12:56:08.000Z</time>
      </trkpt>
      <trkpt lat="43.62418" lon="3.83682">
        <ele>74.224446524576</ele>
        <time>2020-06-14T12:56:09.000Z</time>
      </trkpt>
      <trkpt lat="43.6242" lon="3.8368">
        <ele>74.119072411068</ele>
        <time>2020-06-14T12:56:10.000Z</time>
      </trkpt>
      <trkpt lat="43.62422" lon="3.83677">
        <ele>74.013698297559</ele>
        <time>2020-06-14T12:56:11.000Z</time>
      </trkpt>
      <trkpt lat="43.62423" lon="3.83676">
        <ele>74.084466277613</ele>
        <time>2020-06-14T12:56:12.000Z</time>
      </trkpt>
      <trkpt lat="43.62425" lon="3.83675">
        <ele>74.181553595928</ele>
        <time>2020-06-14T12:56:13.000Z</time>
      </trkpt>
      <trkpt lat="43.62428" lon="3.83674">
        <ele>74.278640914243</ele>
        <time>2020-06-14T12:56:14.000Z</time>
      </trkpt>
      <trkpt lat="43.6243" lon="3.83673">
        <ele>74.375728232557</ele>
        <time>2020-06-14T12:56:15.000Z</time>
      </trkpt>
      <trkpt lat="43.62433" lon="3.83672">
        <ele>74.472815550872</ele>
        <time>2020-06-14T12:56:16.000Z</time>
      </trkpt>
      <trkpt lat="43.62435" lon="3.83671">
        <ele>74.569902869187</ele>
        <time>2020-06-14T12:56:17.000Z</time>
      </trkpt>
      <trkpt lat="43.62437" lon="3.83671">
        <ele>74.666990187501</ele>
        <time>2020-06-14T12:56:18.000Z</time>
      </trkpt>
      <trkpt lat="43.6244" lon="3.8367">
        <ele>74.764077505816</ele>
        <time>2020-06-14T12:56:19.000Z</time>
      </trkpt>
      <trkpt lat="43.62442" lon="3.8367">
        <ele>74.861164824131</ele>
        <time>2020-06-14T12:56:20.000Z</time>
      </trkpt>
      <trkpt lat="43.62445" lon="3.8367">
        <ele>74.958252142445</ele>
        <time>2020-06-14T12:56:21.000Z</time>
      </trkpt>
      <trkpt lat="43.62447" lon="3.83669">
        <ele>75</ele>
        <time>2020-06-14T12:56:22.000Z</time>
      </trkpt>
      <trkpt lat="43.6245" lon="3.83667">
        <ele>75</ele>
        <time>2020-06-14T12:56:23.000Z</time>
      </trkpt>
      <trkpt lat="43.62452" lon="3.83666">
        <ele>75</ele>
        <time>2020-06-14T12:56:24.000Z</time>
      </trkpt>
      <trkpt lat="43.62454" lon="3.83666">
        <ele>75</ele>
        <time>2020-06-14T12:56:25.000Z</time>
      </trkpt>
      <trkpt lat="43.62456" lon="3.83665">
        <ele>75</ele>
        <time>2020-06-14T12:56:26.000Z</time>
      </trkpt>
      <trkpt lat="43.62458" lon="3.83664">
        <ele>75</ele>
        <time>2020-06-14T12:56:27.000Z</time>
      </trkpt>
      <trkpt lat="43.6246" lon="3.83663">
        <ele>75</ele>
        <time>2020-06-14T12:56:28.000Z</time>
      </trkpt>
      <trkpt lat="43.62462" lon="3.83661">
        <ele>75</ele>
        <time>2020-06-14T12:56:29.000Z</time>
      </trkpt>
      <trkpt lat="43.62464" lon="3.8366">
        <ele>75</ele>
        <time>2020-06-14T12:56:30.000Z</time>
      </trkpt>
      <trkpt lat="43.62466" lon="3.83658">
        <ele>75</ele>
        <time>2020-06-14T12:56:31.000Z</time>
      </trkpt>
      <trkpt lat="43.62468" lon="3.83656">
        <ele>75.08700032</ele>
        <time>2020-06-14T12:56:32.000Z</time>
      </trkpt>
      <trkpt lat="43.6247" lon="3.83655">
        <ele>75.18700032</ele>
        <time>2020-06-14T12:56:33.000Z</time>
      </trkpt>
      <trkpt lat="43.62474" lon="3.83654">
        <ele>75.28700032</ele>
        <time>2020-06-14T12:56:34.000Z</time>
      </trkpt>
      <trkpt lat="43.62477" lon="3.83653">
        <ele>75.38700032</ele>
        <time>2020-06-14T12:56:35.000Z</time>
      </trkpt>
      <trkpt lat="43.62481" lon="3.83651">
        <ele>75.48700032</ele>
        <time>2020-06-14T12:56:36.000Z</time>
      </trkpt>
      <trkpt lat="43.62484" lon="3.8365">
        <ele>75.58700032</ele>
        <time>2020-06-14T12:56:37.000Z</time>
      </trkpt>
      <trkpt lat="43.62487" lon="3.83647">
        <ele>75.68700032</ele>
        <time>2020-06-14T12:56:38.000Z</time>
      </trkpt>
      <trkpt lat="43.62488" lon="3.83643">
        <ele>75.78700032</ele>
        <time>2020-06-14T12:56:39.000Z</time>
      </trkpt>
      <trkpt lat="43.6249" lon="3.83639">
        <ele>75.88700032</ele>
        <time>2020-06-14T12:56:40.000Z</time>
      </trkpt>
      <trkpt lat="43.62492" lon="3.83634">
        <ele>75.98700032</ele>
        <time>2020-06-14T12:56:41.000Z</time>
      </trkpt>
      <trkpt lat="43.62494" lon="3.83629">
        <ele>76</ele>
        <time>2020-06-14T12:56:42.000Z</time>
      </trkpt>
      <trkpt lat="43.62496" lon="3.83624">
        <ele>76</ele>
        <time>2020-06-14T12:56:43.000Z</time>
      </trkpt>
      <trkpt lat="43.62498" lon="3.8362">
        <ele>76</ele>
        <time>2020-06-14T12:56:44.000Z</time>
      </trkpt>
      <trkpt lat="43.625" lon="3.83615">
        <ele>76</ele>
        <time>2020-06-14T12:56:45.000Z</time>
      </trkpt>
      <trkpt lat="43.62502" lon="3.83611">
        <ele>76</ele>
        <time>2020-06-14T12:56:46.000Z</time>
      </trkpt>
      <trkpt lat="43.62505" lon="3.83608">
        <ele>76</ele>
        <time>2020-06-14T12:56:47.000Z</time>
      </trkpt>
      <trkpt lat="43.62507" lon="3.83606">
        <ele>76</ele>
        <time>2020-06-14T12:56:48.000Z</time>
      </trkpt>
      <trkpt lat="43.62509" lon="3.83604">
        <ele>76</ele>
        <time>2020-06-14T12:56:49.000Z</time>
      </trkpt>
      <trkpt lat="43.62512" lon="3.83604">
        <ele>76</ele>
        <time>2020-06-14T12:56:50.000Z</time>
      </trkpt>
      <trkpt lat="43.62514" lon="3.83603">
        <ele>76</ele>
        <time>2020-06-14T12:56:51.000Z</time>
      </trkpt>
      <trkpt lat="43.62517" lon="3.83602">
        <ele>76</ele>
        <time>2020-06-14T12:56:52.000Z</time>
      </trkpt>
      <trkpt lat="43.62521" lon="3.83602">
        <ele>76</ele>
        <time>2020-06-14T12:56:53.000Z</time>
      </trkpt>
      <trkpt lat="43.62525" lon="3.83603">
        <ele>76</ele>
        <time>2020-06-14T12:56:54.000Z</time>
      </trkpt>
      <trkpt lat="43.62529" lon="3.83605">
        <ele>76</ele>
        <time>2020-06-14T12:56:55.000Z</time>
      </trkpt>
      <trkpt lat="43.62532" lon="3.83607">
        <ele>76</ele>
        <time>2020-06-14T12:56:56.000Z</time>
      </trkpt>
      <trkpt lat="43.62536" lon="3.83611">
        <ele>76</ele>
        <time>2020-06-14T12:56:57.000Z</time>
      </trkpt>
      <trkpt lat="43.62539" lon="3.83614">
        <ele>76</ele>
        <time>2020-06-14T12:56:58.000Z</time>
      </trkpt>
      <trkpt lat="43.62543" lon="3.83617">
        <ele>76</ele>
        <time>2020-06-14T12:56:59.000Z</time>
      </trkpt>
      <trkpt lat="43.62546" lon="3.83619">
        <ele>76</ele>
        <time>2020-06-14T12:57:00.000Z</time>
      </trkpt>
      <trkpt lat="43.6255" lon="3.83619">
        <ele>76</ele>
        <time>2020-06-14T12:57:01.000Z</time>
      </trkpt>
      <trkpt lat="43.62554" lon="3.83618">
        <ele>76.085170074658</ele>
        <time>2020-06-14T12:57:02.000Z</time>
      </trkpt>
      <trkpt lat="43.62558" lon="3.83617">
        <ele>76.185370539717</ele>
        <time>2020-06-14T12:57:03.000Z</time>
      </trkpt>
      <trkpt lat="43.62562" lon="3.83616">
        <ele>76.285571004775</ele>
        <time>2020-06-14T12:57:04.000Z</time>
      </trkpt>
      <trkpt lat="43.62566" lon="3.83614">
        <ele>76.385771469833</ele>
        <time>2020-06-14T12:57:05.000Z</time>
      </trkpt>
      <trkpt lat="43.6257" lon="3.83612">
        <ele>76.485971934892</ele>
        <time>2020-06-14T12:57:06.000Z</time>
      </trkpt>
      <trkpt lat="43.62573" lon="3.83611">
        <ele>76.58617239995</ele>
        <time>2020-06-14T12:57:07.000Z</time>
      </trkpt>
      <trkpt lat="43.62576" lon="3.83609">
        <ele>76.686372865009</ele>
        <time>2020-06-14T12:57:08.000Z</time>
      </trkpt>
      <trkpt lat="43.62577" lon="3.83607">
        <ele>76.786573330067</ele>
        <time>2020-06-14T12:57:09.000Z</time>
      </trkpt>
      <trkpt lat="43.62578" lon="3.83604">
        <ele>76.886773795126</ele>
        <time>2020-06-14T12:57:10.000Z</time>
      </trkpt>
      <trkpt lat="43.62577" lon="3.83601">
        <ele>76.986974260184</ele>
        <time>2020-06-14T12:57:11.000Z</time>
      </trkpt>
      <trkpt lat="43.62575" lon="3.83598">
        <ele>77</ele>
        <time>2020-06-14T12:57:12.000Z</time>
      </trkpt>
      <trkpt lat="43.62573" lon="3.83595">
        <ele>77</ele>
        <time>2020-06-14T12:57:13.000Z</time>
      </trkpt>
      <trkpt lat="43.62572" lon="3.83592">
        <ele>77</ele>
        <time>2020-06-14T12:57:14.000Z</time>
      </trkpt>
      <trkpt lat="43.62571" lon="3.83589">
        <ele>77</ele>
        <time>2020-06-14T12:57:15.000Z</time>
      </trkpt>
      <trkpt lat="43.6257" lon="3.83586">
        <ele>77</ele>
        <time>2020-06-14T12:57:16.000Z</time>
      </trkpt>
      <trkpt lat="43.62568" lon="3.83583">
        <ele>77</ele>
        <time>2020-06-14T12:57:17.000Z</time>
      </trkpt>
      <trkpt lat="43.62566" lon="3.8358">
        <ele>77</ele>
        <time>2020-06-14T12:57:18.000Z</time>
      </trkpt>
      <trkpt lat="43.62563" lon="3.83577">
        <ele>77</ele>
        <time>2020-06-14T12:57:19.000Z</time>
      </trkpt>
      <trkpt lat="43.6256" lon="3.83573">
        <ele>77</ele>
        <time>2020-06-14T12:57:20.000Z</time>
      </trkpt>
      <trkpt lat="43.62557" lon="3.8357">
        <ele>77</ele>
        <time>2020-06-14T12:57:21.000Z</time>
      </trkpt>
      <trkpt lat="43.62554" lon="3.83567">
        <ele>76.91299968</ele>
        <time>2020-06-14T12:57:22.000Z</time>
      </trkpt>
      <trkpt lat="43.62551" lon="3.83564">
        <ele>76.81299968</ele>
        <time>2020-06-14T12:57:23.000Z</time>
      </trkpt>
      <trkpt lat="43.62548" lon="3.83562">
        <ele>76.71299968</ele>
        <time>2020-06-14T12:57:24.000Z</time>
      </trkpt>
      <trkpt lat="43.62544" lon="3.83559">
        <ele>76.61299968</ele>
        <time>2020-06-14T12:57:25.000Z</time>
      </trkpt>
      <trkpt lat="43.62541" lon="3.83557">
        <ele>76.51299968</ele>
        <time>2020-06-14T12:57:26.000Z</time>
      </trkpt>
      <trkpt lat="43.62538" lon="3.83554">
        <ele>76.41299968</ele>
        <time>2020-06-14T12:57:27.000Z</time>
      </trkpt>
      <trkpt lat="43.62535" lon="3.8355">
        <ele>76.31299968</ele>
        <time>2020-06-14T12:57:28.000Z</time>
      </trkpt>
      <trkpt lat="43.62533" lon="3.83546">
        <ele>76.21299968</ele>
        <time>2020-06-14T12:57:29.000Z</time>
      </trkpt>
      <trkpt lat="43.62532" lon="3.83543">
        <ele>76.11299968</ele>
        <time>2020-06-14T12:57:30.000Z</time>
      </trkpt>
      <trkpt lat="43.62532" lon="3.83539">
        <ele>76.01299968</ele>
        <time>2020-06-14T12:57:31.000Z</time>
      </trkpt>
      <trkpt lat="43.62531" lon="3.83535">
        <ele>76</ele>
        <time>2020-06-14T12:57:32.000Z</time>
      </trkpt>
      <trkpt lat="43.6253" lon="3.83531">
        <ele>76</ele>
        <time>2020-06-14T12:57:33.000Z</time>
      </trkpt>
      <trkpt lat="43.62528" lon="3.83527">
        <ele>76</ele>
        <time>2020-06-14T12:57:34.000Z</time>
      </trkpt>
      <trkpt lat="43.62527" lon="3.83523">
        <ele>76</ele>
        <time>2020-06-14T12:57:35.000Z</time>
      </trkpt>
      <trkpt lat="43.62525" lon="3.83519">
        <ele>76</ele>
        <time>2020-06-14T12:57:36.000Z</time>
      </trkpt>
      <trkpt lat="43.62523" lon="3.83515">
        <ele>76</ele>
        <time>2020-06-14T12:57:37.000Z</time>
      </trkpt>
      <trkpt lat="43.62522" lon="3.83511">
        <ele>76</ele>
        <time>2020-06-14T12:57:38.000Z</time>
      </trkpt>
      <trkpt lat="43.6252" lon="3.83507">
        <ele>76</ele>
        <time>2020-06-14T12:57:39.000Z</time>
      </trkpt>
      <trkpt lat="43.62519" lon="3.83504">
        <ele>76</ele>
        <time>2020-06-14T12:57:40.000Z</time>
      </trkpt>
      <trkpt lat="43.62517" lon="3.835">
        <ele>76</ele>
        <time>2020-06-14T12:57:41.000Z</time>
      </trkpt>
      <trkpt lat="43.62516" lon="3.83497">
        <ele>76.086086699151</ele>
        <time>2020-06-14T12:57:42.000Z</time>
      </trkpt>
      <trkpt lat="43.62514" lon="3.83494">
        <ele>76.186186767187</ele>
        <time>2020-06-14T12:57:43.000Z</time>
      </trkpt>
      <trkpt lat="43.62513" lon="3.8349">
        <ele>76.286286835223</ele>
        <time>2020-06-14T12:57:44.000Z</time>
      </trkpt>
      <trkpt lat="43.62512" lon="3.83488">
        <ele>76.386386903259</ele>
        <time>2020-06-14T12:57:45.000Z</time>
      </trkpt>
      <trkpt lat="43.62511" lon="3.83485">
        <ele>76.486486971296</ele>
        <time>2020-06-14T12:57:46.000Z</time>
      </trkpt>
      <trkpt lat="43.62509" lon="3.83483">
        <ele>76.586587039332</ele>
        <time>2020-06-14T12:57:47.000Z</time>
      </trkpt>
      <trkpt lat="43.62507" lon="3.8348">
        <ele>76.686687107368</ele>
        <time>2020-06-14T12:57:48.000Z</time>
      </trkpt>
      <trkpt lat="43.62506" lon="3.83477">
        <ele>76.786787175404</ele>
        <time>2020-06-14T12:57:49.000Z</time>
      </trkpt>
      <trkpt lat="43.62506" lon="3.83473">
        <ele>76.88688724344</ele>
        <time>2020-06-14T12:57:50.000Z</time>
      </trkpt>
      <trkpt lat="43.62505" lon="3.83471">
        <ele>76.986987311476</ele>
        <time>2020-06-14T12:57:51.000Z</time>
      </trkpt>
      <trkpt lat="43.62504" lon="3.83468">
        <ele>77</ele>
        <time>2020-06-14T12:57:53.000Z</time>
      </trkpt>
      <trkpt lat="43.62502" lon="3.83464">
        <ele>77</ele>
        <time>2020-06-14T12:57:55.000Z</time>
      </trkpt>
      <trkpt lat="43.62502" lon="3.83462">
        <ele>77</ele>
        <time>2020-06-14T12:57:56.000Z</time>
      </trkpt>
      <trkpt lat="43.62502" lon="3.83459">
        <ele>77</ele>
        <time>2020-06-14T12:57:57.000Z</time>
      </trkpt>
      <trkpt lat="43.62502" lon="3.83456">
        <ele>77</ele>
        <time>2020-06-14T12:57:58.000Z</time>
      </trkpt>
      <trkpt lat="43.62503" lon="3.83453">
        <ele>77</ele>
        <time>2020-06-14T12:57:59.000Z</time>
      </trkpt>
      <trkpt lat="43.62504" lon="3.83449">
        <ele>77</ele>
        <time>2020-06-14T12:58:00.000Z</time>
      </trkpt>
      <trkpt lat="43.62506" lon="3.83445">
        <ele>77</ele>
        <time>2020-06-14T12:58:01.000Z</time>
      </trkpt>
      <trkpt lat="43.62507" lon="3.83441">
        <ele>76.944156543816</ele>
        <time>2020-06-14T12:58:02.000Z</time>
      </trkpt>
      <trkpt lat="43.62508" lon="3.83436">
        <ele>76.840743961698</ele>
        <time>2020-06-14T12:58:03.000Z</time>
      </trkpt>
      <trkpt lat="43.6251" lon="3.83431">
        <ele>76.73733137958</ele>
        <time>2020-06-14T12:58:04.000Z</time>
      </trkpt>
      <trkpt lat="43.62511" lon="3.83427">
        <ele>76.633918797462</ele>
        <time>2020-06-14T12:58:05.000Z</time>
      </trkpt>
      <trkpt lat="43.62513" lon="3.83422">
        <ele>76.530506215344</ele>
        <time>2020-06-14T12:58:06.000Z</time>
      </trkpt>
      <trkpt lat="43.62514" lon="3.83417">
        <ele>76.427093633227</ele>
        <time>2020-06-14T12:58:07.000Z</time>
      </trkpt>
      <trkpt lat="43.62515" lon="3.83411">
        <ele>76.323681051109</ele>
        <time>2020-06-14T12:58:08.000Z</time>
      </trkpt>
      <trkpt lat="43.62515" lon="3.83405">
        <ele>76.220268468991</ele>
        <time>2020-06-14T12:58:09.000Z</time>
      </trkpt>
      <trkpt lat="43.62516" lon="3.83399">
        <ele>76.116855886873</ele>
        <time>2020-06-14T12:58:10.000Z</time>
      </trkpt>
      <trkpt lat="43.62518" lon="3.83393">
        <ele>76.013443304755</ele>
        <time>2020-06-14T12:58:11.000Z</time>
      </trkpt>
      <trkpt lat="43.62519" lon="3.83388">
        <ele>76.17400064</ele>
        <time>2020-06-14T12:58:12.000Z</time>
      </trkpt>
      <trkpt lat="43.62521" lon="3.83383">
        <ele>76.37400064</ele>
        <time>2020-06-14T12:58:13.000Z</time>
      </trkpt>
      <trkpt lat="43.62523" lon="3.83378">
        <ele>76.57400064</ele>
        <time>2020-06-14T12:58:14.000Z</time>
      </trkpt>
      <trkpt lat="43.62524" lon="3.83373">
        <ele>76.77400064</ele>
        <time>2020-06-14T12:58:15.000Z</time>
      </trkpt>
      <trkpt lat="43.62525" lon="3.83368">
        <ele>76.97400064</ele>
        <time>2020-06-14T12:58:16.000Z</time>
      </trkpt>
      <trkpt lat="43.62526" lon="3.83363">
        <ele>77.17400064</ele>
        <time>2020-06-14T12:58:17.000Z</time>
      </trkpt>
      <trkpt lat="43.62528" lon="3.83359">
        <ele>77.37400064</ele>
        <time>2020-06-14T12:58:18.000Z</time>
      </trkpt>
      <trkpt lat="43.62529" lon="3.83354">
        <ele>77.57400064</ele>
        <time>2020-06-14T12:58:19.000Z</time>
      </trkpt>
      <trkpt lat="43.6253" lon="3.83349">
        <ele>77.77400064</ele>
        <time>2020-06-14T12:58:20.000Z</time>
      </trkpt>
      <trkpt lat="43.62532" lon="3.83344">
        <ele>77.97400064</ele>
        <time>2020-06-14T12:58:21.000Z</time>
      </trkpt>
      <trkpt lat="43.62533" lon="3.8334">
        <ele>78.08700032</ele>
        <time>2020-06-14T12:58:22.000Z</time>
      </trkpt>
      <trkpt lat="43.62535" lon="3.83335">
        <ele>78.18700032</ele>
        <time>2020-06-14T12:58:23.000Z</time>
      </trkpt>
      <trkpt lat="43.62536" lon="3.8333">
        <ele>78.28700032</ele>
        <time>2020-06-14T12:58:24.000Z</time>
      </trkpt>
      <trkpt lat="43.62538" lon="3.83325">
        <ele>78.38700032</ele>
        <time>2020-06-14T12:58:25.000Z</time>
      </trkpt>
      <trkpt lat="43.62539" lon="3.8332">
        <ele>78.48700032</ele>
        <time>2020-06-14T12:58:26.000Z</time>
      </trkpt>
      <trkpt lat="43.62541" lon="3.83316">
        <ele>78.58700032</ele>
        <time>2020-06-14T12:58:27.000Z</time>
      </trkpt>
      <trkpt lat="43.62543" lon="3.83311">
        <ele>78.68700032</ele>
        <time>2020-06-14T12:58:28.000Z</time>
      </trkpt>
      <trkpt lat="43.62544" lon="3.83307">
        <ele>78.78700032</ele>
        <time>2020-06-14T12:58:29.000Z</time>
      </trkpt>
      <trkpt lat="43.62545" lon="3.83302">
        <ele>78.88700032</ele>
        <time>2020-06-14T12:58:30.000Z</time>
      </trkpt>
      <trkpt lat="43.62546" lon="3.83297">
        <ele>78.98700032</ele>
        <time>2020-06-14T12:58:31.000Z</time>
      </trkpt>
      <trkpt lat="43.62547" lon="3.83293">
        <ele>79.08700032</ele>
        <time>2020-06-14T12:58:32.000Z</time>
      </trkpt>
      <trkpt lat="43.62549" lon="3.83289">
        <ele>79.18700032</ele>
        <time>2020-06-14T12:58:33.000Z</time>
      </trkpt>
      <trkpt lat="43.6255" lon="3.83284">
        <ele>79.28700032</ele>
        <time>2020-06-14T12:58:34.000Z</time>
      </trkpt>
      <trkpt lat="43.62551" lon="3.8328">
        <ele>79.38700032</ele>
        <time>2020-06-14T12:58:35.000Z</time>
      </trkpt>
      <trkpt lat="43.62553" lon="3.83276">
        <ele>79.48700032</ele>
        <time>2020-06-14T12:58:36.000Z</time>
      </trkpt>
      <trkpt lat="43.62555" lon="3.83273">
        <ele>79.58700032</ele>
        <time>2020-06-14T12:58:37.000Z</time>
      </trkpt>
      <trkpt lat="43.62558" lon="3.8327">
        <ele>79.68700032</ele>
        <time>2020-06-14T12:58:38.000Z</time>
      </trkpt>
      <trkpt lat="43.6256" lon="3.83268">
        <ele>79.78700032</ele>
        <time>2020-06-14T12:58:39.000Z</time>
      </trkpt>
      <trkpt lat="43.62563" lon="3.83266">
        <ele>79.88700032</ele>
        <time>2020-06-14T12:58:40.000Z</time>
      </trkpt>
      <trkpt lat="43.62566" lon="3.83264">
        <ele>79.98700032</ele>
        <time>2020-06-14T12:58:41.000Z</time>
      </trkpt>
      <trkpt lat="43.6257" lon="3.83263">
        <ele>80.084548337059</ele>
        <time>2020-06-14T12:58:42.000Z</time>
      </trkpt>
      <trkpt lat="43.62573" lon="3.83261">
        <ele>80.181729976229</ele>
        <time>2020-06-14T12:58:43.000Z</time>
      </trkpt>
      <trkpt lat="43.62576" lon="3.83258">
        <ele>80.278911615398</ele>
        <time>2020-06-14T12:58:44.000Z</time>
      </trkpt>
      <trkpt lat="43.62579" lon="3.83254">
        <ele>80.376093254568</ele>
        <time>2020-06-14T12:58:45.000Z</time>
      </trkpt>
      <trkpt lat="43.62581" lon="3.83251">
        <ele>80.473274893738</ele>
        <time>2020-06-14T12:58:46.000Z</time>
      </trkpt>
      <trkpt lat="43.62583" lon="3.83246">
        <ele>80.570456532907</ele>
        <time>2020-06-14T12:58:47.000Z</time>
      </trkpt>
      <trkpt lat="43.62584" lon="3.83242">
        <ele>80.667638172077</ele>
        <time>2020-06-14T12:58:48.000Z</time>
      </trkpt>
      <trkpt lat="43.62585" lon="3.83238">
        <ele>80.764819811247</ele>
        <time>2020-06-14T12:58:49.000Z</time>
      </trkpt>
      <trkpt lat="43.62587" lon="3.83235">
        <ele>80.862001450416</ele>
        <time>2020-06-14T12:58:50.000Z</time>
      </trkpt>
      <trkpt lat="43.62589" lon="3.83232">
        <ele>80.959183089586</ele>
        <time>2020-06-14T12:58:51.000Z</time>
      </trkpt>
      <trkpt lat="43.62592" lon="3.8323">
        <ele>81</ele>
        <time>2020-06-14T12:58:52.000Z</time>
      </trkpt>
      <trkpt lat="43.62594" lon="3.83228">
        <ele>81</ele>
        <time>2020-06-14T12:58:53.000Z</time>
      </trkpt>
      <trkpt lat="43.62597" lon="3.83227">
        <ele>81</ele>
        <time>2020-06-14T12:58:54.000Z</time>
      </trkpt>
      <trkpt lat="43.626" lon="3.83226">
        <ele>81</ele>
        <time>2020-06-14T12:58:55.000Z</time>
      </trkpt>
      <trkpt lat="43.62603" lon="3.83225">
        <ele>81</ele>
        <time>2020-06-14T12:58:56.000Z</time>
      </trkpt>
      <trkpt lat="43.62605" lon="3.83223">
        <ele>81</ele>
        <time>2020-06-14T12:58:57.000Z</time>
      </trkpt>
      <trkpt lat="43.62608" lon="3.83221">
        <ele>81</ele>
        <time>2020-06-14T12:58:58.000Z</time>
      </trkpt>
      <trkpt lat="43.62611" lon="3.83219">
        <ele>81</ele>
        <time>2020-06-14T12:58:59.000Z</time>
      </trkpt>
      <trkpt lat="43.62613" lon="3.83217">
        <ele>81</ele>
        <time>2020-06-14T12:59:00.000Z</time>
      </trkpt>
      <trkpt lat="43.62615" lon="3.83214">
        <ele>81</ele>
        <time>2020-06-14T12:59:01.000Z</time>
      </trkpt>
      <trkpt lat="43.62617" lon="3.8321">
        <ele>81.17400064</ele>
        <time>2020-06-14T12:59:02.000Z</time>
      </trkpt>
      <trkpt lat="43.62618" lon="3.83206">
        <ele>81.37400064</ele>
        <time>2020-06-14T12:59:03.000Z</time>
      </trkpt>
      <trkpt lat="43.6262" lon="3.83202">
        <ele>81.57400064</ele>
        <time>2020-06-14T12:59:04.000Z</time>
      </trkpt>
      <trkpt lat="43.62623" lon="3.83199">
        <ele>81.77400064</ele>
        <time>2020-06-14T12:59:05.000Z</time>
      </trkpt>
      <trkpt lat="43.62625" lon="3.83197">
        <ele>81.97400064</ele>
        <time>2020-06-14T12:59:06.000Z</time>
      </trkpt>
      <trkpt lat="43.62628" lon="3.83194">
        <ele>82.17400064</ele>
        <time>2020-06-14T12:59:07.000Z</time>
      </trkpt>
      <trkpt lat="43.62631" lon="3.83192">
        <ele>82.37400064</ele>
        <time>2020-06-14T12:59:08.000Z</time>
      </trkpt>
      <trkpt lat="43.62633" lon="3.83191">
        <ele>82.57400064</ele>
        <time>2020-06-14T12:59:09.000Z</time>
      </trkpt>
      <trkpt lat="43.62636" lon="3.8319">
        <ele>82.77400064</ele>
        <time>2020-06-14T12:59:10.000Z</time>
      </trkpt>
      <trkpt lat="43.62638" lon="3.83188">
        <ele>82.97400064</ele>
        <time>2020-06-14T12:59:11.000Z</time>
      </trkpt>
      <trkpt lat="43.6264" lon="3.83187">
        <ele>83.08700032</ele>
        <time>2020-06-14T12:59:12.000Z</time>
      </trkpt>
      <trkpt lat="43.62643" lon="3.83186">
        <ele>83.18700032</ele>
        <time>2020-06-14T12:59:13.000Z</time>
      </trkpt>
      <trkpt lat="43.62645" lon="3.83184">
        <ele>83.28700032</ele>
        <time>2020-06-14T12:59:14.000Z</time>
      </trkpt>
      <trkpt lat="43.62647" lon="3.83182">
        <ele>83.38700032</ele>
        <time>2020-06-14T12:59:15.000Z</time>
      </trkpt>
      <trkpt lat="43.62649" lon="3.8318">
        <ele>83.48700032</ele>
        <time>2020-06-14T12:59:16.000Z</time>
      </trkpt>
      <trkpt lat="43.62651" lon="3.83179">
        <ele>83.58700032</ele>
        <time>2020-06-14T12:59:17.000Z</time>
      </trkpt>
      <trkpt lat="43.62653" lon="3.83178">
        <ele>83.68700032</ele>
        <time>2020-06-14T12:59:18.000Z</time>
      </trkpt>
      <trkpt lat="43.62655" lon="3.83176">
        <ele>83.78700032</ele>
        <time>2020-06-14T12:59:19.000Z</time>
      </trkpt>
      <trkpt lat="43.62657" lon="3.83175">
        <ele>83.88700032</ele>
        <time>2020-06-14T12:59:20.000Z</time>
      </trkpt>
      <trkpt lat="43.62659" lon="3.83174">
        <ele>83.98700032</ele>
        <time>2020-06-14T12:59:21.000Z</time>
      </trkpt>
      <trkpt lat="43.62661" lon="3.83173">
        <ele>84.08700032</ele>
        <time>2020-06-14T12:59:22.000Z</time>
      </trkpt>
      <trkpt lat="43.62663" lon="3.83172">
        <ele>84.18700032</ele>
        <time>2020-06-14T12:59:23.000Z</time>
      </trkpt>
      <trkpt lat="43.62665" lon="3.8317">
        <ele>84.28700032</ele>
        <time>2020-06-14T12:59:24.000Z</time>
      </trkpt>
      <trkpt lat="43.62666" lon="3.83167">
        <ele>84.38700032</ele>
        <time>2020-06-14T12:59:25.000Z</time>
      </trkpt>
      <trkpt lat="43.62667" lon="3.83165">
        <ele>84.48700032</ele>
        <time>2020-06-14T12:59:26.000Z</time>
      </trkpt>
      <trkpt lat="43.62669" lon="3.83163">
        <ele>84.58700032</ele>
        <time>2020-06-14T12:59:27.000Z</time>
      </trkpt>
      <trkpt lat="43.6267" lon="3.83161">
        <ele>84.68700032</ele>
        <time>2020-06-14T12:59:28.000Z</time>
      </trkpt>
      <trkpt lat="43.6267" lon="3.83158">
        <ele>84.78700032</ele>
        <time>2020-06-14T12:59:29.000Z</time>
      </trkpt>
      <trkpt lat="43.62671" lon="3.83154">
        <ele>84.88700032</ele>
        <time>2020-06-14T12:59:30.000Z</time>
      </trkpt>
      <trkpt lat="43.62673" lon="3.83151">
        <ele>84.98700032</ele>
        <time>2020-06-14T12:59:31.000Z</time>
      </trkpt>
      <trkpt lat="43.62675" lon="3.83149">
        <ele>85.086826611209</ele>
        <time>2020-06-14T12:59:32.000Z</time>
      </trkpt>
      <trkpt lat="43.62678" lon="3.83147">
        <ele>85.186626946665</ele>
        <time>2020-06-14T12:59:33.000Z</time>
      </trkpt>
      <trkpt lat="43.6268" lon="3.83145">
        <ele>85.286427282122</ele>
        <time>2020-06-14T12:59:34.000Z</time>
      </trkpt>
      <trkpt lat="43.62683" lon="3.83144">
        <ele>85.386227617579</ele>
        <time>2020-06-14T12:59:35.000Z</time>
      </trkpt>
      <trkpt lat="43.62685" lon="3.83142">
        <ele>85.486027953036</ele>
        <time>2020-06-14T12:59:36.000Z</time>
      </trkpt>
      <trkpt lat="43.62687" lon="3.8314">
        <ele>85.585828288493</ele>
        <time>2020-06-14T12:59:37.000Z</time>
      </trkpt>
      <trkpt lat="43.6269" lon="3.83139">
        <ele>85.68562862395</ele>
        <time>2020-06-14T12:59:38.000Z</time>
      </trkpt>
      <trkpt lat="43.62692" lon="3.83138">
        <ele>85.785428959407</ele>
        <time>2020-06-14T12:59:39.000Z</time>
      </trkpt>
      <trkpt lat="43.62695" lon="3.83136">
        <ele>85.885229294864</ele>
        <time>2020-06-14T12:59:40.000Z</time>
      </trkpt>
      <trkpt lat="43.62697" lon="3.83135">
        <ele>85.98502963032</ele>
        <time>2020-06-14T12:59:41.000Z</time>
      </trkpt>
      <trkpt lat="43.62699" lon="3.83134">
        <ele>86.085170074658</ele>
        <time>2020-06-14T12:59:42.000Z</time>
      </trkpt>
      <trkpt lat="43.62701" lon="3.83132">
        <ele>86.185370539717</ele>
        <time>2020-06-14T12:59:43.000Z</time>
      </trkpt>
      <trkpt lat="43.62703" lon="3.83131">
        <ele>86.285571004775</ele>
        <time>2020-06-14T12:59:44.000Z</time>
      </trkpt>
      <trkpt lat="43.62705" lon="3.83129">
        <ele>86.385771469833</ele>
        <time>2020-06-14T12:59:45.000Z</time>
      </trkpt>
      <trkpt lat="43.62707" lon="3.83128">
        <ele>86.485971934892</ele>
        <time>2020-06-14T12:59:46.000Z</time>
      </trkpt>
      <trkpt lat="43.62709" lon="3.83127">
        <ele>86.58617239995</ele>
        <time>2020-06-14T12:59:47.000Z</time>
      </trkpt>
      <trkpt lat="43.62711" lon="3.83126">
        <ele>86.686372865009</ele>
        <time>2020-06-14T12:59:48.000Z</time>
      </trkpt>
      <trkpt lat="43.62713" lon="3.83125">
        <ele>86.786573330067</ele>
        <time>2020-06-14T12:59:49.000Z</time>
      </trkpt>
      <trkpt lat="43.62715" lon="3.83123">
        <ele>86.886773795126</ele>
        <time>2020-06-14T12:59:50.000Z</time>
      </trkpt>
      <trkpt lat="43.62717" lon="3.83122">
        <ele>86.986974260184</ele>
        <time>2020-06-14T12:59:51.000Z</time>
      </trkpt>
      <trkpt lat="43.62719" lon="3.83121">
        <ele>87</ele>
        <time>2020-06-14T12:59:52.000Z</time>
      </trkpt>
      <trkpt lat="43.62721" lon="3.8312">
        <ele>87</ele>
        <time>2020-06-14T12:59:53.000Z</time>
      </trkpt>
      <trkpt lat="43.62724" lon="3.83118">
        <ele>87</ele>
        <time>2020-06-14T12:59:54.000Z</time>
      </trkpt>
      <trkpt lat="43.62726" lon="3.83116">
        <ele>87</ele>
        <time>2020-06-14T12:59:55.000Z</time>
      </trkpt>
      <trkpt lat="43.62729" lon="3.83115">
        <ele>87</ele>
        <time>2020-06-14T12:59:56.000Z</time>
      </trkpt>
      <trkpt lat="43.62731" lon="3.83113">
        <ele>87</ele>
        <time>2020-06-14T12:59:57.000Z</time>
      </trkpt>
      <trkpt lat="43.62733" lon="3.83112">
        <ele>87</ele>
        <time>2020-06-14T12:59:58.000Z</time>
      </trkpt>
      <trkpt lat="43.62735" lon="3.83111">
        <ele>87</ele>
        <time>2020-06-14T12:59:59.000Z</time>
      </trkpt>
      <trkpt lat="43.62738" lon="3.83109">
        <ele>87</ele>
        <time>2020-06-14T13:00:00.000Z</time>
      </trkpt>
      <trkpt lat="43.62741" lon="3.83108">
        <ele>87</ele>
        <time>2020-06-14T13:00:01.000Z</time>
      </trkpt>
      <trkpt lat="43.62744" lon="3.83107">
        <ele>87</ele>
        <time>2020-06-14T13:00:02.000Z</time>
      </trkpt>
      <trkpt lat="43.62747" lon="3.83106">
        <ele>87</ele>
        <time>2020-06-14T13:00:03.000Z</time>
      </trkpt>
      <trkpt lat="43.6275" lon="3.83104">
        <ele>87</ele>
        <time>2020-06-14T13:00:04.000Z</time>
      </trkpt>
      <trkpt lat="43.62753" lon="3.83103">
        <ele>87</ele>
        <time>2020-06-14T13:00:05.000Z</time>
      </trkpt>
      <trkpt lat="43.62755" lon="3.83102">
        <ele>87</ele>
        <time>2020-06-14T13:00:06.000Z</time>
      </trkpt>
      <trkpt lat="43.62758" lon="3.83101">
        <ele>87</ele>
        <time>2020-06-14T13:00:07.000Z</time>
      </trkpt>
      <trkpt lat="43.62761" lon="3.831">
        <ele>87</ele>
        <time>2020-06-14T13:00:08.000Z</time>
      </trkpt>
      <trkpt lat="43.62764" lon="3.831">
        <ele>87</ele>
        <time>2020-06-14T13:00:09.000Z</time>
      </trkpt>
      <trkpt lat="43.62768" lon="3.83099">
        <ele>87</ele>
        <time>2020-06-14T13:00:10.000Z</time>
      </trkpt>
      <trkpt lat="43.62771" lon="3.83098">
        <ele>87</ele>
        <time>2020-06-14T13:00:11.000Z</time>
      </trkpt>
      <trkpt lat="43.62774" lon="3.83097">
        <ele>86.913913300849</ele>
        <time>2020-06-14T13:00:12.000Z</time>
      </trkpt>
      <trkpt lat="43.62778" lon="3.83096">
        <ele>86.813813232813</ele>
        <time>2020-06-14T13:00:13.000Z</time>
      </trkpt>
      <trkpt lat="43.62782" lon="3.83096">
        <ele>86.713713164777</ele>
        <time>2020-06-14T13:00:14.000Z</time>
      </trkpt>
      <trkpt lat="43.62786" lon="3.83096">
        <ele>86.613613096741</ele>
        <time>2020-06-14T13:00:15.000Z</time>
      </trkpt>
      <trkpt lat="43.6279" lon="3.83095">
        <ele>86.513513028704</ele>
        <time>2020-06-14T13:00:16.000Z</time>
      </trkpt>
      <trkpt lat="43.62795" lon="3.83094">
        <ele>86.413412960668</ele>
        <time>2020-06-14T13:00:17.000Z</time>
      </trkpt>
      <trkpt lat="43.62799" lon="3.83093">
        <ele>86.313312892632</ele>
        <time>2020-06-14T13:00:18.000Z</time>
      </trkpt>
      <trkpt lat="43.62804" lon="3.83091">
        <ele>86.213212824596</ele>
        <time>2020-06-14T13:00:19.000Z</time>
      </trkpt>
      <trkpt lat="43.62808" lon="3.8309">
        <ele>86.11311275656</ele>
        <time>2020-06-14T13:00:20.000Z</time>
      </trkpt>
      <trkpt lat="43.62812" lon="3.83088">
        <ele>86.013012688524</ele>
        <time>2020-06-14T13:00:21.000Z</time>
      </trkpt>
      <trkpt lat="43.62816" lon="3.83088">
        <ele>86</ele>
        <time>2020-06-14T13:00:22.000Z</time>
      </trkpt>
      <trkpt lat="43.62819" lon="3.83088">
        <ele>86</ele>
        <time>2020-06-14T13:00:23.000Z</time>
      </trkpt>
      <trkpt lat="43.62822" lon="3.83088">
        <ele>86</ele>
        <time>2020-06-14T13:00:24.000Z</time>
      </trkpt>
      <trkpt lat="43.62824" lon="3.83089">
        <ele>86</ele>
        <time>2020-06-14T13:00:25.000Z</time>
      </trkpt>
      <trkpt lat="43.62827" lon="3.83088">
        <ele>86</ele>
        <time>2020-06-14T13:00:27.000Z</time>
      </trkpt>
      <trkpt lat="43.62831" lon="3.83087">
        <ele>86</ele>
        <time>2020-06-14T13:00:29.000Z</time>
      </trkpt>
      <trkpt lat="43.62833" lon="3.83086">
        <ele>86</ele>
        <time>2020-06-14T13:00:30.000Z</time>
      </trkpt>
      <trkpt lat="43.62836" lon="3.83086">
        <ele>86</ele>
        <time>2020-06-14T13:00:31.000Z</time>
      </trkpt>
      <trkpt lat="43.62839" lon="3.83085">
        <ele>85.741739902546</ele>
        <time>2020-06-14T13:00:32.000Z</time>
      </trkpt>
      <trkpt lat="43.62842" lon="3.83083">
        <ele>85.441439698438</ele>
        <time>2020-06-14T13:00:33.000Z</time>
      </trkpt>
      <trkpt lat="43.62844" lon="3.8308">
        <ele>85.14113949433</ele>
        <time>2020-06-14T13:00:34.000Z</time>
      </trkpt>
      <trkpt lat="43.62845" lon="3.83075">
        <ele>84.840839290222</ele>
        <time>2020-06-14T13:00:35.000Z</time>
      </trkpt>
      <trkpt lat="43.62846" lon="3.83071">
        <ele>84.540539086114</ele>
        <time>2020-06-14T13:00:36.000Z</time>
      </trkpt>
      <trkpt lat="43.62847" lon="3.83067">
        <ele>84.240238882006</ele>
        <time>2020-06-14T13:00:37.000Z</time>
      </trkpt>
      <trkpt lat="43.62847" lon="3.8306">
        <ele>83.939938677898</ele>
        <time>2020-06-14T13:00:38.000Z</time>
      </trkpt>
      <trkpt lat="43.62845" lon="3.83053">
        <ele>83.63963847379</ele>
        <time>2020-06-14T13:00:39.000Z</time>
      </trkpt>
      <trkpt lat="43.62843" lon="3.83046">
        <ele>83.339338269681</ele>
        <time>2020-06-14T13:00:40.000Z</time>
      </trkpt>
      <trkpt lat="43.62841" lon="3.83039">
        <ele>83.039038065573</ele>
        <time>2020-06-14T13:00:41.000Z</time>
      </trkpt>
      <trkpt lat="43.62839" lon="3.83032">
        <ele>82.744116705882</ele>
        <time>2020-06-14T13:00:42.000Z</time>
      </trkpt>
      <trkpt lat="43.62837" lon="3.83025">
        <ele>82.449999058823</ele>
        <time>2020-06-14T13:00:43.000Z</time>
      </trkpt>
      <trkpt lat="43.62836" lon="3.83017">
        <ele>82.155881411765</ele>
        <time>2020-06-14T13:00:44.000Z</time>
      </trkpt>
      <trkpt lat="43.62835" lon="3.83009">
        <ele>81.861763764706</ele>
        <time>2020-06-14T13:00:45.000Z</time>
      </trkpt>
      <trkpt lat="43.62836" lon="3.83001">
        <ele>81.567646117647</ele>
        <time>2020-06-14T13:00:46.000Z</time>
      </trkpt>
      <trkpt lat="43.62836" lon="3.82993">
        <ele>81.273528470588</ele>
        <time>2020-06-14T13:00:47.000Z</time>
      </trkpt>
      <trkpt lat="43.62836" lon="3.82985">
        <ele>80.979410823529</ele>
        <time>2020-06-14T13:00:48.000Z</time>
      </trkpt>
      <trkpt lat="43.62835" lon="3.82978">
        <ele>80.685293176471</ele>
        <time>2020-06-14T13:00:49.000Z</time>
      </trkpt>
      <trkpt lat="43.62834" lon="3.82972">
        <ele>80.391175529412</ele>
        <time>2020-06-14T13:00:50.000Z</time>
      </trkpt>
      <trkpt lat="43.62832" lon="3.82965">
        <ele>80.097057882353</ele>
        <time>2020-06-14T13:00:51.000Z</time>
      </trkpt>
      <trkpt lat="43.62832" lon="3.82959">
        <ele>79.794896979592</ele>
        <time>2020-06-14T13:00:52.000Z</time>
      </trkpt>
      <trkpt lat="43.62832" lon="3.82953">
        <ele>79.488774530612</ele>
        <time>2020-06-14T13:00:53.000Z</time>
      </trkpt>
      <trkpt lat="43.62832" lon="3.82947">
        <ele>79.182652081633</ele>
        <time>2020-06-14T13:00:54.000Z</time>
      </trkpt>
      <trkpt lat="43.62832" lon="3.8294">
        <ele>78.876529632653</ele>
        <time>2020-06-14T13:00:55.000Z</time>
      </trkpt>
      <trkpt lat="43.62833" lon="3.82934">
        <ele>78.570407183673</ele>
        <time>2020-06-14T13:00:56.000Z</time>
      </trkpt>
      <trkpt lat="43.62834" lon="3.82927">
        <ele>78.264284734694</ele>
        <time>2020-06-14T13:00:57.000Z</time>
      </trkpt>
      <trkpt lat="43.62835" lon="3.82922">
        <ele>77.958162285714</ele>
        <time>2020-06-14T13:00:58.000Z</time>
      </trkpt>
      <trkpt lat="43.62836" lon="3.82916">
        <ele>77.652039836735</ele>
        <time>2020-06-14T13:00:59.000Z</time>
      </trkpt>
      <trkpt lat="43.62837" lon="3.82911">
        <ele>77.345917387755</ele>
        <time>2020-06-14T13:01:00.000Z</time>
      </trkpt>
      <trkpt lat="43.62838" lon="3.82905">
        <ele>77.039794938776</ele>
        <time>2020-06-14T13:01:01.000Z</time>
      </trkpt>
      <trkpt lat="43.62839" lon="3.82899">
        <ele>76.82599936</ele>
        <time>2020-06-14T13:01:02.000Z</time>
      </trkpt>
      <trkpt lat="43.62839" lon="3.82894">
        <ele>76.62599936</ele>
        <time>2020-06-14T13:01:03.000Z</time>
      </trkpt>
      <trkpt lat="43.6284" lon="3.82889">
        <ele>76.42599936</ele>
        <time>2020-06-14T13:01:04.000Z</time>
      </trkpt>
      <trkpt lat="43.62841" lon="3.82885">
        <ele>76.22599936</ele>
        <time>2020-06-14T13:01:05.000Z</time>
      </trkpt>
      <trkpt lat="43.62842" lon="3.8288">
        <ele>76.02599936</ele>
        <time>2020-06-14T13:01:06.000Z</time>
      </trkpt>
      <trkpt lat="43.62843" lon="3.82875">
        <ele>75.82599936</ele>
        <time>2020-06-14T13:01:07.000Z</time>
      </trkpt>
      <trkpt lat="43.62844" lon="3.8287">
        <ele>75.62599936</ele>
        <time>2020-06-14T13:01:08.000Z</time>
      </trkpt>
      <trkpt lat="43.62844" lon="3.82865">
        <ele>75.42599936</ele>
        <time>2020-06-14T13:01:09.000Z</time>
      </trkpt>
      <trkpt lat="43.62845" lon="3.82859">
        <ele>75.22599936</ele>
        <time>2020-06-14T13:01:10.000Z</time>
      </trkpt>
      <trkpt lat="43.62847" lon="3.82854">
        <ele>75.02599936</ele>
        <time>2020-06-14T13:01:11.000Z</time>
      </trkpt>
      <trkpt lat="43.62848" lon="3.82848">
        <ele>74.662462490797</ele>
        <time>2020-06-14T13:01:12.000Z</time>
      </trkpt>
      <trkpt lat="43.62849" lon="3.82841">
        <ele>74.274489769314</ele>
        <time>2020-06-14T13:01:13.000Z</time>
      </trkpt>
      <trkpt lat="43.62851" lon="3.82834">
        <ele>73.886517047832</ele>
        <time>2020-06-14T13:01:14.000Z</time>
      </trkpt>
      <trkpt lat="43.62853" lon="3.82827">
        <ele>73.498544326349</ele>
        <time>2020-06-14T13:01:15.000Z</time>
      </trkpt>
      <trkpt lat="43.62855" lon="3.82821">
        <ele>73.110571604866</ele>
        <time>2020-06-14T13:01:16.000Z</time>
      </trkpt>
      <trkpt lat="43.62858" lon="3.82817">
        <ele>72.722598883383</ele>
        <time>2020-06-14T13:01:17.000Z</time>
      </trkpt>
      <trkpt lat="43.62861" lon="3.82814">
        <ele>72.334626161901</ele>
        <time>2020-06-14T13:01:18.000Z</time>
      </trkpt>
      <trkpt lat="43.62865" lon="3.82812">
        <ele>71.946653440418</ele>
        <time>2020-06-14T13:01:19.000Z</time>
      </trkpt>
      <trkpt lat="43.62869" lon="3.82811">
        <ele>71.558680718935</ele>
        <time>2020-06-14T13:01:20.000Z</time>
      </trkpt>
      <trkpt lat="43.62874" lon="3.8281">
        <ele>71.170707997452</ele>
        <time>2020-06-14T13:01:21.000Z</time>
      </trkpt>
      <trkpt lat="43.62879" lon="3.8281">
        <ele>70.826625329742</ele>
        <time>2020-06-14T13:01:22.000Z</time>
      </trkpt>
      <trkpt lat="43.62884" lon="3.8281">
        <ele>70.517027704282</ele>
        <time>2020-06-14T13:01:23.000Z</time>
      </trkpt>
      <trkpt lat="43.62889" lon="3.8281">
        <ele>70.207430078821</ele>
        <time>2020-06-14T13:01:24.000Z</time>
      </trkpt>
      <trkpt lat="43.62893" lon="3.82809">
        <ele>69.897832453361</ele>
        <time>2020-06-14T13:01:25.000Z</time>
      </trkpt>
      <trkpt lat="43.62897" lon="3.82808">
        <ele>69.5882348279</ele>
        <time>2020-06-14T13:01:26.000Z</time>
      </trkpt>
      <trkpt lat="43.629" lon="3.82807">
        <ele>69.278637202439</ele>
        <time>2020-06-14T13:01:27.000Z</time>
      </trkpt>
      <trkpt lat="43.62902" lon="3.82804">
        <ele>68.969039576979</ele>
        <time>2020-06-14T13:01:28.000Z</time>
      </trkpt>
      <trkpt lat="43.62903" lon="3.82801">
        <ele>68.659441951519</ele>
        <time>2020-06-14T13:01:29.000Z</time>
      </trkpt>
      <trkpt lat="43.62903" lon="3.82797">
        <ele>68.349844326058</ele>
        <time>2020-06-14T13:01:30.000Z</time>
      </trkpt>
      <trkpt lat="43.62903" lon="3.82793">
        <ele>68.040246700598</ele>
        <time>2020-06-14T13:01:31.000Z</time>
      </trkpt>
      <trkpt lat="43.62903" lon="3.82789">
        <ele>67.82599936</ele>
        <time>2020-06-14T13:01:32.000Z</time>
      </trkpt>
      <trkpt lat="43.62903" lon="3.82784">
        <ele>67.62599936</ele>
        <time>2020-06-14T13:01:33.000Z</time>
      </trkpt>
      <trkpt lat="43.62903" lon="3.82777">
        <ele>67.42599936</ele>
        <time>2020-06-14T13:01:34.000Z</time>
      </trkpt>
      <trkpt lat="43.62903" lon="3.8277">
        <ele>67.22599936</ele>
        <time>2020-06-14T13:01:35.000Z</time>
      </trkpt>
      <trkpt lat="43.62903" lon="3.82763">
        <ele>67.02599936</ele>
        <time>2020-06-14T13:01:36.000Z</time>
      </trkpt>
      <trkpt lat="43.62905" lon="3.82756">
        <ele>66.82599936</ele>
        <time>2020-06-14T13:01:37.000Z</time>
      </trkpt>
      <trkpt lat="43.62908" lon="3.8275">
        <ele>66.62599936</ele>
        <time>2020-06-14T13:01:38.000Z</time>
      </trkpt>
      <trkpt lat="43.62912" lon="3.82746">
        <ele>66.42599936</ele>
        <time>2020-06-14T13:01:39.000Z</time>
      </trkpt>
      <trkpt lat="43.62916" lon="3.82741">
        <ele>66.22599936</ele>
        <time>2020-06-14T13:01:40.000Z</time>
      </trkpt>
      <trkpt lat="43.6292" lon="3.82737">
        <ele>66.02599936</ele>
        <time>2020-06-14T13:01:41.000Z</time>
      </trkpt>
      <trkpt lat="43.62923" lon="3.82732">
        <ele>65.91299968</ele>
        <time>2020-06-14T13:01:42.000Z</time>
      </trkpt>
      <trkpt lat="43.62927" lon="3.82728">
        <ele>65.81299968</ele>
        <time>2020-06-14T13:01:43.000Z</time>
      </trkpt>
      <trkpt lat="43.6293" lon="3.82724">
        <ele>65.71299968</ele>
        <time>2020-06-14T13:01:44.000Z</time>
      </trkpt>
      <trkpt lat="43.62934" lon="3.8272">
        <ele>65.61299968</ele>
        <time>2020-06-14T13:01:45.000Z</time>
      </trkpt>
      <trkpt lat="43.62937" lon="3.82716">
        <ele>65.51299968</ele>
        <time>2020-06-14T13:01:46.000Z</time>
      </trkpt>
      <trkpt lat="43.6294" lon="3.82711">
        <ele>65.41299968</ele>
        <time>2020-06-14T13:01:47.000Z</time>
      </trkpt>
      <trkpt lat="43.62943" lon="3.82707">
        <ele>65.31299968</ele>
        <time>2020-06-14T13:01:48.000Z</time>
      </trkpt>
      <trkpt lat="43.62946" lon="3.82704">
        <ele>65.21299968</ele>
        <time>2020-06-14T13:01:49.000Z</time>
      </trkpt>
      <trkpt lat="43.62949" lon="3.827">
        <ele>65.11299968</ele>
        <time>2020-06-14T13:01:50.000Z</time>
      </trkpt>
      <trkpt lat="43.62952" lon="3.82696">
        <ele>65.01299968</ele>
        <time>2020-06-14T13:01:51.000Z</time>
      </trkpt>
      <trkpt lat="43.62956" lon="3.82692">
        <ele>64.913259927973</ele>
        <time>2020-06-14T13:01:52.000Z</time>
      </trkpt>
      <trkpt lat="43.62959" lon="3.82688">
        <ele>64.813559062474</ele>
        <time>2020-06-14T13:01:53.000Z</time>
      </trkpt>
      <trkpt lat="43.62962" lon="3.82685">
        <ele>64.713858196974</ele>
        <time>2020-06-14T13:01:54.000Z</time>
      </trkpt>
      <trkpt lat="43.62965" lon="3.82681">
        <ele>64.614157331475</ele>
        <time>2020-06-14T13:01:55.000Z</time>
      </trkpt>
      <trkpt lat="43.62968" lon="3.82678">
        <ele>64.514456465976</ele>
        <time>2020-06-14T13:01:56.000Z</time>
      </trkpt>
      <trkpt lat="43.62971" lon="3.82674">
        <ele>64.414755600477</ele>
        <time>2020-06-14T13:01:57.000Z</time>
      </trkpt>
      <trkpt lat="43.62974" lon="3.82671">
        <ele>64.315054734978</ele>
        <time>2020-06-14T13:01:58.000Z</time>
      </trkpt>
      <trkpt lat="43.62977" lon="3.82668">
        <ele>64.215353869478</ele>
        <time>2020-06-14T13:01:59.000Z</time>
      </trkpt>
      <trkpt lat="43.6298" lon="3.82664">
        <ele>64.115653003979</ele>
        <time>2020-06-14T13:02:00.000Z</time>
      </trkpt>
      <trkpt lat="43.62983" lon="3.8266">
        <ele>64.01595213848</ele>
        <time>2020-06-14T13:02:01.000Z</time>
      </trkpt>
      <trkpt lat="43.62986" lon="3.82656">
        <ele>64</ele>
        <time>2020-06-14T13:02:02.000Z</time>
      </trkpt>
      <trkpt lat="43.62989" lon="3.82652">
        <ele>64</ele>
        <time>2020-06-14T13:02:03.000Z</time>
      </trkpt>
      <trkpt lat="43.62992" lon="3.82648">
        <ele>64</ele>
        <time>2020-06-14T13:02:04.000Z</time>
      </trkpt>
      <trkpt lat="43.62996" lon="3.82644">
        <ele>64</ele>
        <time>2020-06-14T13:02:05.000Z</time>
      </trkpt>
      <trkpt lat="43.62999" lon="3.8264">
        <ele>64</ele>
        <time>2020-06-14T13:02:06.000Z</time>
      </trkpt>
      <trkpt lat="43.63002" lon="3.82636">
        <ele>64</ele>
        <time>2020-06-14T13:02:07.000Z</time>
      </trkpt>
      <trkpt lat="43.63005" lon="3.82632">
        <ele>64</ele>
        <time>2020-06-14T13:02:08.000Z</time>
      </trkpt>
      <trkpt lat="43.63008" lon="3.8263">
        <ele>64</ele>
        <time>2020-06-14T13:02:09.000Z</time>
      </trkpt>
      <trkpt lat="43.63012" lon="3.82629">
        <ele>64</ele>
        <time>2020-06-14T13:02:10.000Z</time>
      </trkpt>
      <trkpt lat="43.63016" lon="3.8263">
        <ele>64</ele>
        <time>2020-06-14T13:02:11.000Z</time>
      </trkpt>
      <trkpt lat="43.6302" lon="3.8263">
        <ele>63.861365907887</ele>
        <time>2020-06-14T13:02:12.000Z</time>
      </trkpt>
      <trkpt lat="43.63025" lon="3.82631">
        <ele>63.657492243015</ele>
        <time>2020-06-14T13:02:13.000Z</time>
      </trkpt>
      <trkpt lat="43.63029" lon="3.82631">
        <ele>63.453618578143</ele>
        <time>2020-06-14T13:02:14.000Z</time>
      </trkpt>
      <trkpt lat="43.63034" lon="3.8263">
        <ele>63.24974491327</ele>
        <time>2020-06-14T13:02:15.000Z</time>
      </trkpt>
      <trkpt lat="43.63038" lon="3.82627">
        <ele>63.045871248398</ele>
        <time>2020-06-14T13:02:16.000Z</time>
      </trkpt>
      <trkpt lat="43.63041" lon="3.82622">
        <ele>62.841997583526</ele>
        <time>2020-06-14T13:02:17.000Z</time>
      </trkpt>
      <trkpt lat="43.63043" lon="3.82616">
        <ele>62.638123918654</ele>
        <time>2020-06-14T13:02:18.000Z</time>
      </trkpt>
      <trkpt lat="43.63044" lon="3.82609">
        <ele>62.434250253782</ele>
        <time>2020-06-14T13:02:19.000Z</time>
      </trkpt>
      <trkpt lat="43.63044" lon="3.82601">
        <ele>62.23037658891</ele>
        <time>2020-06-14T13:02:20.000Z</time>
      </trkpt>
      <trkpt lat="43.63044" lon="3.82593">
        <ele>62.026502924038</ele>
        <time>2020-06-14T13:02:21.000Z</time>
      </trkpt>
      <trkpt lat="43.63044" lon="3.82585">
        <ele>61.91299968</ele>
        <time>2020-06-14T13:02:22.000Z</time>
      </trkpt>
      <trkpt lat="43.63044" lon="3.82578">
        <ele>61.81299968</ele>
        <time>2020-06-14T13:02:23.000Z</time>
      </trkpt>
      <trkpt lat="43.63044" lon="3.8257">
        <ele>61.71299968</ele>
        <time>2020-06-14T13:02:24.000Z</time>
      </trkpt>
      <trkpt lat="43.63043" lon="3.82562">
        <ele>61.61299968</ele>
        <time>2020-06-14T13:02:25.000Z</time>
      </trkpt>
      <trkpt lat="43.63043" lon="3.82554">
        <ele>61.51299968</ele>
        <time>2020-06-14T13:02:26.000Z</time>
      </trkpt>
      <trkpt lat="43.63043" lon="3.82547">
        <ele>61.41299968</ele>
        <time>2020-06-14T13:02:27.000Z</time>
      </trkpt>
      <trkpt lat="43.63043" lon="3.82539">
        <ele>61.31299968</ele>
        <time>2020-06-14T13:02:28.000Z</time>
      </trkpt>
      <trkpt lat="43.63043" lon="3.82531">
        <ele>61.21299968</ele>
        <time>2020-06-14T13:02:29.000Z</time>
      </trkpt>
      <trkpt lat="43.63043" lon="3.82524">
        <ele>61.11299968</ele>
        <time>2020-06-14T13:02:30.000Z</time>
      </trkpt>
      <trkpt lat="43.63043" lon="3.82517">
        <ele>61.01299968</ele>
        <time>2020-06-14T13:02:31.000Z</time>
      </trkpt>
      <trkpt lat="43.63043" lon="3.8251">
        <ele>60.915451662941</ele>
        <time>2020-06-14T13:02:32.000Z</time>
      </trkpt>
      <trkpt lat="43.63044" lon="3.82503">
        <ele>60.818270023771</ele>
        <time>2020-06-14T13:02:33.000Z</time>
      </trkpt>
      <trkpt lat="43.63044" lon="3.82496">
        <ele>60.721088384602</ele>
        <time>2020-06-14T13:02:34.000Z</time>
      </trkpt>
      <trkpt lat="43.63044" lon="3.8249">
        <ele>60.623906745432</ele>
        <time>2020-06-14T13:02:35.000Z</time>
      </trkpt>
      <trkpt lat="43.63044" lon="3.82485">
        <ele>60.526725106262</ele>
        <time>2020-06-14T13:02:36.000Z</time>
      </trkpt>
      <trkpt lat="43.63043" lon="3.82479">
        <ele>60.429543467093</ele>
        <time>2020-06-14T13:02:37.000Z</time>
      </trkpt>
      <trkpt lat="43.63043" lon="3.82473">
        <ele>60.332361827923</ele>
        <time>2020-06-14T13:02:38.000Z</time>
      </trkpt>
      <trkpt lat="43.63042" lon="3.82468">
        <ele>60.235180188753</ele>
        <time>2020-06-14T13:02:39.000Z</time>
      </trkpt>
      <trkpt lat="43.63042" lon="3.82463">
        <ele>60.137998549584</ele>
        <time>2020-06-14T13:02:40.000Z</time>
      </trkpt>
      <trkpt lat="43.63042" lon="3.82459">
        <ele>60.040816910414</ele>
        <time>2020-06-14T13:02:41.000Z</time>
      </trkpt>
      <trkpt lat="43.63042" lon="3.82454">
        <ele>60</ele>
        <time>2020-06-14T13:02:42.000Z</time>
      </trkpt>
      <trkpt lat="43.63042" lon="3.82449">
        <ele>60</ele>
        <time>2020-06-14T13:02:43.000Z</time>
      </trkpt>
      <trkpt lat="43.63042" lon="3.82444">
        <ele>60</ele>
        <time>2020-06-14T13:02:44.000Z</time>
      </trkpt>
      <trkpt lat="43.63042" lon="3.8244">
        <ele>60</ele>
        <time>2020-06-14T13:02:45.000Z</time>
      </trkpt>
      <trkpt lat="43.63042" lon="3.82435">
        <ele>60</ele>
        <time>2020-06-14T13:02:46.000Z</time>
      </trkpt>
      <trkpt lat="43.63042" lon="3.8243">
        <ele>60</ele>
        <time>2020-06-14T13:02:47.000Z</time>
      </trkpt>
      <trkpt lat="43.63042" lon="3.82424">
        <ele>60</ele>
        <time>2020-06-14T13:02:48.000Z</time>
      </trkpt>
      <trkpt lat="43.63042" lon="3.82418">
        <ele>60</ele>
        <time>2020-06-14T13:02:49.000Z</time>
      </trkpt>
      <trkpt lat="43.63044" lon="3.82414">
        <ele>60</ele>
        <time>2020-06-14T13:02:50.000Z</time>
      </trkpt>
      <trkpt lat="43.63045" lon="3.8241">
        <ele>60</ele>
        <time>2020-06-14T13:02:51.000Z</time>
      </trkpt>
      <trkpt lat="43.63046" lon="3.82405">
        <ele>60</ele>
        <time>2020-06-14T13:02:52.000Z</time>
      </trkpt>
      <trkpt lat="43.63047" lon="3.82401">
        <ele>60</ele>
        <time>2020-06-14T13:02:53.000Z</time>
      </trkpt>
      <trkpt lat="43.63047" lon="3.82395">
        <ele>60</ele>
        <time>2020-06-14T13:02:54.000Z</time>
      </trkpt>
      <trkpt lat="43.63048" lon="3.8239">
        <ele>60</ele>
        <time>2020-06-14T13:02:55.000Z</time>
      </trkpt>
      <trkpt lat="43.63048" lon="3.82384">
        <ele>60</ele>
        <time>2020-06-14T13:02:56.000Z</time>
      </trkpt>
      <trkpt lat="43.63048" lon="3.82378">
        <ele>60</ele>
        <time>2020-06-14T13:02:57.000Z</time>
      </trkpt>
      <trkpt lat="43.63048" lon="3.82372">
        <ele>60</ele>
        <time>2020-06-14T13:02:58.000Z</time>
      </trkpt>
      <trkpt lat="43.63048" lon="3.82366">
        <ele>60</ele>
        <time>2020-06-14T13:02:59.000Z</time>
      </trkpt>
      <trkpt lat="43.63048" lon="3.82359">
        <ele>60</ele>
        <time>2020-06-14T13:03:00.000Z</time>
      </trkpt>
      <trkpt lat="43.63048" lon="3.82353">
        <ele>60</ele>
        <time>2020-06-14T13:03:01.000Z</time>
      </trkpt>
      <trkpt lat="43.63048" lon="3.82347">
        <ele>59.91299968</ele>
        <time>2020-06-14T13:03:02.000Z</time>
      </trkpt>
      <trkpt lat="43.63048" lon="3.82342">
        <ele>59.81299968</ele>
        <time>2020-06-14T13:03:03.000Z</time>
      </trkpt>
      <trkpt lat="43.63048" lon="3.82337">
        <ele>59.71299968</ele>
        <time>2020-06-14T13:03:04.000Z</time>
      </trkpt>
      <trkpt lat="43.63048" lon="3.82333">
        <ele>59.61299968</ele>
        <time>2020-06-14T13:03:05.000Z</time>
      </trkpt>
      <trkpt lat="43.63048" lon="3.82329">
        <ele>59.51299968</ele>
        <time>2020-06-14T13:03:06.000Z</time>
      </trkpt>
      <trkpt lat="43.63048" lon="3.82325">
        <ele>59.41299968</ele>
        <time>2020-06-14T13:03:07.000Z</time>
      </trkpt>
      <trkpt lat="43.63047" lon="3.8232">
        <ele>59.31299968</ele>
        <time>2020-06-14T13:03:08.000Z</time>
      </trkpt>
      <trkpt lat="43.63046" lon="3.82316">
        <ele>59.21299968</ele>
        <time>2020-06-14T13:03:09.000Z</time>
      </trkpt>
      <trkpt lat="43.63045" lon="3.82311">
        <ele>59.11299968</ele>
        <time>2020-06-14T13:03:10.000Z</time>
      </trkpt>
      <trkpt lat="43.63044" lon="3.82307">
        <ele>59.01299968</ele>
        <time>2020-06-14T13:03:11.000Z</time>
      </trkpt>
      <trkpt lat="43.63044" lon="3.82302">
        <ele>59.08700032</ele>
        <time>2020-06-14T13:03:12.000Z</time>
      </trkpt>
      <trkpt lat="43.63044" lon="3.82298">
        <ele>59.18700032</ele>
        <time>2020-06-14T13:03:13.000Z</time>
      </trkpt>
      <trkpt lat="43.63046" lon="3.82294">
        <ele>59.28700032</ele>
        <time>2020-06-14T13:03:14.000Z</time>
      </trkpt>
      <trkpt lat="43.63048" lon="3.82291">
        <ele>59.38700032</ele>
        <time>2020-06-14T13:03:15.000Z</time>
      </trkpt>
      <trkpt lat="43.63051" lon="3.82288">
        <ele>59.48700032</ele>
        <time>2020-06-14T13:03:16.000Z</time>
      </trkpt>
      <trkpt lat="43.63052" lon="3.82284">
        <ele>59.58700032</ele>
        <time>2020-06-14T13:03:17.000Z</time>
      </trkpt>
      <trkpt lat="43.63053" lon="3.82279">
        <ele>59.68700032</ele>
        <time>2020-06-14T13:03:18.000Z</time>
      </trkpt>
      <trkpt lat="43.63053" lon="3.82274">
        <ele>59.78700032</ele>
        <time>2020-06-14T13:03:19.000Z</time>
      </trkpt>
      <trkpt lat="43.63053" lon="3.82269">
        <ele>59.88700032</ele>
        <time>2020-06-14T13:03:20.000Z</time>
      </trkpt>
      <trkpt lat="43.63053" lon="3.82264">
        <ele>59.98700032</ele>
        <time>2020-06-14T13:03:21.000Z</time>
      </trkpt>
      <trkpt lat="43.63053" lon="3.82259">
        <ele>60</ele>
        <time>2020-06-14T13:03:22.000Z</time>
      </trkpt>
      <trkpt lat="43.63053" lon="3.82254">
        <ele>60</ele>
        <time>2020-06-14T13:03:23.000Z</time>
      </trkpt>
      <trkpt lat="43.63053" lon="3.82249">
        <ele>60</ele>
        <time>2020-06-14T13:03:24.000Z</time>
      </trkpt>
      <trkpt lat="43.63054" lon="3.82245">
        <ele>60</ele>
        <time>2020-06-14T13:03:25.000Z</time>
      </trkpt>
      <trkpt lat="43.63054" lon="3.8224">
        <ele>60</ele>
        <time>2020-06-14T13:03:26.000Z</time>
      </trkpt>
      <trkpt lat="43.63054" lon="3.82237">
        <ele>60</ele>
        <time>2020-06-14T13:03:27.000Z</time>
      </trkpt>
      <trkpt lat="43.63054" lon="3.82233">
        <ele>60</ele>
        <time>2020-06-14T13:03:28.000Z</time>
      </trkpt>
      <trkpt lat="43.63053" lon="3.82229">
        <ele>60</ele>
        <time>2020-06-14T13:03:29.000Z</time>
      </trkpt>
      <trkpt lat="43.63054" lon="3.82225">
        <ele>60</ele>
        <time>2020-06-14T13:03:30.000Z</time>
      </trkpt>
      <trkpt lat="43.63054" lon="3.8222">
        <ele>60</ele>
        <time>2020-06-14T13:03:31.000Z</time>
      </trkpt>
      <trkpt lat="43.63053" lon="3.82216">
        <ele>60</ele>
        <time>2020-06-14T13:03:32.000Z</time>
      </trkpt>
      <trkpt lat="43.63051" lon="3.82211">
        <ele>60</ele>
        <time>2020-06-14T13:03:33.000Z</time>
      </trkpt>
      <trkpt lat="43.6305" lon="3.82203">
        <ele>60</ele>
        <time>2020-06-14T13:03:34.000Z</time>
      </trkpt>
      <trkpt lat="43.63049" lon="3.82196">
        <ele>60</ele>
        <time>2020-06-14T13:03:35.000Z</time>
      </trkpt>
      <trkpt lat="43.6305" lon="3.82188">
        <ele>60</ele>
        <time>2020-06-14T13:03:36.000Z</time>
      </trkpt>
      <trkpt lat="43.6305" lon="3.8218">
        <ele>60</ele>
        <time>2020-06-14T13:03:37.000Z</time>
      </trkpt>
      <trkpt lat="43.6305" lon="3.82173">
        <ele>60</ele>
        <time>2020-06-14T13:03:38.000Z</time>
      </trkpt>
      <trkpt lat="43.6305" lon="3.82165">
        <ele>60</ele>
        <time>2020-06-14T13:03:39.000Z</time>
      </trkpt>
      <trkpt lat="43.6305" lon="3.82157">
        <ele>60</ele>
        <time>2020-06-14T13:03:40.000Z</time>
      </trkpt>
      <trkpt lat="43.6305" lon="3.82149">
        <ele>60</ele>
        <time>2020-06-14T13:03:41.000Z</time>
      </trkpt>
      <trkpt lat="43.6305" lon="3.82142">
        <ele>60</ele>
        <time>2020-06-14T13:03:42.000Z</time>
      </trkpt>
      <trkpt lat="43.6305" lon="3.82134">
        <ele>60</ele>
        <time>2020-06-14T13:03:43.000Z</time>
      </trkpt>
      <trkpt lat="43.6305" lon="3.82126">
        <ele>60</ele>
        <time>2020-06-14T13:03:44.000Z</time>
      </trkpt>
      <trkpt lat="43.6305" lon="3.82118">
        <ele>60</ele>
        <time>2020-06-14T13:03:45.000Z</time>
      </trkpt>
      <trkpt lat="43.63051" lon="3.8211">
        <ele>60</ele>
        <time>2020-06-14T13:03:46.000Z</time>
      </trkpt>
      <trkpt lat="43.63051" lon="3.82103">
        <ele>60</ele>
        <time>2020-06-14T13:03:47.000Z</time>
      </trkpt>
      <trkpt lat="43.63051" lon="3.82095">
        <ele>60</ele>
        <time>2020-06-14T13:03:48.000Z</time>
      </trkpt>
      <trkpt lat="43.63052" lon="3.82089">
        <ele>60</ele>
        <time>2020-06-14T13:03:49.000Z</time>
      </trkpt>
      <trkpt lat="43.63052" lon="3.82083">
        <ele>60</ele>
        <time>2020-06-14T13:03:50.000Z</time>
      </trkpt>
      <trkpt lat="43.63053" lon="3.82077">
        <ele>60</ele>
        <time>2020-06-14T13:03:51.000Z</time>
      </trkpt>
      <trkpt lat="43.63054" lon="3.82072">
        <ele>60</ele>
        <time>2020-06-14T13:03:52.000Z</time>
      </trkpt>
      <trkpt lat="43.63055" lon="3.82067">
        <ele>60</ele>
        <time>2020-06-14T13:03:53.000Z</time>
      </trkpt>
      <trkpt lat="43.63055" lon="3.8206">
        <ele>60</ele>
        <time>2020-06-14T13:03:54.000Z</time>
      </trkpt>
      <trkpt lat="43.63055" lon="3.82054">
        <ele>60</ele>
        <time>2020-06-14T13:03:55.000Z</time>
      </trkpt>
      <trkpt lat="43.63055" lon="3.82048">
        <ele>60</ele>
        <time>2020-06-14T13:03:56.000Z</time>
      </trkpt>
      <trkpt lat="43.63056" lon="3.82042">
        <ele>60</ele>
        <time>2020-06-14T13:03:57.000Z</time>
      </trkpt>
      <trkpt lat="43.63056" lon="3.82037">
        <ele>60</ele>
        <time>2020-06-14T13:03:58.000Z</time>
      </trkpt>
      <trkpt lat="43.63056" lon="3.82032">
        <ele>60</ele>
        <time>2020-06-14T13:03:59.000Z</time>
      </trkpt>
      <trkpt lat="43.63056" lon="3.82028">
        <ele>60</ele>
        <time>2020-06-14T13:04:00.000Z</time>
      </trkpt>
      <trkpt lat="43.63056" lon="3.82024">
        <ele>60</ele>
        <time>2020-06-14T13:04:01.000Z</time>
      </trkpt>
      <trkpt lat="43.63056" lon="3.82021">
        <ele>60</ele>
        <time>2020-06-14T13:04:02.000Z</time>
      </trkpt>
      <trkpt lat="43.63055" lon="3.82018">
        <ele>60</ele>
        <time>2020-06-14T13:04:03.000Z</time>
      </trkpt>
      <trkpt lat="43.63054" lon="3.82014">
        <ele>60</ele>
        <time>2020-06-14T13:04:04.000Z</time>
      </trkpt>
      <trkpt lat="43.63052" lon="3.82011">
        <ele>60</ele>
        <time>2020-06-14T13:04:05.000Z</time>
      </trkpt>
      <trkpt lat="43.6305" lon="3.82008">
        <ele>60</ele>
        <time>2020-06-14T13:04:06.000Z</time>
      </trkpt>
      <trkpt lat="43.63049" lon="3.82004">
        <ele>60</ele>
        <time>2020-06-14T13:04:07.000Z</time>
      </trkpt>
      <trkpt lat="43.63048" lon="3.81999">
        <ele>60</ele>
        <time>2020-06-14T13:04:08.000Z</time>
      </trkpt>
      <trkpt lat="43.63048" lon="3.81994">
        <ele>60</ele>
        <time>2020-06-14T13:04:09.000Z</time>
      </trkpt>
      <trkpt lat="43.63049" lon="3.81989">
        <ele>60</ele>
        <time>2020-06-14T13:04:10.000Z</time>
      </trkpt>
      <trkpt lat="43.63051" lon="3.81983">
        <ele>60</ele>
        <time>2020-06-14T13:04:11.000Z</time>
      </trkpt>
      <trkpt lat="43.63052" lon="3.81978">
        <ele>59.91299968</ele>
        <time>2020-06-14T13:04:12.000Z</time>
      </trkpt>
      <trkpt lat="43.63053" lon="3.81973">
        <ele>59.81299968</ele>
        <time>2020-06-14T13:04:13.000Z</time>
      </trkpt>
      <trkpt lat="43.63053" lon="3.81968">
        <ele>59.71299968</ele>
        <time>2020-06-14T13:04:14.000Z</time>
      </trkpt>
      <trkpt lat="43.63053" lon="3.81963">
        <ele>59.61299968</ele>
        <time>2020-06-14T13:04:15.000Z</time>
      </trkpt>
      <trkpt lat="43.63053" lon="3.81958">
        <ele>59.51299968</ele>
        <time>2020-06-14T13:04:16.000Z</time>
      </trkpt>
      <trkpt lat="43.63053" lon="3.81952">
        <ele>59.41299968</ele>
        <time>2020-06-14T13:04:17.000Z</time>
      </trkpt>
      <trkpt lat="43.63053" lon="3.81946">
        <ele>59.31299968</ele>
        <time>2020-06-14T13:04:18.000Z</time>
      </trkpt>
      <trkpt lat="43.63053" lon="3.81939">
        <ele>59.21299968</ele>
        <time>2020-06-14T13:04:19.000Z</time>
      </trkpt>
      <trkpt lat="43.63053" lon="3.81933">
        <ele>59.11299968</ele>
        <time>2020-06-14T13:04:20.000Z</time>
      </trkpt>
      <trkpt lat="43.63052" lon="3.81928">
        <ele>59.01299968</ele>
        <time>2020-06-14T13:04:21.000Z</time>
      </trkpt>
      <trkpt lat="43.63052" lon="3.81923">
        <ele>59</ele>
        <time>2020-06-14T13:04:22.000Z</time>
      </trkpt>
      <trkpt lat="43.63051" lon="3.81918">
        <ele>59</ele>
        <time>2020-06-14T13:04:23.000Z</time>
      </trkpt>
      <trkpt lat="43.63049" lon="3.81913">
        <ele>59</ele>
        <time>2020-06-14T13:04:24.000Z</time>
      </trkpt>
      <trkpt lat="43.63048" lon="3.81907">
        <ele>59</ele>
        <time>2020-06-14T13:04:25.000Z</time>
      </trkpt>
      <trkpt lat="43.63045" lon="3.81903">
        <ele>59</ele>
        <time>2020-06-14T13:04:26.000Z</time>
      </trkpt>
      <trkpt lat="43.63043" lon="3.81898">
        <ele>59</ele>
        <time>2020-06-14T13:04:27.000Z</time>
      </trkpt>
      <trkpt lat="43.63041" lon="3.81894">
        <ele>59</ele>
        <time>2020-06-14T13:04:28.000Z</time>
      </trkpt>
      <trkpt lat="43.63039" lon="3.8189">
        <ele>59</ele>
        <time>2020-06-14T13:04:29.000Z</time>
      </trkpt>
      <trkpt lat="43.63036" lon="3.81885">
        <ele>59</ele>
        <time>2020-06-14T13:04:30.000Z</time>
      </trkpt>
      <trkpt lat="43.63035" lon="3.81882">
        <ele>59</ele>
        <time>2020-06-14T13:04:31.000Z</time>
      </trkpt>
      <trkpt lat="43.63032" lon="3.81878">
        <ele>59</ele>
        <time>2020-06-14T13:04:32.000Z</time>
      </trkpt>
      <trkpt lat="43.63028" lon="3.81874">
        <ele>59</ele>
        <time>2020-06-14T13:04:33.000Z</time>
      </trkpt>
      <trkpt lat="43.63024" lon="3.81871">
        <ele>59</ele>
        <time>2020-06-14T13:04:34.000Z</time>
      </trkpt>
      <trkpt lat="43.63021" lon="3.81868">
        <ele>59</ele>
        <time>2020-06-14T13:04:35.000Z</time>
      </trkpt>
      <trkpt lat="43.63017" lon="3.81865">
        <ele>59</ele>
        <time>2020-06-14T13:04:36.000Z</time>
      </trkpt>
      <trkpt lat="43.63013" lon="3.81862">
        <ele>59</ele>
        <time>2020-06-14T13:04:37.000Z</time>
      </trkpt>
      <trkpt lat="43.6301" lon="3.8186">
        <ele>59</ele>
        <time>2020-06-14T13:04:38.000Z</time>
      </trkpt>
      <trkpt lat="43.63008" lon="3.81858">
        <ele>59</ele>
        <time>2020-06-14T13:04:39.000Z</time>
      </trkpt>
      <trkpt lat="43.63006" lon="3.81855">
        <ele>59</ele>
        <time>2020-06-14T13:04:40.000Z</time>
      </trkpt>
      <trkpt lat="43.63004" lon="3.81853">
        <ele>59</ele>
        <time>2020-06-14T13:04:41.000Z</time>
      </trkpt>
      <trkpt lat="43.63001" lon="3.81849">
        <ele>59</ele>
        <time>2020-06-14T13:04:42.000Z</time>
      </trkpt>
      <trkpt lat="43.62999" lon="3.81846">
        <ele>59</ele>
        <time>2020-06-14T13:04:43.000Z</time>
      </trkpt>
      <trkpt lat="43.62994" lon="3.81843">
        <ele>59</ele>
        <time>2020-06-14T13:04:44.000Z</time>
      </trkpt>
      <trkpt lat="43.6299" lon="3.81839">
        <ele>59</ele>
        <time>2020-06-14T13:04:45.000Z</time>
      </trkpt>
      <trkpt lat="43.62986" lon="3.81837">
        <ele>59</ele>
        <time>2020-06-14T13:04:46.000Z</time>
      </trkpt>
      <trkpt lat="43.62982" lon="3.81833">
        <ele>59</ele>
        <time>2020-06-14T13:04:47.000Z</time>
      </trkpt>
      <trkpt lat="43.62981" lon="3.81829">
        <ele>59</ele>
        <time>2020-06-14T13:04:48.000Z</time>
      </trkpt>
      <trkpt lat="43.62982" lon="3.81825">
        <ele>59</ele>
        <time>2020-06-14T13:04:49.000Z</time>
      </trkpt>
      <trkpt lat="43.62983" lon="3.81822">
        <ele>59</ele>
        <time>2020-06-14T13:04:50.000Z</time>
      </trkpt>
      <trkpt lat="43.62983" lon="3.81819">
        <ele>59</ele>
        <time>2020-06-14T13:04:51.000Z</time>
      </trkpt>
      <trkpt lat="43.62979" lon="3.81816">
        <ele>58.81299968</ele>
        <time>2020-06-14T13:04:53.000Z</time>
      </trkpt>
      <trkpt lat="43.62976" lon="3.81813">
        <ele>58.71299968</ele>
        <time>2020-06-14T13:04:54.000Z</time>
      </trkpt>
      <trkpt lat="43.62972" lon="3.8181">
        <ele>58.61299968</ele>
        <time>2020-06-14T13:04:55.000Z</time>
      </trkpt>
      <trkpt lat="43.62968" lon="3.81806">
        <ele>58.51299968</ele>
        <time>2020-06-14T13:04:56.000Z</time>
      </trkpt>
      <trkpt lat="43.62964" lon="3.81802">
        <ele>58.41299968</ele>
        <time>2020-06-14T13:04:57.000Z</time>
      </trkpt>
      <trkpt lat="43.6296" lon="3.81799">
        <ele>58.31299968</ele>
        <time>2020-06-14T13:04:58.000Z</time>
      </trkpt>
      <trkpt lat="43.62956" lon="3.81795">
        <ele>58.21299968</ele>
        <time>2020-06-14T13:04:59.000Z</time>
      </trkpt>
      <trkpt lat="43.62951" lon="3.81791">
        <ele>58.11299968</ele>
        <time>2020-06-14T13:05:00.000Z</time>
      </trkpt>
      <trkpt lat="43.62947" lon="3.81786">
        <ele>58.01299968</ele>
        <time>2020-06-14T13:05:01.000Z</time>
      </trkpt>
      <trkpt lat="43.62942" lon="3.81782">
        <ele>57.82599936</ele>
        <time>2020-06-14T13:05:02.000Z</time>
      </trkpt>
      <trkpt lat="43.62937" lon="3.81778">
        <ele>57.62599936</ele>
        <time>2020-06-14T13:05:03.000Z</time>
      </trkpt>
      <trkpt lat="43.62932" lon="3.81774">
        <ele>57.42599936</ele>
        <time>2020-06-14T13:05:04.000Z</time>
      </trkpt>
      <trkpt lat="43.62927" lon="3.8177">
        <ele>57.22599936</ele>
        <time>2020-06-14T13:05:05.000Z</time>
      </trkpt>
      <trkpt lat="43.62922" lon="3.81766">
        <ele>57.02599936</ele>
        <time>2020-06-14T13:05:06.000Z</time>
      </trkpt>
      <trkpt lat="43.62918" lon="3.81763">
        <ele>56.82599936</ele>
        <time>2020-06-14T13:05:07.000Z</time>
      </trkpt>
      <trkpt lat="43.62913" lon="3.81761">
        <ele>56.62599936</ele>
        <time>2020-06-14T13:05:08.000Z</time>
      </trkpt>
      <trkpt lat="43.62909" lon="3.81759">
        <ele>56.42599936</ele>
        <time>2020-06-14T13:05:09.000Z</time>
      </trkpt>
      <trkpt lat="43.62905" lon="3.81755">
        <ele>56.22599936</ele>
        <time>2020-06-14T13:05:10.000Z</time>
      </trkpt>
      <trkpt lat="43.62903" lon="3.81749">
        <ele>56.02599936</ele>
        <time>2020-06-14T13:05:11.000Z</time>
      </trkpt>
      <trkpt lat="43.62903" lon="3.81742">
        <ele>55.73899904</ele>
        <time>2020-06-14T13:05:12.000Z</time>
      </trkpt>
      <trkpt lat="43.62903" lon="3.81735">
        <ele>55.43899904</ele>
        <time>2020-06-14T13:05:13.000Z</time>
      </trkpt>
      <trkpt lat="43.62903" lon="3.81727">
        <ele>55.13899904</ele>
        <time>2020-06-14T13:05:14.000Z</time>
      </trkpt>
      <trkpt lat="43.62903" lon="3.81719">
        <ele>54.83899904</ele>
        <time>2020-06-14T13:05:15.000Z</time>
      </trkpt>
      <trkpt lat="43.62902" lon="3.81711">
        <ele>54.53899904</ele>
        <time>2020-06-14T13:05:16.000Z</time>
      </trkpt>
      <trkpt lat="43.62902" lon="3.81703">
        <ele>54.23899904</ele>
        <time>2020-06-14T13:05:17.000Z</time>
      </trkpt>
      <trkpt lat="43.62902" lon="3.81697">
        <ele>53.93899904</ele>
        <time>2020-06-14T13:05:18.000Z</time>
      </trkpt>
      <trkpt lat="43.62901" lon="3.81691">
        <ele>53.63899904</ele>
        <time>2020-06-14T13:05:19.000Z</time>
      </trkpt>
      <trkpt lat="43.62901" lon="3.81684">
        <ele>53.33899904</ele>
        <time>2020-06-14T13:05:20.000Z</time>
      </trkpt>
      <trkpt lat="43.62901" lon="3.81677">
        <ele>53.03899904</ele>
        <time>2020-06-14T13:05:21.000Z</time>
      </trkpt>
      <trkpt lat="43.62901" lon="3.81668">
        <ele>52.827551342732</ele>
        <time>2020-06-14T13:05:22.000Z</time>
      </trkpt>
      <trkpt lat="43.62902" lon="3.8166">
        <ele>52.629335224368</ele>
        <time>2020-06-14T13:05:23.000Z</time>
      </trkpt>
      <trkpt lat="43.62903" lon="3.81651">
        <ele>52.431119106004</ele>
        <time>2020-06-14T13:05:24.000Z</time>
      </trkpt>
      <trkpt lat="43.62905" lon="3.81642">
        <ele>52.23290298764</ele>
        <time>2020-06-14T13:05:25.000Z</time>
      </trkpt>
      <trkpt lat="43.62906" lon="3.81634">
        <ele>52.034686869276</ele>
        <time>2020-06-14T13:05:26.000Z</time>
      </trkpt>
      <trkpt lat="43.62908" lon="3.81627">
        <ele>51.836470750912</ele>
        <time>2020-06-14T13:05:27.000Z</time>
      </trkpt>
      <trkpt lat="43.6291" lon="3.81622">
        <ele>51.638254632549</ele>
        <time>2020-06-14T13:05:28.000Z</time>
      </trkpt>
      <trkpt lat="43.62913" lon="3.81619">
        <ele>51.440038514185</ele>
        <time>2020-06-14T13:05:29.000Z</time>
      </trkpt>
      <trkpt lat="43.62917" lon="3.81619">
        <ele>51.241822395821</ele>
        <time>2020-06-14T13:05:30.000Z</time>
      </trkpt>
      <trkpt lat="43.6292" lon="3.81621">
        <ele>51.043606277457</ele>
        <time>2020-06-14T13:05:31.000Z</time>
      </trkpt>
      <trkpt lat="43.62923" lon="3.81622">
        <ele>50.84258200845</ele>
        <time>2020-06-14T13:05:32.000Z</time>
      </trkpt>
      <trkpt lat="43.62926" lon="3.81624">
        <ele>50.640765726493</ele>
        <time>2020-06-14T13:05:33.000Z</time>
      </trkpt>
      <trkpt lat="43.62929" lon="3.81624">
        <ele>50.438949444537</ele>
        <time>2020-06-14T13:05:34.000Z</time>
      </trkpt>
      <trkpt lat="43.62933" lon="3.81625">
        <ele>50.237133162581</ele>
        <time>2020-06-14T13:05:35.000Z</time>
      </trkpt>
      <trkpt lat="43.62937" lon="3.81626">
        <ele>50.035316880624</ele>
        <time>2020-06-14T13:05:36.000Z</time>
      </trkpt>
      <trkpt lat="43.62941" lon="3.8163">
        <ele>49.833500598668</ele>
        <time>2020-06-14T13:05:37.000Z</time>
      </trkpt>
      <trkpt lat="43.62946" lon="3.81633">
        <ele>49.631684316711</ele>
        <time>2020-06-14T13:05:38.000Z</time>
      </trkpt>
      <trkpt lat="43.6295" lon="3.81637">
        <ele>49.429868034755</ele>
        <time>2020-06-14T13:05:39.000Z</time>
      </trkpt>
      <trkpt lat="43.62954" lon="3.81639">
        <ele>49.228051752799</ele>
        <time>2020-06-14T13:05:40.000Z</time>
      </trkpt>
      <trkpt lat="43.62958" lon="3.81641">
        <ele>49.026235470842</ele>
        <time>2020-06-14T13:05:41.000Z</time>
      </trkpt>
      <trkpt lat="43.62962" lon="3.81643">
        <ele>49.084548337059</ele>
        <time>2020-06-14T13:05:42.000Z</time>
      </trkpt>
      <trkpt lat="43.62966" lon="3.81643">
        <ele>49.181729976229</ele>
        <time>2020-06-14T13:05:43.000Z</time>
      </trkpt>
      <trkpt lat="43.62971" lon="3.81644">
        <ele>49.278911615398</ele>
        <time>2020-06-14T13:05:44.000Z</time>
      </trkpt>
      <trkpt lat="43.62975" lon="3.81644">
        <ele>49.376093254568</ele>
        <time>2020-06-14T13:05:45.000Z</time>
      </trkpt>
      <trkpt lat="43.62979" lon="3.81645">
        <ele>49.473274893738</ele>
        <time>2020-06-14T13:05:46.000Z</time>
      </trkpt>
      <trkpt lat="43.62983" lon="3.81645">
        <ele>49.570456532907</ele>
        <time>2020-06-14T13:05:47.000Z</time>
      </trkpt>
      <trkpt lat="43.62987" lon="3.81645">
        <ele>49.667638172077</ele>
        <time>2020-06-14T13:05:48.000Z</time>
      </trkpt>
      <trkpt lat="43.62991" lon="3.81645">
        <ele>49.764819811247</ele>
        <time>2020-06-14T13:05:49.000Z</time>
      </trkpt>
      <trkpt lat="43.62995" lon="3.81646">
        <ele>49.862001450416</ele>
        <time>2020-06-14T13:05:50.000Z</time>
      </trkpt>
      <trkpt lat="43.62998" lon="3.81645">
        <ele>49.959183089586</ele>
        <time>2020-06-14T13:05:51.000Z</time>
      </trkpt>
      <trkpt lat="43.63003" lon="3.81643">
        <ele>49.94026836525</ele>
        <time>2020-06-14T13:05:52.000Z</time>
      </trkpt>
      <trkpt lat="43.63007" lon="3.8164">
        <ele>49.837281651689</ele>
        <time>2020-06-14T13:05:53.000Z</time>
      </trkpt>
      <trkpt lat="43.6301" lon="3.81638">
        <ele>49.734294938129</ele>
        <time>2020-06-14T13:05:54.000Z</time>
      </trkpt>
      <trkpt lat="43.63013" lon="3.81637">
        <ele>49.631308224568</ele>
        <time>2020-06-14T13:05:55.000Z</time>
      </trkpt>
      <trkpt lat="43.63017" lon="3.81635">
        <ele>49.528321511008</ele>
        <time>2020-06-14T13:05:56.000Z</time>
      </trkpt>
      <trkpt lat="43.6302" lon="3.81634">
        <ele>49.425334797447</ele>
        <time>2020-06-14T13:05:57.000Z</time>
      </trkpt>
      <trkpt lat="43.63022" lon="3.81635">
        <ele>49.322348083887</ele>
        <time>2020-06-14T13:05:58.000Z</time>
      </trkpt>
      <trkpt lat="43.63024" lon="3.81635">
        <ele>49.219361370326</ele>
        <time>2020-06-14T13:05:59.000Z</time>
      </trkpt>
      <trkpt lat="43.63027" lon="3.81635">
        <ele>49.013387943205</ele>
        <time>2020-06-14T13:06:01.000Z</time>
      </trkpt>
      <trkpt lat="43.63032" lon="3.81634">
        <ele>49</ele>
        <time>2020-06-14T13:06:03.000Z</time>
      </trkpt>
      <trkpt lat="43.63034" lon="3.81633">
        <ele>49</ele>
        <time>2020-06-14T13:06:04.000Z</time>
      </trkpt>
      <trkpt lat="43.63037" lon="3.81634">
        <ele>49</ele>
        <time>2020-06-14T13:06:05.000Z</time>
      </trkpt>
      <trkpt lat="43.63039" lon="3.81634">
        <ele>49</ele>
        <time>2020-06-14T13:06:06.000Z</time>
      </trkpt>
      <trkpt lat="43.63042" lon="3.81635">
        <ele>49</ele>
        <time>2020-06-14T13:06:07.000Z</time>
      </trkpt>
      <trkpt lat="43.63045" lon="3.81635">
        <ele>49</ele>
        <time>2020-06-14T13:06:08.000Z</time>
      </trkpt>
      <trkpt lat="43.63048" lon="3.81635">
        <ele>49</ele>
        <time>2020-06-14T13:06:09.000Z</time>
      </trkpt>
      <trkpt lat="43.63051" lon="3.81635">
        <ele>49</ele>
        <time>2020-06-14T13:06:10.000Z</time>
      </trkpt>
      <trkpt lat="43.63054" lon="3.81635">
        <ele>49</ele>
        <time>2020-06-14T13:06:11.000Z</time>
      </trkpt>
      <trkpt lat="43.63056" lon="3.81636">
        <ele>49</ele>
        <time>2020-06-14T13:06:12.000Z</time>
      </trkpt>
      <trkpt lat="43.63059" lon="3.81637">
        <ele>49</ele>
        <time>2020-06-14T13:06:13.000Z</time>
      </trkpt>
      <trkpt lat="43.63061" lon="3.81638">
        <ele>49</ele>
        <time>2020-06-14T13:06:14.000Z</time>
      </trkpt>
      <trkpt lat="43.63064" lon="3.81639">
        <ele>49</ele>
        <time>2020-06-14T13:06:15.000Z</time>
      </trkpt>
      <trkpt lat="43.63066" lon="3.8164">
        <ele>49</ele>
        <time>2020-06-14T13:06:16.000Z</time>
      </trkpt>
      <trkpt lat="43.63069" lon="3.81641">
        <ele>49</ele>
        <time>2020-06-14T13:06:17.000Z</time>
      </trkpt>
      <trkpt lat="43.63072" lon="3.81642">
        <ele>49</ele>
        <time>2020-06-14T13:06:18.000Z</time>
      </trkpt>
      <trkpt lat="43.63074" lon="3.81643">
        <ele>49</ele>
        <time>2020-06-14T13:06:19.000Z</time>
      </trkpt>
      <trkpt lat="43.63076" lon="3.81643">
        <ele>49</ele>
        <time>2020-06-14T13:06:20.000Z</time>
      </trkpt>
      <trkpt lat="43.63078" lon="3.81644">
        <ele>49</ele>
        <time>2020-06-14T13:06:21.000Z</time>
      </trkpt>
      <trkpt lat="43.6308" lon="3.81645">
        <ele>49</ele>
        <time>2020-06-14T13:06:22.000Z</time>
      </trkpt>
      <trkpt lat="43.63082" lon="3.81647">
        <ele>49</ele>
        <time>2020-06-14T13:06:23.000Z</time>
      </trkpt>
      <trkpt lat="43.63083" lon="3.8165">
        <ele>49</ele>
        <time>2020-06-14T13:06:24.000Z</time>
      </trkpt>
      <trkpt lat="43.63084" lon="3.81652">
        <ele>49</ele>
        <time>2020-06-14T13:06:25.000Z</time>
      </trkpt>
      <trkpt lat="43.63086" lon="3.81654">
        <ele>49</ele>
        <time>2020-06-14T13:06:26.000Z</time>
      </trkpt>
      <trkpt lat="43.63088" lon="3.81658">
        <ele>49</ele>
        <time>2020-06-14T13:06:28.000Z</time>
      </trkpt>
      <trkpt lat="43.63089" lon="3.81663">
        <ele>49</ele>
        <time>2020-06-14T13:06:30.000Z</time>
      </trkpt>
      <trkpt lat="43.63089" lon="3.81666">
        <ele>49.085170074658</ele>
        <time>2020-06-14T13:06:32.000Z</time>
      </trkpt>
      <trkpt lat="43.63091" lon="3.8167">
        <ele>49.285571004775</ele>
        <time>2020-06-14T13:06:34.000Z</time>
      </trkpt>
      <trkpt lat="43.63092" lon="3.81673">
        <ele>49.485971934892</ele>
        <time>2020-06-14T13:06:36.000Z</time>
      </trkpt>
      <trkpt lat="43.63094" lon="3.81675">
        <ele>49.686372865009</ele>
        <time>2020-06-14T13:06:38.000Z</time>
      </trkpt>
      <trkpt lat="43.63094" lon="3.81675">
        <ele>50</ele>
        <time>2020-06-14T13:06:42.000Z</time>
      </trkpt>
      <trkpt lat="43.63094" lon="3.81679">
        <ele>50.962347034384</ele>
        <time>2020-06-14T13:06:51.000Z</time>
      </trkpt>
      <trkpt lat="43.63093" lon="3.81681">
        <ele>51.168539164247</ele>
        <time>2020-06-14T13:06:53.000Z</time>
      </trkpt>
      <trkpt lat="43.63093" lon="3.81684">
        <ele>51.372829456503</ele>
        <time>2020-06-14T13:06:55.000Z</time>
      </trkpt>
      <trkpt lat="43.63092" lon="3.81687">
        <ele>51.679264894887</ele>
        <time>2020-06-14T13:06:58.000Z</time>
      </trkpt>
      <trkpt lat="43.63092" lon="3.81691">
        <ele>51.985700333271</ele>
        <time>2020-06-14T13:07:01.000Z</time>
      </trkpt>
      <trkpt lat="43.63093" lon="3.81693">
        <ele>52.180583033424</ele>
        <time>2020-06-14T13:07:03.000Z</time>
      </trkpt>
      <trkpt lat="43.63094" lon="3.81697">
        <ele>52.471844988368</ele>
        <time>2020-06-14T13:07:06.000Z</time>
      </trkpt>
      <trkpt lat="43.63095" lon="3.81699">
        <ele>52.666019624998</ele>
        <time>2020-06-14T13:07:08.000Z</time>
      </trkpt>
      <trkpt lat="43.63095" lon="3.81702">
        <ele>53.321981530479</ele>
        <time>2020-06-14T13:07:13.000Z</time>
      </trkpt>
      <trkpt lat="43.63096" lon="3.81705">
        <ele>54.147575198374</ele>
        <time>2020-06-14T13:07:17.000Z</time>
      </trkpt>
      <trkpt lat="43.63096" lon="3.81707">
        <ele>55</ele>
        <time>2020-06-14T13:07:23.000Z</time>
      </trkpt>
      <trkpt lat="43.63096" lon="3.81715">
        <ele>56.093945114953</ele>
        <time>2020-06-14T13:07:28.000Z</time>
      </trkpt>
      <trkpt lat="43.63096" lon="3.81716">
        <ele>56.302713521646</ele>
        <time>2020-06-14T13:07:29.000Z</time>
      </trkpt>
      <trkpt lat="43.63096" lon="3.8172">
        <ele>56.720250335032</ele>
        <time>2020-06-14T13:07:31.000Z</time>
      </trkpt>
      <trkpt lat="43.63096" lon="3.81724">
        <ele>57.137787148417</ele>
        <time>2020-06-14T13:07:33.000Z</time>
      </trkpt>
      <trkpt lat="43.63097" lon="3.81728">
        <ele>57.555323961803</ele>
        <time>2020-06-14T13:07:35.000Z</time>
      </trkpt>
      <trkpt lat="43.63099" lon="3.81731">
        <ele>57.972860775189</ele>
        <time>2020-06-14T13:07:37.000Z</time>
      </trkpt>
      <trkpt lat="43.631" lon="3.81734">
        <ele>58.181729976229</ele>
        <time>2020-06-14T13:07:39.000Z</time>
      </trkpt>
      <trkpt lat="43.63101" lon="3.81737">
        <ele>58.376093254568</ele>
        <time>2020-06-14T13:07:41.000Z</time>
      </trkpt>
      <trkpt lat="43.63103" lon="3.8174">
        <ele>58.570456532907</ele>
        <time>2020-06-14T13:07:43.000Z</time>
      </trkpt>
      <trkpt lat="43.63104" lon="3.81744">
        <ele>58.764819811247</ele>
        <time>2020-06-14T13:07:45.000Z</time>
      </trkpt>
      <trkpt lat="43.63105" lon="3.81749">
        <ele>58.959183089586</ele>
        <time>2020-06-14T13:07:47.000Z</time>
      </trkpt>
      <trkpt lat="43.63106" lon="3.81752">
        <ele>59.177927207207</ele>
        <time>2020-06-14T13:07:49.000Z</time>
      </trkpt>
      <trkpt lat="43.63107" lon="3.81755">
        <ele>59.403152432432</ele>
        <time>2020-06-14T13:07:51.000Z</time>
      </trkpt>
      <trkpt lat="43.63108" lon="3.81755">
        <ele>59.966215495495</ele>
        <time>2020-06-14T13:07:56.000Z</time>
      </trkpt>
      <trkpt lat="43.63113" lon="3.81754">
        <ele>60.981303247863</ele>
        <time>2020-06-14T13:08:15.000Z</time>
      </trkpt>
      <trkpt lat="43.63117" lon="3.81753">
        <ele>61.167860853342</ele>
        <time>2020-06-14T13:08:17.000Z</time>
      </trkpt>
      <trkpt lat="43.6312" lon="3.81752">
        <ele>61.372569211077</ele>
        <time>2020-06-14T13:08:19.000Z</time>
      </trkpt>
      <trkpt lat="43.63122" lon="3.81751">
        <ele>61.474923389944</ele>
        <time>2020-06-14T13:08:20.000Z</time>
      </trkpt>
      <trkpt lat="43.63124" lon="3.81751">
        <ele>61.577277568812</ele>
        <time>2020-06-14T13:08:21.000Z</time>
      </trkpt>
      <trkpt lat="43.63126" lon="3.8175">
        <ele>61.679631747679</ele>
        <time>2020-06-14T13:08:22.000Z</time>
      </trkpt>
      <trkpt lat="43.63128" lon="3.8175">
        <ele>61.781985926546</ele>
        <time>2020-06-14T13:08:23.000Z</time>
      </trkpt>
      <trkpt lat="43.6313" lon="3.81749">
        <ele>61.884340105413</ele>
        <time>2020-06-14T13:08:24.000Z</time>
      </trkpt>
      <trkpt lat="43.63134" lon="3.81748">
        <ele>62.169096674118</ele>
        <time>2020-06-14T13:08:26.000Z</time>
      </trkpt>
      <trkpt lat="43.63136" lon="3.81748">
        <ele>62.557823230797</ele>
        <time>2020-06-14T13:08:28.000Z</time>
      </trkpt>
      <trkpt lat="43.63139" lon="3.81749">
        <ele>62.946549787475</ele>
        <time>2020-06-14T13:08:30.000Z</time>
      </trkpt>
      <trkpt lat="43.63142" lon="3.8175">
        <ele>63.335276344154</ele>
        <time>2020-06-14T13:08:32.000Z</time>
      </trkpt>
      <trkpt lat="43.63144" lon="3.81747">
        <ele>63.724002900833</ele>
        <time>2020-06-14T13:08:34.000Z</time>
      </trkpt>
      <trkpt lat="43.63144" lon="3.81742">
        <ele>64</ele>
        <time>2020-06-14T13:08:36.000Z</time>
      </trkpt>
      <trkpt lat="43.63144" lon="3.81738">
        <ele>64</ele>
        <time>2020-06-14T13:08:37.000Z</time>
      </trkpt>
      <trkpt lat="43.63144" lon="3.81734">
        <ele>64</ele>
        <time>2020-06-14T13:08:38.000Z</time>
      </trkpt>
      <trkpt lat="43.63144" lon="3.8173">
        <ele>64</ele>
        <time>2020-06-14T13:08:39.000Z</time>
      </trkpt>
      <trkpt lat="43.63144" lon="3.81725">
        <ele>64</ele>
        <time>2020-06-14T13:08:40.000Z</time>
      </trkpt>
      <trkpt lat="43.63144" lon="3.81722">
        <ele>64</ele>
        <time>2020-06-14T13:08:41.000Z</time>
      </trkpt>
      <trkpt lat="43.63145" lon="3.81719">
        <ele>64</ele>
        <time>2020-06-14T13:08:42.000Z</time>
      </trkpt>
      <trkpt lat="43.63146" lon="3.81715">
        <ele>64</ele>
        <time>2020-06-14T13:08:44.000Z</time>
      </trkpt>
      <trkpt lat="43.63145" lon="3.81711">
        <ele>64.08700032</ele>
        <time>2020-06-14T13:08:46.000Z</time>
      </trkpt>
      <trkpt lat="43.63144" lon="3.81706">
        <ele>64.28700032</ele>
        <time>2020-06-14T13:08:48.000Z</time>
      </trkpt>
      <trkpt lat="43.63144" lon="3.81703">
        <ele>64.38700032</ele>
        <time>2020-06-14T13:08:49.000Z</time>
      </trkpt>
      <trkpt lat="43.63144" lon="3.81701">
        <ele>64.48700032</ele>
        <time>2020-06-14T13:08:50.000Z</time>
      </trkpt>
      <trkpt lat="43.63146" lon="3.81698">
        <ele>64.68700032</ele>
        <time>2020-06-14T13:08:52.000Z</time>
      </trkpt>
      <trkpt lat="43.63148" lon="3.81694">
        <ele>64.88700032</ele>
        <time>2020-06-14T13:08:54.000Z</time>
      </trkpt>
      <trkpt lat="43.63148" lon="3.81692">
        <ele>64.98700032</ele>
        <time>2020-06-14T13:08:55.000Z</time>
      </trkpt>
      <trkpt lat="43.63148" lon="3.81689">
        <ele>65</ele>
        <time>2020-06-14T13:08:56.000Z</time>
      </trkpt>
      <trkpt lat="43.63149" lon="3.81686">
        <ele>65</ele>
        <time>2020-06-14T13:08:57.000Z</time>
      </trkpt>
      <trkpt lat="43.63148" lon="3.81682">
        <ele>65</ele>
        <time>2020-06-14T13:08:58.000Z</time>
      </trkpt>
      <trkpt lat="43.63148" lon="3.81678">
        <ele>65</ele>
        <time>2020-06-14T13:08:59.000Z</time>
      </trkpt>
      <trkpt lat="43.63148" lon="3.81675">
        <ele>65</ele>
        <time>2020-06-14T13:09:00.000Z</time>
      </trkpt>
      <trkpt lat="43.63148" lon="3.81672">
        <ele>65</ele>
        <time>2020-06-14T13:09:01.000Z</time>
      </trkpt>
      <trkpt lat="43.63147" lon="3.81669">
        <ele>65</ele>
        <time>2020-06-14T13:09:02.000Z</time>
      </trkpt>
      <trkpt lat="43.63147" lon="3.81666">
        <ele>65</ele>
        <time>2020-06-14T13:09:03.000Z</time>
      </trkpt>
      <trkpt lat="43.63148" lon="3.81663">
        <ele>65</ele>
        <time>2020-06-14T13:09:04.000Z</time>
      </trkpt>
      <trkpt lat="43.6315" lon="3.81661">
        <ele>65</ele>
        <time>2020-06-14T13:09:05.000Z</time>
      </trkpt>
      <trkpt lat="43.63152" lon="3.8166">
        <ele>65</ele>
        <time>2020-06-14T13:09:06.000Z</time>
      </trkpt>
      <trkpt lat="43.63154" lon="3.8166">
        <ele>65</ele>
        <time>2020-06-14T13:09:07.000Z</time>
      </trkpt>
      <trkpt lat="43.63156" lon="3.8166">
        <ele>65</ele>
        <time>2020-06-14T13:09:08.000Z</time>
      </trkpt>
      <trkpt lat="43.63158" lon="3.81659">
        <ele>65</ele>
        <time>2020-06-14T13:09:09.000Z</time>
      </trkpt>
      <trkpt lat="43.6316" lon="3.81658">
        <ele>65</ele>
        <time>2020-06-14T13:09:10.000Z</time>
      </trkpt>
      <trkpt lat="43.63162" lon="3.81657">
        <ele>65</ele>
        <time>2020-06-14T13:09:11.000Z</time>
      </trkpt>
      <trkpt lat="43.63164" lon="3.81656">
        <ele>65</ele>
        <time>2020-06-14T13:09:12.000Z</time>
      </trkpt>
      <trkpt lat="43.63166" lon="3.81656">
        <ele>65</ele>
        <time>2020-06-14T13:09:13.000Z</time>
      </trkpt>
      <trkpt lat="43.63169" lon="3.81656">
        <ele>65</ele>
        <time>2020-06-14T13:09:14.000Z</time>
      </trkpt>
      <trkpt lat="43.63171" lon="3.81656">
        <ele>65</ele>
        <time>2020-06-14T13:09:15.000Z</time>
      </trkpt>
      <trkpt lat="43.63173" lon="3.81656">
        <ele>65.08700032</ele>
        <time>2020-06-14T13:09:16.000Z</time>
      </trkpt>
      <trkpt lat="43.63176" lon="3.81654">
        <ele>65.18700032</ele>
        <time>2020-06-14T13:09:17.000Z</time>
      </trkpt>
      <trkpt lat="43.63179" lon="3.81653">
        <ele>65.28700032</ele>
        <time>2020-06-14T13:09:18.000Z</time>
      </trkpt>
      <trkpt lat="43.63181" lon="3.81652">
        <ele>65.38700032</ele>
        <time>2020-06-14T13:09:19.000Z</time>
      </trkpt>
      <trkpt lat="43.63184" lon="3.81651">
        <ele>65.48700032</ele>
        <time>2020-06-14T13:09:20.000Z</time>
      </trkpt>
      <trkpt lat="43.63186" lon="3.81649">
        <ele>65.58700032</ele>
        <time>2020-06-14T13:09:21.000Z</time>
      </trkpt>
      <trkpt lat="43.63188" lon="3.81647">
        <ele>65.68700032</ele>
        <time>2020-06-14T13:09:22.000Z</time>
      </trkpt>
      <trkpt lat="43.63191" lon="3.81645">
        <ele>65.78700032</ele>
        <time>2020-06-14T13:09:23.000Z</time>
      </trkpt>
      <trkpt lat="43.63193" lon="3.81644">
        <ele>65.88700032</ele>
        <time>2020-06-14T13:09:24.000Z</time>
      </trkpt>
      <trkpt lat="43.63196" lon="3.81644">
        <ele>65.98700032</ele>
        <time>2020-06-14T13:09:25.000Z</time>
      </trkpt>
      <trkpt lat="43.63198" lon="3.81643">
        <ele>66.086913434378</ele>
        <time>2020-06-14T13:09:26.000Z</time>
      </trkpt>
      <trkpt lat="43.63201" lon="3.81644">
        <ele>66.186813566214</ele>
        <time>2020-06-14T13:09:27.000Z</time>
      </trkpt>
      <trkpt lat="43.63203" lon="3.81644">
        <ele>66.28671369805</ele>
        <time>2020-06-14T13:09:28.000Z</time>
      </trkpt>
      <trkpt lat="43.63206" lon="3.81644">
        <ele>66.386613829886</ele>
        <time>2020-06-14T13:09:29.000Z</time>
      </trkpt>
      <trkpt lat="43.63209" lon="3.81643">
        <ele>66.486513961723</ele>
        <time>2020-06-14T13:09:30.000Z</time>
      </trkpt>
      <trkpt lat="43.63212" lon="3.81643">
        <ele>66.586414093559</ele>
        <time>2020-06-14T13:09:31.000Z</time>
      </trkpt>
      <trkpt lat="43.63215" lon="3.81642">
        <ele>66.686314225395</ele>
        <time>2020-06-14T13:09:32.000Z</time>
      </trkpt>
      <trkpt lat="43.63218" lon="3.81642">
        <ele>66.786214357231</ele>
        <time>2020-06-14T13:09:33.000Z</time>
      </trkpt>
      <trkpt lat="43.63221" lon="3.81642">
        <ele>66.886114489068</ele>
        <time>2020-06-14T13:09:34.000Z</time>
      </trkpt>
      <trkpt lat="43.63224" lon="3.81641">
        <ele>66.986014620904</ele>
        <time>2020-06-14T13:09:35.000Z</time>
      </trkpt>
      <trkpt lat="43.63227" lon="3.8164">
        <ele>67.172173398303</ele>
        <time>2020-06-14T13:09:36.000Z</time>
      </trkpt>
      <trkpt lat="43.6323" lon="3.81639">
        <ele>67.372373534375</ele>
        <time>2020-06-14T13:09:37.000Z</time>
      </trkpt>
      <trkpt lat="43.63232" lon="3.81639">
        <ele>67.572573670447</ele>
        <time>2020-06-14T13:09:38.000Z</time>
      </trkpt>
      <trkpt lat="43.63235" lon="3.81638">
        <ele>67.772773806519</ele>
        <time>2020-06-14T13:09:39.000Z</time>
      </trkpt>
      <trkpt lat="43.63238" lon="3.81638">
        <ele>67.972973942591</ele>
        <time>2020-06-14T13:09:40.000Z</time>
      </trkpt>
      <trkpt lat="43.63241" lon="3.81637">
        <ele>68.173174078663</ele>
        <time>2020-06-14T13:09:41.000Z</time>
      </trkpt>
      <trkpt lat="43.63244" lon="3.81636">
        <ele>68.373374214735</ele>
        <time>2020-06-14T13:09:42.000Z</time>
      </trkpt>
      <trkpt lat="43.63247" lon="3.81635">
        <ele>68.573574350807</ele>
        <time>2020-06-14T13:09:43.000Z</time>
      </trkpt>
      <trkpt lat="43.6325" lon="3.81633">
        <ele>68.773774486879</ele>
        <time>2020-06-14T13:09:44.000Z</time>
      </trkpt>
      <trkpt lat="43.63253" lon="3.81631">
        <ele>68.973974622951</ele>
        <time>2020-06-14T13:09:45.000Z</time>
      </trkpt>
      <trkpt lat="43.63256" lon="3.81628">
        <ele>69.086913434378</ele>
        <time>2020-06-14T13:09:46.000Z</time>
      </trkpt>
      <trkpt lat="43.63259" lon="3.81627">
        <ele>69.186813566214</ele>
        <time>2020-06-14T13:09:47.000Z</time>
      </trkpt>
      <trkpt lat="43.63262" lon="3.81625">
        <ele>69.28671369805</ele>
        <time>2020-06-14T13:09:48.000Z</time>
      </trkpt>
      <trkpt lat="43.63264" lon="3.81624">
        <ele>69.386613829886</ele>
        <time>2020-06-14T13:09:49.000Z</time>
      </trkpt>
      <trkpt lat="43.63266" lon="3.81622">
        <ele>69.486513961723</ele>
        <time>2020-06-14T13:09:50.000Z</time>
      </trkpt>
      <trkpt lat="43.63269" lon="3.81621">
        <ele>69.586414093559</ele>
        <time>2020-06-14T13:09:51.000Z</time>
      </trkpt>
      <trkpt lat="43.63272" lon="3.81621">
        <ele>69.686314225395</ele>
        <time>2020-06-14T13:09:52.000Z</time>
      </trkpt>
      <trkpt lat="43.63275" lon="3.81621">
        <ele>69.786214357231</ele>
        <time>2020-06-14T13:09:53.000Z</time>
      </trkpt>
      <trkpt lat="43.63278" lon="3.81621">
        <ele>69.886114489068</ele>
        <time>2020-06-14T13:09:54.000Z</time>
      </trkpt>
      <trkpt lat="43.63281" lon="3.8162">
        <ele>69.986014620904</ele>
        <time>2020-06-14T13:09:55.000Z</time>
      </trkpt>
      <trkpt lat="43.63283" lon="3.8162">
        <ele>70</ele>
        <time>2020-06-14T13:09:56.000Z</time>
      </trkpt>
      <trkpt lat="43.63285" lon="3.8162">
        <ele>70</ele>
        <time>2020-06-14T13:09:57.000Z</time>
      </trkpt>
      <trkpt lat="43.63288" lon="3.8162">
        <ele>70</ele>
        <time>2020-06-14T13:09:58.000Z</time>
      </trkpt>
      <trkpt lat="43.6329" lon="3.81621">
        <ele>70</ele>
        <time>2020-06-14T13:09:59.000Z</time>
      </trkpt>
      <trkpt lat="43.63293" lon="3.81623">
        <ele>70</ele>
        <time>2020-06-14T13:10:00.000Z</time>
      </trkpt>
      <trkpt lat="43.63295" lon="3.81624">
        <ele>70</ele>
        <time>2020-06-14T13:10:01.000Z</time>
      </trkpt>
      <trkpt lat="43.63297" lon="3.81625">
        <ele>70</ele>
        <time>2020-06-14T13:10:02.000Z</time>
      </trkpt>
      <trkpt lat="43.63299" lon="3.81626">
        <ele>70</ele>
        <time>2020-06-14T13:10:03.000Z</time>
      </trkpt>
      <trkpt lat="43.63301" lon="3.81628">
        <ele>70</ele>
        <time>2020-06-14T13:10:04.000Z</time>
      </trkpt>
      <trkpt lat="43.63302" lon="3.81631">
        <ele>70</ele>
        <time>2020-06-14T13:10:05.000Z</time>
      </trkpt>
      <trkpt lat="43.63304" lon="3.81632">
        <ele>69.662789457364</ele>
        <time>2020-06-14T13:10:06.000Z</time>
      </trkpt>
      <trkpt lat="43.63307" lon="3.81633">
        <ele>68.887595658915</ele>
        <time>2020-06-14T13:10:08.000Z</time>
      </trkpt>
      <trkpt lat="43.63309" lon="3.81632">
        <ele>67.72480496124</ele>
        <time>2020-06-14T13:10:11.000Z</time>
      </trkpt>
      <trkpt lat="43.63309" lon="3.81629">
        <ele>66.949611162791</ele>
        <time>2020-06-14T13:10:13.000Z</time>
      </trkpt>
      <trkpt lat="43.63309" lon="3.81626">
        <ele>66.562014263566</ele>
        <time>2020-06-14T13:10:14.000Z</time>
      </trkpt>
      <trkpt lat="43.63309" lon="3.81622">
        <ele>66.174417364341</ele>
        <time>2020-06-14T13:10:15.000Z</time>
      </trkpt>
      <trkpt lat="43.63309" lon="3.81617">
        <ele>65.715907438017</ele>
        <time>2020-06-14T13:10:16.000Z</time>
      </trkpt>
      <trkpt lat="43.63309" lon="3.8161">
        <ele>65.199378512397</ele>
        <time>2020-06-14T13:10:17.000Z</time>
      </trkpt>
      <trkpt lat="43.63309" lon="3.81603">
        <ele>64.682849586777</ele>
        <time>2020-06-14T13:10:18.000Z</time>
      </trkpt>
      <trkpt lat="43.63308" lon="3.81596">
        <ele>64.166320661157</ele>
        <time>2020-06-14T13:10:19.000Z</time>
      </trkpt>
      <trkpt lat="43.63308" lon="3.81587">
        <ele>63.649791735537</ele>
        <time>2020-06-14T13:10:20.000Z</time>
      </trkpt>
      <trkpt lat="43.63308" lon="3.81579">
        <ele>63.133262809917</ele>
        <time>2020-06-14T13:10:21.000Z</time>
      </trkpt>
      <trkpt lat="43.63307" lon="3.81571">
        <ele>62.616733884298</ele>
        <time>2020-06-14T13:10:22.000Z</time>
      </trkpt>
      <trkpt lat="43.63307" lon="3.81563">
        <ele>62.100204958678</ele>
        <time>2020-06-14T13:10:23.000Z</time>
      </trkpt>
      <trkpt lat="43.63307" lon="3.81555">
        <ele>61.583676033058</ele>
        <time>2020-06-14T13:10:24.000Z</time>
      </trkpt>
      <trkpt lat="43.63308" lon="3.81547">
        <ele>61.067147107438</ele>
        <time>2020-06-14T13:10:25.000Z</time>
      </trkpt>
      <trkpt lat="43.63309" lon="3.81539">
        <ele>60.73899904</ele>
        <time>2020-06-14T13:10:26.000Z</time>
      </trkpt>
      <trkpt lat="43.63312" lon="3.81531">
        <ele>60.43899904</ele>
        <time>2020-06-14T13:10:27.000Z</time>
      </trkpt>
      <trkpt lat="43.63316" lon="3.81525">
        <ele>60.13899904</ele>
        <time>2020-06-14T13:10:28.000Z</time>
      </trkpt>
      <trkpt lat="43.63321" lon="3.8152">
        <ele>59.83899904</ele>
        <time>2020-06-14T13:10:29.000Z</time>
      </trkpt>
      <trkpt lat="43.63327" lon="3.81518">
        <ele>59.53899904</ele>
        <time>2020-06-14T13:10:30.000Z</time>
      </trkpt>
      <trkpt lat="43.63334" lon="3.81516">
        <ele>59.23899904</ele>
        <time>2020-06-14T13:10:31.000Z</time>
      </trkpt>
      <trkpt lat="43.6334" lon="3.81515">
        <ele>58.93899904</ele>
        <time>2020-06-14T13:10:32.000Z</time>
      </trkpt>
      <trkpt lat="43.63345" lon="3.81512">
        <ele>58.63899904</ele>
        <time>2020-06-14T13:10:33.000Z</time>
      </trkpt>
      <trkpt lat="43.63349" lon="3.81508">
        <ele>58.33899904</ele>
        <time>2020-06-14T13:10:34.000Z</time>
      </trkpt>
      <trkpt lat="43.63352" lon="3.81504">
        <ele>58.03899904</ele>
        <time>2020-06-14T13:10:35.000Z</time>
      </trkpt>
      <trkpt lat="43.63355" lon="3.81501">
        <ele>57.91299968</ele>
        <time>2020-06-14T13:10:36.000Z</time>
      </trkpt>
      <trkpt lat="43.63357" lon="3.81497">
        <ele>57.81299968</ele>
        <time>2020-06-14T13:10:37.000Z</time>
      </trkpt>
      <trkpt lat="43.63358" lon="3.81493">
        <ele>57.71299968</ele>
        <time>2020-06-14T13:10:38.000Z</time>
      </trkpt>
      <trkpt lat="43.63359" lon="3.8149">
        <ele>57.61299968</ele>
        <time>2020-06-14T13:10:39.000Z</time>
      </trkpt>
      <trkpt lat="43.63358" lon="3.81487">
        <ele>57.41299968</ele>
        <time>2020-06-14T13:10:41.000Z</time>
      </trkpt>
      <trkpt lat="43.63356" lon="3.81484">
        <ele>57.21299968</ele>
        <time>2020-06-14T13:10:43.000Z</time>
      </trkpt>
      <trkpt lat="43.63356" lon="3.81481">
        <ele>57.01299968</ele>
        <time>2020-06-14T13:10:45.000Z</time>
      </trkpt>
      <trkpt lat="43.63355" lon="3.81478">
        <ele>57</ele>
        <time>2020-06-14T13:10:47.000Z</time>
      </trkpt>
      <trkpt lat="43.63355" lon="3.81479">
        <ele>56.993449092123</ele>
        <time>2020-06-14T13:10:52.000Z</time>
      </trkpt>
      <trkpt lat="43.63359" lon="3.81485">
        <ele>56</ele>
        <time>2020-06-14T13:10:57.000Z</time>
      </trkpt>
      <trkpt lat="43.63359" lon="3.81487">
        <ele>56</ele>
        <time>2020-06-14T13:10:58.000Z</time>
      </trkpt>
      <trkpt lat="43.6336" lon="3.8149">
        <ele>56</ele>
        <time>2020-06-14T13:10:59.000Z</time>
      </trkpt>
      <trkpt lat="43.63361" lon="3.81492">
        <ele>56</ele>
        <time>2020-06-14T13:11:00.000Z</time>
      </trkpt>
      <trkpt lat="43.63363" lon="3.81494">
        <ele>56</ele>
        <time>2020-06-14T13:11:01.000Z</time>
      </trkpt>
      <trkpt lat="43.63365" lon="3.81495">
        <ele>56</ele>
        <time>2020-06-14T13:11:02.000Z</time>
      </trkpt>
      <trkpt lat="43.63368" lon="3.81496">
        <ele>56</ele>
        <time>2020-06-14T13:11:03.000Z</time>
      </trkpt>
      <trkpt lat="43.6337" lon="3.81496">
        <ele>56</ele>
        <time>2020-06-14T13:11:04.000Z</time>
      </trkpt>
      <trkpt lat="43.63373" lon="3.81497">
        <ele>56</ele>
        <time>2020-06-14T13:11:05.000Z</time>
      </trkpt>
      <trkpt lat="43.63375" lon="3.81497">
        <ele>56</ele>
        <time>2020-06-14T13:11:06.000Z</time>
      </trkpt>
      <trkpt lat="43.63377" lon="3.81498">
        <ele>56</ele>
        <time>2020-06-14T13:11:07.000Z</time>
      </trkpt>
      <trkpt lat="43.63381" lon="3.81498">
        <ele>56</ele>
        <time>2020-06-14T13:11:09.000Z</time>
      </trkpt>
      <trkpt lat="43.63383" lon="3.81498">
        <ele>56</ele>
        <time>2020-06-14T13:11:10.000Z</time>
      </trkpt>
      <trkpt lat="43.63386" lon="3.81498">
        <ele>56</ele>
        <time>2020-06-14T13:11:11.000Z</time>
      </trkpt>
      <trkpt lat="43.63389" lon="3.81499">
        <ele>56</ele>
        <time>2020-06-14T13:11:12.000Z</time>
      </trkpt>
      <trkpt lat="43.63392" lon="3.81498">
        <ele>56</ele>
        <time>2020-06-14T13:11:13.000Z</time>
      </trkpt>
      <trkpt lat="43.63394" lon="3.81498">
        <ele>56</ele>
        <time>2020-06-14T13:11:14.000Z</time>
      </trkpt>
      <trkpt lat="43.63397" lon="3.81497">
        <ele>56</ele>
        <time>2020-06-14T13:11:15.000Z</time>
      </trkpt>
      <trkpt lat="43.63399" lon="3.81497">
        <ele>56</ele>
        <time>2020-06-14T13:11:16.000Z</time>
      </trkpt>
      <trkpt lat="43.63402" lon="3.81496">
        <ele>56.119342723499</ele>
        <time>2020-06-14T13:11:17.000Z</time>
      </trkpt>
      <trkpt lat="43.63404" lon="3.81496">
        <ele>56.325103769411</ele>
        <time>2020-06-14T13:11:18.000Z</time>
      </trkpt>
      <trkpt lat="43.63407" lon="3.81495">
        <ele>56.530864815322</ele>
        <time>2020-06-14T13:11:19.000Z</time>
      </trkpt>
      <trkpt lat="43.63409" lon="3.81495">
        <ele>56.736625861233</ele>
        <time>2020-06-14T13:11:20.000Z</time>
      </trkpt>
      <trkpt lat="43.63412" lon="3.81495">
        <ele>56.942386907145</ele>
        <time>2020-06-14T13:11:21.000Z</time>
      </trkpt>
      <trkpt lat="43.63414" lon="3.81496">
        <ele>57.148147953056</ele>
        <time>2020-06-14T13:11:22.000Z</time>
      </trkpt>
      <trkpt lat="43.63417" lon="3.81496">
        <ele>57.353908998968</ele>
        <time>2020-06-14T13:11:23.000Z</time>
      </trkpt>
      <trkpt lat="43.6342" lon="3.81497">
        <ele>57.559670044879</ele>
        <time>2020-06-14T13:11:24.000Z</time>
      </trkpt>
      <trkpt lat="43.63422" lon="3.81497">
        <ele>57.76543109079</ele>
        <time>2020-06-14T13:11:25.000Z</time>
      </trkpt>
      <trkpt lat="43.63425" lon="3.81498">
        <ele>57.971192136702</ele>
        <time>2020-06-14T13:11:26.000Z</time>
      </trkpt>
      <trkpt lat="43.63428" lon="3.81499">
        <ele>58</ele>
        <time>2020-06-14T13:11:27.000Z</time>
      </trkpt>
      <trkpt lat="43.6343" lon="3.815">
        <ele>58</ele>
        <time>2020-06-14T13:11:28.000Z</time>
      </trkpt>
      <trkpt lat="43.63433" lon="3.81501">
        <ele>58</ele>
        <time>2020-06-14T13:11:29.000Z</time>
      </trkpt>
      <trkpt lat="43.63435" lon="3.81501">
        <ele>58</ele>
        <time>2020-06-14T13:11:30.000Z</time>
      </trkpt>
      <trkpt lat="43.63438" lon="3.81502">
        <ele>58</ele>
        <time>2020-06-14T13:11:31.000Z</time>
      </trkpt>
      <trkpt lat="43.6344" lon="3.81503">
        <ele>58</ele>
        <time>2020-06-14T13:11:32.000Z</time>
      </trkpt>
      <trkpt lat="43.63443" lon="3.81504">
        <ele>58</ele>
        <time>2020-06-14T13:11:33.000Z</time>
      </trkpt>
      <trkpt lat="43.63446" lon="3.81504">
        <ele>58</ele>
        <time>2020-06-14T13:11:34.000Z</time>
      </trkpt>
      <trkpt lat="43.63449" lon="3.81504">
        <ele>58</ele>
        <time>2020-06-14T13:11:35.000Z</time>
      </trkpt>
      <trkpt lat="43.63451" lon="3.81504">
        <ele>58</ele>
        <time>2020-06-14T13:11:36.000Z</time>
      </trkpt>
      <trkpt lat="43.63454" lon="3.81504">
        <ele>58.08700032</ele>
        <time>2020-06-14T13:11:37.000Z</time>
      </trkpt>
      <trkpt lat="43.63457" lon="3.81504">
        <ele>58.18700032</ele>
        <time>2020-06-14T13:11:38.000Z</time>
      </trkpt>
      <trkpt lat="43.63459" lon="3.81504">
        <ele>58.28700032</ele>
        <time>2020-06-14T13:11:39.000Z</time>
      </trkpt>
      <trkpt lat="43.63461" lon="3.81503">
        <ele>58.38700032</ele>
        <time>2020-06-14T13:11:40.000Z</time>
      </trkpt>
      <trkpt lat="43.63464" lon="3.81503">
        <ele>58.48700032</ele>
        <time>2020-06-14T13:11:41.000Z</time>
      </trkpt>
      <trkpt lat="43.63466" lon="3.81502">
        <ele>58.58700032</ele>
        <time>2020-06-14T13:11:42.000Z</time>
      </trkpt>
      <trkpt lat="43.63468" lon="3.81502">
        <ele>58.68700032</ele>
        <time>2020-06-14T13:11:43.000Z</time>
      </trkpt>
      <trkpt lat="43.63471" lon="3.81502">
        <ele>58.78700032</ele>
        <time>2020-06-14T13:11:44.000Z</time>
      </trkpt>
      <trkpt lat="43.63473" lon="3.81502">
        <ele>58.88700032</ele>
        <time>2020-06-14T13:11:45.000Z</time>
      </trkpt>
      <trkpt lat="43.63475" lon="3.81502">
        <ele>58.98700032</ele>
        <time>2020-06-14T13:11:46.000Z</time>
      </trkpt>
      <trkpt lat="43.63477" lon="3.81501">
        <ele>59.08700032</ele>
        <time>2020-06-14T13:11:47.000Z</time>
      </trkpt>
      <trkpt lat="43.63479" lon="3.81501">
        <ele>59.18700032</ele>
        <time>2020-06-14T13:11:48.000Z</time>
      </trkpt>
      <trkpt lat="43.63481" lon="3.815">
        <ele>59.28700032</ele>
        <time>2020-06-14T13:11:49.000Z</time>
      </trkpt>
      <trkpt lat="43.63483" lon="3.815">
        <ele>59.38700032</ele>
        <time>2020-06-14T13:11:50.000Z</time>
      </trkpt>
      <trkpt lat="43.63486" lon="3.81499">
        <ele>59.58700032</ele>
        <time>2020-06-14T13:11:52.000Z</time>
      </trkpt>
      <trkpt lat="43.63488" lon="3.81499">
        <ele>59.68700032</ele>
        <time>2020-06-14T13:11:53.000Z</time>
      </trkpt>
      <trkpt lat="43.6349" lon="3.81498">
        <ele>59.78700032</ele>
        <time>2020-06-14T13:11:54.000Z</time>
      </trkpt>
      <trkpt lat="43.63493" lon="3.81498">
        <ele>59.98700032</ele>
        <time>2020-06-14T13:11:56.000Z</time>
      </trkpt>
      <trkpt lat="43.63495" lon="3.81498">
        <ele>60.08700032</ele>
        <time>2020-06-14T13:11:57.000Z</time>
      </trkpt>
      <trkpt lat="43.63497" lon="3.81498">
        <ele>60.18700032</ele>
        <time>2020-06-14T13:11:58.000Z</time>
      </trkpt>
      <trkpt lat="43.63499" lon="3.81498">
        <ele>60.28700032</ele>
        <time>2020-06-14T13:11:59.000Z</time>
      </trkpt>
      <trkpt lat="43.63501" lon="3.81497">
        <ele>60.38700032</ele>
        <time>2020-06-14T13:12:00.000Z</time>
      </trkpt>
      <trkpt lat="43.63503" lon="3.81497">
        <ele>60.48700032</ele>
        <time>2020-06-14T13:12:01.000Z</time>
      </trkpt>
      <trkpt lat="43.63505" lon="3.81497">
        <ele>60.58700032</ele>
        <time>2020-06-14T13:12:02.000Z</time>
      </trkpt>
      <trkpt lat="43.63507" lon="3.81497">
        <ele>60.68700032</ele>
        <time>2020-06-14T13:12:03.000Z</time>
      </trkpt>
      <trkpt lat="43.63509" lon="3.81497">
        <ele>60.78700032</ele>
        <time>2020-06-14T13:12:04.000Z</time>
      </trkpt>
      <trkpt lat="43.63511" lon="3.81497">
        <ele>60.88700032</ele>
        <time>2020-06-14T13:12:05.000Z</time>
      </trkpt>
      <trkpt lat="43.63513" lon="3.81497">
        <ele>60.98700032</ele>
        <time>2020-06-14T13:12:06.000Z</time>
      </trkpt>
      <trkpt lat="43.63515" lon="3.81497">
        <ele>61.08700032</ele>
        <time>2020-06-14T13:12:07.000Z</time>
      </trkpt>
      <trkpt lat="43.63517" lon="3.81497">
        <ele>61.18700032</ele>
        <time>2020-06-14T13:12:08.000Z</time>
      </trkpt>
      <trkpt lat="43.63519" lon="3.81497">
        <ele>61.28700032</ele>
        <time>2020-06-14T13:12:09.000Z</time>
      </trkpt>
      <trkpt lat="43.63521" lon="3.81497">
        <ele>61.38700032</ele>
        <time>2020-06-14T13:12:10.000Z</time>
      </trkpt>
      <trkpt lat="43.63523" lon="3.81497">
        <ele>61.48700032</ele>
        <time>2020-06-14T13:12:11.000Z</time>
      </trkpt>
      <trkpt lat="43.63525" lon="3.81498">
        <ele>61.58700032</ele>
        <time>2020-06-14T13:12:12.000Z</time>
      </trkpt>
      <trkpt lat="43.63527" lon="3.81499">
        <ele>61.68700032</ele>
        <time>2020-06-14T13:12:13.000Z</time>
      </trkpt>
      <trkpt lat="43.63529" lon="3.81499">
        <ele>61.78700032</ele>
        <time>2020-06-14T13:12:14.000Z</time>
      </trkpt>
      <trkpt lat="43.63531" lon="3.815">
        <ele>61.88700032</ele>
        <time>2020-06-14T13:12:15.000Z</time>
      </trkpt>
      <trkpt lat="43.63532" lon="3.81501">
        <ele>61.98700032</ele>
        <time>2020-06-14T13:12:16.000Z</time>
      </trkpt>
      <trkpt lat="43.63534" lon="3.81502">
        <ele>62.08630984127</ele>
        <time>2020-06-14T13:12:17.000Z</time>
      </trkpt>
      <trkpt lat="43.63536" lon="3.81502">
        <ele>62.185516190476</ele>
        <time>2020-06-14T13:12:18.000Z</time>
      </trkpt>
      <trkpt lat="43.63538" lon="3.81502">
        <ele>62.284722539682</ele>
        <time>2020-06-14T13:12:19.000Z</time>
      </trkpt>
      <trkpt lat="43.6354" lon="3.81503">
        <ele>62.383928888889</ele>
        <time>2020-06-14T13:12:20.000Z</time>
      </trkpt>
      <trkpt lat="43.63542" lon="3.81503">
        <ele>62.483135238095</ele>
        <time>2020-06-14T13:12:21.000Z</time>
      </trkpt>
      <trkpt lat="43.63544" lon="3.81504">
        <ele>62.582341587302</ele>
        <time>2020-06-14T13:12:22.000Z</time>
      </trkpt>
      <trkpt lat="43.63546" lon="3.81504">
        <ele>62.681547936508</ele>
        <time>2020-06-14T13:12:23.000Z</time>
      </trkpt>
      <trkpt lat="43.63548" lon="3.81504">
        <ele>62.780754285714</ele>
        <time>2020-06-14T13:12:24.000Z</time>
      </trkpt>
      <trkpt lat="43.6355" lon="3.81505">
        <ele>62.879960634921</ele>
        <time>2020-06-14T13:12:25.000Z</time>
      </trkpt>
      <trkpt lat="43.63553" lon="3.81506">
        <ele>63.079637419355</ele>
        <time>2020-06-14T13:12:27.000Z</time>
      </trkpt>
      <trkpt lat="43.63555" lon="3.81507">
        <ele>63.180443870968</ele>
        <time>2020-06-14T13:12:28.000Z</time>
      </trkpt>
      <trkpt lat="43.63558" lon="3.81508">
        <ele>63.382056774194</ele>
        <time>2020-06-14T13:12:30.000Z</time>
      </trkpt>
      <trkpt lat="43.6356" lon="3.81508">
        <ele>63.482863225806</ele>
        <time>2020-06-14T13:12:31.000Z</time>
      </trkpt>
      <trkpt lat="43.63562" lon="3.81508">
        <ele>63.583669677419</ele>
        <time>2020-06-14T13:12:32.000Z</time>
      </trkpt>
      <trkpt lat="43.63564" lon="3.81509">
        <ele>63.684476129032</ele>
        <time>2020-06-14T13:12:33.000Z</time>
      </trkpt>
      <trkpt lat="43.63566" lon="3.8151">
        <ele>63.785282580645</ele>
        <time>2020-06-14T13:12:34.000Z</time>
      </trkpt>
      <trkpt lat="43.63569" lon="3.81512">
        <ele>63.886089032258</ele>
        <time>2020-06-14T13:12:35.000Z</time>
      </trkpt>
      <trkpt lat="43.63571" lon="3.81513">
        <ele>63.986895483871</ele>
        <time>2020-06-14T13:12:36.000Z</time>
      </trkpt>
      <trkpt lat="43.63573" lon="3.81515">
        <ele>64.08700032</ele>
        <time>2020-06-14T13:12:37.000Z</time>
      </trkpt>
      <trkpt lat="43.63575" lon="3.81516">
        <ele>64.18700032</ele>
        <time>2020-06-14T13:12:38.000Z</time>
      </trkpt>
      <trkpt lat="43.63577" lon="3.81517">
        <ele>64.28700032</ele>
        <time>2020-06-14T13:12:39.000Z</time>
      </trkpt>
      <trkpt lat="43.6358" lon="3.81518">
        <ele>64.38700032</ele>
        <time>2020-06-14T13:12:40.000Z</time>
      </trkpt>
      <trkpt lat="43.63582" lon="3.8152">
        <ele>64.48700032</ele>
        <time>2020-06-14T13:12:41.000Z</time>
      </trkpt>
      <trkpt lat="43.63584" lon="3.81522">
        <ele>64.58700032</ele>
        <time>2020-06-14T13:12:42.000Z</time>
      </trkpt>
      <trkpt lat="43.63585" lon="3.81525">
        <ele>64.68700032</ele>
        <time>2020-06-14T13:12:43.000Z</time>
      </trkpt>
      <trkpt lat="43.63587" lon="3.81527">
        <ele>64.78700032</ele>
        <time>2020-06-14T13:12:44.000Z</time>
      </trkpt>
      <trkpt lat="43.63589" lon="3.81529">
        <ele>64.88700032</ele>
        <time>2020-06-14T13:12:45.000Z</time>
      </trkpt>
      <trkpt lat="43.6359" lon="3.81531">
        <ele>64.98700032</ele>
        <time>2020-06-14T13:12:46.000Z</time>
      </trkpt>
      <trkpt lat="43.63592" lon="3.81533">
        <ele>65.08700032</ele>
        <time>2020-06-14T13:12:47.000Z</time>
      </trkpt>
      <trkpt lat="43.63594" lon="3.81536">
        <ele>65.18700032</ele>
        <time>2020-06-14T13:12:48.000Z</time>
      </trkpt>
      <trkpt lat="43.63595" lon="3.81538">
        <ele>65.28700032</ele>
        <time>2020-06-14T13:12:49.000Z</time>
      </trkpt>
      <trkpt lat="43.63597" lon="3.81539">
        <ele>65.38700032</ele>
        <time>2020-06-14T13:12:50.000Z</time>
      </trkpt>
      <trkpt lat="43.63599" lon="3.81541">
        <ele>65.48700032</ele>
        <time>2020-06-14T13:12:51.000Z</time>
      </trkpt>
      <trkpt lat="43.63601" lon="3.81543">
        <ele>65.58700032</ele>
        <time>2020-06-14T13:12:52.000Z</time>
      </trkpt>
      <trkpt lat="43.63603" lon="3.81545">
        <ele>65.68700032</ele>
        <time>2020-06-14T13:12:53.000Z</time>
      </trkpt>
      <trkpt lat="43.63604" lon="3.81547">
        <ele>65.78700032</ele>
        <time>2020-06-14T13:12:54.000Z</time>
      </trkpt>
      <trkpt lat="43.63606" lon="3.81548">
        <ele>65.88700032</ele>
        <time>2020-06-14T13:12:55.000Z</time>
      </trkpt>
      <trkpt lat="43.63609" lon="3.8155">
        <ele>66.084548442231</ele>
        <time>2020-06-14T13:12:57.000Z</time>
      </trkpt>
      <trkpt lat="43.63613" lon="3.81552">
        <ele>66.278911962344</ele>
        <time>2020-06-14T13:12:59.000Z</time>
      </trkpt>
      <trkpt lat="43.63614" lon="3.81553">
        <ele>66.3760937224</ele>
        <time>2020-06-14T13:13:00.000Z</time>
      </trkpt>
      <trkpt lat="43.63616" lon="3.81554">
        <ele>66.473275482457</ele>
        <time>2020-06-14T13:13:01.000Z</time>
      </trkpt>
      <trkpt lat="43.63618" lon="3.81554">
        <ele>66.570457242513</ele>
        <time>2020-06-14T13:13:02.000Z</time>
      </trkpt>
      <trkpt lat="43.6362" lon="3.81556">
        <ele>66.66763900257</ele>
        <time>2020-06-14T13:13:03.000Z</time>
      </trkpt>
      <trkpt lat="43.63621" lon="3.81558">
        <ele>66.764820762626</ele>
        <time>2020-06-14T13:13:04.000Z</time>
      </trkpt>
      <trkpt lat="43.63625" lon="3.81561">
        <ele>66.959184282739</ele>
        <time>2020-06-14T13:13:06.000Z</time>
      </trkpt>
      <trkpt lat="43.63628" lon="3.81563">
        <ele>67.119465748477</ele>
        <time>2020-06-14T13:13:07.000Z</time>
      </trkpt>
      <trkpt lat="43.63631" lon="3.81564">
        <ele>67.325438904078</ele>
        <time>2020-06-14T13:13:08.000Z</time>
      </trkpt>
      <trkpt lat="43.63634" lon="3.81565">
        <ele>67.531412059679</ele>
        <time>2020-06-14T13:13:09.000Z</time>
      </trkpt>
      <trkpt lat="43.63636" lon="3.81567">
        <ele>67.73738521528</ele>
        <time>2020-06-14T13:13:10.000Z</time>
      </trkpt>
      <trkpt lat="43.63638" lon="3.81569">
        <ele>67.943358370881</ele>
        <time>2020-06-14T13:13:11.000Z</time>
      </trkpt>
      <trkpt lat="43.6364" lon="3.81571">
        <ele>68.149331526482</ele>
        <time>2020-06-14T13:13:12.000Z</time>
      </trkpt>
      <trkpt lat="43.63642" lon="3.81572">
        <ele>68.355304682083</ele>
        <time>2020-06-14T13:13:13.000Z</time>
      </trkpt>
      <trkpt lat="43.63643" lon="3.81573">
        <ele>68.561277837684</ele>
        <time>2020-06-14T13:13:14.000Z</time>
      </trkpt>
      <trkpt lat="43.63646" lon="3.81576">
        <ele>68.973224148886</ele>
        <time>2020-06-14T13:13:16.000Z</time>
      </trkpt>
      <trkpt lat="43.63649" lon="3.81579">
        <ele>69.18700032</ele>
        <time>2020-06-14T13:13:18.000Z</time>
      </trkpt>
      <trkpt lat="43.63651" lon="3.81581">
        <ele>69.28700032</ele>
        <time>2020-06-14T13:13:19.000Z</time>
      </trkpt>
      <trkpt lat="43.63653" lon="3.81582">
        <ele>69.38700032</ele>
        <time>2020-06-14T13:13:20.000Z</time>
      </trkpt>
      <trkpt lat="43.63654" lon="3.81584">
        <ele>69.48700032</ele>
        <time>2020-06-14T13:13:21.000Z</time>
      </trkpt>
      <trkpt lat="43.63656" lon="3.81586">
        <ele>69.58700032</ele>
        <time>2020-06-14T13:13:22.000Z</time>
      </trkpt>
      <trkpt lat="43.63657" lon="3.81588">
        <ele>69.68700032</ele>
        <time>2020-06-14T13:13:23.000Z</time>
      </trkpt>
      <trkpt lat="43.63658" lon="3.8159">
        <ele>69.78700032</ele>
        <time>2020-06-14T13:13:24.000Z</time>
      </trkpt>
      <trkpt lat="43.6366" lon="3.81592">
        <ele>69.98700032</ele>
        <time>2020-06-14T13:13:26.000Z</time>
      </trkpt>
      <trkpt lat="43.63662" lon="3.8159">
        <ele>70.18700032</ele>
        <time>2020-06-14T13:13:28.000Z</time>
      </trkpt>
      <trkpt lat="43.63661" lon="3.81586">
        <ele>70.38700032</ele>
        <time>2020-06-14T13:13:30.000Z</time>
      </trkpt>
      <trkpt lat="43.6366" lon="3.81584">
        <ele>70.48700032</ele>
        <time>2020-06-14T13:13:31.000Z</time>
      </trkpt>
      <trkpt lat="43.63659" lon="3.81582">
        <ele>70.58700032</ele>
        <time>2020-06-14T13:13:32.000Z</time>
      </trkpt>
      <trkpt lat="43.63658" lon="3.8158">
        <ele>70.68700032</ele>
        <time>2020-06-14T13:13:33.000Z</time>
      </trkpt>
      <trkpt lat="43.63657" lon="3.81578">
        <ele>70.78700032</ele>
        <time>2020-06-14T13:13:34.000Z</time>
      </trkpt>
      <trkpt lat="43.63655" lon="3.81574">
        <ele>70.98700032</ele>
        <time>2020-06-14T13:13:36.000Z</time>
      </trkpt>
      <trkpt lat="43.63654" lon="3.8157">
        <ele>71.203482323053</ele>
        <time>2020-06-14T13:13:38.000Z</time>
      </trkpt>
      <trkpt lat="43.63655" lon="3.81567">
        <ele>71.42111010364</ele>
        <time>2020-06-14T13:13:40.000Z</time>
      </trkpt>
      <trkpt lat="43.63656" lon="3.81566">
        <ele>71.638737884226</ele>
        <time>2020-06-14T13:13:42.000Z</time>
      </trkpt>
      <trkpt lat="43.63657" lon="3.81566">
        <ele>71.965179555106</ele>
        <time>2020-06-14T13:13:45.000Z</time>
      </trkpt>
      <trkpt lat="43.63654" lon="3.81562">
        <ele>73.032839322034</ele>
        <time>2020-06-14T13:13:53.000Z</time>
      </trkpt>
      <trkpt lat="43.63653" lon="3.81561">
        <ele>73.244703728814</ele>
        <time>2020-06-14T13:13:55.000Z</time>
      </trkpt>
      <trkpt lat="43.63651" lon="3.81559">
        <ele>73.456568135593</ele>
        <time>2020-06-14T13:13:57.000Z</time>
      </trkpt>
      <trkpt lat="43.6365" lon="3.81557">
        <ele>73.668432542373</ele>
        <time>2020-06-14T13:13:59.000Z</time>
      </trkpt>
      <trkpt lat="43.63652" lon="3.81556">
        <ele>73.986229152542</ele>
        <time>2020-06-14T13:14:02.000Z</time>
      </trkpt>
      <trkpt lat="43.63655" lon="3.81555">
        <ele>74.557823924688</ele>
        <time>2020-06-14T13:14:05.000Z</time>
      </trkpt>
      <trkpt lat="43.63657" lon="3.81555">
        <ele>74.946550964914</ele>
        <time>2020-06-14T13:14:07.000Z</time>
      </trkpt>
      <trkpt lat="43.63659" lon="3.81554">
        <ele>75.529641525253</ele>
        <time>2020-06-14T13:14:10.000Z</time>
      </trkpt>
      <trkpt lat="43.63661" lon="3.81553">
        <ele>76.119465748477</ele>
        <time>2020-06-14T13:14:13.000Z</time>
      </trkpt>
      <trkpt lat="43.63663" lon="3.81551">
        <ele>76.73738521528</ele>
        <time>2020-06-14T13:14:16.000Z</time>
      </trkpt>
      <trkpt lat="43.63666" lon="3.81551">
        <ele>77.355304682083</ele>
        <time>2020-06-14T13:14:19.000Z</time>
      </trkpt>
      <trkpt lat="43.63668" lon="3.81551">
        <ele>78.37400064</ele>
        <time>2020-06-14T13:14:24.000Z</time>
      </trkpt>
      <trkpt lat="43.6367" lon="3.81553">
        <ele>78.77400064</ele>
        <time>2020-06-14T13:14:26.000Z</time>
      </trkpt>
      <trkpt lat="43.63673" lon="3.81554">
        <ele>79.17400064</ele>
        <time>2020-06-14T13:14:28.000Z</time>
      </trkpt>
      <trkpt lat="43.63675" lon="3.81555">
        <ele>79.37400064</ele>
        <time>2020-06-14T13:14:29.000Z</time>
      </trkpt>
      <trkpt lat="43.63677" lon="3.81556">
        <ele>79.57400064</ele>
        <time>2020-06-14T13:14:30.000Z</time>
      </trkpt>
      <trkpt lat="43.63679" lon="3.81556">
        <ele>79.77400064</ele>
        <time>2020-06-14T13:14:31.000Z</time>
      </trkpt>
      <trkpt lat="43.6368" lon="3.81557">
        <ele>79.97400064</ele>
        <time>2020-06-14T13:14:32.000Z</time>
      </trkpt>
      <trkpt lat="43.63682" lon="3.81557">
        <ele>80.17400064</ele>
        <time>2020-06-14T13:14:33.000Z</time>
      </trkpt>
      <trkpt lat="43.63684" lon="3.81558">
        <ele>80.37400064</ele>
        <time>2020-06-14T13:14:34.000Z</time>
      </trkpt>
      <trkpt lat="43.63686" lon="3.81558">
        <ele>80.57400064</ele>
        <time>2020-06-14T13:14:35.000Z</time>
      </trkpt>
      <trkpt lat="43.63689" lon="3.81557">
        <ele>80.77400064</ele>
        <time>2020-06-14T13:14:36.000Z</time>
      </trkpt>
      <trkpt lat="43.6369" lon="3.81557">
        <ele>80.97400064</ele>
        <time>2020-06-14T13:14:37.000Z</time>
      </trkpt>
      <trkpt lat="43.63692" lon="3.81557">
        <ele>81.17400064</ele>
        <time>2020-06-14T13:14:38.000Z</time>
      </trkpt>
      <trkpt lat="43.63694" lon="3.81557">
        <ele>81.37400064</ele>
        <time>2020-06-14T13:14:39.000Z</time>
      </trkpt>
      <trkpt lat="43.63697" lon="3.81558">
        <ele>81.77400064</ele>
        <time>2020-06-14T13:14:41.000Z</time>
      </trkpt>
      <trkpt lat="43.63701" lon="3.81558">
        <ele>82.08700032</ele>
        <time>2020-06-14T13:14:43.000Z</time>
      </trkpt>
      <trkpt lat="43.63704" lon="3.81559">
        <ele>82.28700032</ele>
        <time>2020-06-14T13:14:45.000Z</time>
      </trkpt>
      <trkpt lat="43.63706" lon="3.81559">
        <ele>82.38700032</ele>
        <time>2020-06-14T13:14:46.000Z</time>
      </trkpt>
      <trkpt lat="43.63709" lon="3.81559">
        <ele>82.58700032</ele>
        <time>2020-06-14T13:14:48.000Z</time>
      </trkpt>
      <trkpt lat="43.63712" lon="3.8156">
        <ele>82.78700032</ele>
        <time>2020-06-14T13:14:50.000Z</time>
      </trkpt>
      <trkpt lat="43.63715" lon="3.8156">
        <ele>82.98700032</ele>
        <time>2020-06-14T13:14:52.000Z</time>
      </trkpt>
      <trkpt lat="43.63718" lon="3.81561">
        <ele>83.37400064</ele>
        <time>2020-06-14T13:14:54.000Z</time>
      </trkpt>
      <trkpt lat="43.63721" lon="3.81561">
        <ele>83.77400064</ele>
        <time>2020-06-14T13:14:56.000Z</time>
      </trkpt>
      <trkpt lat="43.63724" lon="3.81559">
        <ele>84.17400064</ele>
        <time>2020-06-14T13:14:58.000Z</time>
      </trkpt>
      <trkpt lat="43.63726" lon="3.81557">
        <ele>84.37400064</ele>
        <time>2020-06-14T13:14:59.000Z</time>
      </trkpt>
      <trkpt lat="43.63727" lon="3.81554">
        <ele>84.57400064</ele>
        <time>2020-06-14T13:15:00.000Z</time>
      </trkpt>
      <trkpt lat="43.63729" lon="3.81552">
        <ele>84.77400064</ele>
        <time>2020-06-14T13:15:01.000Z</time>
      </trkpt>
      <trkpt lat="43.63731" lon="3.8155">
        <ele>85.26100096</ele>
        <time>2020-06-14T13:15:03.000Z</time>
      </trkpt>
      <trkpt lat="43.63734" lon="3.81549">
        <ele>85.86100096</ele>
        <time>2020-06-14T13:15:05.000Z</time>
      </trkpt>
      <trkpt lat="43.63736" lon="3.81549">
        <ele>86.46100096</ele>
        <time>2020-06-14T13:15:07.000Z</time>
      </trkpt>
      <trkpt lat="43.63738" lon="3.81549">
        <ele>87.06100096</ele>
        <time>2020-06-14T13:15:09.000Z</time>
      </trkpt>
      <trkpt lat="43.63741" lon="3.81549">
        <ele>87.66100096</ele>
        <time>2020-06-14T13:15:11.000Z</time>
      </trkpt>
      <trkpt lat="43.63744" lon="3.81548">
        <ele>88.26100096</ele>
        <time>2020-06-14T13:15:13.000Z</time>
      </trkpt>
      <trkpt lat="43.63747" lon="3.81547">
        <ele>88.86100096</ele>
        <time>2020-06-14T13:15:15.000Z</time>
      </trkpt>
      <trkpt lat="43.63749" lon="3.81544">
        <ele>89.46100096</ele>
        <time>2020-06-14T13:15:17.000Z</time>
      </trkpt>
      <trkpt lat="43.63751" lon="3.81542">
        <ele>90.06100096</ele>
        <time>2020-06-14T13:15:19.000Z</time>
      </trkpt>
      <trkpt lat="43.63752" lon="3.81541">
        <ele>91.002781641168</ele>
        <time>2020-06-14T13:15:24.000Z</time>
      </trkpt>
      <trkpt lat="43.6375" lon="3.81536">
        <ele>91.976356050069</ele>
        <time>2020-06-14T13:15:52.000Z</time>
      </trkpt>
      <trkpt lat="43.63748" lon="3.81534">
        <ele>92.489407457627</ele>
        <time>2020-06-14T13:15:55.000Z</time>
      </trkpt>
      <trkpt lat="43.63746" lon="3.81531">
        <ele>93.125000677966</ele>
        <time>2020-06-14T13:15:58.000Z</time>
      </trkpt>
      <trkpt lat="43.63745" lon="3.81529">
        <ele>93.548729491525</ele>
        <time>2020-06-14T13:16:00.000Z</time>
      </trkpt>
      <trkpt lat="43.63744" lon="3.81527">
        <ele>93.972458305085</ele>
        <time>2020-06-14T13:16:02.000Z</time>
      </trkpt>
      <trkpt lat="43.63742" lon="3.81525">
        <ele>94</ele>
        <time>2020-06-14T13:16:04.000Z</time>
      </trkpt>
      <trkpt lat="43.63741" lon="3.81522">
        <ele>94</ele>
        <time>2020-06-14T13:16:06.000Z</time>
      </trkpt>
      <trkpt lat="43.6374" lon="3.81519">
        <ele>94</ele>
        <time>2020-06-14T13:16:08.000Z</time>
      </trkpt>
      <trkpt lat="43.63739" lon="3.81515">
        <ele>94</ele>
        <time>2020-06-14T13:16:10.000Z</time>
      </trkpt>
      <trkpt lat="43.63738" lon="3.81512">
        <ele>94</ele>
        <time>2020-06-14T13:16:12.000Z</time>
      </trkpt>
      <trkpt lat="43.63737" lon="3.81509">
        <ele>94.325438904078</ele>
        <time>2020-06-14T13:16:14.000Z</time>
      </trkpt>
      <trkpt lat="43.63736" lon="3.81506">
        <ele>94.73738521528</ele>
        <time>2020-06-14T13:16:16.000Z</time>
      </trkpt>
      <trkpt lat="43.63734" lon="3.81503">
        <ele>95.149331526482</ele>
        <time>2020-06-14T13:16:18.000Z</time>
      </trkpt>
      <trkpt lat="43.63732" lon="3.815">
        <ele>95.561277837684</ele>
        <time>2020-06-14T13:16:20.000Z</time>
      </trkpt>
      <trkpt lat="43.63731" lon="3.81497">
        <ele>95.973224148886</ele>
        <time>2020-06-14T13:16:22.000Z</time>
      </trkpt>
      <trkpt lat="43.6373" lon="3.81494">
        <ele>96.199360546278</ele>
        <time>2020-06-14T13:16:24.000Z</time>
      </trkpt>
      <trkpt lat="43.63729" lon="3.81492">
        <ele>96.412580017003</ele>
        <time>2020-06-14T13:16:26.000Z</time>
      </trkpt>
      <trkpt lat="43.63729" lon="3.81489">
        <ele>96.625799487727</ele>
        <time>2020-06-14T13:16:28.000Z</time>
      </trkpt>
      <trkpt lat="43.63729" lon="3.81489">
        <ele>97.018823543585</ele>
        <time>2020-06-14T13:16:32.000Z</time>
      </trkpt>
      <trkpt lat="43.63726" lon="3.81484">
        <ele>97.960000722824</ele>
        <time>2020-06-14T13:16:40.000Z</time>
      </trkpt>
      <trkpt lat="43.63725" lon="3.81482">
        <ele>98.066461883983</ele>
        <time>2020-06-14T13:16:41.000Z</time>
      </trkpt>
      <trkpt lat="43.63723" lon="3.81478">
        <ele>98.270960995312</ele>
        <time>2020-06-14T13:16:43.000Z</time>
      </trkpt>
      <trkpt lat="43.63723" lon="3.81473">
        <ele>98.475460106641</ele>
        <time>2020-06-14T13:16:45.000Z</time>
      </trkpt>
      <trkpt lat="43.63724" lon="3.81469">
        <ele>98.679959217969</ele>
        <time>2020-06-14T13:16:47.000Z</time>
      </trkpt>
      <trkpt lat="43.63726" lon="3.81465">
        <ele>98.884458329298</ele>
        <time>2020-06-14T13:16:49.000Z</time>
      </trkpt>
      <trkpt lat="43.63727" lon="3.81464">
        <ele>98.986707884962</ele>
        <time>2020-06-14T13:16:50.000Z</time>
      </trkpt>
      <trkpt lat="43.63729" lon="3.81462">
        <ele>99.173135020302</ele>
        <time>2020-06-14T13:16:51.000Z</time>
      </trkpt>
      <trkpt lat="43.63731" lon="3.81461">
        <ele>99.372140058791</ele>
        <time>2020-06-14T13:16:52.000Z</time>
      </trkpt>
      <trkpt lat="43.63733" lon="3.8146">
        <ele>99.57114509728</ele>
        <time>2020-06-14T13:16:53.000Z</time>
      </trkpt>
      <trkpt lat="43.63735" lon="3.81459">
        <ele>99.770150135769</ele>
        <time>2020-06-14T13:16:54.000Z</time>
      </trkpt>
      <trkpt lat="43.63738" lon="3.81459">
        <ele>99.969155174258</ele>
        <time>2020-06-14T13:16:55.000Z</time>
      </trkpt>
      <trkpt lat="43.63739" lon="3.81458">
        <ele>100.16816021275</ele>
        <time>2020-06-14T13:16:56.000Z</time>
      </trkpt>
      <trkpt lat="43.63741" lon="3.81455">
        <ele>100.56617028973</ele>
        <time>2020-06-14T13:16:58.000Z</time>
      </trkpt>
      <trkpt lat="43.63742" lon="3.81455">
        <ele>101</ele>
        <time>2020-06-14T13:17:04.000Z</time>
      </trkpt>
      <trkpt lat="43.63744" lon="3.81455">
        <ele>101</ele>
        <time>2020-06-14T13:17:06.000Z</time>
      </trkpt>
      <trkpt lat="43.63746" lon="3.81457">
        <ele>101.1451098836</ele>
        <time>2020-06-14T13:17:08.000Z</time>
      </trkpt>
      <trkpt lat="43.63749" lon="3.81459">
        <ele>101.35541503806</ele>
        <time>2020-06-14T13:17:10.000Z</time>
      </trkpt>
      <trkpt lat="43.63751" lon="3.8146">
        <ele>101.46056761529</ele>
        <time>2020-06-14T13:17:11.000Z</time>
      </trkpt>
      <trkpt lat="43.63752" lon="3.81461">
        <ele>101.56572019253</ele>
        <time>2020-06-14T13:17:12.000Z</time>
      </trkpt>
      <trkpt lat="43.63754" lon="3.81463">
        <ele>101.67087276976</ele>
        <time>2020-06-14T13:17:13.000Z</time>
      </trkpt>
      <trkpt lat="43.63756" lon="3.81464">
        <ele>101.77602534699</ele>
        <time>2020-06-14T13:17:14.000Z</time>
      </trkpt>
      <trkpt lat="43.63758" lon="3.81465">
        <ele>101.88117792422</ele>
        <time>2020-06-14T13:17:15.000Z</time>
      </trkpt>
      <trkpt lat="43.6376" lon="3.81467">
        <ele>101.98633050145</ele>
        <time>2020-06-14T13:17:16.000Z</time>
      </trkpt>
      <trkpt lat="43.63762" lon="3.81469">
        <ele>102.08674007203</ele>
        <time>2020-06-14T13:17:17.000Z</time>
      </trkpt>
      <trkpt lat="43.63763" lon="3.8147">
        <ele>102.18644093753</ele>
        <time>2020-06-14T13:17:18.000Z</time>
      </trkpt>
      <trkpt lat="43.63765" lon="3.81472">
        <ele>102.28614180303</ele>
        <time>2020-06-14T13:17:19.000Z</time>
      </trkpt>
      <trkpt lat="43.63767" lon="3.81474">
        <ele>102.38584266853</ele>
        <time>2020-06-14T13:17:20.000Z</time>
      </trkpt>
      <trkpt lat="43.63769" lon="3.81476">
        <ele>102.48554353402</ele>
        <time>2020-06-14T13:17:21.000Z</time>
      </trkpt>
      <trkpt lat="43.6377" lon="3.81478">
        <ele>102.58524439952</ele>
        <time>2020-06-14T13:17:22.000Z</time>
      </trkpt>
      <trkpt lat="43.63772" lon="3.8148">
        <ele>102.68494526502</ele>
        <time>2020-06-14T13:17:23.000Z</time>
      </trkpt>
      <trkpt lat="43.63774" lon="3.81483">
        <ele>102.88434699602</ele>
        <time>2020-06-14T13:17:25.000Z</time>
      </trkpt>
      <trkpt lat="43.63777" lon="3.81485">
        <ele>103</ele>
        <time>2020-06-14T13:17:27.000Z</time>
      </trkpt>
      <trkpt lat="43.63776" lon="3.81485">
        <ele>103</ele>
        <time>2020-06-14T13:17:31.000Z</time>
      </trkpt>
      <trkpt lat="43.63782" lon="3.81485">
        <ele>103.99861658814</ele>
        <time>2020-06-14T13:21:44.000Z</time>
      </trkpt>
      <trkpt lat="43.63783" lon="3.81485">
        <ele>104</ele>
        <time>2020-06-14T13:21:45.000Z</time>
      </trkpt>
      <trkpt lat="43.63786" lon="3.81486">
        <ele>104</ele>
        <time>2020-06-14T13:21:47.000Z</time>
      </trkpt>
      <trkpt lat="43.63788" lon="3.81488">
        <ele>104</ele>
        <time>2020-06-14T13:21:49.000Z</time>
      </trkpt>
      <trkpt lat="43.6379" lon="3.81491">
        <ele>104</ele>
        <time>2020-06-14T13:21:51.000Z</time>
      </trkpt>
      <trkpt lat="43.63791" lon="3.81495">
        <ele>104</ele>
        <time>2020-06-14T13:21:53.000Z</time>
      </trkpt>
      <trkpt lat="43.63793" lon="3.81497">
        <ele>104</ele>
        <time>2020-06-14T13:21:55.000Z</time>
      </trkpt>
      <trkpt lat="43.63796" lon="3.81498">
        <ele>104</ele>
        <time>2020-06-14T13:21:57.000Z</time>
      </trkpt>
      <trkpt lat="43.63798" lon="3.815">
        <ele>104</ele>
        <time>2020-06-14T13:21:59.000Z</time>
      </trkpt>
      <trkpt lat="43.63801" lon="3.81501">
        <ele>104</ele>
        <time>2020-06-14T13:22:01.000Z</time>
      </trkpt>
      <trkpt lat="43.63805" lon="3.815">
        <ele>104</ele>
        <time>2020-06-14T13:22:03.000Z</time>
      </trkpt>
      <trkpt lat="43.63807" lon="3.815">
        <ele>104</ele>
        <time>2020-06-14T13:22:04.000Z</time>
      </trkpt>
      <trkpt lat="43.63809" lon="3.81502">
        <ele>104.08700032</ele>
        <time>2020-06-14T13:22:05.000Z</time>
      </trkpt>
      <trkpt lat="43.63811" lon="3.81503">
        <ele>104.18700032</ele>
        <time>2020-06-14T13:22:06.000Z</time>
      </trkpt>
      <trkpt lat="43.63813" lon="3.81504">
        <ele>104.28700032</ele>
        <time>2020-06-14T13:22:07.000Z</time>
      </trkpt>
      <trkpt lat="43.63815" lon="3.81505">
        <ele>104.38700032</ele>
        <time>2020-06-14T13:22:08.000Z</time>
      </trkpt>
      <trkpt lat="43.63819" lon="3.81505">
        <ele>104.58700032</ele>
        <time>2020-06-14T13:22:10.000Z</time>
      </trkpt>
      <trkpt lat="43.63822" lon="3.81503">
        <ele>104.78700032</ele>
        <time>2020-06-14T13:22:12.000Z</time>
      </trkpt>
      <trkpt lat="43.63824" lon="3.81501">
        <ele>104.98700032</ele>
        <time>2020-06-14T13:22:14.000Z</time>
      </trkpt>
      <trkpt lat="43.63827" lon="3.81499">
        <ele>105</ele>
        <time>2020-06-14T13:22:16.000Z</time>
      </trkpt>
      <trkpt lat="43.63829" lon="3.81497">
        <ele>105</ele>
        <time>2020-06-14T13:22:18.000Z</time>
      </trkpt>
      <trkpt lat="43.6383" lon="3.81493">
        <ele>105</ele>
        <time>2020-06-14T13:22:20.000Z</time>
      </trkpt>
      <trkpt lat="43.6383" lon="3.8149">
        <ele>105</ele>
        <time>2020-06-14T13:22:21.000Z</time>
      </trkpt>
      <trkpt lat="43.6383" lon="3.81488">
        <ele>105</ele>
        <time>2020-06-14T13:22:22.000Z</time>
      </trkpt>
      <trkpt lat="43.63831" lon="3.81485">
        <ele>105</ele>
        <time>2020-06-14T13:22:23.000Z</time>
      </trkpt>
      <trkpt lat="43.63832" lon="3.81482">
        <ele>105</ele>
        <time>2020-06-14T13:22:24.000Z</time>
      </trkpt>
      <trkpt lat="43.63834" lon="3.8148">
        <ele>105</ele>
        <time>2020-06-14T13:22:25.000Z</time>
      </trkpt>
      <trkpt lat="43.63836" lon="3.81478">
        <ele>105</ele>
        <time>2020-06-14T13:22:26.000Z</time>
      </trkpt>
      <trkpt lat="43.63838" lon="3.81477">
        <ele>105</ele>
        <time>2020-06-14T13:22:27.000Z</time>
      </trkpt>
      <trkpt lat="43.6384" lon="3.81476">
        <ele>105</ele>
        <time>2020-06-14T13:22:28.000Z</time>
      </trkpt>
      <trkpt lat="43.63842" lon="3.81474">
        <ele>105</ele>
        <time>2020-06-14T13:22:29.000Z</time>
      </trkpt>
      <trkpt lat="43.63843" lon="3.81472">
        <ele>105</ele>
        <time>2020-06-14T13:22:30.000Z</time>
      </trkpt>
      <trkpt lat="43.63844" lon="3.8147">
        <ele>105</ele>
        <time>2020-06-14T13:22:31.000Z</time>
      </trkpt>
      <trkpt lat="43.63846" lon="3.81467">
        <ele>105</ele>
        <time>2020-06-14T13:22:32.000Z</time>
      </trkpt>
      <trkpt lat="43.63847" lon="3.81465">
        <ele>105</ele>
        <time>2020-06-14T13:22:33.000Z</time>
      </trkpt>
      <trkpt lat="43.63848" lon="3.81462">
        <ele>105</ele>
        <time>2020-06-14T13:22:34.000Z</time>
      </trkpt>
      <trkpt lat="43.63849" lon="3.81459">
        <ele>105</ele>
        <time>2020-06-14T13:22:35.000Z</time>
      </trkpt>
      <trkpt lat="43.63851" lon="3.81456">
        <ele>105</ele>
        <time>2020-06-14T13:22:36.000Z</time>
      </trkpt>
      <trkpt lat="43.63852" lon="3.81452">
        <ele>105</ele>
        <time>2020-06-14T13:22:37.000Z</time>
      </trkpt>
      <trkpt lat="43.63853" lon="3.81449">
        <ele>105</ele>
        <time>2020-06-14T13:22:38.000Z</time>
      </trkpt>
      <trkpt lat="43.63854" lon="3.81445">
        <ele>105</ele>
        <time>2020-06-14T13:22:39.000Z</time>
      </trkpt>
      <trkpt lat="43.63855" lon="3.81441">
        <ele>105</ele>
        <time>2020-06-14T13:22:40.000Z</time>
      </trkpt>
      <trkpt lat="43.63856" lon="3.81437">
        <ele>105</ele>
        <time>2020-06-14T13:22:41.000Z</time>
      </trkpt>
      <trkpt lat="43.63856" lon="3.81434">
        <ele>105</ele>
        <time>2020-06-14T13:22:42.000Z</time>
      </trkpt>
      <trkpt lat="43.63857" lon="3.8143">
        <ele>105</ele>
        <time>2020-06-14T13:22:43.000Z</time>
      </trkpt>
      <trkpt lat="43.63858" lon="3.81426">
        <ele>105</ele>
        <time>2020-06-14T13:22:44.000Z</time>
      </trkpt>
      <trkpt lat="43.63858" lon="3.81423">
        <ele>105.08608552817</ele>
        <time>2020-06-14T13:22:45.000Z</time>
      </trkpt>
      <trkpt lat="43.63859" lon="3.81419">
        <ele>105.18618572446</ele>
        <time>2020-06-14T13:22:46.000Z</time>
      </trkpt>
      <trkpt lat="43.63859" lon="3.81415">
        <ele>105.28628592076</ele>
        <time>2020-06-14T13:22:47.000Z</time>
      </trkpt>
      <trkpt lat="43.6386" lon="3.81411">
        <ele>105.38638611705</ele>
        <time>2020-06-14T13:22:48.000Z</time>
      </trkpt>
      <trkpt lat="43.63862" lon="3.81407">
        <ele>105.48648631334</ele>
        <time>2020-06-14T13:22:49.000Z</time>
      </trkpt>
      <trkpt lat="43.63863" lon="3.81403">
        <ele>105.58658650963</ele>
        <time>2020-06-14T13:22:50.000Z</time>
      </trkpt>
      <trkpt lat="43.63864" lon="3.81399">
        <ele>105.68668670592</ele>
        <time>2020-06-14T13:22:51.000Z</time>
      </trkpt>
      <trkpt lat="43.63865" lon="3.81395">
        <ele>105.78678690222</ele>
        <time>2020-06-14T13:22:52.000Z</time>
      </trkpt>
      <trkpt lat="43.63866" lon="3.81391">
        <ele>105.88688709851</ele>
        <time>2020-06-14T13:22:53.000Z</time>
      </trkpt>
      <trkpt lat="43.63868" lon="3.81388">
        <ele>105.9869872948</ele>
        <time>2020-06-14T13:22:54.000Z</time>
      </trkpt>
      <trkpt lat="43.63869" lon="3.81384">
        <ele>106.08700032</ele>
        <time>2020-06-14T13:22:55.000Z</time>
      </trkpt>
      <trkpt lat="43.63871" lon="3.81381">
        <ele>106.18700032</ele>
        <time>2020-06-14T13:22:56.000Z</time>
      </trkpt>
      <trkpt lat="43.63873" lon="3.81378">
        <ele>106.28700032</ele>
        <time>2020-06-14T13:22:57.000Z</time>
      </trkpt>
      <trkpt lat="43.63876" lon="3.81375">
        <ele>106.38700032</ele>
        <time>2020-06-14T13:22:58.000Z</time>
      </trkpt>
      <trkpt lat="43.63878" lon="3.81373">
        <ele>106.48700032</ele>
        <time>2020-06-14T13:22:59.000Z</time>
      </trkpt>
      <trkpt lat="43.6388" lon="3.8137">
        <ele>106.58700032</ele>
        <time>2020-06-14T13:23:00.000Z</time>
      </trkpt>
      <trkpt lat="43.63882" lon="3.81368">
        <ele>106.68700032</ele>
        <time>2020-06-14T13:23:01.000Z</time>
      </trkpt>
      <trkpt lat="43.63885" lon="3.81365">
        <ele>106.78700032</ele>
        <time>2020-06-14T13:23:02.000Z</time>
      </trkpt>
      <trkpt lat="43.63887" lon="3.81364">
        <ele>106.88700032</ele>
        <time>2020-06-14T13:23:03.000Z</time>
      </trkpt>
      <trkpt lat="43.6389" lon="3.81362">
        <ele>106.98700032</ele>
        <time>2020-06-14T13:23:04.000Z</time>
      </trkpt>
      <trkpt lat="43.63892" lon="3.8136">
        <ele>107.08691332324</ele>
        <time>2020-06-14T13:23:05.000Z</time>
      </trkpt>
      <trkpt lat="43.63895" lon="3.81359">
        <ele>107.18681332733</ele>
        <time>2020-06-14T13:23:06.000Z</time>
      </trkpt>
      <trkpt lat="43.63898" lon="3.81357">
        <ele>107.28671333142</ele>
        <time>2020-06-14T13:23:07.000Z</time>
      </trkpt>
      <trkpt lat="43.639" lon="3.81356">
        <ele>107.38661333552</ele>
        <time>2020-06-14T13:23:08.000Z</time>
      </trkpt>
      <trkpt lat="43.63903" lon="3.81356">
        <ele>107.48651333961</ele>
        <time>2020-06-14T13:23:09.000Z</time>
      </trkpt>
      <trkpt lat="43.63906" lon="3.81355">
        <ele>107.5864133437</ele>
        <time>2020-06-14T13:23:10.000Z</time>
      </trkpt>
      <trkpt lat="43.63909" lon="3.81354">
        <ele>107.68631334779</ele>
        <time>2020-06-14T13:23:11.000Z</time>
      </trkpt>
      <trkpt lat="43.63912" lon="3.81354">
        <ele>107.78621335188</ele>
        <time>2020-06-14T13:23:12.000Z</time>
      </trkpt>
      <trkpt lat="43.63915" lon="3.81354">
        <ele>107.88611335597</ele>
        <time>2020-06-14T13:23:13.000Z</time>
      </trkpt>
      <trkpt lat="43.63918" lon="3.81354">
        <ele>107.98601336007</ele>
        <time>2020-06-14T13:23:14.000Z</time>
      </trkpt>
      <trkpt lat="43.63921" lon="3.81355">
        <ele>108</ele>
        <time>2020-06-14T13:23:15.000Z</time>
      </trkpt>
      <trkpt lat="43.63924" lon="3.81356">
        <ele>108</ele>
        <time>2020-06-14T13:23:16.000Z</time>
      </trkpt>
      <trkpt lat="43.63927" lon="3.81356">
        <ele>108</ele>
        <time>2020-06-14T13:23:17.000Z</time>
      </trkpt>
      <trkpt lat="43.6393" lon="3.81358">
        <ele>108</ele>
        <time>2020-06-14T13:23:18.000Z</time>
      </trkpt>
      <trkpt lat="43.63934" lon="3.81359">
        <ele>108</ele>
        <time>2020-06-14T13:23:19.000Z</time>
      </trkpt>
      <trkpt lat="43.63937" lon="3.8136">
        <ele>108</ele>
        <time>2020-06-14T13:23:20.000Z</time>
      </trkpt>
      <trkpt lat="43.6394" lon="3.81362">
        <ele>108</ele>
        <time>2020-06-14T13:23:21.000Z</time>
      </trkpt>
      <trkpt lat="43.63944" lon="3.81364">
        <ele>108</ele>
        <time>2020-06-14T13:23:22.000Z</time>
      </trkpt>
      <trkpt lat="43.63948" lon="3.81366">
        <ele>108</ele>
        <time>2020-06-14T13:23:23.000Z</time>
      </trkpt>
      <trkpt lat="43.63951" lon="3.81368">
        <ele>108</ele>
        <time>2020-06-14T13:23:24.000Z</time>
      </trkpt>
      <trkpt lat="43.63955" lon="3.81371">
        <ele>107.91417224059</ele>
        <time>2020-06-14T13:23:25.000Z</time>
      </trkpt>
      <trkpt lat="43.63959" lon="3.81373">
        <ele>107.81437177764</ele>
        <time>2020-06-14T13:23:26.000Z</time>
      </trkpt>
      <trkpt lat="43.63963" lon="3.81376">
        <ele>107.7145713147</ele>
        <time>2020-06-14T13:23:27.000Z</time>
      </trkpt>
      <trkpt lat="43.63967" lon="3.81378">
        <ele>107.61477085175</ele>
        <time>2020-06-14T13:23:28.000Z</time>
      </trkpt>
      <trkpt lat="43.63971" lon="3.8138">
        <ele>107.5149703888</ele>
        <time>2020-06-14T13:23:29.000Z</time>
      </trkpt>
      <trkpt lat="43.63975" lon="3.81382">
        <ele>107.41516992586</ele>
        <time>2020-06-14T13:23:30.000Z</time>
      </trkpt>
      <trkpt lat="43.63979" lon="3.81384">
        <ele>107.31536946291</ele>
        <time>2020-06-14T13:23:31.000Z</time>
      </trkpt>
      <trkpt lat="43.63982" lon="3.81385">
        <ele>107.21556899996</ele>
        <time>2020-06-14T13:23:32.000Z</time>
      </trkpt>
      <trkpt lat="43.63986" lon="3.81386">
        <ele>107.11576853702</ele>
        <time>2020-06-14T13:23:33.000Z</time>
      </trkpt>
      <trkpt lat="43.6399" lon="3.81388">
        <ele>107.01596807407</ele>
        <time>2020-06-14T13:23:34.000Z</time>
      </trkpt>
      <trkpt lat="43.63993" lon="3.81389">
        <ele>107</ele>
        <time>2020-06-14T13:23:35.000Z</time>
      </trkpt>
      <trkpt lat="43.63997" lon="3.8139">
        <ele>107</ele>
        <time>2020-06-14T13:23:36.000Z</time>
      </trkpt>
      <trkpt lat="43.64001" lon="3.81391">
        <ele>107</ele>
        <time>2020-06-14T13:23:37.000Z</time>
      </trkpt>
      <trkpt lat="43.64005" lon="3.81392">
        <ele>107</ele>
        <time>2020-06-14T13:23:38.000Z</time>
      </trkpt>
      <trkpt lat="43.64008" lon="3.81392">
        <ele>107</ele>
        <time>2020-06-14T13:23:39.000Z</time>
      </trkpt>
      <trkpt lat="43.64012" lon="3.81393">
        <ele>107</ele>
        <time>2020-06-14T13:23:40.000Z</time>
      </trkpt>
      <trkpt lat="43.64016" lon="3.81393">
        <ele>107</ele>
        <time>2020-06-14T13:23:41.000Z</time>
      </trkpt>
      <trkpt lat="43.6402" lon="3.81393">
        <ele>107</ele>
        <time>2020-06-14T13:23:42.000Z</time>
      </trkpt>
      <trkpt lat="43.64024" lon="3.81393">
        <ele>107</ele>
        <time>2020-06-14T13:23:43.000Z</time>
      </trkpt>
      <trkpt lat="43.64028" lon="3.81393">
        <ele>107</ele>
        <time>2020-06-14T13:23:44.000Z</time>
      </trkpt>
      <trkpt lat="43.64031" lon="3.81393">
        <ele>107</ele>
        <time>2020-06-14T13:23:45.000Z</time>
      </trkpt>
      <trkpt lat="43.64035" lon="3.81393">
        <ele>107</ele>
        <time>2020-06-14T13:23:46.000Z</time>
      </trkpt>
      <trkpt lat="43.64039" lon="3.81393">
        <ele>107</ele>
        <time>2020-06-14T13:23:47.000Z</time>
      </trkpt>
      <trkpt lat="43.64043" lon="3.81392">
        <ele>107</ele>
        <time>2020-06-14T13:23:48.000Z</time>
      </trkpt>
      <trkpt lat="43.64047" lon="3.81392">
        <ele>107</ele>
        <time>2020-06-14T13:23:49.000Z</time>
      </trkpt>
      <trkpt lat="43.6405" lon="3.81391">
        <ele>107</ele>
        <time>2020-06-14T13:23:50.000Z</time>
      </trkpt>
      <trkpt lat="43.64054" lon="3.8139">
        <ele>107</ele>
        <time>2020-06-14T13:23:51.000Z</time>
      </trkpt>
      <trkpt lat="43.64057" lon="3.81389">
        <ele>107</ele>
        <time>2020-06-14T13:23:52.000Z</time>
      </trkpt>
      <trkpt lat="43.64061" lon="3.81389">
        <ele>107</ele>
        <time>2020-06-14T13:23:53.000Z</time>
      </trkpt>
      <trkpt lat="43.64064" lon="3.81388">
        <ele>107</ele>
        <time>2020-06-14T13:23:54.000Z</time>
      </trkpt>
      <trkpt lat="43.64067" lon="3.81388">
        <ele>107</ele>
        <time>2020-06-14T13:23:55.000Z</time>
      </trkpt>
      <trkpt lat="43.64071" lon="3.81388">
        <ele>107</ele>
        <time>2020-06-14T13:23:56.000Z</time>
      </trkpt>
      <trkpt lat="43.64074" lon="3.81388">
        <ele>107</ele>
        <time>2020-06-14T13:23:57.000Z</time>
      </trkpt>
      <trkpt lat="43.64078" lon="3.81388">
        <ele>107</ele>
        <time>2020-06-14T13:23:58.000Z</time>
      </trkpt>
      <trkpt lat="43.64081" lon="3.81388">
        <ele>107</ele>
        <time>2020-06-14T13:23:59.000Z</time>
      </trkpt>
      <trkpt lat="43.64085" lon="3.81388">
        <ele>107</ele>
        <time>2020-06-14T13:24:00.000Z</time>
      </trkpt>
      <trkpt lat="43.64088" lon="3.8139">
        <ele>107</ele>
        <time>2020-06-14T13:24:01.000Z</time>
      </trkpt>
      <trkpt lat="43.64092" lon="3.81393">
        <ele>107</ele>
        <time>2020-06-14T13:24:02.000Z</time>
      </trkpt>
      <trkpt lat="43.64096" lon="3.81397">
        <ele>107</ele>
        <time>2020-06-14T13:24:03.000Z</time>
      </trkpt>
      <trkpt lat="43.64099" lon="3.81401">
        <ele>107</ele>
        <time>2020-06-14T13:24:04.000Z</time>
      </trkpt>
      <trkpt lat="43.64103" lon="3.81406">
        <ele>107</ele>
        <time>2020-06-14T13:24:05.000Z</time>
      </trkpt>
      <trkpt lat="43.64106" lon="3.81411">
        <ele>107</ele>
        <time>2020-06-14T13:24:06.000Z</time>
      </trkpt>
      <trkpt lat="43.64109" lon="3.81416">
        <ele>107</ele>
        <time>2020-06-14T13:24:07.000Z</time>
      </trkpt>
      <trkpt lat="43.64112" lon="3.81421">
        <ele>107</ele>
        <time>2020-06-14T13:24:08.000Z</time>
      </trkpt>
      <trkpt lat="43.64115" lon="3.81426">
        <ele>107</ele>
        <time>2020-06-14T13:24:09.000Z</time>
      </trkpt>
      <trkpt lat="43.64118" lon="3.81431">
        <ele>107</ele>
        <time>2020-06-14T13:24:10.000Z</time>
      </trkpt>
      <trkpt lat="43.64121" lon="3.81437">
        <ele>107</ele>
        <time>2020-06-14T13:24:11.000Z</time>
      </trkpt>
      <trkpt lat="43.64124" lon="3.81442">
        <ele>107</ele>
        <time>2020-06-14T13:24:12.000Z</time>
      </trkpt>
      <trkpt lat="43.64128" lon="3.81447">
        <ele>107</ele>
        <time>2020-06-14T13:24:13.000Z</time>
      </trkpt>
      <trkpt lat="43.64131" lon="3.81453">
        <ele>107</ele>
        <time>2020-06-14T13:24:14.000Z</time>
      </trkpt>
      <trkpt lat="43.64134" lon="3.81458">
        <ele>107.08691332324</ele>
        <time>2020-06-14T13:24:15.000Z</time>
      </trkpt>
      <trkpt lat="43.64137" lon="3.81465">
        <ele>107.18681332733</ele>
        <time>2020-06-14T13:24:16.000Z</time>
      </trkpt>
      <trkpt lat="43.64139" lon="3.81471">
        <ele>107.28671333142</ele>
        <time>2020-06-14T13:24:17.000Z</time>
      </trkpt>
      <trkpt lat="43.64142" lon="3.81476">
        <ele>107.38661333552</ele>
        <time>2020-06-14T13:24:18.000Z</time>
      </trkpt>
      <trkpt lat="43.64145" lon="3.81481">
        <ele>107.48651333961</ele>
        <time>2020-06-14T13:24:19.000Z</time>
      </trkpt>
      <trkpt lat="43.64148" lon="3.81486">
        <ele>107.5864133437</ele>
        <time>2020-06-14T13:24:20.000Z</time>
      </trkpt>
      <trkpt lat="43.6415" lon="3.8149">
        <ele>107.68631334779</ele>
        <time>2020-06-14T13:24:21.000Z</time>
      </trkpt>
      <trkpt lat="43.64153" lon="3.81491">
        <ele>107.78621335188</ele>
        <time>2020-06-14T13:24:22.000Z</time>
      </trkpt>
      <trkpt lat="43.64155" lon="3.81492">
        <ele>107.88611335597</ele>
        <time>2020-06-14T13:24:23.000Z</time>
      </trkpt>
      <trkpt lat="43.64158" lon="3.81492">
        <ele>107.98601336007</ele>
        <time>2020-06-14T13:24:24.000Z</time>
      </trkpt>
      <trkpt lat="43.6416" lon="3.81492">
        <ele>108</ele>
        <time>2020-06-14T13:24:25.000Z</time>
      </trkpt>
      <trkpt lat="43.64162" lon="3.81491">
        <ele>108</ele>
        <time>2020-06-14T13:24:26.000Z</time>
      </trkpt>
      <trkpt lat="43.64165" lon="3.81489">
        <ele>108</ele>
        <time>2020-06-14T13:24:27.000Z</time>
      </trkpt>
      <trkpt lat="43.64167" lon="3.81488">
        <ele>108</ele>
        <time>2020-06-14T13:24:28.000Z</time>
      </trkpt>
      <trkpt lat="43.64169" lon="3.81487">
        <ele>108</ele>
        <time>2020-06-14T13:24:29.000Z</time>
      </trkpt>
      <trkpt lat="43.64171" lon="3.81485">
        <ele>108</ele>
        <time>2020-06-14T13:24:30.000Z</time>
      </trkpt>
      <trkpt lat="43.64173" lon="3.81484">
        <ele>108</ele>
        <time>2020-06-14T13:24:31.000Z</time>
      </trkpt>
      <trkpt lat="43.64175" lon="3.81482">
        <ele>108</ele>
        <time>2020-06-14T13:24:32.000Z</time>
      </trkpt>
      <trkpt lat="43.64177" lon="3.8148">
        <ele>108</ele>
        <time>2020-06-14T13:24:33.000Z</time>
      </trkpt>
      <trkpt lat="43.64179" lon="3.81478">
        <ele>108</ele>
        <time>2020-06-14T13:24:34.000Z</time>
      </trkpt>
      <trkpt lat="43.6418" lon="3.81475">
        <ele>108.17400064</ele>
        <time>2020-06-14T13:24:35.000Z</time>
      </trkpt>
      <trkpt lat="43.64181" lon="3.81473">
        <ele>108.37400064</ele>
        <time>2020-06-14T13:24:36.000Z</time>
      </trkpt>
      <trkpt lat="43.64183" lon="3.8147">
        <ele>108.57400064</ele>
        <time>2020-06-14T13:24:37.000Z</time>
      </trkpt>
      <trkpt lat="43.64184" lon="3.81468">
        <ele>108.77400064</ele>
        <time>2020-06-14T13:24:38.000Z</time>
      </trkpt>
      <trkpt lat="43.64185" lon="3.81465">
        <ele>108.97400064</ele>
        <time>2020-06-14T13:24:39.000Z</time>
      </trkpt>
      <trkpt lat="43.64187" lon="3.81462">
        <ele>109.17400064</ele>
        <time>2020-06-14T13:24:40.000Z</time>
      </trkpt>
      <trkpt lat="43.64188" lon="3.81459">
        <ele>109.37400064</ele>
        <time>2020-06-14T13:24:41.000Z</time>
      </trkpt>
      <trkpt lat="43.64189" lon="3.81457">
        <ele>109.57400064</ele>
        <time>2020-06-14T13:24:42.000Z</time>
      </trkpt>
      <trkpt lat="43.6419" lon="3.81454">
        <ele>109.77400064</ele>
        <time>2020-06-14T13:24:43.000Z</time>
      </trkpt>
      <trkpt lat="43.64191" lon="3.81451">
        <ele>109.97400064</ele>
        <time>2020-06-14T13:24:44.000Z</time>
      </trkpt>
      <trkpt lat="43.64193" lon="3.81448">
        <ele>110.08700032</ele>
        <time>2020-06-14T13:24:45.000Z</time>
      </trkpt>
      <trkpt lat="43.64194" lon="3.81446">
        <ele>110.18700032</ele>
        <time>2020-06-14T13:24:46.000Z</time>
      </trkpt>
      <trkpt lat="43.64195" lon="3.81443">
        <ele>110.28700032</ele>
        <time>2020-06-14T13:24:47.000Z</time>
      </trkpt>
      <trkpt lat="43.64197" lon="3.81441">
        <ele>110.38700032</ele>
        <time>2020-06-14T13:24:48.000Z</time>
      </trkpt>
      <trkpt lat="43.64198" lon="3.81439">
        <ele>110.48700032</ele>
        <time>2020-06-14T13:24:49.000Z</time>
      </trkpt>
      <trkpt lat="43.642" lon="3.81436">
        <ele>110.58700032</ele>
        <time>2020-06-14T13:24:50.000Z</time>
      </trkpt>
      <trkpt lat="43.64201" lon="3.81434">
        <ele>110.68700032</ele>
        <time>2020-06-14T13:24:51.000Z</time>
      </trkpt>
      <trkpt lat="43.64203" lon="3.81432">
        <ele>110.78700032</ele>
        <time>2020-06-14T13:24:52.000Z</time>
      </trkpt>
      <trkpt lat="43.64204" lon="3.8143">
        <ele>110.88700032</ele>
        <time>2020-06-14T13:24:53.000Z</time>
      </trkpt>
      <trkpt lat="43.64206" lon="3.81428">
        <ele>110.98700032</ele>
        <time>2020-06-14T13:24:54.000Z</time>
      </trkpt>
      <trkpt lat="43.64209" lon="3.81427">
        <ele>111.17400064</ele>
        <time>2020-06-14T13:24:55.000Z</time>
      </trkpt>
      <trkpt lat="43.64211" lon="3.81426">
        <ele>111.37400064</ele>
        <time>2020-06-14T13:24:56.000Z</time>
      </trkpt>
      <trkpt lat="43.64214" lon="3.81425">
        <ele>111.57400064</ele>
        <time>2020-06-14T13:24:57.000Z</time>
      </trkpt>
      <trkpt lat="43.64216" lon="3.81425">
        <ele>111.77400064</ele>
        <time>2020-06-14T13:24:58.000Z</time>
      </trkpt>
      <trkpt lat="43.64219" lon="3.81424">
        <ele>111.97400064</ele>
        <time>2020-06-14T13:24:59.000Z</time>
      </trkpt>
      <trkpt lat="43.64221" lon="3.81424">
        <ele>112.17400064</ele>
        <time>2020-06-14T13:25:00.000Z</time>
      </trkpt>
      <trkpt lat="43.64223" lon="3.81425">
        <ele>112.37400064</ele>
        <time>2020-06-14T13:25:01.000Z</time>
      </trkpt>
      <trkpt lat="43.64226" lon="3.81425">
        <ele>112.57400064</ele>
        <time>2020-06-14T13:25:02.000Z</time>
      </trkpt>
      <trkpt lat="43.64228" lon="3.81425">
        <ele>112.77400064</ele>
        <time>2020-06-14T13:25:03.000Z</time>
      </trkpt>
      <trkpt lat="43.6423" lon="3.81425">
        <ele>112.97400064</ele>
        <time>2020-06-14T13:25:04.000Z</time>
      </trkpt>
      <trkpt lat="43.64232" lon="3.81423">
        <ele>113</ele>
        <time>2020-06-14T13:25:06.000Z</time>
      </trkpt>
      <trkpt lat="43.64234" lon="3.8142">
        <ele>113</ele>
        <time>2020-06-14T13:25:08.000Z</time>
      </trkpt>
      <trkpt lat="43.64234" lon="3.81415">
        <ele>113</ele>
        <time>2020-06-14T13:25:10.000Z</time>
      </trkpt>
      <trkpt lat="43.64234" lon="3.81412">
        <ele>113</ele>
        <time>2020-06-14T13:25:11.000Z</time>
      </trkpt>
      <trkpt lat="43.64233" lon="3.81408">
        <ele>113</ele>
        <time>2020-06-14T13:25:12.000Z</time>
      </trkpt>
      <trkpt lat="43.64233" lon="3.81405">
        <ele>113</ele>
        <time>2020-06-14T13:25:13.000Z</time>
      </trkpt>
      <trkpt lat="43.64231" lon="3.814">
        <ele>113</ele>
        <time>2020-06-14T13:25:14.000Z</time>
      </trkpt>
      <trkpt lat="43.6423" lon="3.81395">
        <ele>113</ele>
        <time>2020-06-14T13:25:15.000Z</time>
      </trkpt>
      <trkpt lat="43.64229" lon="3.8139">
        <ele>113</ele>
        <time>2020-06-14T13:25:16.000Z</time>
      </trkpt>
      <trkpt lat="43.64227" lon="3.81385">
        <ele>113</ele>
        <time>2020-06-14T13:25:17.000Z</time>
      </trkpt>
      <trkpt lat="43.64225" lon="3.8138">
        <ele>113</ele>
        <time>2020-06-14T13:25:18.000Z</time>
      </trkpt>
      <trkpt lat="43.64223" lon="3.81375">
        <ele>113</ele>
        <time>2020-06-14T13:25:19.000Z</time>
      </trkpt>
      <trkpt lat="43.64221" lon="3.8137">
        <ele>113</ele>
        <time>2020-06-14T13:25:20.000Z</time>
      </trkpt>
      <trkpt lat="43.64219" lon="3.81365">
        <ele>113</ele>
        <time>2020-06-14T13:25:21.000Z</time>
      </trkpt>
      <trkpt lat="43.64217" lon="3.8136">
        <ele>113</ele>
        <time>2020-06-14T13:25:22.000Z</time>
      </trkpt>
      <trkpt lat="43.64215" lon="3.81356">
        <ele>113</ele>
        <time>2020-06-14T13:25:23.000Z</time>
      </trkpt>
      <trkpt lat="43.64213" lon="3.81351">
        <ele>113</ele>
        <time>2020-06-14T13:25:24.000Z</time>
      </trkpt>
      <trkpt lat="43.64211" lon="3.81345">
        <ele>113.05388602823</ele>
        <time>2020-06-14T13:25:25.000Z</time>
      </trkpt>
      <trkpt lat="43.64209" lon="3.8134">
        <ele>113.1575130056</ele>
        <time>2020-06-14T13:25:26.000Z</time>
      </trkpt>
      <trkpt lat="43.64207" lon="3.81335">
        <ele>113.26113998297</ele>
        <time>2020-06-14T13:25:27.000Z</time>
      </trkpt>
      <trkpt lat="43.64205" lon="3.8133">
        <ele>113.36476696034</ele>
        <time>2020-06-14T13:25:28.000Z</time>
      </trkpt>
      <trkpt lat="43.64203" lon="3.81325">
        <ele>113.46839393771</ele>
        <time>2020-06-14T13:25:29.000Z</time>
      </trkpt>
      <trkpt lat="43.642" lon="3.81321">
        <ele>113.57202091507</ele>
        <time>2020-06-14T13:25:30.000Z</time>
      </trkpt>
      <trkpt lat="43.64198" lon="3.81316">
        <ele>113.67564789244</ele>
        <time>2020-06-14T13:25:31.000Z</time>
      </trkpt>
      <trkpt lat="43.64196" lon="3.81312">
        <ele>113.77927486981</ele>
        <time>2020-06-14T13:25:32.000Z</time>
      </trkpt>
      <trkpt lat="43.64194" lon="3.81307">
        <ele>113.88290184718</ele>
        <time>2020-06-14T13:25:33.000Z</time>
      </trkpt>
      <trkpt lat="43.64192" lon="3.81303">
        <ele>113.98652882455</ele>
        <time>2020-06-14T13:25:34.000Z</time>
      </trkpt>
      <trkpt lat="43.6419" lon="3.81299">
        <ele>114</ele>
        <time>2020-06-14T13:25:35.000Z</time>
      </trkpt>
      <trkpt lat="43.64188" lon="3.81295">
        <ele>114</ele>
        <time>2020-06-14T13:25:36.000Z</time>
      </trkpt>
      <trkpt lat="43.64186" lon="3.81291">
        <ele>114</ele>
        <time>2020-06-14T13:25:37.000Z</time>
      </trkpt>
      <trkpt lat="43.64184" lon="3.81287">
        <ele>114</ele>
        <time>2020-06-14T13:25:38.000Z</time>
      </trkpt>
      <trkpt lat="43.64182" lon="3.81284">
        <ele>114</ele>
        <time>2020-06-14T13:25:39.000Z</time>
      </trkpt>
      <trkpt lat="43.6418" lon="3.8128">
        <ele>114</ele>
        <time>2020-06-14T13:25:40.000Z</time>
      </trkpt>
      <trkpt lat="43.64179" lon="3.81276">
        <ele>114</ele>
        <time>2020-06-14T13:25:41.000Z</time>
      </trkpt>
      <trkpt lat="43.64177" lon="3.81272">
        <ele>114</ele>
        <time>2020-06-14T13:25:42.000Z</time>
      </trkpt>
      <trkpt lat="43.64175" lon="3.81269">
        <ele>114</ele>
        <time>2020-06-14T13:25:43.000Z</time>
      </trkpt>
      <trkpt lat="43.64173" lon="3.81265">
        <ele>114</ele>
        <time>2020-06-14T13:25:44.000Z</time>
      </trkpt>
      <trkpt lat="43.64171" lon="3.81262">
        <ele>114.08674007203</ele>
        <time>2020-06-14T13:25:45.000Z</time>
      </trkpt>
      <trkpt lat="43.64169" lon="3.81258">
        <ele>114.18644093753</ele>
        <time>2020-06-14T13:25:46.000Z</time>
      </trkpt>
      <trkpt lat="43.64167" lon="3.81255">
        <ele>114.28614180303</ele>
        <time>2020-06-14T13:25:47.000Z</time>
      </trkpt>
      <trkpt lat="43.64165" lon="3.81252">
        <ele>114.38584266853</ele>
        <time>2020-06-14T13:25:48.000Z</time>
      </trkpt>
      <trkpt lat="43.64163" lon="3.81249">
        <ele>114.48554353402</ele>
        <time>2020-06-14T13:25:49.000Z</time>
      </trkpt>
      <trkpt lat="43.6416" lon="3.81245">
        <ele>114.58524439952</ele>
        <time>2020-06-14T13:25:50.000Z</time>
      </trkpt>
      <trkpt lat="43.64158" lon="3.81242">
        <ele>114.68494526502</ele>
        <time>2020-06-14T13:25:51.000Z</time>
      </trkpt>
      <trkpt lat="43.64156" lon="3.81239">
        <ele>114.78464613052</ele>
        <time>2020-06-14T13:25:52.000Z</time>
      </trkpt>
      <trkpt lat="43.64154" lon="3.81235">
        <ele>114.88434699602</ele>
        <time>2020-06-14T13:25:53.000Z</time>
      </trkpt>
      <trkpt lat="43.64152" lon="3.81232">
        <ele>114.98404786152</ele>
        <time>2020-06-14T13:25:54.000Z</time>
      </trkpt>
      <trkpt lat="43.6415" lon="3.81229">
        <ele>115.16850557063</ele>
        <time>2020-06-14T13:25:55.000Z</time>
      </trkpt>
      <trkpt lat="43.64148" lon="3.81226">
        <ele>115.36910744044</ele>
        <time>2020-06-14T13:25:56.000Z</time>
      </trkpt>
      <trkpt lat="43.64146" lon="3.81223">
        <ele>115.56970931024</ele>
        <time>2020-06-14T13:25:57.000Z</time>
      </trkpt>
      <trkpt lat="43.64144" lon="3.8122">
        <ele>115.77031118004</ele>
        <time>2020-06-14T13:25:58.000Z</time>
      </trkpt>
      <trkpt lat="43.64142" lon="3.81216">
        <ele>115.97091304984</ele>
        <time>2020-06-14T13:25:59.000Z</time>
      </trkpt>
      <trkpt lat="43.64139" lon="3.81213">
        <ele>116.17151491964</ele>
        <time>2020-06-14T13:26:00.000Z</time>
      </trkpt>
      <trkpt lat="43.64137" lon="3.81211">
        <ele>116.37211678945</ele>
        <time>2020-06-14T13:26:01.000Z</time>
      </trkpt>
      <trkpt lat="43.64135" lon="3.81209">
        <ele>116.57271865925</ele>
        <time>2020-06-14T13:26:02.000Z</time>
      </trkpt>
      <trkpt lat="43.64133" lon="3.81206">
        <ele>116.77332052905</ele>
        <time>2020-06-14T13:26:03.000Z</time>
      </trkpt>
      <trkpt lat="43.64131" lon="3.81204">
        <ele>116.97392239885</ele>
        <time>2020-06-14T13:26:04.000Z</time>
      </trkpt>
      <trkpt lat="43.6413" lon="3.81201">
        <ele>117.08700032</ele>
        <time>2020-06-14T13:26:05.000Z</time>
      </trkpt>
      <trkpt lat="43.64129" lon="3.81197">
        <ele>117.18700032</ele>
        <time>2020-06-14T13:26:06.000Z</time>
      </trkpt>
      <trkpt lat="43.64127" lon="3.81194">
        <ele>117.28700032</ele>
        <time>2020-06-14T13:26:07.000Z</time>
      </trkpt>
      <trkpt lat="43.64125" lon="3.81191">
        <ele>117.38700032</ele>
        <time>2020-06-14T13:26:08.000Z</time>
      </trkpt>
      <trkpt lat="43.64123" lon="3.81188">
        <ele>117.48700032</ele>
        <time>2020-06-14T13:26:09.000Z</time>
      </trkpt>
      <trkpt lat="43.64121" lon="3.81185">
        <ele>117.58700032</ele>
        <time>2020-06-14T13:26:10.000Z</time>
      </trkpt>
      <trkpt lat="43.64119" lon="3.81183">
        <ele>117.68700032</ele>
        <time>2020-06-14T13:26:11.000Z</time>
      </trkpt>
      <trkpt lat="43.64117" lon="3.81182">
        <ele>117.78700032</ele>
        <time>2020-06-14T13:26:12.000Z</time>
      </trkpt>
      <trkpt lat="43.64115" lon="3.81179">
        <ele>117.98700032</ele>
        <time>2020-06-14T13:26:14.000Z</time>
      </trkpt>
      <trkpt lat="43.64114" lon="3.81177">
        <ele>118.94197412269</ele>
        <time>2020-06-14T13:26:19.000Z</time>
      </trkpt>
      <trkpt lat="43.64112" lon="3.81176">
        <ele>118.18711595017</ele>
        <time>2020-06-14T13:26:22.000Z</time>
      </trkpt>
      <trkpt lat="43.64111" lon="3.81172">
        <ele>118</ele>
        <time>2020-06-14T13:26:24.000Z</time>
      </trkpt>
      <trkpt lat="43.64112" lon="3.81174">
        <ele>118</ele>
        <time>2020-06-14T13:26:27.000Z</time>
      </trkpt>
      <trkpt lat="43.64112" lon="3.81174">
        <ele>118</ele>
        <time>2020-06-14T13:26:31.000Z</time>
      </trkpt>
      <trkpt lat="43.64117" lon="3.81179">
        <ele>118</ele>
        <time>2020-06-14T13:26:35.000Z</time>
      </trkpt>
      <trkpt lat="43.64119" lon="3.8118">
        <ele>118</ele>
        <time>2020-06-14T13:26:36.000Z</time>
      </trkpt>
      <trkpt lat="43.64121" lon="3.81182">
        <ele>118</ele>
        <time>2020-06-14T13:26:37.000Z</time>
      </trkpt>
      <trkpt lat="43.64122" lon="3.81184">
        <ele>118</ele>
        <time>2020-06-14T13:26:38.000Z</time>
      </trkpt>
      <trkpt lat="43.64123" lon="3.81188">
        <ele>118</ele>
        <time>2020-06-14T13:26:40.000Z</time>
      </trkpt>
      <trkpt lat="43.64121" lon="3.81191">
        <ele>118</ele>
        <time>2020-06-14T13:26:42.000Z</time>
      </trkpt>
      <trkpt lat="43.64119" lon="3.81189">
        <ele>118</ele>
        <time>2020-06-14T13:26:44.000Z</time>
      </trkpt>
      <trkpt lat="43.64116" lon="3.81186">
        <ele>118.18173020229</ele>
        <time>2020-06-14T13:26:46.000Z</time>
      </trkpt>
      <trkpt lat="43.64116" lon="3.81181">
        <ele>118.3760937224</ele>
        <time>2020-06-14T13:26:48.000Z</time>
      </trkpt>
      <trkpt lat="43.64117" lon="3.81177">
        <ele>118.57045724251</ele>
        <time>2020-06-14T13:26:50.000Z</time>
      </trkpt>
      <trkpt lat="43.64117" lon="3.81174">
        <ele>118.66763900257</ele>
        <time>2020-06-14T13:26:51.000Z</time>
      </trkpt>
      <trkpt lat="43.64119" lon="3.81169">
        <ele>118.86200252268</ele>
        <time>2020-06-14T13:26:53.000Z</time>
      </trkpt>
      <trkpt lat="43.6412" lon="3.81167">
        <ele>118.95918428274</ele>
        <time>2020-06-14T13:26:54.000Z</time>
      </trkpt>
      <trkpt lat="43.64121" lon="3.81165">
        <ele>119</ele>
        <time>2020-06-14T13:26:55.000Z</time>
      </trkpt>
      <trkpt lat="43.64122" lon="3.81162">
        <ele>119</ele>
        <time>2020-06-14T13:26:56.000Z</time>
      </trkpt>
      <trkpt lat="43.64124" lon="3.81158">
        <ele>119</ele>
        <time>2020-06-14T13:26:57.000Z</time>
      </trkpt>
      <trkpt lat="43.64125" lon="3.81154">
        <ele>119</ele>
        <time>2020-06-14T13:26:58.000Z</time>
      </trkpt>
      <trkpt lat="43.64126" lon="3.81151">
        <ele>119</ele>
        <time>2020-06-14T13:26:59.000Z</time>
      </trkpt>
      <trkpt lat="43.64125" lon="3.81148">
        <ele>119</ele>
        <time>2020-06-14T13:27:00.000Z</time>
      </trkpt>
      <trkpt lat="43.64124" lon="3.81146">
        <ele>119</ele>
        <time>2020-06-14T13:27:01.000Z</time>
      </trkpt>
      <trkpt lat="43.64122" lon="3.81143">
        <ele>119</ele>
        <time>2020-06-14T13:27:02.000Z</time>
      </trkpt>
      <trkpt lat="43.6412" lon="3.81141">
        <ele>119</ele>
        <time>2020-06-14T13:27:03.000Z</time>
      </trkpt>
      <trkpt lat="43.64118" lon="3.81138">
        <ele>119</ele>
        <time>2020-06-14T13:27:04.000Z</time>
      </trkpt>
      <trkpt lat="43.64116" lon="3.81135">
        <ele>119</ele>
        <time>2020-06-14T13:27:05.000Z</time>
      </trkpt>
      <trkpt lat="43.64113" lon="3.81132">
        <ele>119</ele>
        <time>2020-06-14T13:27:06.000Z</time>
      </trkpt>
      <trkpt lat="43.64111" lon="3.81129">
        <ele>119</ele>
        <time>2020-06-14T13:27:07.000Z</time>
      </trkpt>
      <trkpt lat="43.64109" lon="3.81126">
        <ele>119</ele>
        <time>2020-06-14T13:27:08.000Z</time>
      </trkpt>
      <trkpt lat="43.64107" lon="3.81123">
        <ele>119</ele>
        <time>2020-06-14T13:27:09.000Z</time>
      </trkpt>
      <trkpt lat="43.64105" lon="3.8112">
        <ele>119</ele>
        <time>2020-06-14T13:27:10.000Z</time>
      </trkpt>
      <trkpt lat="43.64102" lon="3.81117">
        <ele>119</ele>
        <time>2020-06-14T13:27:11.000Z</time>
      </trkpt>
      <trkpt lat="43.641" lon="3.81115">
        <ele>119</ele>
        <time>2020-06-14T13:27:12.000Z</time>
      </trkpt>
      <trkpt lat="43.64098" lon="3.81112">
        <ele>119</ele>
        <time>2020-06-14T13:27:13.000Z</time>
      </trkpt>
      <trkpt lat="43.64096" lon="3.8111">
        <ele>119</ele>
        <time>2020-06-14T13:27:14.000Z</time>
      </trkpt>
      <trkpt lat="43.64094" lon="3.81107">
        <ele>119</ele>
        <time>2020-06-14T13:27:15.000Z</time>
      </trkpt>
      <trkpt lat="43.64092" lon="3.81105">
        <ele>119</ele>
        <time>2020-06-14T13:27:16.000Z</time>
      </trkpt>
      <trkpt lat="43.6409" lon="3.81103">
        <ele>119</ele>
        <time>2020-06-14T13:27:17.000Z</time>
      </trkpt>
      <trkpt lat="43.64088" lon="3.81101">
        <ele>119</ele>
        <time>2020-06-14T13:27:18.000Z</time>
      </trkpt>
      <trkpt lat="43.64087" lon="3.81101">
        <ele>119</ele>
        <time>2020-06-14T13:27:25.000Z</time>
      </trkpt>
      <trkpt lat="43.64084" lon="3.81096">
        <ele>119.96663039148</ele>
        <time>2020-06-14T13:27:52.000Z</time>
      </trkpt>
      <trkpt lat="43.64083" lon="3.81093">
        <ele>119.97717286956</ele>
        <time>2020-06-14T13:27:53.000Z</time>
      </trkpt>
      <trkpt lat="43.64083" lon="3.8109">
        <ele>119.65108591304</ele>
        <time>2020-06-14T13:27:54.000Z</time>
      </trkpt>
      <trkpt lat="43.64084" lon="3.81085">
        <ele>119.32499895652</ele>
        <time>2020-06-14T13:27:55.000Z</time>
      </trkpt>
      <trkpt lat="43.64085" lon="3.8108">
        <ele>118.998912</ele>
        <time>2020-06-14T13:27:56.000Z</time>
      </trkpt>
      <trkpt lat="43.64087" lon="3.81076">
        <ele>118.67282504348</ele>
        <time>2020-06-14T13:27:57.000Z</time>
      </trkpt>
      <trkpt lat="43.6409" lon="3.81072">
        <ele>118.34673808696</ele>
        <time>2020-06-14T13:27:58.000Z</time>
      </trkpt>
      <trkpt lat="43.64092" lon="3.81069">
        <ele>118.02065113043</ele>
        <time>2020-06-14T13:27:59.000Z</time>
      </trkpt>
      <trkpt lat="43.64095" lon="3.81065">
        <ele>117.69456417391</ele>
        <time>2020-06-14T13:28:00.000Z</time>
      </trkpt>
      <trkpt lat="43.64097" lon="3.81061">
        <ele>117.36847721739</ele>
        <time>2020-06-14T13:28:01.000Z</time>
      </trkpt>
      <trkpt lat="43.641" lon="3.81056">
        <ele>117.04239026087</ele>
        <time>2020-06-14T13:28:02.000Z</time>
      </trkpt>
      <trkpt lat="43.64102" lon="3.81051">
        <ele>116.8312312454</ele>
        <time>2020-06-14T13:28:03.000Z</time>
      </trkpt>
      <trkpt lat="43.64105" lon="3.81047">
        <ele>116.63724488466</ele>
        <time>2020-06-14T13:28:04.000Z</time>
      </trkpt>
      <trkpt lat="43.64108" lon="3.81042">
        <ele>116.44325852392</ele>
        <time>2020-06-14T13:28:05.000Z</time>
      </trkpt>
      <trkpt lat="43.6411" lon="3.81037">
        <ele>116.24927216317</ele>
        <time>2020-06-14T13:28:06.000Z</time>
      </trkpt>
      <trkpt lat="43.64112" lon="3.8103">
        <ele>116.05528580243</ele>
        <time>2020-06-14T13:28:07.000Z</time>
      </trkpt>
      <trkpt lat="43.64114" lon="3.81023">
        <ele>115.86129944169</ele>
        <time>2020-06-14T13:28:08.000Z</time>
      </trkpt>
      <trkpt lat="43.64116" lon="3.81018">
        <ele>115.66731308095</ele>
        <time>2020-06-14T13:28:09.000Z</time>
      </trkpt>
      <trkpt lat="43.64118" lon="3.81013">
        <ele>115.47332672021</ele>
        <time>2020-06-14T13:28:10.000Z</time>
      </trkpt>
      <trkpt lat="43.64119" lon="3.81008">
        <ele>115.27934035947</ele>
        <time>2020-06-14T13:28:11.000Z</time>
      </trkpt>
      <trkpt lat="43.64121" lon="3.81003">
        <ele>115.08535399873</ele>
        <time>2020-06-14T13:28:12.000Z</time>
      </trkpt>
      <trkpt lat="43.64124" lon="3.81">
        <ele>114.8844168865</ele>
        <time>2020-06-14T13:28:13.000Z</time>
      </trkpt>
      <trkpt lat="43.64126" lon="3.80997">
        <ele>114.67801846952</ele>
        <time>2020-06-14T13:28:14.000Z</time>
      </trkpt>
      <trkpt lat="43.64129" lon="3.80994">
        <ele>114.47162005255</ele>
        <time>2020-06-14T13:28:15.000Z</time>
      </trkpt>
      <trkpt lat="43.64131" lon="3.80991">
        <ele>114.26522163557</ele>
        <time>2020-06-14T13:28:16.000Z</time>
      </trkpt>
      <trkpt lat="43.64133" lon="3.80988">
        <ele>114.0588232186</ele>
        <time>2020-06-14T13:28:17.000Z</time>
      </trkpt>
      <trkpt lat="43.64135" lon="3.80986">
        <ele>113.85242480163</ele>
        <time>2020-06-14T13:28:18.000Z</time>
      </trkpt>
      <trkpt lat="43.64137" lon="3.80985">
        <ele>113.64602638465</ele>
        <time>2020-06-14T13:28:19.000Z</time>
      </trkpt>
      <trkpt lat="43.6414" lon="3.80986">
        <ele>113.43962796768</ele>
        <time>2020-06-14T13:28:20.000Z</time>
      </trkpt>
      <trkpt lat="43.64142" lon="3.80987">
        <ele>113.23322955071</ele>
        <time>2020-06-14T13:28:21.000Z</time>
      </trkpt>
      <trkpt lat="43.64143" lon="3.80989">
        <ele>113.02683113373</ele>
        <time>2020-06-14T13:28:22.000Z</time>
      </trkpt>
      <trkpt lat="43.64145" lon="3.80991">
        <ele>113</ele>
        <time>2020-06-14T13:28:23.000Z</time>
      </trkpt>
      <trkpt lat="43.64147" lon="3.80994">
        <ele>113</ele>
        <time>2020-06-14T13:28:24.000Z</time>
      </trkpt>
      <trkpt lat="43.64148" lon="3.80996">
        <ele>113</ele>
        <time>2020-06-14T13:28:25.000Z</time>
      </trkpt>
      <trkpt lat="43.64148" lon="3.80999">
        <ele>113</ele>
        <time>2020-06-14T13:28:26.000Z</time>
      </trkpt>
      <trkpt lat="43.64148" lon="3.81003">
        <ele>113</ele>
        <time>2020-06-14T13:28:27.000Z</time>
      </trkpt>
      <trkpt lat="43.64149" lon="3.81007">
        <ele>113</ele>
        <time>2020-06-14T13:28:28.000Z</time>
      </trkpt>
      <trkpt lat="43.6415" lon="3.81012">
        <ele>113</ele>
        <time>2020-06-14T13:28:29.000Z</time>
      </trkpt>
      <trkpt lat="43.64152" lon="3.81017">
        <ele>113</ele>
        <time>2020-06-14T13:28:30.000Z</time>
      </trkpt>
      <trkpt lat="43.64154" lon="3.81021">
        <ele>113</ele>
        <time>2020-06-14T13:28:31.000Z</time>
      </trkpt>
      <trkpt lat="43.64155" lon="3.81026">
        <ele>113</ele>
        <time>2020-06-14T13:28:32.000Z</time>
      </trkpt>
      <trkpt lat="43.64157" lon="3.81029">
        <ele>112.82617335352</ele>
        <time>2020-06-14T13:28:33.000Z</time>
      </trkpt>
      <trkpt lat="43.64159" lon="3.81032">
        <ele>112.62637334534</ele>
        <time>2020-06-14T13:28:34.000Z</time>
      </trkpt>
      <trkpt lat="43.64161" lon="3.81034">
        <ele>112.42657333715</ele>
        <time>2020-06-14T13:28:35.000Z</time>
      </trkpt>
      <trkpt lat="43.64164" lon="3.81037">
        <ele>112.22677332897</ele>
        <time>2020-06-14T13:28:36.000Z</time>
      </trkpt>
      <trkpt lat="43.64166" lon="3.81041">
        <ele>112.02697332079</ele>
        <time>2020-06-14T13:28:37.000Z</time>
      </trkpt>
      <trkpt lat="43.64168" lon="3.81046">
        <ele>111.8271733126</ele>
        <time>2020-06-14T13:28:38.000Z</time>
      </trkpt>
      <trkpt lat="43.6417" lon="3.81051">
        <ele>111.62737330442</ele>
        <time>2020-06-14T13:28:39.000Z</time>
      </trkpt>
      <trkpt lat="43.64172" lon="3.81056">
        <ele>111.42757329623</ele>
        <time>2020-06-14T13:28:40.000Z</time>
      </trkpt>
      <trkpt lat="43.64173" lon="3.81062">
        <ele>111.22777328805</ele>
        <time>2020-06-14T13:28:41.000Z</time>
      </trkpt>
      <trkpt lat="43.64174" lon="3.81067">
        <ele>111.02797327987</ele>
        <time>2020-06-14T13:28:42.000Z</time>
      </trkpt>
      <trkpt lat="43.64176" lon="3.81071">
        <ele>110.82782894366</ele>
        <time>2020-06-14T13:28:43.000Z</time>
      </trkpt>
      <trkpt lat="43.64178" lon="3.81073">
        <ele>110.62762855107</ele>
        <time>2020-06-14T13:28:44.000Z</time>
      </trkpt>
      <trkpt lat="43.6418" lon="3.81075">
        <ele>110.42742815849</ele>
        <time>2020-06-14T13:28:45.000Z</time>
      </trkpt>
      <trkpt lat="43.64182" lon="3.81077">
        <ele>110.2272277659</ele>
        <time>2020-06-14T13:28:46.000Z</time>
      </trkpt>
      <trkpt lat="43.64184" lon="3.81079">
        <ele>110.02702737332</ele>
        <time>2020-06-14T13:28:47.000Z</time>
      </trkpt>
      <trkpt lat="43.64187" lon="3.8108">
        <ele>109.82682698074</ele>
        <time>2020-06-14T13:28:48.000Z</time>
      </trkpt>
      <trkpt lat="43.64189" lon="3.81079">
        <ele>109.62662658815</ele>
        <time>2020-06-14T13:28:49.000Z</time>
      </trkpt>
      <trkpt lat="43.64191" lon="3.81078">
        <ele>109.42642619556</ele>
        <time>2020-06-14T13:28:50.000Z</time>
      </trkpt>
      <trkpt lat="43.64193" lon="3.81076">
        <ele>109.22622580298</ele>
        <time>2020-06-14T13:28:51.000Z</time>
      </trkpt>
      <trkpt lat="43.64193" lon="3.81073">
        <ele>109.02602541039</ele>
        <time>2020-06-14T13:28:52.000Z</time>
      </trkpt>
      <trkpt lat="43.64193" lon="3.81069">
        <ele>108.82599936</ele>
        <time>2020-06-14T13:28:53.000Z</time>
      </trkpt>
      <trkpt lat="43.64194" lon="3.81065">
        <ele>108.62599936</ele>
        <time>2020-06-14T13:28:54.000Z</time>
      </trkpt>
      <trkpt lat="43.64195" lon="3.81061">
        <ele>108.42599936</ele>
        <time>2020-06-14T13:28:55.000Z</time>
      </trkpt>
      <trkpt lat="43.64197" lon="3.81058">
        <ele>108.22599936</ele>
        <time>2020-06-14T13:28:56.000Z</time>
      </trkpt>
      <trkpt lat="43.64198" lon="3.81055">
        <ele>108.02599936</ele>
        <time>2020-06-14T13:28:57.000Z</time>
      </trkpt>
      <trkpt lat="43.64197" lon="3.81053">
        <ele>107.82599936</ele>
        <time>2020-06-14T13:28:58.000Z</time>
      </trkpt>
      <trkpt lat="43.64198" lon="3.8105">
        <ele>107.62599936</ele>
        <time>2020-06-14T13:28:59.000Z</time>
      </trkpt>
      <trkpt lat="43.64198" lon="3.81046">
        <ele>107.42599936</ele>
        <time>2020-06-14T13:29:00.000Z</time>
      </trkpt>
      <trkpt lat="43.64199" lon="3.81041">
        <ele>107.22599936</ele>
        <time>2020-06-14T13:29:01.000Z</time>
      </trkpt>
      <trkpt lat="43.642" lon="3.81038">
        <ele>107.02599936</ele>
        <time>2020-06-14T13:29:02.000Z</time>
      </trkpt>
      <trkpt lat="43.64201" lon="3.81034">
        <ele>106.74635467331</ele>
        <time>2020-06-14T13:29:03.000Z</time>
      </trkpt>
      <trkpt lat="43.64203" lon="3.8103">
        <ele>106.45480939314</ele>
        <time>2020-06-14T13:29:04.000Z</time>
      </trkpt>
      <trkpt lat="43.64205" lon="3.81027">
        <ele>106.16326411297</ele>
        <time>2020-06-14T13:29:05.000Z</time>
      </trkpt>
      <trkpt lat="43.64208" lon="3.81025">
        <ele>105.8717188328</ele>
        <time>2020-06-14T13:29:06.000Z</time>
      </trkpt>
      <trkpt lat="43.64211" lon="3.81022">
        <ele>105.58017355263</ele>
        <time>2020-06-14T13:29:07.000Z</time>
      </trkpt>
      <trkpt lat="43.64214" lon="3.81019">
        <ele>105.28862827246</ele>
        <time>2020-06-14T13:29:08.000Z</time>
      </trkpt>
      <trkpt lat="43.64217" lon="3.81016">
        <ele>104.99708299229</ele>
        <time>2020-06-14T13:29:09.000Z</time>
      </trkpt>
      <trkpt lat="43.6422" lon="3.81013">
        <ele>104.70553771212</ele>
        <time>2020-06-14T13:29:10.000Z</time>
      </trkpt>
      <trkpt lat="43.64223" lon="3.81009">
        <ele>104.41399243195</ele>
        <time>2020-06-14T13:29:11.000Z</time>
      </trkpt>
      <trkpt lat="43.64225" lon="3.81006">
        <ele>104.12244715178</ele>
        <time>2020-06-14T13:29:12.000Z</time>
      </trkpt>
      <trkpt lat="43.64227" lon="3.81003">
        <ele>103.76106850305</ele>
        <time>2020-06-14T13:29:13.000Z</time>
      </trkpt>
      <trkpt lat="43.64228" lon="3.81">
        <ele>103.34912219184</ele>
        <time>2020-06-14T13:29:14.000Z</time>
      </trkpt>
      <trkpt lat="43.64228" lon="3.80997">
        <ele>102.93717588064</ele>
        <time>2020-06-14T13:29:15.000Z</time>
      </trkpt>
      <trkpt lat="43.64229" lon="3.80994">
        <ele>102.52522956944</ele>
        <time>2020-06-14T13:29:16.000Z</time>
      </trkpt>
      <trkpt lat="43.64229" lon="3.80991">
        <ele>102.11328325824</ele>
        <time>2020-06-14T13:29:17.000Z</time>
      </trkpt>
      <trkpt lat="43.6423" lon="3.80988">
        <ele>101.70133694704</ele>
        <time>2020-06-14T13:29:18.000Z</time>
      </trkpt>
      <trkpt lat="43.6423" lon="3.80985">
        <ele>101.28939063583</ele>
        <time>2020-06-14T13:29:19.000Z</time>
      </trkpt>
      <trkpt lat="43.64231" lon="3.80982">
        <ele>100.87744432463</ele>
        <time>2020-06-14T13:29:20.000Z</time>
      </trkpt>
      <trkpt lat="43.64232" lon="3.80977">
        <ele>100.46549801343</ele>
        <time>2020-06-14T13:29:21.000Z</time>
      </trkpt>
      <trkpt lat="43.64234" lon="3.80973">
        <ele>100.05355170223</ele>
        <time>2020-06-14T13:29:22.000Z</time>
      </trkpt>
      <trkpt lat="43.64235" lon="3.80967">
        <ele>99.73899904</ele>
        <time>2020-06-14T13:29:23.000Z</time>
      </trkpt>
      <trkpt lat="43.64236" lon="3.80962">
        <ele>99.43899904</ele>
        <time>2020-06-14T13:29:24.000Z</time>
      </trkpt>
      <trkpt lat="43.64237" lon="3.80958">
        <ele>99.13899904</ele>
        <time>2020-06-14T13:29:25.000Z</time>
      </trkpt>
      <trkpt lat="43.64237" lon="3.80953">
        <ele>98.83899904</ele>
        <time>2020-06-14T13:29:26.000Z</time>
      </trkpt>
      <trkpt lat="43.64238" lon="3.80949">
        <ele>98.53899904</ele>
        <time>2020-06-14T13:29:27.000Z</time>
      </trkpt>
      <trkpt lat="43.64239" lon="3.80944">
        <ele>98.23899904</ele>
        <time>2020-06-14T13:29:28.000Z</time>
      </trkpt>
      <trkpt lat="43.64239" lon="3.80939">
        <ele>97.93899904</ele>
        <time>2020-06-14T13:29:29.000Z</time>
      </trkpt>
      <trkpt lat="43.64239" lon="3.80934">
        <ele>97.63899904</ele>
        <time>2020-06-14T13:29:30.000Z</time>
      </trkpt>
      <trkpt lat="43.6424" lon="3.80928">
        <ele>97.33899904</ele>
        <time>2020-06-14T13:29:31.000Z</time>
      </trkpt>
      <trkpt lat="43.6424" lon="3.80922">
        <ele>97.03899904</ele>
        <time>2020-06-14T13:29:32.000Z</time>
      </trkpt>
      <trkpt lat="43.6424" lon="3.80916">
        <ele>96.830903115538</ele>
        <time>2020-06-14T13:29:33.000Z</time>
      </trkpt>
      <trkpt lat="43.64239" lon="3.80911">
        <ele>96.636539595425</ele>
        <time>2020-06-14T13:29:34.000Z</time>
      </trkpt>
      <trkpt lat="43.64239" lon="3.80906">
        <ele>96.442176075312</ele>
        <time>2020-06-14T13:29:35.000Z</time>
      </trkpt>
      <trkpt lat="43.64239" lon="3.80901">
        <ele>96.247812555199</ele>
        <time>2020-06-14T13:29:36.000Z</time>
      </trkpt>
      <trkpt lat="43.64239" lon="3.80896">
        <ele>96.053449035086</ele>
        <time>2020-06-14T13:29:37.000Z</time>
      </trkpt>
      <trkpt lat="43.6424" lon="3.80891">
        <ele>95.859085514973</ele>
        <time>2020-06-14T13:29:38.000Z</time>
      </trkpt>
      <trkpt lat="43.64239" lon="3.80885">
        <ele>95.66472199486</ele>
        <time>2020-06-14T13:29:39.000Z</time>
      </trkpt>
      <trkpt lat="43.64239" lon="3.80879">
        <ele>95.470358474747</ele>
        <time>2020-06-14T13:29:40.000Z</time>
      </trkpt>
      <trkpt lat="43.64237" lon="3.80874">
        <ele>95.275994954634</ele>
        <time>2020-06-14T13:29:41.000Z</time>
      </trkpt>
      <trkpt lat="43.64235" lon="3.80868">
        <ele>95.081631434521</ele>
        <time>2020-06-14T13:29:42.000Z</time>
      </trkpt>
      <trkpt lat="43.64233" lon="3.80864">
        <ele>94.820985914751</ele>
        <time>2020-06-14T13:29:43.000Z</time>
      </trkpt>
      <trkpt lat="43.6423" lon="3.80861">
        <ele>94.512344345884</ele>
        <time>2020-06-14T13:29:44.000Z</time>
      </trkpt>
      <trkpt lat="43.64228" lon="3.80856">
        <ele>94.203702777017</ele>
        <time>2020-06-14T13:29:45.000Z</time>
      </trkpt>
      <trkpt lat="43.64227" lon="3.80853">
        <ele>93.89506120815</ele>
        <time>2020-06-14T13:29:46.000Z</time>
      </trkpt>
      <trkpt lat="43.64227" lon="3.80849">
        <ele>93.586419639283</ele>
        <time>2020-06-14T13:29:47.000Z</time>
      </trkpt>
      <trkpt lat="43.64227" lon="3.80845">
        <ele>93.277778070416</ele>
        <time>2020-06-14T13:29:48.000Z</time>
      </trkpt>
      <trkpt lat="43.64228" lon="3.8084">
        <ele>92.969136501549</ele>
        <time>2020-06-14T13:29:49.000Z</time>
      </trkpt>
      <trkpt lat="43.64229" lon="3.80835">
        <ele>92.660494932682</ele>
        <time>2020-06-14T13:29:50.000Z</time>
      </trkpt>
      <trkpt lat="43.64229" lon="3.8083">
        <ele>92.351853363814</ele>
        <time>2020-06-14T13:29:51.000Z</time>
      </trkpt>
      <trkpt lat="43.64229" lon="3.80825">
        <ele>92.043211794947</ele>
        <time>2020-06-14T13:29:52.000Z</time>
      </trkpt>
      <trkpt lat="43.6423" lon="3.80819">
        <ele>91.741743415489</ele>
        <time>2020-06-14T13:29:53.000Z</time>
      </trkpt>
      <trkpt lat="43.64231" lon="3.80814">
        <ele>91.441442826612</ele>
        <time>2020-06-14T13:29:54.000Z</time>
      </trkpt>
      <trkpt lat="43.64232" lon="3.80809">
        <ele>91.141142237734</ele>
        <time>2020-06-14T13:29:55.000Z</time>
      </trkpt>
      <trkpt lat="43.64233" lon="3.80803">
        <ele>90.840841648857</ele>
        <time>2020-06-14T13:29:56.000Z</time>
      </trkpt>
      <trkpt lat="43.64233" lon="3.80798">
        <ele>90.540541059979</ele>
        <time>2020-06-14T13:29:57.000Z</time>
      </trkpt>
      <trkpt lat="43.64232" lon="3.80794">
        <ele>90.240240471102</ele>
        <time>2020-06-14T13:29:58.000Z</time>
      </trkpt>
      <trkpt lat="43.6423" lon="3.80789">
        <ele>89.939939882224</ele>
        <time>2020-06-14T13:29:59.000Z</time>
      </trkpt>
      <trkpt lat="43.64229" lon="3.80785">
        <ele>89.639639293347</ele>
        <time>2020-06-14T13:30:00.000Z</time>
      </trkpt>
      <trkpt lat="43.64227" lon="3.8078">
        <ele>89.33933870447</ele>
        <time>2020-06-14T13:30:01.000Z</time>
      </trkpt>
      <trkpt lat="43.64224" lon="3.80775">
        <ele>89.039038115592</ele>
        <time>2020-06-14T13:30:02.000Z</time>
      </trkpt>
      <trkpt lat="43.64222" lon="3.80769">
        <ele>88.91299968</ele>
        <time>2020-06-14T13:30:03.000Z</time>
      </trkpt>
      <trkpt lat="43.64219" lon="3.80764">
        <ele>88.81299968</ele>
        <time>2020-06-14T13:30:04.000Z</time>
      </trkpt>
      <trkpt lat="43.64218" lon="3.80758">
        <ele>88.71299968</ele>
        <time>2020-06-14T13:30:05.000Z</time>
      </trkpt>
      <trkpt lat="43.64217" lon="3.80753">
        <ele>88.61299968</ele>
        <time>2020-06-14T13:30:06.000Z</time>
      </trkpt>
      <trkpt lat="43.64217" lon="3.8075">
        <ele>88.51299968</ele>
        <time>2020-06-14T13:30:07.000Z</time>
      </trkpt>
      <trkpt lat="43.64216" lon="3.80745">
        <ele>88.31299968</ele>
        <time>2020-06-14T13:30:09.000Z</time>
      </trkpt>
      <trkpt lat="43.64216" lon="3.80742">
        <ele>88.11299968</ele>
        <time>2020-06-14T13:30:11.000Z</time>
      </trkpt>
      <trkpt lat="43.64217" lon="3.8074">
        <ele>87.878660587408</ele>
        <time>2020-06-14T13:30:13.000Z</time>
      </trkpt>
      <trkpt lat="43.64218" lon="3.8074">
        <ele>87.041840130249</ele>
        <time>2020-06-14T13:30:19.000Z</time>
      </trkpt>
      <trkpt lat="43.64217" lon="3.80738">
        <ele>87</ele>
        <time>2020-06-14T13:32:14.000Z</time>
      </trkpt>
      <trkpt lat="43.64217" lon="3.80735">
        <ele>87</ele>
        <time>2020-06-14T13:32:15.000Z</time>
      </trkpt>
      <trkpt lat="43.64216" lon="3.80731">
        <ele>87</ele>
        <time>2020-06-14T13:32:16.000Z</time>
      </trkpt>
      <trkpt lat="43.64216" lon="3.80728">
        <ele>87</ele>
        <time>2020-06-14T13:32:17.000Z</time>
      </trkpt>
      <trkpt lat="43.64216" lon="3.80725">
        <ele>87</ele>
        <time>2020-06-14T13:32:18.000Z</time>
      </trkpt>
      <trkpt lat="43.64216" lon="3.80722">
        <ele>87</ele>
        <time>2020-06-14T13:32:19.000Z</time>
      </trkpt>
      <trkpt lat="43.64215" lon="3.80718">
        <ele>87</ele>
        <time>2020-06-14T13:32:20.000Z</time>
      </trkpt>
      <trkpt lat="43.64215" lon="3.80713">
        <ele>87</ele>
        <time>2020-06-14T13:32:21.000Z</time>
      </trkpt>
      <trkpt lat="43.64214" lon="3.80709">
        <ele>87</ele>
        <time>2020-06-14T13:32:22.000Z</time>
      </trkpt>
      <trkpt lat="43.64212" lon="3.80704">
        <ele>87</ele>
        <time>2020-06-14T13:32:23.000Z</time>
      </trkpt>
      <trkpt lat="43.64209" lon="3.807">
        <ele>87</ele>
        <time>2020-06-14T13:32:24.000Z</time>
      </trkpt>
      <trkpt lat="43.64206" lon="3.80697">
        <ele>86.917924226415</ele>
        <time>2020-06-14T13:32:25.000Z</time>
      </trkpt>
      <trkpt lat="43.64203" lon="3.80694">
        <ele>86.823584603774</ele>
        <time>2020-06-14T13:32:26.000Z</time>
      </trkpt>
      <trkpt lat="43.64201" lon="3.80691">
        <ele>86.729244981132</ele>
        <time>2020-06-14T13:32:27.000Z</time>
      </trkpt>
      <trkpt lat="43.64199" lon="3.80687">
        <ele>86.634905358491</ele>
        <time>2020-06-14T13:32:28.000Z</time>
      </trkpt>
      <trkpt lat="43.64197" lon="3.80681">
        <ele>86.540565735849</ele>
        <time>2020-06-14T13:32:29.000Z</time>
      </trkpt>
      <trkpt lat="43.64196" lon="3.80675">
        <ele>86.446226113208</ele>
        <time>2020-06-14T13:32:30.000Z</time>
      </trkpt>
      <trkpt lat="43.64195" lon="3.8067">
        <ele>86.351886490566</ele>
        <time>2020-06-14T13:32:31.000Z</time>
      </trkpt>
      <trkpt lat="43.64193" lon="3.80665">
        <ele>86.257546867925</ele>
        <time>2020-06-14T13:32:32.000Z</time>
      </trkpt>
      <trkpt lat="43.64191" lon="3.80661">
        <ele>86.163207245283</ele>
        <time>2020-06-14T13:32:33.000Z</time>
      </trkpt>
      <trkpt lat="43.64188" lon="3.80659">
        <ele>86.068867622642</ele>
        <time>2020-06-14T13:32:34.000Z</time>
      </trkpt>
      <trkpt lat="43.64184" lon="3.80658">
        <ele>86</ele>
        <time>2020-06-14T13:32:35.000Z</time>
      </trkpt>
      <trkpt lat="43.64181" lon="3.80658">
        <ele>86</ele>
        <time>2020-06-14T13:32:36.000Z</time>
      </trkpt>
      <trkpt lat="43.64178" lon="3.80657">
        <ele>86</ele>
        <time>2020-06-14T13:32:37.000Z</time>
      </trkpt>
      <trkpt lat="43.64175" lon="3.80655">
        <ele>86</ele>
        <time>2020-06-14T13:32:38.000Z</time>
      </trkpt>
      <trkpt lat="43.64172" lon="3.80652">
        <ele>86</ele>
        <time>2020-06-14T13:32:39.000Z</time>
      </trkpt>
      <trkpt lat="43.6417" lon="3.8065">
        <ele>86</ele>
        <time>2020-06-14T13:32:40.000Z</time>
      </trkpt>
      <trkpt lat="43.64168" lon="3.80648">
        <ele>86</ele>
        <time>2020-06-14T13:32:41.000Z</time>
      </trkpt>
      <trkpt lat="43.64166" lon="3.80647">
        <ele>86</ele>
        <time>2020-06-14T13:32:42.000Z</time>
      </trkpt>
      <trkpt lat="43.64164" lon="3.80645">
        <ele>86</ele>
        <time>2020-06-14T13:32:43.000Z</time>
      </trkpt>
      <trkpt lat="43.64161" lon="3.80644">
        <ele>86</ele>
        <time>2020-06-14T13:32:44.000Z</time>
      </trkpt>
      <trkpt lat="43.64159" lon="3.80643">
        <ele>86.08691332324</ele>
        <time>2020-06-14T13:32:45.000Z</time>
      </trkpt>
      <trkpt lat="43.64158" lon="3.80641">
        <ele>86.186813327332</ele>
        <time>2020-06-14T13:32:46.000Z</time>
      </trkpt>
      <trkpt lat="43.64155" lon="3.80639">
        <ele>86.386613335516</ele>
        <time>2020-06-14T13:32:48.000Z</time>
      </trkpt>
      <trkpt lat="43.64152" lon="3.80638">
        <ele>86.5864133437</ele>
        <time>2020-06-14T13:32:50.000Z</time>
      </trkpt>
      <trkpt lat="43.6415" lon="3.80635">
        <ele>86.786213351883</ele>
        <time>2020-06-14T13:32:52.000Z</time>
      </trkpt>
      <trkpt lat="43.64148" lon="3.80633">
        <ele>86.986013360067</ele>
        <time>2020-06-14T13:32:54.000Z</time>
      </trkpt>
      <trkpt lat="43.64147" lon="3.8063">
        <ele>87</ele>
        <time>2020-06-14T13:32:59.000Z</time>
      </trkpt>
      <trkpt lat="43.64138" lon="3.80623">
        <ele>85.906054885047</ele>
        <time>2020-06-14T13:33:05.000Z</time>
      </trkpt>
      <trkpt lat="43.64136" lon="3.8062">
        <ele>85.697286478354</ele>
        <time>2020-06-14T13:33:06.000Z</time>
      </trkpt>
      <trkpt lat="43.64134" lon="3.80618">
        <ele>85.488518071661</ele>
        <time>2020-06-14T13:33:07.000Z</time>
      </trkpt>
      <trkpt lat="43.64132" lon="3.80616">
        <ele>85.279749664969</ele>
        <time>2020-06-14T13:33:08.000Z</time>
      </trkpt>
      <trkpt lat="43.6413" lon="3.80614">
        <ele>85.070981258276</ele>
        <time>2020-06-14T13:33:09.000Z</time>
      </trkpt>
      <trkpt lat="43.64127" lon="3.80611">
        <ele>84.862212851583</ele>
        <time>2020-06-14T13:33:10.000Z</time>
      </trkpt>
      <trkpt lat="43.64124" lon="3.80607">
        <ele>84.65344444489</ele>
        <time>2020-06-14T13:33:11.000Z</time>
      </trkpt>
      <trkpt lat="43.64121" lon="3.80604">
        <ele>84.444676038197</ele>
        <time>2020-06-14T13:33:12.000Z</time>
      </trkpt>
      <trkpt lat="43.64118" lon="3.80603">
        <ele>84.235907631504</ele>
        <time>2020-06-14T13:33:13.000Z</time>
      </trkpt>
      <trkpt lat="43.64115" lon="3.80601">
        <ele>84.027139224811</ele>
        <time>2020-06-14T13:33:14.000Z</time>
      </trkpt>
      <trkpt lat="43.64113" lon="3.80598">
        <ele>83.746354673308</ele>
        <time>2020-06-14T13:33:15.000Z</time>
      </trkpt>
      <trkpt lat="43.64113" lon="3.80594">
        <ele>83.454809393138</ele>
        <time>2020-06-14T13:33:16.000Z</time>
      </trkpt>
      <trkpt lat="43.64112" lon="3.8059">
        <ele>83.163264112968</ele>
        <time>2020-06-14T13:33:17.000Z</time>
      </trkpt>
      <trkpt lat="43.64111" lon="3.80586">
        <ele>82.871718832799</ele>
        <time>2020-06-14T13:33:18.000Z</time>
      </trkpt>
      <trkpt lat="43.64109" lon="3.80583">
        <ele>82.580173552629</ele>
        <time>2020-06-14T13:33:19.000Z</time>
      </trkpt>
      <trkpt lat="43.64107" lon="3.80582">
        <ele>82.28862827246</ele>
        <time>2020-06-14T13:33:20.000Z</time>
      </trkpt>
      <trkpt lat="43.64104" lon="3.80583">
        <ele>81.99708299229</ele>
        <time>2020-06-14T13:33:21.000Z</time>
      </trkpt>
      <trkpt lat="43.64101" lon="3.80586">
        <ele>81.705537712121</ele>
        <time>2020-06-14T13:33:22.000Z</time>
      </trkpt>
      <trkpt lat="43.64099" lon="3.80589">
        <ele>81.413992431951</ele>
        <time>2020-06-14T13:33:23.000Z</time>
      </trkpt>
      <trkpt lat="43.64098" lon="3.80592">
        <ele>81.122447151781</ele>
        <time>2020-06-14T13:33:24.000Z</time>
      </trkpt>
      <trkpt lat="43.64097" lon="3.80595">
        <ele>80.880534251523</ele>
        <time>2020-06-14T13:33:25.000Z</time>
      </trkpt>
      <trkpt lat="43.64096" lon="3.80597">
        <ele>80.674561095922</ele>
        <time>2020-06-14T13:33:26.000Z</time>
      </trkpt>
      <trkpt lat="43.64095" lon="3.806">
        <ele>80.468587940321</ele>
        <time>2020-06-14T13:33:27.000Z</time>
      </trkpt>
      <trkpt lat="43.64092" lon="3.80603">
        <ele>80.056641629119</ele>
        <time>2020-06-14T13:33:29.000Z</time>
      </trkpt>
      <trkpt lat="43.64091" lon="3.80606">
        <ele>79.850668473518</ele>
        <time>2020-06-14T13:33:30.000Z</time>
      </trkpt>
      <trkpt lat="43.6409" lon="3.80609">
        <ele>79.644695317917</ele>
        <time>2020-06-14T13:33:31.000Z</time>
      </trkpt>
      <trkpt lat="43.64088" lon="3.80613">
        <ele>79.438722162316</ele>
        <time>2020-06-14T13:33:32.000Z</time>
      </trkpt>
      <trkpt lat="43.64087" lon="3.80616">
        <ele>79.232749006715</ele>
        <time>2020-06-14T13:33:33.000Z</time>
      </trkpt>
      <trkpt lat="43.64085" lon="3.80618">
        <ele>79.026775851114</ele>
        <time>2020-06-14T13:33:34.000Z</time>
      </trkpt>
      <trkpt lat="43.64083" lon="3.80617">
        <ele>78.73899904</ele>
        <time>2020-06-14T13:33:35.000Z</time>
      </trkpt>
      <trkpt lat="43.64081" lon="3.80616">
        <ele>78.43899904</ele>
        <time>2020-06-14T13:33:36.000Z</time>
      </trkpt>
      <trkpt lat="43.64078" lon="3.80616">
        <ele>78.13899904</ele>
        <time>2020-06-14T13:33:37.000Z</time>
      </trkpt>
      <trkpt lat="43.64076" lon="3.80617">
        <ele>77.83899904</ele>
        <time>2020-06-14T13:33:38.000Z</time>
      </trkpt>
      <trkpt lat="43.64074" lon="3.80618">
        <ele>77.53899904</ele>
        <time>2020-06-14T13:33:39.000Z</time>
      </trkpt>
      <trkpt lat="43.64071" lon="3.80617">
        <ele>76.93899904</ele>
        <time>2020-06-14T13:33:41.000Z</time>
      </trkpt>
      <trkpt lat="43.64069" lon="3.80615">
        <ele>76.33899904</ele>
        <time>2020-06-14T13:33:43.000Z</time>
      </trkpt>
      <trkpt lat="43.64067" lon="3.80615">
        <ele>75.638297029507</ele>
        <time>2020-06-14T13:33:46.000Z</time>
      </trkpt>
      <trkpt lat="43.64067" lon="3.80615">
        <ele>75.058025877308</ele>
        <time>2020-06-14T13:33:49.000Z</time>
      </trkpt>
      <trkpt lat="43.64061" lon="3.80619">
        <ele>72.10770230778</ele>
        <time>2020-06-14T13:34:06.000Z</time>
      </trkpt>
      <trkpt lat="43.64058" lon="3.80619">
        <ele>71.922187870557</ele>
        <time>2020-06-14T13:34:07.000Z</time>
      </trkpt>
      <trkpt lat="43.64056" lon="3.80621">
        <ele>71.711882999156</ele>
        <time>2020-06-14T13:34:08.000Z</time>
      </trkpt>
      <trkpt lat="43.64054" lon="3.80622">
        <ele>71.501578127755</ele>
        <time>2020-06-14T13:34:09.000Z</time>
      </trkpt>
      <trkpt lat="43.64052" lon="3.80624">
        <ele>71.291273256354</ele>
        <time>2020-06-14T13:34:10.000Z</time>
      </trkpt>
      <trkpt lat="43.6405" lon="3.80625">
        <ele>71.080968384953</ele>
        <time>2020-06-14T13:34:11.000Z</time>
      </trkpt>
      <trkpt lat="43.64048" lon="3.80626">
        <ele>70.870663513552</ele>
        <time>2020-06-14T13:34:12.000Z</time>
      </trkpt>
      <trkpt lat="43.64045" lon="3.80626">
        <ele>70.660358642151</ele>
        <time>2020-06-14T13:34:13.000Z</time>
      </trkpt>
      <trkpt lat="43.64042" lon="3.80626">
        <ele>70.45005377075</ele>
        <time>2020-06-14T13:34:14.000Z</time>
      </trkpt>
      <trkpt lat="43.64039" lon="3.80625">
        <ele>70.239748899348</ele>
        <time>2020-06-14T13:34:15.000Z</time>
      </trkpt>
      <trkpt lat="43.64036" lon="3.80625">
        <ele>70.029444027947</ele>
        <time>2020-06-14T13:34:16.000Z</time>
      </trkpt>
      <trkpt lat="43.64032" lon="3.80626">
        <ele>69.665697233259</ele>
        <time>2020-06-14T13:34:17.000Z</time>
      </trkpt>
      <trkpt lat="43.64028" lon="3.80629">
        <ele>69.276970193032</ele>
        <time>2020-06-14T13:34:18.000Z</time>
      </trkpt>
      <trkpt lat="43.64024" lon="3.80632">
        <ele>68.888243152806</ele>
        <time>2020-06-14T13:34:19.000Z</time>
      </trkpt>
      <trkpt lat="43.64021" lon="3.80634">
        <ele>68.49951611258</ele>
        <time>2020-06-14T13:34:20.000Z</time>
      </trkpt>
      <trkpt lat="43.64017" lon="3.80636">
        <ele>68.110789072354</ele>
        <time>2020-06-14T13:34:21.000Z</time>
      </trkpt>
      <trkpt lat="43.64013" lon="3.80638">
        <ele>67.722062032128</ele>
        <time>2020-06-14T13:34:22.000Z</time>
      </trkpt>
      <trkpt lat="43.64008" lon="3.8064">
        <ele>67.333334991902</ele>
        <time>2020-06-14T13:34:23.000Z</time>
      </trkpt>
      <trkpt lat="43.64004" lon="3.80642">
        <ele>66.944607951676</ele>
        <time>2020-06-14T13:34:24.000Z</time>
      </trkpt>
      <trkpt lat="43.64" lon="3.80644">
        <ele>66.55588091145</ele>
        <time>2020-06-14T13:34:25.000Z</time>
      </trkpt>
      <trkpt lat="43.63996" lon="3.80646">
        <ele>66.167153871224</ele>
        <time>2020-06-14T13:34:26.000Z</time>
      </trkpt>
      <trkpt lat="43.63992" lon="3.80648">
        <ele>65.764949618111</ele>
        <time>2020-06-14T13:34:27.000Z</time>
      </trkpt>
      <trkpt lat="43.63988" lon="3.80649">
        <ele>65.35257821201</ele>
        <time>2020-06-14T13:34:28.000Z</time>
      </trkpt>
      <trkpt lat="43.63984" lon="3.80649">
        <ele>64.94020680591</ele>
        <time>2020-06-14T13:34:29.000Z</time>
      </trkpt>
      <trkpt lat="43.63979" lon="3.8065">
        <ele>64.527835399809</ele>
        <time>2020-06-14T13:34:30.000Z</time>
      </trkpt>
      <trkpt lat="43.63974" lon="3.80651">
        <ele>64.115463993708</ele>
        <time>2020-06-14T13:34:31.000Z</time>
      </trkpt>
      <trkpt lat="43.63969" lon="3.80653">
        <ele>63.703092587608</ele>
        <time>2020-06-14T13:34:32.000Z</time>
      </trkpt>
      <trkpt lat="43.63965" lon="3.80654">
        <ele>63.290721181507</ele>
        <time>2020-06-14T13:34:33.000Z</time>
      </trkpt>
      <trkpt lat="43.6396" lon="3.80655">
        <ele>62.878349775406</ele>
        <time>2020-06-14T13:34:34.000Z</time>
      </trkpt>
      <trkpt lat="43.63956" lon="3.80656">
        <ele>62.465978369305</ele>
        <time>2020-06-14T13:34:35.000Z</time>
      </trkpt>
      <trkpt lat="43.63951" lon="3.80658">
        <ele>62.053606963205</ele>
        <time>2020-06-14T13:34:36.000Z</time>
      </trkpt>
      <trkpt lat="43.63947" lon="3.80659">
        <ele>61.73899904</ele>
        <time>2020-06-14T13:34:37.000Z</time>
      </trkpt>
      <trkpt lat="43.63944" lon="3.80661">
        <ele>61.43899904</ele>
        <time>2020-06-14T13:34:38.000Z</time>
      </trkpt>
      <trkpt lat="43.6394" lon="3.80662">
        <ele>61.13899904</ele>
        <time>2020-06-14T13:34:39.000Z</time>
      </trkpt>
      <trkpt lat="43.63936" lon="3.80662">
        <ele>60.83899904</ele>
        <time>2020-06-14T13:34:40.000Z</time>
      </trkpt>
      <trkpt lat="43.63932" lon="3.80663">
        <ele>60.53899904</ele>
        <time>2020-06-14T13:34:41.000Z</time>
      </trkpt>
      <trkpt lat="43.63929" lon="3.80665">
        <ele>60.23899904</ele>
        <time>2020-06-14T13:34:42.000Z</time>
      </trkpt>
      <trkpt lat="43.63926" lon="3.80666">
        <ele>59.93899904</ele>
        <time>2020-06-14T13:34:43.000Z</time>
      </trkpt>
      <trkpt lat="43.63922" lon="3.80665">
        <ele>59.63899904</ele>
        <time>2020-06-14T13:34:44.000Z</time>
      </trkpt>
      <trkpt lat="43.63919" lon="3.80664">
        <ele>59.33899904</ele>
        <time>2020-06-14T13:34:45.000Z</time>
      </trkpt>
      <trkpt lat="43.63915" lon="3.80662">
        <ele>59.03899904</ele>
        <time>2020-06-14T13:34:46.000Z</time>
      </trkpt>
      <trkpt lat="43.63912" lon="3.8066">
        <ele>58.82599936</ele>
        <time>2020-06-14T13:34:47.000Z</time>
      </trkpt>
      <trkpt lat="43.6391" lon="3.80656">
        <ele>58.62599936</ele>
        <time>2020-06-14T13:34:48.000Z</time>
      </trkpt>
      <trkpt lat="43.63909" lon="3.80651">
        <ele>58.42599936</ele>
        <time>2020-06-14T13:34:49.000Z</time>
      </trkpt>
      <trkpt lat="43.63907" lon="3.80646">
        <ele>58.22599936</ele>
        <time>2020-06-14T13:34:50.000Z</time>
      </trkpt>
      <trkpt lat="43.63906" lon="3.80641">
        <ele>58.02599936</ele>
        <time>2020-06-14T13:34:51.000Z</time>
      </trkpt>
      <trkpt lat="43.63906" lon="3.80635">
        <ele>57.82599936</ele>
        <time>2020-06-14T13:34:52.000Z</time>
      </trkpt>
      <trkpt lat="43.63906" lon="3.8063">
        <ele>57.62599936</ele>
        <time>2020-06-14T13:34:53.000Z</time>
      </trkpt>
      <trkpt lat="43.63906" lon="3.80626">
        <ele>57.42599936</ele>
        <time>2020-06-14T13:34:54.000Z</time>
      </trkpt>
      <trkpt lat="43.63907" lon="3.80622">
        <ele>57.22599936</ele>
        <time>2020-06-14T13:34:55.000Z</time>
      </trkpt>
      <trkpt lat="43.63907" lon="3.80618">
        <ele>57.02599936</ele>
        <time>2020-06-14T13:34:56.000Z</time>
      </trkpt>
      <trkpt lat="43.63907" lon="3.80614">
        <ele>56.91308667676</ele>
        <time>2020-06-14T13:34:57.000Z</time>
      </trkpt>
      <trkpt lat="43.63907" lon="3.80609">
        <ele>56.813186672668</ele>
        <time>2020-06-14T13:34:58.000Z</time>
      </trkpt>
      <trkpt lat="43.63907" lon="3.80605">
        <ele>56.713286668576</ele>
        <time>2020-06-14T13:34:59.000Z</time>
      </trkpt>
      <trkpt lat="43.63907" lon="3.80601">
        <ele>56.613386664484</ele>
        <time>2020-06-14T13:35:00.000Z</time>
      </trkpt>
      <trkpt lat="43.63907" lon="3.80596">
        <ele>56.513486660392</ele>
        <time>2020-06-14T13:35:01.000Z</time>
      </trkpt>
      <trkpt lat="43.63907" lon="3.80592">
        <ele>56.413586656301</ele>
        <time>2020-06-14T13:35:02.000Z</time>
      </trkpt>
      <trkpt lat="43.63907" lon="3.80587">
        <ele>56.313686652209</ele>
        <time>2020-06-14T13:35:03.000Z</time>
      </trkpt>
      <trkpt lat="43.63907" lon="3.80583">
        <ele>56.213786648117</ele>
        <time>2020-06-14T13:35:04.000Z</time>
      </trkpt>
      <trkpt lat="43.63906" lon="3.80578">
        <ele>56.113886644025</ele>
        <time>2020-06-14T13:35:05.000Z</time>
      </trkpt>
      <trkpt lat="43.63907" lon="3.80573">
        <ele>56.013986639933</ele>
        <time>2020-06-14T13:35:06.000Z</time>
      </trkpt>
      <trkpt lat="43.63907" lon="3.80568">
        <ele>56</ele>
        <time>2020-06-14T13:35:07.000Z</time>
      </trkpt>
      <trkpt lat="43.63907" lon="3.80564">
        <ele>56</ele>
        <time>2020-06-14T13:35:08.000Z</time>
      </trkpt>
      <trkpt lat="43.63907" lon="3.80559">
        <ele>56</ele>
        <time>2020-06-14T13:35:09.000Z</time>
      </trkpt>
      <trkpt lat="43.63907" lon="3.80554">
        <ele>56</ele>
        <time>2020-06-14T13:35:10.000Z</time>
      </trkpt>
      <trkpt lat="43.63907" lon="3.80549">
        <ele>56</ele>
        <time>2020-06-14T13:35:11.000Z</time>
      </trkpt>
      <trkpt lat="43.63907" lon="3.80544">
        <ele>56</ele>
        <time>2020-06-14T13:35:12.000Z</time>
      </trkpt>
      <trkpt lat="43.63907" lon="3.80539">
        <ele>56</ele>
        <time>2020-06-14T13:35:13.000Z</time>
      </trkpt>
      <trkpt lat="43.63907" lon="3.80534">
        <ele>56</ele>
        <time>2020-06-14T13:35:14.000Z</time>
      </trkpt>
      <trkpt lat="43.63907" lon="3.80529">
        <ele>56</ele>
        <time>2020-06-14T13:35:15.000Z</time>
      </trkpt>
      <trkpt lat="43.63908" lon="3.80524">
        <ele>56</ele>
        <time>2020-06-14T13:35:16.000Z</time>
      </trkpt>
      <trkpt lat="43.63909" lon="3.8052">
        <ele>56</ele>
        <time>2020-06-14T13:35:17.000Z</time>
      </trkpt>
      <trkpt lat="43.6391" lon="3.80515">
        <ele>56</ele>
        <time>2020-06-14T13:35:18.000Z</time>
      </trkpt>
      <trkpt lat="43.6391" lon="3.80512">
        <ele>56</ele>
        <time>2020-06-14T13:35:19.000Z</time>
      </trkpt>
      <trkpt lat="43.6391" lon="3.80508">
        <ele>56</ele>
        <time>2020-06-14T13:35:20.000Z</time>
      </trkpt>
      <trkpt lat="43.63911" lon="3.80505">
        <ele>56</ele>
        <time>2020-06-14T13:35:21.000Z</time>
      </trkpt>
      <trkpt lat="43.63911" lon="3.80503">
        <ele>56</ele>
        <time>2020-06-14T13:35:22.000Z</time>
      </trkpt>
      <trkpt lat="43.6391" lon="3.80499">
        <ele>56</ele>
        <time>2020-06-14T13:35:24.000Z</time>
      </trkpt>
      <trkpt lat="43.63908" lon="3.80498">
        <ele>56</ele>
        <time>2020-06-14T13:35:25.000Z</time>
      </trkpt>
      <trkpt lat="43.63906" lon="3.80495">
        <ele>56</ele>
        <time>2020-06-14T13:35:26.000Z</time>
      </trkpt>
      <trkpt lat="43.63905" lon="3.80491">
        <ele>56</ele>
        <time>2020-06-14T13:35:27.000Z</time>
      </trkpt>
      <trkpt lat="43.63905" lon="3.80487">
        <ele>56</ele>
        <time>2020-06-14T13:35:28.000Z</time>
      </trkpt>
      <trkpt lat="43.63904" lon="3.80483">
        <ele>56</ele>
        <time>2020-06-14T13:35:29.000Z</time>
      </trkpt>
      <trkpt lat="43.63904" lon="3.8048">
        <ele>56</ele>
        <time>2020-06-14T13:35:30.000Z</time>
      </trkpt>
      <trkpt lat="43.63902" lon="3.80476">
        <ele>56</ele>
        <time>2020-06-14T13:35:31.000Z</time>
      </trkpt>
      <trkpt lat="43.63901" lon="3.80474">
        <ele>56</ele>
        <time>2020-06-14T13:35:32.000Z</time>
      </trkpt>
      <trkpt lat="43.639" lon="3.80471">
        <ele>56</ele>
        <time>2020-06-14T13:35:33.000Z</time>
      </trkpt>
      <trkpt lat="43.63899" lon="3.80468">
        <ele>56</ele>
        <time>2020-06-14T13:35:34.000Z</time>
      </trkpt>
      <trkpt lat="43.63898" lon="3.80464">
        <ele>56</ele>
        <time>2020-06-14T13:35:35.000Z</time>
      </trkpt>
      <trkpt lat="43.63897" lon="3.80462">
        <ele>56</ele>
        <time>2020-06-14T13:35:36.000Z</time>
      </trkpt>
      <trkpt lat="43.63895" lon="3.80459">
        <ele>55.91491526249</ele>
        <time>2020-06-14T13:35:37.000Z</time>
      </trkpt>
      <trkpt lat="43.63893" lon="3.80456">
        <ele>55.814815194454</ele>
        <time>2020-06-14T13:35:38.000Z</time>
      </trkpt>
      <trkpt lat="43.63891" lon="3.80453">
        <ele>55.714715126418</ele>
        <time>2020-06-14T13:35:39.000Z</time>
      </trkpt>
      <trkpt lat="43.63888" lon="3.8045">
        <ele>55.614615058382</ele>
        <time>2020-06-14T13:35:40.000Z</time>
      </trkpt>
      <trkpt lat="43.63886" lon="3.80447">
        <ele>55.514514990346</ele>
        <time>2020-06-14T13:35:41.000Z</time>
      </trkpt>
      <trkpt lat="43.63884" lon="3.80444">
        <ele>55.414414922309</ele>
        <time>2020-06-14T13:35:42.000Z</time>
      </trkpt>
      <trkpt lat="43.63883" lon="3.80442">
        <ele>55.314314854273</ele>
        <time>2020-06-14T13:35:43.000Z</time>
      </trkpt>
      <trkpt lat="43.63881" lon="3.8044">
        <ele>55.214214786237</ele>
        <time>2020-06-14T13:35:44.000Z</time>
      </trkpt>
      <trkpt lat="43.6388" lon="3.80438">
        <ele>55.114114718201</ele>
        <time>2020-06-14T13:35:45.000Z</time>
      </trkpt>
      <trkpt lat="43.63878" lon="3.80436">
        <ele>55.014014650165</ele>
        <time>2020-06-14T13:35:46.000Z</time>
      </trkpt>
      <trkpt lat="43.63877" lon="3.80434">
        <ele>54.91400064</ele>
        <time>2020-06-14T13:35:47.000Z</time>
      </trkpt>
      <trkpt lat="43.63876" lon="3.80432">
        <ele>54.81400064</ele>
        <time>2020-06-14T13:35:48.000Z</time>
      </trkpt>
      <trkpt lat="43.63873" lon="3.80429">
        <ele>54.61400064</ele>
        <time>2020-06-14T13:35:50.000Z</time>
      </trkpt>
      <trkpt lat="43.63872" lon="3.80427">
        <ele>54.51400064</ele>
        <time>2020-06-14T13:35:51.000Z</time>
      </trkpt>
      <trkpt lat="43.63871" lon="3.80425">
        <ele>54.41400064</ele>
        <time>2020-06-14T13:35:52.000Z</time>
      </trkpt>
      <trkpt lat="43.63869" lon="3.80423">
        <ele>54.31400064</ele>
        <time>2020-06-14T13:35:53.000Z</time>
      </trkpt>
      <trkpt lat="43.63868" lon="3.80421">
        <ele>54.21400064</ele>
        <time>2020-06-14T13:35:54.000Z</time>
      </trkpt>
      <trkpt lat="43.63867" lon="3.80419">
        <ele>54.11400064</ele>
        <time>2020-06-14T13:35:55.000Z</time>
      </trkpt>
      <trkpt lat="43.63865" lon="3.80417">
        <ele>54.01400064</ele>
        <time>2020-06-14T13:35:56.000Z</time>
      </trkpt>
      <trkpt lat="43.63864" lon="3.80414">
        <ele>54</ele>
        <time>2020-06-14T13:35:57.000Z</time>
      </trkpt>
      <trkpt lat="43.63862" lon="3.80412">
        <ele>54</ele>
        <time>2020-06-14T13:35:58.000Z</time>
      </trkpt>
      <trkpt lat="43.6386" lon="3.8041">
        <ele>54</ele>
        <time>2020-06-14T13:35:59.000Z</time>
      </trkpt>
      <trkpt lat="43.63859" lon="3.80408">
        <ele>54</ele>
        <time>2020-06-14T13:36:00.000Z</time>
      </trkpt>
      <trkpt lat="43.63857" lon="3.80406">
        <ele>54</ele>
        <time>2020-06-14T13:36:01.000Z</time>
      </trkpt>
      <trkpt lat="43.63855" lon="3.80403">
        <ele>54</ele>
        <time>2020-06-14T13:36:02.000Z</time>
      </trkpt>
      <trkpt lat="43.63853" lon="3.804">
        <ele>54</ele>
        <time>2020-06-14T13:36:03.000Z</time>
      </trkpt>
      <trkpt lat="43.63851" lon="3.80398">
        <ele>54</ele>
        <time>2020-06-14T13:36:04.000Z</time>
      </trkpt>
      <trkpt lat="43.63849" lon="3.80395">
        <ele>54</ele>
        <time>2020-06-14T13:36:05.000Z</time>
      </trkpt>
      <trkpt lat="43.63848" lon="3.80393">
        <ele>54</ele>
        <time>2020-06-14T13:36:06.000Z</time>
      </trkpt>
      <trkpt lat="43.63846" lon="3.8039">
        <ele>54</ele>
        <time>2020-06-14T13:36:07.000Z</time>
      </trkpt>
      <trkpt lat="43.63844" lon="3.80388">
        <ele>54</ele>
        <time>2020-06-14T13:36:08.000Z</time>
      </trkpt>
      <trkpt lat="43.63841" lon="3.80386">
        <ele>54</ele>
        <time>2020-06-14T13:36:09.000Z</time>
      </trkpt>
      <trkpt lat="43.63839" lon="3.80383">
        <ele>54</ele>
        <time>2020-06-14T13:36:10.000Z</time>
      </trkpt>
      <trkpt lat="43.63838" lon="3.80379">
        <ele>54</ele>
        <time>2020-06-14T13:36:11.000Z</time>
      </trkpt>
      <trkpt lat="43.63837" lon="3.80375">
        <ele>54</ele>
        <time>2020-06-14T13:36:12.000Z</time>
      </trkpt>
      <trkpt lat="43.63837" lon="3.8037">
        <ele>54</ele>
        <time>2020-06-14T13:36:13.000Z</time>
      </trkpt>
      <trkpt lat="43.63838" lon="3.80366">
        <ele>54</ele>
        <time>2020-06-14T13:36:14.000Z</time>
      </trkpt>
      <trkpt lat="43.63838" lon="3.80363">
        <ele>54</ele>
        <time>2020-06-14T13:36:15.000Z</time>
      </trkpt>
      <trkpt lat="43.63838" lon="3.80359">
        <ele>54</ele>
        <time>2020-06-14T13:36:16.000Z</time>
      </trkpt>
      <trkpt lat="43.63838" lon="3.80356">
        <ele>53.913259927973</ele>
        <time>2020-06-14T13:36:17.000Z</time>
      </trkpt>
      <trkpt lat="43.63837" lon="3.80353">
        <ele>53.813559062474</ele>
        <time>2020-06-14T13:36:18.000Z</time>
      </trkpt>
      <trkpt lat="43.63836" lon="3.8035">
        <ele>53.713858196974</ele>
        <time>2020-06-14T13:36:19.000Z</time>
      </trkpt>
      <trkpt lat="43.63834" lon="3.80349">
        <ele>53.614157331475</ele>
        <time>2020-06-14T13:36:20.000Z</time>
      </trkpt>
      <trkpt lat="43.63832" lon="3.80347">
        <ele>53.514456465976</ele>
        <time>2020-06-14T13:36:21.000Z</time>
      </trkpt>
      <trkpt lat="43.63829" lon="3.80347">
        <ele>53.414755600477</ele>
        <time>2020-06-14T13:36:22.000Z</time>
      </trkpt>
      <trkpt lat="43.63826" lon="3.80346">
        <ele>53.315054734978</ele>
        <time>2020-06-14T13:36:23.000Z</time>
      </trkpt>
      <trkpt lat="43.63823" lon="3.80345">
        <ele>53.215353869478</ele>
        <time>2020-06-14T13:36:24.000Z</time>
      </trkpt>
      <trkpt lat="43.6382" lon="3.80344">
        <ele>53.115653003979</ele>
        <time>2020-06-14T13:36:25.000Z</time>
      </trkpt>
      <trkpt lat="43.63817" lon="3.80341">
        <ele>53.01595213848</ele>
        <time>2020-06-14T13:36:26.000Z</time>
      </trkpt>
      <trkpt lat="43.63815" lon="3.80337">
        <ele>53.084092461343</ele>
        <time>2020-06-14T13:36:27.000Z</time>
      </trkpt>
      <trkpt lat="43.63813" lon="3.80334">
        <ele>53.184202534371</ele>
        <time>2020-06-14T13:36:28.000Z</time>
      </trkpt>
      <trkpt lat="43.63812" lon="3.80331">
        <ele>53.284312607398</ele>
        <time>2020-06-14T13:36:29.000Z</time>
      </trkpt>
      <trkpt lat="43.6381" lon="3.80328">
        <ele>53.384422680426</ele>
        <time>2020-06-14T13:36:30.000Z</time>
      </trkpt>
      <trkpt lat="43.63808" lon="3.80325">
        <ele>53.484532753453</ele>
        <time>2020-06-14T13:36:31.000Z</time>
      </trkpt>
      <trkpt lat="43.63806" lon="3.80321">
        <ele>53.584642826481</ele>
        <time>2020-06-14T13:36:32.000Z</time>
      </trkpt>
      <trkpt lat="43.63804" lon="3.80318">
        <ele>53.684752899508</ele>
        <time>2020-06-14T13:36:33.000Z</time>
      </trkpt>
      <trkpt lat="43.63802" lon="3.80315">
        <ele>53.784862972536</ele>
        <time>2020-06-14T13:36:34.000Z</time>
      </trkpt>
      <trkpt lat="43.638" lon="3.80311">
        <ele>53.884973045563</ele>
        <time>2020-06-14T13:36:35.000Z</time>
      </trkpt>
      <trkpt lat="43.63798" lon="3.80308">
        <ele>53.985083118591</ele>
        <time>2020-06-14T13:36:36.000Z</time>
      </trkpt>
      <trkpt lat="43.63797" lon="3.80304">
        <ele>53.917226404782</ele>
        <time>2020-06-14T13:36:37.000Z</time>
      </trkpt>
      <trkpt lat="43.63795" lon="3.803">
        <ele>53.819959586804</ele>
        <time>2020-06-14T13:36:38.000Z</time>
      </trkpt>
      <trkpt lat="43.63794" lon="3.80296">
        <ele>53.722692768827</ele>
        <time>2020-06-14T13:36:39.000Z</time>
      </trkpt>
      <trkpt lat="43.63793" lon="3.80293">
        <ele>53.625425950849</ele>
        <time>2020-06-14T13:36:40.000Z</time>
      </trkpt>
      <trkpt lat="43.63791" lon="3.80289">
        <ele>53.528159132872</ele>
        <time>2020-06-14T13:36:41.000Z</time>
      </trkpt>
      <trkpt lat="43.6379" lon="3.80285">
        <ele>53.430892314894</ele>
        <time>2020-06-14T13:36:42.000Z</time>
      </trkpt>
      <trkpt lat="43.63788" lon="3.80281">
        <ele>53.333625496917</ele>
        <time>2020-06-14T13:36:43.000Z</time>
      </trkpt>
      <trkpt lat="43.63787" lon="3.80278">
        <ele>53.236358678939</ele>
        <time>2020-06-14T13:36:44.000Z</time>
      </trkpt>
      <trkpt lat="43.63786" lon="3.80274">
        <ele>53.041825042984</ele>
        <time>2020-06-14T13:36:46.000Z</time>
      </trkpt>
      <trkpt lat="43.63785" lon="3.80271">
        <ele>53</ele>
        <time>2020-06-14T13:36:48.000Z</time>
      </trkpt>
      <trkpt lat="43.63784" lon="3.80267">
        <ele>53</ele>
        <time>2020-06-14T13:36:50.000Z</time>
      </trkpt>
      <trkpt lat="43.63784" lon="3.80263">
        <ele>53</ele>
        <time>2020-06-14T13:36:52.000Z</time>
      </trkpt>
      <trkpt lat="43.63783" lon="3.8026">
        <ele>53</ele>
        <time>2020-06-14T13:36:54.000Z</time>
      </trkpt>
      <trkpt lat="43.63783" lon="3.80257">
        <ele>53</ele>
        <time>2020-06-14T13:36:56.000Z</time>
      </trkpt>
      <trkpt lat="43.63783" lon="3.80255">
        <ele>53</ele>
        <time>2020-06-14T13:36:57.000Z</time>
      </trkpt>
      <trkpt lat="43.63783" lon="3.80252">
        <ele>53</ele>
        <time>2020-06-14T13:36:58.000Z</time>
      </trkpt>
      <trkpt lat="43.63783" lon="3.80248">
        <ele>53</ele>
        <time>2020-06-14T13:36:59.000Z</time>
      </trkpt>
      <trkpt lat="43.63783" lon="3.80245">
        <ele>53</ele>
        <time>2020-06-14T13:37:00.000Z</time>
      </trkpt>
      <trkpt lat="43.63783" lon="3.80242">
        <ele>53</ele>
        <time>2020-06-14T13:37:01.000Z</time>
      </trkpt>
      <trkpt lat="43.63783" lon="3.80238">
        <ele>53</ele>
        <time>2020-06-14T13:37:02.000Z</time>
      </trkpt>
      <trkpt lat="43.63783" lon="3.80235">
        <ele>53</ele>
        <time>2020-06-14T13:37:03.000Z</time>
      </trkpt>
      <trkpt lat="43.63783" lon="3.80232">
        <ele>53</ele>
        <time>2020-06-14T13:37:04.000Z</time>
      </trkpt>
      <trkpt lat="43.63783" lon="3.80228">
        <ele>53</ele>
        <time>2020-06-14T13:37:05.000Z</time>
      </trkpt>
      <trkpt lat="43.63784" lon="3.80224">
        <ele>53</ele>
        <time>2020-06-14T13:37:06.000Z</time>
      </trkpt>
      <trkpt lat="43.63784" lon="3.80221">
        <ele>53</ele>
        <time>2020-06-14T13:37:07.000Z</time>
      </trkpt>
      <trkpt lat="43.63784" lon="3.80217">
        <ele>53</ele>
        <time>2020-06-14T13:37:08.000Z</time>
      </trkpt>
      <trkpt lat="43.63785" lon="3.80213">
        <ele>53</ele>
        <time>2020-06-14T13:37:09.000Z</time>
      </trkpt>
      <trkpt lat="43.63786" lon="3.80209">
        <ele>53</ele>
        <time>2020-06-14T13:37:10.000Z</time>
      </trkpt>
      <trkpt lat="43.63787" lon="3.80204">
        <ele>53</ele>
        <time>2020-06-14T13:37:11.000Z</time>
      </trkpt>
      <trkpt lat="43.63789" lon="3.802">
        <ele>53</ele>
        <time>2020-06-14T13:37:12.000Z</time>
      </trkpt>
      <trkpt lat="43.63791" lon="3.80195">
        <ele>53</ele>
        <time>2020-06-14T13:37:13.000Z</time>
      </trkpt>
      <trkpt lat="43.63793" lon="3.80191">
        <ele>53</ele>
        <time>2020-06-14T13:37:14.000Z</time>
      </trkpt>
      <trkpt lat="43.63795" lon="3.80186">
        <ele>53</ele>
        <time>2020-06-14T13:37:15.000Z</time>
      </trkpt>
      <trkpt lat="43.63798" lon="3.80182">
        <ele>53</ele>
        <time>2020-06-14T13:37:16.000Z</time>
      </trkpt>
      <trkpt lat="43.63801" lon="3.80177">
        <ele>53</ele>
        <time>2020-06-14T13:37:17.000Z</time>
      </trkpt>
      <trkpt lat="43.63804" lon="3.80173">
        <ele>53</ele>
        <time>2020-06-14T13:37:18.000Z</time>
      </trkpt>
      <trkpt lat="43.63807" lon="3.8017">
        <ele>53</ele>
        <time>2020-06-14T13:37:19.000Z</time>
      </trkpt>
      <trkpt lat="43.63811" lon="3.80167">
        <ele>53</ele>
        <time>2020-06-14T13:37:20.000Z</time>
      </trkpt>
      <trkpt lat="43.63814" lon="3.80163">
        <ele>53</ele>
        <time>2020-06-14T13:37:21.000Z</time>
      </trkpt>
      <trkpt lat="43.63817" lon="3.8016">
        <ele>53</ele>
        <time>2020-06-14T13:37:22.000Z</time>
      </trkpt>
      <trkpt lat="43.6382" lon="3.80157">
        <ele>53</ele>
        <time>2020-06-14T13:37:23.000Z</time>
      </trkpt>
      <trkpt lat="43.63823" lon="3.80155">
        <ele>53</ele>
        <time>2020-06-14T13:37:24.000Z</time>
      </trkpt>
      <trkpt lat="43.63826" lon="3.80152">
        <ele>53</ele>
        <time>2020-06-14T13:37:25.000Z</time>
      </trkpt>
      <trkpt lat="43.63828" lon="3.80151">
        <ele>53</ele>
        <time>2020-06-14T13:37:26.000Z</time>
      </trkpt>
      <trkpt lat="43.63831" lon="3.80149">
        <ele>53</ele>
        <time>2020-06-14T13:37:27.000Z</time>
      </trkpt>
      <trkpt lat="43.63833" lon="3.80148">
        <ele>53</ele>
        <time>2020-06-14T13:37:28.000Z</time>
      </trkpt>
      <trkpt lat="43.63835" lon="3.80147">
        <ele>53</ele>
        <time>2020-06-14T13:37:29.000Z</time>
      </trkpt>
      <trkpt lat="43.63837" lon="3.80145">
        <ele>53</ele>
        <time>2020-06-14T13:37:30.000Z</time>
      </trkpt>
      <trkpt lat="43.63839" lon="3.80143">
        <ele>53</ele>
        <time>2020-06-14T13:37:31.000Z</time>
      </trkpt>
      <trkpt lat="43.63841" lon="3.8014">
        <ele>53</ele>
        <time>2020-06-14T13:37:32.000Z</time>
      </trkpt>
      <trkpt lat="43.63844" lon="3.80138">
        <ele>53</ele>
        <time>2020-06-14T13:37:33.000Z</time>
      </trkpt>
      <trkpt lat="43.63847" lon="3.80136">
        <ele>53</ele>
        <time>2020-06-14T13:37:34.000Z</time>
      </trkpt>
      <trkpt lat="43.6385" lon="3.80134">
        <ele>53</ele>
        <time>2020-06-14T13:37:35.000Z</time>
      </trkpt>
      <trkpt lat="43.63853" lon="3.80133">
        <ele>53</ele>
        <time>2020-06-14T13:37:36.000Z</time>
      </trkpt>
      <trkpt lat="43.63856" lon="3.80131">
        <ele>53</ele>
        <time>2020-06-14T13:37:37.000Z</time>
      </trkpt>
      <trkpt lat="43.63858" lon="3.8013">
        <ele>53</ele>
        <time>2020-06-14T13:37:38.000Z</time>
      </trkpt>
      <trkpt lat="43.6386" lon="3.80128">
        <ele>53</ele>
        <time>2020-06-14T13:37:39.000Z</time>
      </trkpt>
      <trkpt lat="43.63862" lon="3.80125">
        <ele>53</ele>
        <time>2020-06-14T13:37:40.000Z</time>
      </trkpt>
      <trkpt lat="43.63865" lon="3.80123">
        <ele>53</ele>
        <time>2020-06-14T13:37:41.000Z</time>
      </trkpt>
      <trkpt lat="43.63867" lon="3.8012">
        <ele>53</ele>
        <time>2020-06-14T13:37:42.000Z</time>
      </trkpt>
      <trkpt lat="43.63869" lon="3.80118">
        <ele>53</ele>
        <time>2020-06-14T13:37:43.000Z</time>
      </trkpt>
      <trkpt lat="43.6387" lon="3.80116">
        <ele>53</ele>
        <time>2020-06-14T13:37:44.000Z</time>
      </trkpt>
      <trkpt lat="43.63872" lon="3.80114">
        <ele>53</ele>
        <time>2020-06-14T13:37:45.000Z</time>
      </trkpt>
      <trkpt lat="43.63873" lon="3.80112">
        <ele>53</ele>
        <time>2020-06-14T13:37:46.000Z</time>
      </trkpt>
      <trkpt lat="43.63875" lon="3.8011">
        <ele>53.17400064</ele>
        <time>2020-06-14T13:37:47.000Z</time>
      </trkpt>
      <trkpt lat="43.63877" lon="3.80109">
        <ele>53.37400064</ele>
        <time>2020-06-14T13:37:48.000Z</time>
      </trkpt>
      <trkpt lat="43.63879" lon="3.80108">
        <ele>53.57400064</ele>
        <time>2020-06-14T13:37:49.000Z</time>
      </trkpt>
      <trkpt lat="43.63882" lon="3.80107">
        <ele>53.97400064</ele>
        <time>2020-06-14T13:37:51.000Z</time>
      </trkpt>
      <trkpt lat="43.63884" lon="3.80107">
        <ele>54.17400064</ele>
        <time>2020-06-14T13:37:52.000Z</time>
      </trkpt>
      <trkpt lat="43.63886" lon="3.80107">
        <ele>54.37400064</ele>
        <time>2020-06-14T13:37:53.000Z</time>
      </trkpt>
      <trkpt lat="43.63888" lon="3.80106">
        <ele>54.57400064</ele>
        <time>2020-06-14T13:37:54.000Z</time>
      </trkpt>
      <trkpt lat="43.63889" lon="3.80104">
        <ele>54.77400064</ele>
        <time>2020-06-14T13:37:55.000Z</time>
      </trkpt>
      <trkpt lat="43.63891" lon="3.80102">
        <ele>54.97400064</ele>
        <time>2020-06-14T13:37:56.000Z</time>
      </trkpt>
      <trkpt lat="43.63894" lon="3.801">
        <ele>55</ele>
        <time>2020-06-14T13:37:58.000Z</time>
      </trkpt>
      <trkpt lat="43.63897" lon="3.80099">
        <ele>55</ele>
        <time>2020-06-14T13:38:00.000Z</time>
      </trkpt>
      <trkpt lat="43.63896" lon="3.80102">
        <ele>55</ele>
        <time>2020-06-14T13:38:02.000Z</time>
      </trkpt>
      <trkpt lat="43.63892" lon="3.80103">
        <ele>55</ele>
        <time>2020-06-14T13:38:04.000Z</time>
      </trkpt>
      <trkpt lat="43.6389" lon="3.80103">
        <ele>55</ele>
        <time>2020-06-14T13:38:05.000Z</time>
      </trkpt>
      <trkpt lat="43.63889" lon="3.80104">
        <ele>55</ele>
        <time>2020-06-14T13:38:06.000Z</time>
      </trkpt>
      <trkpt lat="43.63887" lon="3.80106">
        <ele>55</ele>
        <time>2020-06-14T13:38:07.000Z</time>
      </trkpt>
      <trkpt lat="43.63885" lon="3.80108">
        <ele>55</ele>
        <time>2020-06-14T13:38:08.000Z</time>
      </trkpt>
      <trkpt lat="43.63884" lon="3.8011">
        <ele>55</ele>
        <time>2020-06-14T13:38:09.000Z</time>
      </trkpt>
      <trkpt lat="43.63882" lon="3.80111">
        <ele>55</ele>
        <time>2020-06-14T13:38:10.000Z</time>
      </trkpt>
      <trkpt lat="43.63881" lon="3.80111">
        <ele>55</ele>
        <time>2020-06-14T13:38:16.000Z</time>
      </trkpt>
      <trkpt lat="43.63879" lon="3.8011">
        <ele>55</ele>
        <time>2020-06-14T13:45:26.000Z</time>
      </trkpt>
      <trkpt lat="43.63882" lon="3.80108">
        <ele>55</ele>
        <time>2020-06-14T13:45:28.000Z</time>
      </trkpt>
      <trkpt lat="43.63885" lon="3.80107">
        <ele>55</ele>
        <time>2020-06-14T13:45:30.000Z</time>
      </trkpt>
      <trkpt lat="43.63888" lon="3.80105">
        <ele>55</ele>
        <time>2020-06-14T13:45:32.000Z</time>
      </trkpt>
      <trkpt lat="43.6389" lon="3.80105">
        <ele>55</ele>
        <time>2020-06-14T13:45:33.000Z</time>
      </trkpt>
      <trkpt lat="43.63892" lon="3.80102">
        <ele>55</ele>
        <time>2020-06-14T13:45:35.000Z</time>
      </trkpt>
      <trkpt lat="43.63895" lon="3.80102">
        <ele>54.915451557769</ele>
        <time>2020-06-14T13:45:37.000Z</time>
      </trkpt>
      <trkpt lat="43.63893" lon="3.80104">
        <ele>54.6239062776</ele>
        <time>2020-06-14T13:45:40.000Z</time>
      </trkpt>
      <trkpt lat="43.6389" lon="3.80105">
        <ele>54.429542757487</ele>
        <time>2020-06-14T13:45:42.000Z</time>
      </trkpt>
      <trkpt lat="43.63888" lon="3.80106">
        <ele>54.33236099743</ele>
        <time>2020-06-14T13:45:43.000Z</time>
      </trkpt>
      <trkpt lat="43.63885" lon="3.80108">
        <ele>54.137997477317</ele>
        <time>2020-06-14T13:45:45.000Z</time>
      </trkpt>
      <trkpt lat="43.63882" lon="3.8011">
        <ele>54</ele>
        <time>2020-06-14T13:45:47.000Z</time>
      </trkpt>
      <trkpt lat="43.6388" lon="3.80109">
        <ele>54</ele>
        <time>2020-06-14T13:45:49.000Z</time>
      </trkpt>
      <trkpt lat="43.63878" lon="3.80109">
        <ele>54</ele>
        <time>2020-06-14T13:45:51.000Z</time>
      </trkpt>
      <trkpt lat="43.63876" lon="3.80111">
        <ele>54</ele>
        <time>2020-06-14T13:45:53.000Z</time>
      </trkpt>
      <trkpt lat="43.63876" lon="3.80114">
        <ele>54</ele>
        <time>2020-06-14T13:45:55.000Z</time>
      </trkpt>
      <trkpt lat="43.63878" lon="3.80115">
        <ele>53.886076245616</ele>
        <time>2020-06-14T13:45:57.000Z</time>
      </trkpt>
      <trkpt lat="43.6388" lon="3.80113">
        <ele>53.60478191363</ele>
        <time>2020-06-14T13:45:59.000Z</time>
      </trkpt>
      <trkpt lat="43.6388" lon="3.80114">
        <ele>53.042193249656</ele>
        <time>2020-06-14T13:46:03.000Z</time>
      </trkpt>
      <trkpt lat="43.63884" lon="3.80106">
        <ele>53.995191717633</ele>
        <time>2020-06-14T13:47:14.000Z</time>
      </trkpt>
      <trkpt lat="43.63886" lon="3.80105">
        <ele>54</ele>
        <time>2020-06-14T13:47:15.000Z</time>
      </trkpt>
      <trkpt lat="43.63887" lon="3.80103">
        <ele>54</ele>
        <time>2020-06-14T13:47:16.000Z</time>
      </trkpt>
      <trkpt lat="43.63889" lon="3.80102">
        <ele>54</ele>
        <time>2020-06-14T13:47:17.000Z</time>
      </trkpt>
      <trkpt lat="43.63891" lon="3.80101">
        <ele>54</ele>
        <time>2020-06-14T13:47:18.000Z</time>
      </trkpt>
      <trkpt lat="43.63893" lon="3.80101">
        <ele>54</ele>
        <time>2020-06-14T13:47:20.000Z</time>
      </trkpt>
      <trkpt lat="43.63896" lon="3.801">
        <ele>54</ele>
        <time>2020-06-14T13:47:22.000Z</time>
      </trkpt>
      <trkpt lat="43.63898" lon="3.80099">
        <ele>54</ele>
        <time>2020-06-14T13:47:23.000Z</time>
      </trkpt>
      <trkpt lat="43.639" lon="3.80098">
        <ele>54</ele>
        <time>2020-06-14T13:47:24.000Z</time>
      </trkpt>
      <trkpt lat="43.63903" lon="3.80098">
        <ele>54</ele>
        <time>2020-06-14T13:47:25.000Z</time>
      </trkpt>
      <trkpt lat="43.63905" lon="3.80097">
        <ele>54</ele>
        <time>2020-06-14T13:47:26.000Z</time>
      </trkpt>
      <trkpt lat="43.63907" lon="3.80096">
        <ele>54</ele>
        <time>2020-06-14T13:47:27.000Z</time>
      </trkpt>
      <trkpt lat="43.6391" lon="3.80095">
        <ele>54</ele>
        <time>2020-06-14T13:47:28.000Z</time>
      </trkpt>
      <trkpt lat="43.63912" lon="3.80094">
        <ele>54</ele>
        <time>2020-06-14T13:47:29.000Z</time>
      </trkpt>
      <trkpt lat="43.63915" lon="3.80093">
        <ele>54</ele>
        <time>2020-06-14T13:47:30.000Z</time>
      </trkpt>
      <trkpt lat="43.63917" lon="3.80091">
        <ele>54</ele>
        <time>2020-06-14T13:47:31.000Z</time>
      </trkpt>
      <trkpt lat="43.6392" lon="3.8009">
        <ele>54</ele>
        <time>2020-06-14T13:47:32.000Z</time>
      </trkpt>
      <trkpt lat="43.63922" lon="3.80089">
        <ele>54</ele>
        <time>2020-06-14T13:47:33.000Z</time>
      </trkpt>
      <trkpt lat="43.63924" lon="3.80088">
        <ele>54</ele>
        <time>2020-06-14T13:47:34.000Z</time>
      </trkpt>
      <trkpt lat="43.63927" lon="3.80087">
        <ele>54</ele>
        <time>2020-06-14T13:47:35.000Z</time>
      </trkpt>
      <trkpt lat="43.63929" lon="3.80086">
        <ele>54</ele>
        <time>2020-06-14T13:47:36.000Z</time>
      </trkpt>
      <trkpt lat="43.63932" lon="3.80085">
        <ele>54</ele>
        <time>2020-06-14T13:47:37.000Z</time>
      </trkpt>
      <trkpt lat="43.63934" lon="3.80083">
        <ele>54</ele>
        <time>2020-06-14T13:47:38.000Z</time>
      </trkpt>
      <trkpt lat="43.63936" lon="3.80082">
        <ele>54</ele>
        <time>2020-06-14T13:47:39.000Z</time>
      </trkpt>
      <trkpt lat="43.63939" lon="3.8008">
        <ele>54</ele>
        <time>2020-06-14T13:47:40.000Z</time>
      </trkpt>
      <trkpt lat="43.63941" lon="3.80079">
        <ele>54</ele>
        <time>2020-06-14T13:47:41.000Z</time>
      </trkpt>
      <trkpt lat="43.63943" lon="3.80078">
        <ele>54</ele>
        <time>2020-06-14T13:47:42.000Z</time>
      </trkpt>
      <trkpt lat="43.63945" lon="3.80076">
        <ele>54</ele>
        <time>2020-06-14T13:47:43.000Z</time>
      </trkpt>
      <trkpt lat="43.63947" lon="3.80075">
        <ele>54</ele>
        <time>2020-06-14T13:47:44.000Z</time>
      </trkpt>
      <trkpt lat="43.63949" lon="3.80074">
        <ele>54</ele>
        <time>2020-06-14T13:47:45.000Z</time>
      </trkpt>
      <trkpt lat="43.63951" lon="3.80073">
        <ele>54</ele>
        <time>2020-06-14T13:47:46.000Z</time>
      </trkpt>
      <trkpt lat="43.63953" lon="3.80072">
        <ele>54</ele>
        <time>2020-06-14T13:47:47.000Z</time>
      </trkpt>
      <trkpt lat="43.63954" lon="3.80071">
        <ele>54</ele>
        <time>2020-06-14T13:47:48.000Z</time>
      </trkpt>
      <trkpt lat="43.63956" lon="3.8007">
        <ele>54</ele>
        <time>2020-06-14T13:47:49.000Z</time>
      </trkpt>
      <trkpt lat="43.63958" lon="3.80069">
        <ele>54</ele>
        <time>2020-06-14T13:47:50.000Z</time>
      </trkpt>
      <trkpt lat="43.6396" lon="3.80067">
        <ele>54</ele>
        <time>2020-06-14T13:47:51.000Z</time>
      </trkpt>
      <trkpt lat="43.63962" lon="3.80066">
        <ele>54</ele>
        <time>2020-06-14T13:47:52.000Z</time>
      </trkpt>
      <trkpt lat="43.63964" lon="3.80065">
        <ele>54</ele>
        <time>2020-06-14T13:47:53.000Z</time>
      </trkpt>
      <trkpt lat="43.63966" lon="3.80064">
        <ele>54</ele>
        <time>2020-06-14T13:47:54.000Z</time>
      </trkpt>
      <trkpt lat="43.63968" lon="3.80064">
        <ele>54.08700032</ele>
        <time>2020-06-14T13:47:55.000Z</time>
      </trkpt>
      <trkpt lat="43.6397" lon="3.80063">
        <ele>54.18700032</ele>
        <time>2020-06-14T13:47:56.000Z</time>
      </trkpt>
      <trkpt lat="43.63972" lon="3.80061">
        <ele>54.28700032</ele>
        <time>2020-06-14T13:47:57.000Z</time>
      </trkpt>
      <trkpt lat="43.63974" lon="3.8006">
        <ele>54.38700032</ele>
        <time>2020-06-14T13:47:58.000Z</time>
      </trkpt>
      <trkpt lat="43.63976" lon="3.80058">
        <ele>54.48700032</ele>
        <time>2020-06-14T13:47:59.000Z</time>
      </trkpt>
      <trkpt lat="43.63978" lon="3.80057">
        <ele>54.58700032</ele>
        <time>2020-06-14T13:48:00.000Z</time>
      </trkpt>
      <trkpt lat="43.6398" lon="3.80055">
        <ele>54.68700032</ele>
        <time>2020-06-14T13:48:01.000Z</time>
      </trkpt>
      <trkpt lat="43.63983" lon="3.80054">
        <ele>54.78700032</ele>
        <time>2020-06-14T13:48:02.000Z</time>
      </trkpt>
      <trkpt lat="43.63985" lon="3.80053">
        <ele>54.88700032</ele>
        <time>2020-06-14T13:48:03.000Z</time>
      </trkpt>
      <trkpt lat="43.63987" lon="3.80051">
        <ele>54.98700032</ele>
        <time>2020-06-14T13:48:04.000Z</time>
      </trkpt>
      <trkpt lat="43.63989" lon="3.8005">
        <ele>55</ele>
        <time>2020-06-14T13:48:05.000Z</time>
      </trkpt>
      <trkpt lat="43.63991" lon="3.80048">
        <ele>55</ele>
        <time>2020-06-14T13:48:06.000Z</time>
      </trkpt>
      <trkpt lat="43.63994" lon="3.80046">
        <ele>55</ele>
        <time>2020-06-14T13:48:07.000Z</time>
      </trkpt>
      <trkpt lat="43.63996" lon="3.80045">
        <ele>55</ele>
        <time>2020-06-14T13:48:08.000Z</time>
      </trkpt>
      <trkpt lat="43.63999" lon="3.80043">
        <ele>55</ele>
        <time>2020-06-14T13:48:09.000Z</time>
      </trkpt>
      <trkpt lat="43.64001" lon="3.80041">
        <ele>55</ele>
        <time>2020-06-14T13:48:10.000Z</time>
      </trkpt>
      <trkpt lat="43.64004" lon="3.80039">
        <ele>55</ele>
        <time>2020-06-14T13:48:11.000Z</time>
      </trkpt>
      <trkpt lat="43.64007" lon="3.80037">
        <ele>55</ele>
        <time>2020-06-14T13:48:12.000Z</time>
      </trkpt>
      <trkpt lat="43.64009" lon="3.80035">
        <ele>55</ele>
        <time>2020-06-14T13:48:13.000Z</time>
      </trkpt>
      <trkpt lat="43.64012" lon="3.80033">
        <ele>55</ele>
        <time>2020-06-14T13:48:14.000Z</time>
      </trkpt>
      <trkpt lat="43.64014" lon="3.80031">
        <ele>55</ele>
        <time>2020-06-14T13:48:15.000Z</time>
      </trkpt>
      <trkpt lat="43.64017" lon="3.80029">
        <ele>55</ele>
        <time>2020-06-14T13:48:16.000Z</time>
      </trkpt>
      <trkpt lat="43.64019" lon="3.80027">
        <ele>55</ele>
        <time>2020-06-14T13:48:17.000Z</time>
      </trkpt>
      <trkpt lat="43.64022" lon="3.80025">
        <ele>55</ele>
        <time>2020-06-14T13:48:18.000Z</time>
      </trkpt>
      <trkpt lat="43.64025" lon="3.80023">
        <ele>55</ele>
        <time>2020-06-14T13:48:19.000Z</time>
      </trkpt>
      <trkpt lat="43.64027" lon="3.80021">
        <ele>55</ele>
        <time>2020-06-14T13:48:20.000Z</time>
      </trkpt>
      <trkpt lat="43.6403" lon="3.80019">
        <ele>55</ele>
        <time>2020-06-14T13:48:21.000Z</time>
      </trkpt>
      <trkpt lat="43.64032" lon="3.80017">
        <ele>55</ele>
        <time>2020-06-14T13:48:22.000Z</time>
      </trkpt>
      <trkpt lat="43.64034" lon="3.80016">
        <ele>55</ele>
        <time>2020-06-14T13:48:23.000Z</time>
      </trkpt>
      <trkpt lat="43.64037" lon="3.80014">
        <ele>55</ele>
        <time>2020-06-14T13:48:24.000Z</time>
      </trkpt>
      <trkpt lat="43.64039" lon="3.80012">
        <ele>55</ele>
        <time>2020-06-14T13:48:25.000Z</time>
      </trkpt>
      <trkpt lat="43.64042" lon="3.8001">
        <ele>55</ele>
        <time>2020-06-14T13:48:26.000Z</time>
      </trkpt>
      <trkpt lat="43.64044" lon="3.80008">
        <ele>55</ele>
        <time>2020-06-14T13:48:27.000Z</time>
      </trkpt>
      <trkpt lat="43.64047" lon="3.80006">
        <ele>55</ele>
        <time>2020-06-14T13:48:28.000Z</time>
      </trkpt>
      <trkpt lat="43.64049" lon="3.80004">
        <ele>55</ele>
        <time>2020-06-14T13:48:29.000Z</time>
      </trkpt>
      <trkpt lat="43.64052" lon="3.80002">
        <ele>55</ele>
        <time>2020-06-14T13:48:30.000Z</time>
      </trkpt>
      <trkpt lat="43.64055" lon="3.8">
        <ele>55</ele>
        <time>2020-06-14T13:48:31.000Z</time>
      </trkpt>
      <trkpt lat="43.64057" lon="3.79998">
        <ele>55</ele>
        <time>2020-06-14T13:48:32.000Z</time>
      </trkpt>
      <trkpt lat="43.6406" lon="3.79996">
        <ele>55</ele>
        <time>2020-06-14T13:48:33.000Z</time>
      </trkpt>
      <trkpt lat="43.64063" lon="3.79994">
        <ele>55</ele>
        <time>2020-06-14T13:48:34.000Z</time>
      </trkpt>
      <trkpt lat="43.64066" lon="3.79992">
        <ele>54.91299968</ele>
        <time>2020-06-14T13:48:35.000Z</time>
      </trkpt>
      <trkpt lat="43.64068" lon="3.7999">
        <ele>54.81299968</ele>
        <time>2020-06-14T13:48:36.000Z</time>
      </trkpt>
      <trkpt lat="43.64071" lon="3.79987">
        <ele>54.71299968</ele>
        <time>2020-06-14T13:48:37.000Z</time>
      </trkpt>
      <trkpt lat="43.64074" lon="3.79985">
        <ele>54.61299968</ele>
        <time>2020-06-14T13:48:38.000Z</time>
      </trkpt>
      <trkpt lat="43.64077" lon="3.79983">
        <ele>54.51299968</ele>
        <time>2020-06-14T13:48:39.000Z</time>
      </trkpt>
      <trkpt lat="43.64079" lon="3.79981">
        <ele>54.41299968</ele>
        <time>2020-06-14T13:48:40.000Z</time>
      </trkpt>
      <trkpt lat="43.64082" lon="3.79979">
        <ele>54.31299968</ele>
        <time>2020-06-14T13:48:41.000Z</time>
      </trkpt>
      <trkpt lat="43.64084" lon="3.79977">
        <ele>54.21299968</ele>
        <time>2020-06-14T13:48:42.000Z</time>
      </trkpt>
      <trkpt lat="43.64087" lon="3.79976">
        <ele>54.11299968</ele>
        <time>2020-06-14T13:48:43.000Z</time>
      </trkpt>
      <trkpt lat="43.64089" lon="3.79975">
        <ele>54.01299968</ele>
        <time>2020-06-14T13:48:44.000Z</time>
      </trkpt>
      <trkpt lat="43.64091" lon="3.79973">
        <ele>54</ele>
        <time>2020-06-14T13:48:45.000Z</time>
      </trkpt>
      <trkpt lat="43.64094" lon="3.79971">
        <ele>54</ele>
        <time>2020-06-14T13:48:46.000Z</time>
      </trkpt>
      <trkpt lat="43.64096" lon="3.7997">
        <ele>54</ele>
        <time>2020-06-14T13:48:47.000Z</time>
      </trkpt>
      <trkpt lat="43.64099" lon="3.79968">
        <ele>54</ele>
        <time>2020-06-14T13:48:48.000Z</time>
      </trkpt>
      <trkpt lat="43.64101" lon="3.79966">
        <ele>54</ele>
        <time>2020-06-14T13:48:49.000Z</time>
      </trkpt>
      <trkpt lat="43.64104" lon="3.79964">
        <ele>54</ele>
        <time>2020-06-14T13:48:50.000Z</time>
      </trkpt>
      <trkpt lat="43.64106" lon="3.79962">
        <ele>54</ele>
        <time>2020-06-14T13:48:51.000Z</time>
      </trkpt>
      <trkpt lat="43.64108" lon="3.7996">
        <ele>54</ele>
        <time>2020-06-14T13:48:52.000Z</time>
      </trkpt>
      <trkpt lat="43.6411" lon="3.79958">
        <ele>54</ele>
        <time>2020-06-14T13:48:53.000Z</time>
      </trkpt>
      <trkpt lat="43.64112" lon="3.79956">
        <ele>54</ele>
        <time>2020-06-14T13:48:54.000Z</time>
      </trkpt>
      <trkpt lat="43.64113" lon="3.79955">
        <ele>54.060699917696</ele>
        <time>2020-06-14T13:48:55.000Z</time>
      </trkpt>
      <trkpt lat="43.64115" lon="3.79953">
        <ele>54.163580576132</ele>
        <time>2020-06-14T13:48:56.000Z</time>
      </trkpt>
      <trkpt lat="43.64117" lon="3.79951">
        <ele>54.266461234568</ele>
        <time>2020-06-14T13:48:57.000Z</time>
      </trkpt>
      <trkpt lat="43.64119" lon="3.79949">
        <ele>54.369341893004</ele>
        <time>2020-06-14T13:48:58.000Z</time>
      </trkpt>
      <trkpt lat="43.64121" lon="3.79948">
        <ele>54.47222255144</ele>
        <time>2020-06-14T13:48:59.000Z</time>
      </trkpt>
      <trkpt lat="43.64124" lon="3.79947">
        <ele>54.575103209877</ele>
        <time>2020-06-14T13:49:00.000Z</time>
      </trkpt>
      <trkpt lat="43.64126" lon="3.79945">
        <ele>54.677983868313</ele>
        <time>2020-06-14T13:49:01.000Z</time>
      </trkpt>
      <trkpt lat="43.64128" lon="3.79944">
        <ele>54.780864526749</ele>
        <time>2020-06-14T13:49:02.000Z</time>
      </trkpt>
      <trkpt lat="43.6413" lon="3.79942">
        <ele>54.883745185185</ele>
        <time>2020-06-14T13:49:03.000Z</time>
      </trkpt>
      <trkpt lat="43.64132" lon="3.7994">
        <ele>54.986625843621</ele>
        <time>2020-06-14T13:49:04.000Z</time>
      </trkpt>
      <trkpt lat="43.64135" lon="3.79938">
        <ele>55.084548442231</ele>
        <time>2020-06-14T13:49:05.000Z</time>
      </trkpt>
      <trkpt lat="43.64137" lon="3.79937">
        <ele>55.181730202287</ele>
        <time>2020-06-14T13:49:06.000Z</time>
      </trkpt>
      <trkpt lat="43.64139" lon="3.79935">
        <ele>55.278911962344</ele>
        <time>2020-06-14T13:49:07.000Z</time>
      </trkpt>
      <trkpt lat="43.64141" lon="3.79934">
        <ele>55.3760937224</ele>
        <time>2020-06-14T13:49:08.000Z</time>
      </trkpt>
      <trkpt lat="43.64143" lon="3.79933">
        <ele>55.473275482457</ele>
        <time>2020-06-14T13:49:09.000Z</time>
      </trkpt>
      <trkpt lat="43.64145" lon="3.79931">
        <ele>55.570457242513</ele>
        <time>2020-06-14T13:49:10.000Z</time>
      </trkpt>
      <trkpt lat="43.64147" lon="3.7993">
        <ele>55.66763900257</ele>
        <time>2020-06-14T13:49:11.000Z</time>
      </trkpt>
      <trkpt lat="43.64149" lon="3.79928">
        <ele>55.764820762626</ele>
        <time>2020-06-14T13:49:12.000Z</time>
      </trkpt>
      <trkpt lat="43.64151" lon="3.79926">
        <ele>55.862002522683</ele>
        <time>2020-06-14T13:49:13.000Z</time>
      </trkpt>
      <trkpt lat="43.64153" lon="3.79924">
        <ele>55.959184282739</ele>
        <time>2020-06-14T13:49:14.000Z</time>
      </trkpt>
      <trkpt lat="43.64156" lon="3.79922">
        <ele>55.940267125762</ele>
        <time>2020-06-14T13:49:15.000Z</time>
      </trkpt>
      <trkpt lat="43.64158" lon="3.7992">
        <ele>55.837280547961</ele>
        <time>2020-06-14T13:49:16.000Z</time>
      </trkpt>
      <trkpt lat="43.6416" lon="3.79918">
        <ele>55.734293970161</ele>
        <time>2020-06-14T13:49:17.000Z</time>
      </trkpt>
      <trkpt lat="43.64161" lon="3.79917">
        <ele>55.63130739236</ele>
        <time>2020-06-14T13:49:18.000Z</time>
      </trkpt>
      <trkpt lat="43.64163" lon="3.79916">
        <ele>55.52832081456</ele>
        <time>2020-06-14T13:49:19.000Z</time>
      </trkpt>
      <trkpt lat="43.64165" lon="3.79914">
        <ele>55.425334236759</ele>
        <time>2020-06-14T13:49:20.000Z</time>
      </trkpt>
      <trkpt lat="43.64167" lon="3.79913">
        <ele>55.322347658958</ele>
        <time>2020-06-14T13:49:21.000Z</time>
      </trkpt>
      <trkpt lat="43.64169" lon="3.79911">
        <ele>55.219361081158</ele>
        <time>2020-06-14T13:49:22.000Z</time>
      </trkpt>
      <trkpt lat="43.64172" lon="3.79909">
        <ele>55.116374503357</ele>
        <time>2020-06-14T13:49:23.000Z</time>
      </trkpt>
      <trkpt lat="43.64174" lon="3.79908">
        <ele>55.013387925557</ele>
        <time>2020-06-14T13:49:24.000Z</time>
      </trkpt>
      <trkpt lat="43.64176" lon="3.79906">
        <ele>55.08700032</ele>
        <time>2020-06-14T13:49:25.000Z</time>
      </trkpt>
      <trkpt lat="43.64177" lon="3.79905">
        <ele>55.18700032</ele>
        <time>2020-06-14T13:49:26.000Z</time>
      </trkpt>
      <trkpt lat="43.64179" lon="3.79903">
        <ele>55.28700032</ele>
        <time>2020-06-14T13:49:27.000Z</time>
      </trkpt>
      <trkpt lat="43.64182" lon="3.79902">
        <ele>55.38700032</ele>
        <time>2020-06-14T13:49:28.000Z</time>
      </trkpt>
      <trkpt lat="43.64183" lon="3.799">
        <ele>55.48700032</ele>
        <time>2020-06-14T13:49:29.000Z</time>
      </trkpt>
      <trkpt lat="43.64186" lon="3.79898">
        <ele>55.68700032</ele>
        <time>2020-06-14T13:49:31.000Z</time>
      </trkpt>
      <trkpt lat="43.6419" lon="3.79897">
        <ele>55.88700032</ele>
        <time>2020-06-14T13:49:33.000Z</time>
      </trkpt>
      <trkpt lat="43.64193" lon="3.79895">
        <ele>56.08691332324</ele>
        <time>2020-06-14T13:49:35.000Z</time>
      </trkpt>
      <trkpt lat="43.64195" lon="3.79893">
        <ele>56.286713331424</ele>
        <time>2020-06-14T13:49:37.000Z</time>
      </trkpt>
      <trkpt lat="43.64197" lon="3.79894">
        <ele>56.386613335516</ele>
        <time>2020-06-14T13:49:38.000Z</time>
      </trkpt>
      <trkpt lat="43.64199" lon="3.79894">
        <ele>56.486513339608</ele>
        <time>2020-06-14T13:49:39.000Z</time>
      </trkpt>
      <trkpt lat="43.64201" lon="3.79894">
        <ele>56.586413343699</ele>
        <time>2020-06-14T13:49:40.000Z</time>
      </trkpt>
      <trkpt lat="43.64203" lon="3.79895">
        <ele>56.686313347791</ele>
        <time>2020-06-14T13:49:41.000Z</time>
      </trkpt>
      <trkpt lat="43.64206" lon="3.79895">
        <ele>56.786213351883</ele>
        <time>2020-06-14T13:49:42.000Z</time>
      </trkpt>
      <trkpt lat="43.64208" lon="3.79896">
        <ele>56.886113355975</ele>
        <time>2020-06-14T13:49:43.000Z</time>
      </trkpt>
      <trkpt lat="43.6421" lon="3.79896">
        <ele>56.986013360067</ele>
        <time>2020-06-14T13:49:44.000Z</time>
      </trkpt>
      <trkpt lat="43.64212" lon="3.79897">
        <ele>57</ele>
        <time>2020-06-14T13:49:45.000Z</time>
      </trkpt>
      <trkpt lat="43.64214" lon="3.79897">
        <ele>57</ele>
        <time>2020-06-14T13:49:46.000Z</time>
      </trkpt>
      <trkpt lat="43.64216" lon="3.79896">
        <ele>57</ele>
        <time>2020-06-14T13:49:47.000Z</time>
      </trkpt>
      <trkpt lat="43.64217" lon="3.79894">
        <ele>57</ele>
        <time>2020-06-14T13:49:48.000Z</time>
      </trkpt>
      <trkpt lat="43.64219" lon="3.79892">
        <ele>57</ele>
        <time>2020-06-14T13:49:49.000Z</time>
      </trkpt>
      <trkpt lat="43.64219" lon="3.79888">
        <ele>57</ele>
        <time>2020-06-14T13:49:50.000Z</time>
      </trkpt>
      <trkpt lat="43.64219" lon="3.79884">
        <ele>57</ele>
        <time>2020-06-14T13:49:51.000Z</time>
      </trkpt>
      <trkpt lat="43.64219" lon="3.7988">
        <ele>57</ele>
        <time>2020-06-14T13:49:52.000Z</time>
      </trkpt>
      <trkpt lat="43.64219" lon="3.79876">
        <ele>57</ele>
        <time>2020-06-14T13:49:53.000Z</time>
      </trkpt>
      <trkpt lat="43.64219" lon="3.79872">
        <ele>57</ele>
        <time>2020-06-14T13:49:54.000Z</time>
      </trkpt>
      <trkpt lat="43.6422" lon="3.79869">
        <ele>57</ele>
        <time>2020-06-14T13:49:55.000Z</time>
      </trkpt>
      <trkpt lat="43.64221" lon="3.79867">
        <ele>57</ele>
        <time>2020-06-14T13:49:56.000Z</time>
      </trkpt>
      <trkpt lat="43.64222" lon="3.79864">
        <ele>57</ele>
        <time>2020-06-14T13:49:57.000Z</time>
      </trkpt>
      <trkpt lat="43.64224" lon="3.79862">
        <ele>57</ele>
        <time>2020-06-14T13:49:58.000Z</time>
      </trkpt>
      <trkpt lat="43.64226" lon="3.79859">
        <ele>57</ele>
        <time>2020-06-14T13:50:00.000Z</time>
      </trkpt>
      <trkpt lat="43.64228" lon="3.79857">
        <ele>57</ele>
        <time>2020-06-14T13:50:01.000Z</time>
      </trkpt>
      <trkpt lat="43.6423" lon="3.79856">
        <ele>57</ele>
        <time>2020-06-14T13:50:02.000Z</time>
      </trkpt>
      <trkpt lat="43.64232" lon="3.79854">
        <ele>57</ele>
        <time>2020-06-14T13:50:03.000Z</time>
      </trkpt>
      <trkpt lat="43.64235" lon="3.79853">
        <ele>57</ele>
        <time>2020-06-14T13:50:04.000Z</time>
      </trkpt>
      <trkpt lat="43.64237" lon="3.79851">
        <ele>56.91299968</ele>
        <time>2020-06-14T13:50:05.000Z</time>
      </trkpt>
      <trkpt lat="43.64239" lon="3.7985">
        <ele>56.81299968</ele>
        <time>2020-06-14T13:50:06.000Z</time>
      </trkpt>
      <trkpt lat="43.64241" lon="3.79848">
        <ele>56.71299968</ele>
        <time>2020-06-14T13:50:07.000Z</time>
      </trkpt>
      <trkpt lat="43.64243" lon="3.79847">
        <ele>56.61299968</ele>
        <time>2020-06-14T13:50:08.000Z</time>
      </trkpt>
      <trkpt lat="43.64245" lon="3.79846">
        <ele>56.51299968</ele>
        <time>2020-06-14T13:50:09.000Z</time>
      </trkpt>
      <trkpt lat="43.64247" lon="3.79844">
        <ele>56.41299968</ele>
        <time>2020-06-14T13:50:10.000Z</time>
      </trkpt>
      <trkpt lat="43.64249" lon="3.79843">
        <ele>56.31299968</ele>
        <time>2020-06-14T13:50:11.000Z</time>
      </trkpt>
      <trkpt lat="43.64251" lon="3.79842">
        <ele>56.21299968</ele>
        <time>2020-06-14T13:50:12.000Z</time>
      </trkpt>
      <trkpt lat="43.64253" lon="3.7984">
        <ele>56.11299968</ele>
        <time>2020-06-14T13:50:13.000Z</time>
      </trkpt>
      <trkpt lat="43.64255" lon="3.79838">
        <ele>56.01299968</ele>
        <time>2020-06-14T13:50:14.000Z</time>
      </trkpt>
      <trkpt lat="43.64257" lon="3.79837">
        <ele>56.08700032</ele>
        <time>2020-06-14T13:50:15.000Z</time>
      </trkpt>
      <trkpt lat="43.6426" lon="3.79836">
        <ele>56.18700032</ele>
        <time>2020-06-14T13:50:16.000Z</time>
      </trkpt>
      <trkpt lat="43.64262" lon="3.79834">
        <ele>56.28700032</ele>
        <time>2020-06-14T13:50:17.000Z</time>
      </trkpt>
      <trkpt lat="43.64265" lon="3.79833">
        <ele>56.38700032</ele>
        <time>2020-06-14T13:50:18.000Z</time>
      </trkpt>
      <trkpt lat="43.64267" lon="3.79831">
        <ele>56.48700032</ele>
        <time>2020-06-14T13:50:19.000Z</time>
      </trkpt>
      <trkpt lat="43.6427" lon="3.7983">
        <ele>56.58700032</ele>
        <time>2020-06-14T13:50:20.000Z</time>
      </trkpt>
      <trkpt lat="43.64273" lon="3.79829">
        <ele>56.68700032</ele>
        <time>2020-06-14T13:50:21.000Z</time>
      </trkpt>
      <trkpt lat="43.64275" lon="3.79827">
        <ele>56.78700032</ele>
        <time>2020-06-14T13:50:22.000Z</time>
      </trkpt>
      <trkpt lat="43.64278" lon="3.79826">
        <ele>56.88700032</ele>
        <time>2020-06-14T13:50:23.000Z</time>
      </trkpt>
      <trkpt lat="43.6428" lon="3.79825">
        <ele>56.98700032</ele>
        <time>2020-06-14T13:50:24.000Z</time>
      </trkpt>
      <trkpt lat="43.64282" lon="3.79824">
        <ele>57</ele>
        <time>2020-06-14T13:50:25.000Z</time>
      </trkpt>
      <trkpt lat="43.64284" lon="3.79823">
        <ele>57</ele>
        <time>2020-06-14T13:50:26.000Z</time>
      </trkpt>
      <trkpt lat="43.64287" lon="3.79822">
        <ele>57</ele>
        <time>2020-06-14T13:50:27.000Z</time>
      </trkpt>
      <trkpt lat="43.64289" lon="3.79821">
        <ele>57</ele>
        <time>2020-06-14T13:50:28.000Z</time>
      </trkpt>
      <trkpt lat="43.64291" lon="3.7982">
        <ele>57</ele>
        <time>2020-06-14T13:50:29.000Z</time>
      </trkpt>
      <trkpt lat="43.64294" lon="3.79819">
        <ele>57</ele>
        <time>2020-06-14T13:50:30.000Z</time>
      </trkpt>
      <trkpt lat="43.64297" lon="3.79818">
        <ele>57</ele>
        <time>2020-06-14T13:50:31.000Z</time>
      </trkpt>
      <trkpt lat="43.64299" lon="3.79817">
        <ele>57</ele>
        <time>2020-06-14T13:50:32.000Z</time>
      </trkpt>
      <trkpt lat="43.64302" lon="3.79816">
        <ele>57</ele>
        <time>2020-06-14T13:50:33.000Z</time>
      </trkpt>
      <trkpt lat="43.64305" lon="3.79816">
        <ele>57</ele>
        <time>2020-06-14T13:50:34.000Z</time>
      </trkpt>
      <trkpt lat="43.64308" lon="3.79815">
        <ele>57.084548442231</ele>
        <time>2020-06-14T13:50:35.000Z</time>
      </trkpt>
      <trkpt lat="43.64311" lon="3.79815">
        <ele>57.181730202287</ele>
        <time>2020-06-14T13:50:36.000Z</time>
      </trkpt>
      <trkpt lat="43.64313" lon="3.79813">
        <ele>57.278911962344</ele>
        <time>2020-06-14T13:50:37.000Z</time>
      </trkpt>
      <trkpt lat="43.64316" lon="3.79812">
        <ele>57.3760937224</ele>
        <time>2020-06-14T13:50:38.000Z</time>
      </trkpt>
      <trkpt lat="43.64318" lon="3.7981">
        <ele>57.473275482457</ele>
        <time>2020-06-14T13:50:39.000Z</time>
      </trkpt>
      <trkpt lat="43.64321" lon="3.79809">
        <ele>57.570457242513</ele>
        <time>2020-06-14T13:50:40.000Z</time>
      </trkpt>
      <trkpt lat="43.64323" lon="3.79807">
        <ele>57.66763900257</ele>
        <time>2020-06-14T13:50:41.000Z</time>
      </trkpt>
      <trkpt lat="43.64325" lon="3.79805">
        <ele>57.764820762626</ele>
        <time>2020-06-14T13:50:42.000Z</time>
      </trkpt>
      <trkpt lat="43.64327" lon="3.79803">
        <ele>57.862002522683</ele>
        <time>2020-06-14T13:50:43.000Z</time>
      </trkpt>
      <trkpt lat="43.6433" lon="3.79802">
        <ele>57.959184282739</ele>
        <time>2020-06-14T13:50:44.000Z</time>
      </trkpt>
      <trkpt lat="43.64332" lon="3.798">
        <ele>58</ele>
        <time>2020-06-14T13:50:45.000Z</time>
      </trkpt>
      <trkpt lat="43.64334" lon="3.79799">
        <ele>58</ele>
        <time>2020-06-14T13:50:46.000Z</time>
      </trkpt>
      <trkpt lat="43.64337" lon="3.79797">
        <ele>58</ele>
        <time>2020-06-14T13:50:47.000Z</time>
      </trkpt>
      <trkpt lat="43.64339" lon="3.79795">
        <ele>58</ele>
        <time>2020-06-14T13:50:48.000Z</time>
      </trkpt>
      <trkpt lat="43.64341" lon="3.79794">
        <ele>58</ele>
        <time>2020-06-14T13:50:49.000Z</time>
      </trkpt>
      <trkpt lat="43.64344" lon="3.79793">
        <ele>58</ele>
        <time>2020-06-14T13:50:50.000Z</time>
      </trkpt>
      <trkpt lat="43.64346" lon="3.79792">
        <ele>58</ele>
        <time>2020-06-14T13:50:51.000Z</time>
      </trkpt>
      <trkpt lat="43.64349" lon="3.79791">
        <ele>58</ele>
        <time>2020-06-14T13:50:52.000Z</time>
      </trkpt>
      <trkpt lat="43.64352" lon="3.7979">
        <ele>58</ele>
        <time>2020-06-14T13:50:53.000Z</time>
      </trkpt>
      <trkpt lat="43.64354" lon="3.79789">
        <ele>58</ele>
        <time>2020-06-14T13:50:54.000Z</time>
      </trkpt>
      <trkpt lat="43.64357" lon="3.79788">
        <ele>57.828344481178</ele>
        <time>2020-06-14T13:50:55.000Z</time>
      </trkpt>
      <trkpt lat="43.6436" lon="3.79787">
        <ele>57.628743555285</ele>
        <time>2020-06-14T13:50:56.000Z</time>
      </trkpt>
      <trkpt lat="43.64363" lon="3.79786">
        <ele>57.429142629393</ele>
        <time>2020-06-14T13:50:57.000Z</time>
      </trkpt>
      <trkpt lat="43.64365" lon="3.79785">
        <ele>57.2295417035</ele>
        <time>2020-06-14T13:50:58.000Z</time>
      </trkpt>
      <trkpt lat="43.64367" lon="3.79784">
        <ele>57.029940777607</ele>
        <time>2020-06-14T13:50:59.000Z</time>
      </trkpt>
      <trkpt lat="43.64369" lon="3.79783">
        <ele>56.830339851714</ele>
        <time>2020-06-14T13:51:00.000Z</time>
      </trkpt>
      <trkpt lat="43.64371" lon="3.79782">
        <ele>56.630738925821</ele>
        <time>2020-06-14T13:51:01.000Z</time>
      </trkpt>
      <trkpt lat="43.64374" lon="3.7978">
        <ele>56.431137999929</ele>
        <time>2020-06-14T13:51:02.000Z</time>
      </trkpt>
      <trkpt lat="43.64377" lon="3.79779">
        <ele>56.231537074036</ele>
        <time>2020-06-14T13:51:03.000Z</time>
      </trkpt>
      <trkpt lat="43.6438" lon="3.79779">
        <ele>56.031936148143</ele>
        <time>2020-06-14T13:51:04.000Z</time>
      </trkpt>
      <trkpt lat="43.64383" lon="3.79779">
        <ele>56.081871396099</ele>
        <time>2020-06-14T13:51:05.000Z</time>
      </trkpt>
      <trkpt lat="43.64386" lon="3.7978">
        <ele>56.179337343836</ele>
        <time>2020-06-14T13:51:06.000Z</time>
      </trkpt>
      <trkpt lat="43.64389" lon="3.7978">
        <ele>56.276803291573</ele>
        <time>2020-06-14T13:51:07.000Z</time>
      </trkpt>
      <trkpt lat="43.64393" lon="3.79781">
        <ele>56.37426923931</ele>
        <time>2020-06-14T13:51:08.000Z</time>
      </trkpt>
      <trkpt lat="43.64397" lon="3.79782">
        <ele>56.471735187047</ele>
        <time>2020-06-14T13:51:09.000Z</time>
      </trkpt>
      <trkpt lat="43.644" lon="3.79783">
        <ele>56.569201134784</ele>
        <time>2020-06-14T13:51:10.000Z</time>
      </trkpt>
      <trkpt lat="43.64403" lon="3.79785">
        <ele>56.666667082521</ele>
        <time>2020-06-14T13:51:11.000Z</time>
      </trkpt>
      <trkpt lat="43.64407" lon="3.79787">
        <ele>56.764133030258</ele>
        <time>2020-06-14T13:51:12.000Z</time>
      </trkpt>
      <trkpt lat="43.64411" lon="3.79788">
        <ele>56.861598977995</ele>
        <time>2020-06-14T13:51:13.000Z</time>
      </trkpt>
      <trkpt lat="43.64415" lon="3.79789">
        <ele>56.959064925732</ele>
        <time>2020-06-14T13:51:14.000Z</time>
      </trkpt>
      <trkpt lat="43.64419" lon="3.7979">
        <ele>57</ele>
        <time>2020-06-14T13:51:15.000Z</time>
      </trkpt>
      <trkpt lat="43.64423" lon="3.7979">
        <ele>57</ele>
        <time>2020-06-14T13:51:16.000Z</time>
      </trkpt>
      <trkpt lat="43.64427" lon="3.7979">
        <ele>57</ele>
        <time>2020-06-14T13:51:17.000Z</time>
      </trkpt>
      <trkpt lat="43.64431" lon="3.7979">
        <ele>57</ele>
        <time>2020-06-14T13:51:18.000Z</time>
      </trkpt>
      <trkpt lat="43.64435" lon="3.79789">
        <ele>57</ele>
        <time>2020-06-14T13:51:19.000Z</time>
      </trkpt>
      <trkpt lat="43.64438" lon="3.79788">
        <ele>57</ele>
        <time>2020-06-14T13:51:20.000Z</time>
      </trkpt>
      <trkpt lat="43.64442" lon="3.79787">
        <ele>57</ele>
        <time>2020-06-14T13:51:21.000Z</time>
      </trkpt>
      <trkpt lat="43.64446" lon="3.79785">
        <ele>57</ele>
        <time>2020-06-14T13:51:22.000Z</time>
      </trkpt>
      <trkpt lat="43.64449" lon="3.79784">
        <ele>57</ele>
        <time>2020-06-14T13:51:23.000Z</time>
      </trkpt>
      <trkpt lat="43.64452" lon="3.79784">
        <ele>57</ele>
        <time>2020-06-14T13:51:24.000Z</time>
      </trkpt>
      <trkpt lat="43.64455" lon="3.79783">
        <ele>57.08700032</ele>
        <time>2020-06-14T13:51:25.000Z</time>
      </trkpt>
      <trkpt lat="43.64458" lon="3.79781">
        <ele>57.18700032</ele>
        <time>2020-06-14T13:51:26.000Z</time>
      </trkpt>
      <trkpt lat="43.64461" lon="3.79779">
        <ele>57.28700032</ele>
        <time>2020-06-14T13:51:27.000Z</time>
      </trkpt>
      <trkpt lat="43.64463" lon="3.79777">
        <ele>57.38700032</ele>
        <time>2020-06-14T13:51:28.000Z</time>
      </trkpt>
      <trkpt lat="43.64468" lon="3.79773">
        <ele>57.58700032</ele>
        <time>2020-06-14T13:51:30.000Z</time>
      </trkpt>
      <trkpt lat="43.6447" lon="3.79769">
        <ele>57.68700032</ele>
        <time>2020-06-14T13:51:31.000Z</time>
      </trkpt>
      <trkpt lat="43.64473" lon="3.79767">
        <ele>57.78700032</ele>
        <time>2020-06-14T13:51:32.000Z</time>
      </trkpt>
      <trkpt lat="43.64476" lon="3.79764">
        <ele>57.88700032</ele>
        <time>2020-06-14T13:51:33.000Z</time>
      </trkpt>
      <trkpt lat="43.64479" lon="3.79762">
        <ele>57.98700032</ele>
        <time>2020-06-14T13:51:34.000Z</time>
      </trkpt>
      <trkpt lat="43.64481" lon="3.7976">
        <ele>58.08700032</ele>
        <time>2020-06-14T13:51:35.000Z</time>
      </trkpt>
      <trkpt lat="43.64484" lon="3.79757">
        <ele>58.18700032</ele>
        <time>2020-06-14T13:51:36.000Z</time>
      </trkpt>
      <trkpt lat="43.64486" lon="3.79756">
        <ele>58.28700032</ele>
        <time>2020-06-14T13:51:37.000Z</time>
      </trkpt>
      <trkpt lat="43.64488" lon="3.79753">
        <ele>58.38700032</ele>
        <time>2020-06-14T13:51:38.000Z</time>
      </trkpt>
      <trkpt lat="43.6449" lon="3.7975">
        <ele>58.48700032</ele>
        <time>2020-06-14T13:51:39.000Z</time>
      </trkpt>
      <trkpt lat="43.64492" lon="3.79747">
        <ele>58.58700032</ele>
        <time>2020-06-14T13:51:40.000Z</time>
      </trkpt>
      <trkpt lat="43.64494" lon="3.79744">
        <ele>58.68700032</ele>
        <time>2020-06-14T13:51:41.000Z</time>
      </trkpt>
      <trkpt lat="43.64496" lon="3.79741">
        <ele>58.78700032</ele>
        <time>2020-06-14T13:51:42.000Z</time>
      </trkpt>
      <trkpt lat="43.64498" lon="3.79738">
        <ele>58.88700032</ele>
        <time>2020-06-14T13:51:43.000Z</time>
      </trkpt>
      <trkpt lat="43.645" lon="3.79735">
        <ele>58.98700032</ele>
        <time>2020-06-14T13:51:44.000Z</time>
      </trkpt>
      <trkpt lat="43.64501" lon="3.79732">
        <ele>59.08700032</ele>
        <time>2020-06-14T13:51:45.000Z</time>
      </trkpt>
      <trkpt lat="43.64503" lon="3.79729">
        <ele>59.18700032</ele>
        <time>2020-06-14T13:51:46.000Z</time>
      </trkpt>
      <trkpt lat="43.64504" lon="3.79727">
        <ele>59.28700032</ele>
        <time>2020-06-14T13:51:47.000Z</time>
      </trkpt>
      <trkpt lat="43.64506" lon="3.79723">
        <ele>59.38700032</ele>
        <time>2020-06-14T13:51:48.000Z</time>
      </trkpt>
      <trkpt lat="43.64508" lon="3.7972">
        <ele>59.48700032</ele>
        <time>2020-06-14T13:51:49.000Z</time>
      </trkpt>
      <trkpt lat="43.64509" lon="3.79717">
        <ele>59.58700032</ele>
        <time>2020-06-14T13:51:50.000Z</time>
      </trkpt>
      <trkpt lat="43.6451" lon="3.79714">
        <ele>59.68700032</ele>
        <time>2020-06-14T13:51:51.000Z</time>
      </trkpt>
      <trkpt lat="43.64511" lon="3.79711">
        <ele>59.78700032</ele>
        <time>2020-06-14T13:51:52.000Z</time>
      </trkpt>
      <trkpt lat="43.64513" lon="3.79707">
        <ele>59.88700032</ele>
        <time>2020-06-14T13:51:53.000Z</time>
      </trkpt>
      <trkpt lat="43.64514" lon="3.79705">
        <ele>59.98700032</ele>
        <time>2020-06-14T13:51:54.000Z</time>
      </trkpt>
      <trkpt lat="43.64516" lon="3.79702">
        <ele>60</ele>
        <time>2020-06-14T13:51:55.000Z</time>
      </trkpt>
      <trkpt lat="43.64518" lon="3.797">
        <ele>60</ele>
        <time>2020-06-14T13:51:56.000Z</time>
      </trkpt>
      <trkpt lat="43.64519" lon="3.79697">
        <ele>60</ele>
        <time>2020-06-14T13:51:57.000Z</time>
      </trkpt>
      <trkpt lat="43.64521" lon="3.79694">
        <ele>60</ele>
        <time>2020-06-14T13:51:58.000Z</time>
      </trkpt>
      <trkpt lat="43.64522" lon="3.79692">
        <ele>60</ele>
        <time>2020-06-14T13:51:59.000Z</time>
      </trkpt>
      <trkpt lat="43.64523" lon="3.79689">
        <ele>60</ele>
        <time>2020-06-14T13:52:00.000Z</time>
      </trkpt>
      <trkpt lat="43.64524" lon="3.79686">
        <ele>60</ele>
        <time>2020-06-14T13:52:01.000Z</time>
      </trkpt>
      <trkpt lat="43.64525" lon="3.79682">
        <ele>60</ele>
        <time>2020-06-14T13:52:02.000Z</time>
      </trkpt>
      <trkpt lat="43.64527" lon="3.79679">
        <ele>60</ele>
        <time>2020-06-14T13:52:03.000Z</time>
      </trkpt>
      <trkpt lat="43.64529" lon="3.79677">
        <ele>60</ele>
        <time>2020-06-14T13:52:04.000Z</time>
      </trkpt>
      <trkpt lat="43.6453" lon="3.79674">
        <ele>59.940267125762</ele>
        <time>2020-06-14T13:52:05.000Z</time>
      </trkpt>
      <trkpt lat="43.64532" lon="3.79671">
        <ele>59.837280547961</ele>
        <time>2020-06-14T13:52:06.000Z</time>
      </trkpt>
      <trkpt lat="43.64534" lon="3.79668">
        <ele>59.734293970161</ele>
        <time>2020-06-14T13:52:07.000Z</time>
      </trkpt>
      <trkpt lat="43.64536" lon="3.79665">
        <ele>59.63130739236</ele>
        <time>2020-06-14T13:52:08.000Z</time>
      </trkpt>
      <trkpt lat="43.64538" lon="3.79662">
        <ele>59.52832081456</ele>
        <time>2020-06-14T13:52:09.000Z</time>
      </trkpt>
      <trkpt lat="43.64539" lon="3.79658">
        <ele>59.425334236759</ele>
        <time>2020-06-14T13:52:10.000Z</time>
      </trkpt>
      <trkpt lat="43.6454" lon="3.79653">
        <ele>59.322347658958</ele>
        <time>2020-06-14T13:52:11.000Z</time>
      </trkpt>
      <trkpt lat="43.6454" lon="3.79649">
        <ele>59.219361081158</ele>
        <time>2020-06-14T13:52:12.000Z</time>
      </trkpt>
      <trkpt lat="43.64541" lon="3.79645">
        <ele>59.116374503357</ele>
        <time>2020-06-14T13:52:13.000Z</time>
      </trkpt>
      <trkpt lat="43.64542" lon="3.79641">
        <ele>59.013387925557</ele>
        <time>2020-06-14T13:52:14.000Z</time>
      </trkpt>
      <trkpt lat="43.64544" lon="3.79637">
        <ele>59</ele>
        <time>2020-06-14T13:52:15.000Z</time>
      </trkpt>
      <trkpt lat="43.64545" lon="3.79634">
        <ele>59</ele>
        <time>2020-06-14T13:52:16.000Z</time>
      </trkpt>
      <trkpt lat="43.64547" lon="3.79631">
        <ele>59</ele>
        <time>2020-06-14T13:52:17.000Z</time>
      </trkpt>
      <trkpt lat="43.64548" lon="3.79629">
        <ele>59</ele>
        <time>2020-06-14T13:52:18.000Z</time>
      </trkpt>
      <trkpt lat="43.6455" lon="3.79625">
        <ele>59</ele>
        <time>2020-06-14T13:52:19.000Z</time>
      </trkpt>
      <trkpt lat="43.6455" lon="3.79622">
        <ele>59</ele>
        <time>2020-06-14T13:52:20.000Z</time>
      </trkpt>
      <trkpt lat="43.64551" lon="3.79618">
        <ele>59</ele>
        <time>2020-06-14T13:52:21.000Z</time>
      </trkpt>
      <trkpt lat="43.64552" lon="3.79615">
        <ele>59</ele>
        <time>2020-06-14T13:52:22.000Z</time>
      </trkpt>
      <trkpt lat="43.64553" lon="3.79612">
        <ele>59</ele>
        <time>2020-06-14T13:52:23.000Z</time>
      </trkpt>
      <trkpt lat="43.64555" lon="3.79609">
        <ele>59</ele>
        <time>2020-06-14T13:52:24.000Z</time>
      </trkpt>
      <trkpt lat="43.64556" lon="3.79607">
        <ele>59</ele>
        <time>2020-06-14T13:52:25.000Z</time>
      </trkpt>
      <trkpt lat="43.64557" lon="3.79604">
        <ele>59</ele>
        <time>2020-06-14T13:52:26.000Z</time>
      </trkpt>
      <trkpt lat="43.64558" lon="3.79601">
        <ele>59</ele>
        <time>2020-06-14T13:52:27.000Z</time>
      </trkpt>
      <trkpt lat="43.64559" lon="3.79598">
        <ele>59</ele>
        <time>2020-06-14T13:52:28.000Z</time>
      </trkpt>
      <trkpt lat="43.64561" lon="3.79595">
        <ele>59</ele>
        <time>2020-06-14T13:52:29.000Z</time>
      </trkpt>
      <trkpt lat="43.64562" lon="3.79592">
        <ele>59</ele>
        <time>2020-06-14T13:52:30.000Z</time>
      </trkpt>
      <trkpt lat="43.64563" lon="3.79589">
        <ele>59</ele>
        <time>2020-06-14T13:52:31.000Z</time>
      </trkpt>
      <trkpt lat="43.64563" lon="3.79585">
        <ele>59</ele>
        <time>2020-06-14T13:52:32.000Z</time>
      </trkpt>
      <trkpt lat="43.64564" lon="3.79582">
        <ele>59</ele>
        <time>2020-06-14T13:52:33.000Z</time>
      </trkpt>
      <trkpt lat="43.64564" lon="3.79579">
        <ele>59</ele>
        <time>2020-06-14T13:52:34.000Z</time>
      </trkpt>
      <trkpt lat="43.64564" lon="3.79577">
        <ele>59</ele>
        <time>2020-06-14T13:52:35.000Z</time>
      </trkpt>
      <trkpt lat="43.64565" lon="3.79574">
        <ele>59</ele>
        <time>2020-06-14T13:52:36.000Z</time>
      </trkpt>
      <trkpt lat="43.64566" lon="3.79572">
        <ele>59</ele>
        <time>2020-06-14T13:52:37.000Z</time>
      </trkpt>
      <trkpt lat="43.64567" lon="3.79569">
        <ele>59</ele>
        <time>2020-06-14T13:52:38.000Z</time>
      </trkpt>
      <trkpt lat="43.64568" lon="3.79565">
        <ele>59</ele>
        <time>2020-06-14T13:52:39.000Z</time>
      </trkpt>
      <trkpt lat="43.64568" lon="3.79562">
        <ele>59</ele>
        <time>2020-06-14T13:52:40.000Z</time>
      </trkpt>
      <trkpt lat="43.64569" lon="3.79559">
        <ele>59</ele>
        <time>2020-06-14T13:52:41.000Z</time>
      </trkpt>
      <trkpt lat="43.64569" lon="3.79555">
        <ele>59</ele>
        <time>2020-06-14T13:52:42.000Z</time>
      </trkpt>
      <trkpt lat="43.6457" lon="3.79552">
        <ele>59</ele>
        <time>2020-06-14T13:52:43.000Z</time>
      </trkpt>
      <trkpt lat="43.64571" lon="3.79549">
        <ele>59</ele>
        <time>2020-06-14T13:52:44.000Z</time>
      </trkpt>
      <trkpt lat="43.64572" lon="3.79545">
        <ele>59.08700032</ele>
        <time>2020-06-14T13:52:45.000Z</time>
      </trkpt>
      <trkpt lat="43.64572" lon="3.79542">
        <ele>59.18700032</ele>
        <time>2020-06-14T13:52:46.000Z</time>
      </trkpt>
      <trkpt lat="43.64573" lon="3.79539">
        <ele>59.28700032</ele>
        <time>2020-06-14T13:52:47.000Z</time>
      </trkpt>
      <trkpt lat="43.64574" lon="3.79536">
        <ele>59.38700032</ele>
        <time>2020-06-14T13:52:48.000Z</time>
      </trkpt>
      <trkpt lat="43.64575" lon="3.79532">
        <ele>59.58700032</ele>
        <time>2020-06-14T13:52:50.000Z</time>
      </trkpt>
      <trkpt lat="43.64577" lon="3.79528">
        <ele>59.78700032</ele>
        <time>2020-06-14T13:52:52.000Z</time>
      </trkpt>
      <trkpt lat="43.64578" lon="3.79522">
        <ele>59.98700032</ele>
        <time>2020-06-14T13:52:54.000Z</time>
      </trkpt>
      <trkpt lat="43.64578" lon="3.79519">
        <ele>60</ele>
        <time>2020-06-14T13:52:55.000Z</time>
      </trkpt>
      <trkpt lat="43.64579" lon="3.79516">
        <ele>60</ele>
        <time>2020-06-14T13:52:56.000Z</time>
      </trkpt>
      <trkpt lat="43.64581" lon="3.79513">
        <ele>60</ele>
        <time>2020-06-14T13:52:57.000Z</time>
      </trkpt>
      <trkpt lat="43.64582" lon="3.7951">
        <ele>60</ele>
        <time>2020-06-14T13:52:58.000Z</time>
      </trkpt>
      <trkpt lat="43.64583" lon="3.79507">
        <ele>60</ele>
        <time>2020-06-14T13:52:59.000Z</time>
      </trkpt>
      <trkpt lat="43.64585" lon="3.79504">
        <ele>60</ele>
        <time>2020-06-14T13:53:00.000Z</time>
      </trkpt>
      <trkpt lat="43.64586" lon="3.79501">
        <ele>60</ele>
        <time>2020-06-14T13:53:01.000Z</time>
      </trkpt>
      <trkpt lat="43.64587" lon="3.79497">
        <ele>60</ele>
        <time>2020-06-14T13:53:02.000Z</time>
      </trkpt>
      <trkpt lat="43.64588" lon="3.79494">
        <ele>60</ele>
        <time>2020-06-14T13:53:03.000Z</time>
      </trkpt>
      <trkpt lat="43.64589" lon="3.79491">
        <ele>60</ele>
        <time>2020-06-14T13:53:04.000Z</time>
      </trkpt>
      <trkpt lat="43.6459" lon="3.79488">
        <ele>60.08700032</ele>
        <time>2020-06-14T13:53:05.000Z</time>
      </trkpt>
      <trkpt lat="43.64591" lon="3.79486">
        <ele>60.18700032</ele>
        <time>2020-06-14T13:53:06.000Z</time>
      </trkpt>
      <trkpt lat="43.64592" lon="3.79484">
        <ele>60.28700032</ele>
        <time>2020-06-14T13:53:07.000Z</time>
      </trkpt>
      <trkpt lat="43.64594" lon="3.79481">
        <ele>60.38700032</ele>
        <time>2020-06-14T13:53:08.000Z</time>
      </trkpt>
      <trkpt lat="43.64595" lon="3.79479">
        <ele>60.48700032</ele>
        <time>2020-06-14T13:53:09.000Z</time>
      </trkpt>
      <trkpt lat="43.64596" lon="3.79477">
        <ele>60.58700032</ele>
        <time>2020-06-14T13:53:10.000Z</time>
      </trkpt>
      <trkpt lat="43.64597" lon="3.79474">
        <ele>60.68700032</ele>
        <time>2020-06-14T13:53:11.000Z</time>
      </trkpt>
      <trkpt lat="43.64598" lon="3.79471">
        <ele>60.78700032</ele>
        <time>2020-06-14T13:53:12.000Z</time>
      </trkpt>
      <trkpt lat="43.64598" lon="3.79468">
        <ele>60.88700032</ele>
        <time>2020-06-14T13:53:13.000Z</time>
      </trkpt>
      <trkpt lat="43.64597" lon="3.79464">
        <ele>60.98700032</ele>
        <time>2020-06-14T13:53:14.000Z</time>
      </trkpt>
      <trkpt lat="43.64595" lon="3.79461">
        <ele>60.916022857143</ele>
        <time>2020-06-14T13:53:15.000Z</time>
      </trkpt>
      <trkpt lat="43.64594" lon="3.79459">
        <ele>60.819497760618</ele>
        <time>2020-06-14T13:53:16.000Z</time>
      </trkpt>
      <trkpt lat="43.64592" lon="3.79457">
        <ele>60.722972664093</ele>
        <time>2020-06-14T13:53:17.000Z</time>
      </trkpt>
      <trkpt lat="43.6459" lon="3.79455">
        <ele>60.626447567568</ele>
        <time>2020-06-14T13:53:18.000Z</time>
      </trkpt>
      <trkpt lat="43.64589" lon="3.79453">
        <ele>60.529922471042</ele>
        <time>2020-06-14T13:53:19.000Z</time>
      </trkpt>
      <trkpt lat="43.64589" lon="3.7945">
        <ele>60.433397374517</ele>
        <time>2020-06-14T13:53:20.000Z</time>
      </trkpt>
      <trkpt lat="43.6459" lon="3.79448">
        <ele>60.336872277992</ele>
        <time>2020-06-14T13:53:21.000Z</time>
      </trkpt>
      <trkpt lat="43.64592" lon="3.79446">
        <ele>60.240347181467</ele>
        <time>2020-06-14T13:53:22.000Z</time>
      </trkpt>
      <trkpt lat="43.64594" lon="3.79445">
        <ele>60.143822084942</ele>
        <time>2020-06-14T13:53:23.000Z</time>
      </trkpt>
      <trkpt lat="43.64596" lon="3.79443">
        <ele>60.047296988417</ele>
        <time>2020-06-14T13:53:24.000Z</time>
      </trkpt>
      <trkpt lat="43.64597" lon="3.7944">
        <ele>60.052904896266</ele>
        <time>2020-06-14T13:53:25.000Z</time>
      </trkpt>
      <trkpt lat="43.64599" lon="3.79437">
        <ele>60.1566393361</ele>
        <time>2020-06-14T13:53:26.000Z</time>
      </trkpt>
      <trkpt lat="43.646" lon="3.79434">
        <ele>60.260373775934</ele>
        <time>2020-06-14T13:53:27.000Z</time>
      </trkpt>
      <trkpt lat="43.64602" lon="3.79431">
        <ele>60.364108215768</ele>
        <time>2020-06-14T13:53:28.000Z</time>
      </trkpt>
      <trkpt lat="43.64604" lon="3.79428">
        <ele>60.467842655602</ele>
        <time>2020-06-14T13:53:29.000Z</time>
      </trkpt>
      <trkpt lat="43.64606" lon="3.79425">
        <ele>60.571577095436</ele>
        <time>2020-06-14T13:53:30.000Z</time>
      </trkpt>
      <trkpt lat="43.64609" lon="3.79423">
        <ele>60.67531153527</ele>
        <time>2020-06-14T13:53:31.000Z</time>
      </trkpt>
      <trkpt lat="43.64611" lon="3.79421">
        <ele>60.779045975104</ele>
        <time>2020-06-14T13:53:32.000Z</time>
      </trkpt>
      <trkpt lat="43.64613" lon="3.79418">
        <ele>60.882780414938</ele>
        <time>2020-06-14T13:53:33.000Z</time>
      </trkpt>
      <trkpt lat="43.64615" lon="3.79416">
        <ele>60.986514854772</ele>
        <time>2020-06-14T13:53:34.000Z</time>
      </trkpt>
      <trkpt lat="43.64616" lon="3.79414">
        <ele>61</ele>
        <time>2020-06-14T13:53:35.000Z</time>
      </trkpt>
      <trkpt lat="43.64618" lon="3.79412">
        <ele>61</ele>
        <time>2020-06-14T13:53:36.000Z</time>
      </trkpt>
      <trkpt lat="43.6462" lon="3.7941">
        <ele>61</ele>
        <time>2020-06-14T13:53:37.000Z</time>
      </trkpt>
      <trkpt lat="43.64622" lon="3.79408">
        <ele>61</ele>
        <time>2020-06-14T13:53:38.000Z</time>
      </trkpt>
      <trkpt lat="43.64623" lon="3.79406">
        <ele>61</ele>
        <time>2020-06-14T13:53:39.000Z</time>
      </trkpt>
      <trkpt lat="43.64624" lon="3.79403">
        <ele>61</ele>
        <time>2020-06-14T13:53:40.000Z</time>
      </trkpt>
      <trkpt lat="43.64626" lon="3.79401">
        <ele>61</ele>
        <time>2020-06-14T13:53:41.000Z</time>
      </trkpt>
      <trkpt lat="43.64627" lon="3.79398">
        <ele>61</ele>
        <time>2020-06-14T13:53:42.000Z</time>
      </trkpt>
      <trkpt lat="43.64629" lon="3.79397">
        <ele>61</ele>
        <time>2020-06-14T13:53:43.000Z</time>
      </trkpt>
      <trkpt lat="43.6463" lon="3.79395">
        <ele>61</ele>
        <time>2020-06-14T13:53:44.000Z</time>
      </trkpt>
      <trkpt lat="43.64632" lon="3.79393">
        <ele>61.08508473751</ele>
        <time>2020-06-14T13:53:45.000Z</time>
      </trkpt>
      <trkpt lat="43.64634" lon="3.7939">
        <ele>61.285284873582</ele>
        <time>2020-06-14T13:53:47.000Z</time>
      </trkpt>
      <trkpt lat="43.64637" lon="3.79386">
        <ele>61.485485009654</ele>
        <time>2020-06-14T13:53:49.000Z</time>
      </trkpt>
      <trkpt lat="43.64639" lon="3.79384">
        <ele>61.585585077691</ele>
        <time>2020-06-14T13:53:50.000Z</time>
      </trkpt>
      <trkpt lat="43.64641" lon="3.79383">
        <ele>61.685685145727</ele>
        <time>2020-06-14T13:53:51.000Z</time>
      </trkpt>
      <trkpt lat="43.64642" lon="3.79381">
        <ele>61.785785213763</ele>
        <time>2020-06-14T13:53:52.000Z</time>
      </trkpt>
      <trkpt lat="43.64644" lon="3.79379">
        <ele>61.885885281799</ele>
        <time>2020-06-14T13:53:53.000Z</time>
      </trkpt>
      <trkpt lat="43.64646" lon="3.79375">
        <ele>62</ele>
        <time>2020-06-14T13:53:55.000Z</time>
      </trkpt>
      <trkpt lat="43.64647" lon="3.79372">
        <ele>62</ele>
        <time>2020-06-14T13:53:56.000Z</time>
      </trkpt>
      <trkpt lat="43.64648" lon="3.7937">
        <ele>62</ele>
        <time>2020-06-14T13:53:57.000Z</time>
      </trkpt>
      <trkpt lat="43.64649" lon="3.79367">
        <ele>62</ele>
        <time>2020-06-14T13:53:58.000Z</time>
      </trkpt>
      <trkpt lat="43.6465" lon="3.79364">
        <ele>62</ele>
        <time>2020-06-14T13:53:59.000Z</time>
      </trkpt>
      <trkpt lat="43.6465" lon="3.7936">
        <ele>62</ele>
        <time>2020-06-14T13:54:00.000Z</time>
      </trkpt>
      <trkpt lat="43.6465" lon="3.79357">
        <ele>62</ele>
        <time>2020-06-14T13:54:01.000Z</time>
      </trkpt>
      <trkpt lat="43.6465" lon="3.79354">
        <ele>62</ele>
        <time>2020-06-14T13:54:02.000Z</time>
      </trkpt>
      <trkpt lat="43.6465" lon="3.79351">
        <ele>62</ele>
        <time>2020-06-14T13:54:03.000Z</time>
      </trkpt>
      <trkpt lat="43.6465" lon="3.79348">
        <ele>62</ele>
        <time>2020-06-14T13:54:04.000Z</time>
      </trkpt>
      <trkpt lat="43.64651" lon="3.79345">
        <ele>62.17400064</ele>
        <time>2020-06-14T13:54:05.000Z</time>
      </trkpt>
      <trkpt lat="43.64651" lon="3.79342">
        <ele>62.37400064</ele>
        <time>2020-06-14T13:54:06.000Z</time>
      </trkpt>
      <trkpt lat="43.64651" lon="3.79339">
        <ele>62.57400064</ele>
        <time>2020-06-14T13:54:07.000Z</time>
      </trkpt>
      <trkpt lat="43.64651" lon="3.79335">
        <ele>62.77400064</ele>
        <time>2020-06-14T13:54:08.000Z</time>
      </trkpt>
      <trkpt lat="43.64652" lon="3.79333">
        <ele>62.97400064</ele>
        <time>2020-06-14T13:54:09.000Z</time>
      </trkpt>
      <trkpt lat="43.64653" lon="3.79328">
        <ele>63.37400064</ele>
        <time>2020-06-14T13:54:11.000Z</time>
      </trkpt>
      <trkpt lat="43.64654" lon="3.79323">
        <ele>63.77400064</ele>
        <time>2020-06-14T13:54:13.000Z</time>
      </trkpt>
      <trkpt lat="43.64655" lon="3.7932">
        <ele>63.97400064</ele>
        <time>2020-06-14T13:54:14.000Z</time>
      </trkpt>
      <trkpt lat="43.64655" lon="3.79316">
        <ele>64.08700032</ele>
        <time>2020-06-14T13:54:15.000Z</time>
      </trkpt>
      <trkpt lat="43.64656" lon="3.79313">
        <ele>64.18700032</ele>
        <time>2020-06-14T13:54:16.000Z</time>
      </trkpt>
      <trkpt lat="43.64657" lon="3.7931">
        <ele>64.28700032</ele>
        <time>2020-06-14T13:54:17.000Z</time>
      </trkpt>
      <trkpt lat="43.64658" lon="3.79307">
        <ele>64.38700032</ele>
        <time>2020-06-14T13:54:18.000Z</time>
      </trkpt>
      <trkpt lat="43.64658" lon="3.79304">
        <ele>64.48700032</ele>
        <time>2020-06-14T13:54:19.000Z</time>
      </trkpt>
      <trkpt lat="43.64659" lon="3.79301">
        <ele>64.58700032</ele>
        <time>2020-06-14T13:54:20.000Z</time>
      </trkpt>
      <trkpt lat="43.64659" lon="3.79298">
        <ele>64.68700032</ele>
        <time>2020-06-14T13:54:21.000Z</time>
      </trkpt>
      <trkpt lat="43.6466" lon="3.79295">
        <ele>64.78700032</ele>
        <time>2020-06-14T13:54:22.000Z</time>
      </trkpt>
      <trkpt lat="43.64662" lon="3.79293">
        <ele>64.88700032</ele>
        <time>2020-06-14T13:54:23.000Z</time>
      </trkpt>
      <trkpt lat="43.64664" lon="3.79289">
        <ele>65</ele>
        <time>2020-06-14T13:54:25.000Z</time>
      </trkpt>
      <trkpt lat="43.64666" lon="3.79286">
        <ele>65</ele>
        <time>2020-06-14T13:54:27.000Z</time>
      </trkpt>
      <trkpt lat="43.64668" lon="3.79284">
        <ele>65</ele>
        <time>2020-06-14T13:54:28.000Z</time>
      </trkpt>
      <trkpt lat="43.6467" lon="3.79282">
        <ele>65</ele>
        <time>2020-06-14T13:54:30.000Z</time>
      </trkpt>
      <trkpt lat="43.64672" lon="3.79281">
        <ele>65</ele>
        <time>2020-06-14T13:54:32.000Z</time>
      </trkpt>
      <trkpt lat="43.64673" lon="3.7928">
        <ele>65</ele>
        <time>2020-06-14T13:54:37.000Z</time>
      </trkpt>
      <trkpt lat="43.64682" lon="3.79282">
        <ele>65</ele>
        <time>2020-06-14T13:54:51.000Z</time>
      </trkpt>
      <trkpt lat="43.64685" lon="3.79281">
        <ele>65</ele>
        <time>2020-06-14T13:54:52.000Z</time>
      </trkpt>
      <trkpt lat="43.64688" lon="3.7928">
        <ele>65</ele>
        <time>2020-06-14T13:54:53.000Z</time>
      </trkpt>
      <trkpt lat="43.6469" lon="3.79278">
        <ele>65</ele>
        <time>2020-06-14T13:54:54.000Z</time>
      </trkpt>
      <trkpt lat="43.64693" lon="3.79277">
        <ele>65</ele>
        <time>2020-06-14T13:54:55.000Z</time>
      </trkpt>
      <trkpt lat="43.64696" lon="3.79276">
        <ele>65</ele>
        <time>2020-06-14T13:54:56.000Z</time>
      </trkpt>
      <trkpt lat="43.64699" lon="3.79275">
        <ele>65</ele>
        <time>2020-06-14T13:54:57.000Z</time>
      </trkpt>
      <trkpt lat="43.64702" lon="3.79272">
        <ele>65</ele>
        <time>2020-06-14T13:54:59.000Z</time>
      </trkpt>
      <trkpt lat="43.64703" lon="3.79268">
        <ele>65.084548442231</ele>
        <time>2020-06-14T13:55:01.000Z</time>
      </trkpt>
      <trkpt lat="43.64704" lon="3.79264">
        <ele>65.278911962344</ele>
        <time>2020-06-14T13:55:03.000Z</time>
      </trkpt>
      <trkpt lat="43.64705" lon="3.7926">
        <ele>65.473275482457</ele>
        <time>2020-06-14T13:55:05.000Z</time>
      </trkpt>
      <trkpt lat="43.64707" lon="3.79255">
        <ele>65.66763900257</ele>
        <time>2020-06-14T13:55:07.000Z</time>
      </trkpt>
      <trkpt lat="43.64708" lon="3.79253">
        <ele>65.764820762626</ele>
        <time>2020-06-14T13:55:08.000Z</time>
      </trkpt>
      <trkpt lat="43.64709" lon="3.79249">
        <ele>65.959184282739</ele>
        <time>2020-06-14T13:55:10.000Z</time>
      </trkpt>
      <trkpt lat="43.64711" lon="3.79247">
        <ele>66.325438904078</ele>
        <time>2020-06-14T13:55:12.000Z</time>
      </trkpt>
      <trkpt lat="43.64713" lon="3.79245">
        <ele>66.531412059679</ele>
        <time>2020-06-14T13:55:13.000Z</time>
      </trkpt>
      <trkpt lat="43.64714" lon="3.79243">
        <ele>66.73738521528</ele>
        <time>2020-06-14T13:55:14.000Z</time>
      </trkpt>
      <trkpt lat="43.64715" lon="3.7924">
        <ele>66.943358370881</ele>
        <time>2020-06-14T13:55:15.000Z</time>
      </trkpt>
      <trkpt lat="43.64717" lon="3.79236">
        <ele>67.149331526482</ele>
        <time>2020-06-14T13:55:16.000Z</time>
      </trkpt>
      <trkpt lat="43.64718" lon="3.79233">
        <ele>67.355304682083</ele>
        <time>2020-06-14T13:55:17.000Z</time>
      </trkpt>
      <trkpt lat="43.64718" lon="3.79228">
        <ele>67.561277837684</ele>
        <time>2020-06-14T13:55:18.000Z</time>
      </trkpt>
      <trkpt lat="43.64718" lon="3.79224">
        <ele>67.767250993285</ele>
        <time>2020-06-14T13:55:19.000Z</time>
      </trkpt>
      <trkpt lat="43.64718" lon="3.7922">
        <ele>67.973224148886</ele>
        <time>2020-06-14T13:55:20.000Z</time>
      </trkpt>
      <trkpt lat="43.64718" lon="3.79216">
        <ele>68.08700032</ele>
        <time>2020-06-14T13:55:21.000Z</time>
      </trkpt>
      <trkpt lat="43.64718" lon="3.79212">
        <ele>68.18700032</ele>
        <time>2020-06-14T13:55:22.000Z</time>
      </trkpt>
      <trkpt lat="43.64718" lon="3.79208">
        <ele>68.28700032</ele>
        <time>2020-06-14T13:55:23.000Z</time>
      </trkpt>
      <trkpt lat="43.64718" lon="3.79206">
        <ele>68.38700032</ele>
        <time>2020-06-14T13:55:24.000Z</time>
      </trkpt>
      <trkpt lat="43.64718" lon="3.79203">
        <ele>68.48700032</ele>
        <time>2020-06-14T13:55:25.000Z</time>
      </trkpt>
      <trkpt lat="43.64718" lon="3.792">
        <ele>68.58700032</ele>
        <time>2020-06-14T13:55:26.000Z</time>
      </trkpt>
      <trkpt lat="43.64718" lon="3.79197">
        <ele>68.68700032</ele>
        <time>2020-06-14T13:55:27.000Z</time>
      </trkpt>
      <trkpt lat="43.64717" lon="3.79192">
        <ele>68.88700032</ele>
        <time>2020-06-14T13:55:29.000Z</time>
      </trkpt>
      <trkpt lat="43.64717" lon="3.79189">
        <ele>69.17400064</ele>
        <time>2020-06-14T13:55:31.000Z</time>
      </trkpt>
      <trkpt lat="43.64717" lon="3.79186">
        <ele>69.57400064</ele>
        <time>2020-06-14T13:55:33.000Z</time>
      </trkpt>
      <trkpt lat="43.6472" lon="3.79184">
        <ele>69.97400064</ele>
        <time>2020-06-14T13:55:35.000Z</time>
      </trkpt>
      <trkpt lat="43.64723" lon="3.79183">
        <ele>70.17400064</ele>
        <time>2020-06-14T13:55:36.000Z</time>
      </trkpt>
      <trkpt lat="43.64726" lon="3.79183">
        <ele>70.37400064</ele>
        <time>2020-06-14T13:55:37.000Z</time>
      </trkpt>
      <trkpt lat="43.64728" lon="3.79182">
        <ele>70.57400064</ele>
        <time>2020-06-14T13:55:38.000Z</time>
      </trkpt>
      <trkpt lat="43.6473" lon="3.7918">
        <ele>70.77400064</ele>
        <time>2020-06-14T13:55:39.000Z</time>
      </trkpt>
      <trkpt lat="43.64733" lon="3.79178">
        <ele>70.97400064</ele>
        <time>2020-06-14T13:55:40.000Z</time>
      </trkpt>
      <trkpt lat="43.64735" lon="3.79175">
        <ele>71.084795580634</ele>
        <time>2020-06-14T13:55:41.000Z</time>
      </trkpt>
      <trkpt lat="43.64737" lon="3.79173">
        <ele>71.182261406777</ele>
        <time>2020-06-14T13:55:42.000Z</time>
      </trkpt>
      <trkpt lat="43.6474" lon="3.7917">
        <ele>71.279727232919</ele>
        <time>2020-06-14T13:55:43.000Z</time>
      </trkpt>
      <trkpt lat="43.64742" lon="3.79169">
        <ele>71.377193059061</ele>
        <time>2020-06-14T13:55:44.000Z</time>
      </trkpt>
      <trkpt lat="43.64745" lon="3.79167">
        <ele>71.474658885203</ele>
        <time>2020-06-14T13:55:45.000Z</time>
      </trkpt>
      <trkpt lat="43.64747" lon="3.79165">
        <ele>71.572124711345</ele>
        <time>2020-06-14T13:55:46.000Z</time>
      </trkpt>
      <trkpt lat="43.64749" lon="3.79163">
        <ele>71.669590537487</ele>
        <time>2020-06-14T13:55:47.000Z</time>
      </trkpt>
      <trkpt lat="43.64751" lon="3.79161">
        <ele>71.76705636363</ele>
        <time>2020-06-14T13:55:48.000Z</time>
      </trkpt>
      <trkpt lat="43.64754" lon="3.79159">
        <ele>71.864522189772</ele>
        <time>2020-06-14T13:55:49.000Z</time>
      </trkpt>
      <trkpt lat="43.64756" lon="3.79157">
        <ele>71.961988015914</ele>
        <time>2020-06-14T13:55:50.000Z</time>
      </trkpt>
      <trkpt lat="43.64758" lon="3.79155">
        <ele>71.937371950634</ele>
        <time>2020-06-14T13:55:51.000Z</time>
      </trkpt>
      <trkpt lat="43.6476" lon="3.79153">
        <ele>71.834702478655</ele>
        <time>2020-06-14T13:55:52.000Z</time>
      </trkpt>
      <trkpt lat="43.64762" lon="3.79151">
        <ele>71.732033006675</ele>
        <time>2020-06-14T13:55:53.000Z</time>
      </trkpt>
      <trkpt lat="43.64764" lon="3.79149">
        <ele>71.629363534695</ele>
        <time>2020-06-14T13:55:54.000Z</time>
      </trkpt>
      <trkpt lat="43.64766" lon="3.79146">
        <ele>71.526694062715</ele>
        <time>2020-06-14T13:55:55.000Z</time>
      </trkpt>
      <trkpt lat="43.64768" lon="3.79144">
        <ele>71.424024590735</ele>
        <time>2020-06-14T13:55:56.000Z</time>
      </trkpt>
      <trkpt lat="43.64769" lon="3.79142">
        <ele>71.321355118755</ele>
        <time>2020-06-14T13:55:57.000Z</time>
      </trkpt>
      <trkpt lat="43.6477" lon="3.79139">
        <ele>71.218685646775</ele>
        <time>2020-06-14T13:55:58.000Z</time>
      </trkpt>
      <trkpt lat="43.64771" lon="3.79137">
        <ele>71.116016174795</ele>
        <time>2020-06-14T13:55:59.000Z</time>
      </trkpt>
      <trkpt lat="43.64772" lon="3.79135">
        <ele>71.013346702815</ele>
        <time>2020-06-14T13:56:00.000Z</time>
      </trkpt>
      <trkpt lat="43.64773" lon="3.79133">
        <ele>71</ele>
        <time>2020-06-14T13:56:01.000Z</time>
      </trkpt>
      <trkpt lat="43.64775" lon="3.79129">
        <ele>71</ele>
        <time>2020-06-14T13:56:03.000Z</time>
      </trkpt>
      <trkpt lat="43.64777" lon="3.79128">
        <ele>71</ele>
        <time>2020-06-14T13:56:04.000Z</time>
      </trkpt>
      <trkpt lat="43.64779" lon="3.79126">
        <ele>71</ele>
        <time>2020-06-14T13:56:05.000Z</time>
      </trkpt>
      <trkpt lat="43.64781" lon="3.79125">
        <ele>71</ele>
        <time>2020-06-14T13:56:06.000Z</time>
      </trkpt>
      <trkpt lat="43.64783" lon="3.79124">
        <ele>71</ele>
        <time>2020-06-14T13:56:08.000Z</time>
      </trkpt>
      <trkpt lat="43.64785" lon="3.79126">
        <ele>71</ele>
        <time>2020-06-14T13:56:12.000Z</time>
      </trkpt>
      <trkpt lat="43.64788" lon="3.79126">
        <ele>71</ele>
        <time>2020-06-14T13:56:14.000Z</time>
      </trkpt>
      <trkpt lat="43.6479" lon="3.79127">
        <ele>71</ele>
        <time>2020-06-14T13:56:15.000Z</time>
      </trkpt>
      <trkpt lat="43.64793" lon="3.79129">
        <ele>71</ele>
        <time>2020-06-14T13:56:16.000Z</time>
      </trkpt>
      <trkpt lat="43.64796" lon="3.79129">
        <ele>71</ele>
        <time>2020-06-14T13:56:17.000Z</time>
      </trkpt>
      <trkpt lat="43.64798" lon="3.79129">
        <ele>71</ele>
        <time>2020-06-14T13:56:18.000Z</time>
      </trkpt>
      <trkpt lat="43.64801" lon="3.79127">
        <ele>71</ele>
        <time>2020-06-14T13:56:19.000Z</time>
      </trkpt>
      <trkpt lat="43.64803" lon="3.79125">
        <ele>71</ele>
        <time>2020-06-14T13:56:20.000Z</time>
      </trkpt>
      <trkpt lat="43.64806" lon="3.79122">
        <ele>70.91299968</ele>
        <time>2020-06-14T13:56:21.000Z</time>
      </trkpt>
      <trkpt lat="43.64809" lon="3.79119">
        <ele>70.81299968</ele>
        <time>2020-06-14T13:56:22.000Z</time>
      </trkpt>
      <trkpt lat="43.64812" lon="3.79116">
        <ele>70.71299968</ele>
        <time>2020-06-14T13:56:23.000Z</time>
      </trkpt>
      <trkpt lat="43.64815" lon="3.79113">
        <ele>70.61299968</ele>
        <time>2020-06-14T13:56:24.000Z</time>
      </trkpt>
      <trkpt lat="43.64817" lon="3.7911">
        <ele>70.51299968</ele>
        <time>2020-06-14T13:56:25.000Z</time>
      </trkpt>
      <trkpt lat="43.64819" lon="3.79106">
        <ele>70.41299968</ele>
        <time>2020-06-14T13:56:26.000Z</time>
      </trkpt>
      <trkpt lat="43.64822" lon="3.79104">
        <ele>70.31299968</ele>
        <time>2020-06-14T13:56:27.000Z</time>
      </trkpt>
      <trkpt lat="43.64825" lon="3.79102">
        <ele>70.21299968</ele>
        <time>2020-06-14T13:56:28.000Z</time>
      </trkpt>
      <trkpt lat="43.64828" lon="3.791">
        <ele>70.11299968</ele>
        <time>2020-06-14T13:56:29.000Z</time>
      </trkpt>
      <trkpt lat="43.64831" lon="3.79098">
        <ele>70.01299968</ele>
        <time>2020-06-14T13:56:30.000Z</time>
      </trkpt>
      <trkpt lat="43.64834" lon="3.79096">
        <ele>70</ele>
        <time>2020-06-14T13:56:31.000Z</time>
      </trkpt>
      <trkpt lat="43.64836" lon="3.79093">
        <ele>70</ele>
        <time>2020-06-14T13:56:32.000Z</time>
      </trkpt>
      <trkpt lat="43.64839" lon="3.7909">
        <ele>70</ele>
        <time>2020-06-14T13:56:33.000Z</time>
      </trkpt>
      <trkpt lat="43.64842" lon="3.79086">
        <ele>70</ele>
        <time>2020-06-14T13:56:34.000Z</time>
      </trkpt>
      <trkpt lat="43.64844" lon="3.79083">
        <ele>70</ele>
        <time>2020-06-14T13:56:35.000Z</time>
      </trkpt>
      <trkpt lat="43.64847" lon="3.79081">
        <ele>70</ele>
        <time>2020-06-14T13:56:36.000Z</time>
      </trkpt>
      <trkpt lat="43.6485" lon="3.79079">
        <ele>70</ele>
        <time>2020-06-14T13:56:37.000Z</time>
      </trkpt>
      <trkpt lat="43.64853" lon="3.79077">
        <ele>70</ele>
        <time>2020-06-14T13:56:38.000Z</time>
      </trkpt>
      <trkpt lat="43.64856" lon="3.79076">
        <ele>70</ele>
        <time>2020-06-14T13:56:39.000Z</time>
      </trkpt>
      <trkpt lat="43.64859" lon="3.79074">
        <ele>70</ele>
        <time>2020-06-14T13:56:40.000Z</time>
      </trkpt>
      <trkpt lat="43.64863" lon="3.79072">
        <ele>69.952942497139</ele>
        <time>2020-06-14T13:56:41.000Z</time>
      </trkpt>
      <trkpt lat="43.64866" lon="3.7907">
        <ele>69.7390385342</ele>
        <time>2020-06-14T13:56:42.000Z</time>
      </trkpt>
      <trkpt lat="43.6487" lon="3.79068">
        <ele>69.525134571261</ele>
        <time>2020-06-14T13:56:43.000Z</time>
      </trkpt>
      <trkpt lat="43.64873" lon="3.79065">
        <ele>69.311230608322</ele>
        <time>2020-06-14T13:56:44.000Z</time>
      </trkpt>
      <trkpt lat="43.64876" lon="3.79062">
        <ele>69.097326645384</ele>
        <time>2020-06-14T13:56:45.000Z</time>
      </trkpt>
      <trkpt lat="43.64879" lon="3.79059">
        <ele>68.883422682445</ele>
        <time>2020-06-14T13:56:46.000Z</time>
      </trkpt>
      <trkpt lat="43.64882" lon="3.79056">
        <ele>68.669518719506</ele>
        <time>2020-06-14T13:56:47.000Z</time>
      </trkpt>
      <trkpt lat="43.64886" lon="3.79052">
        <ele>68.455614756567</ele>
        <time>2020-06-14T13:56:48.000Z</time>
      </trkpt>
      <trkpt lat="43.64889" lon="3.79049">
        <ele>68.241710793628</ele>
        <time>2020-06-14T13:56:49.000Z</time>
      </trkpt>
      <trkpt lat="43.64892" lon="3.79047">
        <ele>68.027806830689</ele>
        <time>2020-06-14T13:56:50.000Z</time>
      </trkpt>
      <trkpt lat="43.64895" lon="3.79044">
        <ele>68</ele>
        <time>2020-06-14T13:56:51.000Z</time>
      </trkpt>
      <trkpt lat="43.64898" lon="3.79042">
        <ele>68</ele>
        <time>2020-06-14T13:56:52.000Z</time>
      </trkpt>
      <trkpt lat="43.64901" lon="3.7904">
        <ele>68</ele>
        <time>2020-06-14T13:56:53.000Z</time>
      </trkpt>
      <trkpt lat="43.64904" lon="3.79039">
        <ele>68</ele>
        <time>2020-06-14T13:56:54.000Z</time>
      </trkpt>
      <trkpt lat="43.64906" lon="3.79037">
        <ele>68</ele>
        <time>2020-06-14T13:56:55.000Z</time>
      </trkpt>
      <trkpt lat="43.6491" lon="3.79035">
        <ele>68</ele>
        <time>2020-06-14T13:56:56.000Z</time>
      </trkpt>
      <trkpt lat="43.64913" lon="3.79033">
        <ele>68</ele>
        <time>2020-06-14T13:56:57.000Z</time>
      </trkpt>
      <trkpt lat="43.64916" lon="3.79031">
        <ele>68</ele>
        <time>2020-06-14T13:56:58.000Z</time>
      </trkpt>
      <trkpt lat="43.64919" lon="3.79028">
        <ele>68</ele>
        <time>2020-06-14T13:56:59.000Z</time>
      </trkpt>
      <trkpt lat="43.64923" lon="3.79026">
        <ele>68</ele>
        <time>2020-06-14T13:57:00.000Z</time>
      </trkpt>
      <trkpt lat="43.64927" lon="3.79024">
        <ele>68</ele>
        <time>2020-06-14T13:57:01.000Z</time>
      </trkpt>
      <trkpt lat="43.64931" lon="3.79021">
        <ele>68</ele>
        <time>2020-06-14T13:57:02.000Z</time>
      </trkpt>
      <trkpt lat="43.64935" lon="3.79017">
        <ele>68</ele>
        <time>2020-06-14T13:57:03.000Z</time>
      </trkpt>
      <trkpt lat="43.64939" lon="3.79014">
        <ele>68</ele>
        <time>2020-06-14T13:57:04.000Z</time>
      </trkpt>
      <trkpt lat="43.64942" lon="3.7901">
        <ele>68</ele>
        <time>2020-06-14T13:57:05.000Z</time>
      </trkpt>
      <trkpt lat="43.64946" lon="3.79008">
        <ele>68</ele>
        <time>2020-06-14T13:57:06.000Z</time>
      </trkpt>
      <trkpt lat="43.64949" lon="3.79005">
        <ele>68</ele>
        <time>2020-06-14T13:57:07.000Z</time>
      </trkpt>
      <trkpt lat="43.64952" lon="3.79004">
        <ele>68</ele>
        <time>2020-06-14T13:57:08.000Z</time>
      </trkpt>
      <trkpt lat="43.64956" lon="3.79002">
        <ele>68</ele>
        <time>2020-06-14T13:57:09.000Z</time>
      </trkpt>
      <trkpt lat="43.64959" lon="3.79">
        <ele>68</ele>
        <time>2020-06-14T13:57:10.000Z</time>
      </trkpt>
      <trkpt lat="43.64962" lon="3.79">
        <ele>68.08700032</ele>
        <time>2020-06-14T13:57:11.000Z</time>
      </trkpt>
      <trkpt lat="43.64966" lon="3.79001">
        <ele>68.18700032</ele>
        <time>2020-06-14T13:57:12.000Z</time>
      </trkpt>
      <trkpt lat="43.64969" lon="3.79002">
        <ele>68.28700032</ele>
        <time>2020-06-14T13:57:13.000Z</time>
      </trkpt>
      <trkpt lat="43.64972" lon="3.79003">
        <ele>68.38700032</ele>
        <time>2020-06-14T13:57:14.000Z</time>
      </trkpt>
      <trkpt lat="43.64975" lon="3.79004">
        <ele>68.48700032</ele>
        <time>2020-06-14T13:57:15.000Z</time>
      </trkpt>
      <trkpt lat="43.64977" lon="3.79004">
        <ele>68.58700032</ele>
        <time>2020-06-14T13:57:16.000Z</time>
      </trkpt>
      <trkpt lat="43.64981" lon="3.79004">
        <ele>68.78700032</ele>
        <time>2020-06-14T13:57:18.000Z</time>
      </trkpt>
      <trkpt lat="43.64983" lon="3.79005">
        <ele>68.88700032</ele>
        <time>2020-06-14T13:57:19.000Z</time>
      </trkpt>
      <trkpt lat="43.64986" lon="3.79005">
        <ele>68.98700032</ele>
        <time>2020-06-14T13:57:20.000Z</time>
      </trkpt>
      <trkpt lat="43.64988" lon="3.79006">
        <ele>68.82599936</ele>
        <time>2020-06-14T13:57:21.000Z</time>
      </trkpt>
      <trkpt lat="43.64991" lon="3.79007">
        <ele>68.62599936</ele>
        <time>2020-06-14T13:57:22.000Z</time>
      </trkpt>
      <trkpt lat="43.64994" lon="3.79006">
        <ele>68.42599936</ele>
        <time>2020-06-14T13:57:23.000Z</time>
      </trkpt>
      <trkpt lat="43.64997" lon="3.79005">
        <ele>68.22599936</ele>
        <time>2020-06-14T13:57:24.000Z</time>
      </trkpt>
      <trkpt lat="43.64999" lon="3.79004">
        <ele>68.02599936</ele>
        <time>2020-06-14T13:57:25.000Z</time>
      </trkpt>
      <trkpt lat="43.65002" lon="3.79002">
        <ele>67.82599936</ele>
        <time>2020-06-14T13:57:26.000Z</time>
      </trkpt>
      <trkpt lat="43.65005" lon="3.79">
        <ele>67.62599936</ele>
        <time>2020-06-14T13:57:27.000Z</time>
      </trkpt>
      <trkpt lat="43.65007" lon="3.78997">
        <ele>67.42599936</ele>
        <time>2020-06-14T13:57:28.000Z</time>
      </trkpt>
      <trkpt lat="43.6501" lon="3.78995">
        <ele>67.22599936</ele>
        <time>2020-06-14T13:57:29.000Z</time>
      </trkpt>
      <trkpt lat="43.65012" lon="3.78993">
        <ele>67.02599936</ele>
        <time>2020-06-14T13:57:30.000Z</time>
      </trkpt>
      <trkpt lat="43.65015" lon="3.78992">
        <ele>66.82599936</ele>
        <time>2020-06-14T13:57:31.000Z</time>
      </trkpt>
      <trkpt lat="43.65019" lon="3.7899">
        <ele>66.62599936</ele>
        <time>2020-06-14T13:57:32.000Z</time>
      </trkpt>
      <trkpt lat="43.65022" lon="3.78988">
        <ele>66.42599936</ele>
        <time>2020-06-14T13:57:33.000Z</time>
      </trkpt>
      <trkpt lat="43.65025" lon="3.78987">
        <ele>66.22599936</ele>
        <time>2020-06-14T13:57:34.000Z</time>
      </trkpt>
      <trkpt lat="43.65028" lon="3.78985">
        <ele>66.02599936</ele>
        <time>2020-06-14T13:57:35.000Z</time>
      </trkpt>
      <trkpt lat="43.6503" lon="3.78983">
        <ele>65.82599936</ele>
        <time>2020-06-14T13:57:36.000Z</time>
      </trkpt>
      <trkpt lat="43.65033" lon="3.78982">
        <ele>65.62599936</ele>
        <time>2020-06-14T13:57:37.000Z</time>
      </trkpt>
      <trkpt lat="43.65036" lon="3.7898">
        <ele>65.42599936</ele>
        <time>2020-06-14T13:57:38.000Z</time>
      </trkpt>
      <trkpt lat="43.65039" lon="3.78979">
        <ele>65.22599936</ele>
        <time>2020-06-14T13:57:39.000Z</time>
      </trkpt>
      <trkpt lat="43.65042" lon="3.78977">
        <ele>65.02599936</ele>
        <time>2020-06-14T13:57:40.000Z</time>
      </trkpt>
      <trkpt lat="43.65046" lon="3.78975">
        <ele>65</ele>
        <time>2020-06-14T13:57:41.000Z</time>
      </trkpt>
      <trkpt lat="43.6505" lon="3.78972">
        <ele>65</ele>
        <time>2020-06-14T13:57:42.000Z</time>
      </trkpt>
      <trkpt lat="43.65053" lon="3.78968">
        <ele>65</ele>
        <time>2020-06-14T13:57:43.000Z</time>
      </trkpt>
      <trkpt lat="43.65057" lon="3.78965">
        <ele>65</ele>
        <time>2020-06-14T13:57:44.000Z</time>
      </trkpt>
      <trkpt lat="43.65061" lon="3.78961">
        <ele>65</ele>
        <time>2020-06-14T13:57:45.000Z</time>
      </trkpt>
      <trkpt lat="43.65064" lon="3.78957">
        <ele>65</ele>
        <time>2020-06-14T13:57:46.000Z</time>
      </trkpt>
      <trkpt lat="43.65067" lon="3.78953">
        <ele>65</ele>
        <time>2020-06-14T13:57:47.000Z</time>
      </trkpt>
      <trkpt lat="43.6507" lon="3.7895">
        <ele>65</ele>
        <time>2020-06-14T13:57:48.000Z</time>
      </trkpt>
      <trkpt lat="43.65073" lon="3.78948">
        <ele>65</ele>
        <time>2020-06-14T13:57:49.000Z</time>
      </trkpt>
      <trkpt lat="43.65077" lon="3.78945">
        <ele>65</ele>
        <time>2020-06-14T13:57:50.000Z</time>
      </trkpt>
      <trkpt lat="43.6508" lon="3.78943">
        <ele>64.91299968</ele>
        <time>2020-06-14T13:57:51.000Z</time>
      </trkpt>
      <trkpt lat="43.65083" lon="3.7894">
        <ele>64.81299968</ele>
        <time>2020-06-14T13:57:52.000Z</time>
      </trkpt>
      <trkpt lat="43.65087" lon="3.78938">
        <ele>64.71299968</ele>
        <time>2020-06-14T13:57:53.000Z</time>
      </trkpt>
      <trkpt lat="43.65091" lon="3.78935">
        <ele>64.61299968</ele>
        <time>2020-06-14T13:57:54.000Z</time>
      </trkpt>
      <trkpt lat="43.65094" lon="3.78932">
        <ele>64.51299968</ele>
        <time>2020-06-14T13:57:55.000Z</time>
      </trkpt>
      <trkpt lat="43.65096" lon="3.7893">
        <ele>64.41299968</ele>
        <time>2020-06-14T13:57:56.000Z</time>
      </trkpt>
      <trkpt lat="43.65098" lon="3.78927">
        <ele>64.31299968</ele>
        <time>2020-06-14T13:57:57.000Z</time>
      </trkpt>
      <trkpt lat="43.65101" lon="3.78924">
        <ele>64.21299968</ele>
        <time>2020-06-14T13:57:58.000Z</time>
      </trkpt>
      <trkpt lat="43.65104" lon="3.78921">
        <ele>64.11299968</ele>
        <time>2020-06-14T13:57:59.000Z</time>
      </trkpt>
      <trkpt lat="43.65107" lon="3.78918">
        <ele>64.01299968</ele>
        <time>2020-06-14T13:58:00.000Z</time>
      </trkpt>
      <trkpt lat="43.6511" lon="3.78915">
        <ele>63.91299968</ele>
        <time>2020-06-14T13:58:01.000Z</time>
      </trkpt>
      <trkpt lat="43.65113" lon="3.78913">
        <ele>63.81299968</ele>
        <time>2020-06-14T13:58:02.000Z</time>
      </trkpt>
      <trkpt lat="43.65115" lon="3.7891">
        <ele>63.71299968</ele>
        <time>2020-06-14T13:58:03.000Z</time>
      </trkpt>
      <trkpt lat="43.65118" lon="3.78907">
        <ele>63.61299968</ele>
        <time>2020-06-14T13:58:04.000Z</time>
      </trkpt>
      <trkpt lat="43.65121" lon="3.78906">
        <ele>63.51299968</ele>
        <time>2020-06-14T13:58:05.000Z</time>
      </trkpt>
      <trkpt lat="43.65123" lon="3.78904">
        <ele>63.41299968</ele>
        <time>2020-06-14T13:58:06.000Z</time>
      </trkpt>
      <trkpt lat="43.65125" lon="3.78901">
        <ele>63.31299968</ele>
        <time>2020-06-14T13:58:07.000Z</time>
      </trkpt>
      <trkpt lat="43.65128" lon="3.78899">
        <ele>63.21299968</ele>
        <time>2020-06-14T13:58:08.000Z</time>
      </trkpt>
      <trkpt lat="43.65131" lon="3.78897">
        <ele>63.11299968</ele>
        <time>2020-06-14T13:58:09.000Z</time>
      </trkpt>
      <trkpt lat="43.65134" lon="3.78894">
        <ele>63.01299968</ele>
        <time>2020-06-14T13:58:10.000Z</time>
      </trkpt>
      <trkpt lat="43.65136" lon="3.78891">
        <ele>63.084548442231</ele>
        <time>2020-06-14T13:58:11.000Z</time>
      </trkpt>
      <trkpt lat="43.65138" lon="3.78888">
        <ele>63.181730202287</ele>
        <time>2020-06-14T13:58:12.000Z</time>
      </trkpt>
      <trkpt lat="43.6514" lon="3.78886">
        <ele>63.278911962344</ele>
        <time>2020-06-14T13:58:13.000Z</time>
      </trkpt>
      <trkpt lat="43.65141" lon="3.78883">
        <ele>63.3760937224</ele>
        <time>2020-06-14T13:58:14.000Z</time>
      </trkpt>
      <trkpt lat="43.65143" lon="3.78881">
        <ele>63.473275482457</ele>
        <time>2020-06-14T13:58:15.000Z</time>
      </trkpt>
      <trkpt lat="43.65144" lon="3.78878">
        <ele>63.570457242513</ele>
        <time>2020-06-14T13:58:16.000Z</time>
      </trkpt>
      <trkpt lat="43.65145" lon="3.78875">
        <ele>63.66763900257</ele>
        <time>2020-06-14T13:58:17.000Z</time>
      </trkpt>
      <trkpt lat="43.65145" lon="3.78872">
        <ele>63.764820762626</ele>
        <time>2020-06-14T13:58:18.000Z</time>
      </trkpt>
      <trkpt lat="43.65146" lon="3.78869">
        <ele>63.862002522683</ele>
        <time>2020-06-14T13:58:19.000Z</time>
      </trkpt>
      <trkpt lat="43.65145" lon="3.78865">
        <ele>64.059610054239</ele>
        <time>2020-06-14T13:58:21.000Z</time>
      </trkpt>
      <trkpt lat="43.65144" lon="3.78861">
        <ele>64.162384875756</ele>
        <time>2020-06-14T13:58:22.000Z</time>
      </trkpt>
      <trkpt lat="43.65145" lon="3.78858">
        <ele>64.265159697273</ele>
        <time>2020-06-14T13:58:23.000Z</time>
      </trkpt>
      <trkpt lat="43.65145" lon="3.78855">
        <ele>64.36793451879</ele>
        <time>2020-06-14T13:58:24.000Z</time>
      </trkpt>
      <trkpt lat="43.65145" lon="3.78852">
        <ele>64.470709340307</ele>
        <time>2020-06-14T13:58:25.000Z</time>
      </trkpt>
      <trkpt lat="43.65145" lon="3.78847">
        <ele>64.676258983342</ele>
        <time>2020-06-14T13:58:27.000Z</time>
      </trkpt>
      <trkpt lat="43.65145" lon="3.78845">
        <ele>64.779033804859</ele>
        <time>2020-06-14T13:58:28.000Z</time>
      </trkpt>
      <trkpt lat="43.65145" lon="3.78842">
        <ele>64.881808626376</ele>
        <time>2020-06-14T13:58:29.000Z</time>
      </trkpt>
      <trkpt lat="43.65145" lon="3.78839">
        <ele>64.984583447893</ele>
        <time>2020-06-14T13:58:30.000Z</time>
      </trkpt>
      <trkpt lat="43.65145" lon="3.78836">
        <ele>65.170340149316</ele>
        <time>2020-06-14T13:58:31.000Z</time>
      </trkpt>
      <trkpt lat="43.65145" lon="3.78832">
        <ele>65.57114200955</ele>
        <time>2020-06-14T13:58:33.000Z</time>
      </trkpt>
      <trkpt lat="43.65145" lon="3.78828">
        <ele>65.971943869784</ele>
        <time>2020-06-14T13:58:35.000Z</time>
      </trkpt>
      <trkpt lat="43.65145" lon="3.78823">
        <ele>66.372745730017</ele>
        <time>2020-06-14T13:58:37.000Z</time>
      </trkpt>
      <trkpt lat="43.65145" lon="3.7882">
        <ele>66.573146660134</ele>
        <time>2020-06-14T13:58:38.000Z</time>
      </trkpt>
      <trkpt lat="43.65146" lon="3.78817">
        <ele>66.773547590251</ele>
        <time>2020-06-14T13:58:39.000Z</time>
      </trkpt>
      <trkpt lat="43.65147" lon="3.78815">
        <ele>66.973948520368</ele>
        <time>2020-06-14T13:58:40.000Z</time>
      </trkpt>
      <trkpt lat="43.65149" lon="3.78814">
        <ele>67.173135020302</ele>
        <time>2020-06-14T13:58:41.000Z</time>
      </trkpt>
      <trkpt lat="43.65151" lon="3.78812">
        <ele>67.372140058791</ele>
        <time>2020-06-14T13:58:42.000Z</time>
      </trkpt>
      <trkpt lat="43.65153" lon="3.78811">
        <ele>67.57114509728</ele>
        <time>2020-06-14T13:58:43.000Z</time>
      </trkpt>
      <trkpt lat="43.65155" lon="3.78809">
        <ele>67.770150135769</ele>
        <time>2020-06-14T13:58:44.000Z</time>
      </trkpt>
      <trkpt lat="43.65157" lon="3.78808">
        <ele>67.969155174258</ele>
        <time>2020-06-14T13:58:45.000Z</time>
      </trkpt>
      <trkpt lat="43.65159" lon="3.78806">
        <ele>68.168160212747</ele>
        <time>2020-06-14T13:58:46.000Z</time>
      </trkpt>
      <trkpt lat="43.65161" lon="3.78804">
        <ele>68.367165251237</ele>
        <time>2020-06-14T13:58:47.000Z</time>
      </trkpt>
      <trkpt lat="43.65163" lon="3.78802">
        <ele>68.566170289726</ele>
        <time>2020-06-14T13:58:48.000Z</time>
      </trkpt>
      <trkpt lat="43.65166" lon="3.788">
        <ele>68.765175328215</ele>
        <time>2020-06-14T13:58:49.000Z</time>
      </trkpt>
      <trkpt lat="43.65168" lon="3.78798">
        <ele>68.964180366704</ele>
        <time>2020-06-14T13:58:50.000Z</time>
      </trkpt>
      <trkpt lat="43.65171" lon="3.78796">
        <ele>68.917587322987</ele>
        <time>2020-06-14T13:58:51.000Z</time>
      </trkpt>
      <trkpt lat="43.65174" lon="3.78795">
        <ele>68.817084842747</ele>
        <time>2020-06-14T13:58:52.000Z</time>
      </trkpt>
      <trkpt lat="43.65177" lon="3.78793">
        <ele>68.716582362506</ele>
        <time>2020-06-14T13:58:53.000Z</time>
      </trkpt>
      <trkpt lat="43.65179" lon="3.78791">
        <ele>68.616079882266</ele>
        <time>2020-06-14T13:58:54.000Z</time>
      </trkpt>
      <trkpt lat="43.65182" lon="3.78789">
        <ele>68.515577402025</ele>
        <time>2020-06-14T13:58:55.000Z</time>
      </trkpt>
      <trkpt lat="43.65184" lon="3.78788">
        <ele>68.415074921785</ele>
        <time>2020-06-14T13:58:56.000Z</time>
      </trkpt>
      <trkpt lat="43.65187" lon="3.78786">
        <ele>68.314572441544</ele>
        <time>2020-06-14T13:58:57.000Z</time>
      </trkpt>
      <trkpt lat="43.6519" lon="3.78784">
        <ele>68.214069961304</ele>
        <time>2020-06-14T13:58:58.000Z</time>
      </trkpt>
      <trkpt lat="43.65193" lon="3.78783">
        <ele>68.113567481064</ele>
        <time>2020-06-14T13:58:59.000Z</time>
      </trkpt>
      <trkpt lat="43.65196" lon="3.78781">
        <ele>68.013065000823</ele>
        <time>2020-06-14T13:59:00.000Z</time>
      </trkpt>
      <trkpt lat="43.65198" lon="3.7878">
        <ele>67.91299968</ele>
        <time>2020-06-14T13:59:01.000Z</time>
      </trkpt>
      <trkpt lat="43.652" lon="3.78777">
        <ele>67.81299968</ele>
        <time>2020-06-14T13:59:02.000Z</time>
      </trkpt>
      <trkpt lat="43.65202" lon="3.78775">
        <ele>67.71299968</ele>
        <time>2020-06-14T13:59:03.000Z</time>
      </trkpt>
      <trkpt lat="43.65204" lon="3.78772">
        <ele>67.61299968</ele>
        <time>2020-06-14T13:59:04.000Z</time>
      </trkpt>
      <trkpt lat="43.65206" lon="3.7877">
        <ele>67.51299968</ele>
        <time>2020-06-14T13:59:05.000Z</time>
      </trkpt>
      <trkpt lat="43.65209" lon="3.78768">
        <ele>67.41299968</ele>
        <time>2020-06-14T13:59:06.000Z</time>
      </trkpt>
      <trkpt lat="43.65211" lon="3.78765">
        <ele>67.31299968</ele>
        <time>2020-06-14T13:59:07.000Z</time>
      </trkpt>
      <trkpt lat="43.65212" lon="3.78762">
        <ele>67.21299968</ele>
        <time>2020-06-14T13:59:08.000Z</time>
      </trkpt>
      <trkpt lat="43.65214" lon="3.78759">
        <ele>67.11299968</ele>
        <time>2020-06-14T13:59:09.000Z</time>
      </trkpt>
      <trkpt lat="43.65216" lon="3.78756">
        <ele>67.01299968</ele>
        <time>2020-06-14T13:59:10.000Z</time>
      </trkpt>
      <trkpt lat="43.65217" lon="3.78753">
        <ele>67</ele>
        <time>2020-06-14T13:59:11.000Z</time>
      </trkpt>
      <trkpt lat="43.65218" lon="3.78749">
        <ele>67</ele>
        <time>2020-06-14T13:59:12.000Z</time>
      </trkpt>
      <trkpt lat="43.65219" lon="3.78746">
        <ele>67</ele>
        <time>2020-06-14T13:59:13.000Z</time>
      </trkpt>
      <trkpt lat="43.65221" lon="3.78743">
        <ele>67</ele>
        <time>2020-06-14T13:59:14.000Z</time>
      </trkpt>
      <trkpt lat="43.65223" lon="3.7874">
        <ele>67</ele>
        <time>2020-06-14T13:59:15.000Z</time>
      </trkpt>
      <trkpt lat="43.65225" lon="3.78739">
        <ele>67</ele>
        <time>2020-06-14T13:59:16.000Z</time>
      </trkpt>
      <trkpt lat="43.65226" lon="3.78737">
        <ele>67</ele>
        <time>2020-06-14T13:59:17.000Z</time>
      </trkpt>
      <trkpt lat="43.65228" lon="3.78735">
        <ele>67</ele>
        <time>2020-06-14T13:59:19.000Z</time>
      </trkpt>
      <trkpt lat="43.65227" lon="3.78732">
        <ele>66.91308667676</ele>
        <time>2020-06-14T13:59:21.000Z</time>
      </trkpt>
      <trkpt lat="43.65224" lon="3.78732">
        <ele>66.713286668576</ele>
        <time>2020-06-14T13:59:23.000Z</time>
      </trkpt>
      <trkpt lat="43.65222" lon="3.78732">
        <ele>66.613386664484</ele>
        <time>2020-06-14T13:59:24.000Z</time>
      </trkpt>
      <trkpt lat="43.6522" lon="3.78734">
        <ele>66.513486660392</ele>
        <time>2020-06-14T13:59:25.000Z</time>
      </trkpt>
      <trkpt lat="43.65217" lon="3.78734">
        <ele>66.4135866563</ele>
        <time>2020-06-14T13:59:26.000Z</time>
      </trkpt>
      <trkpt lat="43.65215" lon="3.78733">
        <ele>66.313686652209</ele>
        <time>2020-06-14T13:59:27.000Z</time>
      </trkpt>
      <trkpt lat="43.65214" lon="3.7873">
        <ele>66.213786648117</ele>
        <time>2020-06-14T13:59:28.000Z</time>
      </trkpt>
      <trkpt lat="43.65214" lon="3.78727">
        <ele>66.113886644025</ele>
        <time>2020-06-14T13:59:29.000Z</time>
      </trkpt>
      <trkpt lat="43.65214" lon="3.78724">
        <ele>66</ele>
        <time>2020-06-14T13:59:31.000Z</time>
      </trkpt>
      <trkpt lat="43.65212" lon="3.78721">
        <ele>66</ele>
        <time>2020-06-14T13:59:33.000Z</time>
      </trkpt>
      <trkpt lat="43.65211" lon="3.78719">
        <ele>66</ele>
        <time>2020-06-14T13:59:35.000Z</time>
      </trkpt>
      <trkpt lat="43.6521" lon="3.78716">
        <ele>66</ele>
        <time>2020-06-14T13:59:37.000Z</time>
      </trkpt>
      <trkpt lat="43.6521" lon="3.78713">
        <ele>66</ele>
        <time>2020-06-14T13:59:39.000Z</time>
      </trkpt>
      <trkpt lat="43.65209" lon="3.7871">
        <ele>66.058762595472</ele>
        <time>2020-06-14T13:59:41.000Z</time>
      </trkpt>
      <trkpt lat="43.65208" lon="3.78707">
        <ele>66.161855446997</ele>
        <time>2020-06-14T13:59:42.000Z</time>
      </trkpt>
      <trkpt lat="43.65208" lon="3.78704">
        <ele>66.264948298523</ele>
        <time>2020-06-14T13:59:43.000Z</time>
      </trkpt>
      <trkpt lat="43.65208" lon="3.787">
        <ele>66.471134001573</ele>
        <time>2020-06-14T13:59:45.000Z</time>
      </trkpt>
      <trkpt lat="43.65208" lon="3.78697">
        <ele>66.574226853098</ele>
        <time>2020-06-14T13:59:46.000Z</time>
      </trkpt>
      <trkpt lat="43.65208" lon="3.78692">
        <ele>66.780412556149</ele>
        <time>2020-06-14T13:59:48.000Z</time>
      </trkpt>
      <trkpt lat="43.65207" lon="3.78689">
        <ele>66.883505407674</ele>
        <time>2020-06-14T13:59:49.000Z</time>
      </trkpt>
      <trkpt lat="43.65207" lon="3.78686">
        <ele>66.986598259199</ele>
        <time>2020-06-14T13:59:50.000Z</time>
      </trkpt>
      <trkpt lat="43.65207" lon="3.78684">
        <ele>67.086395523688</ele>
        <time>2020-06-14T13:59:51.000Z</time>
      </trkpt>
      <trkpt lat="43.65207" lon="3.78681">
        <ele>67.185700358069</ele>
        <time>2020-06-14T13:59:52.000Z</time>
      </trkpt>
      <trkpt lat="43.65207" lon="3.78678">
        <ele>67.285005192451</ele>
        <time>2020-06-14T13:59:53.000Z</time>
      </trkpt>
      <trkpt lat="43.65207" lon="3.78675">
        <ele>67.384310026833</ele>
        <time>2020-06-14T13:59:54.000Z</time>
      </trkpt>
      <trkpt lat="43.65207" lon="3.78672">
        <ele>67.483614861215</ele>
        <time>2020-06-14T13:59:55.000Z</time>
      </trkpt>
      <trkpt lat="43.65206" lon="3.78669">
        <ele>67.582919695597</ele>
        <time>2020-06-14T13:59:56.000Z</time>
      </trkpt>
      <trkpt lat="43.65206" lon="3.78667">
        <ele>67.682224529978</ele>
        <time>2020-06-14T13:59:57.000Z</time>
      </trkpt>
      <trkpt lat="43.65207" lon="3.78664">
        <ele>67.78152936436</ele>
        <time>2020-06-14T13:59:58.000Z</time>
      </trkpt>
      <trkpt lat="43.65207" lon="3.78659">
        <ele>67.980139033124</ele>
        <time>2020-06-14T14:00:00.000Z</time>
      </trkpt>
      <trkpt lat="43.65207" lon="3.78656">
        <ele>68.161127947191</ele>
        <time>2020-06-14T14:00:01.000Z</time>
      </trkpt>
      <trkpt lat="43.65207" lon="3.78653">
        <ele>68.36253788118</ele>
        <time>2020-06-14T14:00:02.000Z</time>
      </trkpt>
      <trkpt lat="43.65206" lon="3.7865">
        <ele>68.563947815169</ele>
        <time>2020-06-14T14:00:03.000Z</time>
      </trkpt>
      <trkpt lat="43.65206" lon="3.78647">
        <ele>68.765357749159</ele>
        <time>2020-06-14T14:00:04.000Z</time>
      </trkpt>
      <trkpt lat="43.65206" lon="3.78644">
        <ele>68.966767683148</ele>
        <time>2020-06-14T14:00:05.000Z</time>
      </trkpt>
      <trkpt lat="43.65206" lon="3.78641">
        <ele>69.168177617137</ele>
        <time>2020-06-14T14:00:06.000Z</time>
      </trkpt>
      <trkpt lat="43.65206" lon="3.78638">
        <ele>69.369587551126</ele>
        <time>2020-06-14T14:00:07.000Z</time>
      </trkpt>
      <trkpt lat="43.65206" lon="3.78635">
        <ele>69.570997485115</ele>
        <time>2020-06-14T14:00:08.000Z</time>
      </trkpt>
      <trkpt lat="43.65206" lon="3.78632">
        <ele>69.772407419104</ele>
        <time>2020-06-14T14:00:09.000Z</time>
      </trkpt>
      <trkpt lat="43.65205" lon="3.78629">
        <ele>69.973817353093</ele>
        <time>2020-06-14T14:00:10.000Z</time>
      </trkpt>
      <trkpt lat="43.65205" lon="3.78625">
        <ele>70.08700032</ele>
        <time>2020-06-14T14:00:11.000Z</time>
      </trkpt>
      <trkpt lat="43.65205" lon="3.78622">
        <ele>70.18700032</ele>
        <time>2020-06-14T14:00:12.000Z</time>
      </trkpt>
      <trkpt lat="43.65204" lon="3.78619">
        <ele>70.28700032</ele>
        <time>2020-06-14T14:00:13.000Z</time>
      </trkpt>
      <trkpt lat="43.65204" lon="3.78616">
        <ele>70.38700032</ele>
        <time>2020-06-14T14:00:14.000Z</time>
      </trkpt>
      <trkpt lat="43.65205" lon="3.78613">
        <ele>70.48700032</ele>
        <time>2020-06-14T14:00:15.000Z</time>
      </trkpt>
      <trkpt lat="43.65205" lon="3.78611">
        <ele>70.58700032</ele>
        <time>2020-06-14T14:00:16.000Z</time>
      </trkpt>
      <trkpt lat="43.65205" lon="3.78608">
        <ele>70.68700032</ele>
        <time>2020-06-14T14:00:17.000Z</time>
      </trkpt>
      <trkpt lat="43.65204" lon="3.78605">
        <ele>70.78700032</ele>
        <time>2020-06-14T14:00:18.000Z</time>
      </trkpt>
      <trkpt lat="43.65203" lon="3.78602">
        <ele>70.88700032</ele>
        <time>2020-06-14T14:00:19.000Z</time>
      </trkpt>
      <trkpt lat="43.65202" lon="3.78599">
        <ele>70.98700032</ele>
        <time>2020-06-14T14:00:20.000Z</time>
      </trkpt>
      <trkpt lat="43.65201" lon="3.78596">
        <ele>71.08700032</ele>
        <time>2020-06-14T14:00:21.000Z</time>
      </trkpt>
      <trkpt lat="43.65201" lon="3.78594">
        <ele>71.18700032</ele>
        <time>2020-06-14T14:00:22.000Z</time>
      </trkpt>
      <trkpt lat="43.65201" lon="3.78591">
        <ele>71.28700032</ele>
        <time>2020-06-14T14:00:23.000Z</time>
      </trkpt>
      <trkpt lat="43.652" lon="3.78588">
        <ele>71.38700032</ele>
        <time>2020-06-14T14:00:24.000Z</time>
      </trkpt>
      <trkpt lat="43.65199" lon="3.78585">
        <ele>71.48700032</ele>
        <time>2020-06-14T14:00:25.000Z</time>
      </trkpt>
      <trkpt lat="43.65198" lon="3.78582">
        <ele>71.58700032</ele>
        <time>2020-06-14T14:00:26.000Z</time>
      </trkpt>
      <trkpt lat="43.65198" lon="3.7858">
        <ele>71.68700032</ele>
        <time>2020-06-14T14:00:27.000Z</time>
      </trkpt>
      <trkpt lat="43.65197" lon="3.78577">
        <ele>71.78700032</ele>
        <time>2020-06-14T14:00:28.000Z</time>
      </trkpt>
      <trkpt lat="43.65196" lon="3.78574">
        <ele>71.88700032</ele>
        <time>2020-06-14T14:00:29.000Z</time>
      </trkpt>
      <trkpt lat="43.65196" lon="3.78571">
        <ele>71.98700032</ele>
        <time>2020-06-14T14:00:30.000Z</time>
      </trkpt>
      <trkpt lat="43.65195" lon="3.78568">
        <ele>72.08691332324</ele>
        <time>2020-06-14T14:00:31.000Z</time>
      </trkpt>
      <trkpt lat="43.65195" lon="3.78565">
        <ele>72.186813327332</ele>
        <time>2020-06-14T14:00:32.000Z</time>
      </trkpt>
      <trkpt lat="43.65194" lon="3.78562">
        <ele>72.286713331424</ele>
        <time>2020-06-14T14:00:33.000Z</time>
      </trkpt>
      <trkpt lat="43.65194" lon="3.78559">
        <ele>72.386613335516</ele>
        <time>2020-06-14T14:00:34.000Z</time>
      </trkpt>
      <trkpt lat="43.65193" lon="3.78556">
        <ele>72.486513339608</ele>
        <time>2020-06-14T14:00:35.000Z</time>
      </trkpt>
      <trkpt lat="43.65193" lon="3.78552">
        <ele>72.5864133437</ele>
        <time>2020-06-14T14:00:36.000Z</time>
      </trkpt>
      <trkpt lat="43.65193" lon="3.78549">
        <ele>72.686313347791</ele>
        <time>2020-06-14T14:00:37.000Z</time>
      </trkpt>
      <trkpt lat="43.65192" lon="3.78546">
        <ele>72.786213351883</ele>
        <time>2020-06-14T14:00:38.000Z</time>
      </trkpt>
      <trkpt lat="43.65192" lon="3.78543">
        <ele>72.886113355975</ele>
        <time>2020-06-14T14:00:39.000Z</time>
      </trkpt>
      <trkpt lat="43.65192" lon="3.7854">
        <ele>72.986013360067</ele>
        <time>2020-06-14T14:00:40.000Z</time>
      </trkpt>
      <trkpt lat="43.65192" lon="3.78536">
        <ele>73.08599936</ele>
        <time>2020-06-14T14:00:41.000Z</time>
      </trkpt>
      <trkpt lat="43.65192" lon="3.78533">
        <ele>73.18599936</ele>
        <time>2020-06-14T14:00:42.000Z</time>
      </trkpt>
      <trkpt lat="43.65192" lon="3.7853">
        <ele>73.28599936</ele>
        <time>2020-06-14T14:00:43.000Z</time>
      </trkpt>
      <trkpt lat="43.65192" lon="3.78526">
        <ele>73.38599936</ele>
        <time>2020-06-14T14:00:44.000Z</time>
      </trkpt>
      <trkpt lat="43.65192" lon="3.78523">
        <ele>73.48599936</ele>
        <time>2020-06-14T14:00:45.000Z</time>
      </trkpt>
      <trkpt lat="43.65193" lon="3.78519">
        <ele>73.58599936</ele>
        <time>2020-06-14T14:00:46.000Z</time>
      </trkpt>
      <trkpt lat="43.65193" lon="3.78516">
        <ele>73.68599936</ele>
        <time>2020-06-14T14:00:47.000Z</time>
      </trkpt>
      <trkpt lat="43.65193" lon="3.78512">
        <ele>73.78599936</ele>
        <time>2020-06-14T14:00:48.000Z</time>
      </trkpt>
      <trkpt lat="43.65194" lon="3.78509">
        <ele>73.88599936</ele>
        <time>2020-06-14T14:00:49.000Z</time>
      </trkpt>
      <trkpt lat="43.65195" lon="3.78506">
        <ele>73.98599936</ele>
        <time>2020-06-14T14:00:50.000Z</time>
      </trkpt>
      <trkpt lat="43.65195" lon="3.78502">
        <ele>74.08599936</ele>
        <time>2020-06-14T14:00:51.000Z</time>
      </trkpt>
      <trkpt lat="43.65196" lon="3.78499">
        <ele>74.18599936</ele>
        <time>2020-06-14T14:00:52.000Z</time>
      </trkpt>
      <trkpt lat="43.65196" lon="3.78495">
        <ele>74.28599936</ele>
        <time>2020-06-14T14:00:53.000Z</time>
      </trkpt>
      <trkpt lat="43.65197" lon="3.78492">
        <ele>74.38599936</ele>
        <time>2020-06-14T14:00:54.000Z</time>
      </trkpt>
      <trkpt lat="43.65197" lon="3.78488">
        <ele>74.48599936</ele>
        <time>2020-06-14T14:00:55.000Z</time>
      </trkpt>
      <trkpt lat="43.65198" lon="3.78485">
        <ele>74.58599936</ele>
        <time>2020-06-14T14:00:56.000Z</time>
      </trkpt>
      <trkpt lat="43.65198" lon="3.78481">
        <ele>74.68599936</ele>
        <time>2020-06-14T14:00:57.000Z</time>
      </trkpt>
      <trkpt lat="43.65199" lon="3.78477">
        <ele>74.78599936</ele>
        <time>2020-06-14T14:00:58.000Z</time>
      </trkpt>
      <trkpt lat="43.65199" lon="3.78474">
        <ele>74.88599936</ele>
        <time>2020-06-14T14:00:59.000Z</time>
      </trkpt>
      <trkpt lat="43.652" lon="3.78471">
        <ele>74.98599936</ele>
        <time>2020-06-14T14:01:00.000Z</time>
      </trkpt>
      <trkpt lat="43.652" lon="3.78467">
        <ele>75.17199872</ele>
        <time>2020-06-14T14:01:01.000Z</time>
      </trkpt>
      <trkpt lat="43.652" lon="3.78464">
        <ele>75.37199872</ele>
        <time>2020-06-14T14:01:02.000Z</time>
      </trkpt>
      <trkpt lat="43.65199" lon="3.7846">
        <ele>75.57199872</ele>
        <time>2020-06-14T14:01:03.000Z</time>
      </trkpt>
      <trkpt lat="43.65199" lon="3.78457">
        <ele>75.77199872</ele>
        <time>2020-06-14T14:01:04.000Z</time>
      </trkpt>
      <trkpt lat="43.65199" lon="3.78453">
        <ele>75.97199872</ele>
        <time>2020-06-14T14:01:05.000Z</time>
      </trkpt>
      <trkpt lat="43.65198" lon="3.7845">
        <ele>76.17199872</ele>
        <time>2020-06-14T14:01:06.000Z</time>
      </trkpt>
      <trkpt lat="43.65198" lon="3.78447">
        <ele>76.37199872</ele>
        <time>2020-06-14T14:01:07.000Z</time>
      </trkpt>
      <trkpt lat="43.65197" lon="3.78444">
        <ele>76.57199872</ele>
        <time>2020-06-14T14:01:08.000Z</time>
      </trkpt>
      <trkpt lat="43.65197" lon="3.78441">
        <ele>76.77199872</ele>
        <time>2020-06-14T14:01:09.000Z</time>
      </trkpt>
      <trkpt lat="43.65196" lon="3.78438">
        <ele>76.97199872</ele>
        <time>2020-06-14T14:01:10.000Z</time>
      </trkpt>
      <trkpt lat="43.65195" lon="3.78435">
        <ele>77</ele>
        <time>2020-06-14T14:01:11.000Z</time>
      </trkpt>
      <trkpt lat="43.65194" lon="3.78432">
        <ele>77</ele>
        <time>2020-06-14T14:01:12.000Z</time>
      </trkpt>
      <trkpt lat="43.65193" lon="3.78429">
        <ele>77</ele>
        <time>2020-06-14T14:01:13.000Z</time>
      </trkpt>
      <trkpt lat="43.65193" lon="3.78426">
        <ele>77</ele>
        <time>2020-06-14T14:01:14.000Z</time>
      </trkpt>
      <trkpt lat="43.65192" lon="3.78423">
        <ele>77</ele>
        <time>2020-06-14T14:01:15.000Z</time>
      </trkpt>
      <trkpt lat="43.65192" lon="3.78419">
        <ele>77</ele>
        <time>2020-06-14T14:01:16.000Z</time>
      </trkpt>
      <trkpt lat="43.65191" lon="3.78416">
        <ele>77</ele>
        <time>2020-06-14T14:01:17.000Z</time>
      </trkpt>
      <trkpt lat="43.65191" lon="3.78412">
        <ele>77</ele>
        <time>2020-06-14T14:01:18.000Z</time>
      </trkpt>
      <trkpt lat="43.6519" lon="3.78409">
        <ele>77</ele>
        <time>2020-06-14T14:01:19.000Z</time>
      </trkpt>
      <trkpt lat="43.6519" lon="3.78405">
        <ele>77</ele>
        <time>2020-06-14T14:01:20.000Z</time>
      </trkpt>
      <trkpt lat="43.65189" lon="3.78401">
        <ele>77.084548442231</ele>
        <time>2020-06-14T14:01:21.000Z</time>
      </trkpt>
      <trkpt lat="43.65189" lon="3.78397">
        <ele>77.181730202287</ele>
        <time>2020-06-14T14:01:22.000Z</time>
      </trkpt>
      <trkpt lat="43.65188" lon="3.78394">
        <ele>77.278911962344</ele>
        <time>2020-06-14T14:01:23.000Z</time>
      </trkpt>
      <trkpt lat="43.65188" lon="3.78391">
        <ele>77.3760937224</ele>
        <time>2020-06-14T14:01:24.000Z</time>
      </trkpt>
      <trkpt lat="43.65187" lon="3.78388">
        <ele>77.473275482457</ele>
        <time>2020-06-14T14:01:25.000Z</time>
      </trkpt>
      <trkpt lat="43.65187" lon="3.78385">
        <ele>77.570457242513</ele>
        <time>2020-06-14T14:01:26.000Z</time>
      </trkpt>
      <trkpt lat="43.65186" lon="3.78382">
        <ele>77.66763900257</ele>
        <time>2020-06-14T14:01:27.000Z</time>
      </trkpt>
      <trkpt lat="43.65186" lon="3.78379">
        <ele>77.764820762626</ele>
        <time>2020-06-14T14:01:28.000Z</time>
      </trkpt>
      <trkpt lat="43.65185" lon="3.78376">
        <ele>77.862002522683</ele>
        <time>2020-06-14T14:01:29.000Z</time>
      </trkpt>
      <trkpt lat="43.65184" lon="3.78373">
        <ele>77.959184282739</ele>
        <time>2020-06-14T14:01:30.000Z</time>
      </trkpt>
      <trkpt lat="43.65184" lon="3.7837">
        <ele>78.059732874238</ele>
        <time>2020-06-14T14:01:31.000Z</time>
      </trkpt>
      <trkpt lat="43.65183" lon="3.78367">
        <ele>78.162719452039</ele>
        <time>2020-06-14T14:01:32.000Z</time>
      </trkpt>
      <trkpt lat="43.65182" lon="3.78364">
        <ele>78.265706029839</ele>
        <time>2020-06-14T14:01:33.000Z</time>
      </trkpt>
      <trkpt lat="43.65182" lon="3.7836">
        <ele>78.36869260764</ele>
        <time>2020-06-14T14:01:34.000Z</time>
      </trkpt>
      <trkpt lat="43.65181" lon="3.78357">
        <ele>78.47167918544</ele>
        <time>2020-06-14T14:01:35.000Z</time>
      </trkpt>
      <trkpt lat="43.65181" lon="3.78354">
        <ele>78.574665763241</ele>
        <time>2020-06-14T14:01:36.000Z</time>
      </trkpt>
      <trkpt lat="43.6518" lon="3.78351">
        <ele>78.677652341041</ele>
        <time>2020-06-14T14:01:37.000Z</time>
      </trkpt>
      <trkpt lat="43.65179" lon="3.78348">
        <ele>78.780638918842</ele>
        <time>2020-06-14T14:01:38.000Z</time>
      </trkpt>
      <trkpt lat="43.65178" lon="3.78344">
        <ele>78.883625496642</ele>
        <time>2020-06-14T14:01:39.000Z</time>
      </trkpt>
      <trkpt lat="43.65178" lon="3.78341">
        <ele>78.986612074443</ele>
        <time>2020-06-14T14:01:40.000Z</time>
      </trkpt>
      <trkpt lat="43.65177" lon="3.78338">
        <ele>79.08691332324</ele>
        <time>2020-06-14T14:01:41.000Z</time>
      </trkpt>
      <trkpt lat="43.65176" lon="3.78334">
        <ele>79.186813327332</ele>
        <time>2020-06-14T14:01:42.000Z</time>
      </trkpt>
      <trkpt lat="43.65176" lon="3.78331">
        <ele>79.286713331424</ele>
        <time>2020-06-14T14:01:43.000Z</time>
      </trkpt>
      <trkpt lat="43.65175" lon="3.78328">
        <ele>79.386613335516</ele>
        <time>2020-06-14T14:01:44.000Z</time>
      </trkpt>
      <trkpt lat="43.65174" lon="3.78325">
        <ele>79.486513339608</ele>
        <time>2020-06-14T14:01:45.000Z</time>
      </trkpt>
      <trkpt lat="43.65174" lon="3.78322">
        <ele>79.5864133437</ele>
        <time>2020-06-14T14:01:46.000Z</time>
      </trkpt>
      <trkpt lat="43.65173" lon="3.78319">
        <ele>79.686313347791</ele>
        <time>2020-06-14T14:01:47.000Z</time>
      </trkpt>
      <trkpt lat="43.65173" lon="3.78315">
        <ele>79.786213351883</ele>
        <time>2020-06-14T14:01:48.000Z</time>
      </trkpt>
      <trkpt lat="43.65172" lon="3.78312">
        <ele>79.886113355975</ele>
        <time>2020-06-14T14:01:49.000Z</time>
      </trkpt>
      <trkpt lat="43.65172" lon="3.78309">
        <ele>79.986013360067</ele>
        <time>2020-06-14T14:01:50.000Z</time>
      </trkpt>
      <trkpt lat="43.65171" lon="3.78305">
        <ele>80.08608552817</ele>
        <time>2020-06-14T14:01:51.000Z</time>
      </trkpt>
      <trkpt lat="43.6517" lon="3.78302">
        <ele>80.186185724463</ele>
        <time>2020-06-14T14:01:52.000Z</time>
      </trkpt>
      <trkpt lat="43.6517" lon="3.78299">
        <ele>80.286285920755</ele>
        <time>2020-06-14T14:01:53.000Z</time>
      </trkpt>
      <trkpt lat="43.65169" lon="3.78295">
        <ele>80.386386117048</ele>
        <time>2020-06-14T14:01:54.000Z</time>
      </trkpt>
      <trkpt lat="43.65169" lon="3.78292">
        <ele>80.48648631334</ele>
        <time>2020-06-14T14:01:55.000Z</time>
      </trkpt>
      <trkpt lat="43.65168" lon="3.78289">
        <ele>80.586586509633</ele>
        <time>2020-06-14T14:01:56.000Z</time>
      </trkpt>
      <trkpt lat="43.65168" lon="3.78285">
        <ele>80.686686705925</ele>
        <time>2020-06-14T14:01:57.000Z</time>
      </trkpt>
      <trkpt lat="43.65167" lon="3.78282">
        <ele>80.786786902218</ele>
        <time>2020-06-14T14:01:58.000Z</time>
      </trkpt>
      <trkpt lat="43.65167" lon="3.78279">
        <ele>80.88688709851</ele>
        <time>2020-06-14T14:01:59.000Z</time>
      </trkpt>
      <trkpt lat="43.65167" lon="3.78276">
        <ele>80.986987294803</ele>
        <time>2020-06-14T14:02:00.000Z</time>
      </trkpt>
      <trkpt lat="43.65168" lon="3.78272">
        <ele>81.17400064</ele>
        <time>2020-06-14T14:02:01.000Z</time>
      </trkpt>
      <trkpt lat="43.65168" lon="3.78269">
        <ele>81.37400064</ele>
        <time>2020-06-14T14:02:02.000Z</time>
      </trkpt>
      <trkpt lat="43.65169" lon="3.78265">
        <ele>81.57400064</ele>
        <time>2020-06-14T14:02:03.000Z</time>
      </trkpt>
      <trkpt lat="43.65169" lon="3.78262">
        <ele>81.77400064</ele>
        <time>2020-06-14T14:02:04.000Z</time>
      </trkpt>
      <trkpt lat="43.65169" lon="3.78259">
        <ele>81.97400064</ele>
        <time>2020-06-14T14:02:05.000Z</time>
      </trkpt>
      <trkpt lat="43.65169" lon="3.78256">
        <ele>82.17400064</ele>
        <time>2020-06-14T14:02:06.000Z</time>
      </trkpt>
      <trkpt lat="43.65169" lon="3.78254">
        <ele>82.37400064</ele>
        <time>2020-06-14T14:02:07.000Z</time>
      </trkpt>
      <trkpt lat="43.65169" lon="3.78251">
        <ele>82.57400064</ele>
        <time>2020-06-14T14:02:08.000Z</time>
      </trkpt>
      <trkpt lat="43.65169" lon="3.78248">
        <ele>82.77400064</ele>
        <time>2020-06-14T14:02:09.000Z</time>
      </trkpt>
      <trkpt lat="43.65168" lon="3.78245">
        <ele>82.97400064</ele>
        <time>2020-06-14T14:02:10.000Z</time>
      </trkpt>
      <trkpt lat="43.65168" lon="3.78242">
        <ele>83</ele>
        <time>2020-06-14T14:02:11.000Z</time>
      </trkpt>
      <trkpt lat="43.65168" lon="3.78238">
        <ele>83</ele>
        <time>2020-06-14T14:02:12.000Z</time>
      </trkpt>
      <trkpt lat="43.65167" lon="3.78235">
        <ele>83</ele>
        <time>2020-06-14T14:02:13.000Z</time>
      </trkpt>
      <trkpt lat="43.65167" lon="3.78232">
        <ele>83</ele>
        <time>2020-06-14T14:02:14.000Z</time>
      </trkpt>
      <trkpt lat="43.65167" lon="3.78229">
        <ele>83</ele>
        <time>2020-06-14T14:02:15.000Z</time>
      </trkpt>
      <trkpt lat="43.65167" lon="3.78227">
        <ele>83</ele>
        <time>2020-06-14T14:02:16.000Z</time>
      </trkpt>
      <trkpt lat="43.65167" lon="3.78224">
        <ele>83</ele>
        <time>2020-06-14T14:02:17.000Z</time>
      </trkpt>
      <trkpt lat="43.65167" lon="3.78221">
        <ele>83</ele>
        <time>2020-06-14T14:02:18.000Z</time>
      </trkpt>
      <trkpt lat="43.65167" lon="3.78218">
        <ele>83</ele>
        <time>2020-06-14T14:02:19.000Z</time>
      </trkpt>
      <trkpt lat="43.65166" lon="3.78215">
        <ele>83</ele>
        <time>2020-06-14T14:02:20.000Z</time>
      </trkpt>
      <trkpt lat="43.65166" lon="3.78212">
        <ele>83.084548442231</ele>
        <time>2020-06-14T14:02:21.000Z</time>
      </trkpt>
      <trkpt lat="43.65167" lon="3.78209">
        <ele>83.181730202287</ele>
        <time>2020-06-14T14:02:22.000Z</time>
      </trkpt>
      <trkpt lat="43.65167" lon="3.78206">
        <ele>83.278911962344</ele>
        <time>2020-06-14T14:02:23.000Z</time>
      </trkpt>
      <trkpt lat="43.65168" lon="3.78203">
        <ele>83.3760937224</ele>
        <time>2020-06-14T14:02:24.000Z</time>
      </trkpt>
      <trkpt lat="43.65169" lon="3.782">
        <ele>83.473275482457</ele>
        <time>2020-06-14T14:02:25.000Z</time>
      </trkpt>
      <trkpt lat="43.65169" lon="3.78197">
        <ele>83.570457242513</ele>
        <time>2020-06-14T14:02:26.000Z</time>
      </trkpt>
      <trkpt lat="43.6517" lon="3.78194">
        <ele>83.66763900257</ele>
        <time>2020-06-14T14:02:27.000Z</time>
      </trkpt>
      <trkpt lat="43.65171" lon="3.7819">
        <ele>83.764820762626</ele>
        <time>2020-06-14T14:02:28.000Z</time>
      </trkpt>
      <trkpt lat="43.65172" lon="3.78187">
        <ele>83.862002522683</ele>
        <time>2020-06-14T14:02:29.000Z</time>
      </trkpt>
      <trkpt lat="43.65173" lon="3.78184">
        <ele>83.959184282739</ele>
        <time>2020-06-14T14:02:30.000Z</time>
      </trkpt>
      <trkpt lat="43.65174" lon="3.78181">
        <ele>84</ele>
        <time>2020-06-14T14:02:31.000Z</time>
      </trkpt>
      <trkpt lat="43.65175" lon="3.78178">
        <ele>84</ele>
        <time>2020-06-14T14:02:32.000Z</time>
      </trkpt>
      <trkpt lat="43.65176" lon="3.78175">
        <ele>84</ele>
        <time>2020-06-14T14:02:33.000Z</time>
      </trkpt>
      <trkpt lat="43.65177" lon="3.78172">
        <ele>84</ele>
        <time>2020-06-14T14:02:34.000Z</time>
      </trkpt>
      <trkpt lat="43.65178" lon="3.7817">
        <ele>84</ele>
        <time>2020-06-14T14:02:35.000Z</time>
      </trkpt>
      <trkpt lat="43.65179" lon="3.78167">
        <ele>84</ele>
        <time>2020-06-14T14:02:36.000Z</time>
      </trkpt>
      <trkpt lat="43.65181" lon="3.78165">
        <ele>84</ele>
        <time>2020-06-14T14:02:37.000Z</time>
      </trkpt>
      <trkpt lat="43.65183" lon="3.7816">
        <ele>84</ele>
        <time>2020-06-14T14:02:39.000Z</time>
      </trkpt>
      <trkpt lat="43.65184" lon="3.78156">
        <ele>84</ele>
        <time>2020-06-14T14:02:40.000Z</time>
      </trkpt>
      <trkpt lat="43.65185" lon="3.78152">
        <ele>83.91299968</ele>
        <time>2020-06-14T14:02:41.000Z</time>
      </trkpt>
      <trkpt lat="43.65186" lon="3.78148">
        <ele>83.81299968</ele>
        <time>2020-06-14T14:02:42.000Z</time>
      </trkpt>
      <trkpt lat="43.65187" lon="3.78144">
        <ele>83.71299968</ele>
        <time>2020-06-14T14:02:43.000Z</time>
      </trkpt>
      <trkpt lat="43.65189" lon="3.7814">
        <ele>83.61299968</ele>
        <time>2020-06-14T14:02:44.000Z</time>
      </trkpt>
      <trkpt lat="43.6519" lon="3.78136">
        <ele>83.51299968</ele>
        <time>2020-06-14T14:02:45.000Z</time>
      </trkpt>
      <trkpt lat="43.65191" lon="3.78132">
        <ele>83.41299968</ele>
        <time>2020-06-14T14:02:46.000Z</time>
      </trkpt>
      <trkpt lat="43.65193" lon="3.78126">
        <ele>83.31299968</ele>
        <time>2020-06-14T14:02:47.000Z</time>
      </trkpt>
      <trkpt lat="43.65195" lon="3.78121">
        <ele>83.21299968</ele>
        <time>2020-06-14T14:02:48.000Z</time>
      </trkpt>
      <trkpt lat="43.65197" lon="3.78116">
        <ele>83.11299968</ele>
        <time>2020-06-14T14:02:49.000Z</time>
      </trkpt>
      <trkpt lat="43.652" lon="3.78111">
        <ele>83.01299968</ele>
        <time>2020-06-14T14:02:50.000Z</time>
      </trkpt>
      <trkpt lat="43.65204" lon="3.78105">
        <ele>82.914285426038</ele>
        <time>2020-06-14T14:02:51.000Z</time>
      </trkpt>
      <trkpt lat="43.65207" lon="3.78099">
        <ele>82.815763289612</ele>
        <time>2020-06-14T14:02:52.000Z</time>
      </trkpt>
      <trkpt lat="43.6521" lon="3.78091">
        <ele>82.717241153185</ele>
        <time>2020-06-14T14:02:53.000Z</time>
      </trkpt>
      <trkpt lat="43.65214" lon="3.78084">
        <ele>82.618719016759</ele>
        <time>2020-06-14T14:02:54.000Z</time>
      </trkpt>
      <trkpt lat="43.65217" lon="3.78076">
        <ele>82.520196880332</ele>
        <time>2020-06-14T14:02:55.000Z</time>
      </trkpt>
      <trkpt lat="43.6522" lon="3.78069">
        <ele>82.421674743905</ele>
        <time>2020-06-14T14:02:56.000Z</time>
      </trkpt>
      <trkpt lat="43.65223" lon="3.78063">
        <ele>82.323152607479</ele>
        <time>2020-06-14T14:02:57.000Z</time>
      </trkpt>
      <trkpt lat="43.65226" lon="3.78058">
        <ele>82.224630471053</ele>
        <time>2020-06-14T14:02:58.000Z</time>
      </trkpt>
      <trkpt lat="43.65228" lon="3.78053">
        <ele>82.126108334626</ele>
        <time>2020-06-14T14:02:59.000Z</time>
      </trkpt>
      <trkpt lat="43.6523" lon="3.7805">
        <ele>82.027586198199</ele>
        <time>2020-06-14T14:03:00.000Z</time>
      </trkpt>
      <trkpt lat="43.65232" lon="3.7805">
        <ele>81.858128123546</ele>
        <time>2020-06-14T14:03:01.000Z</time>
      </trkpt>
      <trkpt lat="43.65235" lon="3.78051">
        <ele>81.661083850693</ele>
        <time>2020-06-14T14:03:02.000Z</time>
      </trkpt>
      <trkpt lat="43.65239" lon="3.78054">
        <ele>81.46403957784</ele>
        <time>2020-06-14T14:03:03.000Z</time>
      </trkpt>
      <trkpt lat="43.65242" lon="3.78057">
        <ele>81.266995304987</ele>
        <time>2020-06-14T14:03:04.000Z</time>
      </trkpt>
      <trkpt lat="43.65244" lon="3.78061">
        <ele>81.069951032134</ele>
        <time>2020-06-14T14:03:05.000Z</time>
      </trkpt>
      <trkpt lat="43.65247" lon="3.78064">
        <ele>80.872906759281</ele>
        <time>2020-06-14T14:03:06.000Z</time>
      </trkpt>
      <trkpt lat="43.6525" lon="3.78067">
        <ele>80.675862486428</ele>
        <time>2020-06-14T14:03:07.000Z</time>
      </trkpt>
      <trkpt lat="43.65254" lon="3.78071">
        <ele>80.478818213575</ele>
        <time>2020-06-14T14:03:08.000Z</time>
      </trkpt>
      <trkpt lat="43.65257" lon="3.78074">
        <ele>80.281773940721</ele>
        <time>2020-06-14T14:03:09.000Z</time>
      </trkpt>
      <trkpt lat="43.65261" lon="3.78078">
        <ele>80.084729667869</ele>
        <time>2020-06-14T14:03:10.000Z</time>
      </trkpt>
      <trkpt lat="43.65264" lon="3.78082">
        <ele>79.943057244534</ele>
        <time>2020-06-14T14:03:11.000Z</time>
      </trkpt>
      <trkpt lat="43.65268" lon="3.78086">
        <ele>79.843157112698</ele>
        <time>2020-06-14T14:03:12.000Z</time>
      </trkpt>
      <trkpt lat="43.65272" lon="3.78089">
        <ele>79.743256980861</ele>
        <time>2020-06-14T14:03:13.000Z</time>
      </trkpt>
      <trkpt lat="43.65278" lon="3.7809">
        <ele>79.643356849025</ele>
        <time>2020-06-14T14:03:14.000Z</time>
      </trkpt>
      <trkpt lat="43.65283" lon="3.78093">
        <ele>79.543456717189</ele>
        <time>2020-06-14T14:03:15.000Z</time>
      </trkpt>
      <trkpt lat="43.65288" lon="3.78094">
        <ele>79.443556585353</ele>
        <time>2020-06-14T14:03:16.000Z</time>
      </trkpt>
      <trkpt lat="43.65293" lon="3.78094">
        <ele>79.343656453517</ele>
        <time>2020-06-14T14:03:17.000Z</time>
      </trkpt>
      <trkpt lat="43.65298" lon="3.78093">
        <ele>79.24375632168</ele>
        <time>2020-06-14T14:03:18.000Z</time>
      </trkpt>
      <trkpt lat="43.65303" lon="3.78092">
        <ele>79.143856189844</ele>
        <time>2020-06-14T14:03:19.000Z</time>
      </trkpt>
      <trkpt lat="43.65307" lon="3.7809">
        <ele>79.043956058008</ele>
        <time>2020-06-14T14:03:20.000Z</time>
      </trkpt>
      <trkpt lat="43.65311" lon="3.78088">
        <ele>79.057731920672</ele>
        <time>2020-06-14T14:03:21.000Z</time>
      </trkpt>
      <trkpt lat="43.65315" lon="3.78087">
        <ele>79.160824636157</ele>
        <time>2020-06-14T14:03:22.000Z</time>
      </trkpt>
      <trkpt lat="43.65319" lon="3.78085">
        <ele>79.263917351642</ele>
        <time>2020-06-14T14:03:23.000Z</time>
      </trkpt>
      <trkpt lat="43.65321" lon="3.78084">
        <ele>79.367010067127</ele>
        <time>2020-06-14T14:03:24.000Z</time>
      </trkpt>
      <trkpt lat="43.65323" lon="3.78083">
        <ele>79.470102782613</ele>
        <time>2020-06-14T14:03:25.000Z</time>
      </trkpt>
      <trkpt lat="43.65326" lon="3.78083">
        <ele>79.573195498098</ele>
        <time>2020-06-14T14:03:26.000Z</time>
      </trkpt>
      <trkpt lat="43.65328" lon="3.78082">
        <ele>79.676288213583</ele>
        <time>2020-06-14T14:03:27.000Z</time>
      </trkpt>
      <trkpt lat="43.65331" lon="3.78082">
        <ele>79.779380929068</ele>
        <time>2020-06-14T14:03:28.000Z</time>
      </trkpt>
      <trkpt lat="43.65334" lon="3.78081">
        <ele>79.882473644553</ele>
        <time>2020-06-14T14:03:29.000Z</time>
      </trkpt>
      <trkpt lat="43.65337" lon="3.7808">
        <ele>79.985566360039</ele>
        <time>2020-06-14T14:03:30.000Z</time>
      </trkpt>
      <trkpt lat="43.6534" lon="3.78079">
        <ele>79.91391447183</ele>
        <time>2020-06-14T14:03:31.000Z</time>
      </trkpt>
      <trkpt lat="43.65342" lon="3.78077">
        <ele>79.813814275537</ele>
        <time>2020-06-14T14:03:32.000Z</time>
      </trkpt>
      <trkpt lat="43.65345" lon="3.78074">
        <ele>79.713714079245</ele>
        <time>2020-06-14T14:03:33.000Z</time>
      </trkpt>
      <trkpt lat="43.65348" lon="3.7807">
        <ele>79.613613882952</ele>
        <time>2020-06-14T14:03:34.000Z</time>
      </trkpt>
      <trkpt lat="43.65351" lon="3.78067">
        <ele>79.51351368666</ele>
        <time>2020-06-14T14:03:35.000Z</time>
      </trkpt>
      <trkpt lat="43.65353" lon="3.78064">
        <ele>79.413413490367</ele>
        <time>2020-06-14T14:03:36.000Z</time>
      </trkpt>
      <trkpt lat="43.65356" lon="3.7806">
        <ele>79.313313294075</ele>
        <time>2020-06-14T14:03:37.000Z</time>
      </trkpt>
      <trkpt lat="43.6536" lon="3.78056">
        <ele>79.213213097782</ele>
        <time>2020-06-14T14:03:38.000Z</time>
      </trkpt>
      <trkpt lat="43.65363" lon="3.78053">
        <ele>79.11311290149</ele>
        <time>2020-06-14T14:03:39.000Z</time>
      </trkpt>
      <trkpt lat="43.65366" lon="3.78051">
        <ele>79.013012705197</ele>
        <time>2020-06-14T14:03:40.000Z</time>
      </trkpt>
      <trkpt lat="43.65368" lon="3.78049">
        <ele>78.91308667676</ele>
        <time>2020-06-14T14:03:41.000Z</time>
      </trkpt>
      <trkpt lat="43.65371" lon="3.78046">
        <ele>78.813186672668</ele>
        <time>2020-06-14T14:03:42.000Z</time>
      </trkpt>
      <trkpt lat="43.65374" lon="3.78046">
        <ele>78.713286668576</ele>
        <time>2020-06-14T14:03:43.000Z</time>
      </trkpt>
      <trkpt lat="43.65376" lon="3.78048">
        <ele>78.613386664484</ele>
        <time>2020-06-14T14:03:44.000Z</time>
      </trkpt>
      <trkpt lat="43.65377" lon="3.78051">
        <ele>78.513486660392</ele>
        <time>2020-06-14T14:03:45.000Z</time>
      </trkpt>
      <trkpt lat="43.65379" lon="3.78052">
        <ele>78.4135866563</ele>
        <time>2020-06-14T14:03:46.000Z</time>
      </trkpt>
      <trkpt lat="43.65381" lon="3.78053">
        <ele>78.013986639933</ele>
        <time>2020-06-14T14:03:50.000Z</time>
      </trkpt>
      <trkpt lat="43.65383" lon="3.78053">
        <ele>77.91391447183</ele>
        <time>2020-06-14T14:03:51.000Z</time>
      </trkpt>
      <trkpt lat="43.65386" lon="3.78052">
        <ele>77.813814275537</ele>
        <time>2020-06-14T14:03:52.000Z</time>
      </trkpt>
      <trkpt lat="43.65388" lon="3.78051">
        <ele>77.713714079245</ele>
        <time>2020-06-14T14:03:53.000Z</time>
      </trkpt>
      <trkpt lat="43.6539" lon="3.78051">
        <ele>77.613613882952</ele>
        <time>2020-06-14T14:03:54.000Z</time>
      </trkpt>
      <trkpt lat="43.65392" lon="3.78052">
        <ele>77.51351368666</ele>
        <time>2020-06-14T14:03:55.000Z</time>
      </trkpt>
      <trkpt lat="43.65394" lon="3.78054">
        <ele>77.413413490367</ele>
        <time>2020-06-14T14:03:56.000Z</time>
      </trkpt>
      <trkpt lat="43.65397" lon="3.78056">
        <ele>77.313313294075</ele>
        <time>2020-06-14T14:03:57.000Z</time>
      </trkpt>
      <trkpt lat="43.65399" lon="3.78057">
        <ele>77.213213097782</ele>
        <time>2020-06-14T14:03:58.000Z</time>
      </trkpt>
      <trkpt lat="43.65402" lon="3.78055">
        <ele>77.11311290149</ele>
        <time>2020-06-14T14:03:59.000Z</time>
      </trkpt>
      <trkpt lat="43.65405" lon="3.78053">
        <ele>77.013012705197</ele>
        <time>2020-06-14T14:04:00.000Z</time>
      </trkpt>
      <trkpt lat="43.65409" lon="3.78049">
        <ele>76.91308667676</ele>
        <time>2020-06-14T14:04:01.000Z</time>
      </trkpt>
      <trkpt lat="43.65412" lon="3.78045">
        <ele>76.813186672668</ele>
        <time>2020-06-14T14:04:02.000Z</time>
      </trkpt>
      <trkpt lat="43.65415" lon="3.78039">
        <ele>76.713286668576</ele>
        <time>2020-06-14T14:04:03.000Z</time>
      </trkpt>
      <trkpt lat="43.65418" lon="3.78032">
        <ele>76.613386664484</ele>
        <time>2020-06-14T14:04:04.000Z</time>
      </trkpt>
      <trkpt lat="43.65421" lon="3.78027">
        <ele>76.513486660392</ele>
        <time>2020-06-14T14:04:05.000Z</time>
      </trkpt>
      <trkpt lat="43.65425" lon="3.78021">
        <ele>76.4135866563</ele>
        <time>2020-06-14T14:04:06.000Z</time>
      </trkpt>
      <trkpt lat="43.65428" lon="3.78016">
        <ele>76.313686652209</ele>
        <time>2020-06-14T14:04:07.000Z</time>
      </trkpt>
      <trkpt lat="43.65431" lon="3.78011">
        <ele>76.213786648117</ele>
        <time>2020-06-14T14:04:08.000Z</time>
      </trkpt>
      <trkpt lat="43.65434" lon="3.78007">
        <ele>76.113886644025</ele>
        <time>2020-06-14T14:04:09.000Z</time>
      </trkpt>
      <trkpt lat="43.65436" lon="3.78003">
        <ele>76.013986639933</ele>
        <time>2020-06-14T14:04:10.000Z</time>
      </trkpt>
      <trkpt lat="43.65438" lon="3.77999">
        <ele>76.08608552817</ele>
        <time>2020-06-14T14:04:11.000Z</time>
      </trkpt>
      <trkpt lat="43.65439" lon="3.77995">
        <ele>76.186185724463</ele>
        <time>2020-06-14T14:04:12.000Z</time>
      </trkpt>
      <trkpt lat="43.6544" lon="3.7799">
        <ele>76.286285920755</ele>
        <time>2020-06-14T14:04:13.000Z</time>
      </trkpt>
      <trkpt lat="43.65441" lon="3.77986">
        <ele>76.386386117048</ele>
        <time>2020-06-14T14:04:14.000Z</time>
      </trkpt>
      <trkpt lat="43.65442" lon="3.77981">
        <ele>76.48648631334</ele>
        <time>2020-06-14T14:04:15.000Z</time>
      </trkpt>
      <trkpt lat="43.65442" lon="3.77977">
        <ele>76.586586509633</ele>
        <time>2020-06-14T14:04:16.000Z</time>
      </trkpt>
      <trkpt lat="43.65443" lon="3.77972">
        <ele>76.686686705925</ele>
        <time>2020-06-14T14:04:17.000Z</time>
      </trkpt>
      <trkpt lat="43.65444" lon="3.77968">
        <ele>76.786786902218</ele>
        <time>2020-06-14T14:04:18.000Z</time>
      </trkpt>
      <trkpt lat="43.65444" lon="3.77965">
        <ele>76.88688709851</ele>
        <time>2020-06-14T14:04:19.000Z</time>
      </trkpt>
      <trkpt lat="43.65445" lon="3.77961">
        <ele>76.986987294803</ele>
        <time>2020-06-14T14:04:20.000Z</time>
      </trkpt>
      <trkpt lat="43.65445" lon="3.77958">
        <ele>77</ele>
        <time>2020-06-14T14:04:21.000Z</time>
      </trkpt>
      <trkpt lat="43.65445" lon="3.77954">
        <ele>77</ele>
        <time>2020-06-14T14:04:22.000Z</time>
      </trkpt>
      <trkpt lat="43.65446" lon="3.7795">
        <ele>77</ele>
        <time>2020-06-14T14:04:23.000Z</time>
      </trkpt>
      <trkpt lat="43.65446" lon="3.77946">
        <ele>77</ele>
        <time>2020-06-14T14:04:24.000Z</time>
      </trkpt>
      <trkpt lat="43.65447" lon="3.77943">
        <ele>77</ele>
        <time>2020-06-14T14:04:25.000Z</time>
      </trkpt>
      <trkpt lat="43.65448" lon="3.77939">
        <ele>77</ele>
        <time>2020-06-14T14:04:26.000Z</time>
      </trkpt>
      <trkpt lat="43.65449" lon="3.77935">
        <ele>77</ele>
        <time>2020-06-14T14:04:27.000Z</time>
      </trkpt>
      <trkpt lat="43.65449" lon="3.77932">
        <ele>77</ele>
        <time>2020-06-14T14:04:28.000Z</time>
      </trkpt>
      <trkpt lat="43.6545" lon="3.77929">
        <ele>77</ele>
        <time>2020-06-14T14:04:29.000Z</time>
      </trkpt>
      <trkpt lat="43.6545" lon="3.77925">
        <ele>77</ele>
        <time>2020-06-14T14:04:30.000Z</time>
      </trkpt>
      <trkpt lat="43.65451" lon="3.77922">
        <ele>77</ele>
        <time>2020-06-14T14:04:31.000Z</time>
      </trkpt>
      <trkpt lat="43.65451" lon="3.77919">
        <ele>77</ele>
        <time>2020-06-14T14:04:32.000Z</time>
      </trkpt>
      <trkpt lat="43.65451" lon="3.77916">
        <ele>77</ele>
        <time>2020-06-14T14:04:33.000Z</time>
      </trkpt>
      <trkpt lat="43.65453" lon="3.77913">
        <ele>77</ele>
        <time>2020-06-14T14:04:35.000Z</time>
      </trkpt>
      <trkpt lat="43.65455" lon="3.77913">
        <ele>77</ele>
        <time>2020-06-14T14:04:36.000Z</time>
      </trkpt>
      <trkpt lat="43.65457" lon="3.77913">
        <ele>77</ele>
        <time>2020-06-14T14:04:37.000Z</time>
      </trkpt>
      <trkpt lat="43.65459" lon="3.77913">
        <ele>77</ele>
        <time>2020-06-14T14:04:38.000Z</time>
      </trkpt>
      <trkpt lat="43.65462" lon="3.77914">
        <ele>77</ele>
        <time>2020-06-14T14:04:39.000Z</time>
      </trkpt>
      <trkpt lat="43.65463" lon="3.77915">
        <ele>77</ele>
        <time>2020-06-14T14:04:40.000Z</time>
      </trkpt>
      <trkpt lat="43.65467" lon="3.77915">
        <ele>77</ele>
        <time>2020-06-14T14:04:42.000Z</time>
      </trkpt>
      <trkpt lat="43.6547" lon="3.77915">
        <ele>77</ele>
        <time>2020-06-14T14:04:43.000Z</time>
      </trkpt>
      <trkpt lat="43.65473" lon="3.77915">
        <ele>77</ele>
        <time>2020-06-14T14:04:44.000Z</time>
      </trkpt>
      <trkpt lat="43.65474" lon="3.77915">
        <ele>77</ele>
        <time>2020-06-14T14:04:49.000Z</time>
      </trkpt>
      <trkpt lat="43.6548" lon="3.77919">
        <ele>76.096133783451</ele>
        <time>2020-06-14T14:04:58.000Z</time>
      </trkpt>
      <trkpt lat="43.65483" lon="3.77921">
        <ele>76</ele>
        <time>2020-06-14T14:04:59.000Z</time>
      </trkpt>
      <trkpt lat="43.65486" lon="3.77921">
        <ele>76</ele>
        <time>2020-06-14T14:05:00.000Z</time>
      </trkpt>
      <trkpt lat="43.65489" lon="3.77921">
        <ele>76</ele>
        <time>2020-06-14T14:05:01.000Z</time>
      </trkpt>
      <trkpt lat="43.65491" lon="3.77921">
        <ele>76</ele>
        <time>2020-06-14T14:05:02.000Z</time>
      </trkpt>
      <trkpt lat="43.65494" lon="3.77921">
        <ele>76</ele>
        <time>2020-06-14T14:05:03.000Z</time>
      </trkpt>
      <trkpt lat="43.65496" lon="3.77921">
        <ele>76</ele>
        <time>2020-06-14T14:05:04.000Z</time>
      </trkpt>
      <trkpt lat="43.65498" lon="3.7792">
        <ele>76</ele>
        <time>2020-06-14T14:05:05.000Z</time>
      </trkpt>
      <trkpt lat="43.655" lon="3.77919">
        <ele>76</ele>
        <time>2020-06-14T14:05:06.000Z</time>
      </trkpt>
      <trkpt lat="43.65502" lon="3.77918">
        <ele>76</ele>
        <time>2020-06-14T14:05:07.000Z</time>
      </trkpt>
      <trkpt lat="43.65504" lon="3.77916">
        <ele>76</ele>
        <time>2020-06-14T14:05:08.000Z</time>
      </trkpt>
      <trkpt lat="43.65506" lon="3.77915">
        <ele>76.083657069145</ele>
        <time>2020-06-14T14:05:09.000Z</time>
      </trkpt>
      <trkpt lat="43.65508" lon="3.77914">
        <ele>76.180933454859</ele>
        <time>2020-06-14T14:05:10.000Z</time>
      </trkpt>
      <trkpt lat="43.6551" lon="3.77912">
        <ele>76.278209840573</ele>
        <time>2020-06-14T14:05:11.000Z</time>
      </trkpt>
      <trkpt lat="43.65512" lon="3.7791">
        <ele>76.375486226286</ele>
        <time>2020-06-14T14:05:12.000Z</time>
      </trkpt>
      <trkpt lat="43.65514" lon="3.77909">
        <ele>76.472762612</ele>
        <time>2020-06-14T14:05:13.000Z</time>
      </trkpt>
      <trkpt lat="43.65516" lon="3.77906">
        <ele>76.570038997714</ele>
        <time>2020-06-14T14:05:14.000Z</time>
      </trkpt>
      <trkpt lat="43.65518" lon="3.77904">
        <ele>76.667315383428</ele>
        <time>2020-06-14T14:05:15.000Z</time>
      </trkpt>
      <trkpt lat="43.65519" lon="3.77903">
        <ele>76.764591769142</ele>
        <time>2020-06-14T14:05:16.000Z</time>
      </trkpt>
      <trkpt lat="43.6552" lon="3.77901">
        <ele>76.861868154855</ele>
        <time>2020-06-14T14:05:17.000Z</time>
      </trkpt>
      <trkpt lat="43.65522" lon="3.77898">
        <ele>76.959144540569</ele>
        <time>2020-06-14T14:05:18.000Z</time>
      </trkpt>
      <trkpt lat="43.65524" lon="3.77896">
        <ele>77</ele>
        <time>2020-06-14T14:05:19.000Z</time>
      </trkpt>
      <trkpt lat="43.65526" lon="3.77893">
        <ele>77</ele>
        <time>2020-06-14T14:05:20.000Z</time>
      </trkpt>
      <trkpt lat="43.65528" lon="3.77891">
        <ele>77</ele>
        <time>2020-06-14T14:05:21.000Z</time>
      </trkpt>
      <trkpt lat="43.65529" lon="3.77888">
        <ele>77</ele>
        <time>2020-06-14T14:05:22.000Z</time>
      </trkpt>
      <trkpt lat="43.65531" lon="3.77887">
        <ele>77</ele>
        <time>2020-06-14T14:05:23.000Z</time>
      </trkpt>
      <trkpt lat="43.65534" lon="3.77885">
        <ele>77</ele>
        <time>2020-06-14T14:05:24.000Z</time>
      </trkpt>
      <trkpt lat="43.65536" lon="3.77884">
        <ele>77</ele>
        <time>2020-06-14T14:05:25.000Z</time>
      </trkpt>
      <trkpt lat="43.65538" lon="3.77883">
        <ele>77</ele>
        <time>2020-06-14T14:05:26.000Z</time>
      </trkpt>
      <trkpt lat="43.65541" lon="3.77883">
        <ele>77</ele>
        <time>2020-06-14T14:05:27.000Z</time>
      </trkpt>
      <trkpt lat="43.65543" lon="3.77882">
        <ele>77</ele>
        <time>2020-06-14T14:05:28.000Z</time>
      </trkpt>
      <trkpt lat="43.65546" lon="3.77882">
        <ele>77.08700032</ele>
        <time>2020-06-14T14:05:29.000Z</time>
      </trkpt>
      <trkpt lat="43.65548" lon="3.77881">
        <ele>77.18700032</ele>
        <time>2020-06-14T14:05:30.000Z</time>
      </trkpt>
      <trkpt lat="43.6555" lon="3.7788">
        <ele>77.28700032</ele>
        <time>2020-06-14T14:05:31.000Z</time>
      </trkpt>
      <trkpt lat="43.65552" lon="3.77879">
        <ele>77.38700032</ele>
        <time>2020-06-14T14:05:32.000Z</time>
      </trkpt>
      <trkpt lat="43.65555" lon="3.77878">
        <ele>77.48700032</ele>
        <time>2020-06-14T14:05:33.000Z</time>
      </trkpt>
      <trkpt lat="43.65557" lon="3.77878">
        <ele>77.58700032</ele>
        <time>2020-06-14T14:05:34.000Z</time>
      </trkpt>
      <trkpt lat="43.65559" lon="3.77877">
        <ele>77.68700032</ele>
        <time>2020-06-14T14:05:35.000Z</time>
      </trkpt>
      <trkpt lat="43.65562" lon="3.77876">
        <ele>77.78700032</ele>
        <time>2020-06-14T14:05:36.000Z</time>
      </trkpt>
      <trkpt lat="43.65564" lon="3.77875">
        <ele>77.88700032</ele>
        <time>2020-06-14T14:05:37.000Z</time>
      </trkpt>
      <trkpt lat="43.65566" lon="3.77874">
        <ele>77.98700032</ele>
        <time>2020-06-14T14:05:38.000Z</time>
      </trkpt>
      <trkpt lat="43.65568" lon="3.77874">
        <ele>78.08700032</ele>
        <time>2020-06-14T14:05:39.000Z</time>
      </trkpt>
      <trkpt lat="43.6557" lon="3.77873">
        <ele>78.18700032</ele>
        <time>2020-06-14T14:05:40.000Z</time>
      </trkpt>
      <trkpt lat="43.65572" lon="3.77873">
        <ele>78.28700032</ele>
        <time>2020-06-14T14:05:41.000Z</time>
      </trkpt>
      <trkpt lat="43.65574" lon="3.77872">
        <ele>78.38700032</ele>
        <time>2020-06-14T14:05:42.000Z</time>
      </trkpt>
      <trkpt lat="43.65576" lon="3.7787">
        <ele>78.48700032</ele>
        <time>2020-06-14T14:05:43.000Z</time>
      </trkpt>
      <trkpt lat="43.65577" lon="3.77867">
        <ele>78.58700032</ele>
        <time>2020-06-14T14:05:44.000Z</time>
      </trkpt>
      <trkpt lat="43.65578" lon="3.77864">
        <ele>78.68700032</ele>
        <time>2020-06-14T14:05:45.000Z</time>
      </trkpt>
      <trkpt lat="43.6558" lon="3.77862">
        <ele>78.78700032</ele>
        <time>2020-06-14T14:05:46.000Z</time>
      </trkpt>
      <trkpt lat="43.65581" lon="3.7786">
        <ele>78.88700032</ele>
        <time>2020-06-14T14:05:47.000Z</time>
      </trkpt>
      <trkpt lat="43.65583" lon="3.77857">
        <ele>79.08700032</ele>
        <time>2020-06-14T14:05:49.000Z</time>
      </trkpt>
      <trkpt lat="43.65585" lon="3.77854">
        <ele>79.18700032</ele>
        <time>2020-06-14T14:05:50.000Z</time>
      </trkpt>
      <trkpt lat="43.65587" lon="3.77852">
        <ele>79.28700032</ele>
        <time>2020-06-14T14:05:51.000Z</time>
      </trkpt>
      <trkpt lat="43.65588" lon="3.7785">
        <ele>79.38700032</ele>
        <time>2020-06-14T14:05:52.000Z</time>
      </trkpt>
      <trkpt lat="43.6559" lon="3.77849">
        <ele>79.48700032</ele>
        <time>2020-06-14T14:05:53.000Z</time>
      </trkpt>
      <trkpt lat="43.65593" lon="3.77846">
        <ele>79.68700032</ele>
        <time>2020-06-14T14:05:55.000Z</time>
      </trkpt>
      <trkpt lat="43.65595" lon="3.77844">
        <ele>79.78700032</ele>
        <time>2020-06-14T14:05:56.000Z</time>
      </trkpt>
      <trkpt lat="43.65596" lon="3.77843">
        <ele>79.88700032</ele>
        <time>2020-06-14T14:05:57.000Z</time>
      </trkpt>
      <trkpt lat="43.65598" lon="3.77841">
        <ele>79.98700032</ele>
        <time>2020-06-14T14:05:58.000Z</time>
      </trkpt>
      <trkpt lat="43.65599" lon="3.77839">
        <ele>80.086567510151</ele>
        <time>2020-06-14T14:05:59.000Z</time>
      </trkpt>
      <trkpt lat="43.65601" lon="3.77837">
        <ele>80.186070029395</ele>
        <time>2020-06-14T14:06:00.000Z</time>
      </trkpt>
      <trkpt lat="43.65602" lon="3.77835">
        <ele>80.28557254864</ele>
        <time>2020-06-14T14:06:01.000Z</time>
      </trkpt>
      <trkpt lat="43.65603" lon="3.77832">
        <ele>80.385075067885</ele>
        <time>2020-06-14T14:06:02.000Z</time>
      </trkpt>
      <trkpt lat="43.65605" lon="3.7783">
        <ele>80.484577587129</ele>
        <time>2020-06-14T14:06:03.000Z</time>
      </trkpt>
      <trkpt lat="43.65606" lon="3.77828">
        <ele>80.584080106374</ele>
        <time>2020-06-14T14:06:04.000Z</time>
      </trkpt>
      <trkpt lat="43.65608" lon="3.77825">
        <ele>80.783085144863</ele>
        <time>2020-06-14T14:06:06.000Z</time>
      </trkpt>
      <trkpt lat="43.6561" lon="3.77821">
        <ele>80.982090183352</ele>
        <time>2020-06-14T14:06:08.000Z</time>
      </trkpt>
      <trkpt lat="43.65612" lon="3.77817">
        <ele>81</ele>
        <time>2020-06-14T14:06:10.000Z</time>
      </trkpt>
      <trkpt lat="43.65613" lon="3.77814">
        <ele>81</ele>
        <time>2020-06-14T14:06:11.000Z</time>
      </trkpt>
      <trkpt lat="43.65615" lon="3.77812">
        <ele>81</ele>
        <time>2020-06-14T14:06:12.000Z</time>
      </trkpt>
      <trkpt lat="43.65616" lon="3.7781">
        <ele>81</ele>
        <time>2020-06-14T14:06:13.000Z</time>
      </trkpt>
      <trkpt lat="43.65618" lon="3.77807">
        <ele>81</ele>
        <time>2020-06-14T14:06:14.000Z</time>
      </trkpt>
      <trkpt lat="43.65619" lon="3.77804">
        <ele>81</ele>
        <time>2020-06-14T14:06:15.000Z</time>
      </trkpt>
      <trkpt lat="43.6562" lon="3.77801">
        <ele>81</ele>
        <time>2020-06-14T14:06:16.000Z</time>
      </trkpt>
      <trkpt lat="43.65621" lon="3.77798">
        <ele>81</ele>
        <time>2020-06-14T14:06:17.000Z</time>
      </trkpt>
      <trkpt lat="43.65622" lon="3.77795">
        <ele>81</ele>
        <time>2020-06-14T14:06:18.000Z</time>
      </trkpt>
      <trkpt lat="43.65623" lon="3.77791">
        <ele>81.08691332324</ele>
        <time>2020-06-14T14:06:19.000Z</time>
      </trkpt>
      <trkpt lat="43.65624" lon="3.77788">
        <ele>81.186813327332</ele>
        <time>2020-06-14T14:06:20.000Z</time>
      </trkpt>
      <trkpt lat="43.65625" lon="3.77784">
        <ele>81.286713331424</ele>
        <time>2020-06-14T14:06:21.000Z</time>
      </trkpt>
      <trkpt lat="43.65625" lon="3.77781">
        <ele>81.386613335516</ele>
        <time>2020-06-14T14:06:22.000Z</time>
      </trkpt>
      <trkpt lat="43.65626" lon="3.77778">
        <ele>81.486513339608</ele>
        <time>2020-06-14T14:06:23.000Z</time>
      </trkpt>
      <trkpt lat="43.65627" lon="3.77776">
        <ele>81.5864133437</ele>
        <time>2020-06-14T14:06:24.000Z</time>
      </trkpt>
      <trkpt lat="43.65627" lon="3.77773">
        <ele>81.686313347791</ele>
        <time>2020-06-14T14:06:25.000Z</time>
      </trkpt>
      <trkpt lat="43.65628" lon="3.77771">
        <ele>81.786213351883</ele>
        <time>2020-06-14T14:06:26.000Z</time>
      </trkpt>
      <trkpt lat="43.65629" lon="3.77769">
        <ele>81.886113355975</ele>
        <time>2020-06-14T14:06:27.000Z</time>
      </trkpt>
      <trkpt lat="43.6563" lon="3.77766">
        <ele>81.986013360067</ele>
        <time>2020-06-14T14:06:28.000Z</time>
      </trkpt>
      <trkpt lat="43.65631" lon="3.77764">
        <ele>82.08608552817</ele>
        <time>2020-06-14T14:06:29.000Z</time>
      </trkpt>
      <trkpt lat="43.65632" lon="3.77761">
        <ele>82.186185724463</ele>
        <time>2020-06-14T14:06:30.000Z</time>
      </trkpt>
      <trkpt lat="43.65633" lon="3.77758">
        <ele>82.286285920755</ele>
        <time>2020-06-14T14:06:31.000Z</time>
      </trkpt>
      <trkpt lat="43.65634" lon="3.77755">
        <ele>82.386386117048</ele>
        <time>2020-06-14T14:06:32.000Z</time>
      </trkpt>
      <trkpt lat="43.65634" lon="3.77752">
        <ele>82.48648631334</ele>
        <time>2020-06-14T14:06:33.000Z</time>
      </trkpt>
      <trkpt lat="43.65635" lon="3.77749">
        <ele>82.586586509633</ele>
        <time>2020-06-14T14:06:34.000Z</time>
      </trkpt>
      <trkpt lat="43.65636" lon="3.77747">
        <ele>82.686686705925</ele>
        <time>2020-06-14T14:06:35.000Z</time>
      </trkpt>
      <trkpt lat="43.65637" lon="3.77744">
        <ele>82.786786902218</ele>
        <time>2020-06-14T14:06:36.000Z</time>
      </trkpt>
      <trkpt lat="43.65637" lon="3.77741">
        <ele>82.88688709851</ele>
        <time>2020-06-14T14:06:37.000Z</time>
      </trkpt>
      <trkpt lat="43.65638" lon="3.77739">
        <ele>82.986987294803</ele>
        <time>2020-06-14T14:06:38.000Z</time>
      </trkpt>
      <trkpt lat="43.65638" lon="3.77734">
        <ele>83.372881875053</ele>
        <time>2020-06-14T14:06:40.000Z</time>
      </trkpt>
      <trkpt lat="43.6564" lon="3.7773">
        <ele>83.77168533705</ele>
        <time>2020-06-14T14:06:42.000Z</time>
      </trkpt>
      <trkpt lat="43.65641" lon="3.77728">
        <ele>83.971087068048</ele>
        <time>2020-06-14T14:06:43.000Z</time>
      </trkpt>
      <trkpt lat="43.65642" lon="3.77723">
        <ele>84.369890530045</ele>
        <time>2020-06-14T14:06:45.000Z</time>
      </trkpt>
      <trkpt lat="43.65643" lon="3.77719">
        <ele>84.569292261043</ele>
        <time>2020-06-14T14:06:46.000Z</time>
      </trkpt>
      <trkpt lat="43.65643" lon="3.77716">
        <ele>84.768693992042</ele>
        <time>2020-06-14T14:06:47.000Z</time>
      </trkpt>
      <trkpt lat="43.65644" lon="3.77714">
        <ele>84.96809572304</ele>
        <time>2020-06-14T14:06:48.000Z</time>
      </trkpt>
      <trkpt lat="43.65645" lon="3.77712">
        <ele>85</ele>
        <time>2020-06-14T14:06:49.000Z</time>
      </trkpt>
      <trkpt lat="43.65646" lon="3.77709">
        <ele>85</ele>
        <time>2020-06-14T14:06:50.000Z</time>
      </trkpt>
      <trkpt lat="43.65647" lon="3.77707">
        <ele>85</ele>
        <time>2020-06-14T14:06:51.000Z</time>
      </trkpt>
      <trkpt lat="43.65648" lon="3.77704">
        <ele>85</ele>
        <time>2020-06-14T14:06:52.000Z</time>
      </trkpt>
      <trkpt lat="43.65648" lon="3.77702">
        <ele>85</ele>
        <time>2020-06-14T14:06:53.000Z</time>
      </trkpt>
      <trkpt lat="43.65649" lon="3.77699">
        <ele>85</ele>
        <time>2020-06-14T14:06:54.000Z</time>
      </trkpt>
      <trkpt lat="43.6565" lon="3.77696">
        <ele>85</ele>
        <time>2020-06-14T14:06:55.000Z</time>
      </trkpt>
      <trkpt lat="43.65651" lon="3.77694">
        <ele>85</ele>
        <time>2020-06-14T14:06:56.000Z</time>
      </trkpt>
      <trkpt lat="43.6565" lon="3.77689">
        <ele>85</ele>
        <time>2020-06-14T14:06:58.000Z</time>
      </trkpt>
      <trkpt lat="43.6565" lon="3.77686">
        <ele>85.08700032</ele>
        <time>2020-06-14T14:06:59.000Z</time>
      </trkpt>
      <trkpt lat="43.65651" lon="3.77684">
        <ele>85.18700032</ele>
        <time>2020-06-14T14:07:00.000Z</time>
      </trkpt>
      <trkpt lat="43.65651" lon="3.77679">
        <ele>85.38700032</ele>
        <time>2020-06-14T14:07:02.000Z</time>
      </trkpt>
      <trkpt lat="43.65652" lon="3.77675">
        <ele>85.58700032</ele>
        <time>2020-06-14T14:07:04.000Z</time>
      </trkpt>
      <trkpt lat="43.65653" lon="3.77671">
        <ele>85.78700032</ele>
        <time>2020-06-14T14:07:06.000Z</time>
      </trkpt>
      <trkpt lat="43.65653" lon="3.77668">
        <ele>85.88700032</ele>
        <time>2020-06-14T14:07:07.000Z</time>
      </trkpt>
      <trkpt lat="43.65653" lon="3.77665">
        <ele>85.98700032</ele>
        <time>2020-06-14T14:07:08.000Z</time>
      </trkpt>
      <trkpt lat="43.65654" lon="3.77662">
        <ele>86.17400064</ele>
        <time>2020-06-14T14:07:09.000Z</time>
      </trkpt>
      <trkpt lat="43.65654" lon="3.77659">
        <ele>86.37400064</ele>
        <time>2020-06-14T14:07:10.000Z</time>
      </trkpt>
      <trkpt lat="43.65654" lon="3.77656">
        <ele>86.57400064</ele>
        <time>2020-06-14T14:07:11.000Z</time>
      </trkpt>
      <trkpt lat="43.65654" lon="3.77653">
        <ele>86.77400064</ele>
        <time>2020-06-14T14:07:12.000Z</time>
      </trkpt>
      <trkpt lat="43.65655" lon="3.7765">
        <ele>86.97400064</ele>
        <time>2020-06-14T14:07:13.000Z</time>
      </trkpt>
      <trkpt lat="43.65656" lon="3.77647">
        <ele>87.17400064</ele>
        <time>2020-06-14T14:07:14.000Z</time>
      </trkpt>
      <trkpt lat="43.65657" lon="3.77644">
        <ele>87.37400064</ele>
        <time>2020-06-14T14:07:15.000Z</time>
      </trkpt>
      <trkpt lat="43.65659" lon="3.77642">
        <ele>87.57400064</ele>
        <time>2020-06-14T14:07:16.000Z</time>
      </trkpt>
      <trkpt lat="43.6566" lon="3.7764">
        <ele>87.77400064</ele>
        <time>2020-06-14T14:07:17.000Z</time>
      </trkpt>
      <trkpt lat="43.65661" lon="3.77637">
        <ele>87.97400064</ele>
        <time>2020-06-14T14:07:18.000Z</time>
      </trkpt>
      <trkpt lat="43.65662" lon="3.77634">
        <ele>88.08700032</ele>
        <time>2020-06-14T14:07:19.000Z</time>
      </trkpt>
      <trkpt lat="43.65663" lon="3.77632">
        <ele>88.18700032</ele>
        <time>2020-06-14T14:07:20.000Z</time>
      </trkpt>
      <trkpt lat="43.65664" lon="3.77629">
        <ele>88.28700032</ele>
        <time>2020-06-14T14:07:21.000Z</time>
      </trkpt>
      <trkpt lat="43.65664" lon="3.77627">
        <ele>88.38700032</ele>
        <time>2020-06-14T14:07:22.000Z</time>
      </trkpt>
      <trkpt lat="43.65666" lon="3.77623">
        <ele>88.58700032</ele>
        <time>2020-06-14T14:07:24.000Z</time>
      </trkpt>
      <trkpt lat="43.65666" lon="3.7762">
        <ele>88.68700032</ele>
        <time>2020-06-14T14:07:25.000Z</time>
      </trkpt>
      <trkpt lat="43.65667" lon="3.77618">
        <ele>88.78700032</ele>
        <time>2020-06-14T14:07:26.000Z</time>
      </trkpt>
      <trkpt lat="43.65668" lon="3.77615">
        <ele>88.88700032</ele>
        <time>2020-06-14T14:07:27.000Z</time>
      </trkpt>
      <trkpt lat="43.65669" lon="3.77613">
        <ele>88.98700032</ele>
        <time>2020-06-14T14:07:28.000Z</time>
      </trkpt>
      <trkpt lat="43.6567" lon="3.7761">
        <ele>89.08700032</ele>
        <time>2020-06-14T14:07:29.000Z</time>
      </trkpt>
      <trkpt lat="43.65671" lon="3.77607">
        <ele>89.18700032</ele>
        <time>2020-06-14T14:07:30.000Z</time>
      </trkpt>
      <trkpt lat="43.65671" lon="3.77605">
        <ele>89.28700032</ele>
        <time>2020-06-14T14:07:31.000Z</time>
      </trkpt>
      <trkpt lat="43.65672" lon="3.77602">
        <ele>89.38700032</ele>
        <time>2020-06-14T14:07:32.000Z</time>
      </trkpt>
      <trkpt lat="43.65673" lon="3.776">
        <ele>89.48700032</ele>
        <time>2020-06-14T14:07:33.000Z</time>
      </trkpt>
      <trkpt lat="43.65673" lon="3.77597">
        <ele>89.58700032</ele>
        <time>2020-06-14T14:07:34.000Z</time>
      </trkpt>
      <trkpt lat="43.65674" lon="3.77595">
        <ele>89.68700032</ele>
        <time>2020-06-14T14:07:35.000Z</time>
      </trkpt>
      <trkpt lat="43.65675" lon="3.77593">
        <ele>89.78700032</ele>
        <time>2020-06-14T14:07:36.000Z</time>
      </trkpt>
      <trkpt lat="43.65676" lon="3.7759">
        <ele>89.88700032</ele>
        <time>2020-06-14T14:07:37.000Z</time>
      </trkpt>
      <trkpt lat="43.65677" lon="3.77588">
        <ele>89.98700032</ele>
        <time>2020-06-14T14:07:38.000Z</time>
      </trkpt>
      <trkpt lat="43.65678" lon="3.77586">
        <ele>90.08700032</ele>
        <time>2020-06-14T14:07:39.000Z</time>
      </trkpt>
      <trkpt lat="43.65679" lon="3.77584">
        <ele>90.18700032</ele>
        <time>2020-06-14T14:07:40.000Z</time>
      </trkpt>
      <trkpt lat="43.6568" lon="3.77581">
        <ele>90.28700032</ele>
        <time>2020-06-14T14:07:41.000Z</time>
      </trkpt>
      <trkpt lat="43.65681" lon="3.77579">
        <ele>90.38700032</ele>
        <time>2020-06-14T14:07:42.000Z</time>
      </trkpt>
      <trkpt lat="43.65681" lon="3.77576">
        <ele>90.48700032</ele>
        <time>2020-06-14T14:07:43.000Z</time>
      </trkpt>
      <trkpt lat="43.65682" lon="3.77574">
        <ele>90.58700032</ele>
        <time>2020-06-14T14:07:44.000Z</time>
      </trkpt>
      <trkpt lat="43.65682" lon="3.77571">
        <ele>90.68700032</ele>
        <time>2020-06-14T14:07:45.000Z</time>
      </trkpt>
      <trkpt lat="43.65683" lon="3.77568">
        <ele>90.78700032</ele>
        <time>2020-06-14T14:07:46.000Z</time>
      </trkpt>
      <trkpt lat="43.65684" lon="3.77565">
        <ele>90.88700032</ele>
        <time>2020-06-14T14:07:47.000Z</time>
      </trkpt>
      <trkpt lat="43.65685" lon="3.77563">
        <ele>90.98700032</ele>
        <time>2020-06-14T14:07:48.000Z</time>
      </trkpt>
      <trkpt lat="43.65687" lon="3.7756">
        <ele>91</ele>
        <time>2020-06-14T14:07:49.000Z</time>
      </trkpt>
      <trkpt lat="43.65687" lon="3.77558">
        <ele>91</ele>
        <time>2020-06-14T14:07:50.000Z</time>
      </trkpt>
      <trkpt lat="43.65688" lon="3.77555">
        <ele>91</ele>
        <time>2020-06-14T14:07:51.000Z</time>
      </trkpt>
      <trkpt lat="43.65689" lon="3.77552">
        <ele>91</ele>
        <time>2020-06-14T14:07:52.000Z</time>
      </trkpt>
      <trkpt lat="43.6569" lon="3.77549">
        <ele>91</ele>
        <time>2020-06-14T14:07:53.000Z</time>
      </trkpt>
      <trkpt lat="43.6569" lon="3.77547">
        <ele>91</ele>
        <time>2020-06-14T14:07:54.000Z</time>
      </trkpt>
      <trkpt lat="43.65691" lon="3.77544">
        <ele>91</ele>
        <time>2020-06-14T14:07:55.000Z</time>
      </trkpt>
      <trkpt lat="43.65691" lon="3.77541">
        <ele>91</ele>
        <time>2020-06-14T14:07:56.000Z</time>
      </trkpt>
      <trkpt lat="43.65692" lon="3.77539">
        <ele>91</ele>
        <time>2020-06-14T14:07:57.000Z</time>
      </trkpt>
      <trkpt lat="43.65693" lon="3.77536">
        <ele>91</ele>
        <time>2020-06-14T14:07:58.000Z</time>
      </trkpt>
      <trkpt lat="43.65694" lon="3.77534">
        <ele>91.08691332324</ele>
        <time>2020-06-14T14:07:59.000Z</time>
      </trkpt>
      <trkpt lat="43.65695" lon="3.77532">
        <ele>91.186813327332</ele>
        <time>2020-06-14T14:08:00.000Z</time>
      </trkpt>
      <trkpt lat="43.65696" lon="3.77529">
        <ele>91.286713331424</ele>
        <time>2020-06-14T14:08:01.000Z</time>
      </trkpt>
      <trkpt lat="43.65698" lon="3.77527">
        <ele>91.386613335516</ele>
        <time>2020-06-14T14:08:02.000Z</time>
      </trkpt>
      <trkpt lat="43.65699" lon="3.77524">
        <ele>91.486513339608</ele>
        <time>2020-06-14T14:08:03.000Z</time>
      </trkpt>
      <trkpt lat="43.657" lon="3.77522">
        <ele>91.5864133437</ele>
        <time>2020-06-14T14:08:04.000Z</time>
      </trkpt>
      <trkpt lat="43.65701" lon="3.77519">
        <ele>91.686313347791</ele>
        <time>2020-06-14T14:08:05.000Z</time>
      </trkpt>
      <trkpt lat="43.65702" lon="3.77517">
        <ele>91.786213351883</ele>
        <time>2020-06-14T14:08:06.000Z</time>
      </trkpt>
      <trkpt lat="43.65703" lon="3.77515">
        <ele>91.886113355975</ele>
        <time>2020-06-14T14:08:07.000Z</time>
      </trkpt>
      <trkpt lat="43.65704" lon="3.77513">
        <ele>91.986013360067</ele>
        <time>2020-06-14T14:08:08.000Z</time>
      </trkpt>
      <trkpt lat="43.65705" lon="3.7751">
        <ele>92.172171056341</ele>
        <time>2020-06-14T14:08:09.000Z</time>
      </trkpt>
      <trkpt lat="43.65706" lon="3.77508">
        <ele>92.372371448926</ele>
        <time>2020-06-14T14:08:10.000Z</time>
      </trkpt>
      <trkpt lat="43.65707" lon="3.77506">
        <ele>92.57257184151</ele>
        <time>2020-06-14T14:08:11.000Z</time>
      </trkpt>
      <trkpt lat="43.65708" lon="3.77503">
        <ele>92.772772234095</ele>
        <time>2020-06-14T14:08:12.000Z</time>
      </trkpt>
      <trkpt lat="43.65709" lon="3.775">
        <ele>92.97297262668</ele>
        <time>2020-06-14T14:08:13.000Z</time>
      </trkpt>
      <trkpt lat="43.6571" lon="3.77497">
        <ele>93.173173019265</ele>
        <time>2020-06-14T14:08:14.000Z</time>
      </trkpt>
      <trkpt lat="43.65711" lon="3.77494">
        <ele>93.37337341185</ele>
        <time>2020-06-14T14:08:15.000Z</time>
      </trkpt>
      <trkpt lat="43.65712" lon="3.77491">
        <ele>93.573573804435</ele>
        <time>2020-06-14T14:08:16.000Z</time>
      </trkpt>
      <trkpt lat="43.65714" lon="3.77488">
        <ele>93.77377419702</ele>
        <time>2020-06-14T14:08:17.000Z</time>
      </trkpt>
      <trkpt lat="43.65715" lon="3.77485">
        <ele>93.973974589605</ele>
        <time>2020-06-14T14:08:18.000Z</time>
      </trkpt>
      <trkpt lat="43.65716" lon="3.77482">
        <ele>94.084548442231</ele>
        <time>2020-06-14T14:08:19.000Z</time>
      </trkpt>
      <trkpt lat="43.65718" lon="3.77479">
        <ele>94.181730202287</ele>
        <time>2020-06-14T14:08:20.000Z</time>
      </trkpt>
      <trkpt lat="43.65719" lon="3.77476">
        <ele>94.278911962344</ele>
        <time>2020-06-14T14:08:21.000Z</time>
      </trkpt>
      <trkpt lat="43.6572" lon="3.77474">
        <ele>94.3760937224</ele>
        <time>2020-06-14T14:08:22.000Z</time>
      </trkpt>
      <trkpt lat="43.65721" lon="3.77472">
        <ele>94.473275482457</ele>
        <time>2020-06-14T14:08:23.000Z</time>
      </trkpt>
      <trkpt lat="43.65723" lon="3.77471">
        <ele>94.570457242513</ele>
        <time>2020-06-14T14:08:24.000Z</time>
      </trkpt>
      <trkpt lat="43.65725" lon="3.77469">
        <ele>94.66763900257</ele>
        <time>2020-06-14T14:08:25.000Z</time>
      </trkpt>
      <trkpt lat="43.65727" lon="3.77468">
        <ele>94.862002522683</ele>
        <time>2020-06-14T14:08:27.000Z</time>
      </trkpt>
      <trkpt lat="43.65729" lon="3.77468">
        <ele>95</ele>
        <time>2020-06-14T14:08:29.000Z</time>
      </trkpt>
      <trkpt lat="43.65731" lon="3.77468">
        <ele>95</ele>
        <time>2020-06-14T14:08:31.000Z</time>
      </trkpt>
      <trkpt lat="43.65734" lon="3.77469">
        <ele>95</ele>
        <time>2020-06-14T14:08:32.000Z</time>
      </trkpt>
      <trkpt lat="43.65735" lon="3.77469">
        <ele>95</ele>
        <time>2020-06-14T14:08:33.000Z</time>
      </trkpt>
      <trkpt lat="43.65737" lon="3.77469">
        <ele>95</ele>
        <time>2020-06-14T14:08:34.000Z</time>
      </trkpt>
      <trkpt lat="43.65739" lon="3.77469">
        <ele>95</ele>
        <time>2020-06-14T14:08:35.000Z</time>
      </trkpt>
      <trkpt lat="43.65743" lon="3.77467">
        <ele>95</ele>
        <time>2020-06-14T14:08:37.000Z</time>
      </trkpt>
      <trkpt lat="43.65746" lon="3.77467">
        <ele>95.08608552817</ele>
        <time>2020-06-14T14:08:39.000Z</time>
      </trkpt>
      <trkpt lat="43.65748" lon="3.77467">
        <ele>95.186185724463</ele>
        <time>2020-06-14T14:08:40.000Z</time>
      </trkpt>
      <trkpt lat="43.6575" lon="3.77468">
        <ele>95.286285920755</ele>
        <time>2020-06-14T14:08:41.000Z</time>
      </trkpt>
      <trkpt lat="43.65752" lon="3.77469">
        <ele>95.386386117048</ele>
        <time>2020-06-14T14:08:42.000Z</time>
      </trkpt>
      <trkpt lat="43.65755" lon="3.7747">
        <ele>95.586586509633</ele>
        <time>2020-06-14T14:08:44.000Z</time>
      </trkpt>
      <trkpt lat="43.65757" lon="3.77471">
        <ele>95.686686705925</ele>
        <time>2020-06-14T14:08:45.000Z</time>
      </trkpt>
      <trkpt lat="43.6576" lon="3.77471">
        <ele>95.88688709851</ele>
        <time>2020-06-14T14:08:47.000Z</time>
      </trkpt>
      <trkpt lat="43.65763" lon="3.7747">
        <ele>96.086224219252</ele>
        <time>2020-06-14T14:08:49.000Z</time>
      </trkpt>
      <trkpt lat="43.65765" lon="3.7747">
        <ele>96.284440086162</ele>
        <time>2020-06-14T14:08:51.000Z</time>
      </trkpt>
      <trkpt lat="43.65768" lon="3.7747">
        <ele>96.482655953073</ele>
        <time>2020-06-14T14:08:53.000Z</time>
      </trkpt>
      <trkpt lat="43.6577" lon="3.7747">
        <ele>96.680871819983</ele>
        <time>2020-06-14T14:08:55.000Z</time>
      </trkpt>
      <trkpt lat="43.65771" lon="3.77471">
        <ele>97</ele>
        <time>2020-06-14T14:08:59.000Z</time>
      </trkpt>
      <trkpt lat="43.65769" lon="3.77468">
        <ele>93</ele>
        <time>2020-06-14T14:14:47.000Z</time>
      </trkpt>
      <trkpt lat="43.6577" lon="3.77469">
        <ele>93</ele>
        <time>2020-06-14T14:14:50.000Z</time>
      </trkpt>
      <trkpt lat="43.65771" lon="3.77469">
        <ele>93</ele>
        <time>2020-06-14T14:14:54.000Z</time>
      </trkpt>
      <trkpt lat="43.65772" lon="3.77469">
        <ele>93.001808867918</ele>
        <time>2020-06-14T14:15:00.000Z</time>
      </trkpt>
      <trkpt lat="43.65778" lon="3.77471">
        <ele>93.983720850237</ele>
        <time>2020-06-14T14:15:38.000Z</time>
      </trkpt>
      <trkpt lat="43.65779" lon="3.77471">
        <ele>94.075869361726</ele>
        <time>2020-06-14T14:15:39.000Z</time>
      </trkpt>
      <trkpt lat="43.65782" lon="3.77472">
        <ele>94.497365815761</ele>
        <time>2020-06-14T14:15:41.000Z</time>
      </trkpt>
      <trkpt lat="43.65785" lon="3.77474">
        <ele>94.918862269795</ele>
        <time>2020-06-14T14:15:43.000Z</time>
      </trkpt>
      <trkpt lat="43.65787" lon="3.77475">
        <ele>95.129610496813</ele>
        <time>2020-06-14T14:15:44.000Z</time>
      </trkpt>
      <trkpt lat="43.6579" lon="3.77476">
        <ele>95.551106950847</ele>
        <time>2020-06-14T14:15:46.000Z</time>
      </trkpt>
      <trkpt lat="43.65792" lon="3.77476">
        <ele>95.761855177865</ele>
        <time>2020-06-14T14:15:47.000Z</time>
      </trkpt>
      <trkpt lat="43.65795" lon="3.77477">
        <ele>96</ele>
        <time>2020-06-14T14:15:49.000Z</time>
      </trkpt>
      <trkpt lat="43.65798" lon="3.77475">
        <ele>96</ele>
        <time>2020-06-14T14:15:51.000Z</time>
      </trkpt>
      <trkpt lat="43.65801" lon="3.77471">
        <ele>96</ele>
        <time>2020-06-14T14:15:53.000Z</time>
      </trkpt>
      <trkpt lat="43.65801" lon="3.77469">
        <ele>96</ele>
        <time>2020-06-14T14:15:54.000Z</time>
      </trkpt>
      <trkpt lat="43.65801" lon="3.77464">
        <ele>96</ele>
        <time>2020-06-14T14:15:56.000Z</time>
      </trkpt>
      <trkpt lat="43.658" lon="3.77461">
        <ele>96</ele>
        <time>2020-06-14T14:15:57.000Z</time>
      </trkpt>
      <trkpt lat="43.65799" lon="3.77459">
        <ele>96</ele>
        <time>2020-06-14T14:15:58.000Z</time>
      </trkpt>
      <trkpt lat="43.65798" lon="3.77456">
        <ele>96.119342723499</ele>
        <time>2020-06-14T14:15:59.000Z</time>
      </trkpt>
      <trkpt lat="43.65797" lon="3.77452">
        <ele>96.530864815322</ele>
        <time>2020-06-14T14:16:01.000Z</time>
      </trkpt>
      <trkpt lat="43.65796" lon="3.77447">
        <ele>96.942386907145</ele>
        <time>2020-06-14T14:16:03.000Z</time>
      </trkpt>
      <trkpt lat="43.65796" lon="3.77442">
        <ele>97.353908998968</ele>
        <time>2020-06-14T14:16:05.000Z</time>
      </trkpt>
      <trkpt lat="43.65797" lon="3.77438">
        <ele>97.76543109079</ele>
        <time>2020-06-14T14:16:07.000Z</time>
      </trkpt>
      <trkpt lat="43.65799" lon="3.77435">
        <ele>98.08608552817</ele>
        <time>2020-06-14T14:16:09.000Z</time>
      </trkpt>
      <trkpt lat="43.65801" lon="3.77431">
        <ele>98.286285920755</ele>
        <time>2020-06-14T14:16:11.000Z</time>
      </trkpt>
      <trkpt lat="43.65802" lon="3.77428">
        <ele>98.48648631334</ele>
        <time>2020-06-14T14:16:13.000Z</time>
      </trkpt>
      <trkpt lat="43.65804" lon="3.77424">
        <ele>98.686686705925</ele>
        <time>2020-06-14T14:16:15.000Z</time>
      </trkpt>
      <trkpt lat="43.65805" lon="3.77421">
        <ele>98.88688709851</ele>
        <time>2020-06-14T14:16:17.000Z</time>
      </trkpt>
      <trkpt lat="43.65807" lon="3.77418">
        <ele>99.26100096</ele>
        <time>2020-06-14T14:16:19.000Z</time>
      </trkpt>
      <trkpt lat="43.65809" lon="3.77414">
        <ele>99.86100096</ele>
        <time>2020-06-14T14:16:21.000Z</time>
      </trkpt>
      <trkpt lat="43.6581" lon="3.7741">
        <ele>100.46100096</ele>
        <time>2020-06-14T14:16:23.000Z</time>
      </trkpt>
      <trkpt lat="43.65811" lon="3.77407">
        <ele>100.76100096</ele>
        <time>2020-06-14T14:16:24.000Z</time>
      </trkpt>
      <trkpt lat="43.65811" lon="3.77405">
        <ele>101.06100096</ele>
        <time>2020-06-14T14:16:25.000Z</time>
      </trkpt>
      <trkpt lat="43.65812" lon="3.77402">
        <ele>101.36100096</ele>
        <time>2020-06-14T14:16:26.000Z</time>
      </trkpt>
      <trkpt lat="43.65812" lon="3.774">
        <ele>101.66100096</ele>
        <time>2020-06-14T14:16:27.000Z</time>
      </trkpt>
      <trkpt lat="43.65813" lon="3.77397">
        <ele>101.96100096</ele>
        <time>2020-06-14T14:16:28.000Z</time>
      </trkpt>
      <trkpt lat="43.65814" lon="3.77395">
        <ele>102.17400064</ele>
        <time>2020-06-14T14:16:29.000Z</time>
      </trkpt>
      <trkpt lat="43.65814" lon="3.77392">
        <ele>102.37400064</ele>
        <time>2020-06-14T14:16:30.000Z</time>
      </trkpt>
      <trkpt lat="43.65815" lon="3.77389">
        <ele>102.57400064</ele>
        <time>2020-06-14T14:16:31.000Z</time>
      </trkpt>
      <trkpt lat="43.65816" lon="3.77387">
        <ele>102.77400064</ele>
        <time>2020-06-14T14:16:32.000Z</time>
      </trkpt>
      <trkpt lat="43.65816" lon="3.77384">
        <ele>102.97400064</ele>
        <time>2020-06-14T14:16:33.000Z</time>
      </trkpt>
      <trkpt lat="43.65817" lon="3.77381">
        <ele>103.17400064</ele>
        <time>2020-06-14T14:16:34.000Z</time>
      </trkpt>
      <trkpt lat="43.65817" lon="3.77378">
        <ele>103.37400064</ele>
        <time>2020-06-14T14:16:35.000Z</time>
      </trkpt>
      <trkpt lat="43.65818" lon="3.77375">
        <ele>103.57400064</ele>
        <time>2020-06-14T14:16:36.000Z</time>
      </trkpt>
      <trkpt lat="43.65818" lon="3.77372">
        <ele>103.77400064</ele>
        <time>2020-06-14T14:16:37.000Z</time>
      </trkpt>
      <trkpt lat="43.65819" lon="3.77369">
        <ele>103.97400064</ele>
        <time>2020-06-14T14:16:38.000Z</time>
      </trkpt>
      <trkpt lat="43.65819" lon="3.77365">
        <ele>104.17400064</ele>
        <time>2020-06-14T14:16:39.000Z</time>
      </trkpt>
      <trkpt lat="43.65819" lon="3.77362">
        <ele>104.37400064</ele>
        <time>2020-06-14T14:16:40.000Z</time>
      </trkpt>
      <trkpt lat="43.65819" lon="3.77359">
        <ele>104.57400064</ele>
        <time>2020-06-14T14:16:41.000Z</time>
      </trkpt>
      <trkpt lat="43.6582" lon="3.77356">
        <ele>104.77400064</ele>
        <time>2020-06-14T14:16:42.000Z</time>
      </trkpt>
      <trkpt lat="43.6582" lon="3.77353">
        <ele>104.97400064</ele>
        <time>2020-06-14T14:16:43.000Z</time>
      </trkpt>
      <trkpt lat="43.6582" lon="3.77349">
        <ele>105.17400064</ele>
        <time>2020-06-14T14:16:44.000Z</time>
      </trkpt>
      <trkpt lat="43.6582" lon="3.77346">
        <ele>105.37400064</ele>
        <time>2020-06-14T14:16:45.000Z</time>
      </trkpt>
      <trkpt lat="43.6582" lon="3.77342">
        <ele>105.57400064</ele>
        <time>2020-06-14T14:16:46.000Z</time>
      </trkpt>
      <trkpt lat="43.65821" lon="3.77339">
        <ele>105.77400064</ele>
        <time>2020-06-14T14:16:47.000Z</time>
      </trkpt>
      <trkpt lat="43.6582" lon="3.77336">
        <ele>105.97400064</ele>
        <time>2020-06-14T14:16:48.000Z</time>
      </trkpt>
      <trkpt lat="43.6582" lon="3.77334">
        <ele>106</ele>
        <time>2020-06-14T14:16:49.000Z</time>
      </trkpt>
      <trkpt lat="43.6582" lon="3.77331">
        <ele>106</ele>
        <time>2020-06-14T14:16:50.000Z</time>
      </trkpt>
      <trkpt lat="43.6582" lon="3.77328">
        <ele>106</ele>
        <time>2020-06-14T14:16:51.000Z</time>
      </trkpt>
      <trkpt lat="43.6582" lon="3.77324">
        <ele>106</ele>
        <time>2020-06-14T14:16:52.000Z</time>
      </trkpt>
      <trkpt lat="43.6582" lon="3.77321">
        <ele>106</ele>
        <time>2020-06-14T14:16:53.000Z</time>
      </trkpt>
      <trkpt lat="43.65821" lon="3.77317">
        <ele>106</ele>
        <time>2020-06-14T14:16:54.000Z</time>
      </trkpt>
      <trkpt lat="43.65821" lon="3.77314">
        <ele>106</ele>
        <time>2020-06-14T14:16:55.000Z</time>
      </trkpt>
      <trkpt lat="43.65822" lon="3.77311">
        <ele>106</ele>
        <time>2020-06-14T14:16:56.000Z</time>
      </trkpt>
      <trkpt lat="43.65822" lon="3.77308">
        <ele>106</ele>
        <time>2020-06-14T14:16:57.000Z</time>
      </trkpt>
      <trkpt lat="43.65823" lon="3.77305">
        <ele>106</ele>
        <time>2020-06-14T14:16:58.000Z</time>
      </trkpt>
      <trkpt lat="43.65824" lon="3.77302">
        <ele>106</ele>
        <time>2020-06-14T14:16:59.000Z</time>
      </trkpt>
      <trkpt lat="43.65825" lon="3.77299">
        <ele>106</ele>
        <time>2020-06-14T14:17:00.000Z</time>
      </trkpt>
      <trkpt lat="43.65826" lon="3.77296">
        <ele>106</ele>
        <time>2020-06-14T14:17:01.000Z</time>
      </trkpt>
      <trkpt lat="43.65827" lon="3.77292">
        <ele>106</ele>
        <time>2020-06-14T14:17:02.000Z</time>
      </trkpt>
      <trkpt lat="43.65828" lon="3.77288">
        <ele>106</ele>
        <time>2020-06-14T14:17:03.000Z</time>
      </trkpt>
      <trkpt lat="43.65829" lon="3.77285">
        <ele>106</ele>
        <time>2020-06-14T14:17:04.000Z</time>
      </trkpt>
      <trkpt lat="43.6583" lon="3.77282">
        <ele>106</ele>
        <time>2020-06-14T14:17:05.000Z</time>
      </trkpt>
      <trkpt lat="43.65831" lon="3.77278">
        <ele>106</ele>
        <time>2020-06-14T14:17:06.000Z</time>
      </trkpt>
      <trkpt lat="43.65832" lon="3.77275">
        <ele>106</ele>
        <time>2020-06-14T14:17:07.000Z</time>
      </trkpt>
      <trkpt lat="43.65833" lon="3.77271">
        <ele>106</ele>
        <time>2020-06-14T14:17:08.000Z</time>
      </trkpt>
      <trkpt lat="43.65833" lon="3.77268">
        <ele>106</ele>
        <time>2020-06-14T14:17:09.000Z</time>
      </trkpt>
      <trkpt lat="43.65834" lon="3.77265">
        <ele>106</ele>
        <time>2020-06-14T14:17:10.000Z</time>
      </trkpt>
      <trkpt lat="43.65835" lon="3.77262">
        <ele>106</ele>
        <time>2020-06-14T14:17:11.000Z</time>
      </trkpt>
      <trkpt lat="43.65835" lon="3.77259">
        <ele>106</ele>
        <time>2020-06-14T14:17:12.000Z</time>
      </trkpt>
      <trkpt lat="43.65835" lon="3.77256">
        <ele>106</ele>
        <time>2020-06-14T14:17:13.000Z</time>
      </trkpt>
      <trkpt lat="43.65835" lon="3.77254">
        <ele>106</ele>
        <time>2020-06-14T14:17:14.000Z</time>
      </trkpt>
      <trkpt lat="43.65834" lon="3.77251">
        <ele>106</ele>
        <time>2020-06-14T14:17:15.000Z</time>
      </trkpt>
      <trkpt lat="43.65832" lon="3.77249">
        <ele>106</ele>
        <time>2020-06-14T14:17:16.000Z</time>
      </trkpt>
      <trkpt lat="43.6583" lon="3.77247">
        <ele>106</ele>
        <time>2020-06-14T14:17:17.000Z</time>
      </trkpt>
      <trkpt lat="43.65828" lon="3.77245">
        <ele>106</ele>
        <time>2020-06-14T14:17:18.000Z</time>
      </trkpt>
      <trkpt lat="43.65827" lon="3.77243">
        <ele>106.08674007203</ele>
        <time>2020-06-14T14:17:19.000Z</time>
      </trkpt>
      <trkpt lat="43.65825" lon="3.77241">
        <ele>106.18644093753</ele>
        <time>2020-06-14T14:17:20.000Z</time>
      </trkpt>
      <trkpt lat="43.65823" lon="3.77238">
        <ele>106.28614180303</ele>
        <time>2020-06-14T14:17:21.000Z</time>
      </trkpt>
      <trkpt lat="43.65822" lon="3.77236">
        <ele>106.38584266853</ele>
        <time>2020-06-14T14:17:22.000Z</time>
      </trkpt>
      <trkpt lat="43.6582" lon="3.77234">
        <ele>106.48554353402</ele>
        <time>2020-06-14T14:17:23.000Z</time>
      </trkpt>
      <trkpt lat="43.65819" lon="3.77231">
        <ele>106.58524439952</ele>
        <time>2020-06-14T14:17:24.000Z</time>
      </trkpt>
      <trkpt lat="43.65818" lon="3.77229">
        <ele>106.68494526502</ele>
        <time>2020-06-14T14:17:25.000Z</time>
      </trkpt>
      <trkpt lat="43.65817" lon="3.77226">
        <ele>106.78464613052</ele>
        <time>2020-06-14T14:17:26.000Z</time>
      </trkpt>
      <trkpt lat="43.65815" lon="3.77224">
        <ele>106.88434699602</ele>
        <time>2020-06-14T14:17:27.000Z</time>
      </trkpt>
      <trkpt lat="43.65814" lon="3.77221">
        <ele>106.98404786152</ele>
        <time>2020-06-14T14:17:28.000Z</time>
      </trkpt>
      <trkpt lat="43.65813" lon="3.77219">
        <ele>107</ele>
        <time>2020-06-14T14:17:29.000Z</time>
      </trkpt>
      <trkpt lat="43.65812" lon="3.77216">
        <ele>107</ele>
        <time>2020-06-14T14:17:30.000Z</time>
      </trkpt>
      <trkpt lat="43.65811" lon="3.77214">
        <ele>107</ele>
        <time>2020-06-14T14:17:31.000Z</time>
      </trkpt>
      <trkpt lat="43.6581" lon="3.77211">
        <ele>107</ele>
        <time>2020-06-14T14:17:32.000Z</time>
      </trkpt>
      <trkpt lat="43.6581" lon="3.77208">
        <ele>107</ele>
        <time>2020-06-14T14:17:33.000Z</time>
      </trkpt>
      <trkpt lat="43.65809" lon="3.77206">
        <ele>107</ele>
        <time>2020-06-14T14:17:34.000Z</time>
      </trkpt>
      <trkpt lat="43.65809" lon="3.77203">
        <ele>107</ele>
        <time>2020-06-14T14:17:35.000Z</time>
      </trkpt>
      <trkpt lat="43.65809" lon="3.77201">
        <ele>107</ele>
        <time>2020-06-14T14:17:36.000Z</time>
      </trkpt>
      <trkpt lat="43.65809" lon="3.77198">
        <ele>107</ele>
        <time>2020-06-14T14:17:37.000Z</time>
      </trkpt>
      <trkpt lat="43.65809" lon="3.77195">
        <ele>107</ele>
        <time>2020-06-14T14:17:38.000Z</time>
      </trkpt>
      <trkpt lat="43.65809" lon="3.77193">
        <ele>107.08674007203</ele>
        <time>2020-06-14T14:17:39.000Z</time>
      </trkpt>
      <trkpt lat="43.65809" lon="3.7719">
        <ele>107.18644093753</ele>
        <time>2020-06-14T14:17:40.000Z</time>
      </trkpt>
      <trkpt lat="43.6581" lon="3.77187">
        <ele>107.28614180303</ele>
        <time>2020-06-14T14:17:41.000Z</time>
      </trkpt>
      <trkpt lat="43.6581" lon="3.77185">
        <ele>107.38584266853</ele>
        <time>2020-06-14T14:17:42.000Z</time>
      </trkpt>
      <trkpt lat="43.65811" lon="3.77182">
        <ele>107.48554353402</ele>
        <time>2020-06-14T14:17:43.000Z</time>
      </trkpt>
      <trkpt lat="43.65812" lon="3.77179">
        <ele>107.58524439952</ele>
        <time>2020-06-14T14:17:44.000Z</time>
      </trkpt>
      <trkpt lat="43.65812" lon="3.77177">
        <ele>107.68494526502</ele>
        <time>2020-06-14T14:17:45.000Z</time>
      </trkpt>
      <trkpt lat="43.65812" lon="3.77174">
        <ele>107.78464613052</ele>
        <time>2020-06-14T14:17:46.000Z</time>
      </trkpt>
      <trkpt lat="43.65813" lon="3.77171">
        <ele>107.88434699602</ele>
        <time>2020-06-14T14:17:47.000Z</time>
      </trkpt>
      <trkpt lat="43.65813" lon="3.77168">
        <ele>107.98404786152</ele>
        <time>2020-06-14T14:17:48.000Z</time>
      </trkpt>
      <trkpt lat="43.65814" lon="3.77165">
        <ele>108.08425278532</ele>
        <time>2020-06-14T14:17:49.000Z</time>
      </trkpt>
      <trkpt lat="43.65814" lon="3.77162">
        <ele>108.18455372022</ele>
        <time>2020-06-14T14:17:50.000Z</time>
      </trkpt>
      <trkpt lat="43.65814" lon="3.7716">
        <ele>108.28485465512</ele>
        <time>2020-06-14T14:17:51.000Z</time>
      </trkpt>
      <trkpt lat="43.65815" lon="3.77157">
        <ele>108.38515559002</ele>
        <time>2020-06-14T14:17:52.000Z</time>
      </trkpt>
      <trkpt lat="43.65815" lon="3.77153">
        <ele>108.48545652492</ele>
        <time>2020-06-14T14:17:53.000Z</time>
      </trkpt>
      <trkpt lat="43.65815" lon="3.7715">
        <ele>108.58575745982</ele>
        <time>2020-06-14T14:17:54.000Z</time>
      </trkpt>
      <trkpt lat="43.65815" lon="3.77147">
        <ele>108.68605839472</ele>
        <time>2020-06-14T14:17:55.000Z</time>
      </trkpt>
      <trkpt lat="43.65815" lon="3.77144">
        <ele>108.78635932962</ele>
        <time>2020-06-14T14:17:56.000Z</time>
      </trkpt>
      <trkpt lat="43.65815" lon="3.77141">
        <ele>108.88666026453</ele>
        <time>2020-06-14T14:17:57.000Z</time>
      </trkpt>
      <trkpt lat="43.65815" lon="3.77138">
        <ele>108.98696119943</ele>
        <time>2020-06-14T14:17:58.000Z</time>
      </trkpt>
      <trkpt lat="43.65814" lon="3.77135">
        <ele>109</ele>
        <time>2020-06-14T14:17:59.000Z</time>
      </trkpt>
      <trkpt lat="43.65814" lon="3.77131">
        <ele>109</ele>
        <time>2020-06-14T14:18:00.000Z</time>
      </trkpt>
      <trkpt lat="43.65814" lon="3.77128">
        <ele>109</ele>
        <time>2020-06-14T14:18:01.000Z</time>
      </trkpt>
      <trkpt lat="43.65813" lon="3.77125">
        <ele>109</ele>
        <time>2020-06-14T14:18:02.000Z</time>
      </trkpt>
      <trkpt lat="43.65812" lon="3.77123">
        <ele>109</ele>
        <time>2020-06-14T14:18:03.000Z</time>
      </trkpt>
      <trkpt lat="43.65811" lon="3.7712">
        <ele>109</ele>
        <time>2020-06-14T14:18:04.000Z</time>
      </trkpt>
      <trkpt lat="43.6581" lon="3.77117">
        <ele>109</ele>
        <time>2020-06-14T14:18:05.000Z</time>
      </trkpt>
      <trkpt lat="43.6581" lon="3.77115">
        <ele>109</ele>
        <time>2020-06-14T14:18:06.000Z</time>
      </trkpt>
      <trkpt lat="43.65809" lon="3.77112">
        <ele>109</ele>
        <time>2020-06-14T14:18:07.000Z</time>
      </trkpt>
      <trkpt lat="43.65809" lon="3.7711">
        <ele>109</ele>
        <time>2020-06-14T14:18:08.000Z</time>
      </trkpt>
      <trkpt lat="43.65808" lon="3.77107">
        <ele>109</ele>
        <time>2020-06-14T14:18:09.000Z</time>
      </trkpt>
      <trkpt lat="43.65807" lon="3.77105">
        <ele>109</ele>
        <time>2020-06-14T14:18:10.000Z</time>
      </trkpt>
      <trkpt lat="43.65807" lon="3.77102">
        <ele>109</ele>
        <time>2020-06-14T14:18:11.000Z</time>
      </trkpt>
      <trkpt lat="43.65807" lon="3.771">
        <ele>109</ele>
        <time>2020-06-14T14:18:12.000Z</time>
      </trkpt>
      <trkpt lat="43.65806" lon="3.77095">
        <ele>109</ele>
        <time>2020-06-14T14:18:14.000Z</time>
      </trkpt>
      <trkpt lat="43.65806" lon="3.77091">
        <ele>109</ele>
        <time>2020-06-14T14:18:16.000Z</time>
      </trkpt>
      <trkpt lat="43.65805" lon="3.77086">
        <ele>109</ele>
        <time>2020-06-14T14:18:18.000Z</time>
      </trkpt>
      <trkpt lat="43.65805" lon="3.77083">
        <ele>109</ele>
        <time>2020-06-14T14:18:19.000Z</time>
      </trkpt>
      <trkpt lat="43.65805" lon="3.7708">
        <ele>109</ele>
        <time>2020-06-14T14:18:20.000Z</time>
      </trkpt>
      <trkpt lat="43.65805" lon="3.77077">
        <ele>109</ele>
        <time>2020-06-14T14:18:21.000Z</time>
      </trkpt>
      <trkpt lat="43.65805" lon="3.77074">
        <ele>109</ele>
        <time>2020-06-14T14:18:22.000Z</time>
      </trkpt>
      <trkpt lat="43.65805" lon="3.77071">
        <ele>109</ele>
        <time>2020-06-14T14:18:23.000Z</time>
      </trkpt>
      <trkpt lat="43.65805" lon="3.77068">
        <ele>109</ele>
        <time>2020-06-14T14:18:24.000Z</time>
      </trkpt>
      <trkpt lat="43.65804" lon="3.77064">
        <ele>109</ele>
        <time>2020-06-14T14:18:25.000Z</time>
      </trkpt>
      <trkpt lat="43.65804" lon="3.77061">
        <ele>109</ele>
        <time>2020-06-14T14:18:26.000Z</time>
      </trkpt>
      <trkpt lat="43.65804" lon="3.77058">
        <ele>109</ele>
        <time>2020-06-14T14:18:27.000Z</time>
      </trkpt>
      <trkpt lat="43.65803" lon="3.77054">
        <ele>109</ele>
        <time>2020-06-14T14:18:28.000Z</time>
      </trkpt>
      <trkpt lat="43.65803" lon="3.77051">
        <ele>109</ele>
        <time>2020-06-14T14:18:29.000Z</time>
      </trkpt>
      <trkpt lat="43.65802" lon="3.77047">
        <ele>109</ele>
        <time>2020-06-14T14:18:30.000Z</time>
      </trkpt>
      <trkpt lat="43.65801" lon="3.77043">
        <ele>109</ele>
        <time>2020-06-14T14:18:31.000Z</time>
      </trkpt>
      <trkpt lat="43.658" lon="3.7704">
        <ele>109</ele>
        <time>2020-06-14T14:18:32.000Z</time>
      </trkpt>
      <trkpt lat="43.658" lon="3.77037">
        <ele>109</ele>
        <time>2020-06-14T14:18:33.000Z</time>
      </trkpt>
      <trkpt lat="43.65799" lon="3.77034">
        <ele>109</ele>
        <time>2020-06-14T14:18:34.000Z</time>
      </trkpt>
      <trkpt lat="43.65799" lon="3.77031">
        <ele>109</ele>
        <time>2020-06-14T14:18:36.000Z</time>
      </trkpt>
      <trkpt lat="43.65799" lon="3.77031">
        <ele>109.7435945124</ele>
        <time>2020-06-14T14:18:39.000Z</time>
      </trkpt>
      <trkpt lat="43.658" lon="3.77027">
        <ele>113.99310474389</ele>
        <time>2020-06-14T14:22:02.000Z</time>
      </trkpt>
      <trkpt lat="43.658" lon="3.77023">
        <ele>113.83213914666</ele>
        <time>2020-06-14T14:22:04.000Z</time>
      </trkpt>
      <trkpt lat="43.658" lon="3.7702">
        <ele>113.72978496779</ele>
        <time>2020-06-14T14:22:05.000Z</time>
      </trkpt>
      <trkpt lat="43.658" lon="3.77017">
        <ele>113.62743078892</ele>
        <time>2020-06-14T14:22:06.000Z</time>
      </trkpt>
      <trkpt lat="43.658" lon="3.77015">
        <ele>113.52507661006</ele>
        <time>2020-06-14T14:22:07.000Z</time>
      </trkpt>
      <trkpt lat="43.658" lon="3.77012">
        <ele>113.42272243119</ele>
        <time>2020-06-14T14:22:08.000Z</time>
      </trkpt>
      <trkpt lat="43.658" lon="3.77009">
        <ele>113.32036825232</ele>
        <time>2020-06-14T14:22:09.000Z</time>
      </trkpt>
      <trkpt lat="43.658" lon="3.77006">
        <ele>113.21801407345</ele>
        <time>2020-06-14T14:22:10.000Z</time>
      </trkpt>
      <trkpt lat="43.658" lon="3.77003">
        <ele>113.11565989459</ele>
        <time>2020-06-14T14:22:11.000Z</time>
      </trkpt>
      <trkpt lat="43.658" lon="3.76998">
        <ele>113.01330571572</ele>
        <time>2020-06-14T14:22:12.000Z</time>
      </trkpt>
      <trkpt lat="43.65799" lon="3.76994">
        <ele>112.73899904</ele>
        <time>2020-06-14T14:22:13.000Z</time>
      </trkpt>
      <trkpt lat="43.65798" lon="3.76989">
        <ele>112.43899904</ele>
        <time>2020-06-14T14:22:14.000Z</time>
      </trkpt>
      <trkpt lat="43.65796" lon="3.76984">
        <ele>112.13899904</ele>
        <time>2020-06-14T14:22:15.000Z</time>
      </trkpt>
      <trkpt lat="43.65794" lon="3.76979">
        <ele>111.83899904</ele>
        <time>2020-06-14T14:22:16.000Z</time>
      </trkpt>
      <trkpt lat="43.65791" lon="3.76974">
        <ele>111.53899904</ele>
        <time>2020-06-14T14:22:17.000Z</time>
      </trkpt>
      <trkpt lat="43.65788" lon="3.76969">
        <ele>111.23899904</ele>
        <time>2020-06-14T14:22:18.000Z</time>
      </trkpt>
      <trkpt lat="43.65784" lon="3.76965">
        <ele>110.93899904</ele>
        <time>2020-06-14T14:22:19.000Z</time>
      </trkpt>
      <trkpt lat="43.6578" lon="3.76961">
        <ele>110.63899904</ele>
        <time>2020-06-14T14:22:20.000Z</time>
      </trkpt>
      <trkpt lat="43.65775" lon="3.76958">
        <ele>110.33899904</ele>
        <time>2020-06-14T14:22:21.000Z</time>
      </trkpt>
      <trkpt lat="43.6577" lon="3.76954">
        <ele>110.03899904</ele>
        <time>2020-06-14T14:22:22.000Z</time>
      </trkpt>
      <trkpt lat="43.65766" lon="3.76951">
        <ele>109.82599936</ele>
        <time>2020-06-14T14:22:23.000Z</time>
      </trkpt>
      <trkpt lat="43.65761" lon="3.76947">
        <ele>109.62599936</ele>
        <time>2020-06-14T14:22:24.000Z</time>
      </trkpt>
      <trkpt lat="43.65756" lon="3.76942">
        <ele>109.42599936</ele>
        <time>2020-06-14T14:22:25.000Z</time>
      </trkpt>
      <trkpt lat="43.65751" lon="3.76938">
        <ele>109.22599936</ele>
        <time>2020-06-14T14:22:26.000Z</time>
      </trkpt>
      <trkpt lat="43.65746" lon="3.76934">
        <ele>109.02599936</ele>
        <time>2020-06-14T14:22:27.000Z</time>
      </trkpt>
      <trkpt lat="43.65742" lon="3.76931">
        <ele>108.82599936</ele>
        <time>2020-06-14T14:22:28.000Z</time>
      </trkpt>
      <trkpt lat="43.65737" lon="3.76928">
        <ele>108.62599936</ele>
        <time>2020-06-14T14:22:29.000Z</time>
      </trkpt>
      <trkpt lat="43.65732" lon="3.76925">
        <ele>108.42599936</ele>
        <time>2020-06-14T14:22:30.000Z</time>
      </trkpt>
      <trkpt lat="43.65727" lon="3.76923">
        <ele>108.22599936</ele>
        <time>2020-06-14T14:22:31.000Z</time>
      </trkpt>
      <trkpt lat="43.65722" lon="3.76921">
        <ele>108.02599936</ele>
        <time>2020-06-14T14:22:32.000Z</time>
      </trkpt>
      <trkpt lat="43.65717" lon="3.76919">
        <ele>107.82617335352</ele>
        <time>2020-06-14T14:22:33.000Z</time>
      </trkpt>
      <trkpt lat="43.65711" lon="3.76918">
        <ele>107.62637334534</ele>
        <time>2020-06-14T14:22:34.000Z</time>
      </trkpt>
      <trkpt lat="43.65706" lon="3.76916">
        <ele>107.42657333715</ele>
        <time>2020-06-14T14:22:35.000Z</time>
      </trkpt>
      <trkpt lat="43.65701" lon="3.76914">
        <ele>107.22677332897</ele>
        <time>2020-06-14T14:22:36.000Z</time>
      </trkpt>
      <trkpt lat="43.65695" lon="3.76913">
        <ele>107.02697332079</ele>
        <time>2020-06-14T14:22:37.000Z</time>
      </trkpt>
      <trkpt lat="43.65689" lon="3.76913">
        <ele>106.8271733126</ele>
        <time>2020-06-14T14:22:38.000Z</time>
      </trkpt>
      <trkpt lat="43.65683" lon="3.76915">
        <ele>106.62737330442</ele>
        <time>2020-06-14T14:22:39.000Z</time>
      </trkpt>
      <trkpt lat="43.65677" lon="3.76915">
        <ele>106.42757329623</ele>
        <time>2020-06-14T14:22:40.000Z</time>
      </trkpt>
      <trkpt lat="43.65671" lon="3.76915">
        <ele>106.22777328805</ele>
        <time>2020-06-14T14:22:41.000Z</time>
      </trkpt>
      <trkpt lat="43.65665" lon="3.76915">
        <ele>106.02797327987</ele>
        <time>2020-06-14T14:22:42.000Z</time>
      </trkpt>
      <trkpt lat="43.65658" lon="3.76915">
        <ele>105.65600256</ele>
        <time>2020-06-14T14:22:43.000Z</time>
      </trkpt>
      <trkpt lat="43.65652" lon="3.76916">
        <ele>105.25600256</ele>
        <time>2020-06-14T14:22:44.000Z</time>
      </trkpt>
      <trkpt lat="43.65646" lon="3.76918">
        <ele>104.85600256</ele>
        <time>2020-06-14T14:22:45.000Z</time>
      </trkpt>
      <trkpt lat="43.6564" lon="3.7692">
        <ele>104.45600256</ele>
        <time>2020-06-14T14:22:46.000Z</time>
      </trkpt>
      <trkpt lat="43.65634" lon="3.76921">
        <ele>104.05600256</ele>
        <time>2020-06-14T14:22:47.000Z</time>
      </trkpt>
      <trkpt lat="43.65628" lon="3.76921">
        <ele>103.65600256</ele>
        <time>2020-06-14T14:22:48.000Z</time>
      </trkpt>
      <trkpt lat="43.65622" lon="3.7692">
        <ele>103.25600256</ele>
        <time>2020-06-14T14:22:49.000Z</time>
      </trkpt>
      <trkpt lat="43.65618" lon="3.7692">
        <ele>102.85600256</ele>
        <time>2020-06-14T14:22:50.000Z</time>
      </trkpt>
      <trkpt lat="43.65614" lon="3.7692">
        <ele>102.45600256</ele>
        <time>2020-06-14T14:22:51.000Z</time>
      </trkpt>
      <trkpt lat="43.65611" lon="3.76918">
        <ele>102.05600256</ele>
        <time>2020-06-14T14:22:52.000Z</time>
      </trkpt>
      <trkpt lat="43.65608" lon="3.76913">
        <ele>101.82800128</ele>
        <time>2020-06-14T14:22:53.000Z</time>
      </trkpt>
      <trkpt lat="43.65607" lon="3.76908">
        <ele>101.62800128</ele>
        <time>2020-06-14T14:22:54.000Z</time>
      </trkpt>
      <trkpt lat="43.65606" lon="3.76902">
        <ele>101.42800128</ele>
        <time>2020-06-14T14:22:55.000Z</time>
      </trkpt>
      <trkpt lat="43.65606" lon="3.76896">
        <ele>101.22800128</ele>
        <time>2020-06-14T14:22:56.000Z</time>
      </trkpt>
      <trkpt lat="43.65605" lon="3.7689">
        <ele>101.02800128</ele>
        <time>2020-06-14T14:22:57.000Z</time>
      </trkpt>
      <trkpt lat="43.65605" lon="3.76885">
        <ele>100.82800128</ele>
        <time>2020-06-14T14:22:58.000Z</time>
      </trkpt>
      <trkpt lat="43.65604" lon="3.7688">
        <ele>100.62800128</ele>
        <time>2020-06-14T14:22:59.000Z</time>
      </trkpt>
      <trkpt lat="43.65604" lon="3.76876">
        <ele>100.42800128</ele>
        <time>2020-06-14T14:23:00.000Z</time>
      </trkpt>
      <trkpt lat="43.65604" lon="3.76872">
        <ele>100.22800128</ele>
        <time>2020-06-14T14:23:01.000Z</time>
      </trkpt>
      <trkpt lat="43.65604" lon="3.76869">
        <ele>100.02800128</ele>
        <time>2020-06-14T14:23:02.000Z</time>
      </trkpt>
      <trkpt lat="43.65602" lon="3.76867">
        <ele>99.45508</ele>
        <time>2020-06-14T14:23:04.000Z</time>
      </trkpt>
      <trkpt lat="43.656" lon="3.76867">
        <ele>99.16211125</ele>
        <time>2020-06-14T14:23:05.000Z</time>
      </trkpt>
      <trkpt lat="43.65598" lon="3.76868">
        <ele>98.8691425</ele>
        <time>2020-06-14T14:23:06.000Z</time>
      </trkpt>
      <trkpt lat="43.65595" lon="3.76868">
        <ele>98.57617375</ele>
        <time>2020-06-14T14:23:07.000Z</time>
      </trkpt>
      <trkpt lat="43.65594" lon="3.7687">
        <ele>98.283205</ele>
        <time>2020-06-14T14:23:08.000Z</time>
      </trkpt>
      <trkpt lat="43.65591" lon="3.76872">
        <ele>97.99023625</ele>
        <time>2020-06-14T14:23:09.000Z</time>
      </trkpt>
      <trkpt lat="43.6559" lon="3.76873">
        <ele>97.6972675</ele>
        <time>2020-06-14T14:23:10.000Z</time>
      </trkpt>
      <trkpt lat="43.6559" lon="3.76875">
        <ele>96.961860774144</ele>
        <time>2020-06-14T14:23:17.000Z</time>
      </trkpt>
      <trkpt lat="43.65586" lon="3.76879">
        <ele>96.031628492911</ele>
        <time>2020-06-14T14:23:27.000Z</time>
      </trkpt>
      <trkpt lat="43.65586" lon="3.76879">
        <ele>96</ele>
        <time>2020-06-14T14:23:31.000Z</time>
      </trkpt>
      <trkpt lat="43.65583" lon="3.76881">
        <ele>95.167832293022</ele>
        <time>2020-06-14T14:23:35.000Z</time>
      </trkpt>
      <trkpt lat="43.65582" lon="3.76883">
        <ele>95</ele>
        <time>2020-06-14T14:23:36.000Z</time>
      </trkpt>
      <trkpt lat="43.65582" lon="3.76883">
        <ele>95</ele>
        <time>2020-06-14T14:23:41.000Z</time>
      </trkpt>
      <trkpt lat="43.65581" lon="3.76893">
        <ele>95</ele>
        <time>2020-06-14T14:23:49.000Z</time>
      </trkpt>
      <trkpt lat="43.65581" lon="3.76896">
        <ele>95</ele>
        <time>2020-06-14T14:23:50.000Z</time>
      </trkpt>
      <trkpt lat="43.65582" lon="3.769">
        <ele>95</ele>
        <time>2020-06-14T14:23:52.000Z</time>
      </trkpt>
      <trkpt lat="43.65582" lon="3.76903">
        <ele>95</ele>
        <time>2020-06-14T14:23:53.000Z</time>
      </trkpt>
      <trkpt lat="43.65582" lon="3.76905">
        <ele>95</ele>
        <time>2020-06-14T14:23:54.000Z</time>
      </trkpt>
      <trkpt lat="43.65583" lon="3.76908">
        <ele>95</ele>
        <time>2020-06-14T14:23:55.000Z</time>
      </trkpt>
      <trkpt lat="43.65583" lon="3.76911">
        <ele>95</ele>
        <time>2020-06-14T14:23:56.000Z</time>
      </trkpt>
      <trkpt lat="43.65583" lon="3.76914">
        <ele>95</ele>
        <time>2020-06-14T14:23:57.000Z</time>
      </trkpt>
      <trkpt lat="43.65583" lon="3.76917">
        <ele>95</ele>
        <time>2020-06-14T14:23:58.000Z</time>
      </trkpt>
      <trkpt lat="43.65583" lon="3.7692">
        <ele>95</ele>
        <time>2020-06-14T14:23:59.000Z</time>
      </trkpt>
      <trkpt lat="43.65584" lon="3.76923">
        <ele>95</ele>
        <time>2020-06-14T14:24:00.000Z</time>
      </trkpt>
      <trkpt lat="43.65584" lon="3.76925">
        <ele>95</ele>
        <time>2020-06-14T14:24:01.000Z</time>
      </trkpt>
      <trkpt lat="43.65583" lon="3.76929">
        <ele>95</ele>
        <time>2020-06-14T14:24:03.000Z</time>
      </trkpt>
      <trkpt lat="43.6558" lon="3.76928">
        <ele>95</ele>
        <time>2020-06-14T14:24:05.000Z</time>
      </trkpt>
      <trkpt lat="43.65579" lon="3.76924">
        <ele>95</ele>
        <time>2020-06-14T14:24:07.000Z</time>
      </trkpt>
      <trkpt lat="43.65579" lon="3.76921">
        <ele>95</ele>
        <time>2020-06-14T14:24:08.000Z</time>
      </trkpt>
      <trkpt lat="43.6558" lon="3.76918">
        <ele>95</ele>
        <time>2020-06-14T14:24:09.000Z</time>
      </trkpt>
      <trkpt lat="43.65581" lon="3.76915">
        <ele>94.94026836525</ele>
        <time>2020-06-14T14:24:10.000Z</time>
      </trkpt>
      <trkpt lat="43.65582" lon="3.76911">
        <ele>94.837281651689</ele>
        <time>2020-06-14T14:24:11.000Z</time>
      </trkpt>
      <trkpt lat="43.65582" lon="3.76907">
        <ele>94.734294938129</ele>
        <time>2020-06-14T14:24:12.000Z</time>
      </trkpt>
      <trkpt lat="43.65582" lon="3.76903">
        <ele>94.631308224568</ele>
        <time>2020-06-14T14:24:13.000Z</time>
      </trkpt>
      <trkpt lat="43.65581" lon="3.769">
        <ele>94.528321511008</ele>
        <time>2020-06-14T14:24:14.000Z</time>
      </trkpt>
      <trkpt lat="43.65581" lon="3.76896">
        <ele>94.425334797447</ele>
        <time>2020-06-14T14:24:15.000Z</time>
      </trkpt>
      <trkpt lat="43.6558" lon="3.76891">
        <ele>94.322348083887</ele>
        <time>2020-06-14T14:24:16.000Z</time>
      </trkpt>
      <trkpt lat="43.6558" lon="3.76888">
        <ele>94.219361370326</ele>
        <time>2020-06-14T14:24:17.000Z</time>
      </trkpt>
      <trkpt lat="43.65581" lon="3.76884">
        <ele>94.116374656766</ele>
        <time>2020-06-14T14:24:18.000Z</time>
      </trkpt>
      <trkpt lat="43.65581" lon="3.76881">
        <ele>94.013387943205</ele>
        <time>2020-06-14T14:24:19.000Z</time>
      </trkpt>
      <trkpt lat="43.65581" lon="3.76877">
        <ele>94</ele>
        <time>2020-06-14T14:24:20.000Z</time>
      </trkpt>
      <trkpt lat="43.65581" lon="3.76873">
        <ele>94</ele>
        <time>2020-06-14T14:24:21.000Z</time>
      </trkpt>
      <trkpt lat="43.6558" lon="3.76869">
        <ele>94</ele>
        <time>2020-06-14T14:24:22.000Z</time>
      </trkpt>
      <trkpt lat="43.6558" lon="3.76864">
        <ele>94</ele>
        <time>2020-06-14T14:24:23.000Z</time>
      </trkpt>
      <trkpt lat="43.6558" lon="3.7686">
        <ele>94</ele>
        <time>2020-06-14T14:24:24.000Z</time>
      </trkpt>
      <trkpt lat="43.6558" lon="3.76856">
        <ele>94</ele>
        <time>2020-06-14T14:24:25.000Z</time>
      </trkpt>
      <trkpt lat="43.6558" lon="3.76852">
        <ele>94</ele>
        <time>2020-06-14T14:24:26.000Z</time>
      </trkpt>
      <trkpt lat="43.6558" lon="3.76848">
        <ele>94</ele>
        <time>2020-06-14T14:24:27.000Z</time>
      </trkpt>
      <trkpt lat="43.6558" lon="3.76844">
        <ele>94</ele>
        <time>2020-06-14T14:24:28.000Z</time>
      </trkpt>
      <trkpt lat="43.65578" lon="3.7684">
        <ele>94</ele>
        <time>2020-06-14T14:24:29.000Z</time>
      </trkpt>
      <trkpt lat="43.65577" lon="3.76836">
        <ele>94</ele>
        <time>2020-06-14T14:24:30.000Z</time>
      </trkpt>
      <trkpt lat="43.65575" lon="3.76833">
        <ele>94</ele>
        <time>2020-06-14T14:24:31.000Z</time>
      </trkpt>
      <trkpt lat="43.65574" lon="3.76829">
        <ele>94</ele>
        <time>2020-06-14T14:24:32.000Z</time>
      </trkpt>
      <trkpt lat="43.65572" lon="3.76825">
        <ele>94</ele>
        <time>2020-06-14T14:24:33.000Z</time>
      </trkpt>
      <trkpt lat="43.65571" lon="3.76821">
        <ele>94</ele>
        <time>2020-06-14T14:24:34.000Z</time>
      </trkpt>
      <trkpt lat="43.6557" lon="3.76817">
        <ele>94</ele>
        <time>2020-06-14T14:24:35.000Z</time>
      </trkpt>
      <trkpt lat="43.65568" lon="3.76813">
        <ele>94</ele>
        <time>2020-06-14T14:24:36.000Z</time>
      </trkpt>
      <trkpt lat="43.65567" lon="3.76809">
        <ele>94</ele>
        <time>2020-06-14T14:24:37.000Z</time>
      </trkpt>
      <trkpt lat="43.65566" lon="3.76806">
        <ele>94</ele>
        <time>2020-06-14T14:24:38.000Z</time>
      </trkpt>
      <trkpt lat="43.65565" lon="3.76804">
        <ele>94</ele>
        <time>2020-06-14T14:24:39.000Z</time>
      </trkpt>
      <trkpt lat="43.65565" lon="3.76803">
        <ele>94.941971790536</ele>
        <time>2020-06-14T14:24:44.000Z</time>
      </trkpt>
      <trkpt lat="43.65566" lon="3.768">
        <ele>95</ele>
        <time>2020-06-14T14:24:51.000Z</time>
      </trkpt>
      <trkpt lat="43.65567" lon="3.76798">
        <ele>95</ele>
        <time>2020-06-14T14:24:52.000Z</time>
      </trkpt>
      <trkpt lat="43.65569" lon="3.76797">
        <ele>95</ele>
        <time>2020-06-14T14:24:53.000Z</time>
      </trkpt>
      <trkpt lat="43.65571" lon="3.76796">
        <ele>95</ele>
        <time>2020-06-14T14:24:54.000Z</time>
      </trkpt>
      <trkpt lat="43.65572" lon="3.76794">
        <ele>95</ele>
        <time>2020-06-14T14:24:55.000Z</time>
      </trkpt>
      <trkpt lat="43.65574" lon="3.76791">
        <ele>95</ele>
        <time>2020-06-14T14:24:56.000Z</time>
      </trkpt>
      <trkpt lat="43.65576" lon="3.76788">
        <ele>95</ele>
        <time>2020-06-14T14:24:57.000Z</time>
      </trkpt>
      <trkpt lat="43.65578" lon="3.76785">
        <ele>95</ele>
        <time>2020-06-14T14:24:58.000Z</time>
      </trkpt>
      <trkpt lat="43.6558" lon="3.76781">
        <ele>95</ele>
        <time>2020-06-14T14:24:59.000Z</time>
      </trkpt>
      <trkpt lat="43.65582" lon="3.76777">
        <ele>95</ele>
        <time>2020-06-14T14:25:00.000Z</time>
      </trkpt>
      <trkpt lat="43.65584" lon="3.76774">
        <ele>95</ele>
        <time>2020-06-14T14:25:01.000Z</time>
      </trkpt>
      <trkpt lat="43.65585" lon="3.7677">
        <ele>94.915451662941</ele>
        <time>2020-06-14T14:25:02.000Z</time>
      </trkpt>
      <trkpt lat="43.65587" lon="3.76766">
        <ele>94.818270023771</ele>
        <time>2020-06-14T14:25:03.000Z</time>
      </trkpt>
      <trkpt lat="43.65588" lon="3.76763">
        <ele>94.721088384602</ele>
        <time>2020-06-14T14:25:04.000Z</time>
      </trkpt>
      <trkpt lat="43.6559" lon="3.76759">
        <ele>94.623906745432</ele>
        <time>2020-06-14T14:25:05.000Z</time>
      </trkpt>
      <trkpt lat="43.65591" lon="3.76756">
        <ele>94.526725106262</ele>
        <time>2020-06-14T14:25:06.000Z</time>
      </trkpt>
      <trkpt lat="43.65592" lon="3.76753">
        <ele>94.429543467093</ele>
        <time>2020-06-14T14:25:07.000Z</time>
      </trkpt>
      <trkpt lat="43.65593" lon="3.76749">
        <ele>94.332361827923</ele>
        <time>2020-06-14T14:25:08.000Z</time>
      </trkpt>
      <trkpt lat="43.65594" lon="3.76746">
        <ele>94.235180188753</ele>
        <time>2020-06-14T14:25:09.000Z</time>
      </trkpt>
      <trkpt lat="43.65595" lon="3.76743">
        <ele>94.137998549584</ele>
        <time>2020-06-14T14:25:10.000Z</time>
      </trkpt>
      <trkpt lat="43.65596" lon="3.76739">
        <ele>94.040816910414</ele>
        <time>2020-06-14T14:25:11.000Z</time>
      </trkpt>
      <trkpt lat="43.65597" lon="3.76736">
        <ele>94</ele>
        <time>2020-06-14T14:25:12.000Z</time>
      </trkpt>
      <trkpt lat="43.65597" lon="3.76733">
        <ele>94</ele>
        <time>2020-06-14T14:25:13.000Z</time>
      </trkpt>
      <trkpt lat="43.65598" lon="3.76729">
        <ele>94</ele>
        <time>2020-06-14T14:25:14.000Z</time>
      </trkpt>
      <trkpt lat="43.65599" lon="3.76726">
        <ele>94</ele>
        <time>2020-06-14T14:25:15.000Z</time>
      </trkpt>
      <trkpt lat="43.656" lon="3.76723">
        <ele>94</ele>
        <time>2020-06-14T14:25:16.000Z</time>
      </trkpt>
      <trkpt lat="43.65602" lon="3.76719">
        <ele>94</ele>
        <time>2020-06-14T14:25:17.000Z</time>
      </trkpt>
      <trkpt lat="43.65603" lon="3.76716">
        <ele>94</ele>
        <time>2020-06-14T14:25:18.000Z</time>
      </trkpt>
      <trkpt lat="43.65604" lon="3.76713">
        <ele>94</ele>
        <time>2020-06-14T14:25:19.000Z</time>
      </trkpt>
      <trkpt lat="43.65606" lon="3.76709">
        <ele>94</ele>
        <time>2020-06-14T14:25:20.000Z</time>
      </trkpt>
      <trkpt lat="43.65608" lon="3.76706">
        <ele>94</ele>
        <time>2020-06-14T14:25:21.000Z</time>
      </trkpt>
      <trkpt lat="43.6561" lon="3.76702">
        <ele>94</ele>
        <time>2020-06-14T14:25:22.000Z</time>
      </trkpt>
      <trkpt lat="43.65611" lon="3.76699">
        <ele>94</ele>
        <time>2020-06-14T14:25:23.000Z</time>
      </trkpt>
      <trkpt lat="43.65611" lon="3.76695">
        <ele>94</ele>
        <time>2020-06-14T14:25:24.000Z</time>
      </trkpt>
      <trkpt lat="43.6561" lon="3.76691">
        <ele>94</ele>
        <time>2020-06-14T14:25:25.000Z</time>
      </trkpt>
      <trkpt lat="43.6561" lon="3.76687">
        <ele>94</ele>
        <time>2020-06-14T14:25:26.000Z</time>
      </trkpt>
      <trkpt lat="43.6561" lon="3.76683">
        <ele>94</ele>
        <time>2020-06-14T14:25:27.000Z</time>
      </trkpt>
      <trkpt lat="43.6561" lon="3.76679">
        <ele>94</ele>
        <time>2020-06-14T14:25:28.000Z</time>
      </trkpt>
      <trkpt lat="43.6561" lon="3.76675">
        <ele>94</ele>
        <time>2020-06-14T14:25:29.000Z</time>
      </trkpt>
      <trkpt lat="43.65611" lon="3.76671">
        <ele>94</ele>
        <time>2020-06-14T14:25:30.000Z</time>
      </trkpt>
      <trkpt lat="43.65611" lon="3.76667">
        <ele>94</ele>
        <time>2020-06-14T14:25:31.000Z</time>
      </trkpt>
      <trkpt lat="43.65611" lon="3.76663">
        <ele>94</ele>
        <time>2020-06-14T14:25:32.000Z</time>
      </trkpt>
      <trkpt lat="43.65611" lon="3.76659">
        <ele>94</ele>
        <time>2020-06-14T14:25:33.000Z</time>
      </trkpt>
      <trkpt lat="43.65612" lon="3.76655">
        <ele>94</ele>
        <time>2020-06-14T14:25:34.000Z</time>
      </trkpt>
      <trkpt lat="43.65612" lon="3.76652">
        <ele>94</ele>
        <time>2020-06-14T14:25:35.000Z</time>
      </trkpt>
      <trkpt lat="43.65612" lon="3.76648">
        <ele>94</ele>
        <time>2020-06-14T14:25:36.000Z</time>
      </trkpt>
      <trkpt lat="43.65612" lon="3.76644">
        <ele>94</ele>
        <time>2020-06-14T14:25:37.000Z</time>
      </trkpt>
      <trkpt lat="43.65613" lon="3.76641">
        <ele>94</ele>
        <time>2020-06-14T14:25:38.000Z</time>
      </trkpt>
      <trkpt lat="43.65613" lon="3.76637">
        <ele>94</ele>
        <time>2020-06-14T14:25:39.000Z</time>
      </trkpt>
      <trkpt lat="43.65613" lon="3.76633">
        <ele>94</ele>
        <time>2020-06-14T14:25:40.000Z</time>
      </trkpt>
      <trkpt lat="43.65613" lon="3.76629">
        <ele>94</ele>
        <time>2020-06-14T14:25:41.000Z</time>
      </trkpt>
      <trkpt lat="43.65613" lon="3.76625">
        <ele>94</ele>
        <time>2020-06-14T14:25:42.000Z</time>
      </trkpt>
      <trkpt lat="43.65613" lon="3.76621">
        <ele>94</ele>
        <time>2020-06-14T14:25:43.000Z</time>
      </trkpt>
      <trkpt lat="43.65614" lon="3.76618">
        <ele>94</ele>
        <time>2020-06-14T14:25:44.000Z</time>
      </trkpt>
      <trkpt lat="43.65614" lon="3.76614">
        <ele>94</ele>
        <time>2020-06-14T14:25:45.000Z</time>
      </trkpt>
      <trkpt lat="43.65615" lon="3.7661">
        <ele>94</ele>
        <time>2020-06-14T14:25:46.000Z</time>
      </trkpt>
      <trkpt lat="43.65615" lon="3.76606">
        <ele>94</ele>
        <time>2020-06-14T14:25:47.000Z</time>
      </trkpt>
      <trkpt lat="43.65615" lon="3.76602">
        <ele>94</ele>
        <time>2020-06-14T14:25:48.000Z</time>
      </trkpt>
      <trkpt lat="43.65616" lon="3.76597">
        <ele>94</ele>
        <time>2020-06-14T14:25:49.000Z</time>
      </trkpt>
      <trkpt lat="43.65616" lon="3.76593">
        <ele>94</ele>
        <time>2020-06-14T14:25:50.000Z</time>
      </trkpt>
      <trkpt lat="43.65616" lon="3.76589">
        <ele>94</ele>
        <time>2020-06-14T14:25:51.000Z</time>
      </trkpt>
      <trkpt lat="43.65616" lon="3.76585">
        <ele>94</ele>
        <time>2020-06-14T14:25:52.000Z</time>
      </trkpt>
      <trkpt lat="43.65616" lon="3.76581">
        <ele>94</ele>
        <time>2020-06-14T14:25:53.000Z</time>
      </trkpt>
      <trkpt lat="43.65616" lon="3.76578">
        <ele>94</ele>
        <time>2020-06-14T14:25:54.000Z</time>
      </trkpt>
      <trkpt lat="43.65615" lon="3.76575">
        <ele>94</ele>
        <time>2020-06-14T14:25:55.000Z</time>
      </trkpt>
      <trkpt lat="43.65614" lon="3.76572">
        <ele>94</ele>
        <time>2020-06-14T14:25:56.000Z</time>
      </trkpt>
      <trkpt lat="43.65613" lon="3.7657">
        <ele>94</ele>
        <time>2020-06-14T14:25:57.000Z</time>
      </trkpt>
      <trkpt lat="43.65613" lon="3.76567">
        <ele>94</ele>
        <time>2020-06-14T14:25:58.000Z</time>
      </trkpt>
      <trkpt lat="43.65612" lon="3.76564">
        <ele>94</ele>
        <time>2020-06-14T14:25:59.000Z</time>
      </trkpt>
      <trkpt lat="43.65612" lon="3.76561">
        <ele>94</ele>
        <time>2020-06-14T14:26:00.000Z</time>
      </trkpt>
      <trkpt lat="43.65611" lon="3.76558">
        <ele>94</ele>
        <time>2020-06-14T14:26:01.000Z</time>
      </trkpt>
      <trkpt lat="43.6561" lon="3.76555">
        <ele>94</ele>
        <time>2020-06-14T14:26:02.000Z</time>
      </trkpt>
      <trkpt lat="43.65609" lon="3.76553">
        <ele>94</ele>
        <time>2020-06-14T14:26:03.000Z</time>
      </trkpt>
      <trkpt lat="43.65609" lon="3.7655">
        <ele>94</ele>
        <time>2020-06-14T14:26:04.000Z</time>
      </trkpt>
      <trkpt lat="43.65608" lon="3.76547">
        <ele>94</ele>
        <time>2020-06-14T14:26:05.000Z</time>
      </trkpt>
      <trkpt lat="43.65607" lon="3.76544">
        <ele>94</ele>
        <time>2020-06-14T14:26:06.000Z</time>
      </trkpt>
      <trkpt lat="43.65607" lon="3.76541">
        <ele>94</ele>
        <time>2020-06-14T14:26:07.000Z</time>
      </trkpt>
      <trkpt lat="43.65606" lon="3.76537">
        <ele>94</ele>
        <time>2020-06-14T14:26:08.000Z</time>
      </trkpt>
      <trkpt lat="43.65605" lon="3.76534">
        <ele>94</ele>
        <time>2020-06-14T14:26:09.000Z</time>
      </trkpt>
      <trkpt lat="43.65604" lon="3.76531">
        <ele>94</ele>
        <time>2020-06-14T14:26:10.000Z</time>
      </trkpt>
      <trkpt lat="43.65603" lon="3.76528">
        <ele>94</ele>
        <time>2020-06-14T14:26:11.000Z</time>
      </trkpt>
      <trkpt lat="43.65603" lon="3.76525">
        <ele>94.08700032</ele>
        <time>2020-06-14T14:26:12.000Z</time>
      </trkpt>
      <trkpt lat="43.65602" lon="3.76522">
        <ele>94.18700032</ele>
        <time>2020-06-14T14:26:13.000Z</time>
      </trkpt>
      <trkpt lat="43.65601" lon="3.76518">
        <ele>94.28700032</ele>
        <time>2020-06-14T14:26:14.000Z</time>
      </trkpt>
      <trkpt lat="43.656" lon="3.76515">
        <ele>94.38700032</ele>
        <time>2020-06-14T14:26:15.000Z</time>
      </trkpt>
      <trkpt lat="43.65599" lon="3.76511">
        <ele>94.48700032</ele>
        <time>2020-06-14T14:26:16.000Z</time>
      </trkpt>
      <trkpt lat="43.65598" lon="3.76508">
        <ele>94.58700032</ele>
        <time>2020-06-14T14:26:17.000Z</time>
      </trkpt>
      <trkpt lat="43.65597" lon="3.76504">
        <ele>94.68700032</ele>
        <time>2020-06-14T14:26:18.000Z</time>
      </trkpt>
      <trkpt lat="43.65596" lon="3.76501">
        <ele>94.78700032</ele>
        <time>2020-06-14T14:26:19.000Z</time>
      </trkpt>
      <trkpt lat="43.65596" lon="3.76497">
        <ele>94.88700032</ele>
        <time>2020-06-14T14:26:20.000Z</time>
      </trkpt>
      <trkpt lat="43.65595" lon="3.76493">
        <ele>94.98700032</ele>
        <time>2020-06-14T14:26:21.000Z</time>
      </trkpt>
      <trkpt lat="43.65594" lon="3.76489">
        <ele>95</ele>
        <time>2020-06-14T14:26:22.000Z</time>
      </trkpt>
      <trkpt lat="43.65593" lon="3.76486">
        <ele>95</ele>
        <time>2020-06-14T14:26:23.000Z</time>
      </trkpt>
      <trkpt lat="43.65592" lon="3.76482">
        <ele>95</ele>
        <time>2020-06-14T14:26:24.000Z</time>
      </trkpt>
      <trkpt lat="43.65592" lon="3.76478">
        <ele>95</ele>
        <time>2020-06-14T14:26:25.000Z</time>
      </trkpt>
      <trkpt lat="43.65591" lon="3.76474">
        <ele>95</ele>
        <time>2020-06-14T14:26:26.000Z</time>
      </trkpt>
      <trkpt lat="43.6559" lon="3.76471">
        <ele>95</ele>
        <time>2020-06-14T14:26:27.000Z</time>
      </trkpt>
      <trkpt lat="43.65589" lon="3.76467">
        <ele>95</ele>
        <time>2020-06-14T14:26:28.000Z</time>
      </trkpt>
      <trkpt lat="43.65588" lon="3.76463">
        <ele>95</ele>
        <time>2020-06-14T14:26:29.000Z</time>
      </trkpt>
      <trkpt lat="43.65587" lon="3.76459">
        <ele>95</ele>
        <time>2020-06-14T14:26:30.000Z</time>
      </trkpt>
      <trkpt lat="43.65586" lon="3.76455">
        <ele>95</ele>
        <time>2020-06-14T14:26:31.000Z</time>
      </trkpt>
      <trkpt lat="43.65585" lon="3.76451">
        <ele>95</ele>
        <time>2020-06-14T14:26:32.000Z</time>
      </trkpt>
      <trkpt lat="43.65584" lon="3.76446">
        <ele>95</ele>
        <time>2020-06-14T14:26:33.000Z</time>
      </trkpt>
      <trkpt lat="43.65582" lon="3.76442">
        <ele>95</ele>
        <time>2020-06-14T14:26:34.000Z</time>
      </trkpt>
      <trkpt lat="43.65581" lon="3.76438">
        <ele>95</ele>
        <time>2020-06-14T14:26:35.000Z</time>
      </trkpt>
      <trkpt lat="43.6558" lon="3.76434">
        <ele>95</ele>
        <time>2020-06-14T14:26:36.000Z</time>
      </trkpt>
      <trkpt lat="43.65578" lon="3.76429">
        <ele>95</ele>
        <time>2020-06-14T14:26:37.000Z</time>
      </trkpt>
      <trkpt lat="43.65577" lon="3.76425">
        <ele>95</ele>
        <time>2020-06-14T14:26:38.000Z</time>
      </trkpt>
      <trkpt lat="43.65576" lon="3.7642">
        <ele>95</ele>
        <time>2020-06-14T14:26:39.000Z</time>
      </trkpt>
      <trkpt lat="43.65574" lon="3.76416">
        <ele>95</ele>
        <time>2020-06-14T14:26:40.000Z</time>
      </trkpt>
      <trkpt lat="43.65573" lon="3.76412">
        <ele>95</ele>
        <time>2020-06-14T14:26:41.000Z</time>
      </trkpt>
      <trkpt lat="43.65572" lon="3.76408">
        <ele>95.086913434378</ele>
        <time>2020-06-14T14:26:42.000Z</time>
      </trkpt>
      <trkpt lat="43.6557" lon="3.76405">
        <ele>95.186813566214</ele>
        <time>2020-06-14T14:26:43.000Z</time>
      </trkpt>
      <trkpt lat="43.65569" lon="3.76401">
        <ele>95.28671369805</ele>
        <time>2020-06-14T14:26:44.000Z</time>
      </trkpt>
      <trkpt lat="43.65568" lon="3.76398">
        <ele>95.386613829886</ele>
        <time>2020-06-14T14:26:45.000Z</time>
      </trkpt>
      <trkpt lat="43.65567" lon="3.76394">
        <ele>95.486513961723</ele>
        <time>2020-06-14T14:26:46.000Z</time>
      </trkpt>
      <trkpt lat="43.65566" lon="3.76391">
        <ele>95.586414093559</ele>
        <time>2020-06-14T14:26:47.000Z</time>
      </trkpt>
      <trkpt lat="43.65565" lon="3.76387">
        <ele>95.686314225395</ele>
        <time>2020-06-14T14:26:48.000Z</time>
      </trkpt>
      <trkpt lat="43.65565" lon="3.76383">
        <ele>95.786214357231</ele>
        <time>2020-06-14T14:26:49.000Z</time>
      </trkpt>
      <trkpt lat="43.65564" lon="3.76379">
        <ele>95.886114489068</ele>
        <time>2020-06-14T14:26:50.000Z</time>
      </trkpt>
      <trkpt lat="43.65563" lon="3.76375">
        <ele>95.986014620904</ele>
        <time>2020-06-14T14:26:51.000Z</time>
      </trkpt>
      <trkpt lat="43.65563" lon="3.76371">
        <ele>96</ele>
        <time>2020-06-14T14:26:52.000Z</time>
      </trkpt>
      <trkpt lat="43.65562" lon="3.76367">
        <ele>96</ele>
        <time>2020-06-14T14:26:53.000Z</time>
      </trkpt>
      <trkpt lat="43.65561" lon="3.76363">
        <ele>96</ele>
        <time>2020-06-14T14:26:54.000Z</time>
      </trkpt>
      <trkpt lat="43.65561" lon="3.76359">
        <ele>96</ele>
        <time>2020-06-14T14:26:55.000Z</time>
      </trkpt>
      <trkpt lat="43.6556" lon="3.76354">
        <ele>96</ele>
        <time>2020-06-14T14:26:56.000Z</time>
      </trkpt>
      <trkpt lat="43.65559" lon="3.7635">
        <ele>96</ele>
        <time>2020-06-14T14:26:57.000Z</time>
      </trkpt>
      <trkpt lat="43.65559" lon="3.76345">
        <ele>96</ele>
        <time>2020-06-14T14:26:58.000Z</time>
      </trkpt>
      <trkpt lat="43.65558" lon="3.76341">
        <ele>96</ele>
        <time>2020-06-14T14:26:59.000Z</time>
      </trkpt>
      <trkpt lat="43.65557" lon="3.76336">
        <ele>96</ele>
        <time>2020-06-14T14:27:00.000Z</time>
      </trkpt>
      <trkpt lat="43.65556" lon="3.76332">
        <ele>96</ele>
        <time>2020-06-14T14:27:01.000Z</time>
      </trkpt>
      <trkpt lat="43.65555" lon="3.76327">
        <ele>96</ele>
        <time>2020-06-14T14:27:02.000Z</time>
      </trkpt>
      <trkpt lat="43.65554" lon="3.76323">
        <ele>96</ele>
        <time>2020-06-14T14:27:03.000Z</time>
      </trkpt>
      <trkpt lat="43.65553" lon="3.76318">
        <ele>96</ele>
        <time>2020-06-14T14:27:04.000Z</time>
      </trkpt>
      <trkpt lat="43.65552" lon="3.76314">
        <ele>96</ele>
        <time>2020-06-14T14:27:05.000Z</time>
      </trkpt>
      <trkpt lat="43.65551" lon="3.76311">
        <ele>96</ele>
        <time>2020-06-14T14:27:06.000Z</time>
      </trkpt>
      <trkpt lat="43.6555" lon="3.76307">
        <ele>96</ele>
        <time>2020-06-14T14:27:07.000Z</time>
      </trkpt>
      <trkpt lat="43.65549" lon="3.76303">
        <ele>96</ele>
        <time>2020-06-14T14:27:08.000Z</time>
      </trkpt>
      <trkpt lat="43.65548" lon="3.76299">
        <ele>96</ele>
        <time>2020-06-14T14:27:09.000Z</time>
      </trkpt>
      <trkpt lat="43.65547" lon="3.76295">
        <ele>96</ele>
        <time>2020-06-14T14:27:10.000Z</time>
      </trkpt>
      <trkpt lat="43.65545" lon="3.76291">
        <ele>96</ele>
        <time>2020-06-14T14:27:11.000Z</time>
      </trkpt>
      <trkpt lat="43.65543" lon="3.76286">
        <ele>96.086086699151</ele>
        <time>2020-06-14T14:27:12.000Z</time>
      </trkpt>
      <trkpt lat="43.65542" lon="3.76281">
        <ele>96.186186767187</ele>
        <time>2020-06-14T14:27:13.000Z</time>
      </trkpt>
      <trkpt lat="43.6554" lon="3.76276">
        <ele>96.286286835223</ele>
        <time>2020-06-14T14:27:14.000Z</time>
      </trkpt>
      <trkpt lat="43.65538" lon="3.76271">
        <ele>96.386386903259</ele>
        <time>2020-06-14T14:27:15.000Z</time>
      </trkpt>
      <trkpt lat="43.65536" lon="3.76267">
        <ele>96.486486971296</ele>
        <time>2020-06-14T14:27:16.000Z</time>
      </trkpt>
      <trkpt lat="43.65534" lon="3.76262">
        <ele>96.586587039332</ele>
        <time>2020-06-14T14:27:17.000Z</time>
      </trkpt>
      <trkpt lat="43.65533" lon="3.76257">
        <ele>96.686687107368</ele>
        <time>2020-06-14T14:27:18.000Z</time>
      </trkpt>
      <trkpt lat="43.65531" lon="3.76253">
        <ele>96.786787175404</ele>
        <time>2020-06-14T14:27:19.000Z</time>
      </trkpt>
      <trkpt lat="43.6553" lon="3.76249">
        <ele>96.88688724344</ele>
        <time>2020-06-14T14:27:20.000Z</time>
      </trkpt>
      <trkpt lat="43.65528" lon="3.76244">
        <ele>96.986987311476</ele>
        <time>2020-06-14T14:27:21.000Z</time>
      </trkpt>
      <trkpt lat="43.65526" lon="3.7624">
        <ele>97</ele>
        <time>2020-06-14T14:27:22.000Z</time>
      </trkpt>
      <trkpt lat="43.65524" lon="3.76236">
        <ele>97</ele>
        <time>2020-06-14T14:27:23.000Z</time>
      </trkpt>
      <trkpt lat="43.65523" lon="3.76232">
        <ele>97</ele>
        <time>2020-06-14T14:27:24.000Z</time>
      </trkpt>
      <trkpt lat="43.65521" lon="3.76227">
        <ele>97</ele>
        <time>2020-06-14T14:27:25.000Z</time>
      </trkpt>
      <trkpt lat="43.65519" lon="3.76223">
        <ele>97</ele>
        <time>2020-06-14T14:27:26.000Z</time>
      </trkpt>
      <trkpt lat="43.65517" lon="3.76219">
        <ele>97</ele>
        <time>2020-06-14T14:27:27.000Z</time>
      </trkpt>
      <trkpt lat="43.65515" lon="3.76215">
        <ele>97</ele>
        <time>2020-06-14T14:27:28.000Z</time>
      </trkpt>
      <trkpt lat="43.65512" lon="3.76211">
        <ele>97</ele>
        <time>2020-06-14T14:27:29.000Z</time>
      </trkpt>
      <trkpt lat="43.65509" lon="3.76208">
        <ele>97</ele>
        <time>2020-06-14T14:27:30.000Z</time>
      </trkpt>
      <trkpt lat="43.65506" lon="3.76206">
        <ele>97</ele>
        <time>2020-06-14T14:27:31.000Z</time>
      </trkpt>
      <trkpt lat="43.65503" lon="3.76203">
        <ele>97.086913434378</ele>
        <time>2020-06-14T14:27:32.000Z</time>
      </trkpt>
      <trkpt lat="43.655" lon="3.76201">
        <ele>97.186813566214</ele>
        <time>2020-06-14T14:27:33.000Z</time>
      </trkpt>
      <trkpt lat="43.65497" lon="3.762">
        <ele>97.28671369805</ele>
        <time>2020-06-14T14:27:34.000Z</time>
      </trkpt>
      <trkpt lat="43.65493" lon="3.76198">
        <ele>97.386613829886</ele>
        <time>2020-06-14T14:27:35.000Z</time>
      </trkpt>
      <trkpt lat="43.6549" lon="3.76197">
        <ele>97.486513961723</ele>
        <time>2020-06-14T14:27:36.000Z</time>
      </trkpt>
      <trkpt lat="43.65486" lon="3.76196">
        <ele>97.586414093559</ele>
        <time>2020-06-14T14:27:37.000Z</time>
      </trkpt>
      <trkpt lat="43.65483" lon="3.76195">
        <ele>97.686314225395</ele>
        <time>2020-06-14T14:27:38.000Z</time>
      </trkpt>
      <trkpt lat="43.6548" lon="3.76195">
        <ele>97.786214357231</ele>
        <time>2020-06-14T14:27:39.000Z</time>
      </trkpt>
      <trkpt lat="43.65477" lon="3.76194">
        <ele>97.886114489068</ele>
        <time>2020-06-14T14:27:40.000Z</time>
      </trkpt>
      <trkpt lat="43.65473" lon="3.76194">
        <ele>97.986014620904</ele>
        <time>2020-06-14T14:27:41.000Z</time>
      </trkpt>
      <trkpt lat="43.6547" lon="3.76193">
        <ele>98</ele>
        <time>2020-06-14T14:27:42.000Z</time>
      </trkpt>
      <trkpt lat="43.65467" lon="3.76193">
        <ele>98</ele>
        <time>2020-06-14T14:27:43.000Z</time>
      </trkpt>
      <trkpt lat="43.65464" lon="3.76192">
        <ele>98</ele>
        <time>2020-06-14T14:27:44.000Z</time>
      </trkpt>
      <trkpt lat="43.65461" lon="3.76192">
        <ele>98</ele>
        <time>2020-06-14T14:27:45.000Z</time>
      </trkpt>
      <trkpt lat="43.65459" lon="3.76193">
        <ele>98</ele>
        <time>2020-06-14T14:27:46.000Z</time>
      </trkpt>
      <trkpt lat="43.65457" lon="3.76193">
        <ele>98</ele>
        <time>2020-06-14T14:27:47.000Z</time>
      </trkpt>
      <trkpt lat="43.65454" lon="3.76193">
        <ele>98</ele>
        <time>2020-06-14T14:27:48.000Z</time>
      </trkpt>
      <trkpt lat="43.65452" lon="3.76191">
        <ele>98</ele>
        <time>2020-06-14T14:27:49.000Z</time>
      </trkpt>
      <trkpt lat="43.65449" lon="3.7619">
        <ele>98</ele>
        <time>2020-06-14T14:27:50.000Z</time>
      </trkpt>
      <trkpt lat="43.65447" lon="3.76188">
        <ele>98</ele>
        <time>2020-06-14T14:27:51.000Z</time>
      </trkpt>
      <trkpt lat="43.65446" lon="3.76186">
        <ele>98</ele>
        <time>2020-06-14T14:27:52.000Z</time>
      </trkpt>
      <trkpt lat="43.65444" lon="3.76184">
        <ele>98</ele>
        <time>2020-06-14T14:27:53.000Z</time>
      </trkpt>
      <trkpt lat="43.65442" lon="3.76183">
        <ele>98</ele>
        <time>2020-06-14T14:27:54.000Z</time>
      </trkpt>
      <trkpt lat="43.65441" lon="3.76181">
        <ele>98</ele>
        <time>2020-06-14T14:27:55.000Z</time>
      </trkpt>
      <trkpt lat="43.65438" lon="3.76181">
        <ele>98</ele>
        <time>2020-06-14T14:27:57.000Z</time>
      </trkpt>
      <trkpt lat="43.65439" lon="3.76181">
        <ele>98</ele>
        <time>2020-06-14T14:28:00.000Z</time>
      </trkpt>
      <trkpt lat="43.65443" lon="3.76185">
        <ele>98</ele>
        <time>2020-06-14T14:28:17.000Z</time>
      </trkpt>
      <trkpt lat="43.65445" lon="3.76187">
        <ele>98</ele>
        <time>2020-06-14T14:28:19.000Z</time>
      </trkpt>
      <trkpt lat="43.65448" lon="3.76189">
        <ele>98</ele>
        <time>2020-06-14T14:28:21.000Z</time>
      </trkpt>
      <trkpt lat="43.65449" lon="3.76191">
        <ele>98</ele>
        <time>2020-06-14T14:28:23.000Z</time>
      </trkpt>
      <trkpt lat="43.65452" lon="3.76193">
        <ele>98</ele>
        <time>2020-06-14T14:28:26.000Z</time>
      </trkpt>
      <trkpt lat="43.65453" lon="3.76197">
        <ele>98</ele>
        <time>2020-06-14T14:28:28.000Z</time>
      </trkpt>
      <trkpt lat="43.65452" lon="3.76199">
        <ele>98</ele>
        <time>2020-06-14T14:28:30.000Z</time>
      </trkpt>
      <trkpt lat="43.65451" lon="3.762">
        <ele>98</ele>
        <time>2020-06-14T14:28:34.000Z</time>
      </trkpt>
      <trkpt lat="43.65445" lon="3.76199">
        <ele>98.017372427317</ele>
        <time>2020-06-14T14:28:38.000Z</time>
      </trkpt>
      <trkpt lat="43.65442" lon="3.76199">
        <ele>98.451683110248</ele>
        <time>2020-06-14T14:28:40.000Z</time>
      </trkpt>
      <trkpt lat="43.65439" lon="3.76199">
        <ele>98.885993793179</ele>
        <time>2020-06-14T14:28:42.000Z</time>
      </trkpt>
      <trkpt lat="43.65436" lon="3.76199">
        <ele>99.32030447611</ele>
        <time>2020-06-14T14:28:44.000Z</time>
      </trkpt>
      <trkpt lat="43.65433" lon="3.76199">
        <ele>99.754615159041</ele>
        <time>2020-06-14T14:28:46.000Z</time>
      </trkpt>
      <trkpt lat="43.6543" lon="3.76199">
        <ele>100.16909667412</ele>
        <time>2020-06-14T14:28:48.000Z</time>
      </trkpt>
      <trkpt lat="43.65427" lon="3.76198">
        <ele>100.5578232308</ele>
        <time>2020-06-14T14:28:50.000Z</time>
      </trkpt>
      <trkpt lat="43.65425" lon="3.76198">
        <ele>100.94654978748</ele>
        <time>2020-06-14T14:28:52.000Z</time>
      </trkpt>
      <trkpt lat="43.65422" lon="3.76198">
        <ele>101.33527634415</ele>
        <time>2020-06-14T14:28:54.000Z</time>
      </trkpt>
      <trkpt lat="43.65419" lon="3.76199">
        <ele>101.72400290083</ele>
        <time>2020-06-14T14:28:56.000Z</time>
      </trkpt>
      <trkpt lat="43.65416" lon="3.76199">
        <ele>102.05823236399</ele>
        <time>2020-06-14T14:28:58.000Z</time>
      </trkpt>
      <trkpt lat="43.65413" lon="3.76199">
        <ele>102.25903583491</ele>
        <time>2020-06-14T14:29:00.000Z</time>
      </trkpt>
      <trkpt lat="43.6541" lon="3.76199">
        <ele>102.45983930582</ele>
        <time>2020-06-14T14:29:02.000Z</time>
      </trkpt>
      <trkpt lat="43.65408" lon="3.76199">
        <ele>102.66064277673</ele>
        <time>2020-06-14T14:29:04.000Z</time>
      </trkpt>
      <trkpt lat="43.65405" lon="3.76198">
        <ele>102.86144624764</ele>
        <time>2020-06-14T14:29:06.000Z</time>
      </trkpt>
      <trkpt lat="43.65403" lon="3.76197">
        <ele>103.12718075826</ele>
        <time>2020-06-14T14:29:08.000Z</time>
      </trkpt>
      <trkpt lat="43.654" lon="3.76197">
        <ele>103.53743703387</ele>
        <time>2020-06-14T14:29:10.000Z</time>
      </trkpt>
      <trkpt lat="43.65398" lon="3.76197">
        <ele>103.94769330947</ele>
        <time>2020-06-14T14:29:12.000Z</time>
      </trkpt>
      <trkpt lat="43.65396" lon="3.76199">
        <ele>104.35794958508</ele>
        <time>2020-06-14T14:29:14.000Z</time>
      </trkpt>
      <trkpt lat="43.65395" lon="3.76202">
        <ele>104.76820586069</ele>
        <time>2020-06-14T14:29:16.000Z</time>
      </trkpt>
      <trkpt lat="43.65393" lon="3.76206">
        <ele>105.12100178203</ele>
        <time>2020-06-14T14:29:18.000Z</time>
      </trkpt>
      <trkpt lat="43.65393" lon="3.76207">
        <ele>105.95549376111</ele>
        <time>2020-06-14T14:29:24.000Z</time>
      </trkpt>
      <trkpt lat="43.65395" lon="3.76208">
        <ele>108.98740250612</ele>
        <time>2020-06-14T14:30:45.000Z</time>
      </trkpt>
      <trkpt lat="43.65393" lon="3.76212">
        <ele>109.16871143965</ele>
        <time>2020-06-14T14:30:47.000Z</time>
      </trkpt>
      <trkpt lat="43.65391" lon="3.76214">
        <ele>109.27096099531</ele>
        <time>2020-06-14T14:30:48.000Z</time>
      </trkpt>
      <trkpt lat="43.6539" lon="3.76216">
        <ele>109.37321055098</ele>
        <time>2020-06-14T14:30:49.000Z</time>
      </trkpt>
      <trkpt lat="43.65389" lon="3.76219">
        <ele>109.47546010664</ele>
        <time>2020-06-14T14:30:50.000Z</time>
      </trkpt>
      <trkpt lat="43.65388" lon="3.76221">
        <ele>109.5777096623</ele>
        <time>2020-06-14T14:30:51.000Z</time>
      </trkpt>
      <trkpt lat="43.65387" lon="3.76225">
        <ele>109.78220877363</ele>
        <time>2020-06-14T14:30:53.000Z</time>
      </trkpt>
      <trkpt lat="43.65385" lon="3.76228">
        <ele>109.98670788496</ele>
        <time>2020-06-14T14:30:55.000Z</time>
      </trkpt>
      <trkpt lat="43.65382" lon="3.76232">
        <ele>110.36345995246</ele>
        <time>2020-06-14T14:30:57.000Z</time>
      </trkpt>
      <trkpt lat="43.65381" lon="3.76234">
        <ele>110.5578232308</ele>
        <time>2020-06-14T14:30:58.000Z</time>
      </trkpt>
      <trkpt lat="43.65379" lon="3.76237">
        <ele>110.94654978748</ele>
        <time>2020-06-14T14:31:00.000Z</time>
      </trkpt>
      <trkpt lat="43.65376" lon="3.76239">
        <ele>111.33527634415</ele>
        <time>2020-06-14T14:31:02.000Z</time>
      </trkpt>
      <trkpt lat="43.65374" lon="3.76242">
        <ele>111.72400290083</ele>
        <time>2020-06-14T14:31:04.000Z</time>
      </trkpt>
      <trkpt lat="43.65372" lon="3.76245">
        <ele>112.06290607403</ele>
        <time>2020-06-14T14:31:06.000Z</time>
      </trkpt>
      <trkpt lat="43.65369" lon="3.76247">
        <ele>112.2798259643</ele>
        <time>2020-06-14T14:31:08.000Z</time>
      </trkpt>
      <trkpt lat="43.65367" lon="3.76248">
        <ele>112.38828590944</ele>
        <time>2020-06-14T14:31:09.000Z</time>
      </trkpt>
      <trkpt lat="43.65365" lon="3.76249">
        <ele>112.60520579971</ele>
        <time>2020-06-14T14:31:11.000Z</time>
      </trkpt>
      <trkpt lat="43.65365" lon="3.76249">
        <ele>113</ele>
        <time>2020-06-14T14:31:15.000Z</time>
      </trkpt>
      <trkpt lat="43.6536" lon="3.76252">
        <ele>113</ele>
        <time>2020-06-14T14:31:25.000Z</time>
      </trkpt>
      <trkpt lat="43.65359" lon="3.76252">
        <ele>113</ele>
        <time>2020-06-14T14:31:26.000Z</time>
      </trkpt>
      <trkpt lat="43.65357" lon="3.76254">
        <ele>113</ele>
        <time>2020-06-14T14:31:28.000Z</time>
      </trkpt>
      <trkpt lat="43.65356" lon="3.76255">
        <ele>113</ele>
        <time>2020-06-14T14:31:32.000Z</time>
      </trkpt>
      <trkpt lat="43.65349" lon="3.76252">
        <ele>116.07180442337</ele>
        <time>2020-06-14T14:32:20.000Z</time>
      </trkpt>
      <trkpt lat="43.65348" lon="3.76252">
        <ele>116.28299787928</ele>
        <time>2020-06-14T14:32:21.000Z</time>
      </trkpt>
      <trkpt lat="43.65344" lon="3.76251">
        <ele>116.7053847911</ele>
        <time>2020-06-14T14:32:23.000Z</time>
      </trkpt>
      <trkpt lat="43.65342" lon="3.76249">
        <ele>117.12777170291</ele>
        <time>2020-06-14T14:32:25.000Z</time>
      </trkpt>
      <trkpt lat="43.65339" lon="3.76248">
        <ele>117.55015861473</ele>
        <time>2020-06-14T14:32:27.000Z</time>
      </trkpt>
      <trkpt lat="43.65337" lon="3.76246">
        <ele>117.97254552655</ele>
        <time>2020-06-14T14:32:29.000Z</time>
      </trkpt>
      <trkpt lat="43.65334" lon="3.76243">
        <ele>118</ele>
        <time>2020-06-14T14:32:31.000Z</time>
      </trkpt>
      <trkpt lat="43.65334" lon="3.76241">
        <ele>118</ele>
        <time>2020-06-14T14:32:32.000Z</time>
      </trkpt>
      <trkpt lat="43.65333" lon="3.76239">
        <ele>118</ele>
        <time>2020-06-14T14:32:33.000Z</time>
      </trkpt>
      <trkpt lat="43.65332" lon="3.76236">
        <ele>118</ele>
        <time>2020-06-14T14:32:34.000Z</time>
      </trkpt>
      <trkpt lat="43.65332" lon="3.76233">
        <ele>118</ele>
        <time>2020-06-14T14:32:35.000Z</time>
      </trkpt>
      <trkpt lat="43.65332" lon="3.7623">
        <ele>118</ele>
        <time>2020-06-14T14:32:36.000Z</time>
      </trkpt>
      <trkpt lat="43.65332" lon="3.76228">
        <ele>118</ele>
        <time>2020-06-14T14:32:37.000Z</time>
      </trkpt>
      <trkpt lat="43.65331" lon="3.76225">
        <ele>118</ele>
        <time>2020-06-14T14:32:38.000Z</time>
      </trkpt>
      <trkpt lat="43.65331" lon="3.76222">
        <ele>118</ele>
        <time>2020-06-14T14:32:39.000Z</time>
      </trkpt>
      <trkpt lat="43.65331" lon="3.7622">
        <ele>118</ele>
        <time>2020-06-14T14:32:40.000Z</time>
      </trkpt>
      <trkpt lat="43.65331" lon="3.76217">
        <ele>118</ele>
        <time>2020-06-14T14:32:41.000Z</time>
      </trkpt>
      <trkpt lat="43.65331" lon="3.76213">
        <ele>118</ele>
        <time>2020-06-14T14:32:43.000Z</time>
      </trkpt>
      <trkpt lat="43.65329" lon="3.76214">
        <ele>118</ele>
        <time>2020-06-14T14:32:48.000Z</time>
      </trkpt>
      <trkpt lat="43.65328" lon="3.76213">
        <ele>118.00368865574</ele>
        <time>2020-06-14T14:32:53.000Z</time>
      </trkpt>
      <trkpt lat="43.65323" lon="3.76203">
        <ele>118.98729521312</ele>
        <time>2020-06-14T14:33:41.000Z</time>
      </trkpt>
      <trkpt lat="43.65321" lon="3.76202">
        <ele>118.92210588437</ele>
        <time>2020-06-14T14:33:42.000Z</time>
      </trkpt>
      <trkpt lat="43.65319" lon="3.762">
        <ele>118.71157942675</ele>
        <time>2020-06-14T14:33:43.000Z</time>
      </trkpt>
      <trkpt lat="43.65317" lon="3.76199">
        <ele>118.50105296913</ele>
        <time>2020-06-14T14:33:44.000Z</time>
      </trkpt>
      <trkpt lat="43.65315" lon="3.76199">
        <ele>118.29052651151</ele>
        <time>2020-06-14T14:33:45.000Z</time>
      </trkpt>
      <trkpt lat="43.65313" lon="3.76197">
        <ele>118.0800000539</ele>
        <time>2020-06-14T14:33:46.000Z</time>
      </trkpt>
      <trkpt lat="43.65311" lon="3.76195">
        <ele>117.86947359628</ele>
        <time>2020-06-14T14:33:47.000Z</time>
      </trkpt>
      <trkpt lat="43.65309" lon="3.76193">
        <ele>117.65894713866</ele>
        <time>2020-06-14T14:33:48.000Z</time>
      </trkpt>
      <trkpt lat="43.65307" lon="3.76191">
        <ele>117.44842068104</ele>
        <time>2020-06-14T14:33:49.000Z</time>
      </trkpt>
      <trkpt lat="43.65305" lon="3.76188">
        <ele>117.23789422342</ele>
        <time>2020-06-14T14:33:50.000Z</time>
      </trkpt>
      <trkpt lat="43.65302" lon="3.76184">
        <ele>117.02736776581</ele>
        <time>2020-06-14T14:33:51.000Z</time>
      </trkpt>
      <trkpt lat="43.65299" lon="3.7618">
        <ele>117</ele>
        <time>2020-06-14T14:33:52.000Z</time>
      </trkpt>
      <trkpt lat="43.65296" lon="3.76177">
        <ele>117</ele>
        <time>2020-06-14T14:33:53.000Z</time>
      </trkpt>
      <trkpt lat="43.65294" lon="3.76175">
        <ele>117</ele>
        <time>2020-06-14T14:33:54.000Z</time>
      </trkpt>
      <trkpt lat="43.65292" lon="3.76173">
        <ele>117</ele>
        <time>2020-06-14T14:33:56.000Z</time>
      </trkpt>
      <trkpt lat="43.65292" lon="3.76172">
        <ele>117.09205008596</ele>
        <time>2020-06-14T14:34:01.000Z</time>
      </trkpt>
      <trkpt lat="43.65288" lon="3.76171">
        <ele>117.92886904921</ele>
        <time>2020-06-14T14:34:05.000Z</time>
      </trkpt>
      <trkpt lat="43.65287" lon="3.7617">
        <ele>118.06646188398</ele>
        <time>2020-06-14T14:34:06.000Z</time>
      </trkpt>
      <trkpt lat="43.65285" lon="3.76167">
        <ele>118.27096099531</ele>
        <time>2020-06-14T14:34:08.000Z</time>
      </trkpt>
      <trkpt lat="43.65284" lon="3.76165">
        <ele>118.37321055098</ele>
        <time>2020-06-14T14:34:09.000Z</time>
      </trkpt>
      <trkpt lat="43.65282" lon="3.76163">
        <ele>118.47546010664</ele>
        <time>2020-06-14T14:34:10.000Z</time>
      </trkpt>
      <trkpt lat="43.65281" lon="3.7616">
        <ele>118.5777096623</ele>
        <time>2020-06-14T14:34:11.000Z</time>
      </trkpt>
      <trkpt lat="43.6528" lon="3.76157">
        <ele>118.67995921797</ele>
        <time>2020-06-14T14:34:12.000Z</time>
      </trkpt>
      <trkpt lat="43.65279" lon="3.76154">
        <ele>118.78220877363</ele>
        <time>2020-06-14T14:34:13.000Z</time>
      </trkpt>
      <trkpt lat="43.65277" lon="3.76152">
        <ele>118.8844583293</ele>
        <time>2020-06-14T14:34:14.000Z</time>
      </trkpt>
      <trkpt lat="43.65276" lon="3.76149">
        <ele>118.98670788496</ele>
        <time>2020-06-14T14:34:15.000Z</time>
      </trkpt>
      <trkpt lat="43.65274" lon="3.76147">
        <ele>119</ele>
        <time>2020-06-14T14:34:16.000Z</time>
      </trkpt>
      <trkpt lat="43.65272" lon="3.76144">
        <ele>119</ele>
        <time>2020-06-14T14:34:17.000Z</time>
      </trkpt>
      <trkpt lat="43.6527" lon="3.76142">
        <ele>119</ele>
        <time>2020-06-14T14:34:18.000Z</time>
      </trkpt>
      <trkpt lat="43.65268" lon="3.7614">
        <ele>119</ele>
        <time>2020-06-14T14:34:19.000Z</time>
      </trkpt>
      <trkpt lat="43.65266" lon="3.76138">
        <ele>119</ele>
        <time>2020-06-14T14:34:20.000Z</time>
      </trkpt>
      <trkpt lat="43.65264" lon="3.76136">
        <ele>119</ele>
        <time>2020-06-14T14:34:21.000Z</time>
      </trkpt>
      <trkpt lat="43.65262" lon="3.76134">
        <ele>119</ele>
        <time>2020-06-14T14:34:22.000Z</time>
      </trkpt>
      <trkpt lat="43.65261" lon="3.76131">
        <ele>119</ele>
        <time>2020-06-14T14:34:23.000Z</time>
      </trkpt>
      <trkpt lat="43.6526" lon="3.76128">
        <ele>119</ele>
        <time>2020-06-14T14:34:24.000Z</time>
      </trkpt>
      <trkpt lat="43.65259" lon="3.76125">
        <ele>119</ele>
        <time>2020-06-14T14:34:25.000Z</time>
      </trkpt>
      <trkpt lat="43.65258" lon="3.76122">
        <ele>119</ele>
        <time>2020-06-14T14:34:26.000Z</time>
      </trkpt>
      <trkpt lat="43.65257" lon="3.76118">
        <ele>119</ele>
        <time>2020-06-14T14:34:27.000Z</time>
      </trkpt>
      <trkpt lat="43.65254" lon="3.76114">
        <ele>119</ele>
        <time>2020-06-14T14:34:28.000Z</time>
      </trkpt>
      <trkpt lat="43.65252" lon="3.76111">
        <ele>119</ele>
        <time>2020-06-14T14:34:29.000Z</time>
      </trkpt>
      <trkpt lat="43.65249" lon="3.7611">
        <ele>119</ele>
        <time>2020-06-14T14:34:30.000Z</time>
      </trkpt>
      <trkpt lat="43.65249" lon="3.76109">
        <ele>119</ele>
        <time>2020-06-14T14:34:36.000Z</time>
      </trkpt>
      <trkpt lat="43.65241" lon="3.761">
        <ele>117.9681859705</ele>
        <time>2020-06-14T14:35:04.000Z</time>
      </trkpt>
      <trkpt lat="43.65237" lon="3.76097">
        <ele>117.86214146778</ele>
        <time>2020-06-14T14:35:05.000Z</time>
      </trkpt>
      <trkpt lat="43.65234" lon="3.76094">
        <ele>117.75609696506</ele>
        <time>2020-06-14T14:35:06.000Z</time>
      </trkpt>
      <trkpt lat="43.6523" lon="3.7609">
        <ele>117.65005246234</ele>
        <time>2020-06-14T14:35:07.000Z</time>
      </trkpt>
      <trkpt lat="43.65227" lon="3.76087">
        <ele>117.54400795962</ele>
        <time>2020-06-14T14:35:08.000Z</time>
      </trkpt>
      <trkpt lat="43.65223" lon="3.76083">
        <ele>117.4379634569</ele>
        <time>2020-06-14T14:35:09.000Z</time>
      </trkpt>
      <trkpt lat="43.6522" lon="3.76078">
        <ele>117.33191895417</ele>
        <time>2020-06-14T14:35:10.000Z</time>
      </trkpt>
      <trkpt lat="43.65217" lon="3.76074">
        <ele>117.22587445145</ele>
        <time>2020-06-14T14:35:11.000Z</time>
      </trkpt>
      <trkpt lat="43.65215" lon="3.7607">
        <ele>117.11982994873</ele>
        <time>2020-06-14T14:35:12.000Z</time>
      </trkpt>
      <trkpt lat="43.65214" lon="3.76068">
        <ele>117.01378544601</ele>
        <time>2020-06-14T14:35:13.000Z</time>
      </trkpt>
      <trkpt lat="43.65213" lon="3.76067">
        <ele>116.05984610366</ele>
        <time>2020-06-14T14:35:18.000Z</time>
      </trkpt>
      <trkpt lat="43.6521" lon="3.76059">
        <ele>115.04373389034</ele>
        <time>2020-06-14T14:35:33.000Z</time>
      </trkpt>
      <trkpt lat="43.65209" lon="3.76058">
        <ele>113.98378606369</ele>
        <time>2020-06-14T14:35:39.000Z</time>
      </trkpt>
      <trkpt lat="43.65207" lon="3.76056">
        <ele>113.0300430573</ele>
        <time>2020-06-14T14:35:59.000Z</time>
      </trkpt>
      <trkpt lat="43.65205" lon="3.76056">
        <ele>112.57007361688</ele>
        <time>2020-06-14T14:36:01.000Z</time>
      </trkpt>
      <trkpt lat="43.65203" lon="3.76058">
        <ele>111.62170659531</ele>
        <time>2020-06-14T14:36:04.000Z</time>
      </trkpt>
      <trkpt lat="43.65202" lon="3.7606">
        <ele>110.98946191426</ele>
        <time>2020-06-14T14:36:06.000Z</time>
      </trkpt>
      <trkpt lat="43.65202" lon="3.7606">
        <ele>110</ele>
        <time>2020-06-14T14:36:11.000Z</time>
      </trkpt>
      <trkpt lat="43.65206" lon="3.76053">
        <ele>110</ele>
        <time>2020-06-14T14:40:41.000Z</time>
      </trkpt>
      <trkpt lat="43.65207" lon="3.76052">
        <ele>109.92413063827</ele>
        <time>2020-06-14T14:40:42.000Z</time>
      </trkpt>
      <trkpt lat="43.65208" lon="3.76048">
        <ele>109.50263418424</ele>
        <time>2020-06-14T14:40:44.000Z</time>
      </trkpt>
      <trkpt lat="43.65208" lon="3.76046">
        <ele>109.29188595722</ele>
        <time>2020-06-14T14:40:45.000Z</time>
      </trkpt>
      <trkpt lat="43.65209" lon="3.76043">
        <ele>109.08113773021</ele>
        <time>2020-06-14T14:40:46.000Z</time>
      </trkpt>
      <trkpt lat="43.65209" lon="3.7604">
        <ele>108.87038950319</ele>
        <time>2020-06-14T14:40:47.000Z</time>
      </trkpt>
      <trkpt lat="43.65209" lon="3.76036">
        <ele>108.65964127617</ele>
        <time>2020-06-14T14:40:48.000Z</time>
      </trkpt>
      <trkpt lat="43.65209" lon="3.76033">
        <ele>108.44889304915</ele>
        <time>2020-06-14T14:40:49.000Z</time>
      </trkpt>
      <trkpt lat="43.65209" lon="3.76031">
        <ele>108.23814482213</ele>
        <time>2020-06-14T14:40:50.000Z</time>
      </trkpt>
      <trkpt lat="43.65209" lon="3.76028">
        <ele>108.02739659512</ele>
        <time>2020-06-14T14:40:51.000Z</time>
      </trkpt>
      <trkpt lat="43.6521" lon="3.76025">
        <ele>107.91545166294</ele>
        <time>2020-06-14T14:40:52.000Z</time>
      </trkpt>
      <trkpt lat="43.65211" lon="3.76021">
        <ele>107.81827002377</ele>
        <time>2020-06-14T14:40:53.000Z</time>
      </trkpt>
      <trkpt lat="43.65212" lon="3.76018">
        <ele>107.7210883846</ele>
        <time>2020-06-14T14:40:54.000Z</time>
      </trkpt>
      <trkpt lat="43.65214" lon="3.76013">
        <ele>107.62390674543</ele>
        <time>2020-06-14T14:40:55.000Z</time>
      </trkpt>
      <trkpt lat="43.65216" lon="3.76009">
        <ele>107.52672510626</ele>
        <time>2020-06-14T14:40:56.000Z</time>
      </trkpt>
      <trkpt lat="43.65218" lon="3.76004">
        <ele>107.42954346709</ele>
        <time>2020-06-14T14:40:57.000Z</time>
      </trkpt>
      <trkpt lat="43.65221" lon="3.76">
        <ele>107.33236182792</ele>
        <time>2020-06-14T14:40:58.000Z</time>
      </trkpt>
      <trkpt lat="43.65224" lon="3.75996">
        <ele>107.23518018875</ele>
        <time>2020-06-14T14:40:59.000Z</time>
      </trkpt>
      <trkpt lat="43.65227" lon="3.75992">
        <ele>107.13799854958</ele>
        <time>2020-06-14T14:41:00.000Z</time>
      </trkpt>
      <trkpt lat="43.6523" lon="3.75986">
        <ele>107.04081691041</ele>
        <time>2020-06-14T14:41:01.000Z</time>
      </trkpt>
      <trkpt lat="43.65233" lon="3.75981">
        <ele>106.82080509575</ele>
        <time>2020-06-14T14:41:02.000Z</time>
      </trkpt>
      <trkpt lat="43.65237" lon="3.75976">
        <ele>106.51184495507</ele>
        <time>2020-06-14T14:41:03.000Z</time>
      </trkpt>
      <trkpt lat="43.6524" lon="3.75972">
        <ele>106.20288481439</ele>
        <time>2020-06-14T14:41:04.000Z</time>
      </trkpt>
      <trkpt lat="43.65243" lon="3.75969">
        <ele>105.89392467371</ele>
        <time>2020-06-14T14:41:05.000Z</time>
      </trkpt>
      <trkpt lat="43.65246" lon="3.75967">
        <ele>105.58496453302</ele>
        <time>2020-06-14T14:41:06.000Z</time>
      </trkpt>
      <trkpt lat="43.65249" lon="3.75966">
        <ele>105.27600439234</ele>
        <time>2020-06-14T14:41:07.000Z</time>
      </trkpt>
      <trkpt lat="43.65251" lon="3.75967">
        <ele>104.96704425166</ele>
        <time>2020-06-14T14:41:08.000Z</time>
      </trkpt>
      <trkpt lat="43.65254" lon="3.75969">
        <ele>104.65808411098</ele>
        <time>2020-06-14T14:41:09.000Z</time>
      </trkpt>
      <trkpt lat="43.65255" lon="3.75971">
        <ele>104.3491239703</ele>
        <time>2020-06-14T14:41:10.000Z</time>
      </trkpt>
      <trkpt lat="43.65256" lon="3.75974">
        <ele>104.04016382962</ele>
        <time>2020-06-14T14:41:11.000Z</time>
      </trkpt>
      <trkpt lat="43.65258" lon="3.75977">
        <ele>103.91545166294</ele>
        <time>2020-06-14T14:41:12.000Z</time>
      </trkpt>
      <trkpt lat="43.65259" lon="3.7598">
        <ele>103.81827002377</ele>
        <time>2020-06-14T14:41:13.000Z</time>
      </trkpt>
      <trkpt lat="43.65261" lon="3.75982">
        <ele>103.7210883846</ele>
        <time>2020-06-14T14:41:14.000Z</time>
      </trkpt>
      <trkpt lat="43.65263" lon="3.75985">
        <ele>103.62390674543</ele>
        <time>2020-06-14T14:41:15.000Z</time>
      </trkpt>
      <trkpt lat="43.65264" lon="3.75988">
        <ele>103.52672510626</ele>
        <time>2020-06-14T14:41:16.000Z</time>
      </trkpt>
      <trkpt lat="43.65265" lon="3.75991">
        <ele>103.42954346709</ele>
        <time>2020-06-14T14:41:17.000Z</time>
      </trkpt>
      <trkpt lat="43.65266" lon="3.75994">
        <ele>103.33236182792</ele>
        <time>2020-06-14T14:41:18.000Z</time>
      </trkpt>
      <trkpt lat="43.65267" lon="3.75997">
        <ele>103.23518018875</ele>
        <time>2020-06-14T14:41:19.000Z</time>
      </trkpt>
      <trkpt lat="43.65269" lon="3.76">
        <ele>103.13799854958</ele>
        <time>2020-06-14T14:41:20.000Z</time>
      </trkpt>
      <trkpt lat="43.6527" lon="3.76002">
        <ele>103.04081691041</ele>
        <time>2020-06-14T14:41:21.000Z</time>
      </trkpt>
      <trkpt lat="43.65272" lon="3.76005">
        <ele>103.05973163475</ele>
        <time>2020-06-14T14:41:22.000Z</time>
      </trkpt>
      <trkpt lat="43.65274" lon="3.76007">
        <ele>103.16271834831</ele>
        <time>2020-06-14T14:41:23.000Z</time>
      </trkpt>
      <trkpt lat="43.65275" lon="3.7601">
        <ele>103.26570506187</ele>
        <time>2020-06-14T14:41:24.000Z</time>
      </trkpt>
      <trkpt lat="43.65277" lon="3.76012">
        <ele>103.36869177543</ele>
        <time>2020-06-14T14:41:25.000Z</time>
      </trkpt>
      <trkpt lat="43.65279" lon="3.76014">
        <ele>103.47167848899</ele>
        <time>2020-06-14T14:41:26.000Z</time>
      </trkpt>
      <trkpt lat="43.65281" lon="3.76016">
        <ele>103.57466520255</ele>
        <time>2020-06-14T14:41:27.000Z</time>
      </trkpt>
      <trkpt lat="43.65283" lon="3.76019">
        <ele>103.67765191611</ele>
        <time>2020-06-14T14:41:28.000Z</time>
      </trkpt>
      <trkpt lat="43.65285" lon="3.76021">
        <ele>103.78063862967</ele>
        <time>2020-06-14T14:41:29.000Z</time>
      </trkpt>
      <trkpt lat="43.65287" lon="3.76023">
        <ele>103.88362534323</ele>
        <time>2020-06-14T14:41:30.000Z</time>
      </trkpt>
      <trkpt lat="43.65289" lon="3.76026">
        <ele>103.98661205679</ele>
        <time>2020-06-14T14:41:31.000Z</time>
      </trkpt>
      <trkpt lat="43.65292" lon="3.76028">
        <ele>104</ele>
        <time>2020-06-14T14:41:32.000Z</time>
      </trkpt>
      <trkpt lat="43.65295" lon="3.7603">
        <ele>104</ele>
        <time>2020-06-14T14:41:33.000Z</time>
      </trkpt>
      <trkpt lat="43.65298" lon="3.76032">
        <ele>104</ele>
        <time>2020-06-14T14:41:34.000Z</time>
      </trkpt>
      <trkpt lat="43.65301" lon="3.76034">
        <ele>104</ele>
        <time>2020-06-14T14:41:35.000Z</time>
      </trkpt>
      <trkpt lat="43.65304" lon="3.76036">
        <ele>104</ele>
        <time>2020-06-14T14:41:36.000Z</time>
      </trkpt>
      <trkpt lat="43.65308" lon="3.76038">
        <ele>104</ele>
        <time>2020-06-14T14:41:37.000Z</time>
      </trkpt>
      <trkpt lat="43.65311" lon="3.7604">
        <ele>104</ele>
        <time>2020-06-14T14:41:38.000Z</time>
      </trkpt>
      <trkpt lat="43.65315" lon="3.76042">
        <ele>104</ele>
        <time>2020-06-14T14:41:39.000Z</time>
      </trkpt>
      <trkpt lat="43.65318" lon="3.76044">
        <ele>104</ele>
        <time>2020-06-14T14:41:40.000Z</time>
      </trkpt>
      <trkpt lat="43.65322" lon="3.76046">
        <ele>104</ele>
        <time>2020-06-14T14:41:41.000Z</time>
      </trkpt>
      <trkpt lat="43.65325" lon="3.76048">
        <ele>103.8278266017</ele>
        <time>2020-06-14T14:41:42.000Z</time>
      </trkpt>
      <trkpt lat="43.65329" lon="3.7605">
        <ele>103.62762646562</ele>
        <time>2020-06-14T14:41:43.000Z</time>
      </trkpt>
      <trkpt lat="43.65333" lon="3.76051">
        <ele>103.42742632955</ele>
        <time>2020-06-14T14:41:44.000Z</time>
      </trkpt>
      <trkpt lat="43.65338" lon="3.76053">
        <ele>103.22722619348</ele>
        <time>2020-06-14T14:41:45.000Z</time>
      </trkpt>
      <trkpt lat="43.65342" lon="3.76054">
        <ele>103.02702605741</ele>
        <time>2020-06-14T14:41:46.000Z</time>
      </trkpt>
      <trkpt lat="43.65346" lon="3.76056">
        <ele>102.82682592134</ele>
        <time>2020-06-14T14:41:47.000Z</time>
      </trkpt>
      <trkpt lat="43.65351" lon="3.76057">
        <ele>102.62662578527</ele>
        <time>2020-06-14T14:41:48.000Z</time>
      </trkpt>
      <trkpt lat="43.65354" lon="3.76059">
        <ele>102.42642564919</ele>
        <time>2020-06-14T14:41:49.000Z</time>
      </trkpt>
      <trkpt lat="43.65358" lon="3.76062">
        <ele>102.22622551312</ele>
        <time>2020-06-14T14:41:50.000Z</time>
      </trkpt>
      <trkpt lat="43.65362" lon="3.76066">
        <ele>102.02602537705</ele>
        <time>2020-06-14T14:41:51.000Z</time>
      </trkpt>
      <trkpt lat="43.65365" lon="3.7607">
        <ele>102</ele>
        <time>2020-06-14T14:41:52.000Z</time>
      </trkpt>
      <trkpt lat="43.65369" lon="3.76075">
        <ele>102</ele>
        <time>2020-06-14T14:41:53.000Z</time>
      </trkpt>
      <trkpt lat="43.65371" lon="3.7608">
        <ele>102</ele>
        <time>2020-06-14T14:41:54.000Z</time>
      </trkpt>
      <trkpt lat="43.65372" lon="3.76085">
        <ele>102</ele>
        <time>2020-06-14T14:41:55.000Z</time>
      </trkpt>
      <trkpt lat="43.65373" lon="3.76091">
        <ele>102</ele>
        <time>2020-06-14T14:41:56.000Z</time>
      </trkpt>
      <trkpt lat="43.65373" lon="3.76097">
        <ele>102</ele>
        <time>2020-06-14T14:41:57.000Z</time>
      </trkpt>
      <trkpt lat="43.65374" lon="3.76103">
        <ele>102</ele>
        <time>2020-06-14T14:41:58.000Z</time>
      </trkpt>
      <trkpt lat="43.65374" lon="3.76109">
        <ele>102</ele>
        <time>2020-06-14T14:41:59.000Z</time>
      </trkpt>
      <trkpt lat="43.65375" lon="3.76114">
        <ele>102</ele>
        <time>2020-06-14T14:42:00.000Z</time>
      </trkpt>
      <trkpt lat="43.65378" lon="3.76118">
        <ele>102</ele>
        <time>2020-06-14T14:42:01.000Z</time>
      </trkpt>
      <trkpt lat="43.6538" lon="3.76124">
        <ele>101.93640962087</ele>
        <time>2020-06-14T14:42:02.000Z</time>
      </trkpt>
      <trkpt lat="43.65382" lon="3.7613">
        <ele>101.83384555197</ele>
        <time>2020-06-14T14:42:03.000Z</time>
      </trkpt>
      <trkpt lat="43.65384" lon="3.76136">
        <ele>101.73128148307</ele>
        <time>2020-06-14T14:42:04.000Z</time>
      </trkpt>
      <trkpt lat="43.65387" lon="3.76141">
        <ele>101.62871741416</ele>
        <time>2020-06-14T14:42:05.000Z</time>
      </trkpt>
      <trkpt lat="43.65389" lon="3.76146">
        <ele>101.52615334526</ele>
        <time>2020-06-14T14:42:06.000Z</time>
      </trkpt>
      <trkpt lat="43.6539" lon="3.7615">
        <ele>101.42358927636</ele>
        <time>2020-06-14T14:42:07.000Z</time>
      </trkpt>
      <trkpt lat="43.65392" lon="3.76154">
        <ele>101.32102520746</ele>
        <time>2020-06-14T14:42:08.000Z</time>
      </trkpt>
      <trkpt lat="43.65395" lon="3.76158">
        <ele>101.21846113856</ele>
        <time>2020-06-14T14:42:09.000Z</time>
      </trkpt>
      <trkpt lat="43.65399" lon="3.76161">
        <ele>101.11589706965</ele>
        <time>2020-06-14T14:42:10.000Z</time>
      </trkpt>
      <trkpt lat="43.65402" lon="3.76164">
        <ele>101.01333300075</ele>
        <time>2020-06-14T14:42:11.000Z</time>
      </trkpt>
      <trkpt lat="43.65406" lon="3.76168">
        <ele>100.91299968</ele>
        <time>2020-06-14T14:42:12.000Z</time>
      </trkpt>
      <trkpt lat="43.6541" lon="3.76171">
        <ele>100.81299968</ele>
        <time>2020-06-14T14:42:13.000Z</time>
      </trkpt>
      <trkpt lat="43.65414" lon="3.76174">
        <ele>100.71299968</ele>
        <time>2020-06-14T14:42:14.000Z</time>
      </trkpt>
      <trkpt lat="43.65419" lon="3.76175">
        <ele>100.61299968</ele>
        <time>2020-06-14T14:42:15.000Z</time>
      </trkpt>
      <trkpt lat="43.65422" lon="3.76176">
        <ele>100.51299968</ele>
        <time>2020-06-14T14:42:16.000Z</time>
      </trkpt>
      <trkpt lat="43.65427" lon="3.76177">
        <ele>100.41299968</ele>
        <time>2020-06-14T14:42:17.000Z</time>
      </trkpt>
      <trkpt lat="43.65431" lon="3.76179">
        <ele>100.31299968</ele>
        <time>2020-06-14T14:42:18.000Z</time>
      </trkpt>
      <trkpt lat="43.65435" lon="3.7618">
        <ele>100.21299968</ele>
        <time>2020-06-14T14:42:19.000Z</time>
      </trkpt>
      <trkpt lat="43.65439" lon="3.76182">
        <ele>100.11299968</ele>
        <time>2020-06-14T14:42:20.000Z</time>
      </trkpt>
      <trkpt lat="43.65443" lon="3.76184">
        <ele>100.01299968</ele>
        <time>2020-06-14T14:42:21.000Z</time>
      </trkpt>
      <trkpt lat="43.65447" lon="3.76188">
        <ele>99.91299968</ele>
        <time>2020-06-14T14:42:22.000Z</time>
      </trkpt>
      <trkpt lat="43.65451" lon="3.76191">
        <ele>99.81299968</ele>
        <time>2020-06-14T14:42:23.000Z</time>
      </trkpt>
      <trkpt lat="43.65455" lon="3.76194">
        <ele>99.71299968</ele>
        <time>2020-06-14T14:42:24.000Z</time>
      </trkpt>
      <trkpt lat="43.65459" lon="3.76195">
        <ele>99.61299968</ele>
        <time>2020-06-14T14:42:25.000Z</time>
      </trkpt>
      <trkpt lat="43.65463" lon="3.76195">
        <ele>99.51299968</ele>
        <time>2020-06-14T14:42:26.000Z</time>
      </trkpt>
      <trkpt lat="43.65467" lon="3.76195">
        <ele>99.41299968</ele>
        <time>2020-06-14T14:42:27.000Z</time>
      </trkpt>
      <trkpt lat="43.65473" lon="3.76195">
        <ele>99.31299968</ele>
        <time>2020-06-14T14:42:28.000Z</time>
      </trkpt>
      <trkpt lat="43.65478" lon="3.76196">
        <ele>99.21299968</ele>
        <time>2020-06-14T14:42:29.000Z</time>
      </trkpt>
      <trkpt lat="43.65483" lon="3.76197">
        <ele>99.11299968</ele>
        <time>2020-06-14T14:42:30.000Z</time>
      </trkpt>
      <trkpt lat="43.65489" lon="3.76198">
        <ele>99.01299968</ele>
        <time>2020-06-14T14:42:31.000Z</time>
      </trkpt>
      <trkpt lat="43.65495" lon="3.762">
        <ele>98.913173388791</ele>
        <time>2020-06-14T14:42:32.000Z</time>
      </trkpt>
      <trkpt lat="43.655" lon="3.76203">
        <ele>98.813373053335</ele>
        <time>2020-06-14T14:42:33.000Z</time>
      </trkpt>
      <trkpt lat="43.65505" lon="3.76206">
        <ele>98.713572717878</ele>
        <time>2020-06-14T14:42:34.000Z</time>
      </trkpt>
      <trkpt lat="43.6551" lon="3.76209">
        <ele>98.613772382421</ele>
        <time>2020-06-14T14:42:35.000Z</time>
      </trkpt>
      <trkpt lat="43.65515" lon="3.76214">
        <ele>98.513972046964</ele>
        <time>2020-06-14T14:42:36.000Z</time>
      </trkpt>
      <trkpt lat="43.65519" lon="3.7622">
        <ele>98.414171711507</ele>
        <time>2020-06-14T14:42:37.000Z</time>
      </trkpt>
      <trkpt lat="43.65522" lon="3.76226">
        <ele>98.31437137605</ele>
        <time>2020-06-14T14:42:38.000Z</time>
      </trkpt>
      <trkpt lat="43.65525" lon="3.76233">
        <ele>98.214571040593</ele>
        <time>2020-06-14T14:42:39.000Z</time>
      </trkpt>
      <trkpt lat="43.65528" lon="3.76239">
        <ele>98.114770705136</ele>
        <time>2020-06-14T14:42:40.000Z</time>
      </trkpt>
      <trkpt lat="43.65531" lon="3.76246">
        <ele>98.01497036968</ele>
        <time>2020-06-14T14:42:41.000Z</time>
      </trkpt>
      <trkpt lat="43.65533" lon="3.76252">
        <ele>98</ele>
        <time>2020-06-14T14:42:42.000Z</time>
      </trkpt>
      <trkpt lat="43.65535" lon="3.76258">
        <ele>98</ele>
        <time>2020-06-14T14:42:43.000Z</time>
      </trkpt>
      <trkpt lat="43.65538" lon="3.76264">
        <ele>98</ele>
        <time>2020-06-14T14:42:44.000Z</time>
      </trkpt>
      <trkpt lat="43.6554" lon="3.7627">
        <ele>98</ele>
        <time>2020-06-14T14:42:45.000Z</time>
      </trkpt>
      <trkpt lat="43.65542" lon="3.76276">
        <ele>98</ele>
        <time>2020-06-14T14:42:46.000Z</time>
      </trkpt>
      <trkpt lat="43.65544" lon="3.76282">
        <ele>98</ele>
        <time>2020-06-14T14:42:47.000Z</time>
      </trkpt>
      <trkpt lat="43.65546" lon="3.76288">
        <ele>98</ele>
        <time>2020-06-14T14:42:48.000Z</time>
      </trkpt>
      <trkpt lat="43.65549" lon="3.76294">
        <ele>98</ele>
        <time>2020-06-14T14:42:49.000Z</time>
      </trkpt>
      <trkpt lat="43.65551" lon="3.763">
        <ele>98</ele>
        <time>2020-06-14T14:42:50.000Z</time>
      </trkpt>
      <trkpt lat="43.65553" lon="3.76306">
        <ele>98</ele>
        <time>2020-06-14T14:42:51.000Z</time>
      </trkpt>
      <trkpt lat="43.65554" lon="3.76313">
        <ele>98</ele>
        <time>2020-06-14T14:42:52.000Z</time>
      </trkpt>
      <trkpt lat="43.65556" lon="3.76319">
        <ele>98</ele>
        <time>2020-06-14T14:42:53.000Z</time>
      </trkpt>
      <trkpt lat="43.65557" lon="3.76326">
        <ele>98</ele>
        <time>2020-06-14T14:42:54.000Z</time>
      </trkpt>
      <trkpt lat="43.65559" lon="3.76334">
        <ele>98</ele>
        <time>2020-06-14T14:42:55.000Z</time>
      </trkpt>
      <trkpt lat="43.6556" lon="3.76342">
        <ele>98</ele>
        <time>2020-06-14T14:42:56.000Z</time>
      </trkpt>
      <trkpt lat="43.65561" lon="3.76349">
        <ele>98</ele>
        <time>2020-06-14T14:42:57.000Z</time>
      </trkpt>
      <trkpt lat="43.65562" lon="3.76357">
        <ele>98</ele>
        <time>2020-06-14T14:42:58.000Z</time>
      </trkpt>
      <trkpt lat="43.65563" lon="3.76364">
        <ele>98</ele>
        <time>2020-06-14T14:42:59.000Z</time>
      </trkpt>
      <trkpt lat="43.65564" lon="3.76371">
        <ele>98</ele>
        <time>2020-06-14T14:43:00.000Z</time>
      </trkpt>
      <trkpt lat="43.65565" lon="3.76378">
        <ele>98</ele>
        <time>2020-06-14T14:43:01.000Z</time>
      </trkpt>
      <trkpt lat="43.65567" lon="3.76385">
        <ele>97.913913300849</ele>
        <time>2020-06-14T14:43:02.000Z</time>
      </trkpt>
      <trkpt lat="43.65568" lon="3.76391">
        <ele>97.813813232813</ele>
        <time>2020-06-14T14:43:03.000Z</time>
      </trkpt>
      <trkpt lat="43.65569" lon="3.76397">
        <ele>97.713713164777</ele>
        <time>2020-06-14T14:43:04.000Z</time>
      </trkpt>
      <trkpt lat="43.6557" lon="3.76402">
        <ele>97.613613096741</ele>
        <time>2020-06-14T14:43:05.000Z</time>
      </trkpt>
      <trkpt lat="43.65572" lon="3.76408">
        <ele>97.513513028704</ele>
        <time>2020-06-14T14:43:06.000Z</time>
      </trkpt>
      <trkpt lat="43.65574" lon="3.76413">
        <ele>97.413412960668</ele>
        <time>2020-06-14T14:43:07.000Z</time>
      </trkpt>
      <trkpt lat="43.65575" lon="3.76418">
        <ele>97.313312892632</ele>
        <time>2020-06-14T14:43:08.000Z</time>
      </trkpt>
      <trkpt lat="43.65577" lon="3.76423">
        <ele>97.213212824596</ele>
        <time>2020-06-14T14:43:09.000Z</time>
      </trkpt>
      <trkpt lat="43.65578" lon="3.76428">
        <ele>97.11311275656</ele>
        <time>2020-06-14T14:43:10.000Z</time>
      </trkpt>
      <trkpt lat="43.65579" lon="3.76432">
        <ele>97.013012688524</ele>
        <time>2020-06-14T14:43:11.000Z</time>
      </trkpt>
      <trkpt lat="43.6558" lon="3.76436">
        <ele>97</ele>
        <time>2020-06-14T14:43:12.000Z</time>
      </trkpt>
      <trkpt lat="43.65581" lon="3.7644">
        <ele>97</ele>
        <time>2020-06-14T14:43:13.000Z</time>
      </trkpt>
      <trkpt lat="43.65582" lon="3.76443">
        <ele>97</ele>
        <time>2020-06-14T14:43:14.000Z</time>
      </trkpt>
      <trkpt lat="43.65584" lon="3.76447">
        <ele>97</ele>
        <time>2020-06-14T14:43:15.000Z</time>
      </trkpt>
      <trkpt lat="43.65585" lon="3.76451">
        <ele>97</ele>
        <time>2020-06-14T14:43:16.000Z</time>
      </trkpt>
      <trkpt lat="43.65586" lon="3.76456">
        <ele>97</ele>
        <time>2020-06-14T14:43:17.000Z</time>
      </trkpt>
      <trkpt lat="43.65587" lon="3.7646">
        <ele>97</ele>
        <time>2020-06-14T14:43:18.000Z</time>
      </trkpt>
      <trkpt lat="43.65588" lon="3.76464">
        <ele>97</ele>
        <time>2020-06-14T14:43:19.000Z</time>
      </trkpt>
      <trkpt lat="43.6559" lon="3.76468">
        <ele>97</ele>
        <time>2020-06-14T14:43:20.000Z</time>
      </trkpt>
      <trkpt lat="43.65591" lon="3.76473">
        <ele>97</ele>
        <time>2020-06-14T14:43:21.000Z</time>
      </trkpt>
      <trkpt lat="43.65592" lon="3.76477">
        <ele>97</ele>
        <time>2020-06-14T14:43:22.000Z</time>
      </trkpt>
      <trkpt lat="43.65593" lon="3.76481">
        <ele>97</ele>
        <time>2020-06-14T14:43:23.000Z</time>
      </trkpt>
      <trkpt lat="43.65594" lon="3.76486">
        <ele>97</ele>
        <time>2020-06-14T14:43:24.000Z</time>
      </trkpt>
      <trkpt lat="43.65595" lon="3.76491">
        <ele>97</ele>
        <time>2020-06-14T14:43:25.000Z</time>
      </trkpt>
      <trkpt lat="43.65597" lon="3.76496">
        <ele>97</ele>
        <time>2020-06-14T14:43:26.000Z</time>
      </trkpt>
      <trkpt lat="43.65598" lon="3.76502">
        <ele>97</ele>
        <time>2020-06-14T14:43:27.000Z</time>
      </trkpt>
      <trkpt lat="43.65599" lon="3.76507">
        <ele>97</ele>
        <time>2020-06-14T14:43:28.000Z</time>
      </trkpt>
      <trkpt lat="43.656" lon="3.76512">
        <ele>97</ele>
        <time>2020-06-14T14:43:29.000Z</time>
      </trkpt>
      <trkpt lat="43.65601" lon="3.76517">
        <ele>97</ele>
        <time>2020-06-14T14:43:30.000Z</time>
      </trkpt>
      <trkpt lat="43.65602" lon="3.76523">
        <ele>97</ele>
        <time>2020-06-14T14:43:31.000Z</time>
      </trkpt>
      <trkpt lat="43.65604" lon="3.76528">
        <ele>96.94026836525</ele>
        <time>2020-06-14T14:43:32.000Z</time>
      </trkpt>
      <trkpt lat="43.65605" lon="3.76534">
        <ele>96.837281651689</ele>
        <time>2020-06-14T14:43:33.000Z</time>
      </trkpt>
      <trkpt lat="43.65607" lon="3.7654">
        <ele>96.734294938129</ele>
        <time>2020-06-14T14:43:34.000Z</time>
      </trkpt>
      <trkpt lat="43.65608" lon="3.76545">
        <ele>96.631308224568</ele>
        <time>2020-06-14T14:43:35.000Z</time>
      </trkpt>
      <trkpt lat="43.65609" lon="3.76551">
        <ele>96.528321511008</ele>
        <time>2020-06-14T14:43:36.000Z</time>
      </trkpt>
      <trkpt lat="43.65611" lon="3.76557">
        <ele>96.425334797447</ele>
        <time>2020-06-14T14:43:37.000Z</time>
      </trkpt>
      <trkpt lat="43.65612" lon="3.76562">
        <ele>96.322348083887</ele>
        <time>2020-06-14T14:43:38.000Z</time>
      </trkpt>
      <trkpt lat="43.65613" lon="3.76568">
        <ele>96.219361370326</ele>
        <time>2020-06-14T14:43:39.000Z</time>
      </trkpt>
      <trkpt lat="43.65615" lon="3.76573">
        <ele>96.116374656766</ele>
        <time>2020-06-14T14:43:40.000Z</time>
      </trkpt>
      <trkpt lat="43.65616" lon="3.76578">
        <ele>96.013387943205</ele>
        <time>2020-06-14T14:43:41.000Z</time>
      </trkpt>
      <trkpt lat="43.65619" lon="3.76582">
        <ele>95.91299968</ele>
        <time>2020-06-14T14:43:42.000Z</time>
      </trkpt>
      <trkpt lat="43.65622" lon="3.76584">
        <ele>95.81299968</ele>
        <time>2020-06-14T14:43:43.000Z</time>
      </trkpt>
      <trkpt lat="43.65626" lon="3.76584">
        <ele>95.71299968</ele>
        <time>2020-06-14T14:43:44.000Z</time>
      </trkpt>
      <trkpt lat="43.6563" lon="3.76584">
        <ele>95.61299968</ele>
        <time>2020-06-14T14:43:45.000Z</time>
      </trkpt>
      <trkpt lat="43.65635" lon="3.76585">
        <ele>95.51299968</ele>
        <time>2020-06-14T14:43:46.000Z</time>
      </trkpt>
      <trkpt lat="43.6564" lon="3.76586">
        <ele>95.41299968</ele>
        <time>2020-06-14T14:43:47.000Z</time>
      </trkpt>
      <trkpt lat="43.65644" lon="3.76588">
        <ele>95.31299968</ele>
        <time>2020-06-14T14:43:48.000Z</time>
      </trkpt>
      <trkpt lat="43.65648" lon="3.76591">
        <ele>95.21299968</ele>
        <time>2020-06-14T14:43:49.000Z</time>
      </trkpt>
      <trkpt lat="43.65651" lon="3.76595">
        <ele>95.11299968</ele>
        <time>2020-06-14T14:43:50.000Z</time>
      </trkpt>
      <trkpt lat="43.65654" lon="3.76599">
        <ele>95.01299968</ele>
        <time>2020-06-14T14:43:51.000Z</time>
      </trkpt>
      <trkpt lat="43.65656" lon="3.76603">
        <ele>94.91299968</ele>
        <time>2020-06-14T14:43:52.000Z</time>
      </trkpt>
      <trkpt lat="43.65658" lon="3.76606">
        <ele>94.81299968</ele>
        <time>2020-06-14T14:43:53.000Z</time>
      </trkpt>
      <trkpt lat="43.6566" lon="3.7661">
        <ele>94.71299968</ele>
        <time>2020-06-14T14:43:54.000Z</time>
      </trkpt>
      <trkpt lat="43.65662" lon="3.76613">
        <ele>94.61299968</ele>
        <time>2020-06-14T14:43:55.000Z</time>
      </trkpt>
      <trkpt lat="43.65664" lon="3.76617">
        <ele>94.51299968</ele>
        <time>2020-06-14T14:43:56.000Z</time>
      </trkpt>
      <trkpt lat="43.65666" lon="3.76622">
        <ele>94.41299968</ele>
        <time>2020-06-14T14:43:57.000Z</time>
      </trkpt>
      <trkpt lat="43.65668" lon="3.76626">
        <ele>94.31299968</ele>
        <time>2020-06-14T14:43:58.000Z</time>
      </trkpt>
      <trkpt lat="43.65669" lon="3.7663">
        <ele>94.21299968</ele>
        <time>2020-06-14T14:43:59.000Z</time>
      </trkpt>
      <trkpt lat="43.65671" lon="3.76635">
        <ele>94.11299968</ele>
        <time>2020-06-14T14:44:00.000Z</time>
      </trkpt>
      <trkpt lat="43.65672" lon="3.76639">
        <ele>94.01299968</ele>
        <time>2020-06-14T14:44:01.000Z</time>
      </trkpt>
      <trkpt lat="43.65672" lon="3.76644">
        <ele>93.915451662941</ele>
        <time>2020-06-14T14:44:02.000Z</time>
      </trkpt>
      <trkpt lat="43.65673" lon="3.7665">
        <ele>93.818270023771</ele>
        <time>2020-06-14T14:44:03.000Z</time>
      </trkpt>
      <trkpt lat="43.65673" lon="3.76655">
        <ele>93.721088384602</ele>
        <time>2020-06-14T14:44:04.000Z</time>
      </trkpt>
      <trkpt lat="43.65673" lon="3.7666">
        <ele>93.623906745432</ele>
        <time>2020-06-14T14:44:05.000Z</time>
      </trkpt>
      <trkpt lat="43.65674" lon="3.76665">
        <ele>93.526725106262</ele>
        <time>2020-06-14T14:44:06.000Z</time>
      </trkpt>
      <trkpt lat="43.65674" lon="3.7667">
        <ele>93.429543467093</ele>
        <time>2020-06-14T14:44:07.000Z</time>
      </trkpt>
      <trkpt lat="43.65675" lon="3.76674">
        <ele>93.332361827923</ele>
        <time>2020-06-14T14:44:08.000Z</time>
      </trkpt>
      <trkpt lat="43.65676" lon="3.76677">
        <ele>93.235180188753</ele>
        <time>2020-06-14T14:44:09.000Z</time>
      </trkpt>
      <trkpt lat="43.65678" lon="3.76678">
        <ele>93.137998549584</ele>
        <time>2020-06-14T14:44:10.000Z</time>
      </trkpt>
      <trkpt lat="43.65681" lon="3.7668">
        <ele>93.040816910414</ele>
        <time>2020-06-14T14:44:11.000Z</time>
      </trkpt>
      <trkpt lat="43.65683" lon="3.76682">
        <ele>92.94026836525</ele>
        <time>2020-06-14T14:44:12.000Z</time>
      </trkpt>
      <trkpt lat="43.65685" lon="3.76685">
        <ele>92.837281651689</ele>
        <time>2020-06-14T14:44:13.000Z</time>
      </trkpt>
      <trkpt lat="43.65687" lon="3.76688">
        <ele>92.734294938129</ele>
        <time>2020-06-14T14:44:14.000Z</time>
      </trkpt>
      <trkpt lat="43.65689" lon="3.7669">
        <ele>92.631308224568</ele>
        <time>2020-06-14T14:44:15.000Z</time>
      </trkpt>
      <trkpt lat="43.65692" lon="3.7669">
        <ele>92.425334797447</ele>
        <time>2020-06-14T14:44:17.000Z</time>
      </trkpt>
      <trkpt lat="43.65695" lon="3.76691">
        <ele>92.219361370326</ele>
        <time>2020-06-14T14:44:19.000Z</time>
      </trkpt>
      <trkpt lat="43.65696" lon="3.76693">
        <ele>92.116374656766</ele>
        <time>2020-06-14T14:44:20.000Z</time>
      </trkpt>
      <trkpt lat="43.65697" lon="3.76695">
        <ele>92.013387943205</ele>
        <time>2020-06-14T14:44:21.000Z</time>
      </trkpt>
      <trkpt lat="43.65699" lon="3.76698">
        <ele>92</ele>
        <time>2020-06-14T14:44:22.000Z</time>
      </trkpt>
      <trkpt lat="43.657" lon="3.76701">
        <ele>92</ele>
        <time>2020-06-14T14:44:23.000Z</time>
      </trkpt>
      <trkpt lat="43.65702" lon="3.76702">
        <ele>92</ele>
        <time>2020-06-14T14:44:24.000Z</time>
      </trkpt>
      <trkpt lat="43.65704" lon="3.76704">
        <ele>92</ele>
        <time>2020-06-14T14:44:25.000Z</time>
      </trkpt>
      <trkpt lat="43.65705" lon="3.76707">
        <ele>92</ele>
        <time>2020-06-14T14:44:26.000Z</time>
      </trkpt>
      <trkpt lat="43.65707" lon="3.76709">
        <ele>92</ele>
        <time>2020-06-14T14:44:27.000Z</time>
      </trkpt>
      <trkpt lat="43.65708" lon="3.76712">
        <ele>92</ele>
        <time>2020-06-14T14:44:28.000Z</time>
      </trkpt>
      <trkpt lat="43.65709" lon="3.76716">
        <ele>92</ele>
        <time>2020-06-14T14:44:29.000Z</time>
      </trkpt>
      <trkpt lat="43.6571" lon="3.76719">
        <ele>92</ele>
        <time>2020-06-14T14:44:30.000Z</time>
      </trkpt>
      <trkpt lat="43.65711" lon="3.76722">
        <ele>92</ele>
        <time>2020-06-14T14:44:31.000Z</time>
      </trkpt>
      <trkpt lat="43.65711" lon="3.76725">
        <ele>92</ele>
        <time>2020-06-14T14:44:32.000Z</time>
      </trkpt>
      <trkpt lat="43.6571" lon="3.76729">
        <ele>92</ele>
        <time>2020-06-14T14:44:34.000Z</time>
      </trkpt>
      <trkpt lat="43.65708" lon="3.76731">
        <ele>92</ele>
        <time>2020-06-14T14:44:35.000Z</time>
      </trkpt>
      <trkpt lat="43.65706" lon="3.76732">
        <ele>92</ele>
        <time>2020-06-14T14:44:36.000Z</time>
      </trkpt>
      <trkpt lat="43.65704" lon="3.76733">
        <ele>92</ele>
        <time>2020-06-14T14:44:37.000Z</time>
      </trkpt>
      <trkpt lat="43.65702" lon="3.76734">
        <ele>92</ele>
        <time>2020-06-14T14:44:38.000Z</time>
      </trkpt>
      <trkpt lat="43.657" lon="3.76736">
        <ele>92</ele>
        <time>2020-06-14T14:44:39.000Z</time>
      </trkpt>
      <trkpt lat="43.65698" lon="3.76738">
        <ele>92</ele>
        <time>2020-06-14T14:44:40.000Z</time>
      </trkpt>
      <trkpt lat="43.65696" lon="3.76741">
        <ele>92</ele>
        <time>2020-06-14T14:44:41.000Z</time>
      </trkpt>
      <trkpt lat="43.65695" lon="3.76743">
        <ele>92</ele>
        <time>2020-06-14T14:44:42.000Z</time>
      </trkpt>
      <trkpt lat="43.65693" lon="3.76746">
        <ele>92</ele>
        <time>2020-06-14T14:44:43.000Z</time>
      </trkpt>
      <trkpt lat="43.65691" lon="3.76749">
        <ele>92</ele>
        <time>2020-06-14T14:44:44.000Z</time>
      </trkpt>
      <trkpt lat="43.6569" lon="3.76751">
        <ele>92</ele>
        <time>2020-06-14T14:44:45.000Z</time>
      </trkpt>
      <trkpt lat="43.65688" lon="3.76754">
        <ele>92</ele>
        <time>2020-06-14T14:44:46.000Z</time>
      </trkpt>
      <trkpt lat="43.65687" lon="3.76756">
        <ele>92</ele>
        <time>2020-06-14T14:44:47.000Z</time>
      </trkpt>
      <trkpt lat="43.65685" lon="3.76758">
        <ele>92</ele>
        <time>2020-06-14T14:44:48.000Z</time>
      </trkpt>
      <trkpt lat="43.65683" lon="3.7676">
        <ele>92</ele>
        <time>2020-06-14T14:44:49.000Z</time>
      </trkpt>
      <trkpt lat="43.65682" lon="3.76763">
        <ele>92</ele>
        <time>2020-06-14T14:44:50.000Z</time>
      </trkpt>
      <trkpt lat="43.65681" lon="3.76765">
        <ele>92</ele>
        <time>2020-06-14T14:44:51.000Z</time>
      </trkpt>
      <trkpt lat="43.65679" lon="3.76767">
        <ele>92.08701317467</ele>
        <time>2020-06-14T14:44:52.000Z</time>
      </trkpt>
      <trkpt lat="43.65677" lon="3.76771">
        <ele>92.286813438342</ele>
        <time>2020-06-14T14:44:54.000Z</time>
      </trkpt>
      <trkpt lat="43.65675" lon="3.76774">
        <ele>92.486613702014</ele>
        <time>2020-06-14T14:44:56.000Z</time>
      </trkpt>
      <trkpt lat="43.65673" lon="3.76778">
        <ele>92.686413965687</ele>
        <time>2020-06-14T14:44:58.000Z</time>
      </trkpt>
      <trkpt lat="43.65671" lon="3.76782">
        <ele>92.886214229359</ele>
        <time>2020-06-14T14:45:00.000Z</time>
      </trkpt>
      <trkpt lat="43.6567" lon="3.76784">
        <ele>92.986114361195</ele>
        <time>2020-06-14T14:45:01.000Z</time>
      </trkpt>
      <trkpt lat="43.65669" lon="3.76786">
        <ele>93</ele>
        <time>2020-06-14T14:45:02.000Z</time>
      </trkpt>
      <trkpt lat="43.65668" lon="3.76789">
        <ele>93</ele>
        <time>2020-06-14T14:45:03.000Z</time>
      </trkpt>
      <trkpt lat="43.65666" lon="3.76791">
        <ele>93</ele>
        <time>2020-06-14T14:45:04.000Z</time>
      </trkpt>
      <trkpt lat="43.65665" lon="3.76793">
        <ele>93</ele>
        <time>2020-06-14T14:45:05.000Z</time>
      </trkpt>
      <trkpt lat="43.65664" lon="3.76795">
        <ele>93</ele>
        <time>2020-06-14T14:45:06.000Z</time>
      </trkpt>
      <trkpt lat="43.65663" lon="3.76798">
        <ele>93</ele>
        <time>2020-06-14T14:45:07.000Z</time>
      </trkpt>
      <trkpt lat="43.65661" lon="3.76799">
        <ele>93</ele>
        <time>2020-06-14T14:45:08.000Z</time>
      </trkpt>
      <trkpt lat="43.6566" lon="3.76801">
        <ele>93</ele>
        <time>2020-06-14T14:45:09.000Z</time>
      </trkpt>
      <trkpt lat="43.65658" lon="3.76803">
        <ele>93</ele>
        <time>2020-06-14T14:45:10.000Z</time>
      </trkpt>
      <trkpt lat="43.65657" lon="3.76805">
        <ele>93</ele>
        <time>2020-06-14T14:45:11.000Z</time>
      </trkpt>
      <trkpt lat="43.65656" lon="3.76807">
        <ele>93.059737777104</ele>
        <time>2020-06-14T14:45:12.000Z</time>
      </trkpt>
      <trkpt lat="43.65655" lon="3.7681">
        <ele>93.162735081047</ele>
        <time>2020-06-14T14:45:13.000Z</time>
      </trkpt>
      <trkpt lat="43.65654" lon="3.76812">
        <ele>93.265732384989</ele>
        <time>2020-06-14T14:45:14.000Z</time>
      </trkpt>
      <trkpt lat="43.65653" lon="3.76815">
        <ele>93.368729688932</ele>
        <time>2020-06-14T14:45:15.000Z</time>
      </trkpt>
      <trkpt lat="43.65652" lon="3.76818">
        <ele>93.471726992874</ele>
        <time>2020-06-14T14:45:16.000Z</time>
      </trkpt>
      <trkpt lat="43.65651" lon="3.76821">
        <ele>93.574724296817</ele>
        <time>2020-06-14T14:45:17.000Z</time>
      </trkpt>
      <trkpt lat="43.6565" lon="3.76823">
        <ele>93.677721600759</ele>
        <time>2020-06-14T14:45:18.000Z</time>
      </trkpt>
      <trkpt lat="43.65649" lon="3.76826">
        <ele>93.780718904702</ele>
        <time>2020-06-14T14:45:19.000Z</time>
      </trkpt>
      <trkpt lat="43.65649" lon="3.76829">
        <ele>93.883716208645</ele>
        <time>2020-06-14T14:45:20.000Z</time>
      </trkpt>
      <trkpt lat="43.65648" lon="3.76833">
        <ele>93.986713512587</ele>
        <time>2020-06-14T14:45:21.000Z</time>
      </trkpt>
      <trkpt lat="43.65647" lon="3.76836">
        <ele>94.08710016</ele>
        <time>2020-06-14T14:45:22.000Z</time>
      </trkpt>
      <trkpt lat="43.65646" lon="3.76839">
        <ele>94.18710016</ele>
        <time>2020-06-14T14:45:23.000Z</time>
      </trkpt>
      <trkpt lat="43.65645" lon="3.76842">
        <ele>94.28710016</ele>
        <time>2020-06-14T14:45:24.000Z</time>
      </trkpt>
      <trkpt lat="43.65644" lon="3.76845">
        <ele>94.38710016</ele>
        <time>2020-06-14T14:45:25.000Z</time>
      </trkpt>
      <trkpt lat="43.65642" lon="3.76848">
        <ele>94.48710016</ele>
        <time>2020-06-14T14:45:26.000Z</time>
      </trkpt>
      <trkpt lat="43.6564" lon="3.76851">
        <ele>94.58710016</ele>
        <time>2020-06-14T14:45:27.000Z</time>
      </trkpt>
      <trkpt lat="43.65639" lon="3.76854">
        <ele>94.68710016</ele>
        <time>2020-06-14T14:45:28.000Z</time>
      </trkpt>
      <trkpt lat="43.65637" lon="3.76857">
        <ele>94.78710016</ele>
        <time>2020-06-14T14:45:29.000Z</time>
      </trkpt>
      <trkpt lat="43.65635" lon="3.7686">
        <ele>94.88710016</ele>
        <time>2020-06-14T14:45:30.000Z</time>
      </trkpt>
      <trkpt lat="43.65633" lon="3.76863">
        <ele>94.98710016</ele>
        <time>2020-06-14T14:45:31.000Z</time>
      </trkpt>
      <trkpt lat="43.65631" lon="3.76866">
        <ele>95</ele>
        <time>2020-06-14T14:45:32.000Z</time>
      </trkpt>
      <trkpt lat="43.65629" lon="3.76868">
        <ele>95</ele>
        <time>2020-06-14T14:45:33.000Z</time>
      </trkpt>
      <trkpt lat="43.65628" lon="3.76871">
        <ele>95</ele>
        <time>2020-06-14T14:45:34.000Z</time>
      </trkpt>
      <trkpt lat="43.65626" lon="3.76873">
        <ele>95</ele>
        <time>2020-06-14T14:45:35.000Z</time>
      </trkpt>
      <trkpt lat="43.65624" lon="3.76876">
        <ele>95</ele>
        <time>2020-06-14T14:45:36.000Z</time>
      </trkpt>
      <trkpt lat="43.65622" lon="3.76878">
        <ele>95</ele>
        <time>2020-06-14T14:45:37.000Z</time>
      </trkpt>
      <trkpt lat="43.6562" lon="3.76881">
        <ele>95</ele>
        <time>2020-06-14T14:45:38.000Z</time>
      </trkpt>
      <trkpt lat="43.65619" lon="3.76883">
        <ele>95</ele>
        <time>2020-06-14T14:45:39.000Z</time>
      </trkpt>
      <trkpt lat="43.65618" lon="3.76885">
        <ele>95</ele>
        <time>2020-06-14T14:45:40.000Z</time>
      </trkpt>
      <trkpt lat="43.65617" lon="3.76887">
        <ele>95</ele>
        <time>2020-06-14T14:45:41.000Z</time>
      </trkpt>
      <trkpt lat="43.65615" lon="3.76889">
        <ele>95.08710016</ele>
        <time>2020-06-14T14:45:42.000Z</time>
      </trkpt>
      <trkpt lat="43.65614" lon="3.76892">
        <ele>95.18710016</ele>
        <time>2020-06-14T14:45:43.000Z</time>
      </trkpt>
      <trkpt lat="43.65613" lon="3.76894">
        <ele>95.28710016</ele>
        <time>2020-06-14T14:45:44.000Z</time>
      </trkpt>
      <trkpt lat="43.65612" lon="3.76897">
        <ele>95.38710016</ele>
        <time>2020-06-14T14:45:45.000Z</time>
      </trkpt>
      <trkpt lat="43.65611" lon="3.769">
        <ele>95.48710016</ele>
        <time>2020-06-14T14:45:46.000Z</time>
      </trkpt>
      <trkpt lat="43.6561" lon="3.76903">
        <ele>95.58710016</ele>
        <time>2020-06-14T14:45:47.000Z</time>
      </trkpt>
      <trkpt lat="43.65609" lon="3.76906">
        <ele>95.68710016</ele>
        <time>2020-06-14T14:45:48.000Z</time>
      </trkpt>
      <trkpt lat="43.6561" lon="3.76909">
        <ele>95.78710016</ele>
        <time>2020-06-14T14:45:49.000Z</time>
      </trkpt>
      <trkpt lat="43.6561" lon="3.76912">
        <ele>95.88710016</ele>
        <time>2020-06-14T14:45:50.000Z</time>
      </trkpt>
      <trkpt lat="43.65611" lon="3.76914">
        <ele>95.98710016</ele>
        <time>2020-06-14T14:45:51.000Z</time>
      </trkpt>
      <trkpt lat="43.65612" lon="3.76919">
        <ele>96.18710016</ele>
        <time>2020-06-14T14:45:53.000Z</time>
      </trkpt>
      <trkpt lat="43.65613" lon="3.76921">
        <ele>96.28710016</ele>
        <time>2020-06-14T14:45:54.000Z</time>
      </trkpt>
      <trkpt lat="43.65616" lon="3.76924">
        <ele>96.48710016</ele>
        <time>2020-06-14T14:45:56.000Z</time>
      </trkpt>
      <trkpt lat="43.65619" lon="3.76923">
        <ele>96.68710016</ele>
        <time>2020-06-14T14:45:58.000Z</time>
      </trkpt>
      <trkpt lat="43.65621" lon="3.76923">
        <ele>96.78710016</ele>
        <time>2020-06-14T14:45:59.000Z</time>
      </trkpt>
      <trkpt lat="43.65623" lon="3.76923">
        <ele>96.88710016</ele>
        <time>2020-06-14T14:46:00.000Z</time>
      </trkpt>
      <trkpt lat="43.65626" lon="3.76923">
        <ele>96.98710016</ele>
        <time>2020-06-14T14:46:01.000Z</time>
      </trkpt>
      <trkpt lat="43.65628" lon="3.76923">
        <ele>97.08710016</ele>
        <time>2020-06-14T14:46:02.000Z</time>
      </trkpt>
      <trkpt lat="43.65631" lon="3.76923">
        <ele>97.18710016</ele>
        <time>2020-06-14T14:46:03.000Z</time>
      </trkpt>
      <trkpt lat="43.65633" lon="3.76923">
        <ele>97.28710016</ele>
        <time>2020-06-14T14:46:04.000Z</time>
      </trkpt>
      <trkpt lat="43.65635" lon="3.76923">
        <ele>97.38710016</ele>
        <time>2020-06-14T14:46:05.000Z</time>
      </trkpt>
      <trkpt lat="43.65637" lon="3.76924">
        <ele>97.48710016</ele>
        <time>2020-06-14T14:46:06.000Z</time>
      </trkpt>
      <trkpt lat="43.6564" lon="3.76923">
        <ele>97.68710016</ele>
        <time>2020-06-14T14:46:08.000Z</time>
      </trkpt>
      <trkpt lat="43.65642" lon="3.76923">
        <ele>97.78710016</ele>
        <time>2020-06-14T14:46:09.000Z</time>
      </trkpt>
      <trkpt lat="43.65644" lon="3.76922">
        <ele>97.88710016</ele>
        <time>2020-06-14T14:46:10.000Z</time>
      </trkpt>
      <trkpt lat="43.65646" lon="3.76922">
        <ele>97.98710016</ele>
        <time>2020-06-14T14:46:11.000Z</time>
      </trkpt>
      <trkpt lat="43.65647" lon="3.76921">
        <ele>98.08701317467</ele>
        <time>2020-06-14T14:46:12.000Z</time>
      </trkpt>
      <trkpt lat="43.65649" lon="3.76921">
        <ele>98.186913306506</ele>
        <time>2020-06-14T14:46:13.000Z</time>
      </trkpt>
      <trkpt lat="43.65651" lon="3.7692">
        <ele>98.286813438342</ele>
        <time>2020-06-14T14:46:14.000Z</time>
      </trkpt>
      <trkpt lat="43.65653" lon="3.76919">
        <ele>98.386713570178</ele>
        <time>2020-06-14T14:46:15.000Z</time>
      </trkpt>
      <trkpt lat="43.65655" lon="3.76918">
        <ele>98.486613702014</ele>
        <time>2020-06-14T14:46:16.000Z</time>
      </trkpt>
      <trkpt lat="43.65657" lon="3.76918">
        <ele>98.586513833851</ele>
        <time>2020-06-14T14:46:17.000Z</time>
      </trkpt>
      <trkpt lat="43.65659" lon="3.76917">
        <ele>98.686413965687</ele>
        <time>2020-06-14T14:46:18.000Z</time>
      </trkpt>
      <trkpt lat="43.65661" lon="3.76917">
        <ele>98.786314097523</ele>
        <time>2020-06-14T14:46:19.000Z</time>
      </trkpt>
      <trkpt lat="43.65663" lon="3.76916">
        <ele>98.886214229359</ele>
        <time>2020-06-14T14:46:20.000Z</time>
      </trkpt>
      <trkpt lat="43.65665" lon="3.76916">
        <ele>98.986114361195</ele>
        <time>2020-06-14T14:46:21.000Z</time>
      </trkpt>
      <trkpt lat="43.65669" lon="3.76916">
        <ele>99.371420798042</ele>
        <time>2020-06-14T14:46:23.000Z</time>
      </trkpt>
      <trkpt lat="43.65671" lon="3.76915">
        <ele>99.571001582596</ele>
        <time>2020-06-14T14:46:24.000Z</time>
      </trkpt>
      <trkpt lat="43.65673" lon="3.76915">
        <ele>99.770582367149</ele>
        <time>2020-06-14T14:46:25.000Z</time>
      </trkpt>
      <trkpt lat="43.65675" lon="3.76914">
        <ele>99.970163151703</ele>
        <time>2020-06-14T14:46:26.000Z</time>
      </trkpt>
      <trkpt lat="43.65677" lon="3.76914">
        <ele>100.16974393626</ele>
        <time>2020-06-14T14:46:27.000Z</time>
      </trkpt>
      <trkpt lat="43.6568" lon="3.76915">
        <ele>100.56890550536</ele>
        <time>2020-06-14T14:46:29.000Z</time>
      </trkpt>
      <trkpt lat="43.6568" lon="3.76915">
        <ele>101</ele>
        <time>2020-06-14T14:46:35.000Z</time>
      </trkpt>
      <trkpt lat="43.65684" lon="3.76915">
        <ele>101</ele>
        <time>2020-06-14T14:49:59.000Z</time>
      </trkpt>
      <trkpt lat="43.65686" lon="3.76914">
        <ele>101</ele>
        <time>2020-06-14T14:50:01.000Z</time>
      </trkpt>
      <trkpt lat="43.65689" lon="3.76914">
        <ele>101</ele>
        <time>2020-06-14T14:50:03.000Z</time>
      </trkpt>
      <trkpt lat="43.65692" lon="3.76913">
        <ele>101</ele>
        <time>2020-06-14T14:50:05.000Z</time>
      </trkpt>
      <trkpt lat="43.65694" lon="3.76913">
        <ele>101</ele>
        <time>2020-06-14T14:50:07.000Z</time>
      </trkpt>
      <trkpt lat="43.65696" lon="3.76913">
        <ele>101</ele>
        <time>2020-06-14T14:50:09.000Z</time>
      </trkpt>
      <trkpt lat="43.65699" lon="3.76913">
        <ele>101.18172997623</ele>
        <time>2020-06-14T14:50:11.000Z</time>
      </trkpt>
      <trkpt lat="43.65702" lon="3.76913">
        <ele>101.37609325457</ele>
        <time>2020-06-14T14:50:13.000Z</time>
      </trkpt>
      <trkpt lat="43.65704" lon="3.76914">
        <ele>101.57045653291</ele>
        <time>2020-06-14T14:50:15.000Z</time>
      </trkpt>
      <trkpt lat="43.65706" lon="3.76915">
        <ele>101.76481981125</ele>
        <time>2020-06-14T14:50:17.000Z</time>
      </trkpt>
      <trkpt lat="43.65708" lon="3.76915">
        <ele>101.95918308959</ele>
        <time>2020-06-14T14:50:19.000Z</time>
      </trkpt>
      <trkpt lat="43.6571" lon="3.76916">
        <ele>102.16271834831</ele>
        <time>2020-06-14T14:50:21.000Z</time>
      </trkpt>
      <trkpt lat="43.65712" lon="3.76917">
        <ele>102.36869177543</ele>
        <time>2020-06-14T14:50:23.000Z</time>
      </trkpt>
      <trkpt lat="43.65714" lon="3.76918">
        <ele>102.57466520255</ele>
        <time>2020-06-14T14:50:25.000Z</time>
      </trkpt>
      <trkpt lat="43.65715" lon="3.76918">
        <ele>103</ele>
        <time>2020-06-14T14:50:30.000Z</time>
      </trkpt>
      <trkpt lat="43.6571" lon="3.76918">
        <ele>103.03361344538</ele>
        <time>2020-06-14T14:51:04.000Z</time>
      </trkpt>
      <trkpt lat="43.65711" lon="3.76917">
        <ele>103.9819004787</ele>
        <time>2020-06-14T14:51:09.000Z</time>
      </trkpt>
      <trkpt lat="43.65714" lon="3.76919">
        <ele>103.0769244135</ele>
        <time>2020-06-14T14:51:13.000Z</time>
      </trkpt>
      <trkpt lat="43.65715" lon="3.7692">
        <ele>103.13292376797</ele>
        <time>2020-06-14T14:51:14.000Z</time>
      </trkpt>
      <trkpt lat="43.65718" lon="3.76921">
        <ele>103.54192199062</ele>
        <time>2020-06-14T14:51:16.000Z</time>
      </trkpt>
      <trkpt lat="43.6572" lon="3.76921">
        <ele>103.74642110195</ele>
        <time>2020-06-14T14:51:17.000Z</time>
      </trkpt>
      <trkpt lat="43.65722" lon="3.76921">
        <ele>103.95092021328</ele>
        <time>2020-06-14T14:51:18.000Z</time>
      </trkpt>
      <trkpt lat="43.65724" lon="3.76922">
        <ele>104.15541932461</ele>
        <time>2020-06-14T14:51:19.000Z</time>
      </trkpt>
      <trkpt lat="43.65726" lon="3.76923">
        <ele>104.35991843594</ele>
        <time>2020-06-14T14:51:20.000Z</time>
      </trkpt>
      <trkpt lat="43.65728" lon="3.76924">
        <ele>104.56441754727</ele>
        <time>2020-06-14T14:51:21.000Z</time>
      </trkpt>
      <trkpt lat="43.6573" lon="3.76924">
        <ele>104.7689166586</ele>
        <time>2020-06-14T14:51:22.000Z</time>
      </trkpt>
      <trkpt lat="43.65733" lon="3.76925">
        <ele>105</ele>
        <time>2020-06-14T14:51:24.000Z</time>
      </trkpt>
      <trkpt lat="43.65735" lon="3.76925">
        <ele>105</ele>
        <time>2020-06-14T14:51:25.000Z</time>
      </trkpt>
      <trkpt lat="43.65737" lon="3.76925">
        <ele>105</ele>
        <time>2020-06-14T14:51:26.000Z</time>
      </trkpt>
      <trkpt lat="43.65739" lon="3.76925">
        <ele>105</ele>
        <time>2020-06-14T14:51:27.000Z</time>
      </trkpt>
      <trkpt lat="43.6574" lon="3.76926">
        <ele>105</ele>
        <time>2020-06-14T14:51:32.000Z</time>
      </trkpt>
      <trkpt lat="43.65744" lon="3.76926">
        <ele>106.989052818</ele>
        <time>2020-06-14T14:53:25.000Z</time>
      </trkpt>
      <trkpt lat="43.65746" lon="3.76928">
        <ele>106.71157942675</ele>
        <time>2020-06-14T14:53:27.000Z</time>
      </trkpt>
      <trkpt lat="43.65748" lon="3.76931">
        <ele>106.29052651151</ele>
        <time>2020-06-14T14:53:29.000Z</time>
      </trkpt>
      <trkpt lat="43.6575" lon="3.76933">
        <ele>105.86947359628</ele>
        <time>2020-06-14T14:53:31.000Z</time>
      </trkpt>
      <trkpt lat="43.65753" lon="3.76936">
        <ele>105.44842068104</ele>
        <time>2020-06-14T14:53:33.000Z</time>
      </trkpt>
      <trkpt lat="43.65755" lon="3.76938">
        <ele>105.23789422342</ele>
        <time>2020-06-14T14:53:34.000Z</time>
      </trkpt>
      <trkpt lat="43.65756" lon="3.7694">
        <ele>105.02736776581</ele>
        <time>2020-06-14T14:53:35.000Z</time>
      </trkpt>
      <trkpt lat="43.65758" lon="3.76941">
        <ele>105.08254294798</ele>
        <time>2020-06-14T14:53:36.000Z</time>
      </trkpt>
      <trkpt lat="43.6576" lon="3.76943">
        <ele>105.17741955071</ele>
        <time>2020-06-14T14:53:37.000Z</time>
      </trkpt>
      <trkpt lat="43.65761" lon="3.76945">
        <ele>105.27229615344</ele>
        <time>2020-06-14T14:53:38.000Z</time>
      </trkpt>
      <trkpt lat="43.65763" lon="3.76947">
        <ele>105.36717275618</ele>
        <time>2020-06-14T14:53:39.000Z</time>
      </trkpt>
      <trkpt lat="43.65765" lon="3.76948">
        <ele>105.46204935891</ele>
        <time>2020-06-14T14:53:40.000Z</time>
      </trkpt>
      <trkpt lat="43.65767" lon="3.7695">
        <ele>105.55692596164</ele>
        <time>2020-06-14T14:53:41.000Z</time>
      </trkpt>
      <trkpt lat="43.65769" lon="3.76951">
        <ele>105.65180256437</ele>
        <time>2020-06-14T14:53:42.000Z</time>
      </trkpt>
      <trkpt lat="43.65771" lon="3.76953">
        <ele>105.7466791671</ele>
        <time>2020-06-14T14:53:43.000Z</time>
      </trkpt>
      <trkpt lat="43.65773" lon="3.76954">
        <ele>105.84155576983</ele>
        <time>2020-06-14T14:53:44.000Z</time>
      </trkpt>
      <trkpt lat="43.65775" lon="3.76955">
        <ele>105.93643237256</ele>
        <time>2020-06-14T14:53:45.000Z</time>
      </trkpt>
      <trkpt lat="43.65777" lon="3.76957">
        <ele>106.03441049947</ele>
        <time>2020-06-14T14:53:46.000Z</time>
      </trkpt>
      <trkpt lat="43.65779" lon="3.76958">
        <ele>106.13868575143</ele>
        <time>2020-06-14T14:53:47.000Z</time>
      </trkpt>
      <trkpt lat="43.65781" lon="3.76959">
        <ele>106.24296100339</ele>
        <time>2020-06-14T14:53:48.000Z</time>
      </trkpt>
      <trkpt lat="43.65783" lon="3.76961">
        <ele>106.34723625535</ele>
        <time>2020-06-14T14:53:49.000Z</time>
      </trkpt>
      <trkpt lat="43.65785" lon="3.76962">
        <ele>106.45151150732</ele>
        <time>2020-06-14T14:53:50.000Z</time>
      </trkpt>
      <trkpt lat="43.65787" lon="3.76965">
        <ele>106.55578675928</ele>
        <time>2020-06-14T14:53:51.000Z</time>
      </trkpt>
      <trkpt lat="43.65788" lon="3.76967">
        <ele>106.66006201124</ele>
        <time>2020-06-14T14:53:52.000Z</time>
      </trkpt>
      <trkpt lat="43.6579" lon="3.76969">
        <ele>106.7643372632</ele>
        <time>2020-06-14T14:53:53.000Z</time>
      </trkpt>
      <trkpt lat="43.65791" lon="3.76971">
        <ele>106.86861251517</ele>
        <time>2020-06-14T14:53:54.000Z</time>
      </trkpt>
      <trkpt lat="43.65793" lon="3.76973">
        <ele>106.97288776713</ele>
        <time>2020-06-14T14:53:55.000Z</time>
      </trkpt>
      <trkpt lat="43.65794" lon="3.76975">
        <ele>107.14994819043</ele>
        <time>2020-06-14T14:53:56.000Z</time>
      </trkpt>
      <trkpt lat="43.65795" lon="3.76976">
        <ele>107.3525826327</ele>
        <time>2020-06-14T14:53:57.000Z</time>
      </trkpt>
      <trkpt lat="43.65797" lon="3.76978">
        <ele>107.55521707498</ele>
        <time>2020-06-14T14:53:58.000Z</time>
      </trkpt>
      <trkpt lat="43.65798" lon="3.76981">
        <ele>107.75785151726</ele>
        <time>2020-06-14T14:53:59.000Z</time>
      </trkpt>
      <trkpt lat="43.65799" lon="3.76985">
        <ele>108.16312040182</ele>
        <time>2020-06-14T14:54:01.000Z</time>
      </trkpt>
      <trkpt lat="43.658" lon="3.76987">
        <ele>108.3657548441</ele>
        <time>2020-06-14T14:54:02.000Z</time>
      </trkpt>
      <trkpt lat="43.65801" lon="3.7699">
        <ele>108.56838928638</ele>
        <time>2020-06-14T14:54:03.000Z</time>
      </trkpt>
      <trkpt lat="43.65802" lon="3.76994">
        <ele>108.97365817093</ele>
        <time>2020-06-14T14:54:05.000Z</time>
      </trkpt>
      <trkpt lat="43.65802" lon="3.76999">
        <ele>109.18700032</ele>
        <time>2020-06-14T14:54:07.000Z</time>
      </trkpt>
      <trkpt lat="43.65802" lon="3.77003">
        <ele>109.38700032</ele>
        <time>2020-06-14T14:54:09.000Z</time>
      </trkpt>
      <trkpt lat="43.65802" lon="3.77008">
        <ele>109.58700032</ele>
        <time>2020-06-14T14:54:11.000Z</time>
      </trkpt>
      <trkpt lat="43.65802" lon="3.77011">
        <ele>109.68700032</ele>
        <time>2020-06-14T14:54:12.000Z</time>
      </trkpt>
      <trkpt lat="43.65802" lon="3.77014">
        <ele>109.78700032</ele>
        <time>2020-06-14T14:54:13.000Z</time>
      </trkpt>
      <trkpt lat="43.65802" lon="3.77016">
        <ele>109.88700032</ele>
        <time>2020-06-14T14:54:14.000Z</time>
      </trkpt>
      <trkpt lat="43.65802" lon="3.77019">
        <ele>109.98700032</ele>
        <time>2020-06-14T14:54:15.000Z</time>
      </trkpt>
      <trkpt lat="43.65802" lon="3.77021">
        <ele>110</ele>
        <time>2020-06-14T14:54:16.000Z</time>
      </trkpt>
      <trkpt lat="43.65802" lon="3.77025">
        <ele>110</ele>
        <time>2020-06-14T14:54:17.000Z</time>
      </trkpt>
      <trkpt lat="43.65802" lon="3.77028">
        <ele>110</ele>
        <time>2020-06-14T14:54:18.000Z</time>
      </trkpt>
      <trkpt lat="43.65802" lon="3.77031">
        <ele>110</ele>
        <time>2020-06-14T14:54:19.000Z</time>
      </trkpt>
      <trkpt lat="43.65802" lon="3.77034">
        <ele>110</ele>
        <time>2020-06-14T14:54:20.000Z</time>
      </trkpt>
      <trkpt lat="43.65803" lon="3.77037">
        <ele>110</ele>
        <time>2020-06-14T14:54:21.000Z</time>
      </trkpt>
      <trkpt lat="43.65804" lon="3.77041">
        <ele>110</ele>
        <time>2020-06-14T14:54:22.000Z</time>
      </trkpt>
      <trkpt lat="43.65804" lon="3.77044">
        <ele>110</ele>
        <time>2020-06-14T14:54:23.000Z</time>
      </trkpt>
      <trkpt lat="43.65805" lon="3.77047">
        <ele>110</ele>
        <time>2020-06-14T14:54:24.000Z</time>
      </trkpt>
      <trkpt lat="43.65805" lon="3.7705">
        <ele>110</ele>
        <time>2020-06-14T14:54:25.000Z</time>
      </trkpt>
      <trkpt lat="43.65806" lon="3.77054">
        <ele>110</ele>
        <time>2020-06-14T14:54:26.000Z</time>
      </trkpt>
      <trkpt lat="43.65807" lon="3.77057">
        <ele>110</ele>
        <time>2020-06-14T14:54:27.000Z</time>
      </trkpt>
      <trkpt lat="43.65807" lon="3.7706">
        <ele>110</ele>
        <time>2020-06-14T14:54:28.000Z</time>
      </trkpt>
      <trkpt lat="43.65807" lon="3.77063">
        <ele>110</ele>
        <time>2020-06-14T14:54:29.000Z</time>
      </trkpt>
      <trkpt lat="43.65807" lon="3.77066">
        <ele>110</ele>
        <time>2020-06-14T14:54:30.000Z</time>
      </trkpt>
      <trkpt lat="43.65807" lon="3.77069">
        <ele>110</ele>
        <time>2020-06-14T14:54:31.000Z</time>
      </trkpt>
      <trkpt lat="43.65807" lon="3.77072">
        <ele>110</ele>
        <time>2020-06-14T14:54:32.000Z</time>
      </trkpt>
      <trkpt lat="43.65807" lon="3.77075">
        <ele>110</ele>
        <time>2020-06-14T14:54:33.000Z</time>
      </trkpt>
      <trkpt lat="43.65807" lon="3.77078">
        <ele>110</ele>
        <time>2020-06-14T14:54:34.000Z</time>
      </trkpt>
      <trkpt lat="43.65807" lon="3.77082">
        <ele>110</ele>
        <time>2020-06-14T14:54:35.000Z</time>
      </trkpt>
      <trkpt lat="43.65807" lon="3.77085">
        <ele>110.08390298483</ele>
        <time>2020-06-14T14:54:36.000Z</time>
      </trkpt>
      <trkpt lat="43.65807" lon="3.77088">
        <ele>110.18146386907</ele>
        <time>2020-06-14T14:54:37.000Z</time>
      </trkpt>
      <trkpt lat="43.65807" lon="3.77091">
        <ele>110.2790247533</ele>
        <time>2020-06-14T14:54:38.000Z</time>
      </trkpt>
      <trkpt lat="43.65808" lon="3.77095">
        <ele>110.37658563754</ele>
        <time>2020-06-14T14:54:39.000Z</time>
      </trkpt>
      <trkpt lat="43.65808" lon="3.77098">
        <ele>110.47414652177</ele>
        <time>2020-06-14T14:54:40.000Z</time>
      </trkpt>
      <trkpt lat="43.65808" lon="3.77101">
        <ele>110.57170740601</ele>
        <time>2020-06-14T14:54:41.000Z</time>
      </trkpt>
      <trkpt lat="43.65809" lon="3.77104">
        <ele>110.66926829025</ele>
        <time>2020-06-14T14:54:42.000Z</time>
      </trkpt>
      <trkpt lat="43.65809" lon="3.77107">
        <ele>110.76682917448</ele>
        <time>2020-06-14T14:54:43.000Z</time>
      </trkpt>
      <trkpt lat="43.6581" lon="3.7711">
        <ele>110.86439005872</ele>
        <time>2020-06-14T14:54:44.000Z</time>
      </trkpt>
      <trkpt lat="43.6581" lon="3.77113">
        <ele>110.96195094295</ele>
        <time>2020-06-14T14:54:45.000Z</time>
      </trkpt>
      <trkpt lat="43.65811" lon="3.77116">
        <ele>111.06262804937</ele>
        <time>2020-06-14T14:54:46.000Z</time>
      </trkpt>
      <trkpt lat="43.65811" lon="3.77119">
        <ele>111.16529752134</ele>
        <time>2020-06-14T14:54:47.000Z</time>
      </trkpt>
      <trkpt lat="43.65812" lon="3.77122">
        <ele>111.26796699333</ele>
        <time>2020-06-14T14:54:48.000Z</time>
      </trkpt>
      <trkpt lat="43.65813" lon="3.77124">
        <ele>111.3706364653</ele>
        <time>2020-06-14T14:54:49.000Z</time>
      </trkpt>
      <trkpt lat="43.65813" lon="3.77127">
        <ele>111.47330593729</ele>
        <time>2020-06-14T14:54:50.000Z</time>
      </trkpt>
      <trkpt lat="43.65814" lon="3.7713">
        <ele>111.57597540926</ele>
        <time>2020-06-14T14:54:51.000Z</time>
      </trkpt>
      <trkpt lat="43.65814" lon="3.77133">
        <ele>111.67864488125</ele>
        <time>2020-06-14T14:54:52.000Z</time>
      </trkpt>
      <trkpt lat="43.65814" lon="3.77136">
        <ele>111.78131435322</ele>
        <time>2020-06-14T14:54:53.000Z</time>
      </trkpt>
      <trkpt lat="43.65815" lon="3.77138">
        <ele>111.8839838252</ele>
        <time>2020-06-14T14:54:54.000Z</time>
      </trkpt>
      <trkpt lat="43.65815" lon="3.77141">
        <ele>111.98665329719</ele>
        <time>2020-06-14T14:54:55.000Z</time>
      </trkpt>
      <trkpt lat="43.65815" lon="3.77144">
        <ele>112</ele>
        <time>2020-06-14T14:54:56.000Z</time>
      </trkpt>
      <trkpt lat="43.65815" lon="3.77147">
        <ele>112</ele>
        <time>2020-06-14T14:54:57.000Z</time>
      </trkpt>
      <trkpt lat="43.65815" lon="3.7715">
        <ele>112</ele>
        <time>2020-06-14T14:54:58.000Z</time>
      </trkpt>
      <trkpt lat="43.65815" lon="3.77152">
        <ele>112</ele>
        <time>2020-06-14T14:54:59.000Z</time>
      </trkpt>
      <trkpt lat="43.65815" lon="3.77155">
        <ele>112</ele>
        <time>2020-06-14T14:55:00.000Z</time>
      </trkpt>
      <trkpt lat="43.65815" lon="3.77158">
        <ele>112</ele>
        <time>2020-06-14T14:55:01.000Z</time>
      </trkpt>
      <trkpt lat="43.65814" lon="3.7716">
        <ele>112</ele>
        <time>2020-06-14T14:55:02.000Z</time>
      </trkpt>
      <trkpt lat="43.65814" lon="3.77163">
        <ele>112</ele>
        <time>2020-06-14T14:55:03.000Z</time>
      </trkpt>
      <trkpt lat="43.65814" lon="3.77166">
        <ele>112</ele>
        <time>2020-06-14T14:55:04.000Z</time>
      </trkpt>
      <trkpt lat="43.65813" lon="3.77169">
        <ele>112</ele>
        <time>2020-06-14T14:55:05.000Z</time>
      </trkpt>
      <trkpt lat="43.65813" lon="3.77173">
        <ele>111.91391330085</ele>
        <time>2020-06-14T14:55:06.000Z</time>
      </trkpt>
      <trkpt lat="43.65812" lon="3.77176">
        <ele>111.81381323281</ele>
        <time>2020-06-14T14:55:07.000Z</time>
      </trkpt>
      <trkpt lat="43.65812" lon="3.77181">
        <ele>111.71371316478</ele>
        <time>2020-06-14T14:55:08.000Z</time>
      </trkpt>
      <trkpt lat="43.65811" lon="3.77185">
        <ele>111.61361309674</ele>
        <time>2020-06-14T14:55:09.000Z</time>
      </trkpt>
      <trkpt lat="43.6581" lon="3.7719">
        <ele>111.51351302871</ele>
        <time>2020-06-14T14:55:10.000Z</time>
      </trkpt>
      <trkpt lat="43.6581" lon="3.77194">
        <ele>111.41341296067</ele>
        <time>2020-06-14T14:55:11.000Z</time>
      </trkpt>
      <trkpt lat="43.65809" lon="3.77199">
        <ele>111.31331289263</ele>
        <time>2020-06-14T14:55:12.000Z</time>
      </trkpt>
      <trkpt lat="43.65809" lon="3.77204">
        <ele>111.2132128246</ele>
        <time>2020-06-14T14:55:13.000Z</time>
      </trkpt>
      <trkpt lat="43.65809" lon="3.77208">
        <ele>111.11311275656</ele>
        <time>2020-06-14T14:55:14.000Z</time>
      </trkpt>
      <trkpt lat="43.6581" lon="3.77211">
        <ele>111.01301268852</ele>
        <time>2020-06-14T14:55:15.000Z</time>
      </trkpt>
      <trkpt lat="43.65811" lon="3.77214">
        <ele>110.91308656562</ele>
        <time>2020-06-14T14:55:16.000Z</time>
      </trkpt>
      <trkpt lat="43.65812" lon="3.77217">
        <ele>110.81318643379</ele>
        <time>2020-06-14T14:55:17.000Z</time>
      </trkpt>
      <trkpt lat="43.65813" lon="3.7722">
        <ele>110.71328630195</ele>
        <time>2020-06-14T14:55:18.000Z</time>
      </trkpt>
      <trkpt lat="43.65815" lon="3.77223">
        <ele>110.61338617011</ele>
        <time>2020-06-14T14:55:19.000Z</time>
      </trkpt>
      <trkpt lat="43.65817" lon="3.77227">
        <ele>110.51348603828</ele>
        <time>2020-06-14T14:55:20.000Z</time>
      </trkpt>
      <trkpt lat="43.65819" lon="3.77231">
        <ele>110.41358590644</ele>
        <time>2020-06-14T14:55:21.000Z</time>
      </trkpt>
      <trkpt lat="43.65822" lon="3.77235">
        <ele>110.31368577461</ele>
        <time>2020-06-14T14:55:22.000Z</time>
      </trkpt>
      <trkpt lat="43.65824" lon="3.7724">
        <ele>110.21378564277</ele>
        <time>2020-06-14T14:55:23.000Z</time>
      </trkpt>
      <trkpt lat="43.65826" lon="3.77243">
        <ele>110.11388551093</ele>
        <time>2020-06-14T14:55:24.000Z</time>
      </trkpt>
      <trkpt lat="43.65828" lon="3.77247">
        <ele>110.0139853791</ele>
        <time>2020-06-14T14:55:25.000Z</time>
      </trkpt>
      <trkpt lat="43.65831" lon="3.7725">
        <ele>109.91391330085</ele>
        <time>2020-06-14T14:55:26.000Z</time>
      </trkpt>
      <trkpt lat="43.65833" lon="3.77253">
        <ele>109.81381323281</ele>
        <time>2020-06-14T14:55:27.000Z</time>
      </trkpt>
      <trkpt lat="43.65836" lon="3.77255">
        <ele>109.71371316478</ele>
        <time>2020-06-14T14:55:28.000Z</time>
      </trkpt>
      <trkpt lat="43.65838" lon="3.77257">
        <ele>109.61361309674</ele>
        <time>2020-06-14T14:55:29.000Z</time>
      </trkpt>
      <trkpt lat="43.65841" lon="3.77258">
        <ele>109.51351302871</ele>
        <time>2020-06-14T14:55:30.000Z</time>
      </trkpt>
      <trkpt lat="43.65843" lon="3.77258">
        <ele>109.41341296067</ele>
        <time>2020-06-14T14:55:31.000Z</time>
      </trkpt>
      <trkpt lat="43.65846" lon="3.77258">
        <ele>109.31331289263</ele>
        <time>2020-06-14T14:55:32.000Z</time>
      </trkpt>
      <trkpt lat="43.65848" lon="3.77259">
        <ele>109.2132128246</ele>
        <time>2020-06-14T14:55:33.000Z</time>
      </trkpt>
      <trkpt lat="43.6585" lon="3.77259">
        <ele>109.11311275656</ele>
        <time>2020-06-14T14:55:34.000Z</time>
      </trkpt>
      <trkpt lat="43.65852" lon="3.7726">
        <ele>109.01301268852</ele>
        <time>2020-06-14T14:55:35.000Z</time>
      </trkpt>
      <trkpt lat="43.65853" lon="3.77259">
        <ele>109</ele>
        <time>2020-06-14T14:55:40.000Z</time>
      </trkpt>
      <trkpt lat="43.65856" lon="3.77258">
        <ele>109</ele>
        <time>2020-06-14T14:55:43.000Z</time>
      </trkpt>
      <trkpt lat="43.65859" lon="3.77258">
        <ele>109</ele>
        <time>2020-06-14T14:55:44.000Z</time>
      </trkpt>
      <trkpt lat="43.65862" lon="3.77257">
        <ele>109</ele>
        <time>2020-06-14T14:55:45.000Z</time>
      </trkpt>
      <trkpt lat="43.65866" lon="3.77256">
        <ele>109</ele>
        <time>2020-06-14T14:55:46.000Z</time>
      </trkpt>
      <trkpt lat="43.6587" lon="3.77256">
        <ele>109</ele>
        <time>2020-06-14T14:55:47.000Z</time>
      </trkpt>
      <trkpt lat="43.65874" lon="3.77255">
        <ele>109</ele>
        <time>2020-06-14T14:55:48.000Z</time>
      </trkpt>
      <trkpt lat="43.65879" lon="3.77254">
        <ele>109</ele>
        <time>2020-06-14T14:55:49.000Z</time>
      </trkpt>
      <trkpt lat="43.65883" lon="3.77253">
        <ele>109</ele>
        <time>2020-06-14T14:55:50.000Z</time>
      </trkpt>
      <trkpt lat="43.65886" lon="3.77253">
        <ele>109</ele>
        <time>2020-06-14T14:55:51.000Z</time>
      </trkpt>
      <trkpt lat="43.65888" lon="3.77252">
        <ele>109</ele>
        <time>2020-06-14T14:55:52.000Z</time>
      </trkpt>
      <trkpt lat="43.6589" lon="3.77252">
        <ele>109</ele>
        <time>2020-06-14T14:55:58.000Z</time>
      </trkpt>
      <trkpt lat="43.65892" lon="3.77254">
        <ele>109</ele>
        <time>2020-06-14T14:56:00.000Z</time>
      </trkpt>
      <trkpt lat="43.65894" lon="3.77256">
        <ele>109</ele>
        <time>2020-06-14T14:56:02.000Z</time>
      </trkpt>
      <trkpt lat="43.65896" lon="3.77258">
        <ele>109.08700032</ele>
        <time>2020-06-14T14:56:04.000Z</time>
      </trkpt>
      <trkpt lat="43.65899" lon="3.77258">
        <ele>109.28700032</ele>
        <time>2020-06-14T14:56:06.000Z</time>
      </trkpt>
      <trkpt lat="43.65901" lon="3.77258">
        <ele>109.48700032</ele>
        <time>2020-06-14T14:56:08.000Z</time>
      </trkpt>
      <trkpt lat="43.65904" lon="3.77257">
        <ele>109.68700032</ele>
        <time>2020-06-14T14:56:10.000Z</time>
      </trkpt>
      <trkpt lat="43.65907" lon="3.77256">
        <ele>109.88700032</ele>
        <time>2020-06-14T14:56:12.000Z</time>
      </trkpt>
      <trkpt lat="43.65909" lon="3.77256">
        <ele>110.11788651023</ele>
        <time>2020-06-14T14:56:14.000Z</time>
      </trkpt>
      <trkpt lat="43.65911" lon="3.77257">
        <ele>110.52439022275</ele>
        <time>2020-06-14T14:56:17.000Z</time>
      </trkpt>
      <trkpt lat="43.65911" lon="3.77257">
        <ele>111.06480114766</ele>
        <time>2020-06-14T14:56:21.000Z</time>
      </trkpt>
      <trkpt lat="43.65915" lon="3.7726">
        <ele>111.94845316126</ele>
        <time>2020-06-14T14:56:27.000Z</time>
      </trkpt>
      <trkpt lat="43.65917" lon="3.77264">
        <ele>112</ele>
        <time>2020-06-14T14:56:29.000Z</time>
      </trkpt>
      <trkpt lat="43.65919" lon="3.77267">
        <ele>112</ele>
        <time>2020-06-14T14:56:31.000Z</time>
      </trkpt>
      <trkpt lat="43.65921" lon="3.77271">
        <ele>112</ele>
        <time>2020-06-14T14:56:33.000Z</time>
      </trkpt>
      <trkpt lat="43.65923" lon="3.77274">
        <ele>112</ele>
        <time>2020-06-14T14:56:35.000Z</time>
      </trkpt>
      <trkpt lat="43.65926" lon="3.77277">
        <ele>112</ele>
        <time>2020-06-14T14:56:37.000Z</time>
      </trkpt>
      <trkpt lat="43.65927" lon="3.77277">
        <ele>113</ele>
        <time>2020-06-14T14:56:43.000Z</time>
      </trkpt>
      <trkpt lat="43.6593" lon="3.77276">
        <ele>113</ele>
        <time>2020-06-14T14:56:47.000Z</time>
      </trkpt>
      <trkpt lat="43.65932" lon="3.77276">
        <ele>113</ele>
        <time>2020-06-14T14:56:51.000Z</time>
      </trkpt>
      <trkpt lat="43.65934" lon="3.77275">
        <ele>113</ele>
        <time>2020-06-14T14:56:53.000Z</time>
      </trkpt>
      <trkpt lat="43.65936" lon="3.77275">
        <ele>113</ele>
        <time>2020-06-14T14:56:54.000Z</time>
      </trkpt>
      <trkpt lat="43.65939" lon="3.77274">
        <ele>113</ele>
        <time>2020-06-14T14:56:56.000Z</time>
      </trkpt>
      <trkpt lat="43.65941" lon="3.77274">
        <ele>113</ele>
        <time>2020-06-14T14:56:57.000Z</time>
      </trkpt>
      <trkpt lat="43.65943" lon="3.77274">
        <ele>113.08487838747</ele>
        <time>2020-06-14T14:56:58.000Z</time>
      </trkpt>
      <trkpt lat="43.65945" lon="3.77274">
        <ele>113.18243939354</ele>
        <time>2020-06-14T14:56:59.000Z</time>
      </trkpt>
      <trkpt lat="43.65948" lon="3.77274">
        <ele>113.28000039961</ele>
        <time>2020-06-14T14:57:00.000Z</time>
      </trkpt>
      <trkpt lat="43.6595" lon="3.77273">
        <ele>113.37756140568</ele>
        <time>2020-06-14T14:57:01.000Z</time>
      </trkpt>
      <trkpt lat="43.65952" lon="3.77273">
        <ele>113.47512241175</ele>
        <time>2020-06-14T14:57:02.000Z</time>
      </trkpt>
      <trkpt lat="43.65954" lon="3.77274">
        <ele>113.57268341781</ele>
        <time>2020-06-14T14:57:03.000Z</time>
      </trkpt>
      <trkpt lat="43.65956" lon="3.77275">
        <ele>113.67024442388</ele>
        <time>2020-06-14T14:57:04.000Z</time>
      </trkpt>
      <trkpt lat="43.65958" lon="3.77276">
        <ele>113.76780542995</ele>
        <time>2020-06-14T14:57:05.000Z</time>
      </trkpt>
      <trkpt lat="43.6596" lon="3.77277">
        <ele>113.86536643602</ele>
        <time>2020-06-14T14:57:06.000Z</time>
      </trkpt>
      <trkpt lat="43.65962" lon="3.77279">
        <ele>113.96292744209</ele>
        <time>2020-06-14T14:57:07.000Z</time>
      </trkpt>
      <trkpt lat="43.65964" lon="3.77281">
        <ele>114.06359037913</ele>
        <time>2020-06-14T14:57:08.000Z</time>
      </trkpt>
      <trkpt lat="43.65965" lon="3.77283">
        <ele>114.16615444803</ele>
        <time>2020-06-14T14:57:09.000Z</time>
      </trkpt>
      <trkpt lat="43.65967" lon="3.77284">
        <ele>114.26871851693</ele>
        <time>2020-06-14T14:57:10.000Z</time>
      </trkpt>
      <trkpt lat="43.65969" lon="3.77284">
        <ele>114.37128258584</ele>
        <time>2020-06-14T14:57:11.000Z</time>
      </trkpt>
      <trkpt lat="43.65972" lon="3.77284">
        <ele>114.47384665474</ele>
        <time>2020-06-14T14:57:12.000Z</time>
      </trkpt>
      <trkpt lat="43.65974" lon="3.77284">
        <ele>114.57641072364</ele>
        <time>2020-06-14T14:57:13.000Z</time>
      </trkpt>
      <trkpt lat="43.65976" lon="3.77283">
        <ele>114.78153886144</ele>
        <time>2020-06-14T14:57:15.000Z</time>
      </trkpt>
      <trkpt lat="43.65979" lon="3.77283">
        <ele>114.98666699925</ele>
        <time>2020-06-14T14:57:17.000Z</time>
      </trkpt>
      <trkpt lat="43.65982" lon="3.77283">
        <ele>115</ele>
        <time>2020-06-14T14:57:19.000Z</time>
      </trkpt>
      <trkpt lat="43.65984" lon="3.77284">
        <ele>115</ele>
        <time>2020-06-14T14:57:20.000Z</time>
      </trkpt>
      <trkpt lat="43.65986" lon="3.77284">
        <ele>115</ele>
        <time>2020-06-14T14:57:21.000Z</time>
      </trkpt>
      <trkpt lat="43.65988" lon="3.77285">
        <ele>115</ele>
        <time>2020-06-14T14:57:22.000Z</time>
      </trkpt>
      <trkpt lat="43.6599" lon="3.77287">
        <ele>115</ele>
        <time>2020-06-14T14:57:23.000Z</time>
      </trkpt>
      <trkpt lat="43.65992" lon="3.77289">
        <ele>115</ele>
        <time>2020-06-14T14:57:24.000Z</time>
      </trkpt>
      <trkpt lat="43.65994" lon="3.77292">
        <ele>115</ele>
        <time>2020-06-14T14:57:25.000Z</time>
      </trkpt>
      <trkpt lat="43.65995" lon="3.77295">
        <ele>115</ele>
        <time>2020-06-14T14:57:26.000Z</time>
      </trkpt>
      <trkpt lat="43.65996" lon="3.77299">
        <ele>115</ele>
        <time>2020-06-14T14:57:27.000Z</time>
      </trkpt>
      <trkpt lat="43.65997" lon="3.77303">
        <ele>115</ele>
        <time>2020-06-14T14:57:28.000Z</time>
      </trkpt>
      <trkpt lat="43.65998" lon="3.77308">
        <ele>115</ele>
        <time>2020-06-14T14:57:29.000Z</time>
      </trkpt>
      <trkpt lat="43.65998" lon="3.77312">
        <ele>115</ele>
        <time>2020-06-14T14:57:30.000Z</time>
      </trkpt>
      <trkpt lat="43.65999" lon="3.77317">
        <ele>115</ele>
        <time>2020-06-14T14:57:31.000Z</time>
      </trkpt>
      <trkpt lat="43.66" lon="3.77321">
        <ele>115</ele>
        <time>2020-06-14T14:57:32.000Z</time>
      </trkpt>
      <trkpt lat="43.66002" lon="3.77324">
        <ele>115</ele>
        <time>2020-06-14T14:57:33.000Z</time>
      </trkpt>
      <trkpt lat="43.66005" lon="3.77326">
        <ele>115</ele>
        <time>2020-06-14T14:57:34.000Z</time>
      </trkpt>
      <trkpt lat="43.66007" lon="3.77327">
        <ele>115</ele>
        <time>2020-06-14T14:57:35.000Z</time>
      </trkpt>
      <trkpt lat="43.66009" lon="3.77329">
        <ele>115</ele>
        <time>2020-06-14T14:57:36.000Z</time>
      </trkpt>
      <trkpt lat="43.66011" lon="3.77331">
        <ele>115</ele>
        <time>2020-06-14T14:57:37.000Z</time>
      </trkpt>
      <trkpt lat="43.66014" lon="3.77334">
        <ele>114.92036258065</ele>
        <time>2020-06-14T14:57:38.000Z</time>
      </trkpt>
      <trkpt lat="43.66016" lon="3.77338">
        <ele>114.81955612903</ele>
        <time>2020-06-14T14:57:39.000Z</time>
      </trkpt>
      <trkpt lat="43.66017" lon="3.77343">
        <ele>114.71874967742</ele>
        <time>2020-06-14T14:57:40.000Z</time>
      </trkpt>
      <trkpt lat="43.66018" lon="3.77347">
        <ele>114.61794322581</ele>
        <time>2020-06-14T14:57:41.000Z</time>
      </trkpt>
      <trkpt lat="43.66018" lon="3.77352">
        <ele>114.51713677419</ele>
        <time>2020-06-14T14:57:42.000Z</time>
      </trkpt>
      <trkpt lat="43.66018" lon="3.77357">
        <ele>114.41633032258</ele>
        <time>2020-06-14T14:57:43.000Z</time>
      </trkpt>
      <trkpt lat="43.66017" lon="3.77362">
        <ele>114.31552387097</ele>
        <time>2020-06-14T14:57:44.000Z</time>
      </trkpt>
      <trkpt lat="43.66016" lon="3.77367">
        <ele>114.21471741935</ele>
        <time>2020-06-14T14:57:45.000Z</time>
      </trkpt>
      <trkpt lat="43.66016" lon="3.77372">
        <ele>114.11391096774</ele>
        <time>2020-06-14T14:57:46.000Z</time>
      </trkpt>
      <trkpt lat="43.66017" lon="3.77376">
        <ele>114.01310451613</ele>
        <time>2020-06-14T14:57:47.000Z</time>
      </trkpt>
      <trkpt lat="43.66018" lon="3.77379">
        <ele>113.73899904</ele>
        <time>2020-06-14T14:57:48.000Z</time>
      </trkpt>
      <trkpt lat="43.66021" lon="3.77383">
        <ele>113.43899904</ele>
        <time>2020-06-14T14:57:49.000Z</time>
      </trkpt>
      <trkpt lat="43.66024" lon="3.77387">
        <ele>113.13899904</ele>
        <time>2020-06-14T14:57:50.000Z</time>
      </trkpt>
      <trkpt lat="43.66027" lon="3.77392">
        <ele>112.83899904</ele>
        <time>2020-06-14T14:57:51.000Z</time>
      </trkpt>
      <trkpt lat="43.6603" lon="3.77395">
        <ele>112.53899904</ele>
        <time>2020-06-14T14:57:52.000Z</time>
      </trkpt>
      <trkpt lat="43.66033" lon="3.77399">
        <ele>112.23899904</ele>
        <time>2020-06-14T14:57:53.000Z</time>
      </trkpt>
      <trkpt lat="43.66037" lon="3.77402">
        <ele>111.93899904</ele>
        <time>2020-06-14T14:57:54.000Z</time>
      </trkpt>
      <trkpt lat="43.6604" lon="3.77406">
        <ele>111.63899904</ele>
        <time>2020-06-14T14:57:55.000Z</time>
      </trkpt>
      <trkpt lat="43.66044" lon="3.7741">
        <ele>111.33899904</ele>
        <time>2020-06-14T14:57:56.000Z</time>
      </trkpt>
      <trkpt lat="43.66048" lon="3.77414">
        <ele>111.03899904</ele>
        <time>2020-06-14T14:57:57.000Z</time>
      </trkpt>
      <trkpt lat="43.66051" lon="3.77419">
        <ele>110.82599936</ele>
        <time>2020-06-14T14:57:58.000Z</time>
      </trkpt>
      <trkpt lat="43.66053" lon="3.77424">
        <ele>110.62599936</ele>
        <time>2020-06-14T14:57:59.000Z</time>
      </trkpt>
      <trkpt lat="43.66055" lon="3.7743">
        <ele>110.42599936</ele>
        <time>2020-06-14T14:58:00.000Z</time>
      </trkpt>
      <trkpt lat="43.66056" lon="3.77436">
        <ele>110.22599936</ele>
        <time>2020-06-14T14:58:01.000Z</time>
      </trkpt>
      <trkpt lat="43.66056" lon="3.77441">
        <ele>110.02599936</ele>
        <time>2020-06-14T14:58:02.000Z</time>
      </trkpt>
      <trkpt lat="43.66057" lon="3.77447">
        <ele>109.82599936</ele>
        <time>2020-06-14T14:58:03.000Z</time>
      </trkpt>
      <trkpt lat="43.66058" lon="3.77451">
        <ele>109.62599936</ele>
        <time>2020-06-14T14:58:04.000Z</time>
      </trkpt>
      <trkpt lat="43.66059" lon="3.77456">
        <ele>109.42599936</ele>
        <time>2020-06-14T14:58:05.000Z</time>
      </trkpt>
      <trkpt lat="43.6606" lon="3.77461">
        <ele>109.22599936</ele>
        <time>2020-06-14T14:58:06.000Z</time>
      </trkpt>
      <trkpt lat="43.66061" lon="3.77466">
        <ele>109.02599936</ele>
        <time>2020-06-14T14:58:07.000Z</time>
      </trkpt>
      <trkpt lat="43.66062" lon="3.77472">
        <ele>108.73899904</ele>
        <time>2020-06-14T14:58:08.000Z</time>
      </trkpt>
      <trkpt lat="43.66063" lon="3.77477">
        <ele>108.43899904</ele>
        <time>2020-06-14T14:58:09.000Z</time>
      </trkpt>
      <trkpt lat="43.66064" lon="3.77483">
        <ele>108.13899904</ele>
        <time>2020-06-14T14:58:10.000Z</time>
      </trkpt>
      <trkpt lat="43.66064" lon="3.77488">
        <ele>107.83899904</ele>
        <time>2020-06-14T14:58:11.000Z</time>
      </trkpt>
      <trkpt lat="43.66064" lon="3.77494">
        <ele>107.53899904</ele>
        <time>2020-06-14T14:58:12.000Z</time>
      </trkpt>
      <trkpt lat="43.66065" lon="3.77499">
        <ele>107.23899904</ele>
        <time>2020-06-14T14:58:13.000Z</time>
      </trkpt>
      <trkpt lat="43.66065" lon="3.77505">
        <ele>106.93899904</ele>
        <time>2020-06-14T14:58:14.000Z</time>
      </trkpt>
      <trkpt lat="43.66065" lon="3.77511">
        <ele>106.63899904</ele>
        <time>2020-06-14T14:58:15.000Z</time>
      </trkpt>
      <trkpt lat="43.66065" lon="3.77517">
        <ele>106.33899904</ele>
        <time>2020-06-14T14:58:16.000Z</time>
      </trkpt>
      <trkpt lat="43.66066" lon="3.77523">
        <ele>106.03899904</ele>
        <time>2020-06-14T14:58:17.000Z</time>
      </trkpt>
      <trkpt lat="43.66067" lon="3.77529">
        <ele>105.82599936</ele>
        <time>2020-06-14T14:58:18.000Z</time>
      </trkpt>
      <trkpt lat="43.66067" lon="3.77535">
        <ele>105.62599936</ele>
        <time>2020-06-14T14:58:19.000Z</time>
      </trkpt>
      <trkpt lat="43.66068" lon="3.7754">
        <ele>105.42599936</ele>
        <time>2020-06-14T14:58:20.000Z</time>
      </trkpt>
      <trkpt lat="43.66069" lon="3.77544">
        <ele>105.22599936</ele>
        <time>2020-06-14T14:58:21.000Z</time>
      </trkpt>
      <trkpt lat="43.66069" lon="3.77548">
        <ele>105.02599936</ele>
        <time>2020-06-14T14:58:22.000Z</time>
      </trkpt>
      <trkpt lat="43.66069" lon="3.77551">
        <ele>104.82599936</ele>
        <time>2020-06-14T14:58:23.000Z</time>
      </trkpt>
      <trkpt lat="43.66069" lon="3.77554">
        <ele>104.62599936</ele>
        <time>2020-06-14T14:58:24.000Z</time>
      </trkpt>
      <trkpt lat="43.66069" lon="3.77557">
        <ele>104.42599936</ele>
        <time>2020-06-14T14:58:25.000Z</time>
      </trkpt>
      <trkpt lat="43.66068" lon="3.77561">
        <ele>104.22599936</ele>
        <time>2020-06-14T14:58:26.000Z</time>
      </trkpt>
      <trkpt lat="43.66067" lon="3.77565">
        <ele>104.02599936</ele>
        <time>2020-06-14T14:58:27.000Z</time>
      </trkpt>
      <trkpt lat="43.66066" lon="3.77569">
        <ele>103.82617313124</ele>
        <time>2020-06-14T14:58:28.000Z</time>
      </trkpt>
      <trkpt lat="43.66064" lon="3.77574">
        <ele>103.62637286757</ele>
        <time>2020-06-14T14:58:29.000Z</time>
      </trkpt>
      <trkpt lat="43.66064" lon="3.7758">
        <ele>103.4265726039</ele>
        <time>2020-06-14T14:58:30.000Z</time>
      </trkpt>
      <trkpt lat="43.66063" lon="3.77585">
        <ele>103.22677234023</ele>
        <time>2020-06-14T14:58:31.000Z</time>
      </trkpt>
      <trkpt lat="43.66063" lon="3.77591">
        <ele>103.02697207655</ele>
        <time>2020-06-14T14:58:32.000Z</time>
      </trkpt>
      <trkpt lat="43.66063" lon="3.77595">
        <ele>102.82717181288</ele>
        <time>2020-06-14T14:58:33.000Z</time>
      </trkpt>
      <trkpt lat="43.66063" lon="3.77598">
        <ele>102.62737154921</ele>
        <time>2020-06-14T14:58:34.000Z</time>
      </trkpt>
      <trkpt lat="43.66064" lon="3.776">
        <ele>101</ele>
        <time>2020-06-14T14:58:41.000Z</time>
      </trkpt>
      <trkpt lat="43.66065" lon="3.77606">
        <ele>101</ele>
        <time>2020-06-14T14:58:53.000Z</time>
      </trkpt>
      <trkpt lat="43.66064" lon="3.77609">
        <ele>100.92421047526</ele>
        <time>2020-06-14T14:58:54.000Z</time>
      </trkpt>
      <trkpt lat="43.66063" lon="3.77612">
        <ele>100.71368401764</ele>
        <time>2020-06-14T14:58:55.000Z</time>
      </trkpt>
      <trkpt lat="43.66062" lon="3.77615">
        <ele>100.50315756002</ele>
        <time>2020-06-14T14:58:56.000Z</time>
      </trkpt>
      <trkpt lat="43.6606" lon="3.77618">
        <ele>100.2926311024</ele>
        <time>2020-06-14T14:58:57.000Z</time>
      </trkpt>
      <trkpt lat="43.66059" lon="3.77621">
        <ele>100.08210464479</ele>
        <time>2020-06-14T14:58:58.000Z</time>
      </trkpt>
      <trkpt lat="43.66057" lon="3.77625">
        <ele>99.871578187168</ele>
        <time>2020-06-14T14:58:59.000Z</time>
      </trkpt>
      <trkpt lat="43.66055" lon="3.77629">
        <ele>99.661051729551</ele>
        <time>2020-06-14T14:59:00.000Z</time>
      </trkpt>
      <trkpt lat="43.66054" lon="3.77633">
        <ele>99.450525271933</ele>
        <time>2020-06-14T14:59:01.000Z</time>
      </trkpt>
      <trkpt lat="43.66052" lon="3.77638">
        <ele>99.239998814315</ele>
        <time>2020-06-14T14:59:02.000Z</time>
      </trkpt>
      <trkpt lat="43.6605" lon="3.77643">
        <ele>99.029472356697</ele>
        <time>2020-06-14T14:59:03.000Z</time>
      </trkpt>
      <trkpt lat="43.66048" lon="3.77648">
        <ele>98.832683788098</ele>
        <time>2020-06-14T14:59:04.000Z</time>
      </trkpt>
      <trkpt lat="43.66045" lon="3.77653">
        <ele>98.638131501159</ele>
        <time>2020-06-14T14:59:05.000Z</time>
      </trkpt>
      <trkpt lat="43.66043" lon="3.77659">
        <ele>98.44357921422</ele>
        <time>2020-06-14T14:59:06.000Z</time>
      </trkpt>
      <trkpt lat="43.66041" lon="3.77664">
        <ele>98.249026927282</ele>
        <time>2020-06-14T14:59:07.000Z</time>
      </trkpt>
      <trkpt lat="43.66039" lon="3.7767">
        <ele>98.054474640343</ele>
        <time>2020-06-14T14:59:08.000Z</time>
      </trkpt>
      <trkpt lat="43.66037" lon="3.77675">
        <ele>97.859922353404</ele>
        <time>2020-06-14T14:59:09.000Z</time>
      </trkpt>
      <trkpt lat="43.66034" lon="3.7768">
        <ele>97.665370066465</ele>
        <time>2020-06-14T14:59:10.000Z</time>
      </trkpt>
      <trkpt lat="43.66032" lon="3.77685">
        <ele>97.470817779526</ele>
        <time>2020-06-14T14:59:11.000Z</time>
      </trkpt>
      <trkpt lat="43.66029" lon="3.77691">
        <ele>97.276265492588</ele>
        <time>2020-06-14T14:59:12.000Z</time>
      </trkpt>
      <trkpt lat="43.66026" lon="3.77696">
        <ele>97.081713205649</ele>
        <time>2020-06-14T14:59:13.000Z</time>
      </trkpt>
      <trkpt lat="43.66024" lon="3.77702">
        <ele>96.8805367305</ele>
        <time>2020-06-14T14:59:14.000Z</time>
      </trkpt>
      <trkpt lat="43.66022" lon="3.77708">
        <ele>96.674563303379</ele>
        <time>2020-06-14T14:59:15.000Z</time>
      </trkpt>
      <trkpt lat="43.66019" lon="3.77714">
        <ele>96.468589876258</ele>
        <time>2020-06-14T14:59:16.000Z</time>
      </trkpt>
      <trkpt lat="43.66016" lon="3.7772">
        <ele>96.262616449137</ele>
        <time>2020-06-14T14:59:17.000Z</time>
      </trkpt>
      <trkpt lat="43.66013" lon="3.77726">
        <ele>96.056643022016</ele>
        <time>2020-06-14T14:59:18.000Z</time>
      </trkpt>
      <trkpt lat="43.6601" lon="3.77733">
        <ele>95.850669594895</ele>
        <time>2020-06-14T14:59:19.000Z</time>
      </trkpt>
      <trkpt lat="43.66007" lon="3.7774">
        <ele>95.644696167774</ele>
        <time>2020-06-14T14:59:20.000Z</time>
      </trkpt>
      <trkpt lat="43.66004" lon="3.77748">
        <ele>95.438722740653</ele>
        <time>2020-06-14T14:59:21.000Z</time>
      </trkpt>
      <trkpt lat="43.66" lon="3.77755">
        <ele>95.232749313532</ele>
        <time>2020-06-14T14:59:22.000Z</time>
      </trkpt>
      <trkpt lat="43.65997" lon="3.77763">
        <ele>95.026775886411</ele>
        <time>2020-06-14T14:59:23.000Z</time>
      </trkpt>
      <trkpt lat="43.65993" lon="3.77771">
        <ele>94.73899904</ele>
        <time>2020-06-14T14:59:24.000Z</time>
      </trkpt>
      <trkpt lat="43.6599" lon="3.77779">
        <ele>94.43899904</ele>
        <time>2020-06-14T14:59:25.000Z</time>
      </trkpt>
      <trkpt lat="43.65986" lon="3.77786">
        <ele>94.13899904</ele>
        <time>2020-06-14T14:59:26.000Z</time>
      </trkpt>
      <trkpt lat="43.65982" lon="3.77794">
        <ele>93.83899904</ele>
        <time>2020-06-14T14:59:27.000Z</time>
      </trkpt>
      <trkpt lat="43.65978" lon="3.77801">
        <ele>93.53899904</ele>
        <time>2020-06-14T14:59:28.000Z</time>
      </trkpt>
      <trkpt lat="43.65974" lon="3.77809">
        <ele>93.23899904</ele>
        <time>2020-06-14T14:59:29.000Z</time>
      </trkpt>
      <trkpt lat="43.6597" lon="3.77817">
        <ele>92.93899904</ele>
        <time>2020-06-14T14:59:30.000Z</time>
      </trkpt>
      <trkpt lat="43.65966" lon="3.77825">
        <ele>92.63899904</ele>
        <time>2020-06-14T14:59:31.000Z</time>
      </trkpt>
      <trkpt lat="43.65962" lon="3.77833">
        <ele>92.33899904</ele>
        <time>2020-06-14T14:59:32.000Z</time>
      </trkpt>
      <trkpt lat="43.65957" lon="3.7784">
        <ele>92.03899904</ele>
        <time>2020-06-14T14:59:33.000Z</time>
      </trkpt>
      <trkpt lat="43.65953" lon="3.77847">
        <ele>91.82599936</ele>
        <time>2020-06-14T14:59:34.000Z</time>
      </trkpt>
      <trkpt lat="43.65948" lon="3.77853">
        <ele>91.62599936</ele>
        <time>2020-06-14T14:59:35.000Z</time>
      </trkpt>
      <trkpt lat="43.65944" lon="3.77859">
        <ele>91.42599936</ele>
        <time>2020-06-14T14:59:36.000Z</time>
      </trkpt>
      <trkpt lat="43.6594" lon="3.77864">
        <ele>91.22599936</ele>
        <time>2020-06-14T14:59:37.000Z</time>
      </trkpt>
      <trkpt lat="43.65936" lon="3.77868">
        <ele>91.02599936</ele>
        <time>2020-06-14T14:59:38.000Z</time>
      </trkpt>
      <trkpt lat="43.65932" lon="3.77873">
        <ele>90.82599936</ele>
        <time>2020-06-14T14:59:39.000Z</time>
      </trkpt>
      <trkpt lat="43.65929" lon="3.77878">
        <ele>90.62599936</ele>
        <time>2020-06-14T14:59:40.000Z</time>
      </trkpt>
      <trkpt lat="43.65925" lon="3.77882">
        <ele>90.42599936</ele>
        <time>2020-06-14T14:59:41.000Z</time>
      </trkpt>
      <trkpt lat="43.65921" lon="3.77886">
        <ele>90.22599936</ele>
        <time>2020-06-14T14:59:42.000Z</time>
      </trkpt>
      <trkpt lat="43.65917" lon="3.77891">
        <ele>90.02599936</ele>
        <time>2020-06-14T14:59:43.000Z</time>
      </trkpt>
      <trkpt lat="43.65914" lon="3.77895">
        <ele>89.91299968</ele>
        <time>2020-06-14T14:59:44.000Z</time>
      </trkpt>
      <trkpt lat="43.6591" lon="3.779">
        <ele>89.81299968</ele>
        <time>2020-06-14T14:59:45.000Z</time>
      </trkpt>
      <trkpt lat="43.65907" lon="3.77904">
        <ele>89.71299968</ele>
        <time>2020-06-14T14:59:46.000Z</time>
      </trkpt>
      <trkpt lat="43.65903" lon="3.77909">
        <ele>89.61299968</ele>
        <time>2020-06-14T14:59:47.000Z</time>
      </trkpt>
      <trkpt lat="43.659" lon="3.77913">
        <ele>89.51299968</ele>
        <time>2020-06-14T14:59:48.000Z</time>
      </trkpt>
      <trkpt lat="43.65897" lon="3.77917">
        <ele>89.41299968</ele>
        <time>2020-06-14T14:59:49.000Z</time>
      </trkpt>
      <trkpt lat="43.65894" lon="3.77921">
        <ele>89.31299968</ele>
        <time>2020-06-14T14:59:50.000Z</time>
      </trkpt>
      <trkpt lat="43.65891" lon="3.77925">
        <ele>89.21299968</ele>
        <time>2020-06-14T14:59:51.000Z</time>
      </trkpt>
      <trkpt lat="43.65887" lon="3.77929">
        <ele>89.11299968</ele>
        <time>2020-06-14T14:59:52.000Z</time>
      </trkpt>
      <trkpt lat="43.65884" lon="3.77933">
        <ele>89.01299968</ele>
        <time>2020-06-14T14:59:53.000Z</time>
      </trkpt>
      <trkpt lat="43.65881" lon="3.77937">
        <ele>89.08700032</ele>
        <time>2020-06-14T14:59:54.000Z</time>
      </trkpt>
      <trkpt lat="43.65878" lon="3.77942">
        <ele>89.18700032</ele>
        <time>2020-06-14T14:59:55.000Z</time>
      </trkpt>
      <trkpt lat="43.65875" lon="3.77946">
        <ele>89.28700032</ele>
        <time>2020-06-14T14:59:56.000Z</time>
      </trkpt>
      <trkpt lat="43.65873" lon="3.7795">
        <ele>89.38700032</ele>
        <time>2020-06-14T14:59:57.000Z</time>
      </trkpt>
      <trkpt lat="43.6587" lon="3.77954">
        <ele>89.48700032</ele>
        <time>2020-06-14T14:59:58.000Z</time>
      </trkpt>
      <trkpt lat="43.65868" lon="3.77958">
        <ele>89.58700032</ele>
        <time>2020-06-14T14:59:59.000Z</time>
      </trkpt>
      <trkpt lat="43.65866" lon="3.77961">
        <ele>89.68700032</ele>
        <time>2020-06-14T15:00:00.000Z</time>
      </trkpt>
      <trkpt lat="43.65863" lon="3.77964">
        <ele>89.78700032</ele>
        <time>2020-06-14T15:00:01.000Z</time>
      </trkpt>
      <trkpt lat="43.65862" lon="3.77965">
        <ele>89.88700032</ele>
        <time>2020-06-14T15:00:02.000Z</time>
      </trkpt>
      <trkpt lat="43.6586" lon="3.77967">
        <ele>89.98700032</ele>
        <time>2020-06-14T15:00:03.000Z</time>
      </trkpt>
      <trkpt lat="43.65858" lon="3.77968">
        <ele>90.08700032</ele>
        <time>2020-06-14T15:00:04.000Z</time>
      </trkpt>
      <trkpt lat="43.65857" lon="3.7797">
        <ele>90.18700032</ele>
        <time>2020-06-14T15:00:05.000Z</time>
      </trkpt>
      <trkpt lat="43.65855" lon="3.77972">
        <ele>90.28700032</ele>
        <time>2020-06-14T15:00:06.000Z</time>
      </trkpt>
      <trkpt lat="43.65854" lon="3.77974">
        <ele>90.38700032</ele>
        <time>2020-06-14T15:00:07.000Z</time>
      </trkpt>
      <trkpt lat="43.65852" lon="3.77976">
        <ele>90.48700032</ele>
        <time>2020-06-14T15:00:08.000Z</time>
      </trkpt>
      <trkpt lat="43.6585" lon="3.77977">
        <ele>90.58700032</ele>
        <time>2020-06-14T15:00:09.000Z</time>
      </trkpt>
      <trkpt lat="43.65848" lon="3.77979">
        <ele>90.68700032</ele>
        <time>2020-06-14T15:00:10.000Z</time>
      </trkpt>
      <trkpt lat="43.65846" lon="3.77981">
        <ele>90.78700032</ele>
        <time>2020-06-14T15:00:11.000Z</time>
      </trkpt>
      <trkpt lat="43.65845" lon="3.77983">
        <ele>90.88700032</ele>
        <time>2020-06-14T15:00:12.000Z</time>
      </trkpt>
      <trkpt lat="43.65843" lon="3.77986">
        <ele>90.98700032</ele>
        <time>2020-06-14T15:00:13.000Z</time>
      </trkpt>
      <trkpt lat="43.65842" lon="3.77988">
        <ele>91</ele>
        <time>2020-06-14T15:00:14.000Z</time>
      </trkpt>
      <trkpt lat="43.65841" lon="3.7799">
        <ele>91</ele>
        <time>2020-06-14T15:00:15.000Z</time>
      </trkpt>
      <trkpt lat="43.65839" lon="3.77993">
        <ele>91</ele>
        <time>2020-06-14T15:00:16.000Z</time>
      </trkpt>
      <trkpt lat="43.65839" lon="3.77995">
        <ele>91</ele>
        <time>2020-06-14T15:00:17.000Z</time>
      </trkpt>
      <trkpt lat="43.65838" lon="3.77998">
        <ele>91</ele>
        <time>2020-06-14T15:00:18.000Z</time>
      </trkpt>
      <trkpt lat="43.65836" lon="3.78001">
        <ele>91</ele>
        <time>2020-06-14T15:00:19.000Z</time>
      </trkpt>
      <trkpt lat="43.65835" lon="3.78004">
        <ele>91</ele>
        <time>2020-06-14T15:00:20.000Z</time>
      </trkpt>
      <trkpt lat="43.65833" lon="3.78007">
        <ele>91</ele>
        <time>2020-06-14T15:00:21.000Z</time>
      </trkpt>
      <trkpt lat="43.65831" lon="3.78011">
        <ele>91</ele>
        <time>2020-06-14T15:00:22.000Z</time>
      </trkpt>
      <trkpt lat="43.65829" lon="3.78014">
        <ele>91</ele>
        <time>2020-06-14T15:00:23.000Z</time>
      </trkpt>
      <trkpt lat="43.65827" lon="3.78016">
        <ele>91</ele>
        <time>2020-06-14T15:00:24.000Z</time>
      </trkpt>
      <trkpt lat="43.65825" lon="3.7802">
        <ele>91</ele>
        <time>2020-06-14T15:00:25.000Z</time>
      </trkpt>
      <trkpt lat="43.65823" lon="3.78024">
        <ele>91</ele>
        <time>2020-06-14T15:00:26.000Z</time>
      </trkpt>
      <trkpt lat="43.6582" lon="3.7803">
        <ele>91</ele>
        <time>2020-06-14T15:00:27.000Z</time>
      </trkpt>
      <trkpt lat="43.65819" lon="3.78035">
        <ele>91</ele>
        <time>2020-06-14T15:00:28.000Z</time>
      </trkpt>
      <trkpt lat="43.65817" lon="3.78041">
        <ele>91</ele>
        <time>2020-06-14T15:00:29.000Z</time>
      </trkpt>
      <trkpt lat="43.65816" lon="3.78046">
        <ele>91</ele>
        <time>2020-06-14T15:00:30.000Z</time>
      </trkpt>
      <trkpt lat="43.65814" lon="3.78051">
        <ele>91</ele>
        <time>2020-06-14T15:00:31.000Z</time>
      </trkpt>
      <trkpt lat="43.65811" lon="3.78055">
        <ele>91</ele>
        <time>2020-06-14T15:00:32.000Z</time>
      </trkpt>
      <trkpt lat="43.65808" lon="3.78059">
        <ele>91</ele>
        <time>2020-06-14T15:00:33.000Z</time>
      </trkpt>
      <trkpt lat="43.65806" lon="3.78063">
        <ele>90.915451662941</ele>
        <time>2020-06-14T15:00:34.000Z</time>
      </trkpt>
      <trkpt lat="43.65804" lon="3.78068">
        <ele>90.818270023771</ele>
        <time>2020-06-14T15:00:35.000Z</time>
      </trkpt>
      <trkpt lat="43.65801" lon="3.78072">
        <ele>90.721088384602</ele>
        <time>2020-06-14T15:00:36.000Z</time>
      </trkpt>
      <trkpt lat="43.65799" lon="3.78076">
        <ele>90.623906745432</ele>
        <time>2020-06-14T15:00:37.000Z</time>
      </trkpt>
      <trkpt lat="43.65796" lon="3.7808">
        <ele>90.526725106262</ele>
        <time>2020-06-14T15:00:38.000Z</time>
      </trkpt>
      <trkpt lat="43.65793" lon="3.78084">
        <ele>90.429543467093</ele>
        <time>2020-06-14T15:00:39.000Z</time>
      </trkpt>
      <trkpt lat="43.65791" lon="3.78088">
        <ele>90.332361827923</ele>
        <time>2020-06-14T15:00:40.000Z</time>
      </trkpt>
      <trkpt lat="43.65789" lon="3.78093">
        <ele>90.235180188753</ele>
        <time>2020-06-14T15:00:41.000Z</time>
      </trkpt>
      <trkpt lat="43.65787" lon="3.78097">
        <ele>90.137998549584</ele>
        <time>2020-06-14T15:00:42.000Z</time>
      </trkpt>
      <trkpt lat="43.65784" lon="3.78102">
        <ele>90.040816910414</ele>
        <time>2020-06-14T15:00:43.000Z</time>
      </trkpt>
      <trkpt lat="43.65782" lon="3.78107">
        <ele>90</ele>
        <time>2020-06-14T15:00:44.000Z</time>
      </trkpt>
      <trkpt lat="43.6578" lon="3.78111">
        <ele>90</ele>
        <time>2020-06-14T15:00:45.000Z</time>
      </trkpt>
      <trkpt lat="43.65778" lon="3.78115">
        <ele>90</ele>
        <time>2020-06-14T15:00:46.000Z</time>
      </trkpt>
      <trkpt lat="43.65776" lon="3.78118">
        <ele>90</ele>
        <time>2020-06-14T15:00:47.000Z</time>
      </trkpt>
      <trkpt lat="43.65773" lon="3.78121">
        <ele>90</ele>
        <time>2020-06-14T15:00:48.000Z</time>
      </trkpt>
      <trkpt lat="43.6577" lon="3.78124">
        <ele>90</ele>
        <time>2020-06-14T15:00:49.000Z</time>
      </trkpt>
      <trkpt lat="43.65767" lon="3.78129">
        <ele>90</ele>
        <time>2020-06-14T15:00:50.000Z</time>
      </trkpt>
      <trkpt lat="43.65764" lon="3.78133">
        <ele>90</ele>
        <time>2020-06-14T15:00:51.000Z</time>
      </trkpt>
      <trkpt lat="43.65762" lon="3.78137">
        <ele>90</ele>
        <time>2020-06-14T15:00:52.000Z</time>
      </trkpt>
      <trkpt lat="43.65759" lon="3.78141">
        <ele>90</ele>
        <time>2020-06-14T15:00:53.000Z</time>
      </trkpt>
      <trkpt lat="43.65757" lon="3.78146">
        <ele>89.82599936</ele>
        <time>2020-06-14T15:00:54.000Z</time>
      </trkpt>
      <trkpt lat="43.65755" lon="3.78151">
        <ele>89.62599936</ele>
        <time>2020-06-14T15:00:55.000Z</time>
      </trkpt>
      <trkpt lat="43.65753" lon="3.78154">
        <ele>89.42599936</ele>
        <time>2020-06-14T15:00:56.000Z</time>
      </trkpt>
      <trkpt lat="43.65753" lon="3.78157">
        <ele>89.22599936</ele>
        <time>2020-06-14T15:00:57.000Z</time>
      </trkpt>
      <trkpt lat="43.65753" lon="3.7816">
        <ele>89.02599936</ele>
        <time>2020-06-14T15:00:58.000Z</time>
      </trkpt>
      <trkpt lat="43.65752" lon="3.78164">
        <ele>88.82599936</ele>
        <time>2020-06-14T15:00:59.000Z</time>
      </trkpt>
      <trkpt lat="43.6575" lon="3.78167">
        <ele>88.62599936</ele>
        <time>2020-06-14T15:01:00.000Z</time>
      </trkpt>
      <trkpt lat="43.65747" lon="3.7817">
        <ele>88.42599936</ele>
        <time>2020-06-14T15:01:01.000Z</time>
      </trkpt>
      <trkpt lat="43.65744" lon="3.78171">
        <ele>88.22599936</ele>
        <time>2020-06-14T15:01:02.000Z</time>
      </trkpt>
      <trkpt lat="43.6574" lon="3.78174">
        <ele>88.02599936</ele>
        <time>2020-06-14T15:01:03.000Z</time>
      </trkpt>
      <trkpt lat="43.65736" lon="3.78176">
        <ele>87.915121612526</ele>
        <time>2020-06-14T15:01:04.000Z</time>
      </trkpt>
      <trkpt lat="43.65733" lon="3.78179">
        <ele>87.817560606458</ele>
        <time>2020-06-14T15:01:05.000Z</time>
      </trkpt>
      <trkpt lat="43.65729" lon="3.78182">
        <ele>87.71999960039</ele>
        <time>2020-06-14T15:01:06.000Z</time>
      </trkpt>
      <trkpt lat="43.65725" lon="3.78184">
        <ele>87.622438594322</ele>
        <time>2020-06-14T15:01:07.000Z</time>
      </trkpt>
      <trkpt lat="43.65722" lon="3.78187">
        <ele>87.524877588254</ele>
        <time>2020-06-14T15:01:08.000Z</time>
      </trkpt>
      <trkpt lat="43.65719" lon="3.7819">
        <ele>87.427316582187</ele>
        <time>2020-06-14T15:01:09.000Z</time>
      </trkpt>
      <trkpt lat="43.65715" lon="3.78192">
        <ele>87.329755576119</ele>
        <time>2020-06-14T15:01:10.000Z</time>
      </trkpt>
      <trkpt lat="43.65712" lon="3.78195">
        <ele>87.232194570051</ele>
        <time>2020-06-14T15:01:11.000Z</time>
      </trkpt>
      <trkpt lat="43.65709" lon="3.78198">
        <ele>87.134633563983</ele>
        <time>2020-06-14T15:01:12.000Z</time>
      </trkpt>
      <trkpt lat="43.65706" lon="3.782">
        <ele>87.037072557915</ele>
        <time>2020-06-14T15:01:13.000Z</time>
      </trkpt>
      <trkpt lat="43.65703" lon="3.78203">
        <ele>87</ele>
        <time>2020-06-14T15:01:14.000Z</time>
      </trkpt>
      <trkpt lat="43.657" lon="3.78206">
        <ele>87</ele>
        <time>2020-06-14T15:01:15.000Z</time>
      </trkpt>
      <trkpt lat="43.65698" lon="3.78208">
        <ele>87</ele>
        <time>2020-06-14T15:01:16.000Z</time>
      </trkpt>
      <trkpt lat="43.65695" lon="3.78211">
        <ele>87</ele>
        <time>2020-06-14T15:01:17.000Z</time>
      </trkpt>
      <trkpt lat="43.65692" lon="3.78214">
        <ele>87</ele>
        <time>2020-06-14T15:01:18.000Z</time>
      </trkpt>
      <trkpt lat="43.6569" lon="3.78217">
        <ele>87</ele>
        <time>2020-06-14T15:01:19.000Z</time>
      </trkpt>
      <trkpt lat="43.65688" lon="3.7822">
        <ele>87</ele>
        <time>2020-06-14T15:01:20.000Z</time>
      </trkpt>
      <trkpt lat="43.65686" lon="3.78223">
        <ele>87</ele>
        <time>2020-06-14T15:01:21.000Z</time>
      </trkpt>
      <trkpt lat="43.65684" lon="3.78227">
        <ele>87</ele>
        <time>2020-06-14T15:01:22.000Z</time>
      </trkpt>
      <trkpt lat="43.65682" lon="3.7823">
        <ele>87</ele>
        <time>2020-06-14T15:01:23.000Z</time>
      </trkpt>
      <trkpt lat="43.6568" lon="3.78234">
        <ele>86.91299968</ele>
        <time>2020-06-14T15:01:24.000Z</time>
      </trkpt>
      <trkpt lat="43.65678" lon="3.78238">
        <ele>86.81299968</ele>
        <time>2020-06-14T15:01:25.000Z</time>
      </trkpt>
      <trkpt lat="43.65676" lon="3.78242">
        <ele>86.71299968</ele>
        <time>2020-06-14T15:01:26.000Z</time>
      </trkpt>
      <trkpt lat="43.65674" lon="3.78246">
        <ele>86.61299968</ele>
        <time>2020-06-14T15:01:27.000Z</time>
      </trkpt>
      <trkpt lat="43.65672" lon="3.7825">
        <ele>86.51299968</ele>
        <time>2020-06-14T15:01:28.000Z</time>
      </trkpt>
      <trkpt lat="43.6567" lon="3.78254">
        <ele>86.41299968</ele>
        <time>2020-06-14T15:01:29.000Z</time>
      </trkpt>
      <trkpt lat="43.65668" lon="3.78258">
        <ele>86.31299968</ele>
        <time>2020-06-14T15:01:30.000Z</time>
      </trkpt>
      <trkpt lat="43.65667" lon="3.78262">
        <ele>86.21299968</ele>
        <time>2020-06-14T15:01:31.000Z</time>
      </trkpt>
      <trkpt lat="43.65665" lon="3.78266">
        <ele>86.11299968</ele>
        <time>2020-06-14T15:01:32.000Z</time>
      </trkpt>
      <trkpt lat="43.65663" lon="3.78269">
        <ele>86.01299968</ele>
        <time>2020-06-14T15:01:33.000Z</time>
      </trkpt>
      <trkpt lat="43.65661" lon="3.78273">
        <ele>85.91299968</ele>
        <time>2020-06-14T15:01:34.000Z</time>
      </trkpt>
      <trkpt lat="43.6566" lon="3.78276">
        <ele>85.81299968</ele>
        <time>2020-06-14T15:01:35.000Z</time>
      </trkpt>
      <trkpt lat="43.65658" lon="3.78279">
        <ele>85.71299968</ele>
        <time>2020-06-14T15:01:36.000Z</time>
      </trkpt>
      <trkpt lat="43.65656" lon="3.78283">
        <ele>85.61299968</ele>
        <time>2020-06-14T15:01:37.000Z</time>
      </trkpt>
      <trkpt lat="43.65654" lon="3.78286">
        <ele>85.51299968</ele>
        <time>2020-06-14T15:01:38.000Z</time>
      </trkpt>
      <trkpt lat="43.65651" lon="3.78289">
        <ele>85.41299968</ele>
        <time>2020-06-14T15:01:39.000Z</time>
      </trkpt>
      <trkpt lat="43.65649" lon="3.78292">
        <ele>85.31299968</ele>
        <time>2020-06-14T15:01:40.000Z</time>
      </trkpt>
      <trkpt lat="43.65646" lon="3.78294">
        <ele>85.21299968</ele>
        <time>2020-06-14T15:01:41.000Z</time>
      </trkpt>
      <trkpt lat="43.65644" lon="3.78297">
        <ele>85.11299968</ele>
        <time>2020-06-14T15:01:42.000Z</time>
      </trkpt>
      <trkpt lat="43.65641" lon="3.78299">
        <ele>85.01299968</ele>
        <time>2020-06-14T15:01:43.000Z</time>
      </trkpt>
      <trkpt lat="43.65639" lon="3.78302">
        <ele>84.91299968</ele>
        <time>2020-06-14T15:01:44.000Z</time>
      </trkpt>
      <trkpt lat="43.65636" lon="3.78305">
        <ele>84.81299968</ele>
        <time>2020-06-14T15:01:45.000Z</time>
      </trkpt>
      <trkpt lat="43.65634" lon="3.78307">
        <ele>84.71299968</ele>
        <time>2020-06-14T15:01:46.000Z</time>
      </trkpt>
      <trkpt lat="43.65631" lon="3.7831">
        <ele>84.61299968</ele>
        <time>2020-06-14T15:01:47.000Z</time>
      </trkpt>
      <trkpt lat="43.65629" lon="3.78313">
        <ele>84.51299968</ele>
        <time>2020-06-14T15:01:48.000Z</time>
      </trkpt>
      <trkpt lat="43.65627" lon="3.78314">
        <ele>84.41299968</ele>
        <time>2020-06-14T15:01:49.000Z</time>
      </trkpt>
      <trkpt lat="43.65625" lon="3.78316">
        <ele>84.31299968</ele>
        <time>2020-06-14T15:01:50.000Z</time>
      </trkpt>
      <trkpt lat="43.65623" lon="3.78318">
        <ele>84.11299968</ele>
        <time>2020-06-14T15:01:52.000Z</time>
      </trkpt>
      <trkpt lat="43.6562" lon="3.78321">
        <ele>83.830903325882</ele>
        <time>2020-06-14T15:01:54.000Z</time>
      </trkpt>
      <trkpt lat="43.65617" lon="3.78323">
        <ele>83.442176769203</ele>
        <time>2020-06-14T15:01:56.000Z</time>
      </trkpt>
      <trkpt lat="43.65614" lon="3.78326">
        <ele>83.053450212525</ele>
        <time>2020-06-14T15:01:58.000Z</time>
      </trkpt>
      <trkpt lat="43.65613" lon="3.78328">
        <ele>82.859086934185</ele>
        <time>2020-06-14T15:01:59.000Z</time>
      </trkpt>
      <trkpt lat="43.65612" lon="3.7833">
        <ele>82.664723655846</ele>
        <time>2020-06-14T15:02:00.000Z</time>
      </trkpt>
      <trkpt lat="43.65609" lon="3.78331">
        <ele>82.275997099167</ele>
        <time>2020-06-14T15:02:02.000Z</time>
      </trkpt>
      <trkpt lat="43.65607" lon="3.78332">
        <ele>82.081633820828</ele>
        <time>2020-06-14T15:02:03.000Z</time>
      </trkpt>
      <trkpt lat="43.65605" lon="3.78334">
        <ele>81.940391182862</ele>
        <time>2020-06-14T15:02:04.000Z</time>
      </trkpt>
      <trkpt lat="43.65602" lon="3.78336">
        <ele>81.837616226143</ele>
        <time>2020-06-14T15:02:05.000Z</time>
      </trkpt>
      <trkpt lat="43.65599" lon="3.78338">
        <ele>81.734841269424</ele>
        <time>2020-06-14T15:02:06.000Z</time>
      </trkpt>
      <trkpt lat="43.65595" lon="3.78341">
        <ele>81.632066312704</ele>
        <time>2020-06-14T15:02:07.000Z</time>
      </trkpt>
      <trkpt lat="43.65592" lon="3.78343">
        <ele>81.529291355985</ele>
        <time>2020-06-14T15:02:08.000Z</time>
      </trkpt>
      <trkpt lat="43.65587" lon="3.78346">
        <ele>81.426516399265</ele>
        <time>2020-06-14T15:02:09.000Z</time>
      </trkpt>
      <trkpt lat="43.65583" lon="3.78348">
        <ele>81.323741442546</ele>
        <time>2020-06-14T15:02:10.000Z</time>
      </trkpt>
      <trkpt lat="43.65579" lon="3.7835">
        <ele>81.220966485827</ele>
        <time>2020-06-14T15:02:11.000Z</time>
      </trkpt>
      <trkpt lat="43.65575" lon="3.78351">
        <ele>81.118191529107</ele>
        <time>2020-06-14T15:02:12.000Z</time>
      </trkpt>
      <trkpt lat="43.65571" lon="3.78352">
        <ele>81.015416572388</ele>
        <time>2020-06-14T15:02:13.000Z</time>
      </trkpt>
      <trkpt lat="43.65568" lon="3.78352">
        <ele>80.834470002892</ele>
        <time>2020-06-14T15:02:14.000Z</time>
      </trkpt>
      <trkpt lat="43.65564" lon="3.78352">
        <ele>80.639728096677</ele>
        <time>2020-06-14T15:02:15.000Z</time>
      </trkpt>
      <trkpt lat="43.65561" lon="3.78352">
        <ele>80.444986190462</ele>
        <time>2020-06-14T15:02:16.000Z</time>
      </trkpt>
      <trkpt lat="43.65558" lon="3.78352">
        <ele>80.250244284247</ele>
        <time>2020-06-14T15:02:17.000Z</time>
      </trkpt>
      <trkpt lat="43.65555" lon="3.78352">
        <ele>80.055502378032</ele>
        <time>2020-06-14T15:02:18.000Z</time>
      </trkpt>
      <trkpt lat="43.65552" lon="3.78352">
        <ele>79.860760471818</ele>
        <time>2020-06-14T15:02:19.000Z</time>
      </trkpt>
      <trkpt lat="43.65549" lon="3.78352">
        <ele>79.666018565603</ele>
        <time>2020-06-14T15:02:20.000Z</time>
      </trkpt>
      <trkpt lat="43.65546" lon="3.78352">
        <ele>79.471276659388</ele>
        <time>2020-06-14T15:02:21.000Z</time>
      </trkpt>
      <trkpt lat="43.65543" lon="3.78352">
        <ele>79.276534753173</ele>
        <time>2020-06-14T15:02:22.000Z</time>
      </trkpt>
      <trkpt lat="43.6554" lon="3.78352">
        <ele>79.081792846958</ele>
        <time>2020-06-14T15:02:23.000Z</time>
      </trkpt>
      <trkpt lat="43.65537" lon="3.78352">
        <ele>78.881148852459</ele>
        <time>2020-06-14T15:02:24.000Z</time>
      </trkpt>
      <trkpt lat="43.65534" lon="3.78352">
        <ele>78.676230819672</ele>
        <time>2020-06-14T15:02:25.000Z</time>
      </trkpt>
      <trkpt lat="43.65531" lon="3.78352">
        <ele>78.471312786885</ele>
        <time>2020-06-14T15:02:26.000Z</time>
      </trkpt>
      <trkpt lat="43.65528" lon="3.78351">
        <ele>78.266394754098</ele>
        <time>2020-06-14T15:02:27.000Z</time>
      </trkpt>
      <trkpt lat="43.65525" lon="3.78352">
        <ele>78.061476721311</ele>
        <time>2020-06-14T15:02:28.000Z</time>
      </trkpt>
      <trkpt lat="43.65522" lon="3.78353">
        <ele>77.856558688525</ele>
        <time>2020-06-14T15:02:29.000Z</time>
      </trkpt>
      <trkpt lat="43.65519" lon="3.78355">
        <ele>77.651640655738</ele>
        <time>2020-06-14T15:02:30.000Z</time>
      </trkpt>
      <trkpt lat="43.65516" lon="3.78355">
        <ele>77.446722622951</ele>
        <time>2020-06-14T15:02:31.000Z</time>
      </trkpt>
      <trkpt lat="43.65513" lon="3.78356">
        <ele>77.241804590164</ele>
        <time>2020-06-14T15:02:32.000Z</time>
      </trkpt>
      <trkpt lat="43.6551" lon="3.78357">
        <ele>76.917588503402</ele>
        <time>2020-06-14T15:02:34.000Z</time>
      </trkpt>
      <trkpt lat="43.65507" lon="3.78358">
        <ele>76.716583284342</ele>
        <time>2020-06-14T15:02:36.000Z</time>
      </trkpt>
      <trkpt lat="43.65505" lon="3.7836">
        <ele>76.515578065281</ele>
        <time>2020-06-14T15:02:38.000Z</time>
      </trkpt>
      <trkpt lat="43.65503" lon="3.78363">
        <ele>76.314572846221</ele>
        <time>2020-06-14T15:02:40.000Z</time>
      </trkpt>
      <trkpt lat="43.65501" lon="3.78367">
        <ele>76.113567627161</ele>
        <time>2020-06-14T15:02:42.000Z</time>
      </trkpt>
      <trkpt lat="43.655" lon="3.7837">
        <ele>75.91299968</ele>
        <time>2020-06-14T15:02:44.000Z</time>
      </trkpt>
      <trkpt lat="43.65498" lon="3.78373">
        <ele>75.71299968</ele>
        <time>2020-06-14T15:02:46.000Z</time>
      </trkpt>
      <trkpt lat="43.65497" lon="3.78375">
        <ele>75.61299968</ele>
        <time>2020-06-14T15:02:47.000Z</time>
      </trkpt>
      <trkpt lat="43.65494" lon="3.78379">
        <ele>75.41299968</ele>
        <time>2020-06-14T15:02:49.000Z</time>
      </trkpt>
      <trkpt lat="43.65493" lon="3.78381">
        <ele>75.31299968</ele>
        <time>2020-06-14T15:02:50.000Z</time>
      </trkpt>
      <trkpt lat="43.65491" lon="3.78384">
        <ele>75.21299968</ele>
        <time>2020-06-14T15:02:51.000Z</time>
      </trkpt>
      <trkpt lat="43.65489" lon="3.78387">
        <ele>75.11299968</ele>
        <time>2020-06-14T15:02:52.000Z</time>
      </trkpt>
      <trkpt lat="43.65487" lon="3.7839">
        <ele>75.01299968</ele>
        <time>2020-06-14T15:02:53.000Z</time>
      </trkpt>
      <trkpt lat="43.65484" lon="3.78394">
        <ele>74.826173131244</ele>
        <time>2020-06-14T15:02:54.000Z</time>
      </trkpt>
      <trkpt lat="43.65482" lon="3.78397">
        <ele>74.626372867572</ele>
        <time>2020-06-14T15:02:55.000Z</time>
      </trkpt>
      <trkpt lat="43.6548" lon="3.78401">
        <ele>74.426572603899</ele>
        <time>2020-06-14T15:02:56.000Z</time>
      </trkpt>
      <trkpt lat="43.65477" lon="3.78405">
        <ele>74.226772340227</ele>
        <time>2020-06-14T15:02:57.000Z</time>
      </trkpt>
      <trkpt lat="43.65475" lon="3.7841">
        <ele>74.026972076555</ele>
        <time>2020-06-14T15:02:58.000Z</time>
      </trkpt>
      <trkpt lat="43.65472" lon="3.78414">
        <ele>73.827171812882</ele>
        <time>2020-06-14T15:02:59.000Z</time>
      </trkpt>
      <trkpt lat="43.6547" lon="3.78418">
        <ele>73.62737154921</ele>
        <time>2020-06-14T15:03:00.000Z</time>
      </trkpt>
      <trkpt lat="43.65467" lon="3.78422">
        <ele>73.427571285537</ele>
        <time>2020-06-14T15:03:01.000Z</time>
      </trkpt>
      <trkpt lat="43.65464" lon="3.78427">
        <ele>73.227771021865</ele>
        <time>2020-06-14T15:03:02.000Z</time>
      </trkpt>
      <trkpt lat="43.65462" lon="3.78432">
        <ele>73.027970758192</ele>
        <time>2020-06-14T15:03:03.000Z</time>
      </trkpt>
      <trkpt lat="43.65459" lon="3.78437">
        <ele>72.913913300849</ele>
        <time>2020-06-14T15:03:04.000Z</time>
      </trkpt>
      <trkpt lat="43.65456" lon="3.78442">
        <ele>72.813813232813</ele>
        <time>2020-06-14T15:03:05.000Z</time>
      </trkpt>
      <trkpt lat="43.65453" lon="3.78448">
        <ele>72.713713164777</ele>
        <time>2020-06-14T15:03:06.000Z</time>
      </trkpt>
      <trkpt lat="43.65451" lon="3.78454">
        <ele>72.613613096741</ele>
        <time>2020-06-14T15:03:07.000Z</time>
      </trkpt>
      <trkpt lat="43.65448" lon="3.7846">
        <ele>72.513513028704</ele>
        <time>2020-06-14T15:03:08.000Z</time>
      </trkpt>
      <trkpt lat="43.65445" lon="3.78467">
        <ele>72.413412960668</ele>
        <time>2020-06-14T15:03:09.000Z</time>
      </trkpt>
      <trkpt lat="43.65443" lon="3.78473">
        <ele>72.313312892632</ele>
        <time>2020-06-14T15:03:10.000Z</time>
      </trkpt>
      <trkpt lat="43.65441" lon="3.78477">
        <ele>72.213212824596</ele>
        <time>2020-06-14T15:03:11.000Z</time>
      </trkpt>
      <trkpt lat="43.6544" lon="3.78481">
        <ele>72.11311275656</ele>
        <time>2020-06-14T15:03:12.000Z</time>
      </trkpt>
      <trkpt lat="43.65438" lon="3.78483">
        <ele>72.013012688524</ele>
        <time>2020-06-14T15:03:13.000Z</time>
      </trkpt>
      <trkpt lat="43.65437" lon="3.78486">
        <ele>71.91299968</ele>
        <time>2020-06-14T15:03:14.000Z</time>
      </trkpt>
      <trkpt lat="43.65436" lon="3.78489">
        <ele>71.81299968</ele>
        <time>2020-06-14T15:03:15.000Z</time>
      </trkpt>
      <trkpt lat="43.65435" lon="3.78491">
        <ele>71.71299968</ele>
        <time>2020-06-14T15:03:16.000Z</time>
      </trkpt>
      <trkpt lat="43.65434" lon="3.78494">
        <ele>71.61299968</ele>
        <time>2020-06-14T15:03:17.000Z</time>
      </trkpt>
      <trkpt lat="43.65433" lon="3.78497">
        <ele>71.51299968</ele>
        <time>2020-06-14T15:03:18.000Z</time>
      </trkpt>
      <trkpt lat="43.65432" lon="3.78501">
        <ele>71.41299968</ele>
        <time>2020-06-14T15:03:19.000Z</time>
      </trkpt>
      <trkpt lat="43.65431" lon="3.78505">
        <ele>71.31299968</ele>
        <time>2020-06-14T15:03:20.000Z</time>
      </trkpt>
      <trkpt lat="43.6543" lon="3.78509">
        <ele>71.21299968</ele>
        <time>2020-06-14T15:03:21.000Z</time>
      </trkpt>
      <trkpt lat="43.65428" lon="3.78513">
        <ele>71.11299968</ele>
        <time>2020-06-14T15:03:22.000Z</time>
      </trkpt>
      <trkpt lat="43.65427" lon="3.78518">
        <ele>71.01299968</ele>
        <time>2020-06-14T15:03:23.000Z</time>
      </trkpt>
      <trkpt lat="43.65425" lon="3.78523">
        <ele>70.913086565622</ele>
        <time>2020-06-14T15:03:24.000Z</time>
      </trkpt>
      <trkpt lat="43.65425" lon="3.78528">
        <ele>70.813186433786</ele>
        <time>2020-06-14T15:03:25.000Z</time>
      </trkpt>
      <trkpt lat="43.65425" lon="3.78533">
        <ele>70.71328630195</ele>
        <time>2020-06-14T15:03:26.000Z</time>
      </trkpt>
      <trkpt lat="43.65425" lon="3.78538">
        <ele>70.613386170114</ele>
        <time>2020-06-14T15:03:27.000Z</time>
      </trkpt>
      <trkpt lat="43.65425" lon="3.78543">
        <ele>70.513486038277</ele>
        <time>2020-06-14T15:03:28.000Z</time>
      </trkpt>
      <trkpt lat="43.65426" lon="3.78547">
        <ele>70.413585906441</ele>
        <time>2020-06-14T15:03:29.000Z</time>
      </trkpt>
      <trkpt lat="43.65427" lon="3.78552">
        <ele>70.313685774605</ele>
        <time>2020-06-14T15:03:30.000Z</time>
      </trkpt>
      <trkpt lat="43.65427" lon="3.78557">
        <ele>70.213785642769</ele>
        <time>2020-06-14T15:03:31.000Z</time>
      </trkpt>
      <trkpt lat="43.65428" lon="3.78561">
        <ele>70.113885510932</ele>
        <time>2020-06-14T15:03:32.000Z</time>
      </trkpt>
      <trkpt lat="43.65429" lon="3.78566">
        <ele>70.013985379096</ele>
        <time>2020-06-14T15:03:33.000Z</time>
      </trkpt>
      <trkpt lat="43.65431" lon="3.78571">
        <ele>69.74199808</ele>
        <time>2020-06-14T15:03:34.000Z</time>
      </trkpt>
      <trkpt lat="43.65432" lon="3.78576">
        <ele>69.44199808</ele>
        <time>2020-06-14T15:03:35.000Z</time>
      </trkpt>
      <trkpt lat="43.65432" lon="3.78582">
        <ele>69.14199808</ele>
        <time>2020-06-14T15:03:36.000Z</time>
      </trkpt>
      <trkpt lat="43.65433" lon="3.78588">
        <ele>68.84199808</ele>
        <time>2020-06-14T15:03:37.000Z</time>
      </trkpt>
      <trkpt lat="43.65433" lon="3.78594">
        <ele>68.54199808</ele>
        <time>2020-06-14T15:03:38.000Z</time>
      </trkpt>
      <trkpt lat="43.65432" lon="3.78601">
        <ele>68.24199808</ele>
        <time>2020-06-14T15:03:39.000Z</time>
      </trkpt>
      <trkpt lat="43.65431" lon="3.78609">
        <ele>67.94199808</ele>
        <time>2020-06-14T15:03:40.000Z</time>
      </trkpt>
      <trkpt lat="43.65428" lon="3.78615">
        <ele>67.64199808</ele>
        <time>2020-06-14T15:03:41.000Z</time>
      </trkpt>
      <trkpt lat="43.65424" lon="3.7862">
        <ele>67.34199808</ele>
        <time>2020-06-14T15:03:42.000Z</time>
      </trkpt>
      <trkpt lat="43.6542" lon="3.78625">
        <ele>67.04199808</ele>
        <time>2020-06-14T15:03:43.000Z</time>
      </trkpt>
      <trkpt lat="43.65416" lon="3.78628">
        <ele>67</ele>
        <time>2020-06-14T15:03:44.000Z</time>
      </trkpt>
      <trkpt lat="43.65411" lon="3.78631">
        <ele>67</ele>
        <time>2020-06-14T15:03:45.000Z</time>
      </trkpt>
      <trkpt lat="43.65407" lon="3.78634">
        <ele>67</ele>
        <time>2020-06-14T15:03:46.000Z</time>
      </trkpt>
      <trkpt lat="43.65402" lon="3.78637">
        <ele>67</ele>
        <time>2020-06-14T15:03:47.000Z</time>
      </trkpt>
      <trkpt lat="43.65398" lon="3.78639">
        <ele>67</ele>
        <time>2020-06-14T15:03:48.000Z</time>
      </trkpt>
      <trkpt lat="43.65394" lon="3.78641">
        <ele>67</ele>
        <time>2020-06-14T15:03:49.000Z</time>
      </trkpt>
      <trkpt lat="43.65391" lon="3.78642">
        <ele>67</ele>
        <time>2020-06-14T15:03:50.000Z</time>
      </trkpt>
      <trkpt lat="43.65387" lon="3.78644">
        <ele>67</ele>
        <time>2020-06-14T15:03:51.000Z</time>
      </trkpt>
      <trkpt lat="43.65384" lon="3.78645">
        <ele>67</ele>
        <time>2020-06-14T15:03:52.000Z</time>
      </trkpt>
      <trkpt lat="43.65381" lon="3.78646">
        <ele>67</ele>
        <time>2020-06-14T15:03:53.000Z</time>
      </trkpt>
      <trkpt lat="43.65378" lon="3.78648">
        <ele>67.084548337059</ele>
        <time>2020-06-14T15:03:54.000Z</time>
      </trkpt>
      <trkpt lat="43.65375" lon="3.78649">
        <ele>67.181729976229</ele>
        <time>2020-06-14T15:03:55.000Z</time>
      </trkpt>
      <trkpt lat="43.65372" lon="3.7865">
        <ele>67.278911615398</ele>
        <time>2020-06-14T15:03:56.000Z</time>
      </trkpt>
      <trkpt lat="43.65369" lon="3.78651">
        <ele>67.376093254568</ele>
        <time>2020-06-14T15:03:57.000Z</time>
      </trkpt>
      <trkpt lat="43.65366" lon="3.78652">
        <ele>67.473274893738</ele>
        <time>2020-06-14T15:03:58.000Z</time>
      </trkpt>
      <trkpt lat="43.65364" lon="3.78654">
        <ele>67.570456532907</ele>
        <time>2020-06-14T15:03:59.000Z</time>
      </trkpt>
      <trkpt lat="43.65361" lon="3.78655">
        <ele>67.667638172077</ele>
        <time>2020-06-14T15:04:00.000Z</time>
      </trkpt>
      <trkpt lat="43.65358" lon="3.78657">
        <ele>67.764819811247</ele>
        <time>2020-06-14T15:04:01.000Z</time>
      </trkpt>
      <trkpt lat="43.65356" lon="3.78658">
        <ele>67.862001450416</ele>
        <time>2020-06-14T15:04:02.000Z</time>
      </trkpt>
      <trkpt lat="43.65353" lon="3.7866">
        <ele>67.959183089586</ele>
        <time>2020-06-14T15:04:03.000Z</time>
      </trkpt>
      <trkpt lat="43.65351" lon="3.78662">
        <ele>68.05973163475</ele>
        <time>2020-06-14T15:04:04.000Z</time>
      </trkpt>
      <trkpt lat="43.65349" lon="3.78663">
        <ele>68.162718348311</ele>
        <time>2020-06-14T15:04:05.000Z</time>
      </trkpt>
      <trkpt lat="43.65346" lon="3.78665">
        <ele>68.265705061871</ele>
        <time>2020-06-14T15:04:06.000Z</time>
      </trkpt>
      <trkpt lat="43.65344" lon="3.78667">
        <ele>68.368691775432</ele>
        <time>2020-06-14T15:04:07.000Z</time>
      </trkpt>
      <trkpt lat="43.65341" lon="3.78668">
        <ele>68.471678488992</ele>
        <time>2020-06-14T15:04:08.000Z</time>
      </trkpt>
      <trkpt lat="43.65339" lon="3.7867">
        <ele>68.574665202553</ele>
        <time>2020-06-14T15:04:09.000Z</time>
      </trkpt>
      <trkpt lat="43.65337" lon="3.78673">
        <ele>68.677651916113</ele>
        <time>2020-06-14T15:04:10.000Z</time>
      </trkpt>
      <trkpt lat="43.65335" lon="3.78675">
        <ele>68.780638629674</ele>
        <time>2020-06-14T15:04:11.000Z</time>
      </trkpt>
      <trkpt lat="43.65332" lon="3.78677">
        <ele>68.883625343234</ele>
        <time>2020-06-14T15:04:12.000Z</time>
      </trkpt>
      <trkpt lat="43.65329" lon="3.78679">
        <ele>68.986612056795</ele>
        <time>2020-06-14T15:04:13.000Z</time>
      </trkpt>
      <trkpt lat="43.65328" lon="3.78681">
        <ele>69</ele>
        <time>2020-06-14T15:04:14.000Z</time>
      </trkpt>
      <trkpt lat="43.65326" lon="3.78683">
        <ele>69</ele>
        <time>2020-06-14T15:04:15.000Z</time>
      </trkpt>
      <trkpt lat="43.65324" lon="3.78685">
        <ele>69</ele>
        <time>2020-06-14T15:04:16.000Z</time>
      </trkpt>
      <trkpt lat="43.65321" lon="3.78687">
        <ele>69</ele>
        <time>2020-06-14T15:04:17.000Z</time>
      </trkpt>
      <trkpt lat="43.65319" lon="3.78689">
        <ele>69</ele>
        <time>2020-06-14T15:04:18.000Z</time>
      </trkpt>
      <trkpt lat="43.65317" lon="3.78691">
        <ele>69</ele>
        <time>2020-06-14T15:04:19.000Z</time>
      </trkpt>
      <trkpt lat="43.65315" lon="3.78693">
        <ele>69</ele>
        <time>2020-06-14T15:04:20.000Z</time>
      </trkpt>
      <trkpt lat="43.65312" lon="3.78695">
        <ele>69</ele>
        <time>2020-06-14T15:04:21.000Z</time>
      </trkpt>
      <trkpt lat="43.6531" lon="3.78697">
        <ele>69</ele>
        <time>2020-06-14T15:04:22.000Z</time>
      </trkpt>
      <trkpt lat="43.65307" lon="3.78698">
        <ele>69</ele>
        <time>2020-06-14T15:04:23.000Z</time>
      </trkpt>
      <trkpt lat="43.65305" lon="3.787">
        <ele>69.086913434378</ele>
        <time>2020-06-14T15:04:24.000Z</time>
      </trkpt>
      <trkpt lat="43.65303" lon="3.78701">
        <ele>69.186813566214</ele>
        <time>2020-06-14T15:04:25.000Z</time>
      </trkpt>
      <trkpt lat="43.653" lon="3.78702">
        <ele>69.28671369805</ele>
        <time>2020-06-14T15:04:26.000Z</time>
      </trkpt>
      <trkpt lat="43.65298" lon="3.78703">
        <ele>69.386613829886</ele>
        <time>2020-06-14T15:04:27.000Z</time>
      </trkpt>
      <trkpt lat="43.65296" lon="3.78705">
        <ele>69.486513961723</ele>
        <time>2020-06-14T15:04:28.000Z</time>
      </trkpt>
      <trkpt lat="43.65294" lon="3.78707">
        <ele>69.586414093559</ele>
        <time>2020-06-14T15:04:29.000Z</time>
      </trkpt>
      <trkpt lat="43.65291" lon="3.78708">
        <ele>69.686314225395</ele>
        <time>2020-06-14T15:04:30.000Z</time>
      </trkpt>
      <trkpt lat="43.65289" lon="3.7871">
        <ele>69.786214357231</ele>
        <time>2020-06-14T15:04:31.000Z</time>
      </trkpt>
      <trkpt lat="43.65287" lon="3.78711">
        <ele>69.886114489068</ele>
        <time>2020-06-14T15:04:32.000Z</time>
      </trkpt>
      <trkpt lat="43.65285" lon="3.78712">
        <ele>69.986014620904</ele>
        <time>2020-06-14T15:04:33.000Z</time>
      </trkpt>
      <trkpt lat="43.65282" lon="3.78713">
        <ele>70</ele>
        <time>2020-06-14T15:04:34.000Z</time>
      </trkpt>
      <trkpt lat="43.6528" lon="3.78714">
        <ele>70</ele>
        <time>2020-06-14T15:04:35.000Z</time>
      </trkpt>
      <trkpt lat="43.65278" lon="3.78715">
        <ele>70</ele>
        <time>2020-06-14T15:04:36.000Z</time>
      </trkpt>
      <trkpt lat="43.65275" lon="3.78716">
        <ele>70</ele>
        <time>2020-06-14T15:04:37.000Z</time>
      </trkpt>
      <trkpt lat="43.65273" lon="3.78717">
        <ele>70</ele>
        <time>2020-06-14T15:04:38.000Z</time>
      </trkpt>
      <trkpt lat="43.6527" lon="3.78718">
        <ele>70</ele>
        <time>2020-06-14T15:04:39.000Z</time>
      </trkpt>
      <trkpt lat="43.65268" lon="3.78719">
        <ele>70</ele>
        <time>2020-06-14T15:04:40.000Z</time>
      </trkpt>
      <trkpt lat="43.65266" lon="3.78721">
        <ele>70</ele>
        <time>2020-06-14T15:04:41.000Z</time>
      </trkpt>
      <trkpt lat="43.65264" lon="3.78722">
        <ele>70</ele>
        <time>2020-06-14T15:04:42.000Z</time>
      </trkpt>
      <trkpt lat="43.65262" lon="3.78723">
        <ele>70</ele>
        <time>2020-06-14T15:04:43.000Z</time>
      </trkpt>
      <trkpt lat="43.65259" lon="3.78724">
        <ele>69.939362446656</ele>
        <time>2020-06-14T15:04:44.000Z</time>
      </trkpt>
      <trkpt lat="43.65257" lon="3.78725">
        <ele>69.836587489936</ele>
        <time>2020-06-14T15:04:45.000Z</time>
      </trkpt>
      <trkpt lat="43.65255" lon="3.78726">
        <ele>69.733812533217</ele>
        <time>2020-06-14T15:04:46.000Z</time>
      </trkpt>
      <trkpt lat="43.65253" lon="3.78727">
        <ele>69.631037576498</ele>
        <time>2020-06-14T15:04:47.000Z</time>
      </trkpt>
      <trkpt lat="43.65251" lon="3.78728">
        <ele>69.528262619778</ele>
        <time>2020-06-14T15:04:48.000Z</time>
      </trkpt>
      <trkpt lat="43.65249" lon="3.78729">
        <ele>69.425487663059</ele>
        <time>2020-06-14T15:04:49.000Z</time>
      </trkpt>
      <trkpt lat="43.65246" lon="3.7873">
        <ele>69.322712706339</ele>
        <time>2020-06-14T15:04:50.000Z</time>
      </trkpt>
      <trkpt lat="43.65243" lon="3.78731">
        <ele>69.21993774962</ele>
        <time>2020-06-14T15:04:51.000Z</time>
      </trkpt>
      <trkpt lat="43.6524" lon="3.78732">
        <ele>69.1171627929</ele>
        <time>2020-06-14T15:04:52.000Z</time>
      </trkpt>
      <trkpt lat="43.65237" lon="3.78733">
        <ele>69.014387836181</ele>
        <time>2020-06-14T15:04:53.000Z</time>
      </trkpt>
      <trkpt lat="43.65234" lon="3.78734">
        <ele>68.827826601697</ele>
        <time>2020-06-14T15:04:54.000Z</time>
      </trkpt>
      <trkpt lat="43.65231" lon="3.78734">
        <ele>68.627626465625</ele>
        <time>2020-06-14T15:04:55.000Z</time>
      </trkpt>
      <trkpt lat="43.65229" lon="3.78735">
        <ele>68.427426329553</ele>
        <time>2020-06-14T15:04:56.000Z</time>
      </trkpt>
      <trkpt lat="43.65226" lon="3.78737">
        <ele>68.227226193481</ele>
        <time>2020-06-14T15:04:57.000Z</time>
      </trkpt>
      <trkpt lat="43.65223" lon="3.78738">
        <ele>68.027026057409</ele>
        <time>2020-06-14T15:04:58.000Z</time>
      </trkpt>
      <trkpt lat="43.65221" lon="3.78741">
        <ele>67.826825921337</ele>
        <time>2020-06-14T15:04:59.000Z</time>
      </trkpt>
      <trkpt lat="43.65218" lon="3.78744">
        <ele>67.626625785265</ele>
        <time>2020-06-14T15:05:00.000Z</time>
      </trkpt>
      <trkpt lat="43.65217" lon="3.78748">
        <ele>67.426425649193</ele>
        <time>2020-06-14T15:05:01.000Z</time>
      </trkpt>
      <trkpt lat="43.65216" lon="3.78752">
        <ele>67.226225513121</ele>
        <time>2020-06-14T15:05:02.000Z</time>
      </trkpt>
      <trkpt lat="43.65216" lon="3.78756">
        <ele>67.026025377049</ele>
        <time>2020-06-14T15:05:03.000Z</time>
      </trkpt>
      <trkpt lat="43.65214" lon="3.7876">
        <ele>66.91299968</ele>
        <time>2020-06-14T15:05:04.000Z</time>
      </trkpt>
      <trkpt lat="43.65213" lon="3.78764">
        <ele>66.81299968</ele>
        <time>2020-06-14T15:05:05.000Z</time>
      </trkpt>
      <trkpt lat="43.65211" lon="3.78767">
        <ele>66.71299968</ele>
        <time>2020-06-14T15:05:06.000Z</time>
      </trkpt>
      <trkpt lat="43.65209" lon="3.78771">
        <ele>66.61299968</ele>
        <time>2020-06-14T15:05:07.000Z</time>
      </trkpt>
      <trkpt lat="43.65207" lon="3.78774">
        <ele>66.51299968</ele>
        <time>2020-06-14T15:05:08.000Z</time>
      </trkpt>
      <trkpt lat="43.65205" lon="3.78776">
        <ele>66.41299968</ele>
        <time>2020-06-14T15:05:09.000Z</time>
      </trkpt>
      <trkpt lat="43.65203" lon="3.78779">
        <ele>66.31299968</ele>
        <time>2020-06-14T15:05:10.000Z</time>
      </trkpt>
      <trkpt lat="43.652" lon="3.78781">
        <ele>66.21299968</ele>
        <time>2020-06-14T15:05:11.000Z</time>
      </trkpt>
      <trkpt lat="43.65198" lon="3.78784">
        <ele>66.11299968</ele>
        <time>2020-06-14T15:05:12.000Z</time>
      </trkpt>
      <trkpt lat="43.65195" lon="3.78785">
        <ele>66.01299968</ele>
        <time>2020-06-14T15:05:13.000Z</time>
      </trkpt>
      <trkpt lat="43.65192" lon="3.78787">
        <ele>66.086913434378</ele>
        <time>2020-06-14T15:05:14.000Z</time>
      </trkpt>
      <trkpt lat="43.65189" lon="3.78789">
        <ele>66.186813566214</ele>
        <time>2020-06-14T15:05:15.000Z</time>
      </trkpt>
      <trkpt lat="43.65186" lon="3.78791">
        <ele>66.28671369805</ele>
        <time>2020-06-14T15:05:16.000Z</time>
      </trkpt>
      <trkpt lat="43.65183" lon="3.78794">
        <ele>66.386613829886</ele>
        <time>2020-06-14T15:05:17.000Z</time>
      </trkpt>
      <trkpt lat="43.65179" lon="3.78795">
        <ele>66.486513961723</ele>
        <time>2020-06-14T15:05:18.000Z</time>
      </trkpt>
      <trkpt lat="43.65177" lon="3.78797">
        <ele>66.586414093559</ele>
        <time>2020-06-14T15:05:19.000Z</time>
      </trkpt>
      <trkpt lat="43.65174" lon="3.78799">
        <ele>66.686314225395</ele>
        <time>2020-06-14T15:05:20.000Z</time>
      </trkpt>
      <trkpt lat="43.65171" lon="3.788">
        <ele>66.786214357231</ele>
        <time>2020-06-14T15:05:21.000Z</time>
      </trkpt>
      <trkpt lat="43.65168" lon="3.78802">
        <ele>66.886114489068</ele>
        <time>2020-06-14T15:05:22.000Z</time>
      </trkpt>
      <trkpt lat="43.65166" lon="3.78804">
        <ele>66.986014620904</ele>
        <time>2020-06-14T15:05:23.000Z</time>
      </trkpt>
      <trkpt lat="43.65163" lon="3.78805">
        <ele>67</ele>
        <time>2020-06-14T15:05:24.000Z</time>
      </trkpt>
      <trkpt lat="43.6516" lon="3.78806">
        <ele>67</ele>
        <time>2020-06-14T15:05:25.000Z</time>
      </trkpt>
      <trkpt lat="43.65157" lon="3.78808">
        <ele>67</ele>
        <time>2020-06-14T15:05:26.000Z</time>
      </trkpt>
      <trkpt lat="43.65153" lon="3.78809">
        <ele>67</ele>
        <time>2020-06-14T15:05:27.000Z</time>
      </trkpt>
      <trkpt lat="43.6515" lon="3.78811">
        <ele>67</ele>
        <time>2020-06-14T15:05:28.000Z</time>
      </trkpt>
      <trkpt lat="43.65147" lon="3.78813">
        <ele>67</ele>
        <time>2020-06-14T15:05:29.000Z</time>
      </trkpt>
      <trkpt lat="43.65146" lon="3.78816">
        <ele>67</ele>
        <time>2020-06-14T15:05:30.000Z</time>
      </trkpt>
      <trkpt lat="43.65146" lon="3.78819">
        <ele>67</ele>
        <time>2020-06-14T15:05:31.000Z</time>
      </trkpt>
      <trkpt lat="43.65145" lon="3.78823">
        <ele>67</ele>
        <time>2020-06-14T15:05:32.000Z</time>
      </trkpt>
      <trkpt lat="43.65145" lon="3.78828">
        <ele>67</ele>
        <time>2020-06-14T15:05:33.000Z</time>
      </trkpt>
      <trkpt lat="43.65145" lon="3.78834">
        <ele>66.88400128</ele>
        <time>2020-06-14T15:05:34.000Z</time>
      </trkpt>
      <trkpt lat="43.65145" lon="3.7884">
        <ele>66.68400128</ele>
        <time>2020-06-14T15:05:35.000Z</time>
      </trkpt>
      <trkpt lat="43.65146" lon="3.78847">
        <ele>66.48400128</ele>
        <time>2020-06-14T15:05:36.000Z</time>
      </trkpt>
      <trkpt lat="43.65146" lon="3.78853">
        <ele>66.28400128</ele>
        <time>2020-06-14T15:05:37.000Z</time>
      </trkpt>
      <trkpt lat="43.65145" lon="3.78859">
        <ele>66.08400128</ele>
        <time>2020-06-14T15:05:38.000Z</time>
      </trkpt>
      <trkpt lat="43.65142" lon="3.78864">
        <ele>65.88400128</ele>
        <time>2020-06-14T15:05:39.000Z</time>
      </trkpt>
      <trkpt lat="43.65138" lon="3.78869">
        <ele>65.68400128</ele>
        <time>2020-06-14T15:05:40.000Z</time>
      </trkpt>
      <trkpt lat="43.65134" lon="3.78872">
        <ele>65.48400128</ele>
        <time>2020-06-14T15:05:41.000Z</time>
      </trkpt>
      <trkpt lat="43.6513" lon="3.78875">
        <ele>65.28400128</ele>
        <time>2020-06-14T15:05:42.000Z</time>
      </trkpt>
      <trkpt lat="43.65125" lon="3.78879">
        <ele>65.08400128</ele>
        <time>2020-06-14T15:05:43.000Z</time>
      </trkpt>
      <trkpt lat="43.65121" lon="3.78882">
        <ele>65</ele>
        <time>2020-06-14T15:05:44.000Z</time>
      </trkpt>
      <trkpt lat="43.65117" lon="3.78885">
        <ele>65</ele>
        <time>2020-06-14T15:05:45.000Z</time>
      </trkpt>
      <trkpt lat="43.65113" lon="3.78889">
        <ele>65</ele>
        <time>2020-06-14T15:05:46.000Z</time>
      </trkpt>
      <trkpt lat="43.65109" lon="3.78892">
        <ele>65</ele>
        <time>2020-06-14T15:05:47.000Z</time>
      </trkpt>
      <trkpt lat="43.65105" lon="3.78895">
        <ele>65</ele>
        <time>2020-06-14T15:05:48.000Z</time>
      </trkpt>
      <trkpt lat="43.65102" lon="3.78899">
        <ele>65</ele>
        <time>2020-06-14T15:05:49.000Z</time>
      </trkpt>
      <trkpt lat="43.651" lon="3.78903">
        <ele>65</ele>
        <time>2020-06-14T15:05:50.000Z</time>
      </trkpt>
      <trkpt lat="43.65097" lon="3.78906">
        <ele>65</ele>
        <time>2020-06-14T15:05:51.000Z</time>
      </trkpt>
      <trkpt lat="43.65094" lon="3.78909">
        <ele>65</ele>
        <time>2020-06-14T15:05:52.000Z</time>
      </trkpt>
      <trkpt lat="43.65092" lon="3.78912">
        <ele>65</ele>
        <time>2020-06-14T15:05:53.000Z</time>
      </trkpt>
      <trkpt lat="43.6509" lon="3.78916">
        <ele>64.91299968</ele>
        <time>2020-06-14T15:05:54.000Z</time>
      </trkpt>
      <trkpt lat="43.65088" lon="3.78919">
        <ele>64.81299968</ele>
        <time>2020-06-14T15:05:55.000Z</time>
      </trkpt>
      <trkpt lat="43.65087" lon="3.78924">
        <ele>64.71299968</ele>
        <time>2020-06-14T15:05:56.000Z</time>
      </trkpt>
      <trkpt lat="43.65085" lon="3.78928">
        <ele>64.61299968</ele>
        <time>2020-06-14T15:05:57.000Z</time>
      </trkpt>
      <trkpt lat="43.65085" lon="3.78931">
        <ele>64.51299968</ele>
        <time>2020-06-14T15:05:58.000Z</time>
      </trkpt>
      <trkpt lat="43.65084" lon="3.78934">
        <ele>64.41299968</ele>
        <time>2020-06-14T15:05:59.000Z</time>
      </trkpt>
      <trkpt lat="43.65082" lon="3.78938">
        <ele>64.21299968</ele>
        <time>2020-06-14T15:06:01.000Z</time>
      </trkpt>
      <trkpt lat="43.6508" lon="3.7894">
        <ele>64.11299968</ele>
        <time>2020-06-14T15:06:02.000Z</time>
      </trkpt>
      <trkpt lat="43.65078" lon="3.78941">
        <ele>64.01299968</ele>
        <time>2020-06-14T15:06:03.000Z</time>
      </trkpt>
      <trkpt lat="43.65076" lon="3.78946">
        <ele>64</ele>
        <time>2020-06-14T15:06:05.000Z</time>
      </trkpt>
      <trkpt lat="43.65075" lon="3.78949">
        <ele>64</ele>
        <time>2020-06-14T15:06:06.000Z</time>
      </trkpt>
      <trkpt lat="43.65074" lon="3.78951">
        <ele>64</ele>
        <time>2020-06-14T15:06:07.000Z</time>
      </trkpt>
      <trkpt lat="43.65072" lon="3.78954">
        <ele>64</ele>
        <time>2020-06-14T15:06:09.000Z</time>
      </trkpt>
      <trkpt lat="43.6507" lon="3.78956">
        <ele>64</ele>
        <time>2020-06-14T15:06:11.000Z</time>
      </trkpt>
      <trkpt lat="43.65067" lon="3.78959">
        <ele>64</ele>
        <time>2020-06-14T15:06:13.000Z</time>
      </trkpt>
      <trkpt lat="43.65066" lon="3.7896">
        <ele>64</ele>
        <time>2020-06-14T15:06:14.000Z</time>
      </trkpt>
      <trkpt lat="43.65064" lon="3.78962">
        <ele>64</ele>
        <time>2020-06-14T15:06:15.000Z</time>
      </trkpt>
      <trkpt lat="43.65063" lon="3.78965">
        <ele>64</ele>
        <time>2020-06-14T15:06:16.000Z</time>
      </trkpt>
      <trkpt lat="43.65061" lon="3.78967">
        <ele>64</ele>
        <time>2020-06-14T15:06:17.000Z</time>
      </trkpt>
      <trkpt lat="43.65058" lon="3.78969">
        <ele>64</ele>
        <time>2020-06-14T15:06:18.000Z</time>
      </trkpt>
      <trkpt lat="43.65055" lon="3.78972">
        <ele>64</ele>
        <time>2020-06-14T15:06:19.000Z</time>
      </trkpt>
      <trkpt lat="43.65053" lon="3.78975">
        <ele>64</ele>
        <time>2020-06-14T15:06:20.000Z</time>
      </trkpt>
      <trkpt lat="43.6505" lon="3.78977">
        <ele>64</ele>
        <time>2020-06-14T15:06:21.000Z</time>
      </trkpt>
      <trkpt lat="43.65047" lon="3.78979">
        <ele>64</ele>
        <time>2020-06-14T15:06:22.000Z</time>
      </trkpt>
      <trkpt lat="43.65044" lon="3.7898">
        <ele>64</ele>
        <time>2020-06-14T15:06:23.000Z</time>
      </trkpt>
      <trkpt lat="43.65041" lon="3.78981">
        <ele>63.91399936</ele>
        <time>2020-06-14T15:06:24.000Z</time>
      </trkpt>
      <trkpt lat="43.65039" lon="3.78982">
        <ele>63.81399936</ele>
        <time>2020-06-14T15:06:25.000Z</time>
      </trkpt>
      <trkpt lat="43.65036" lon="3.78984">
        <ele>63.71399936</ele>
        <time>2020-06-14T15:06:26.000Z</time>
      </trkpt>
      <trkpt lat="43.65033" lon="3.78985">
        <ele>63.61399936</ele>
        <time>2020-06-14T15:06:27.000Z</time>
      </trkpt>
      <trkpt lat="43.6503" lon="3.78987">
        <ele>63.51399936</ele>
        <time>2020-06-14T15:06:28.000Z</time>
      </trkpt>
      <trkpt lat="43.65027" lon="3.78988">
        <ele>63.41399936</ele>
        <time>2020-06-14T15:06:29.000Z</time>
      </trkpt>
      <trkpt lat="43.65024" lon="3.7899">
        <ele>63.31399936</ele>
        <time>2020-06-14T15:06:30.000Z</time>
      </trkpt>
      <trkpt lat="43.6502" lon="3.78991">
        <ele>63.21399936</ele>
        <time>2020-06-14T15:06:31.000Z</time>
      </trkpt>
      <trkpt lat="43.65017" lon="3.78993">
        <ele>63.11399936</ele>
        <time>2020-06-14T15:06:32.000Z</time>
      </trkpt>
      <trkpt lat="43.65014" lon="3.78995">
        <ele>63.01399936</ele>
        <time>2020-06-14T15:06:33.000Z</time>
      </trkpt>
      <trkpt lat="43.65011" lon="3.78997">
        <ele>63</ele>
        <time>2020-06-14T15:06:34.000Z</time>
      </trkpt>
      <trkpt lat="43.65008" lon="3.78999">
        <ele>63</ele>
        <time>2020-06-14T15:06:35.000Z</time>
      </trkpt>
      <trkpt lat="43.65004" lon="3.79002">
        <ele>63</ele>
        <time>2020-06-14T15:06:36.000Z</time>
      </trkpt>
      <trkpt lat="43.65001" lon="3.79004">
        <ele>63</ele>
        <time>2020-06-14T15:06:37.000Z</time>
      </trkpt>
      <trkpt lat="43.64998" lon="3.79007">
        <ele>63</ele>
        <time>2020-06-14T15:06:38.000Z</time>
      </trkpt>
      <trkpt lat="43.64994" lon="3.79009">
        <ele>63</ele>
        <time>2020-06-14T15:06:39.000Z</time>
      </trkpt>
      <trkpt lat="43.6499" lon="3.79011">
        <ele>63</ele>
        <time>2020-06-14T15:06:40.000Z</time>
      </trkpt>
      <trkpt lat="43.64987" lon="3.79011">
        <ele>63</ele>
        <time>2020-06-14T15:06:41.000Z</time>
      </trkpt>
      <trkpt lat="43.64984" lon="3.79011">
        <ele>63</ele>
        <time>2020-06-14T15:06:42.000Z</time>
      </trkpt>
      <trkpt lat="43.64981" lon="3.7901">
        <ele>63</ele>
        <time>2020-06-14T15:06:43.000Z</time>
      </trkpt>
      <trkpt lat="43.64979" lon="3.79008">
        <ele>63</ele>
        <time>2020-06-14T15:06:44.000Z</time>
      </trkpt>
      <trkpt lat="43.64976" lon="3.79006">
        <ele>63</ele>
        <time>2020-06-14T15:06:45.000Z</time>
      </trkpt>
      <trkpt lat="43.64973" lon="3.79004">
        <ele>63</ele>
        <time>2020-06-14T15:06:46.000Z</time>
      </trkpt>
      <trkpt lat="43.6497" lon="3.79002">
        <ele>63</ele>
        <time>2020-06-14T15:06:47.000Z</time>
      </trkpt>
      <trkpt lat="43.64966" lon="3.79001">
        <ele>63</ele>
        <time>2020-06-14T15:06:48.000Z</time>
      </trkpt>
      <trkpt lat="43.64963" lon="3.79001">
        <ele>63</ele>
        <time>2020-06-14T15:06:49.000Z</time>
      </trkpt>
      <trkpt lat="43.64959" lon="3.79001">
        <ele>63</ele>
        <time>2020-06-14T15:06:50.000Z</time>
      </trkpt>
      <trkpt lat="43.64956" lon="3.79002">
        <ele>63</ele>
        <time>2020-06-14T15:06:51.000Z</time>
      </trkpt>
      <trkpt lat="43.64952" lon="3.79004">
        <ele>63</ele>
        <time>2020-06-14T15:06:52.000Z</time>
      </trkpt>
      <trkpt lat="43.64949" lon="3.79006">
        <ele>63</ele>
        <time>2020-06-14T15:06:53.000Z</time>
      </trkpt>
      <trkpt lat="43.64945" lon="3.79009">
        <ele>63</ele>
        <time>2020-06-14T15:06:54.000Z</time>
      </trkpt>
      <trkpt lat="43.64942" lon="3.79012">
        <ele>63</ele>
        <time>2020-06-14T15:06:55.000Z</time>
      </trkpt>
      <trkpt lat="43.64939" lon="3.79015">
        <ele>63</ele>
        <time>2020-06-14T15:06:56.000Z</time>
      </trkpt>
      <trkpt lat="43.64936" lon="3.79018">
        <ele>63</ele>
        <time>2020-06-14T15:06:57.000Z</time>
      </trkpt>
      <trkpt lat="43.64933" lon="3.7902">
        <ele>63</ele>
        <time>2020-06-14T15:06:58.000Z</time>
      </trkpt>
      <trkpt lat="43.6493" lon="3.79023">
        <ele>63</ele>
        <time>2020-06-14T15:06:59.000Z</time>
      </trkpt>
      <trkpt lat="43.64927" lon="3.79026">
        <ele>63</ele>
        <time>2020-06-14T15:07:00.000Z</time>
      </trkpt>
      <trkpt lat="43.64924" lon="3.79028">
        <ele>63</ele>
        <time>2020-06-14T15:07:01.000Z</time>
      </trkpt>
      <trkpt lat="43.64921" lon="3.79031">
        <ele>63</ele>
        <time>2020-06-14T15:07:02.000Z</time>
      </trkpt>
      <trkpt lat="43.64918" lon="3.79033">
        <ele>63</ele>
        <time>2020-06-14T15:07:03.000Z</time>
      </trkpt>
      <trkpt lat="43.64915" lon="3.79034">
        <ele>63.059670202035</ele>
        <time>2020-06-14T15:07:04.000Z</time>
      </trkpt>
      <trkpt lat="43.64912" lon="3.79036">
        <ele>63.162550995952</ele>
        <time>2020-06-14T15:07:05.000Z</time>
      </trkpt>
      <trkpt lat="43.64909" lon="3.79038">
        <ele>63.265431789869</ele>
        <time>2020-06-14T15:07:06.000Z</time>
      </trkpt>
      <trkpt lat="43.64906" lon="3.7904">
        <ele>63.368312583786</ele>
        <time>2020-06-14T15:07:07.000Z</time>
      </trkpt>
      <trkpt lat="43.64904" lon="3.79041">
        <ele>63.471193377703</ele>
        <time>2020-06-14T15:07:08.000Z</time>
      </trkpt>
      <trkpt lat="43.64901" lon="3.79043">
        <ele>63.57407417162</ele>
        <time>2020-06-14T15:07:09.000Z</time>
      </trkpt>
      <trkpt lat="43.64898" lon="3.79044">
        <ele>63.676954965537</ele>
        <time>2020-06-14T15:07:10.000Z</time>
      </trkpt>
      <trkpt lat="43.64896" lon="3.79045">
        <ele>63.779835759454</ele>
        <time>2020-06-14T15:07:11.000Z</time>
      </trkpt>
      <trkpt lat="43.64892" lon="3.79048">
        <ele>63.882716553372</ele>
        <time>2020-06-14T15:07:12.000Z</time>
      </trkpt>
      <trkpt lat="43.64889" lon="3.79051">
        <ele>63.985597347289</ele>
        <time>2020-06-14T15:07:13.000Z</time>
      </trkpt>
      <trkpt lat="43.64885" lon="3.79054">
        <ele>64</ele>
        <time>2020-06-14T15:07:14.000Z</time>
      </trkpt>
      <trkpt lat="43.64882" lon="3.79057">
        <ele>64</ele>
        <time>2020-06-14T15:07:15.000Z</time>
      </trkpt>
      <trkpt lat="43.64877" lon="3.7906">
        <ele>64</ele>
        <time>2020-06-14T15:07:16.000Z</time>
      </trkpt>
      <trkpt lat="43.64874" lon="3.79064">
        <ele>64</ele>
        <time>2020-06-14T15:07:17.000Z</time>
      </trkpt>
      <trkpt lat="43.6487" lon="3.79067">
        <ele>64</ele>
        <time>2020-06-14T15:07:18.000Z</time>
      </trkpt>
      <trkpt lat="43.64866" lon="3.79071">
        <ele>64</ele>
        <time>2020-06-14T15:07:19.000Z</time>
      </trkpt>
      <trkpt lat="43.64863" lon="3.79074">
        <ele>64</ele>
        <time>2020-06-14T15:07:20.000Z</time>
      </trkpt>
      <trkpt lat="43.64859" lon="3.79075">
        <ele>64</ele>
        <time>2020-06-14T15:07:21.000Z</time>
      </trkpt>
      <trkpt lat="43.64856" lon="3.79076">
        <ele>64</ele>
        <time>2020-06-14T15:07:22.000Z</time>
      </trkpt>
      <trkpt lat="43.64853" lon="3.79078">
        <ele>64</ele>
        <time>2020-06-14T15:07:23.000Z</time>
      </trkpt>
      <trkpt lat="43.6485" lon="3.7908">
        <ele>64.086086699151</ele>
        <time>2020-06-14T15:07:24.000Z</time>
      </trkpt>
      <trkpt lat="43.64847" lon="3.79082">
        <ele>64.186186767187</ele>
        <time>2020-06-14T15:07:25.000Z</time>
      </trkpt>
      <trkpt lat="43.64844" lon="3.79083">
        <ele>64.286286835223</ele>
        <time>2020-06-14T15:07:26.000Z</time>
      </trkpt>
      <trkpt lat="43.64841" lon="3.79085">
        <ele>64.386386903259</ele>
        <time>2020-06-14T15:07:27.000Z</time>
      </trkpt>
      <trkpt lat="43.64839" lon="3.79087">
        <ele>64.486486971296</ele>
        <time>2020-06-14T15:07:28.000Z</time>
      </trkpt>
      <trkpt lat="43.64837" lon="3.79091">
        <ele>64.586587039332</ele>
        <time>2020-06-14T15:07:29.000Z</time>
      </trkpt>
      <trkpt lat="43.64835" lon="3.79094">
        <ele>64.686687107368</ele>
        <time>2020-06-14T15:07:30.000Z</time>
      </trkpt>
      <trkpt lat="43.64833" lon="3.79099">
        <ele>64.786787175404</ele>
        <time>2020-06-14T15:07:31.000Z</time>
      </trkpt>
      <trkpt lat="43.6483" lon="3.79103">
        <ele>64.88688724344</ele>
        <time>2020-06-14T15:07:32.000Z</time>
      </trkpt>
      <trkpt lat="43.64828" lon="3.79107">
        <ele>64.986987311476</ele>
        <time>2020-06-14T15:07:33.000Z</time>
      </trkpt>
      <trkpt lat="43.64824" lon="3.79112">
        <ele>65.17400064</ele>
        <time>2020-06-14T15:07:34.000Z</time>
      </trkpt>
      <trkpt lat="43.64821" lon="3.79116">
        <ele>65.37400064</ele>
        <time>2020-06-14T15:07:35.000Z</time>
      </trkpt>
      <trkpt lat="43.64818" lon="3.79119">
        <ele>65.57400064</ele>
        <time>2020-06-14T15:07:36.000Z</time>
      </trkpt>
      <trkpt lat="43.64814" lon="3.79122">
        <ele>65.77400064</ele>
        <time>2020-06-14T15:07:37.000Z</time>
      </trkpt>
      <trkpt lat="43.64811" lon="3.79124">
        <ele>65.97400064</ele>
        <time>2020-06-14T15:07:38.000Z</time>
      </trkpt>
      <trkpt lat="43.64807" lon="3.79126">
        <ele>66.17400064</ele>
        <time>2020-06-14T15:07:39.000Z</time>
      </trkpt>
      <trkpt lat="43.64804" lon="3.79129">
        <ele>66.37400064</ele>
        <time>2020-06-14T15:07:40.000Z</time>
      </trkpt>
      <trkpt lat="43.64802" lon="3.79131">
        <ele>66.57400064</ele>
        <time>2020-06-14T15:07:41.000Z</time>
      </trkpt>
      <trkpt lat="43.64799" lon="3.79133">
        <ele>66.77400064</ele>
        <time>2020-06-14T15:07:42.000Z</time>
      </trkpt>
      <trkpt lat="43.64797" lon="3.79135">
        <ele>66.97400064</ele>
        <time>2020-06-14T15:07:43.000Z</time>
      </trkpt>
      <trkpt lat="43.64796" lon="3.79136">
        <ele>67.08700032</ele>
        <time>2020-06-14T15:07:44.000Z</time>
      </trkpt>
      <trkpt lat="43.64794" lon="3.79138">
        <ele>67.18700032</ele>
        <time>2020-06-14T15:07:45.000Z</time>
      </trkpt>
      <trkpt lat="43.64792" lon="3.7914">
        <ele>67.38700032</ele>
        <time>2020-06-14T15:07:47.000Z</time>
      </trkpt>
      <trkpt lat="43.6479" lon="3.79141">
        <ele>67.48700032</ele>
        <time>2020-06-14T15:07:48.000Z</time>
      </trkpt>
      <trkpt lat="43.64788" lon="3.79142">
        <ele>67.58700032</ele>
        <time>2020-06-14T15:07:49.000Z</time>
      </trkpt>
      <trkpt lat="43.64786" lon="3.79144">
        <ele>67.68700032</ele>
        <time>2020-06-14T15:07:50.000Z</time>
      </trkpt>
      <trkpt lat="43.64783" lon="3.79145">
        <ele>67.78700032</ele>
        <time>2020-06-14T15:07:51.000Z</time>
      </trkpt>
      <trkpt lat="43.64781" lon="3.79147">
        <ele>67.88700032</ele>
        <time>2020-06-14T15:07:52.000Z</time>
      </trkpt>
      <trkpt lat="43.64779" lon="3.79148">
        <ele>67.98700032</ele>
        <time>2020-06-14T15:07:53.000Z</time>
      </trkpt>
      <trkpt lat="43.64776" lon="3.79149">
        <ele>68</ele>
        <time>2020-06-14T15:07:54.000Z</time>
      </trkpt>
      <trkpt lat="43.64774" lon="3.79149">
        <ele>68</ele>
        <time>2020-06-14T15:07:55.000Z</time>
      </trkpt>
      <trkpt lat="43.64771" lon="3.79149">
        <ele>68</ele>
        <time>2020-06-14T15:07:56.000Z</time>
      </trkpt>
      <trkpt lat="43.64769" lon="3.79149">
        <ele>68</ele>
        <time>2020-06-14T15:07:57.000Z</time>
      </trkpt>
      <trkpt lat="43.64766" lon="3.79151">
        <ele>68</ele>
        <time>2020-06-14T15:07:58.000Z</time>
      </trkpt>
      <trkpt lat="43.64764" lon="3.79153">
        <ele>68</ele>
        <time>2020-06-14T15:07:59.000Z</time>
      </trkpt>
      <trkpt lat="43.64761" lon="3.79157">
        <ele>68</ele>
        <time>2020-06-14T15:08:00.000Z</time>
      </trkpt>
      <trkpt lat="43.64758" lon="3.7916">
        <ele>68</ele>
        <time>2020-06-14T15:08:01.000Z</time>
      </trkpt>
      <trkpt lat="43.64755" lon="3.79163">
        <ele>68</ele>
        <time>2020-06-14T15:08:02.000Z</time>
      </trkpt>
      <trkpt lat="43.64752" lon="3.79165">
        <ele>68</ele>
        <time>2020-06-14T15:08:03.000Z</time>
      </trkpt>
      <trkpt lat="43.6475" lon="3.79167">
        <ele>68.086913434378</ele>
        <time>2020-06-14T15:08:04.000Z</time>
      </trkpt>
      <trkpt lat="43.64747" lon="3.7917">
        <ele>68.186813566214</ele>
        <time>2020-06-14T15:08:05.000Z</time>
      </trkpt>
      <trkpt lat="43.64744" lon="3.79173">
        <ele>68.28671369805</ele>
        <time>2020-06-14T15:08:06.000Z</time>
      </trkpt>
      <trkpt lat="43.64741" lon="3.79176">
        <ele>68.386613829886</ele>
        <time>2020-06-14T15:08:07.000Z</time>
      </trkpt>
      <trkpt lat="43.64738" lon="3.79179">
        <ele>68.486513961723</ele>
        <time>2020-06-14T15:08:08.000Z</time>
      </trkpt>
      <trkpt lat="43.64735" lon="3.79182">
        <ele>68.586414093559</ele>
        <time>2020-06-14T15:08:09.000Z</time>
      </trkpt>
      <trkpt lat="43.64732" lon="3.79185">
        <ele>68.686314225395</ele>
        <time>2020-06-14T15:08:10.000Z</time>
      </trkpt>
      <trkpt lat="43.6473" lon="3.79188">
        <ele>68.786214357231</ele>
        <time>2020-06-14T15:08:11.000Z</time>
      </trkpt>
      <trkpt lat="43.64727" lon="3.7919">
        <ele>68.886114489068</ele>
        <time>2020-06-14T15:08:12.000Z</time>
      </trkpt>
      <trkpt lat="43.64725" lon="3.79191">
        <ele>68.986014620904</ele>
        <time>2020-06-14T15:08:13.000Z</time>
      </trkpt>
      <trkpt lat="43.64723" lon="3.79192">
        <ele>69.17200128</ele>
        <time>2020-06-14T15:08:14.000Z</time>
      </trkpt>
      <trkpt lat="43.64721" lon="3.79193">
        <ele>69.37200128</ele>
        <time>2020-06-14T15:08:15.000Z</time>
      </trkpt>
      <trkpt lat="43.64719" lon="3.79195">
        <ele>69.57200128</ele>
        <time>2020-06-14T15:08:16.000Z</time>
      </trkpt>
      <trkpt lat="43.64717" lon="3.79196">
        <ele>69.77200128</ele>
        <time>2020-06-14T15:08:17.000Z</time>
      </trkpt>
      <trkpt lat="43.64715" lon="3.79198">
        <ele>69.97200128</ele>
        <time>2020-06-14T15:08:18.000Z</time>
      </trkpt>
      <trkpt lat="43.64712" lon="3.79199">
        <ele>70.17200128</ele>
        <time>2020-06-14T15:08:19.000Z</time>
      </trkpt>
      <trkpt lat="43.6471" lon="3.792">
        <ele>70.37200128</ele>
        <time>2020-06-14T15:08:20.000Z</time>
      </trkpt>
      <trkpt lat="43.64708" lon="3.79201">
        <ele>70.57200128</ele>
        <time>2020-06-14T15:08:21.000Z</time>
      </trkpt>
      <trkpt lat="43.64706" lon="3.79201">
        <ele>70.77200128</ele>
        <time>2020-06-14T15:08:22.000Z</time>
      </trkpt>
      <trkpt lat="43.64704" lon="3.79202">
        <ele>70.97200128</ele>
        <time>2020-06-14T15:08:23.000Z</time>
      </trkpt>
      <trkpt lat="43.64702" lon="3.79203">
        <ele>71</ele>
        <time>2020-06-14T15:08:24.000Z</time>
      </trkpt>
      <trkpt lat="43.647" lon="3.79205">
        <ele>71</ele>
        <time>2020-06-14T15:08:25.000Z</time>
      </trkpt>
      <trkpt lat="43.64698" lon="3.79207">
        <ele>71</ele>
        <time>2020-06-14T15:08:27.000Z</time>
      </trkpt>
      <trkpt lat="43.64697" lon="3.7921">
        <ele>71</ele>
        <time>2020-06-14T15:08:29.000Z</time>
      </trkpt>
      <trkpt lat="43.64698" lon="3.79215">
        <ele>71</ele>
        <time>2020-06-14T15:08:31.000Z</time>
      </trkpt>
      <trkpt lat="43.64699" lon="3.79219">
        <ele>71</ele>
        <time>2020-06-14T15:08:32.000Z</time>
      </trkpt>
      <trkpt lat="43.64699" lon="3.79223">
        <ele>71</ele>
        <time>2020-06-14T15:08:33.000Z</time>
      </trkpt>
      <trkpt lat="43.64699" lon="3.79226">
        <ele>70.917924226415</ele>
        <time>2020-06-14T15:08:34.000Z</time>
      </trkpt>
      <trkpt lat="43.64699" lon="3.79229">
        <ele>70.823584603774</ele>
        <time>2020-06-14T15:08:35.000Z</time>
      </trkpt>
      <trkpt lat="43.64698" lon="3.79232">
        <ele>70.729244981132</ele>
        <time>2020-06-14T15:08:36.000Z</time>
      </trkpt>
      <trkpt lat="43.64698" lon="3.79235">
        <ele>70.634905358491</ele>
        <time>2020-06-14T15:08:37.000Z</time>
      </trkpt>
      <trkpt lat="43.64698" lon="3.79238">
        <ele>70.540565735849</ele>
        <time>2020-06-14T15:08:38.000Z</time>
      </trkpt>
      <trkpt lat="43.647" lon="3.79243">
        <ele>70.351886490566</ele>
        <time>2020-06-14T15:08:40.000Z</time>
      </trkpt>
      <trkpt lat="43.64701" lon="3.79249">
        <ele>70.257546867925</ele>
        <time>2020-06-14T15:08:41.000Z</time>
      </trkpt>
      <trkpt lat="43.64703" lon="3.79256">
        <ele>70.163207245283</ele>
        <time>2020-06-14T15:08:42.000Z</time>
      </trkpt>
      <trkpt lat="43.64704" lon="3.79263">
        <ele>70.068867622642</ele>
        <time>2020-06-14T15:08:43.000Z</time>
      </trkpt>
      <trkpt lat="43.64704" lon="3.79269">
        <ele>69.942552510638</ele>
        <time>2020-06-14T15:08:44.000Z</time>
      </trkpt>
      <trkpt lat="43.64704" lon="3.79273">
        <ele>69.729786553192</ele>
        <time>2020-06-14T15:08:45.000Z</time>
      </trkpt>
      <trkpt lat="43.64703" lon="3.79275">
        <ele>69.517020595745</ele>
        <time>2020-06-14T15:08:46.000Z</time>
      </trkpt>
      <trkpt lat="43.647" lon="3.79276">
        <ele>69.091488680851</ele>
        <time>2020-06-14T15:08:48.000Z</time>
      </trkpt>
      <trkpt lat="43.64698" lon="3.79273">
        <ele>68.665956765957</ele>
        <time>2020-06-14T15:08:50.000Z</time>
      </trkpt>
      <trkpt lat="43.64699" lon="3.7927">
        <ele>68.240424851064</ele>
        <time>2020-06-14T15:08:52.000Z</time>
      </trkpt>
      <trkpt lat="43.64701" lon="3.7927">
        <ele>67.91299968</ele>
        <time>2020-06-14T15:08:54.000Z</time>
      </trkpt>
      <trkpt lat="43.64704" lon="3.79273">
        <ele>67.71299968</ele>
        <time>2020-06-14T15:08:56.000Z</time>
      </trkpt>
      <trkpt lat="43.64703" lon="3.79276">
        <ele>67.51299968</ele>
        <time>2020-06-14T15:08:58.000Z</time>
      </trkpt>
      <trkpt lat="43.64701" lon="3.79279">
        <ele>67.31299968</ele>
        <time>2020-06-14T15:09:00.000Z</time>
      </trkpt>
      <trkpt lat="43.64698" lon="3.79281">
        <ele>67.11299968</ele>
        <time>2020-06-14T15:09:02.000Z</time>
      </trkpt>
      <trkpt lat="43.64696" lon="3.79283">
        <ele>67.01299968</ele>
        <time>2020-06-14T15:09:03.000Z</time>
      </trkpt>
      <trkpt lat="43.64694" lon="3.79284">
        <ele>66.91299968</ele>
        <time>2020-06-14T15:09:04.000Z</time>
      </trkpt>
      <trkpt lat="43.64691" lon="3.79286">
        <ele>66.81299968</ele>
        <time>2020-06-14T15:09:05.000Z</time>
      </trkpt>
      <trkpt lat="43.64689" lon="3.79287">
        <ele>66.71299968</ele>
        <time>2020-06-14T15:09:06.000Z</time>
      </trkpt>
      <trkpt lat="43.64687" lon="3.79288">
        <ele>66.61299968</ele>
        <time>2020-06-14T15:09:07.000Z</time>
      </trkpt>
      <trkpt lat="43.64685" lon="3.79289">
        <ele>66.51299968</ele>
        <time>2020-06-14T15:09:08.000Z</time>
      </trkpt>
      <trkpt lat="43.64683" lon="3.79289">
        <ele>66.41299968</ele>
        <time>2020-06-14T15:09:09.000Z</time>
      </trkpt>
      <trkpt lat="43.6468" lon="3.79289">
        <ele>66.31299968</ele>
        <time>2020-06-14T15:09:10.000Z</time>
      </trkpt>
      <trkpt lat="43.64677" lon="3.79291">
        <ele>66.21299968</ele>
        <time>2020-06-14T15:09:11.000Z</time>
      </trkpt>
      <trkpt lat="43.64672" lon="3.79294">
        <ele>66.11299968</ele>
        <time>2020-06-14T15:09:12.000Z</time>
      </trkpt>
      <trkpt lat="43.64669" lon="3.79299">
        <ele>66.01299968</ele>
        <time>2020-06-14T15:09:13.000Z</time>
      </trkpt>
      <trkpt lat="43.64666" lon="3.79303">
        <ele>66</ele>
        <time>2020-06-14T15:09:14.000Z</time>
      </trkpt>
      <trkpt lat="43.64663" lon="3.79308">
        <ele>66</ele>
        <time>2020-06-14T15:09:15.000Z</time>
      </trkpt>
      <trkpt lat="43.6466" lon="3.79313">
        <ele>66</ele>
        <time>2020-06-14T15:09:16.000Z</time>
      </trkpt>
      <trkpt lat="43.64657" lon="3.79318">
        <ele>66</ele>
        <time>2020-06-14T15:09:17.000Z</time>
      </trkpt>
      <trkpt lat="43.64656" lon="3.79323">
        <ele>66</ele>
        <time>2020-06-14T15:09:18.000Z</time>
      </trkpt>
      <trkpt lat="43.64654" lon="3.79326">
        <ele>66</ele>
        <time>2020-06-14T15:09:19.000Z</time>
      </trkpt>
      <trkpt lat="43.64653" lon="3.7933">
        <ele>66</ele>
        <time>2020-06-14T15:09:20.000Z</time>
      </trkpt>
      <trkpt lat="43.64653" lon="3.79334">
        <ele>66</ele>
        <time>2020-06-14T15:09:21.000Z</time>
      </trkpt>
      <trkpt lat="43.64653" lon="3.79338">
        <ele>66</ele>
        <time>2020-06-14T15:09:22.000Z</time>
      </trkpt>
      <trkpt lat="43.64653" lon="3.79342">
        <ele>66</ele>
        <time>2020-06-14T15:09:23.000Z</time>
      </trkpt>
      <trkpt lat="43.64652" lon="3.79346">
        <ele>65.940877289583</ele>
        <time>2020-06-14T15:09:24.000Z</time>
      </trkpt>
      <trkpt lat="43.64652" lon="3.79351">
        <ele>65.838940457147</ele>
        <time>2020-06-14T15:09:25.000Z</time>
      </trkpt>
      <trkpt lat="43.64651" lon="3.79356">
        <ele>65.737003624711</ele>
        <time>2020-06-14T15:09:26.000Z</time>
      </trkpt>
      <trkpt lat="43.64651" lon="3.7936">
        <ele>65.635066792275</ele>
        <time>2020-06-14T15:09:27.000Z</time>
      </trkpt>
      <trkpt lat="43.6465" lon="3.79366">
        <ele>65.533129959839</ele>
        <time>2020-06-14T15:09:28.000Z</time>
      </trkpt>
      <trkpt lat="43.64648" lon="3.79372">
        <ele>65.431193127402</ele>
        <time>2020-06-14T15:09:29.000Z</time>
      </trkpt>
      <trkpt lat="43.64647" lon="3.79377">
        <ele>65.329256294966</ele>
        <time>2020-06-14T15:09:30.000Z</time>
      </trkpt>
      <trkpt lat="43.64644" lon="3.79382">
        <ele>65.22731946253</ele>
        <time>2020-06-14T15:09:31.000Z</time>
      </trkpt>
      <trkpt lat="43.64642" lon="3.79387">
        <ele>65.125382630094</ele>
        <time>2020-06-14T15:09:32.000Z</time>
      </trkpt>
      <trkpt lat="43.6464" lon="3.79392">
        <ele>65.023445797658</ele>
        <time>2020-06-14T15:09:33.000Z</time>
      </trkpt>
      <trkpt lat="43.64639" lon="3.79395">
        <ele>64.922300953995</ele>
        <time>2020-06-14T15:09:34.000Z</time>
      </trkpt>
      <trkpt lat="43.64637" lon="3.79398">
        <ele>64.821392682681</ele>
        <time>2020-06-14T15:09:35.000Z</time>
      </trkpt>
      <trkpt lat="43.64635" lon="3.79402">
        <ele>64.720484411367</ele>
        <time>2020-06-14T15:09:36.000Z</time>
      </trkpt>
      <trkpt lat="43.64633" lon="3.79405">
        <ele>64.619576140054</ele>
        <time>2020-06-14T15:09:37.000Z</time>
      </trkpt>
      <trkpt lat="43.64631" lon="3.79408">
        <ele>64.51866786874</ele>
        <time>2020-06-14T15:09:38.000Z</time>
      </trkpt>
      <trkpt lat="43.64629" lon="3.7941">
        <ele>64.417759597426</ele>
        <time>2020-06-14T15:09:39.000Z</time>
      </trkpt>
      <trkpt lat="43.64627" lon="3.79413">
        <ele>64.316851326112</ele>
        <time>2020-06-14T15:09:40.000Z</time>
      </trkpt>
      <trkpt lat="43.64625" lon="3.79415">
        <ele>64.215943054799</ele>
        <time>2020-06-14T15:09:41.000Z</time>
      </trkpt>
      <trkpt lat="43.64621" lon="3.79417">
        <ele>64.014126512171</ele>
        <time>2020-06-14T15:09:43.000Z</time>
      </trkpt>
      <trkpt lat="43.64619" lon="3.79418">
        <ele>64.086086699151</ele>
        <time>2020-06-14T15:09:44.000Z</time>
      </trkpt>
      <trkpt lat="43.64617" lon="3.79421">
        <ele>64.286286835223</ele>
        <time>2020-06-14T15:09:46.000Z</time>
      </trkpt>
      <trkpt lat="43.64615" lon="3.79423">
        <ele>64.386386903259</ele>
        <time>2020-06-14T15:09:47.000Z</time>
      </trkpt>
      <trkpt lat="43.64613" lon="3.79425">
        <ele>64.486486971296</ele>
        <time>2020-06-14T15:09:48.000Z</time>
      </trkpt>
      <trkpt lat="43.64612" lon="3.79427">
        <ele>64.586587039332</ele>
        <time>2020-06-14T15:09:49.000Z</time>
      </trkpt>
      <trkpt lat="43.6461" lon="3.7943">
        <ele>64.686687107368</ele>
        <time>2020-06-14T15:09:50.000Z</time>
      </trkpt>
      <trkpt lat="43.64608" lon="3.79432">
        <ele>64.786787175404</ele>
        <time>2020-06-14T15:09:51.000Z</time>
      </trkpt>
      <trkpt lat="43.64606" lon="3.79434">
        <ele>64.88688724344</ele>
        <time>2020-06-14T15:09:52.000Z</time>
      </trkpt>
      <trkpt lat="43.64604" lon="3.79437">
        <ele>64.913173388791</ele>
        <time>2020-06-14T15:09:54.000Z</time>
      </trkpt>
      <trkpt lat="43.64603" lon="3.7944">
        <ele>64.613772382421</ele>
        <time>2020-06-14T15:09:57.000Z</time>
      </trkpt>
      <trkpt lat="43.64603" lon="3.79442">
        <ele>64.414171711507</ele>
        <time>2020-06-14T15:09:59.000Z</time>
      </trkpt>
      <trkpt lat="43.64602" lon="3.79445">
        <ele>64.114770705136</ele>
        <time>2020-06-14T15:10:02.000Z</time>
      </trkpt>
      <trkpt lat="43.64601" lon="3.79449">
        <ele>63.91508520762</ele>
        <time>2020-06-14T15:10:04.000Z</time>
      </trkpt>
      <trkpt lat="43.64599" lon="3.79449">
        <ele>63.715284943947</ele>
        <time>2020-06-14T15:10:06.000Z</time>
      </trkpt>
      <trkpt lat="43.64597" lon="3.79449">
        <ele>63.515484680275</ele>
        <time>2020-06-14T15:10:08.000Z</time>
      </trkpt>
      <trkpt lat="43.64595" lon="3.79451">
        <ele>63.315684416602</ele>
        <time>2020-06-14T15:10:10.000Z</time>
      </trkpt>
      <trkpt lat="43.64593" lon="3.79454">
        <ele>63.11588415293</ele>
        <time>2020-06-14T15:10:12.000Z</time>
      </trkpt>
      <trkpt lat="43.64594" lon="3.79459">
        <ele>62.917077959985</ele>
        <time>2020-06-14T15:10:14.000Z</time>
      </trkpt>
      <trkpt lat="43.64595" lon="3.79461">
        <ele>62.818361245682</ele>
        <time>2020-06-14T15:10:15.000Z</time>
      </trkpt>
      <trkpt lat="43.64596" lon="3.79464">
        <ele>62.719644531378</ele>
        <time>2020-06-14T15:10:16.000Z</time>
      </trkpt>
      <trkpt lat="43.64597" lon="3.79466">
        <ele>62.620927817075</ele>
        <time>2020-06-14T15:10:17.000Z</time>
      </trkpt>
      <trkpt lat="43.64599" lon="3.79469">
        <ele>62.522211102772</ele>
        <time>2020-06-14T15:10:18.000Z</time>
      </trkpt>
      <trkpt lat="43.646" lon="3.79472">
        <ele>62.423494388468</ele>
        <time>2020-06-14T15:10:19.000Z</time>
      </trkpt>
      <trkpt lat="43.64601" lon="3.79475">
        <ele>62.324777674165</ele>
        <time>2020-06-14T15:10:20.000Z</time>
      </trkpt>
      <trkpt lat="43.646" lon="3.79477">
        <ele>62.226060959861</ele>
        <time>2020-06-14T15:10:21.000Z</time>
      </trkpt>
      <trkpt lat="43.64599" lon="3.7948">
        <ele>62.127344245558</ele>
        <time>2020-06-14T15:10:22.000Z</time>
      </trkpt>
      <trkpt lat="43.64597" lon="3.79484">
        <ele>61.855690406504</ele>
        <time>2020-06-14T15:10:24.000Z</time>
      </trkpt>
      <trkpt lat="43.64596" lon="3.79487">
        <ele>61.652438373984</ele>
        <time>2020-06-14T15:10:25.000Z</time>
      </trkpt>
      <trkpt lat="43.64595" lon="3.79489">
        <ele>61.449186341463</ele>
        <time>2020-06-14T15:10:26.000Z</time>
      </trkpt>
      <trkpt lat="43.64593" lon="3.79492">
        <ele>61.245934308943</ele>
        <time>2020-06-14T15:10:27.000Z</time>
      </trkpt>
      <trkpt lat="43.64592" lon="3.79495">
        <ele>61.042682276423</ele>
        <time>2020-06-14T15:10:28.000Z</time>
      </trkpt>
      <trkpt lat="43.6459" lon="3.79498">
        <ele>60.839430243902</ele>
        <time>2020-06-14T15:10:29.000Z</time>
      </trkpt>
      <trkpt lat="43.64588" lon="3.79501">
        <ele>60.636178211382</ele>
        <time>2020-06-14T15:10:30.000Z</time>
      </trkpt>
      <trkpt lat="43.64587" lon="3.79504">
        <ele>60.432926178862</ele>
        <time>2020-06-14T15:10:31.000Z</time>
      </trkpt>
      <trkpt lat="43.64585" lon="3.79508">
        <ele>60.229674146342</ele>
        <time>2020-06-14T15:10:32.000Z</time>
      </trkpt>
      <trkpt lat="43.64584" lon="3.79511">
        <ele>60.026422113821</ele>
        <time>2020-06-14T15:10:33.000Z</time>
      </trkpt>
      <trkpt lat="43.64582" lon="3.79514">
        <ele>60</ele>
        <time>2020-06-14T15:10:34.000Z</time>
      </trkpt>
      <trkpt lat="43.64581" lon="3.79517">
        <ele>60</ele>
        <time>2020-06-14T15:10:35.000Z</time>
      </trkpt>
      <trkpt lat="43.6458" lon="3.7952">
        <ele>60</ele>
        <time>2020-06-14T15:10:36.000Z</time>
      </trkpt>
      <trkpt lat="43.64579" lon="3.79524">
        <ele>60</ele>
        <time>2020-06-14T15:10:37.000Z</time>
      </trkpt>
      <trkpt lat="43.64578" lon="3.79527">
        <ele>60</ele>
        <time>2020-06-14T15:10:38.000Z</time>
      </trkpt>
      <trkpt lat="43.64577" lon="3.79529">
        <ele>60</ele>
        <time>2020-06-14T15:10:39.000Z</time>
      </trkpt>
      <trkpt lat="43.64576" lon="3.79532">
        <ele>60</ele>
        <time>2020-06-14T15:10:40.000Z</time>
      </trkpt>
      <trkpt lat="43.64574" lon="3.79534">
        <ele>60</ele>
        <time>2020-06-14T15:10:41.000Z</time>
      </trkpt>
      <trkpt lat="43.64573" lon="3.79537">
        <ele>60</ele>
        <time>2020-06-14T15:10:42.000Z</time>
      </trkpt>
      <trkpt lat="43.64572" lon="3.7954">
        <ele>60</ele>
        <time>2020-06-14T15:10:43.000Z</time>
      </trkpt>
      <trkpt lat="43.64571" lon="3.79543">
        <ele>59.91299968</ele>
        <time>2020-06-14T15:10:44.000Z</time>
      </trkpt>
      <trkpt lat="43.6457" lon="3.79547">
        <ele>59.81299968</ele>
        <time>2020-06-14T15:10:45.000Z</time>
      </trkpt>
      <trkpt lat="43.6457" lon="3.7955">
        <ele>59.71299968</ele>
        <time>2020-06-14T15:10:46.000Z</time>
      </trkpt>
      <trkpt lat="43.64569" lon="3.79554">
        <ele>59.61299968</ele>
        <time>2020-06-14T15:10:47.000Z</time>
      </trkpt>
      <trkpt lat="43.64568" lon="3.79557">
        <ele>59.51299968</ele>
        <time>2020-06-14T15:10:48.000Z</time>
      </trkpt>
      <trkpt lat="43.64567" lon="3.79561">
        <ele>59.41299968</ele>
        <time>2020-06-14T15:10:49.000Z</time>
      </trkpt>
      <trkpt lat="43.64567" lon="3.79564">
        <ele>59.31299968</ele>
        <time>2020-06-14T15:10:50.000Z</time>
      </trkpt>
      <trkpt lat="43.64566" lon="3.79568">
        <ele>59.21299968</ele>
        <time>2020-06-14T15:10:51.000Z</time>
      </trkpt>
      <trkpt lat="43.64565" lon="3.79571">
        <ele>59.11299968</ele>
        <time>2020-06-14T15:10:52.000Z</time>
      </trkpt>
      <trkpt lat="43.64564" lon="3.79575">
        <ele>59.01299968</ele>
        <time>2020-06-14T15:10:53.000Z</time>
      </trkpt>
      <trkpt lat="43.64564" lon="3.79579">
        <ele>59</ele>
        <time>2020-06-14T15:10:54.000Z</time>
      </trkpt>
      <trkpt lat="43.64563" lon="3.79584">
        <ele>59</ele>
        <time>2020-06-14T15:10:55.000Z</time>
      </trkpt>
      <trkpt lat="43.64563" lon="3.79588">
        <ele>59</ele>
        <time>2020-06-14T15:10:56.000Z</time>
      </trkpt>
      <trkpt lat="43.64563" lon="3.79591">
        <ele>59</ele>
        <time>2020-06-14T15:10:57.000Z</time>
      </trkpt>
      <trkpt lat="43.64562" lon="3.79595">
        <ele>59</ele>
        <time>2020-06-14T15:10:58.000Z</time>
      </trkpt>
      <trkpt lat="43.64561" lon="3.79599">
        <ele>59</ele>
        <time>2020-06-14T15:10:59.000Z</time>
      </trkpt>
      <trkpt lat="43.6456" lon="3.79602">
        <ele>59</ele>
        <time>2020-06-14T15:11:00.000Z</time>
      </trkpt>
      <trkpt lat="43.64559" lon="3.79606">
        <ele>59</ele>
        <time>2020-06-14T15:11:01.000Z</time>
      </trkpt>
      <trkpt lat="43.64558" lon="3.7961">
        <ele>59</ele>
        <time>2020-06-14T15:11:02.000Z</time>
      </trkpt>
      <trkpt lat="43.64556" lon="3.79613">
        <ele>59</ele>
        <time>2020-06-14T15:11:03.000Z</time>
      </trkpt>
      <trkpt lat="43.64555" lon="3.79617">
        <ele>59.08700032</ele>
        <time>2020-06-14T15:11:04.000Z</time>
      </trkpt>
      <trkpt lat="43.64553" lon="3.79621">
        <ele>59.18700032</ele>
        <time>2020-06-14T15:11:05.000Z</time>
      </trkpt>
      <trkpt lat="43.64552" lon="3.79625">
        <ele>59.28700032</ele>
        <time>2020-06-14T15:11:06.000Z</time>
      </trkpt>
      <trkpt lat="43.64551" lon="3.79628">
        <ele>59.38700032</ele>
        <time>2020-06-14T15:11:07.000Z</time>
      </trkpt>
      <trkpt lat="43.6455" lon="3.79632">
        <ele>59.48700032</ele>
        <time>2020-06-14T15:11:08.000Z</time>
      </trkpt>
      <trkpt lat="43.64549" lon="3.79636">
        <ele>59.58700032</ele>
        <time>2020-06-14T15:11:09.000Z</time>
      </trkpt>
      <trkpt lat="43.64547" lon="3.79639">
        <ele>59.68700032</ele>
        <time>2020-06-14T15:11:10.000Z</time>
      </trkpt>
      <trkpt lat="43.64545" lon="3.79643">
        <ele>59.78700032</ele>
        <time>2020-06-14T15:11:11.000Z</time>
      </trkpt>
      <trkpt lat="43.64544" lon="3.79646">
        <ele>59.88700032</ele>
        <time>2020-06-14T15:11:12.000Z</time>
      </trkpt>
      <trkpt lat="43.64542" lon="3.7965">
        <ele>59.98700032</ele>
        <time>2020-06-14T15:11:13.000Z</time>
      </trkpt>
      <trkpt lat="43.64541" lon="3.79654">
        <ele>59.915451662941</ele>
        <time>2020-06-14T15:11:14.000Z</time>
      </trkpt>
      <trkpt lat="43.6454" lon="3.79659">
        <ele>59.818270023771</ele>
        <time>2020-06-14T15:11:15.000Z</time>
      </trkpt>
      <trkpt lat="43.64539" lon="3.79663">
        <ele>59.721088384602</ele>
        <time>2020-06-14T15:11:16.000Z</time>
      </trkpt>
      <trkpt lat="43.64537" lon="3.79667">
        <ele>59.623906745432</ele>
        <time>2020-06-14T15:11:17.000Z</time>
      </trkpt>
      <trkpt lat="43.64535" lon="3.79671">
        <ele>59.526725106262</ele>
        <time>2020-06-14T15:11:18.000Z</time>
      </trkpt>
      <trkpt lat="43.64532" lon="3.79674">
        <ele>59.429543467093</ele>
        <time>2020-06-14T15:11:19.000Z</time>
      </trkpt>
      <trkpt lat="43.6453" lon="3.79677">
        <ele>59.332361827923</ele>
        <time>2020-06-14T15:11:20.000Z</time>
      </trkpt>
      <trkpt lat="43.64527" lon="3.79681">
        <ele>59.235180188753</ele>
        <time>2020-06-14T15:11:21.000Z</time>
      </trkpt>
      <trkpt lat="43.64524" lon="3.79684">
        <ele>59.137998549584</ele>
        <time>2020-06-14T15:11:22.000Z</time>
      </trkpt>
      <trkpt lat="43.64522" lon="3.79688">
        <ele>59.040816910414</ele>
        <time>2020-06-14T15:11:23.000Z</time>
      </trkpt>
      <trkpt lat="43.6452" lon="3.79692">
        <ele>59</ele>
        <time>2020-06-14T15:11:24.000Z</time>
      </trkpt>
      <trkpt lat="43.64519" lon="3.79696">
        <ele>59</ele>
        <time>2020-06-14T15:11:25.000Z</time>
      </trkpt>
      <trkpt lat="43.64517" lon="3.797">
        <ele>59</ele>
        <time>2020-06-14T15:11:26.000Z</time>
      </trkpt>
      <trkpt lat="43.64514" lon="3.79704">
        <ele>59</ele>
        <time>2020-06-14T15:11:27.000Z</time>
      </trkpt>
      <trkpt lat="43.64512" lon="3.79707">
        <ele>59</ele>
        <time>2020-06-14T15:11:28.000Z</time>
      </trkpt>
      <trkpt lat="43.6451" lon="3.79711">
        <ele>59</ele>
        <time>2020-06-14T15:11:29.000Z</time>
      </trkpt>
      <trkpt lat="43.64508" lon="3.79715">
        <ele>59</ele>
        <time>2020-06-14T15:11:30.000Z</time>
      </trkpt>
      <trkpt lat="43.64506" lon="3.79719">
        <ele>59</ele>
        <time>2020-06-14T15:11:31.000Z</time>
      </trkpt>
      <trkpt lat="43.64505" lon="3.79723">
        <ele>59</ele>
        <time>2020-06-14T15:11:32.000Z</time>
      </trkpt>
      <trkpt lat="43.64504" lon="3.79727">
        <ele>59</ele>
        <time>2020-06-14T15:11:33.000Z</time>
      </trkpt>
      <trkpt lat="43.64502" lon="3.79731">
        <ele>59.08700032</ele>
        <time>2020-06-14T15:11:34.000Z</time>
      </trkpt>
      <trkpt lat="43.64501" lon="3.79735">
        <ele>59.18700032</ele>
        <time>2020-06-14T15:11:35.000Z</time>
      </trkpt>
      <trkpt lat="43.64499" lon="3.79738">
        <ele>59.28700032</ele>
        <time>2020-06-14T15:11:36.000Z</time>
      </trkpt>
      <trkpt lat="43.64497" lon="3.79742">
        <ele>59.38700032</ele>
        <time>2020-06-14T15:11:37.000Z</time>
      </trkpt>
      <trkpt lat="43.64496" lon="3.79745">
        <ele>59.48700032</ele>
        <time>2020-06-14T15:11:38.000Z</time>
      </trkpt>
      <trkpt lat="43.64494" lon="3.79748">
        <ele>59.58700032</ele>
        <time>2020-06-14T15:11:39.000Z</time>
      </trkpt>
      <trkpt lat="43.64492" lon="3.79751">
        <ele>59.68700032</ele>
        <time>2020-06-14T15:11:40.000Z</time>
      </trkpt>
      <trkpt lat="43.6449" lon="3.79753">
        <ele>59.78700032</ele>
        <time>2020-06-14T15:11:41.000Z</time>
      </trkpt>
      <trkpt lat="43.64488" lon="3.79756">
        <ele>59.88700032</ele>
        <time>2020-06-14T15:11:42.000Z</time>
      </trkpt>
      <trkpt lat="43.64485" lon="3.79758">
        <ele>59.98700032</ele>
        <time>2020-06-14T15:11:43.000Z</time>
      </trkpt>
      <trkpt lat="43.64483" lon="3.79759">
        <ele>60.086224328634</ele>
        <time>2020-06-14T15:11:44.000Z</time>
      </trkpt>
      <trkpt lat="43.6448" lon="3.79761">
        <ele>60.185332387816</ele>
        <time>2020-06-14T15:11:45.000Z</time>
      </trkpt>
      <trkpt lat="43.64477" lon="3.79763">
        <ele>60.284440446998</ele>
        <time>2020-06-14T15:11:46.000Z</time>
      </trkpt>
      <trkpt lat="43.64475" lon="3.79765">
        <ele>60.38354850618</ele>
        <time>2020-06-14T15:11:47.000Z</time>
      </trkpt>
      <trkpt lat="43.64471" lon="3.79767">
        <ele>60.482656565362</ele>
        <time>2020-06-14T15:11:48.000Z</time>
      </trkpt>
      <trkpt lat="43.64468" lon="3.79769">
        <ele>60.581764624544</ele>
        <time>2020-06-14T15:11:49.000Z</time>
      </trkpt>
      <trkpt lat="43.64465" lon="3.79772">
        <ele>60.680872683726</ele>
        <time>2020-06-14T15:11:50.000Z</time>
      </trkpt>
      <trkpt lat="43.64462" lon="3.79775">
        <ele>60.779980742908</ele>
        <time>2020-06-14T15:11:51.000Z</time>
      </trkpt>
      <trkpt lat="43.6446" lon="3.79779">
        <ele>60.87908880209</ele>
        <time>2020-06-14T15:11:52.000Z</time>
      </trkpt>
      <trkpt lat="43.64457" lon="3.79782">
        <ele>60.978196861271</ele>
        <time>2020-06-14T15:11:53.000Z</time>
      </trkpt>
      <trkpt lat="43.64455" lon="3.79784">
        <ele>61</ele>
        <time>2020-06-14T15:11:54.000Z</time>
      </trkpt>
      <trkpt lat="43.64451" lon="3.79785">
        <ele>61</ele>
        <time>2020-06-14T15:11:55.000Z</time>
      </trkpt>
      <trkpt lat="43.64448" lon="3.79785">
        <ele>61</ele>
        <time>2020-06-14T15:11:56.000Z</time>
      </trkpt>
      <trkpt lat="43.64445" lon="3.79785">
        <ele>61</ele>
        <time>2020-06-14T15:11:57.000Z</time>
      </trkpt>
      <trkpt lat="43.64442" lon="3.79787">
        <ele>61</ele>
        <time>2020-06-14T15:11:58.000Z</time>
      </trkpt>
      <trkpt lat="43.64438" lon="3.79789">
        <ele>61</ele>
        <time>2020-06-14T15:11:59.000Z</time>
      </trkpt>
      <trkpt lat="43.64435" lon="3.7979">
        <ele>61</ele>
        <time>2020-06-14T15:12:00.000Z</time>
      </trkpt>
      <trkpt lat="43.64432" lon="3.79792">
        <ele>61</ele>
        <time>2020-06-14T15:12:01.000Z</time>
      </trkpt>
      <trkpt lat="43.64428" lon="3.79793">
        <ele>61</ele>
        <time>2020-06-14T15:12:02.000Z</time>
      </trkpt>
      <trkpt lat="43.64424" lon="3.79794">
        <ele>61</ele>
        <time>2020-06-14T15:12:03.000Z</time>
      </trkpt>
      <trkpt lat="43.64419" lon="3.79794">
        <ele>60.91299968</ele>
        <time>2020-06-14T15:12:04.000Z</time>
      </trkpt>
      <trkpt lat="43.64415" lon="3.79793">
        <ele>60.81299968</ele>
        <time>2020-06-14T15:12:05.000Z</time>
      </trkpt>
      <trkpt lat="43.64412" lon="3.79791">
        <ele>60.71299968</ele>
        <time>2020-06-14T15:12:06.000Z</time>
      </trkpt>
      <trkpt lat="43.64408" lon="3.7979">
        <ele>60.61299968</ele>
        <time>2020-06-14T15:12:07.000Z</time>
      </trkpt>
      <trkpt lat="43.64405" lon="3.79789">
        <ele>60.51299968</ele>
        <time>2020-06-14T15:12:08.000Z</time>
      </trkpt>
      <trkpt lat="43.64401" lon="3.79787">
        <ele>60.41299968</ele>
        <time>2020-06-14T15:12:09.000Z</time>
      </trkpt>
      <trkpt lat="43.64398" lon="3.79786">
        <ele>60.31299968</ele>
        <time>2020-06-14T15:12:10.000Z</time>
      </trkpt>
      <trkpt lat="43.64395" lon="3.79785">
        <ele>60.21299968</ele>
        <time>2020-06-14T15:12:11.000Z</time>
      </trkpt>
      <trkpt lat="43.64392" lon="3.79783">
        <ele>60.11299968</ele>
        <time>2020-06-14T15:12:12.000Z</time>
      </trkpt>
      <trkpt lat="43.64388" lon="3.79783">
        <ele>60.01299968</ele>
        <time>2020-06-14T15:12:13.000Z</time>
      </trkpt>
      <trkpt lat="43.64383" lon="3.79782">
        <ele>60</ele>
        <time>2020-06-14T15:12:14.000Z</time>
      </trkpt>
      <trkpt lat="43.64378" lon="3.79782">
        <ele>60</ele>
        <time>2020-06-14T15:12:15.000Z</time>
      </trkpt>
      <trkpt lat="43.64374" lon="3.79782">
        <ele>60</ele>
        <time>2020-06-14T15:12:16.000Z</time>
      </trkpt>
      <trkpt lat="43.6437" lon="3.79781">
        <ele>60</ele>
        <time>2020-06-14T15:12:17.000Z</time>
      </trkpt>
      <trkpt lat="43.64366" lon="3.79781">
        <ele>60</ele>
        <time>2020-06-14T15:12:18.000Z</time>
      </trkpt>
      <trkpt lat="43.64363" lon="3.79783">
        <ele>60</ele>
        <time>2020-06-14T15:12:19.000Z</time>
      </trkpt>
      <trkpt lat="43.64359" lon="3.79786">
        <ele>60</ele>
        <time>2020-06-14T15:12:20.000Z</time>
      </trkpt>
      <trkpt lat="43.64355" lon="3.7979">
        <ele>60</ele>
        <time>2020-06-14T15:12:21.000Z</time>
      </trkpt>
      <trkpt lat="43.64351" lon="3.79793">
        <ele>60</ele>
        <time>2020-06-14T15:12:22.000Z</time>
      </trkpt>
      <trkpt lat="43.64346" lon="3.79794">
        <ele>60</ele>
        <time>2020-06-14T15:12:23.000Z</time>
      </trkpt>
      <trkpt lat="43.64341" lon="3.79796">
        <ele>59.913913300849</ele>
        <time>2020-06-14T15:12:24.000Z</time>
      </trkpt>
      <trkpt lat="43.64337" lon="3.79798">
        <ele>59.813813232813</ele>
        <time>2020-06-14T15:12:25.000Z</time>
      </trkpt>
      <trkpt lat="43.64332" lon="3.79801">
        <ele>59.713713164777</ele>
        <time>2020-06-14T15:12:26.000Z</time>
      </trkpt>
      <trkpt lat="43.64328" lon="3.79804">
        <ele>59.613613096741</ele>
        <time>2020-06-14T15:12:27.000Z</time>
      </trkpt>
      <trkpt lat="43.64324" lon="3.79807">
        <ele>59.513513028705</ele>
        <time>2020-06-14T15:12:28.000Z</time>
      </trkpt>
      <trkpt lat="43.6432" lon="3.7981">
        <ele>59.413412960669</ele>
        <time>2020-06-14T15:12:29.000Z</time>
      </trkpt>
      <trkpt lat="43.64316" lon="3.79813">
        <ele>59.313312892633</ele>
        <time>2020-06-14T15:12:30.000Z</time>
      </trkpt>
      <trkpt lat="43.64312" lon="3.79816">
        <ele>59.213212824597</ele>
        <time>2020-06-14T15:12:31.000Z</time>
      </trkpt>
      <trkpt lat="43.64308" lon="3.79818">
        <ele>59.11311275656</ele>
        <time>2020-06-14T15:12:32.000Z</time>
      </trkpt>
      <trkpt lat="43.64304" lon="3.79819">
        <ele>59.013012688524</ele>
        <time>2020-06-14T15:12:33.000Z</time>
      </trkpt>
      <trkpt lat="43.643" lon="3.79819">
        <ele>59.085799077997</ele>
        <time>2020-06-14T15:12:34.000Z</time>
      </trkpt>
      <trkpt lat="43.64296" lon="3.7982">
        <ele>59.18441834514</ele>
        <time>2020-06-14T15:12:35.000Z</time>
      </trkpt>
      <trkpt lat="43.64292" lon="3.79821">
        <ele>59.283037612284</ele>
        <time>2020-06-14T15:12:36.000Z</time>
      </trkpt>
      <trkpt lat="43.64288" lon="3.79821">
        <ele>59.381656879428</ele>
        <time>2020-06-14T15:12:37.000Z</time>
      </trkpt>
      <trkpt lat="43.64284" lon="3.79823">
        <ele>59.480276146571</ele>
        <time>2020-06-14T15:12:38.000Z</time>
      </trkpt>
      <trkpt lat="43.64279" lon="3.79825">
        <ele>59.578895413715</ele>
        <time>2020-06-14T15:12:39.000Z</time>
      </trkpt>
      <trkpt lat="43.64276" lon="3.79826">
        <ele>59.677514680859</ele>
        <time>2020-06-14T15:12:40.000Z</time>
      </trkpt>
      <trkpt lat="43.64272" lon="3.79828">
        <ele>59.776133948002</ele>
        <time>2020-06-14T15:12:41.000Z</time>
      </trkpt>
      <trkpt lat="43.64268" lon="3.7983">
        <ele>59.874753215146</ele>
        <time>2020-06-14T15:12:42.000Z</time>
      </trkpt>
      <trkpt lat="43.64265" lon="3.79832">
        <ele>59.97337248229</ele>
        <time>2020-06-14T15:12:43.000Z</time>
      </trkpt>
      <trkpt lat="43.64261" lon="3.79835">
        <ele>60</ele>
        <time>2020-06-14T15:12:44.000Z</time>
      </trkpt>
      <trkpt lat="43.64258" lon="3.79837">
        <ele>60</ele>
        <time>2020-06-14T15:12:45.000Z</time>
      </trkpt>
      <trkpt lat="43.64255" lon="3.79839">
        <ele>60</ele>
        <time>2020-06-14T15:12:46.000Z</time>
      </trkpt>
      <trkpt lat="43.64252" lon="3.79841">
        <ele>60</ele>
        <time>2020-06-14T15:12:47.000Z</time>
      </trkpt>
      <trkpt lat="43.64249" lon="3.79843">
        <ele>60</ele>
        <time>2020-06-14T15:12:48.000Z</time>
      </trkpt>
      <trkpt lat="43.64246" lon="3.79845">
        <ele>60</ele>
        <time>2020-06-14T15:12:49.000Z</time>
      </trkpt>
      <trkpt lat="43.64242" lon="3.79847">
        <ele>60</ele>
        <time>2020-06-14T15:12:50.000Z</time>
      </trkpt>
      <trkpt lat="43.64239" lon="3.79849">
        <ele>60</ele>
        <time>2020-06-14T15:12:51.000Z</time>
      </trkpt>
      <trkpt lat="43.64237" lon="3.79852">
        <ele>60</ele>
        <time>2020-06-14T15:12:52.000Z</time>
      </trkpt>
      <trkpt lat="43.64234" lon="3.79854">
        <ele>60</ele>
        <time>2020-06-14T15:12:53.000Z</time>
      </trkpt>
      <trkpt lat="43.64231" lon="3.79856">
        <ele>59.913086565622</ele>
        <time>2020-06-14T15:12:54.000Z</time>
      </trkpt>
      <trkpt lat="43.64228" lon="3.79857">
        <ele>59.813186433786</ele>
        <time>2020-06-14T15:12:55.000Z</time>
      </trkpt>
      <trkpt lat="43.64226" lon="3.79859">
        <ele>59.71328630195</ele>
        <time>2020-06-14T15:12:56.000Z</time>
      </trkpt>
      <trkpt lat="43.64223" lon="3.79861">
        <ele>59.613386170114</ele>
        <time>2020-06-14T15:12:57.000Z</time>
      </trkpt>
      <trkpt lat="43.64221" lon="3.79864">
        <ele>59.513486038277</ele>
        <time>2020-06-14T15:12:58.000Z</time>
      </trkpt>
      <trkpt lat="43.6422" lon="3.79866">
        <ele>59.413585906441</ele>
        <time>2020-06-14T15:12:59.000Z</time>
      </trkpt>
      <trkpt lat="43.64218" lon="3.79869">
        <ele>59.313685774605</ele>
        <time>2020-06-14T15:13:00.000Z</time>
      </trkpt>
      <trkpt lat="43.64217" lon="3.79871">
        <ele>59.213785642769</ele>
        <time>2020-06-14T15:13:01.000Z</time>
      </trkpt>
      <trkpt lat="43.64216" lon="3.79875">
        <ele>59.113885510932</ele>
        <time>2020-06-14T15:13:02.000Z</time>
      </trkpt>
      <trkpt lat="43.64217" lon="3.79879">
        <ele>59.013985379096</ele>
        <time>2020-06-14T15:13:03.000Z</time>
      </trkpt>
      <trkpt lat="43.64217" lon="3.79885">
        <ele>58.82799872</ele>
        <time>2020-06-14T15:13:04.000Z</time>
      </trkpt>
      <trkpt lat="43.64218" lon="3.7989">
        <ele>58.62799872</ele>
        <time>2020-06-14T15:13:05.000Z</time>
      </trkpt>
      <trkpt lat="43.64217" lon="3.79895">
        <ele>58.42799872</ele>
        <time>2020-06-14T15:13:06.000Z</time>
      </trkpt>
      <trkpt lat="43.64215" lon="3.79898">
        <ele>58.22799872</ele>
        <time>2020-06-14T15:13:07.000Z</time>
      </trkpt>
      <trkpt lat="43.64212" lon="3.79899">
        <ele>58.02799872</ele>
        <time>2020-06-14T15:13:08.000Z</time>
      </trkpt>
      <trkpt lat="43.6421" lon="3.79899">
        <ele>57.82799872</ele>
        <time>2020-06-14T15:13:09.000Z</time>
      </trkpt>
      <trkpt lat="43.64207" lon="3.79898">
        <ele>57.62799872</ele>
        <time>2020-06-14T15:13:10.000Z</time>
      </trkpt>
      <trkpt lat="43.64204" lon="3.79898">
        <ele>57.42799872</ele>
        <time>2020-06-14T15:13:11.000Z</time>
      </trkpt>
      <trkpt lat="43.64201" lon="3.79897">
        <ele>57.22799872</ele>
        <time>2020-06-14T15:13:12.000Z</time>
      </trkpt>
      <trkpt lat="43.64198" lon="3.79897">
        <ele>57.02799872</ele>
        <time>2020-06-14T15:13:13.000Z</time>
      </trkpt>
      <trkpt lat="43.64194" lon="3.79897">
        <ele>57.086086699151</ele>
        <time>2020-06-14T15:13:14.000Z</time>
      </trkpt>
      <trkpt lat="43.64191" lon="3.79898">
        <ele>57.186186767187</ele>
        <time>2020-06-14T15:13:15.000Z</time>
      </trkpt>
      <trkpt lat="43.64187" lon="3.799">
        <ele>57.286286835223</ele>
        <time>2020-06-14T15:13:16.000Z</time>
      </trkpt>
      <trkpt lat="43.64184" lon="3.79902">
        <ele>57.386386903259</ele>
        <time>2020-06-14T15:13:17.000Z</time>
      </trkpt>
      <trkpt lat="43.6418" lon="3.79905">
        <ele>57.486486971295</ele>
        <time>2020-06-14T15:13:18.000Z</time>
      </trkpt>
      <trkpt lat="43.64175" lon="3.79908">
        <ele>57.586587039331</ele>
        <time>2020-06-14T15:13:19.000Z</time>
      </trkpt>
      <trkpt lat="43.64171" lon="3.7991">
        <ele>57.686687107367</ele>
        <time>2020-06-14T15:13:20.000Z</time>
      </trkpt>
      <trkpt lat="43.64168" lon="3.79913">
        <ele>57.786787175403</ele>
        <time>2020-06-14T15:13:21.000Z</time>
      </trkpt>
      <trkpt lat="43.64164" lon="3.79915">
        <ele>57.88688724344</ele>
        <time>2020-06-14T15:13:22.000Z</time>
      </trkpt>
      <trkpt lat="43.6416" lon="3.79917">
        <ele>57.986987311476</ele>
        <time>2020-06-14T15:13:23.000Z</time>
      </trkpt>
      <trkpt lat="43.64157" lon="3.7992">
        <ele>57.913086565622</ele>
        <time>2020-06-14T15:13:24.000Z</time>
      </trkpt>
      <trkpt lat="43.64153" lon="3.79923">
        <ele>57.813186433786</ele>
        <time>2020-06-14T15:13:25.000Z</time>
      </trkpt>
      <trkpt lat="43.6415" lon="3.79925">
        <ele>57.71328630195</ele>
        <time>2020-06-14T15:13:26.000Z</time>
      </trkpt>
      <trkpt lat="43.64147" lon="3.79928">
        <ele>57.613386170114</ele>
        <time>2020-06-14T15:13:27.000Z</time>
      </trkpt>
      <trkpt lat="43.64145" lon="3.79931">
        <ele>57.513486038277</ele>
        <time>2020-06-14T15:13:28.000Z</time>
      </trkpt>
      <trkpt lat="43.64142" lon="3.79933">
        <ele>57.413585906441</ele>
        <time>2020-06-14T15:13:29.000Z</time>
      </trkpt>
      <trkpt lat="43.64138" lon="3.79936">
        <ele>57.313685774605</ele>
        <time>2020-06-14T15:13:30.000Z</time>
      </trkpt>
      <trkpt lat="43.64135" lon="3.79939">
        <ele>57.213785642769</ele>
        <time>2020-06-14T15:13:31.000Z</time>
      </trkpt>
      <trkpt lat="43.64132" lon="3.79941">
        <ele>57.113885510932</ele>
        <time>2020-06-14T15:13:32.000Z</time>
      </trkpt>
      <trkpt lat="43.64129" lon="3.79944">
        <ele>57.013985379096</ele>
        <time>2020-06-14T15:13:33.000Z</time>
      </trkpt>
      <trkpt lat="43.64125" lon="3.79946">
        <ele>57</ele>
        <time>2020-06-14T15:13:34.000Z</time>
      </trkpt>
      <trkpt lat="43.64122" lon="3.79949">
        <ele>57</ele>
        <time>2020-06-14T15:13:35.000Z</time>
      </trkpt>
      <trkpt lat="43.64119" lon="3.79952">
        <ele>57</ele>
        <time>2020-06-14T15:13:36.000Z</time>
      </trkpt>
      <trkpt lat="43.64115" lon="3.79955">
        <ele>57</ele>
        <time>2020-06-14T15:13:37.000Z</time>
      </trkpt>
      <trkpt lat="43.64112" lon="3.79957">
        <ele>57</ele>
        <time>2020-06-14T15:13:38.000Z</time>
      </trkpt>
      <trkpt lat="43.64108" lon="3.7996">
        <ele>57</ele>
        <time>2020-06-14T15:13:39.000Z</time>
      </trkpt>
      <trkpt lat="43.64105" lon="3.79963">
        <ele>57</ele>
        <time>2020-06-14T15:13:40.000Z</time>
      </trkpt>
      <trkpt lat="43.64102" lon="3.79966">
        <ele>57</ele>
        <time>2020-06-14T15:13:41.000Z</time>
      </trkpt>
      <trkpt lat="43.64098" lon="3.79968">
        <ele>57</ele>
        <time>2020-06-14T15:13:42.000Z</time>
      </trkpt>
      <trkpt lat="43.64095" lon="3.79971">
        <ele>57</ele>
        <time>2020-06-14T15:13:43.000Z</time>
      </trkpt>
      <trkpt lat="43.64092" lon="3.79974">
        <ele>56.914829925342</ele>
        <time>2020-06-14T15:13:44.000Z</time>
      </trkpt>
      <trkpt lat="43.64089" lon="3.79976">
        <ele>56.814629460283</ele>
        <time>2020-06-14T15:13:45.000Z</time>
      </trkpt>
      <trkpt lat="43.64085" lon="3.79979">
        <ele>56.714428995225</ele>
        <time>2020-06-14T15:13:46.000Z</time>
      </trkpt>
      <trkpt lat="43.64082" lon="3.79982">
        <ele>56.614228530167</ele>
        <time>2020-06-14T15:13:47.000Z</time>
      </trkpt>
      <trkpt lat="43.64078" lon="3.79984">
        <ele>56.514028065108</ele>
        <time>2020-06-14T15:13:48.000Z</time>
      </trkpt>
      <trkpt lat="43.64074" lon="3.79987">
        <ele>56.41382760005</ele>
        <time>2020-06-14T15:13:49.000Z</time>
      </trkpt>
      <trkpt lat="43.64071" lon="3.7999">
        <ele>56.313627134991</ele>
        <time>2020-06-14T15:13:50.000Z</time>
      </trkpt>
      <trkpt lat="43.64067" lon="3.79993">
        <ele>56.213426669933</ele>
        <time>2020-06-14T15:13:51.000Z</time>
      </trkpt>
      <trkpt lat="43.64064" lon="3.79996">
        <ele>56.113226204875</ele>
        <time>2020-06-14T15:13:52.000Z</time>
      </trkpt>
      <trkpt lat="43.6406" lon="3.79999">
        <ele>56.013025739816</ele>
        <time>2020-06-14T15:13:53.000Z</time>
      </trkpt>
      <trkpt lat="43.64056" lon="3.80001">
        <ele>56</ele>
        <time>2020-06-14T15:13:54.000Z</time>
      </trkpt>
      <trkpt lat="43.64053" lon="3.80004">
        <ele>56</ele>
        <time>2020-06-14T15:13:55.000Z</time>
      </trkpt>
      <trkpt lat="43.64049" lon="3.80006">
        <ele>56</ele>
        <time>2020-06-14T15:13:56.000Z</time>
      </trkpt>
      <trkpt lat="43.64046" lon="3.80009">
        <ele>56</ele>
        <time>2020-06-14T15:13:57.000Z</time>
      </trkpt>
      <trkpt lat="43.64043" lon="3.80011">
        <ele>56</ele>
        <time>2020-06-14T15:13:58.000Z</time>
      </trkpt>
      <trkpt lat="43.64039" lon="3.80014">
        <ele>56</ele>
        <time>2020-06-14T15:13:59.000Z</time>
      </trkpt>
      <trkpt lat="43.64036" lon="3.80017">
        <ele>56</ele>
        <time>2020-06-14T15:14:00.000Z</time>
      </trkpt>
      <trkpt lat="43.64032" lon="3.80019">
        <ele>56</ele>
        <time>2020-06-14T15:14:01.000Z</time>
      </trkpt>
      <trkpt lat="43.64029" lon="3.80022">
        <ele>56</ele>
        <time>2020-06-14T15:14:02.000Z</time>
      </trkpt>
      <trkpt lat="43.64026" lon="3.80024">
        <ele>56</ele>
        <time>2020-06-14T15:14:03.000Z</time>
      </trkpt>
      <trkpt lat="43.64023" lon="3.80027">
        <ele>56.086086699151</ele>
        <time>2020-06-14T15:14:04.000Z</time>
      </trkpt>
      <trkpt lat="43.64019" lon="3.8003">
        <ele>56.186186767187</ele>
        <time>2020-06-14T15:14:05.000Z</time>
      </trkpt>
      <trkpt lat="43.64016" lon="3.80032">
        <ele>56.286286835223</ele>
        <time>2020-06-14T15:14:06.000Z</time>
      </trkpt>
      <trkpt lat="43.64013" lon="3.80035">
        <ele>56.386386903259</ele>
        <time>2020-06-14T15:14:07.000Z</time>
      </trkpt>
      <trkpt lat="43.6401" lon="3.80037">
        <ele>56.486486971295</ele>
        <time>2020-06-14T15:14:08.000Z</time>
      </trkpt>
      <trkpt lat="43.64006" lon="3.80038">
        <ele>56.586587039331</ele>
        <time>2020-06-14T15:14:09.000Z</time>
      </trkpt>
      <trkpt lat="43.64003" lon="3.80039">
        <ele>56.686687107367</ele>
        <time>2020-06-14T15:14:10.000Z</time>
      </trkpt>
      <trkpt lat="43.63999" lon="3.80042">
        <ele>56.786787175403</ele>
        <time>2020-06-14T15:14:11.000Z</time>
      </trkpt>
      <trkpt lat="43.63996" lon="3.80045">
        <ele>56.88688724344</ele>
        <time>2020-06-14T15:14:12.000Z</time>
      </trkpt>
      <trkpt lat="43.63993" lon="3.80047">
        <ele>56.986987311476</ele>
        <time>2020-06-14T15:14:13.000Z</time>
      </trkpt>
      <trkpt lat="43.63989" lon="3.8005">
        <ele>57</ele>
        <time>2020-06-14T15:14:14.000Z</time>
      </trkpt>
      <trkpt lat="43.63986" lon="3.80052">
        <ele>57</ele>
        <time>2020-06-14T15:14:15.000Z</time>
      </trkpt>
      <trkpt lat="43.63983" lon="3.80054">
        <ele>57</ele>
        <time>2020-06-14T15:14:16.000Z</time>
      </trkpt>
      <trkpt lat="43.6398" lon="3.80056">
        <ele>57</ele>
        <time>2020-06-14T15:14:17.000Z</time>
      </trkpt>
      <trkpt lat="43.63977" lon="3.80059">
        <ele>57</ele>
        <time>2020-06-14T15:14:18.000Z</time>
      </trkpt>
      <trkpt lat="43.63974" lon="3.80061">
        <ele>57</ele>
        <time>2020-06-14T15:14:19.000Z</time>
      </trkpt>
      <trkpt lat="43.63971" lon="3.80063">
        <ele>57</ele>
        <time>2020-06-14T15:14:20.000Z</time>
      </trkpt>
      <trkpt lat="43.63968" lon="3.80065">
        <ele>57</ele>
        <time>2020-06-14T15:14:21.000Z</time>
      </trkpt>
      <trkpt lat="43.63965" lon="3.80067">
        <ele>57</ele>
        <time>2020-06-14T15:14:22.000Z</time>
      </trkpt>
      <trkpt lat="43.63962" lon="3.80069">
        <ele>57</ele>
        <time>2020-06-14T15:14:23.000Z</time>
      </trkpt>
      <trkpt lat="43.63959" lon="3.80071">
        <ele>56.91299968</ele>
        <time>2020-06-14T15:14:24.000Z</time>
      </trkpt>
      <trkpt lat="43.63956" lon="3.80072">
        <ele>56.81299968</ele>
        <time>2020-06-14T15:14:25.000Z</time>
      </trkpt>
      <trkpt lat="43.63954" lon="3.80074">
        <ele>56.71299968</ele>
        <time>2020-06-14T15:14:26.000Z</time>
      </trkpt>
      <trkpt lat="43.63951" lon="3.80075">
        <ele>56.61299968</ele>
        <time>2020-06-14T15:14:27.000Z</time>
      </trkpt>
      <trkpt lat="43.63949" lon="3.80077">
        <ele>56.51299968</ele>
        <time>2020-06-14T15:14:28.000Z</time>
      </trkpt>
      <trkpt lat="43.63946" lon="3.80078">
        <ele>56.41299968</ele>
        <time>2020-06-14T15:14:29.000Z</time>
      </trkpt>
      <trkpt lat="43.63943" lon="3.80079">
        <ele>56.31299968</ele>
        <time>2020-06-14T15:14:30.000Z</time>
      </trkpt>
      <trkpt lat="43.6394" lon="3.80081">
        <ele>56.21299968</ele>
        <time>2020-06-14T15:14:31.000Z</time>
      </trkpt>
      <trkpt lat="43.63937" lon="3.80083">
        <ele>56.11299968</ele>
        <time>2020-06-14T15:14:32.000Z</time>
      </trkpt>
      <trkpt lat="43.63935" lon="3.80084">
        <ele>56.01299968</ele>
        <time>2020-06-14T15:14:33.000Z</time>
      </trkpt>
      <trkpt lat="43.63933" lon="3.80085">
        <ele>56</ele>
        <time>2020-06-14T15:14:34.000Z</time>
      </trkpt>
      <trkpt lat="43.6393" lon="3.80086">
        <ele>56</ele>
        <time>2020-06-14T15:14:35.000Z</time>
      </trkpt>
      <trkpt lat="43.63928" lon="3.80088">
        <ele>56</ele>
        <time>2020-06-14T15:14:36.000Z</time>
      </trkpt>
      <trkpt lat="43.63926" lon="3.80089">
        <ele>56</ele>
        <time>2020-06-14T15:14:37.000Z</time>
      </trkpt>
      <trkpt lat="43.63923" lon="3.80091">
        <ele>56</ele>
        <time>2020-06-14T15:14:38.000Z</time>
      </trkpt>
      <trkpt lat="43.63921" lon="3.80093">
        <ele>56</ele>
        <time>2020-06-14T15:14:39.000Z</time>
      </trkpt>
      <trkpt lat="43.63918" lon="3.80094">
        <ele>56</ele>
        <time>2020-06-14T15:14:40.000Z</time>
      </trkpt>
      <trkpt lat="43.63916" lon="3.80095">
        <ele>56</ele>
        <time>2020-06-14T15:14:41.000Z</time>
      </trkpt>
      <trkpt lat="43.63913" lon="3.80097">
        <ele>56</ele>
        <time>2020-06-14T15:14:42.000Z</time>
      </trkpt>
      <trkpt lat="43.63911" lon="3.80098">
        <ele>56</ele>
        <time>2020-06-14T15:14:43.000Z</time>
      </trkpt>
      <trkpt lat="43.63908" lon="3.80099">
        <ele>56</ele>
        <time>2020-06-14T15:14:44.000Z</time>
      </trkpt>
      <trkpt lat="43.63905" lon="3.801">
        <ele>56</ele>
        <time>2020-06-14T15:14:45.000Z</time>
      </trkpt>
      <trkpt lat="43.63902" lon="3.80101">
        <ele>56</ele>
        <time>2020-06-14T15:14:46.000Z</time>
      </trkpt>
      <trkpt lat="43.63899" lon="3.80102">
        <ele>56</ele>
        <time>2020-06-14T15:14:47.000Z</time>
      </trkpt>
      <trkpt lat="43.63896" lon="3.80103">
        <ele>56</ele>
        <time>2020-06-14T15:14:48.000Z</time>
      </trkpt>
      <trkpt lat="43.63893" lon="3.80104">
        <ele>56</ele>
        <time>2020-06-14T15:14:49.000Z</time>
      </trkpt>
      <trkpt lat="43.63891" lon="3.80106">
        <ele>56</ele>
        <time>2020-06-14T15:14:50.000Z</time>
      </trkpt>
      <trkpt lat="43.63888" lon="3.80108">
        <ele>56</ele>
        <time>2020-06-14T15:14:51.000Z</time>
      </trkpt>
      <trkpt lat="43.63886" lon="3.8011">
        <ele>56</ele>
        <time>2020-06-14T15:14:52.000Z</time>
      </trkpt>
      <trkpt lat="43.63884" lon="3.80111">
        <ele>56</ele>
        <time>2020-06-14T15:14:53.000Z</time>
      </trkpt>
      <trkpt lat="43.63882" lon="3.80111">
        <ele>56</ele>
        <time>2020-06-14T15:14:55.000Z</time>
      </trkpt>
      <trkpt lat="43.63879" lon="3.80111">
        <ele>56</ele>
        <time>2020-06-14T15:14:58.000Z</time>
      </trkpt>
      <trkpt lat="43.63877" lon="3.80112">
        <ele>56</ele>
        <time>2020-06-14T15:15:00.000Z</time>
      </trkpt>
      <trkpt lat="43.63874" lon="3.80114">
        <ele>56</ele>
        <time>2020-06-14T15:15:02.000Z</time>
      </trkpt>
      <trkpt lat="43.63872" lon="3.80116">
        <ele>56</ele>
        <time>2020-06-14T15:15:04.000Z</time>
      </trkpt>
      <trkpt lat="43.6387" lon="3.8012">
        <ele>56</ele>
        <time>2020-06-14T15:15:06.000Z</time>
      </trkpt>
      <trkpt lat="43.63868" lon="3.80122">
        <ele>56</ele>
        <time>2020-06-14T15:15:07.000Z</time>
      </trkpt>
      <trkpt lat="43.63867" lon="3.80124">
        <ele>56</ele>
        <time>2020-06-14T15:15:08.000Z</time>
      </trkpt>
      <trkpt lat="43.63865" lon="3.80126">
        <ele>56</ele>
        <time>2020-06-14T15:15:09.000Z</time>
      </trkpt>
      <trkpt lat="43.63864" lon="3.80128">
        <ele>56</ele>
        <time>2020-06-14T15:15:10.000Z</time>
      </trkpt>
      <trkpt lat="43.63862" lon="3.80129">
        <ele>56</ele>
        <time>2020-06-14T15:15:11.000Z</time>
      </trkpt>
      <trkpt lat="43.6386" lon="3.80132">
        <ele>56</ele>
        <time>2020-06-14T15:15:13.000Z</time>
      </trkpt>
      <trkpt lat="43.63858" lon="3.80135">
        <ele>56</ele>
        <time>2020-06-14T15:15:15.000Z</time>
      </trkpt>
      <trkpt lat="43.63856" lon="3.80138">
        <ele>56</ele>
        <time>2020-06-14T15:15:17.000Z</time>
      </trkpt>
      <trkpt lat="43.63856" lon="3.80138">
        <ele>56</ele>
        <time>2020-06-14T15:15:22.000Z</time>
      </trkpt>
      <trkpt lat="43.63852" lon="3.80143">
        <ele>56</ele>
        <time>2020-06-14T15:15:39.000Z</time>
      </trkpt>
      <trkpt lat="43.63851" lon="3.80144">
        <ele>55.962065319137</ele>
        <time>2020-06-14T15:15:40.000Z</time>
      </trkpt>
      <trkpt lat="43.63848" lon="3.80144">
        <ele>55.856691205628</ele>
        <time>2020-06-14T15:15:41.000Z</time>
      </trkpt>
      <trkpt lat="43.63846" lon="3.80143">
        <ele>55.75131709212</ele>
        <time>2020-06-14T15:15:42.000Z</time>
      </trkpt>
      <trkpt lat="43.63843" lon="3.80144">
        <ele>55.645942978611</ele>
        <time>2020-06-14T15:15:43.000Z</time>
      </trkpt>
      <trkpt lat="43.63841" lon="3.80145">
        <ele>55.540568865102</ele>
        <time>2020-06-14T15:15:44.000Z</time>
      </trkpt>
      <trkpt lat="43.63838" lon="3.80147">
        <ele>55.435194751594</ele>
        <time>2020-06-14T15:15:45.000Z</time>
      </trkpt>
      <trkpt lat="43.63836" lon="3.8015">
        <ele>55.329820638085</ele>
        <time>2020-06-14T15:15:46.000Z</time>
      </trkpt>
      <trkpt lat="43.63834" lon="3.80152">
        <ele>55.224446524576</ele>
        <time>2020-06-14T15:15:47.000Z</time>
      </trkpt>
      <trkpt lat="43.6383" lon="3.80154">
        <ele>55.119072411068</ele>
        <time>2020-06-14T15:15:48.000Z</time>
      </trkpt>
      <trkpt lat="43.63827" lon="3.80157">
        <ele>55.013698297559</ele>
        <time>2020-06-14T15:15:49.000Z</time>
      </trkpt>
      <trkpt lat="43.63824" lon="3.80159">
        <ele>55</ele>
        <time>2020-06-14T15:15:50.000Z</time>
      </trkpt>
      <trkpt lat="43.63821" lon="3.80162">
        <ele>55</ele>
        <time>2020-06-14T15:15:51.000Z</time>
      </trkpt>
      <trkpt lat="43.63817" lon="3.80166">
        <ele>55</ele>
        <time>2020-06-14T15:15:52.000Z</time>
      </trkpt>
      <trkpt lat="43.63814" lon="3.80169">
        <ele>55</ele>
        <time>2020-06-14T15:15:53.000Z</time>
      </trkpt>
      <trkpt lat="43.63811" lon="3.80173">
        <ele>55</ele>
        <time>2020-06-14T15:15:54.000Z</time>
      </trkpt>
      <trkpt lat="43.63807" lon="3.80177">
        <ele>55</ele>
        <time>2020-06-14T15:15:55.000Z</time>
      </trkpt>
      <trkpt lat="43.63804" lon="3.80181">
        <ele>55</ele>
        <time>2020-06-14T15:15:56.000Z</time>
      </trkpt>
      <trkpt lat="43.638" lon="3.80185">
        <ele>55</ele>
        <time>2020-06-14T15:15:57.000Z</time>
      </trkpt>
      <trkpt lat="43.63797" lon="3.80189">
        <ele>55</ele>
        <time>2020-06-14T15:15:58.000Z</time>
      </trkpt>
      <trkpt lat="43.63795" lon="3.80194">
        <ele>55</ele>
        <time>2020-06-14T15:15:59.000Z</time>
      </trkpt>
      <trkpt lat="43.63792" lon="3.80199">
        <ele>54.957068354749</ele>
        <time>2020-06-14T15:16:00.000Z</time>
      </trkpt>
      <trkpt lat="43.6379" lon="3.80204">
        <ele>54.852356207604</ele>
        <time>2020-06-14T15:16:01.000Z</time>
      </trkpt>
      <trkpt lat="43.63788" lon="3.80209">
        <ele>54.747644060459</ele>
        <time>2020-06-14T15:16:02.000Z</time>
      </trkpt>
      <trkpt lat="43.63786" lon="3.80213">
        <ele>54.642931913314</ele>
        <time>2020-06-14T15:16:03.000Z</time>
      </trkpt>
      <trkpt lat="43.63785" lon="3.80216">
        <ele>54.538219766169</ele>
        <time>2020-06-14T15:16:04.000Z</time>
      </trkpt>
      <trkpt lat="43.63784" lon="3.8022">
        <ele>54.433507619023</ele>
        <time>2020-06-14T15:16:05.000Z</time>
      </trkpt>
      <trkpt lat="43.63783" lon="3.80223">
        <ele>54.328795471878</ele>
        <time>2020-06-14T15:16:06.000Z</time>
      </trkpt>
      <trkpt lat="43.63782" lon="3.80225">
        <ele>54.224083324733</ele>
        <time>2020-06-14T15:16:07.000Z</time>
      </trkpt>
      <trkpt lat="43.63779" lon="3.80224">
        <ele>54.014659030443</ele>
        <time>2020-06-14T15:16:09.000Z</time>
      </trkpt>
      <trkpt lat="43.63777" lon="3.80223">
        <ele>54</ele>
        <time>2020-06-14T15:16:10.000Z</time>
      </trkpt>
      <trkpt lat="43.63774" lon="3.80224">
        <ele>54</ele>
        <time>2020-06-14T15:16:12.000Z</time>
      </trkpt>
      <trkpt lat="43.63772" lon="3.80227">
        <ele>54</ele>
        <time>2020-06-14T15:16:14.000Z</time>
      </trkpt>
      <trkpt lat="43.63771" lon="3.8023">
        <ele>54</ele>
        <time>2020-06-14T15:16:15.000Z</time>
      </trkpt>
      <trkpt lat="43.6377" lon="3.80233">
        <ele>54</ele>
        <time>2020-06-14T15:16:16.000Z</time>
      </trkpt>
      <trkpt lat="43.63769" lon="3.80236">
        <ele>54</ele>
        <time>2020-06-14T15:16:17.000Z</time>
      </trkpt>
      <trkpt lat="43.63768" lon="3.80238">
        <ele>54</ele>
        <time>2020-06-14T15:16:18.000Z</time>
      </trkpt>
      <trkpt lat="43.63768" lon="3.80241">
        <ele>54</ele>
        <time>2020-06-14T15:16:19.000Z</time>
      </trkpt>
      <trkpt lat="43.63769" lon="3.80244">
        <ele>54</ele>
        <time>2020-06-14T15:16:20.000Z</time>
      </trkpt>
      <trkpt lat="43.63769" lon="3.80248">
        <ele>54</ele>
        <time>2020-06-14T15:16:21.000Z</time>
      </trkpt>
      <trkpt lat="43.6377" lon="3.80251">
        <ele>54</ele>
        <time>2020-06-14T15:16:22.000Z</time>
      </trkpt>
      <trkpt lat="43.6377" lon="3.80254">
        <ele>54</ele>
        <time>2020-06-14T15:16:23.000Z</time>
      </trkpt>
      <trkpt lat="43.6377" lon="3.80258">
        <ele>54</ele>
        <time>2020-06-14T15:16:24.000Z</time>
      </trkpt>
      <trkpt lat="43.6377" lon="3.80262">
        <ele>54</ele>
        <time>2020-06-14T15:16:25.000Z</time>
      </trkpt>
      <trkpt lat="43.63769" lon="3.80266">
        <ele>54</ele>
        <time>2020-06-14T15:16:26.000Z</time>
      </trkpt>
      <trkpt lat="43.63769" lon="3.8027">
        <ele>54</ele>
        <time>2020-06-14T15:16:27.000Z</time>
      </trkpt>
      <trkpt lat="43.6377" lon="3.80274">
        <ele>54</ele>
        <time>2020-06-14T15:16:28.000Z</time>
      </trkpt>
      <trkpt lat="43.63771" lon="3.80279">
        <ele>54</ele>
        <time>2020-06-14T15:16:29.000Z</time>
      </trkpt>
      <trkpt lat="43.63771" lon="3.80284">
        <ele>54</ele>
        <time>2020-06-14T15:16:30.000Z</time>
      </trkpt>
      <trkpt lat="43.63772" lon="3.80289">
        <ele>54</ele>
        <time>2020-06-14T15:16:31.000Z</time>
      </trkpt>
      <trkpt lat="43.63773" lon="3.80294">
        <ele>54</ele>
        <time>2020-06-14T15:16:32.000Z</time>
      </trkpt>
      <trkpt lat="43.63775" lon="3.80299">
        <ele>54</ele>
        <time>2020-06-14T15:16:33.000Z</time>
      </trkpt>
      <trkpt lat="43.63776" lon="3.80303">
        <ele>54</ele>
        <time>2020-06-14T15:16:34.000Z</time>
      </trkpt>
      <trkpt lat="43.63777" lon="3.80307">
        <ele>54</ele>
        <time>2020-06-14T15:16:35.000Z</time>
      </trkpt>
      <trkpt lat="43.63778" lon="3.80311">
        <ele>54</ele>
        <time>2020-06-14T15:16:36.000Z</time>
      </trkpt>
      <trkpt lat="43.63779" lon="3.80313">
        <ele>54</ele>
        <time>2020-06-14T15:16:37.000Z</time>
      </trkpt>
      <trkpt lat="43.6378" lon="3.80317">
        <ele>54</ele>
        <time>2020-06-14T15:16:38.000Z</time>
      </trkpt>
      <trkpt lat="43.63782" lon="3.80321">
        <ele>54</ele>
        <time>2020-06-14T15:16:39.000Z</time>
      </trkpt>
      <trkpt lat="43.63783" lon="3.80326">
        <ele>54</ele>
        <time>2020-06-14T15:16:40.000Z</time>
      </trkpt>
      <trkpt lat="43.63785" lon="3.8033">
        <ele>54</ele>
        <time>2020-06-14T15:16:41.000Z</time>
      </trkpt>
      <trkpt lat="43.63788" lon="3.80335">
        <ele>54</ele>
        <time>2020-06-14T15:16:42.000Z</time>
      </trkpt>
      <trkpt lat="43.6379" lon="3.80339">
        <ele>54</ele>
        <time>2020-06-14T15:16:43.000Z</time>
      </trkpt>
      <trkpt lat="43.63792" lon="3.80343">
        <ele>54</ele>
        <time>2020-06-14T15:16:44.000Z</time>
      </trkpt>
      <trkpt lat="43.63794" lon="3.80347">
        <ele>54</ele>
        <time>2020-06-14T15:16:45.000Z</time>
      </trkpt>
      <trkpt lat="43.63796" lon="3.8035">
        <ele>54</ele>
        <time>2020-06-14T15:16:46.000Z</time>
      </trkpt>
      <trkpt lat="43.63798" lon="3.80354">
        <ele>54</ele>
        <time>2020-06-14T15:16:47.000Z</time>
      </trkpt>
      <trkpt lat="43.63799" lon="3.80359">
        <ele>54</ele>
        <time>2020-06-14T15:16:48.000Z</time>
      </trkpt>
      <trkpt lat="43.638" lon="3.80364">
        <ele>54</ele>
        <time>2020-06-14T15:16:49.000Z</time>
      </trkpt>
      <trkpt lat="43.63802" lon="3.80369">
        <ele>54.125256098731</ele>
        <time>2020-06-14T15:16:50.000Z</time>
      </trkpt>
      <trkpt lat="43.63804" lon="3.80374">
        <ele>54.330595042691</ele>
        <time>2020-06-14T15:16:51.000Z</time>
      </trkpt>
      <trkpt lat="43.63807" lon="3.80379">
        <ele>54.535933986651</ele>
        <time>2020-06-14T15:16:52.000Z</time>
      </trkpt>
      <trkpt lat="43.63809" lon="3.80385">
        <ele>54.74127293061</ele>
        <time>2020-06-14T15:16:53.000Z</time>
      </trkpt>
      <trkpt lat="43.63812" lon="3.80391">
        <ele>54.94661187457</ele>
        <time>2020-06-14T15:16:54.000Z</time>
      </trkpt>
      <trkpt lat="43.63814" lon="3.80396">
        <ele>55.15195081853</ele>
        <time>2020-06-14T15:16:55.000Z</time>
      </trkpt>
      <trkpt lat="43.63816" lon="3.804">
        <ele>55.35728976249</ele>
        <time>2020-06-14T15:16:56.000Z</time>
      </trkpt>
      <trkpt lat="43.63818" lon="3.80401">
        <ele>55.56262870645</ele>
        <time>2020-06-14T15:16:57.000Z</time>
      </trkpt>
      <trkpt lat="43.6382" lon="3.80403">
        <ele>55.76796765041</ele>
        <time>2020-06-14T15:16:58.000Z</time>
      </trkpt>
      <trkpt lat="43.63823" lon="3.80404">
        <ele>55.97330659437</ele>
        <time>2020-06-14T15:16:59.000Z</time>
      </trkpt>
      <trkpt lat="43.63825" lon="3.80405">
        <ele>55.91299968</ele>
        <time>2020-06-14T15:17:00.000Z</time>
      </trkpt>
      <trkpt lat="43.63828" lon="3.80403">
        <ele>55.81299968</ele>
        <time>2020-06-14T15:17:01.000Z</time>
      </trkpt>
      <trkpt lat="43.6383" lon="3.80402">
        <ele>55.71299968</ele>
        <time>2020-06-14T15:17:02.000Z</time>
      </trkpt>
      <trkpt lat="43.63833" lon="3.804">
        <ele>55.61299968</ele>
        <time>2020-06-14T15:17:03.000Z</time>
      </trkpt>
      <trkpt lat="43.63835" lon="3.804">
        <ele>55.51299968</ele>
        <time>2020-06-14T15:17:04.000Z</time>
      </trkpt>
      <trkpt lat="43.63838" lon="3.80401">
        <ele>55.41299968</ele>
        <time>2020-06-14T15:17:05.000Z</time>
      </trkpt>
      <trkpt lat="43.6384" lon="3.80403">
        <ele>55.31299968</ele>
        <time>2020-06-14T15:17:06.000Z</time>
      </trkpt>
      <trkpt lat="43.63842" lon="3.80406">
        <ele>55.21299968</ele>
        <time>2020-06-14T15:17:07.000Z</time>
      </trkpt>
      <trkpt lat="43.63844" lon="3.8041">
        <ele>55.11299968</ele>
        <time>2020-06-14T15:17:08.000Z</time>
      </trkpt>
      <trkpt lat="43.63846" lon="3.80413">
        <ele>55.01299968</ele>
        <time>2020-06-14T15:17:09.000Z</time>
      </trkpt>
      <trkpt lat="43.63848" lon="3.80417">
        <ele>55</ele>
        <time>2020-06-14T15:17:10.000Z</time>
      </trkpt>
      <trkpt lat="43.6385" lon="3.80421">
        <ele>55</ele>
        <time>2020-06-14T15:17:11.000Z</time>
      </trkpt>
      <trkpt lat="43.63852" lon="3.80424">
        <ele>55</ele>
        <time>2020-06-14T15:17:12.000Z</time>
      </trkpt>
      <trkpt lat="43.63855" lon="3.80428">
        <ele>55</ele>
        <time>2020-06-14T15:17:13.000Z</time>
      </trkpt>
      <trkpt lat="43.63857" lon="3.80431">
        <ele>55</ele>
        <time>2020-06-14T15:17:14.000Z</time>
      </trkpt>
      <trkpt lat="43.63859" lon="3.80434">
        <ele>55</ele>
        <time>2020-06-14T15:17:15.000Z</time>
      </trkpt>
      <trkpt lat="43.63861" lon="3.80438">
        <ele>55</ele>
        <time>2020-06-14T15:17:16.000Z</time>
      </trkpt>
      <trkpt lat="43.63864" lon="3.80441">
        <ele>55</ele>
        <time>2020-06-14T15:17:17.000Z</time>
      </trkpt>
      <trkpt lat="43.63866" lon="3.80444">
        <ele>55</ele>
        <time>2020-06-14T15:17:18.000Z</time>
      </trkpt>
      <trkpt lat="43.63869" lon="3.80448">
        <ele>55</ele>
        <time>2020-06-14T15:17:19.000Z</time>
      </trkpt>
      <trkpt lat="43.63872" lon="3.80451">
        <ele>55</ele>
        <time>2020-06-14T15:17:20.000Z</time>
      </trkpt>
      <trkpt lat="43.63875" lon="3.80455">
        <ele>55</ele>
        <time>2020-06-14T15:17:21.000Z</time>
      </trkpt>
      <trkpt lat="43.63877" lon="3.80459">
        <ele>55</ele>
        <time>2020-06-14T15:17:22.000Z</time>
      </trkpt>
      <trkpt lat="43.63879" lon="3.80464">
        <ele>55</ele>
        <time>2020-06-14T15:17:23.000Z</time>
      </trkpt>
      <trkpt lat="43.63881" lon="3.80468">
        <ele>55</ele>
        <time>2020-06-14T15:17:24.000Z</time>
      </trkpt>
      <trkpt lat="43.63882" lon="3.80472">
        <ele>55</ele>
        <time>2020-06-14T15:17:25.000Z</time>
      </trkpt>
      <trkpt lat="43.63884" lon="3.80476">
        <ele>55</ele>
        <time>2020-06-14T15:17:26.000Z</time>
      </trkpt>
      <trkpt lat="43.63886" lon="3.80479">
        <ele>55</ele>
        <time>2020-06-14T15:17:27.000Z</time>
      </trkpt>
      <trkpt lat="43.63889" lon="3.80482">
        <ele>55</ele>
        <time>2020-06-14T15:17:28.000Z</time>
      </trkpt>
      <trkpt lat="43.63891" lon="3.80485">
        <ele>55</ele>
        <time>2020-06-14T15:17:29.000Z</time>
      </trkpt>
      <trkpt lat="43.63892" lon="3.80487">
        <ele>55.084548337059</ele>
        <time>2020-06-14T15:17:30.000Z</time>
      </trkpt>
      <trkpt lat="43.63894" lon="3.80489">
        <ele>55.181729976229</ele>
        <time>2020-06-14T15:17:31.000Z</time>
      </trkpt>
      <trkpt lat="43.63896" lon="3.80489">
        <ele>55.278911615398</ele>
        <time>2020-06-14T15:17:32.000Z</time>
      </trkpt>
      <trkpt lat="43.63899" lon="3.80489">
        <ele>55.473274893738</ele>
        <time>2020-06-14T15:17:34.000Z</time>
      </trkpt>
      <trkpt lat="43.63903" lon="3.80487">
        <ele>55.667638172077</ele>
        <time>2020-06-14T15:17:36.000Z</time>
      </trkpt>
      <trkpt lat="43.63905" lon="3.80488">
        <ele>55.764819811247</ele>
        <time>2020-06-14T15:17:37.000Z</time>
      </trkpt>
      <trkpt lat="43.63906" lon="3.8049">
        <ele>55.862001450416</ele>
        <time>2020-06-14T15:17:38.000Z</time>
      </trkpt>
      <trkpt lat="43.63906" lon="3.80493">
        <ele>55.959183089586</ele>
        <time>2020-06-14T15:17:39.000Z</time>
      </trkpt>
      <trkpt lat="43.63907" lon="3.80496">
        <ele>56.05973163475</ele>
        <time>2020-06-14T15:17:40.000Z</time>
      </trkpt>
      <trkpt lat="43.63908" lon="3.80498">
        <ele>56.162718348311</ele>
        <time>2020-06-14T15:17:41.000Z</time>
      </trkpt>
      <trkpt lat="43.63909" lon="3.805">
        <ele>56.265705061871</ele>
        <time>2020-06-14T15:17:42.000Z</time>
      </trkpt>
      <trkpt lat="43.63911" lon="3.80502">
        <ele>56.368691775432</ele>
        <time>2020-06-14T15:17:43.000Z</time>
      </trkpt>
      <trkpt lat="43.63912" lon="3.80505">
        <ele>56.471678488992</ele>
        <time>2020-06-14T15:17:44.000Z</time>
      </trkpt>
      <trkpt lat="43.63912" lon="3.80508">
        <ele>56.574665202553</ele>
        <time>2020-06-14T15:17:45.000Z</time>
      </trkpt>
      <trkpt lat="43.63912" lon="3.80511">
        <ele>56.677651916113</ele>
        <time>2020-06-14T15:17:46.000Z</time>
      </trkpt>
      <trkpt lat="43.63911" lon="3.80515">
        <ele>56.780638629674</ele>
        <time>2020-06-14T15:17:47.000Z</time>
      </trkpt>
      <trkpt lat="43.6391" lon="3.80519">
        <ele>56.883625343234</ele>
        <time>2020-06-14T15:17:48.000Z</time>
      </trkpt>
      <trkpt lat="43.6391" lon="3.80523">
        <ele>56.986612056795</ele>
        <time>2020-06-14T15:17:49.000Z</time>
      </trkpt>
      <trkpt lat="43.63909" lon="3.80527">
        <ele>57</ele>
        <time>2020-06-14T15:17:50.000Z</time>
      </trkpt>
      <trkpt lat="43.63908" lon="3.80532">
        <ele>57</ele>
        <time>2020-06-14T15:17:51.000Z</time>
      </trkpt>
      <trkpt lat="43.63908" lon="3.80537">
        <ele>57</ele>
        <time>2020-06-14T15:17:52.000Z</time>
      </trkpt>
      <trkpt lat="43.63908" lon="3.80542">
        <ele>57</ele>
        <time>2020-06-14T15:17:53.000Z</time>
      </trkpt>
      <trkpt lat="43.63907" lon="3.80547">
        <ele>57</ele>
        <time>2020-06-14T15:17:54.000Z</time>
      </trkpt>
      <trkpt lat="43.63907" lon="3.80552">
        <ele>57</ele>
        <time>2020-06-14T15:17:55.000Z</time>
      </trkpt>
      <trkpt lat="43.63907" lon="3.80557">
        <ele>57</ele>
        <time>2020-06-14T15:17:56.000Z</time>
      </trkpt>
      <trkpt lat="43.63907" lon="3.80562">
        <ele>57</ele>
        <time>2020-06-14T15:17:57.000Z</time>
      </trkpt>
      <trkpt lat="43.63907" lon="3.80567">
        <ele>57</ele>
        <time>2020-06-14T15:17:58.000Z</time>
      </trkpt>
      <trkpt lat="43.63907" lon="3.80572">
        <ele>57</ele>
        <time>2020-06-14T15:17:59.000Z</time>
      </trkpt>
      <trkpt lat="43.63907" lon="3.80578">
        <ele>56.91299968</ele>
        <time>2020-06-14T15:18:00.000Z</time>
      </trkpt>
      <trkpt lat="43.63907" lon="3.80584">
        <ele>56.81299968</ele>
        <time>2020-06-14T15:18:01.000Z</time>
      </trkpt>
      <trkpt lat="43.63908" lon="3.8059">
        <ele>56.71299968</ele>
        <time>2020-06-14T15:18:02.000Z</time>
      </trkpt>
      <trkpt lat="43.63908" lon="3.80596">
        <ele>56.61299968</ele>
        <time>2020-06-14T15:18:03.000Z</time>
      </trkpt>
      <trkpt lat="43.63908" lon="3.80601">
        <ele>56.51299968</ele>
        <time>2020-06-14T15:18:04.000Z</time>
      </trkpt>
      <trkpt lat="43.63908" lon="3.80606">
        <ele>56.41299968</ele>
        <time>2020-06-14T15:18:05.000Z</time>
      </trkpt>
      <trkpt lat="43.63908" lon="3.8061">
        <ele>56.31299968</ele>
        <time>2020-06-14T15:18:06.000Z</time>
      </trkpt>
      <trkpt lat="43.63908" lon="3.80614">
        <ele>56.21299968</ele>
        <time>2020-06-14T15:18:07.000Z</time>
      </trkpt>
      <trkpt lat="43.63908" lon="3.80618">
        <ele>56.11299968</ele>
        <time>2020-06-14T15:18:08.000Z</time>
      </trkpt>
      <trkpt lat="43.63908" lon="3.80621">
        <ele>56.01299968</ele>
        <time>2020-06-14T15:18:09.000Z</time>
      </trkpt>
      <trkpt lat="43.63908" lon="3.80624">
        <ele>56.08700032</ele>
        <time>2020-06-14T15:18:10.000Z</time>
      </trkpt>
      <trkpt lat="43.63908" lon="3.80627">
        <ele>56.18700032</ele>
        <time>2020-06-14T15:18:11.000Z</time>
      </trkpt>
      <trkpt lat="43.63909" lon="3.8063">
        <ele>56.28700032</ele>
        <time>2020-06-14T15:18:12.000Z</time>
      </trkpt>
      <trkpt lat="43.63909" lon="3.80633">
        <ele>56.38700032</ele>
        <time>2020-06-14T15:18:13.000Z</time>
      </trkpt>
      <trkpt lat="43.63908" lon="3.80637">
        <ele>56.48700032</ele>
        <time>2020-06-14T15:18:14.000Z</time>
      </trkpt>
      <trkpt lat="43.63908" lon="3.8064">
        <ele>56.58700032</ele>
        <time>2020-06-14T15:18:15.000Z</time>
      </trkpt>
      <trkpt lat="43.63909" lon="3.80644">
        <ele>56.68700032</ele>
        <time>2020-06-14T15:18:16.000Z</time>
      </trkpt>
      <trkpt lat="43.6391" lon="3.80647">
        <ele>56.78700032</ele>
        <time>2020-06-14T15:18:17.000Z</time>
      </trkpt>
      <trkpt lat="43.63911" lon="3.8065">
        <ele>56.88700032</ele>
        <time>2020-06-14T15:18:18.000Z</time>
      </trkpt>
      <trkpt lat="43.63912" lon="3.80653">
        <ele>56.98700032</ele>
        <time>2020-06-14T15:18:19.000Z</time>
      </trkpt>
      <trkpt lat="43.63913" lon="3.80656">
        <ele>57</ele>
        <time>2020-06-14T15:18:20.000Z</time>
      </trkpt>
      <trkpt lat="43.63914" lon="3.80659">
        <ele>57</ele>
        <time>2020-06-14T15:18:21.000Z</time>
      </trkpt>
      <trkpt lat="43.63916" lon="3.80661">
        <ele>57</ele>
        <time>2020-06-14T15:18:22.000Z</time>
      </trkpt>
      <trkpt lat="43.63918" lon="3.80663">
        <ele>57</ele>
        <time>2020-06-14T15:18:23.000Z</time>
      </trkpt>
      <trkpt lat="43.63919" lon="3.80664">
        <ele>57</ele>
        <time>2020-06-14T15:18:24.000Z</time>
      </trkpt>
      <trkpt lat="43.63921" lon="3.80664">
        <ele>57</ele>
        <time>2020-06-14T15:18:25.000Z</time>
      </trkpt>
      <trkpt lat="43.63923" lon="3.80664">
        <ele>57</ele>
        <time>2020-06-14T15:18:26.000Z</time>
      </trkpt>
      <trkpt lat="43.63925" lon="3.80665">
        <ele>57</ele>
        <time>2020-06-14T15:18:27.000Z</time>
      </trkpt>
      <trkpt lat="43.63927" lon="3.80666">
        <ele>57</ele>
        <time>2020-06-14T15:18:28.000Z</time>
      </trkpt>
      <trkpt lat="43.63929" lon="3.80666">
        <ele>57</ele>
        <time>2020-06-14T15:18:29.000Z</time>
      </trkpt>
      <trkpt lat="43.63931" lon="3.80665">
        <ele>56.913913300849</ele>
        <time>2020-06-14T15:18:30.000Z</time>
      </trkpt>
      <trkpt lat="43.63933" lon="3.80664">
        <ele>56.813813232813</ele>
        <time>2020-06-14T15:18:31.000Z</time>
      </trkpt>
      <trkpt lat="43.63935" lon="3.80662">
        <ele>56.713713164777</ele>
        <time>2020-06-14T15:18:32.000Z</time>
      </trkpt>
      <trkpt lat="43.63938" lon="3.80662">
        <ele>56.613613096741</ele>
        <time>2020-06-14T15:18:33.000Z</time>
      </trkpt>
      <trkpt lat="43.6394" lon="3.80661">
        <ele>56.513513028705</ele>
        <time>2020-06-14T15:18:34.000Z</time>
      </trkpt>
      <trkpt lat="43.63942" lon="3.80661">
        <ele>56.413412960669</ele>
        <time>2020-06-14T15:18:35.000Z</time>
      </trkpt>
      <trkpt lat="43.63944" lon="3.80661">
        <ele>56.313312892633</ele>
        <time>2020-06-14T15:18:36.000Z</time>
      </trkpt>
      <trkpt lat="43.63947" lon="3.80659">
        <ele>56.213212824597</ele>
        <time>2020-06-14T15:18:37.000Z</time>
      </trkpt>
      <trkpt lat="43.63948" lon="3.80658">
        <ele>56.11311275656</ele>
        <time>2020-06-14T15:18:38.000Z</time>
      </trkpt>
      <trkpt lat="43.63951" lon="3.80658">
        <ele>56.013012688524</ele>
        <time>2020-06-14T15:18:39.000Z</time>
      </trkpt>
      <trkpt lat="43.63953" lon="3.80657">
        <ele>56.17400064</ele>
        <time>2020-06-14T15:18:40.000Z</time>
      </trkpt>
      <trkpt lat="43.63955" lon="3.80656">
        <ele>56.37400064</ele>
        <time>2020-06-14T15:18:41.000Z</time>
      </trkpt>
      <trkpt lat="43.63957" lon="3.80655">
        <ele>56.57400064</ele>
        <time>2020-06-14T15:18:42.000Z</time>
      </trkpt>
      <trkpt lat="43.63959" lon="3.80654">
        <ele>56.77400064</ele>
        <time>2020-06-14T15:18:43.000Z</time>
      </trkpt>
      <trkpt lat="43.63961" lon="3.80654">
        <ele>56.97400064</ele>
        <time>2020-06-14T15:18:44.000Z</time>
      </trkpt>
      <trkpt lat="43.63964" lon="3.80654">
        <ele>57.17400064</ele>
        <time>2020-06-14T15:18:45.000Z</time>
      </trkpt>
      <trkpt lat="43.63966" lon="3.80653">
        <ele>57.37400064</ele>
        <time>2020-06-14T15:18:46.000Z</time>
      </trkpt>
      <trkpt lat="43.63968" lon="3.80652">
        <ele>57.57400064</ele>
        <time>2020-06-14T15:18:47.000Z</time>
      </trkpt>
      <trkpt lat="43.63971" lon="3.80652">
        <ele>57.77400064</ele>
        <time>2020-06-14T15:18:48.000Z</time>
      </trkpt>
      <trkpt lat="43.63973" lon="3.80651">
        <ele>57.97400064</ele>
        <time>2020-06-14T15:18:49.000Z</time>
      </trkpt>
      <trkpt lat="43.63975" lon="3.8065">
        <ele>58.08700032</ele>
        <time>2020-06-14T15:18:50.000Z</time>
      </trkpt>
      <trkpt lat="43.63976" lon="3.8065">
        <ele>58.18700032</ele>
        <time>2020-06-14T15:18:51.000Z</time>
      </trkpt>
      <trkpt lat="43.63978" lon="3.80649">
        <ele>58.28700032</ele>
        <time>2020-06-14T15:18:52.000Z</time>
      </trkpt>
      <trkpt lat="43.6398" lon="3.80648">
        <ele>58.38700032</ele>
        <time>2020-06-14T15:18:53.000Z</time>
      </trkpt>
      <trkpt lat="43.63982" lon="3.80647">
        <ele>58.48700032</ele>
        <time>2020-06-14T15:18:54.000Z</time>
      </trkpt>
      <trkpt lat="43.63984" lon="3.80647">
        <ele>58.58700032</ele>
        <time>2020-06-14T15:18:55.000Z</time>
      </trkpt>
      <trkpt lat="43.63986" lon="3.80646">
        <ele>58.68700032</ele>
        <time>2020-06-14T15:18:56.000Z</time>
      </trkpt>
      <trkpt lat="43.63988" lon="3.80646">
        <ele>58.78700032</ele>
        <time>2020-06-14T15:18:57.000Z</time>
      </trkpt>
      <trkpt lat="43.63992" lon="3.80646">
        <ele>58.98700032</ele>
        <time>2020-06-14T15:18:59.000Z</time>
      </trkpt>
      <trkpt lat="43.63994" lon="3.80645">
        <ele>59.084548337059</ele>
        <time>2020-06-14T15:19:00.000Z</time>
      </trkpt>
      <trkpt lat="43.63996" lon="3.80644">
        <ele>59.181729976229</ele>
        <time>2020-06-14T15:19:01.000Z</time>
      </trkpt>
      <trkpt lat="43.63998" lon="3.80644">
        <ele>59.278911615398</ele>
        <time>2020-06-14T15:19:02.000Z</time>
      </trkpt>
      <trkpt lat="43.64001" lon="3.80642">
        <ele>59.473274893738</ele>
        <time>2020-06-14T15:19:04.000Z</time>
      </trkpt>
      <trkpt lat="43.64003" lon="3.80641">
        <ele>59.570456532907</ele>
        <time>2020-06-14T15:19:05.000Z</time>
      </trkpt>
      <trkpt lat="43.64005" lon="3.8064">
        <ele>59.862001450416</ele>
        <time>2020-06-14T15:19:08.000Z</time>
      </trkpt>
      <trkpt lat="43.64007" lon="3.80638">
        <ele>60.265431789869</ele>
        <time>2020-06-14T15:19:12.000Z</time>
      </trkpt>
      <trkpt lat="43.64011" lon="3.80636">
        <ele>60.471193377703</ele>
        <time>2020-06-14T15:19:14.000Z</time>
      </trkpt>
      <trkpt lat="43.64012" lon="3.80635">
        <ele>61</ele>
        <time>2020-06-14T15:19:20.000Z</time>
      </trkpt>
      <trkpt lat="43.64012" lon="3.80635">
        <ele>61.070175438597</ele>
        <time>2020-06-14T15:19:21.000Z</time>
      </trkpt>
      <trkpt lat="43.64017" lon="3.80634">
        <ele>61.947368421053</ele>
        <time>2020-06-14T15:19:27.000Z</time>
      </trkpt>
      <trkpt lat="43.64018" lon="3.80633">
        <ele>62</ele>
        <time>2020-06-14T15:19:29.000Z</time>
      </trkpt>
      <trkpt lat="43.64018" lon="3.80633">
        <ele>62</ele>
        <time>2020-06-14T15:19:32.000Z</time>
      </trkpt>
      <trkpt lat="43.64021" lon="3.80631">
        <ele>62</ele>
        <time>2020-06-14T15:19:41.000Z</time>
      </trkpt>
      <trkpt lat="43.64022" lon="3.8063">
        <ele>62.13101334895</ele>
        <time>2020-06-14T15:19:42.000Z</time>
      </trkpt>
      <trkpt lat="43.64024" lon="3.8063">
        <ele>62.335721706685</ele>
        <time>2020-06-14T15:19:43.000Z</time>
      </trkpt>
      <trkpt lat="43.64026" lon="3.80629">
        <ele>62.540430064419</ele>
        <time>2020-06-14T15:19:44.000Z</time>
      </trkpt>
      <trkpt lat="43.6403" lon="3.80629">
        <ele>62.949846779888</ele>
        <time>2020-06-14T15:19:46.000Z</time>
      </trkpt>
      <trkpt lat="43.64032" lon="3.80628">
        <ele>63.154555137623</ele>
        <time>2020-06-14T15:19:47.000Z</time>
      </trkpt>
      <trkpt lat="43.64034" lon="3.80628">
        <ele>63.359263495358</ele>
        <time>2020-06-14T15:19:48.000Z</time>
      </trkpt>
      <trkpt lat="43.64036" lon="3.80627">
        <ele>63.563971853092</ele>
        <time>2020-06-14T15:19:49.000Z</time>
      </trkpt>
      <trkpt lat="43.64038" lon="3.80627">
        <ele>63.768680210827</ele>
        <time>2020-06-14T15:19:50.000Z</time>
      </trkpt>
      <trkpt lat="43.64041" lon="3.80626">
        <ele>64.084548337059</ele>
        <time>2020-06-14T15:19:52.000Z</time>
      </trkpt>
      <trkpt lat="43.64044" lon="3.80624">
        <ele>64.278911615398</ele>
        <time>2020-06-14T15:19:54.000Z</time>
      </trkpt>
      <trkpt lat="43.64046" lon="3.80623">
        <ele>64.376093254568</ele>
        <time>2020-06-14T15:19:55.000Z</time>
      </trkpt>
      <trkpt lat="43.64048" lon="3.80622">
        <ele>64.473274893738</ele>
        <time>2020-06-14T15:19:56.000Z</time>
      </trkpt>
      <trkpt lat="43.6405" lon="3.80621">
        <ele>64.570456532907</ele>
        <time>2020-06-14T15:19:57.000Z</time>
      </trkpt>
      <trkpt lat="43.64052" lon="3.80621">
        <ele>64.667638172077</ele>
        <time>2020-06-14T15:19:58.000Z</time>
      </trkpt>
      <trkpt lat="43.64054" lon="3.80622">
        <ele>64.764819811247</ele>
        <time>2020-06-14T15:19:59.000Z</time>
      </trkpt>
      <trkpt lat="43.64056" lon="3.80624">
        <ele>64.862001450416</ele>
        <time>2020-06-14T15:20:00.000Z</time>
      </trkpt>
      <trkpt lat="43.64057" lon="3.80625">
        <ele>64.959183089586</ele>
        <time>2020-06-14T15:20:01.000Z</time>
      </trkpt>
      <trkpt lat="43.64059" lon="3.80627">
        <ele>65.11934040407</ele>
        <time>2020-06-14T15:20:02.000Z</time>
      </trkpt>
      <trkpt lat="43.64061" lon="3.8063">
        <ele>65.530863579738</ele>
        <time>2020-06-14T15:20:04.000Z</time>
      </trkpt>
      <trkpt lat="43.64063" lon="3.80633">
        <ele>65.942386755406</ele>
        <time>2020-06-14T15:20:06.000Z</time>
      </trkpt>
      <trkpt lat="43.64066" lon="3.80636">
        <ele>66.353909931075</ele>
        <time>2020-06-14T15:20:08.000Z</time>
      </trkpt>
      <trkpt lat="43.64068" lon="3.80638">
        <ele>66.765433106743</ele>
        <time>2020-06-14T15:20:10.000Z</time>
      </trkpt>
      <trkpt lat="43.64071" lon="3.8064">
        <ele>67.084896898814</ele>
        <time>2020-06-14T15:20:12.000Z</time>
      </trkpt>
      <trkpt lat="43.64074" lon="3.80638">
        <ele>67.28233007795</ele>
        <time>2020-06-14T15:20:14.000Z</time>
      </trkpt>
      <trkpt lat="43.64074" lon="3.80635">
        <ele>67.479763257085</ele>
        <time>2020-06-14T15:20:16.000Z</time>
      </trkpt>
      <trkpt lat="43.64075" lon="3.80629">
        <ele>67.677196436221</ele>
        <time>2020-06-14T15:20:18.000Z</time>
      </trkpt>
      <trkpt lat="43.64075" lon="3.80627">
        <ele>67.775913025788</ele>
        <time>2020-06-14T15:20:19.000Z</time>
      </trkpt>
      <trkpt lat="43.64076" lon="3.80624">
        <ele>67.874629615356</ele>
        <time>2020-06-14T15:20:20.000Z</time>
      </trkpt>
      <trkpt lat="43.64076" lon="3.80619">
        <ele>68.148072469337</ele>
        <time>2020-06-14T15:20:22.000Z</time>
      </trkpt>
      <trkpt lat="43.64078" lon="3.80615">
        <ele>68.553752245843</ele>
        <time>2020-06-14T15:20:24.000Z</time>
      </trkpt>
      <trkpt lat="43.6408" lon="3.80612">
        <ele>68.959432022349</ele>
        <time>2020-06-14T15:20:26.000Z</time>
      </trkpt>
      <trkpt lat="43.64083" lon="3.80611">
        <ele>69.365111798855</ele>
        <time>2020-06-14T15:20:28.000Z</time>
      </trkpt>
      <trkpt lat="43.64086" lon="3.80612">
        <ele>69.770791575362</ele>
        <time>2020-06-14T15:20:30.000Z</time>
      </trkpt>
      <trkpt lat="43.64089" lon="3.80613">
        <ele>70.17400064</ele>
        <time>2020-06-14T15:20:32.000Z</time>
      </trkpt>
      <trkpt lat="43.64092" lon="3.80614">
        <ele>70.57400064</ele>
        <time>2020-06-14T15:20:34.000Z</time>
      </trkpt>
      <trkpt lat="43.64094" lon="3.80613">
        <ele>70.97400064</ele>
        <time>2020-06-14T15:20:36.000Z</time>
      </trkpt>
      <trkpt lat="43.64097" lon="3.80612">
        <ele>71.37400064</ele>
        <time>2020-06-14T15:20:38.000Z</time>
      </trkpt>
      <trkpt lat="43.64097" lon="3.80612">
        <ele>72</ele>
        <time>2020-06-14T15:20:42.000Z</time>
      </trkpt>
      <trkpt lat="43.64098" lon="3.80608">
        <ele>72.968605143164</ele>
        <time>2020-06-14T15:20:53.000Z</time>
      </trkpt>
      <trkpt lat="43.64099" lon="3.80607">
        <ele>73.132788036237</ele>
        <time>2020-06-14T15:20:54.000Z</time>
      </trkpt>
      <trkpt lat="43.641" lon="3.80604">
        <ele>73.745658913006</ele>
        <time>2020-06-14T15:20:57.000Z</time>
      </trkpt>
      <trkpt lat="43.64101" lon="3.80602">
        <ele>74.154239497518</ele>
        <time>2020-06-14T15:20:59.000Z</time>
      </trkpt>
      <trkpt lat="43.64101" lon="3.80599">
        <ele>74.767110374286</ele>
        <time>2020-06-14T15:21:02.000Z</time>
      </trkpt>
      <trkpt lat="43.64101" lon="3.80595">
        <ele>75.361868498841</ele>
        <time>2020-06-14T15:21:05.000Z</time>
      </trkpt>
      <trkpt lat="43.64102" lon="3.80592">
        <ele>75.945525359657</ele>
        <time>2020-06-14T15:21:08.000Z</time>
      </trkpt>
      <trkpt lat="43.64103" lon="3.8059">
        <ele>76.334629933535</ele>
        <time>2020-06-14T15:21:10.000Z</time>
      </trkpt>
      <trkpt lat="43.64104" lon="3.80588">
        <ele>76.723734507412</ele>
        <time>2020-06-14T15:21:12.000Z</time>
      </trkpt>
      <trkpt lat="43.64105" lon="3.80586">
        <ele>77.05973163475</ele>
        <time>2020-06-14T15:21:14.000Z</time>
      </trkpt>
      <trkpt lat="43.64107" lon="3.80584">
        <ele>77.368691775432</ele>
        <time>2020-06-14T15:21:17.000Z</time>
      </trkpt>
      <trkpt lat="43.64109" lon="3.80584">
        <ele>77.677651916113</ele>
        <time>2020-06-14T15:21:20.000Z</time>
      </trkpt>
      <trkpt lat="43.64111" lon="3.80585">
        <ele>77.883625343234</ele>
        <time>2020-06-14T15:21:22.000Z</time>
      </trkpt>
      <trkpt lat="43.64113" lon="3.80587">
        <ele>78.17400064</ele>
        <time>2020-06-14T15:21:24.000Z</time>
      </trkpt>
      <trkpt lat="43.64113" lon="3.80589">
        <ele>78.57400064</ele>
        <time>2020-06-14T15:21:26.000Z</time>
      </trkpt>
      <trkpt lat="43.64114" lon="3.80592">
        <ele>78.97400064</ele>
        <time>2020-06-14T15:21:28.000Z</time>
      </trkpt>
      <trkpt lat="43.64114" lon="3.80595">
        <ele>79.37400064</ele>
        <time>2020-06-14T15:21:30.000Z</time>
      </trkpt>
      <trkpt lat="43.64115" lon="3.80598">
        <ele>79.77400064</ele>
        <time>2020-06-14T15:21:32.000Z</time>
      </trkpt>
      <trkpt lat="43.64115" lon="3.80601">
        <ele>80.17400064</ele>
        <time>2020-06-14T15:21:34.000Z</time>
      </trkpt>
      <trkpt lat="43.64115" lon="3.80603">
        <ele>80.57400064</ele>
        <time>2020-06-14T15:21:36.000Z</time>
      </trkpt>
      <trkpt lat="43.64117" lon="3.80606">
        <ele>80.97400064</ele>
        <time>2020-06-14T15:21:38.000Z</time>
      </trkpt>
      <trkpt lat="43.64118" lon="3.80608">
        <ele>81.37400064</ele>
        <time>2020-06-14T15:21:40.000Z</time>
      </trkpt>
      <trkpt lat="43.6412" lon="3.8061">
        <ele>81.77400064</ele>
        <time>2020-06-14T15:21:42.000Z</time>
      </trkpt>
      <trkpt lat="43.64121" lon="3.80611">
        <ele>82.08700032</ele>
        <time>2020-06-14T15:21:44.000Z</time>
      </trkpt>
      <trkpt lat="43.64123" lon="3.80613">
        <ele>82.28700032</ele>
        <time>2020-06-14T15:21:46.000Z</time>
      </trkpt>
      <trkpt lat="43.64125" lon="3.80614">
        <ele>82.48700032</ele>
        <time>2020-06-14T15:21:48.000Z</time>
      </trkpt>
      <trkpt lat="43.64126" lon="3.80615">
        <ele>82.68700032</ele>
        <time>2020-06-14T15:21:50.000Z</time>
      </trkpt>
      <trkpt lat="43.64128" lon="3.80617">
        <ele>82.88700032</ele>
        <time>2020-06-14T15:21:52.000Z</time>
      </trkpt>
      <trkpt lat="43.64129" lon="3.80618">
        <ele>83.086913434378</ele>
        <time>2020-06-14T15:21:54.000Z</time>
      </trkpt>
      <trkpt lat="43.64131" lon="3.8062">
        <ele>83.28671369805</ele>
        <time>2020-06-14T15:21:56.000Z</time>
      </trkpt>
      <trkpt lat="43.64133" lon="3.8062">
        <ele>83.486513961723</ele>
        <time>2020-06-14T15:21:58.000Z</time>
      </trkpt>
      <trkpt lat="43.64135" lon="3.80621">
        <ele>83.786214357231</ele>
        <time>2020-06-14T15:22:01.000Z</time>
      </trkpt>
      <trkpt lat="43.64138" lon="3.80622">
        <ele>84.086086699151</ele>
        <time>2020-06-14T15:22:04.000Z</time>
      </trkpt>
      <trkpt lat="43.6414" lon="3.80623">
        <ele>84.286286835223</ele>
        <time>2020-06-14T15:22:06.000Z</time>
      </trkpt>
      <trkpt lat="43.64142" lon="3.80624">
        <ele>84.486486971296</ele>
        <time>2020-06-14T15:22:08.000Z</time>
      </trkpt>
      <trkpt lat="43.64144" lon="3.80625">
        <ele>84.686687107368</ele>
        <time>2020-06-14T15:22:10.000Z</time>
      </trkpt>
      <trkpt lat="43.64146" lon="3.80626">
        <ele>84.88688724344</ele>
        <time>2020-06-14T15:22:12.000Z</time>
      </trkpt>
      <trkpt lat="43.64148" lon="3.80628">
        <ele>85</ele>
        <time>2020-06-14T15:22:15.000Z</time>
      </trkpt>
      <trkpt lat="43.64148" lon="3.80628">
        <ele>85</ele>
        <time>2020-06-14T15:22:18.000Z</time>
      </trkpt>
      <trkpt lat="43.64149" lon="3.80632">
        <ele>85</ele>
        <time>2020-06-14T15:27:51.000Z</time>
      </trkpt>
      <trkpt lat="43.64149" lon="3.80635">
        <ele>85</ele>
        <time>2020-06-14T15:27:53.000Z</time>
      </trkpt>
      <trkpt lat="43.6415" lon="3.80638">
        <ele>85</ele>
        <time>2020-06-14T15:27:55.000Z</time>
      </trkpt>
      <trkpt lat="43.6415" lon="3.80642">
        <ele>85</ele>
        <time>2020-06-14T15:27:57.000Z</time>
      </trkpt>
      <trkpt lat="43.6415" lon="3.80645">
        <ele>85</ele>
        <time>2020-06-14T15:27:58.000Z</time>
      </trkpt>
      <trkpt lat="43.64151" lon="3.80648">
        <ele>85</ele>
        <time>2020-06-14T15:27:59.000Z</time>
      </trkpt>
      <trkpt lat="43.64151" lon="3.8065">
        <ele>85</ele>
        <time>2020-06-14T15:28:00.000Z</time>
      </trkpt>
      <trkpt lat="43.64151" lon="3.80653">
        <ele>85</ele>
        <time>2020-06-14T15:28:01.000Z</time>
      </trkpt>
      <trkpt lat="43.64152" lon="3.80656">
        <ele>85</ele>
        <time>2020-06-14T15:28:02.000Z</time>
      </trkpt>
      <trkpt lat="43.64152" lon="3.8066">
        <ele>85</ele>
        <time>2020-06-14T15:28:03.000Z</time>
      </trkpt>
      <trkpt lat="43.64153" lon="3.80663">
        <ele>85</ele>
        <time>2020-06-14T15:28:04.000Z</time>
      </trkpt>
      <trkpt lat="43.64153" lon="3.80666">
        <ele>85</ele>
        <time>2020-06-14T15:28:05.000Z</time>
      </trkpt>
      <trkpt lat="43.64153" lon="3.80668">
        <ele>85</ele>
        <time>2020-06-14T15:28:06.000Z</time>
      </trkpt>
      <trkpt lat="43.64153" lon="3.80673">
        <ele>85</ele>
        <time>2020-06-14T15:28:08.000Z</time>
      </trkpt>
      <trkpt lat="43.64153" lon="3.80678">
        <ele>85</ele>
        <time>2020-06-14T15:28:10.000Z</time>
      </trkpt>
      <trkpt lat="43.64154" lon="3.80682">
        <ele>85.164822993196</ele>
        <time>2020-06-14T15:28:12.000Z</time>
      </trkpt>
      <trkpt lat="43.64155" lon="3.80686">
        <ele>85.566833431317</ele>
        <time>2020-06-14T15:28:14.000Z</time>
      </trkpt>
      <trkpt lat="43.64155" lon="3.80691">
        <ele>85.968843869437</ele>
        <time>2020-06-14T15:28:16.000Z</time>
      </trkpt>
      <trkpt lat="43.64156" lon="3.80693">
        <ele>86.169849088498</ele>
        <time>2020-06-14T15:28:17.000Z</time>
      </trkpt>
      <trkpt lat="43.64157" lon="3.80696">
        <ele>86.370854307558</ele>
        <time>2020-06-14T15:28:18.000Z</time>
      </trkpt>
      <trkpt lat="43.64158" lon="3.80701">
        <ele>86.772864745679</ele>
        <time>2020-06-14T15:28:20.000Z</time>
      </trkpt>
      <trkpt lat="43.64158" lon="3.80705">
        <ele>87.17400064</ele>
        <time>2020-06-14T15:28:22.000Z</time>
      </trkpt>
      <trkpt lat="43.64159" lon="3.80709">
        <ele>87.57400064</ele>
        <time>2020-06-14T15:28:24.000Z</time>
      </trkpt>
      <trkpt lat="43.64161" lon="3.80712">
        <ele>87.97400064</ele>
        <time>2020-06-14T15:28:26.000Z</time>
      </trkpt>
      <trkpt lat="43.64162" lon="3.80716">
        <ele>88.37400064</ele>
        <time>2020-06-14T15:28:28.000Z</time>
      </trkpt>
      <trkpt lat="43.64163" lon="3.8072">
        <ele>88.77400064</ele>
        <time>2020-06-14T15:28:30.000Z</time>
      </trkpt>
      <trkpt lat="43.64162" lon="3.80724">
        <ele>89.173653222417</ele>
        <time>2020-06-14T15:28:32.000Z</time>
      </trkpt>
      <trkpt lat="43.64163" lon="3.80727">
        <ele>89.572854564245</ele>
        <time>2020-06-14T15:28:34.000Z</time>
      </trkpt>
      <trkpt lat="43.64164" lon="3.80731">
        <ele>89.972055906072</ele>
        <time>2020-06-14T15:28:36.000Z</time>
      </trkpt>
      <trkpt lat="43.64164" lon="3.80734">
        <ele>90.3712572479</ele>
        <time>2020-06-14T15:28:38.000Z</time>
      </trkpt>
      <trkpt lat="43.64164" lon="3.80738">
        <ele>90.770458589727</ele>
        <time>2020-06-14T15:28:40.000Z</time>
      </trkpt>
      <trkpt lat="43.64163" lon="3.80741">
        <ele>91.255254539584</ele>
        <time>2020-06-14T15:28:42.000Z</time>
      </trkpt>
      <trkpt lat="43.64164" lon="3.80745">
        <ele>91.855855717339</ele>
        <time>2020-06-14T15:28:44.000Z</time>
      </trkpt>
      <trkpt lat="43.64164" lon="3.80749">
        <ele>92.456456895094</ele>
        <time>2020-06-14T15:28:46.000Z</time>
      </trkpt>
      <trkpt lat="43.64164" lon="3.80753">
        <ele>93.057058072849</ele>
        <time>2020-06-14T15:28:48.000Z</time>
      </trkpt>
      <trkpt lat="43.64163" lon="3.80757">
        <ele>93.657659250604</ele>
        <time>2020-06-14T15:28:50.000Z</time>
      </trkpt>
      <trkpt lat="43.64162" lon="3.80761">
        <ele>94.258260097454</ele>
        <time>2020-06-14T15:28:52.000Z</time>
      </trkpt>
      <trkpt lat="43.64161" lon="3.80764">
        <ele>94.85886050567</ele>
        <time>2020-06-14T15:28:54.000Z</time>
      </trkpt>
      <trkpt lat="43.64162" lon="3.80767">
        <ele>95.459460913886</ele>
        <time>2020-06-14T15:28:56.000Z</time>
      </trkpt>
      <trkpt lat="43.64162" lon="3.8077">
        <ele>96.060061322102</ele>
        <time>2020-06-14T15:28:58.000Z</time>
      </trkpt>
      <trkpt lat="43.64163" lon="3.80772">
        <ele>96.660661730319</ele>
        <time>2020-06-14T15:29:00.000Z</time>
      </trkpt>
      <trkpt lat="43.64164" lon="3.80773">
        <ele>97</ele>
        <time>2020-06-14T15:29:06.000Z</time>
      </trkpt>
      <trkpt lat="43.64167" lon="3.80786">
        <ele>99.9181105026</ele>
        <time>2020-06-14T15:29:29.000Z</time>
      </trkpt>
      <trkpt lat="43.64167" lon="3.80789">
        <ele>100.24130863554</ele>
        <time>2020-06-14T15:29:32.000Z</time>
      </trkpt>
      <trkpt lat="43.64167" lon="3.80791">
        <ele>100.54805690107</ele>
        <time>2020-06-14T15:29:35.000Z</time>
      </trkpt>
      <trkpt lat="43.64166" lon="3.80794">
        <ele>100.85480516659</ele>
        <time>2020-06-14T15:29:38.000Z</time>
      </trkpt>
      <trkpt lat="43.64166" lon="3.80798">
        <ele>101.25799936</ele>
        <time>2020-06-14T15:29:42.000Z</time>
      </trkpt>
      <trkpt lat="43.64166" lon="3.80801">
        <ele>101.45799936</ele>
        <time>2020-06-14T15:29:44.000Z</time>
      </trkpt>
      <trkpt lat="43.64166" lon="3.80805">
        <ele>101.65799936</ele>
        <time>2020-06-14T15:29:46.000Z</time>
      </trkpt>
      <trkpt lat="43.64166" lon="3.80809">
        <ele>101.85799936</ele>
        <time>2020-06-14T15:29:48.000Z</time>
      </trkpt>
      <trkpt lat="43.64166" lon="3.80813">
        <ele>102</ele>
        <time>2020-06-14T15:29:50.000Z</time>
      </trkpt>
      <trkpt lat="43.64167" lon="3.80817">
        <ele>102</ele>
        <time>2020-06-14T15:29:52.000Z</time>
      </trkpt>
      <trkpt lat="43.64168" lon="3.80822">
        <ele>102</ele>
        <time>2020-06-14T15:29:54.000Z</time>
      </trkpt>
      <trkpt lat="43.64168" lon="3.80825">
        <ele>102</ele>
        <time>2020-06-14T15:29:55.000Z</time>
      </trkpt>
      <trkpt lat="43.64169" lon="3.80829">
        <ele>102</ele>
        <time>2020-06-14T15:29:56.000Z</time>
      </trkpt>
      <trkpt lat="43.6417" lon="3.80833">
        <ele>102</ele>
        <time>2020-06-14T15:29:57.000Z</time>
      </trkpt>
      <trkpt lat="43.6417" lon="3.80838">
        <ele>102</ele>
        <time>2020-06-14T15:29:58.000Z</time>
      </trkpt>
      <trkpt lat="43.6417" lon="3.80842">
        <ele>102</ele>
        <time>2020-06-14T15:29:59.000Z</time>
      </trkpt>
      <trkpt lat="43.64171" lon="3.80845">
        <ele>102.17400064</ele>
        <time>2020-06-14T15:30:00.000Z</time>
      </trkpt>
      <trkpt lat="43.64171" lon="3.80848">
        <ele>102.37400064</ele>
        <time>2020-06-14T15:30:01.000Z</time>
      </trkpt>
      <trkpt lat="43.64172" lon="3.80852">
        <ele>102.77400064</ele>
        <time>2020-06-14T15:30:03.000Z</time>
      </trkpt>
      <trkpt lat="43.64173" lon="3.80855">
        <ele>102.97400064</ele>
        <time>2020-06-14T15:30:04.000Z</time>
      </trkpt>
      <trkpt lat="43.64174" lon="3.80857">
        <ele>103.17400064</ele>
        <time>2020-06-14T15:30:05.000Z</time>
      </trkpt>
      <trkpt lat="43.64174" lon="3.80859">
        <ele>103.37400064</ele>
        <time>2020-06-14T15:30:06.000Z</time>
      </trkpt>
      <trkpt lat="43.64176" lon="3.80863">
        <ele>103.77400064</ele>
        <time>2020-06-14T15:30:08.000Z</time>
      </trkpt>
      <trkpt lat="43.64178" lon="3.80867">
        <ele>104.08700032</ele>
        <time>2020-06-14T15:30:10.000Z</time>
      </trkpt>
      <trkpt lat="43.64178" lon="3.8087">
        <ele>104.18700032</ele>
        <time>2020-06-14T15:30:11.000Z</time>
      </trkpt>
      <trkpt lat="43.64179" lon="3.80874">
        <ele>104.38700032</ele>
        <time>2020-06-14T15:30:13.000Z</time>
      </trkpt>
      <trkpt lat="43.6418" lon="3.80878">
        <ele>104.58700032</ele>
        <time>2020-06-14T15:30:15.000Z</time>
      </trkpt>
      <trkpt lat="43.64181" lon="3.80882">
        <ele>104.78700032</ele>
        <time>2020-06-14T15:30:17.000Z</time>
      </trkpt>
      <trkpt lat="43.64182" lon="3.80885">
        <ele>104.98700032</ele>
        <time>2020-06-14T15:30:19.000Z</time>
      </trkpt>
      <trkpt lat="43.64184" lon="3.80888">
        <ele>105.18700032</ele>
        <time>2020-06-14T15:30:21.000Z</time>
      </trkpt>
      <trkpt lat="43.64185" lon="3.80892">
        <ele>105.38700032</ele>
        <time>2020-06-14T15:30:23.000Z</time>
      </trkpt>
      <trkpt lat="43.64186" lon="3.80896">
        <ele>105.58700032</ele>
        <time>2020-06-14T15:30:25.000Z</time>
      </trkpt>
      <trkpt lat="43.64185" lon="3.809">
        <ele>105.78700032</ele>
        <time>2020-06-14T15:30:27.000Z</time>
      </trkpt>
      <trkpt lat="43.64183" lon="3.80903">
        <ele>105.98700032</ele>
        <time>2020-06-14T15:30:29.000Z</time>
      </trkpt>
      <trkpt lat="43.64181" lon="3.80907">
        <ele>106.37400064</ele>
        <time>2020-06-14T15:30:31.000Z</time>
      </trkpt>
      <trkpt lat="43.6418" lon="3.80911">
        <ele>106.77400064</ele>
        <time>2020-06-14T15:30:33.000Z</time>
      </trkpt>
      <trkpt lat="43.64179" lon="3.80915">
        <ele>107.17400064</ele>
        <time>2020-06-14T15:30:35.000Z</time>
      </trkpt>
      <trkpt lat="43.64177" lon="3.80919">
        <ele>107.57400064</ele>
        <time>2020-06-14T15:30:37.000Z</time>
      </trkpt>
      <trkpt lat="43.64175" lon="3.80922">
        <ele>107.97400064</ele>
        <time>2020-06-14T15:30:39.000Z</time>
      </trkpt>
      <trkpt lat="43.64172" lon="3.80926">
        <ele>108.18700032</ele>
        <time>2020-06-14T15:30:41.000Z</time>
      </trkpt>
      <trkpt lat="43.6417" lon="3.80928">
        <ele>108.38700032</ele>
        <time>2020-06-14T15:30:43.000Z</time>
      </trkpt>
      <trkpt lat="43.64168" lon="3.8093">
        <ele>108.58700032</ele>
        <time>2020-06-14T15:30:45.000Z</time>
      </trkpt>
      <trkpt lat="43.64166" lon="3.80932">
        <ele>108.78700032</ele>
        <time>2020-06-14T15:30:47.000Z</time>
      </trkpt>
      <trkpt lat="43.64164" lon="3.80934">
        <ele>108.98700032</ele>
        <time>2020-06-14T15:30:49.000Z</time>
      </trkpt>
      <trkpt lat="43.64164" lon="3.80933">
        <ele>109.00235206069</ele>
        <time>2020-06-14T15:30:55.000Z</time>
      </trkpt>
      <trkpt lat="43.64161" lon="3.80941">
        <ele>109.99663225964</ele>
        <time>2020-06-14T15:34:01.000Z</time>
      </trkpt>
      <trkpt lat="43.64159" lon="3.80944">
        <ele>109.96206531914</ele>
        <time>2020-06-14T15:34:02.000Z</time>
      </trkpt>
      <trkpt lat="43.64157" lon="3.80946">
        <ele>109.85669120563</ele>
        <time>2020-06-14T15:34:03.000Z</time>
      </trkpt>
      <trkpt lat="43.64155" lon="3.80948">
        <ele>109.75131709212</ele>
        <time>2020-06-14T15:34:04.000Z</time>
      </trkpt>
      <trkpt lat="43.64153" lon="3.80952">
        <ele>109.64594297861</ele>
        <time>2020-06-14T15:34:05.000Z</time>
      </trkpt>
      <trkpt lat="43.64151" lon="3.80955">
        <ele>109.5405688651</ele>
        <time>2020-06-14T15:34:06.000Z</time>
      </trkpt>
      <trkpt lat="43.64148" lon="3.80958">
        <ele>109.43519475159</ele>
        <time>2020-06-14T15:34:07.000Z</time>
      </trkpt>
      <trkpt lat="43.64146" lon="3.80963">
        <ele>109.32982063808</ele>
        <time>2020-06-14T15:34:08.000Z</time>
      </trkpt>
      <trkpt lat="43.64142" lon="3.80969">
        <ele>109.22444652458</ele>
        <time>2020-06-14T15:34:09.000Z</time>
      </trkpt>
      <trkpt lat="43.64138" lon="3.80976">
        <ele>109.11907241107</ele>
        <time>2020-06-14T15:34:10.000Z</time>
      </trkpt>
      <trkpt lat="43.64135" lon="3.80982">
        <ele>109.01369829756</ele>
        <time>2020-06-14T15:34:11.000Z</time>
      </trkpt>
      <trkpt lat="43.64132" lon="3.80989">
        <ele>109.08454833706</ele>
        <time>2020-06-14T15:34:12.000Z</time>
      </trkpt>
      <trkpt lat="43.6413" lon="3.80994">
        <ele>109.18172997623</ele>
        <time>2020-06-14T15:34:13.000Z</time>
      </trkpt>
      <trkpt lat="43.64128" lon="3.80998">
        <ele>109.2789116154</ele>
        <time>2020-06-14T15:34:14.000Z</time>
      </trkpt>
      <trkpt lat="43.64126" lon="3.81">
        <ele>109.37609325457</ele>
        <time>2020-06-14T15:34:15.000Z</time>
      </trkpt>
      <trkpt lat="43.64125" lon="3.81002">
        <ele>109.47327489374</ele>
        <time>2020-06-14T15:34:16.000Z</time>
      </trkpt>
      <trkpt lat="43.64123" lon="3.81004">
        <ele>109.57045653291</ele>
        <time>2020-06-14T15:34:17.000Z</time>
      </trkpt>
      <trkpt lat="43.64122" lon="3.81005">
        <ele>109.66763817208</ele>
        <time>2020-06-14T15:34:18.000Z</time>
      </trkpt>
      <trkpt lat="43.6412" lon="3.81007">
        <ele>109.76481981125</ele>
        <time>2020-06-14T15:34:19.000Z</time>
      </trkpt>
      <trkpt lat="43.64119" lon="3.81009">
        <ele>109.86200145042</ele>
        <time>2020-06-14T15:34:20.000Z</time>
      </trkpt>
      <trkpt lat="43.64118" lon="3.81012">
        <ele>109.95918308959</ele>
        <time>2020-06-14T15:34:21.000Z</time>
      </trkpt>
      <trkpt lat="43.64116" lon="3.81016">
        <ele>110</ele>
        <time>2020-06-14T15:34:23.000Z</time>
      </trkpt>
      <trkpt lat="43.64115" lon="3.81019">
        <ele>110</ele>
        <time>2020-06-14T15:34:24.000Z</time>
      </trkpt>
      <trkpt lat="43.64114" lon="3.81021">
        <ele>110</ele>
        <time>2020-06-14T15:34:25.000Z</time>
      </trkpt>
      <trkpt lat="43.64114" lon="3.81023">
        <ele>110</ele>
        <time>2020-06-14T15:34:26.000Z</time>
      </trkpt>
      <trkpt lat="43.64113" lon="3.81026">
        <ele>110.06136436364</ele>
        <time>2020-06-14T15:34:27.000Z</time>
      </trkpt>
      <trkpt lat="43.64112" lon="3.81028">
        <ele>110.28863709091</ele>
        <time>2020-06-14T15:34:28.000Z</time>
      </trkpt>
      <trkpt lat="43.64112" lon="3.81031">
        <ele>110.51590981818</ele>
        <time>2020-06-14T15:34:29.000Z</time>
      </trkpt>
      <trkpt lat="43.64111" lon="3.81034">
        <ele>110.74318254545</ele>
        <time>2020-06-14T15:34:30.000Z</time>
      </trkpt>
      <trkpt lat="43.64111" lon="3.81036">
        <ele>110.97045527273</ele>
        <time>2020-06-14T15:34:31.000Z</time>
      </trkpt>
      <trkpt lat="43.6411" lon="3.81039">
        <ele>111.08422105223</ele>
        <time>2020-06-14T15:34:32.000Z</time>
      </trkpt>
      <trkpt lat="43.6411" lon="3.81042">
        <ele>111.18102650332</ele>
        <time>2020-06-14T15:34:33.000Z</time>
      </trkpt>
      <trkpt lat="43.64109" lon="3.81044">
        <ele>111.27783195441</ele>
        <time>2020-06-14T15:34:34.000Z</time>
      </trkpt>
      <trkpt lat="43.64107" lon="3.81048">
        <ele>111.47144285659</ele>
        <time>2020-06-14T15:34:36.000Z</time>
      </trkpt>
      <trkpt lat="43.64105" lon="3.81052">
        <ele>111.66505375878</ele>
        <time>2020-06-14T15:34:38.000Z</time>
      </trkpt>
      <trkpt lat="43.64104" lon="3.81056">
        <ele>111.85866466096</ele>
        <time>2020-06-14T15:34:40.000Z</time>
      </trkpt>
      <trkpt lat="43.64102" lon="3.81059">
        <ele>112</ele>
        <time>2020-06-14T15:34:42.000Z</time>
      </trkpt>
      <trkpt lat="43.64102" lon="3.8106">
        <ele>112</ele>
        <time>2020-06-14T15:34:47.000Z</time>
      </trkpt>
      <trkpt lat="43.64098" lon="3.81067">
        <ele>112</ele>
        <time>2020-06-14T15:34:58.000Z</time>
      </trkpt>
      <trkpt lat="43.64096" lon="3.81069">
        <ele>112.54192199062</ele>
        <time>2020-06-14T15:35:01.000Z</time>
      </trkpt>
      <trkpt lat="43.64095" lon="3.81072">
        <ele>113.15541932461</ele>
        <time>2020-06-14T15:35:04.000Z</time>
      </trkpt>
      <trkpt lat="43.64094" lon="3.81074">
        <ele>113.7689166586</ele>
        <time>2020-06-14T15:35:07.000Z</time>
      </trkpt>
      <trkpt lat="43.64092" lon="3.81077">
        <ele>114.20392626527</ele>
        <time>2020-06-14T15:35:10.000Z</time>
      </trkpt>
      <trkpt lat="43.64091" lon="3.81079">
        <ele>114.53108014171</ele>
        <time>2020-06-14T15:35:13.000Z</time>
      </trkpt>
      <trkpt lat="43.6409" lon="3.8108">
        <ele>114.96728531029</ele>
        <time>2020-06-14T15:35:17.000Z</time>
      </trkpt>
      <trkpt lat="43.64088" lon="3.81084">
        <ele>115</ele>
        <time>2020-06-14T15:35:36.000Z</time>
      </trkpt>
      <trkpt lat="43.64087" lon="3.81086">
        <ele>115.43263085988</ele>
        <time>2020-06-14T15:35:38.000Z</time>
      </trkpt>
      <trkpt lat="43.64087" lon="3.81089">
        <ele>116.06421023273</ele>
        <time>2020-06-14T15:35:40.000Z</time>
      </trkpt>
      <trkpt lat="43.64087" lon="3.81092">
        <ele>117.01157929201</ele>
        <time>2020-06-14T15:35:43.000Z</time>
      </trkpt>
      <trkpt lat="43.64087" lon="3.81095">
        <ele>117.64315866486</ele>
        <time>2020-06-14T15:35:45.000Z</time>
      </trkpt>
      <trkpt lat="43.64087" lon="3.81098">
        <ele>118</ele>
        <time>2020-06-14T15:35:48.000Z</time>
      </trkpt>
      <trkpt lat="43.64088" lon="3.81099">
        <ele>118</ele>
        <time>2020-06-14T15:35:53.000Z</time>
      </trkpt>
      <trkpt lat="43.64092" lon="3.81105">
        <ele>118.94933024047</ele>
        <time>2020-06-14T15:36:00.000Z</time>
      </trkpt>
      <trkpt lat="43.64094" lon="3.81106">
        <ele>119</ele>
        <time>2020-06-14T15:36:01.000Z</time>
      </trkpt>
      <trkpt lat="43.64095" lon="3.81108">
        <ele>119</ele>
        <time>2020-06-14T15:36:02.000Z</time>
      </trkpt>
      <trkpt lat="43.64097" lon="3.8111">
        <ele>119</ele>
        <time>2020-06-14T15:36:03.000Z</time>
      </trkpt>
      <trkpt lat="43.64099" lon="3.81113">
        <ele>119</ele>
        <time>2020-06-14T15:36:04.000Z</time>
      </trkpt>
      <trkpt lat="43.64101" lon="3.81115">
        <ele>119</ele>
        <time>2020-06-14T15:36:05.000Z</time>
      </trkpt>
      <trkpt lat="43.64103" lon="3.81117">
        <ele>119</ele>
        <time>2020-06-14T15:36:06.000Z</time>
      </trkpt>
      <trkpt lat="43.64105" lon="3.8112">
        <ele>119</ele>
        <time>2020-06-14T15:36:07.000Z</time>
      </trkpt>
      <trkpt lat="43.64107" lon="3.81123">
        <ele>119</ele>
        <time>2020-06-14T15:36:08.000Z</time>
      </trkpt>
      <trkpt lat="43.64109" lon="3.81125">
        <ele>119</ele>
        <time>2020-06-14T15:36:09.000Z</time>
      </trkpt>
      <trkpt lat="43.64111" lon="3.81128">
        <ele>119</ele>
        <time>2020-06-14T15:36:10.000Z</time>
      </trkpt>
      <trkpt lat="43.64113" lon="3.81131">
        <ele>119.08537810862</ele>
        <time>2020-06-14T15:36:11.000Z</time>
      </trkpt>
      <trkpt lat="43.64116" lon="3.81134">
        <ele>119.18351350469</ele>
        <time>2020-06-14T15:36:12.000Z</time>
      </trkpt>
      <trkpt lat="43.64118" lon="3.81137">
        <ele>119.28164890076</ele>
        <time>2020-06-14T15:36:13.000Z</time>
      </trkpt>
      <trkpt lat="43.6412" lon="3.8114">
        <ele>119.37978429683</ele>
        <time>2020-06-14T15:36:14.000Z</time>
      </trkpt>
      <trkpt lat="43.64122" lon="3.81143">
        <ele>119.4779196929</ele>
        <time>2020-06-14T15:36:15.000Z</time>
      </trkpt>
      <trkpt lat="43.64125" lon="3.81146">
        <ele>119.57605508897</ele>
        <time>2020-06-14T15:36:16.000Z</time>
      </trkpt>
      <trkpt lat="43.64127" lon="3.81149">
        <ele>119.67419048504</ele>
        <time>2020-06-14T15:36:17.000Z</time>
      </trkpt>
      <trkpt lat="43.6413" lon="3.81152">
        <ele>119.77232588111</ele>
        <time>2020-06-14T15:36:18.000Z</time>
      </trkpt>
      <trkpt lat="43.64132" lon="3.81155">
        <ele>119.87046127719</ele>
        <time>2020-06-14T15:36:19.000Z</time>
      </trkpt>
      <trkpt lat="43.64135" lon="3.81157">
        <ele>119.96859667326</ele>
        <time>2020-06-14T15:36:20.000Z</time>
      </trkpt>
      <trkpt lat="43.64138" lon="3.8116">
        <ele>120</ele>
        <time>2020-06-14T15:36:21.000Z</time>
      </trkpt>
      <trkpt lat="43.6414" lon="3.81163">
        <ele>120</ele>
        <time>2020-06-14T15:36:22.000Z</time>
      </trkpt>
      <trkpt lat="43.64142" lon="3.81165">
        <ele>120</ele>
        <time>2020-06-14T15:36:23.000Z</time>
      </trkpt>
      <trkpt lat="43.64145" lon="3.81168">
        <ele>120</ele>
        <time>2020-06-14T15:36:24.000Z</time>
      </trkpt>
      <trkpt lat="43.64147" lon="3.81171">
        <ele>120</ele>
        <time>2020-06-14T15:36:25.000Z</time>
      </trkpt>
      <trkpt lat="43.6415" lon="3.81173">
        <ele>120</ele>
        <time>2020-06-14T15:36:26.000Z</time>
      </trkpt>
      <trkpt lat="43.64152" lon="3.81176">
        <ele>120</ele>
        <time>2020-06-14T15:36:27.000Z</time>
      </trkpt>
      <trkpt lat="43.64155" lon="3.81179">
        <ele>120</ele>
        <time>2020-06-14T15:36:28.000Z</time>
      </trkpt>
      <trkpt lat="43.64157" lon="3.81182">
        <ele>120</ele>
        <time>2020-06-14T15:36:29.000Z</time>
      </trkpt>
      <trkpt lat="43.6416" lon="3.81184">
        <ele>120</ele>
        <time>2020-06-14T15:36:30.000Z</time>
      </trkpt>
      <trkpt lat="43.64162" lon="3.81187">
        <ele>120.08608552817</ele>
        <time>2020-06-14T15:36:31.000Z</time>
      </trkpt>
      <trkpt lat="43.64164" lon="3.8119">
        <ele>120.18618572446</ele>
        <time>2020-06-14T15:36:32.000Z</time>
      </trkpt>
      <trkpt lat="43.64166" lon="3.81192">
        <ele>120.28628592076</ele>
        <time>2020-06-14T15:36:33.000Z</time>
      </trkpt>
      <trkpt lat="43.64168" lon="3.81194">
        <ele>120.38638611705</ele>
        <time>2020-06-14T15:36:34.000Z</time>
      </trkpt>
      <trkpt lat="43.6417" lon="3.81197">
        <ele>120.48648631334</ele>
        <time>2020-06-14T15:36:35.000Z</time>
      </trkpt>
      <trkpt lat="43.64171" lon="3.81199">
        <ele>120.58658650963</ele>
        <time>2020-06-14T15:36:36.000Z</time>
      </trkpt>
      <trkpt lat="43.64173" lon="3.812">
        <ele>120.68668670592</ele>
        <time>2020-06-14T15:36:37.000Z</time>
      </trkpt>
      <trkpt lat="43.64175" lon="3.81202">
        <ele>120.78678690222</ele>
        <time>2020-06-14T15:36:38.000Z</time>
      </trkpt>
      <trkpt lat="43.64176" lon="3.81204">
        <ele>120.88688709851</ele>
        <time>2020-06-14T15:36:39.000Z</time>
      </trkpt>
      <trkpt lat="43.64178" lon="3.81207">
        <ele>120.9869872948</ele>
        <time>2020-06-14T15:36:40.000Z</time>
      </trkpt>
      <trkpt lat="43.6418" lon="3.8121">
        <ele>121</ele>
        <time>2020-06-14T15:36:41.000Z</time>
      </trkpt>
      <trkpt lat="43.64182" lon="3.81213">
        <ele>121</ele>
        <time>2020-06-14T15:36:42.000Z</time>
      </trkpt>
      <trkpt lat="43.64183" lon="3.81215">
        <ele>121</ele>
        <time>2020-06-14T15:36:43.000Z</time>
      </trkpt>
      <trkpt lat="43.64185" lon="3.81218">
        <ele>121</ele>
        <time>2020-06-14T15:36:44.000Z</time>
      </trkpt>
      <trkpt lat="43.64187" lon="3.81221">
        <ele>121</ele>
        <time>2020-06-14T15:36:45.000Z</time>
      </trkpt>
      <trkpt lat="43.64189" lon="3.81223">
        <ele>121</ele>
        <time>2020-06-14T15:36:46.000Z</time>
      </trkpt>
      <trkpt lat="43.64191" lon="3.81226">
        <ele>121</ele>
        <time>2020-06-14T15:36:47.000Z</time>
      </trkpt>
      <trkpt lat="43.64193" lon="3.8123">
        <ele>121</ele>
        <time>2020-06-14T15:36:48.000Z</time>
      </trkpt>
      <trkpt lat="43.64195" lon="3.81233">
        <ele>121</ele>
        <time>2020-06-14T15:36:49.000Z</time>
      </trkpt>
      <trkpt lat="43.64197" lon="3.81236">
        <ele>121</ele>
        <time>2020-06-14T15:36:50.000Z</time>
      </trkpt>
      <trkpt lat="43.64199" lon="3.81239">
        <ele>121</ele>
        <time>2020-06-14T15:36:51.000Z</time>
      </trkpt>
      <trkpt lat="43.64201" lon="3.81243">
        <ele>121</ele>
        <time>2020-06-14T15:36:52.000Z</time>
      </trkpt>
      <trkpt lat="43.64203" lon="3.81246">
        <ele>121</ele>
        <time>2020-06-14T15:36:53.000Z</time>
      </trkpt>
      <trkpt lat="43.64205" lon="3.81249">
        <ele>121</ele>
        <time>2020-06-14T15:36:54.000Z</time>
      </trkpt>
      <trkpt lat="43.64207" lon="3.81253">
        <ele>121</ele>
        <time>2020-06-14T15:36:55.000Z</time>
      </trkpt>
      <trkpt lat="43.64208" lon="3.81256">
        <ele>121</ele>
        <time>2020-06-14T15:36:56.000Z</time>
      </trkpt>
      <trkpt lat="43.6421" lon="3.81259">
        <ele>121</ele>
        <time>2020-06-14T15:36:57.000Z</time>
      </trkpt>
      <trkpt lat="43.64212" lon="3.81263">
        <ele>121</ele>
        <time>2020-06-14T15:36:58.000Z</time>
      </trkpt>
      <trkpt lat="43.64214" lon="3.81266">
        <ele>121</ele>
        <time>2020-06-14T15:36:59.000Z</time>
      </trkpt>
      <trkpt lat="43.64216" lon="3.8127">
        <ele>121</ele>
        <time>2020-06-14T15:37:00.000Z</time>
      </trkpt>
      <trkpt lat="43.64218" lon="3.81274">
        <ele>121</ele>
        <time>2020-06-14T15:37:01.000Z</time>
      </trkpt>
      <trkpt lat="43.6422" lon="3.81277">
        <ele>121</ele>
        <time>2020-06-14T15:37:02.000Z</time>
      </trkpt>
      <trkpt lat="43.64221" lon="3.81281">
        <ele>121</ele>
        <time>2020-06-14T15:37:03.000Z</time>
      </trkpt>
      <trkpt lat="43.64223" lon="3.81284">
        <ele>121</ele>
        <time>2020-06-14T15:37:04.000Z</time>
      </trkpt>
      <trkpt lat="43.64225" lon="3.81288">
        <ele>121</ele>
        <time>2020-06-14T15:37:05.000Z</time>
      </trkpt>
      <trkpt lat="43.64227" lon="3.81291">
        <ele>121</ele>
        <time>2020-06-14T15:37:06.000Z</time>
      </trkpt>
      <trkpt lat="43.64229" lon="3.81295">
        <ele>121</ele>
        <time>2020-06-14T15:37:07.000Z</time>
      </trkpt>
      <trkpt lat="43.64232" lon="3.81299">
        <ele>121</ele>
        <time>2020-06-14T15:37:08.000Z</time>
      </trkpt>
      <trkpt lat="43.64234" lon="3.81302">
        <ele>121</ele>
        <time>2020-06-14T15:37:09.000Z</time>
      </trkpt>
      <trkpt lat="43.64237" lon="3.81306">
        <ele>121</ele>
        <time>2020-06-14T15:37:10.000Z</time>
      </trkpt>
      <trkpt lat="43.64239" lon="3.8131">
        <ele>121</ele>
        <time>2020-06-14T15:37:11.000Z</time>
      </trkpt>
      <trkpt lat="43.64242" lon="3.81314">
        <ele>121</ele>
        <time>2020-06-14T15:37:12.000Z</time>
      </trkpt>
      <trkpt lat="43.64244" lon="3.81318">
        <ele>121</ele>
        <time>2020-06-14T15:37:13.000Z</time>
      </trkpt>
      <trkpt lat="43.64247" lon="3.81322">
        <ele>121</ele>
        <time>2020-06-14T15:37:14.000Z</time>
      </trkpt>
      <trkpt lat="43.64249" lon="3.81325">
        <ele>121</ele>
        <time>2020-06-14T15:37:15.000Z</time>
      </trkpt>
      <trkpt lat="43.64252" lon="3.81329">
        <ele>121</ele>
        <time>2020-06-14T15:37:16.000Z</time>
      </trkpt>
      <trkpt lat="43.64255" lon="3.81333">
        <ele>121</ele>
        <time>2020-06-14T15:37:17.000Z</time>
      </trkpt>
      <trkpt lat="43.64257" lon="3.81337">
        <ele>121</ele>
        <time>2020-06-14T15:37:18.000Z</time>
      </trkpt>
      <trkpt lat="43.64259" lon="3.81341">
        <ele>121</ele>
        <time>2020-06-14T15:37:19.000Z</time>
      </trkpt>
      <trkpt lat="43.64262" lon="3.81345">
        <ele>121</ele>
        <time>2020-06-14T15:37:20.000Z</time>
      </trkpt>
      <trkpt lat="43.64264" lon="3.81349">
        <ele>121</ele>
        <time>2020-06-14T15:37:21.000Z</time>
      </trkpt>
      <trkpt lat="43.64265" lon="3.81353">
        <ele>121</ele>
        <time>2020-06-14T15:37:22.000Z</time>
      </trkpt>
      <trkpt lat="43.64267" lon="3.81357">
        <ele>121</ele>
        <time>2020-06-14T15:37:23.000Z</time>
      </trkpt>
      <trkpt lat="43.64268" lon="3.81361">
        <ele>121</ele>
        <time>2020-06-14T15:37:24.000Z</time>
      </trkpt>
      <trkpt lat="43.6427" lon="3.81364">
        <ele>121</ele>
        <time>2020-06-14T15:37:25.000Z</time>
      </trkpt>
      <trkpt lat="43.64271" lon="3.81368">
        <ele>121</ele>
        <time>2020-06-14T15:37:26.000Z</time>
      </trkpt>
      <trkpt lat="43.64273" lon="3.81372">
        <ele>121</ele>
        <time>2020-06-14T15:37:27.000Z</time>
      </trkpt>
      <trkpt lat="43.64274" lon="3.81376">
        <ele>121</ele>
        <time>2020-06-14T15:37:28.000Z</time>
      </trkpt>
      <trkpt lat="43.64276" lon="3.81379">
        <ele>121</ele>
        <time>2020-06-14T15:37:29.000Z</time>
      </trkpt>
      <trkpt lat="43.64277" lon="3.81383">
        <ele>121</ele>
        <time>2020-06-14T15:37:30.000Z</time>
      </trkpt>
      <trkpt lat="43.64279" lon="3.81386">
        <ele>121.0827585946</ele>
        <time>2020-06-14T15:37:31.000Z</time>
      </trkpt>
      <trkpt lat="43.6428" lon="3.8139">
        <ele>121.18128073102</ele>
        <time>2020-06-14T15:37:32.000Z</time>
      </trkpt>
      <trkpt lat="43.64282" lon="3.81394">
        <ele>121.27980286745</ele>
        <time>2020-06-14T15:37:33.000Z</time>
      </trkpt>
      <trkpt lat="43.64283" lon="3.81398">
        <ele>121.37832500388</ele>
        <time>2020-06-14T15:37:34.000Z</time>
      </trkpt>
      <trkpt lat="43.64285" lon="3.81402">
        <ele>121.4768471403</ele>
        <time>2020-06-14T15:37:35.000Z</time>
      </trkpt>
      <trkpt lat="43.64286" lon="3.81406">
        <ele>121.57536927673</ele>
        <time>2020-06-14T15:37:36.000Z</time>
      </trkpt>
      <trkpt lat="43.64288" lon="3.8141">
        <ele>121.67389141316</ele>
        <time>2020-06-14T15:37:37.000Z</time>
      </trkpt>
      <trkpt lat="43.64289" lon="3.81414">
        <ele>121.77241354958</ele>
        <time>2020-06-14T15:37:38.000Z</time>
      </trkpt>
      <trkpt lat="43.64291" lon="3.81418">
        <ele>121.87093568601</ele>
        <time>2020-06-14T15:37:39.000Z</time>
      </trkpt>
      <trkpt lat="43.64292" lon="3.81421">
        <ele>121.96945782244</ele>
        <time>2020-06-14T15:37:40.000Z</time>
      </trkpt>
      <trkpt lat="43.64293" lon="3.81425">
        <ele>122</ele>
        <time>2020-06-14T15:37:41.000Z</time>
      </trkpt>
      <trkpt lat="43.64294" lon="3.81429">
        <ele>122</ele>
        <time>2020-06-14T15:37:42.000Z</time>
      </trkpt>
      <trkpt lat="43.64295" lon="3.81432">
        <ele>122</ele>
        <time>2020-06-14T15:37:43.000Z</time>
      </trkpt>
      <trkpt lat="43.64297" lon="3.81436">
        <ele>122</ele>
        <time>2020-06-14T15:37:44.000Z</time>
      </trkpt>
      <trkpt lat="43.64298" lon="3.81439">
        <ele>122</ele>
        <time>2020-06-14T15:37:45.000Z</time>
      </trkpt>
      <trkpt lat="43.64299" lon="3.81443">
        <ele>122</ele>
        <time>2020-06-14T15:37:46.000Z</time>
      </trkpt>
      <trkpt lat="43.643" lon="3.81447">
        <ele>122</ele>
        <time>2020-06-14T15:37:47.000Z</time>
      </trkpt>
      <trkpt lat="43.64301" lon="3.81451">
        <ele>122</ele>
        <time>2020-06-14T15:37:48.000Z</time>
      </trkpt>
      <trkpt lat="43.64302" lon="3.81455">
        <ele>122</ele>
        <time>2020-06-14T15:37:49.000Z</time>
      </trkpt>
      <trkpt lat="43.64303" lon="3.81459">
        <ele>122</ele>
        <time>2020-06-14T15:37:50.000Z</time>
      </trkpt>
      <trkpt lat="43.64304" lon="3.81463">
        <ele>122.08591347402</ele>
        <time>2020-06-14T15:37:51.000Z</time>
      </trkpt>
      <trkpt lat="43.64305" lon="3.81468">
        <ele>122.18581360586</ele>
        <time>2020-06-14T15:37:52.000Z</time>
      </trkpt>
      <trkpt lat="43.64306" lon="3.81472">
        <ele>122.28571373769</ele>
        <time>2020-06-14T15:37:53.000Z</time>
      </trkpt>
      <trkpt lat="43.64307" lon="3.81476">
        <ele>122.38561386953</ele>
        <time>2020-06-14T15:37:54.000Z</time>
      </trkpt>
      <trkpt lat="43.64308" lon="3.81481">
        <ele>122.48551400136</ele>
        <time>2020-06-14T15:37:55.000Z</time>
      </trkpt>
      <trkpt lat="43.64309" lon="3.81485">
        <ele>122.5854141332</ele>
        <time>2020-06-14T15:37:56.000Z</time>
      </trkpt>
      <trkpt lat="43.64311" lon="3.81489">
        <ele>122.68531426504</ele>
        <time>2020-06-14T15:37:57.000Z</time>
      </trkpt>
      <trkpt lat="43.64312" lon="3.81493">
        <ele>122.78521439687</ele>
        <time>2020-06-14T15:37:58.000Z</time>
      </trkpt>
      <trkpt lat="43.64313" lon="3.81497">
        <ele>122.88511452871</ele>
        <time>2020-06-14T15:37:59.000Z</time>
      </trkpt>
      <trkpt lat="43.64314" lon="3.81501">
        <ele>122.98501466054</ele>
        <time>2020-06-14T15:38:00.000Z</time>
      </trkpt>
      <trkpt lat="43.64315" lon="3.81506">
        <ele>123.08276510171</ele>
        <time>2020-06-14T15:38:01.000Z</time>
      </trkpt>
      <trkpt lat="43.64316" lon="3.8151">
        <ele>123.18013617617</ele>
        <time>2020-06-14T15:38:02.000Z</time>
      </trkpt>
      <trkpt lat="43.64317" lon="3.81514">
        <ele>123.27750725064</ele>
        <time>2020-06-14T15:38:03.000Z</time>
      </trkpt>
      <trkpt lat="43.64319" lon="3.81518">
        <ele>123.37487832511</ele>
        <time>2020-06-14T15:38:04.000Z</time>
      </trkpt>
      <trkpt lat="43.6432" lon="3.81522">
        <ele>123.47224939957</ele>
        <time>2020-06-14T15:38:05.000Z</time>
      </trkpt>
      <trkpt lat="43.64321" lon="3.81527">
        <ele>123.56962047404</ele>
        <time>2020-06-14T15:38:06.000Z</time>
      </trkpt>
      <trkpt lat="43.64322" lon="3.81531">
        <ele>123.6669915485</ele>
        <time>2020-06-14T15:38:07.000Z</time>
      </trkpt>
      <trkpt lat="43.64323" lon="3.81535">
        <ele>123.76436262297</ele>
        <time>2020-06-14T15:38:08.000Z</time>
      </trkpt>
      <trkpt lat="43.64323" lon="3.81539">
        <ele>123.86173369743</ele>
        <time>2020-06-14T15:38:09.000Z</time>
      </trkpt>
      <trkpt lat="43.64324" lon="3.81544">
        <ele>123.9591047719</ele>
        <time>2020-06-14T15:38:10.000Z</time>
      </trkpt>
      <trkpt lat="43.64324" lon="3.81548">
        <ele>124</ele>
        <time>2020-06-14T15:38:11.000Z</time>
      </trkpt>
      <trkpt lat="43.64325" lon="3.81552">
        <ele>124</ele>
        <time>2020-06-14T15:38:12.000Z</time>
      </trkpt>
      <trkpt lat="43.64326" lon="3.81556">
        <ele>124</ele>
        <time>2020-06-14T15:38:13.000Z</time>
      </trkpt>
      <trkpt lat="43.64327" lon="3.8156">
        <ele>124</ele>
        <time>2020-06-14T15:38:14.000Z</time>
      </trkpt>
      <trkpt lat="43.64328" lon="3.81564">
        <ele>124</ele>
        <time>2020-06-14T15:38:15.000Z</time>
      </trkpt>
      <trkpt lat="43.64329" lon="3.81569">
        <ele>124</ele>
        <time>2020-06-14T15:38:16.000Z</time>
      </trkpt>
      <trkpt lat="43.6433" lon="3.81573">
        <ele>124</ele>
        <time>2020-06-14T15:38:17.000Z</time>
      </trkpt>
      <trkpt lat="43.64331" lon="3.81577">
        <ele>124</ele>
        <time>2020-06-14T15:38:18.000Z</time>
      </trkpt>
      <trkpt lat="43.64333" lon="3.81581">
        <ele>124</ele>
        <time>2020-06-14T15:38:19.000Z</time>
      </trkpt>
      <trkpt lat="43.64334" lon="3.81585">
        <ele>124</ele>
        <time>2020-06-14T15:38:20.000Z</time>
      </trkpt>
      <trkpt lat="43.64335" lon="3.81589">
        <ele>124</ele>
        <time>2020-06-14T15:38:21.000Z</time>
      </trkpt>
      <trkpt lat="43.64336" lon="3.81593">
        <ele>124</ele>
        <time>2020-06-14T15:38:22.000Z</time>
      </trkpt>
      <trkpt lat="43.64337" lon="3.81598">
        <ele>124</ele>
        <time>2020-06-14T15:38:23.000Z</time>
      </trkpt>
      <trkpt lat="43.64339" lon="3.81603">
        <ele>124</ele>
        <time>2020-06-14T15:38:24.000Z</time>
      </trkpt>
      <trkpt lat="43.6434" lon="3.81608">
        <ele>124</ele>
        <time>2020-06-14T15:38:25.000Z</time>
      </trkpt>
      <trkpt lat="43.64342" lon="3.81613">
        <ele>124</ele>
        <time>2020-06-14T15:38:26.000Z</time>
      </trkpt>
      <trkpt lat="43.64343" lon="3.81618">
        <ele>124</ele>
        <time>2020-06-14T15:38:27.000Z</time>
      </trkpt>
      <trkpt lat="43.64345" lon="3.81624">
        <ele>124</ele>
        <time>2020-06-14T15:38:28.000Z</time>
      </trkpt>
      <trkpt lat="43.64347" lon="3.81629">
        <ele>124</ele>
        <time>2020-06-14T15:38:29.000Z</time>
      </trkpt>
      <trkpt lat="43.64349" lon="3.81635">
        <ele>124</ele>
        <time>2020-06-14T15:38:30.000Z</time>
      </trkpt>
      <trkpt lat="43.64352" lon="3.8164">
        <ele>124</ele>
        <time>2020-06-14T15:38:31.000Z</time>
      </trkpt>
      <trkpt lat="43.64354" lon="3.81645">
        <ele>124</ele>
        <time>2020-06-14T15:38:32.000Z</time>
      </trkpt>
      <trkpt lat="43.64356" lon="3.8165">
        <ele>124</ele>
        <time>2020-06-14T15:38:33.000Z</time>
      </trkpt>
      <trkpt lat="43.64358" lon="3.81655">
        <ele>124</ele>
        <time>2020-06-14T15:38:34.000Z</time>
      </trkpt>
      <trkpt lat="43.6436" lon="3.8166">
        <ele>124</ele>
        <time>2020-06-14T15:38:35.000Z</time>
      </trkpt>
      <trkpt lat="43.64362" lon="3.81666">
        <ele>124</ele>
        <time>2020-06-14T15:38:36.000Z</time>
      </trkpt>
      <trkpt lat="43.64364" lon="3.81671">
        <ele>124</ele>
        <time>2020-06-14T15:38:37.000Z</time>
      </trkpt>
      <trkpt lat="43.64366" lon="3.81676">
        <ele>124</ele>
        <time>2020-06-14T15:38:38.000Z</time>
      </trkpt>
      <trkpt lat="43.64368" lon="3.81682">
        <ele>124</ele>
        <time>2020-06-14T15:38:39.000Z</time>
      </trkpt>
      <trkpt lat="43.6437" lon="3.81688">
        <ele>124</ele>
        <time>2020-06-14T15:38:40.000Z</time>
      </trkpt>
      <trkpt lat="43.64372" lon="3.81693">
        <ele>123.91299968</ele>
        <time>2020-06-14T15:38:41.000Z</time>
      </trkpt>
      <trkpt lat="43.64374" lon="3.81699">
        <ele>123.81299968</ele>
        <time>2020-06-14T15:38:42.000Z</time>
      </trkpt>
      <trkpt lat="43.64375" lon="3.81705">
        <ele>123.71299968</ele>
        <time>2020-06-14T15:38:43.000Z</time>
      </trkpt>
      <trkpt lat="43.64377" lon="3.81711">
        <ele>123.61299968</ele>
        <time>2020-06-14T15:38:44.000Z</time>
      </trkpt>
      <trkpt lat="43.64379" lon="3.81717">
        <ele>123.51299968</ele>
        <time>2020-06-14T15:38:45.000Z</time>
      </trkpt>
      <trkpt lat="43.64381" lon="3.81723">
        <ele>123.41299968</ele>
        <time>2020-06-14T15:38:46.000Z</time>
      </trkpt>
      <trkpt lat="43.64383" lon="3.81729">
        <ele>123.31299968</ele>
        <time>2020-06-14T15:38:47.000Z</time>
      </trkpt>
      <trkpt lat="43.64386" lon="3.81735">
        <ele>123.21299968</ele>
        <time>2020-06-14T15:38:48.000Z</time>
      </trkpt>
      <trkpt lat="43.64389" lon="3.8174">
        <ele>123.11299968</ele>
        <time>2020-06-14T15:38:49.000Z</time>
      </trkpt>
      <trkpt lat="43.64392" lon="3.81745">
        <ele>123.01299968</ele>
        <time>2020-06-14T15:38:50.000Z</time>
      </trkpt>
      <trkpt lat="43.64395" lon="3.8175">
        <ele>122.91436976378</ele>
        <time>2020-06-14T15:38:51.000Z</time>
      </trkpt>
      <trkpt lat="43.64397" lon="3.81754">
        <ele>122.81594456693</ele>
        <time>2020-06-14T15:38:52.000Z</time>
      </trkpt>
      <trkpt lat="43.644" lon="3.81758">
        <ele>122.71751937008</ele>
        <time>2020-06-14T15:38:53.000Z</time>
      </trkpt>
      <trkpt lat="43.64402" lon="3.81763">
        <ele>122.61909417323</ele>
        <time>2020-06-14T15:38:54.000Z</time>
      </trkpt>
      <trkpt lat="43.64405" lon="3.81767">
        <ele>122.52066897638</ele>
        <time>2020-06-14T15:38:55.000Z</time>
      </trkpt>
      <trkpt lat="43.64408" lon="3.81771">
        <ele>122.42224377953</ele>
        <time>2020-06-14T15:38:56.000Z</time>
      </trkpt>
      <trkpt lat="43.64411" lon="3.81776">
        <ele>122.32381858268</ele>
        <time>2020-06-14T15:38:57.000Z</time>
      </trkpt>
      <trkpt lat="43.64414" lon="3.81781">
        <ele>122.22539338583</ele>
        <time>2020-06-14T15:38:58.000Z</time>
      </trkpt>
      <trkpt lat="43.64416" lon="3.81786">
        <ele>122.12696818898</ele>
        <time>2020-06-14T15:38:59.000Z</time>
      </trkpt>
      <trkpt lat="43.64419" lon="3.81791">
        <ele>122.02854299213</ele>
        <time>2020-06-14T15:39:00.000Z</time>
      </trkpt>
      <trkpt lat="43.64421" lon="3.81796">
        <ele>121.92791852711</ele>
        <time>2020-06-14T15:39:01.000Z</time>
      </trkpt>
      <trkpt lat="43.64424" lon="3.818">
        <ele>121.82639578341</ele>
        <time>2020-06-14T15:39:02.000Z</time>
      </trkpt>
      <trkpt lat="43.64426" lon="3.81804">
        <ele>121.72487303972</ele>
        <time>2020-06-14T15:39:03.000Z</time>
      </trkpt>
      <trkpt lat="43.64426" lon="3.81809">
        <ele>121.62335029602</ele>
        <time>2020-06-14T15:39:04.000Z</time>
      </trkpt>
      <trkpt lat="43.64424" lon="3.81812">
        <ele>121.52182755233</ele>
        <time>2020-06-14T15:39:05.000Z</time>
      </trkpt>
      <trkpt lat="43.64421" lon="3.81816">
        <ele>121.42030480864</ele>
        <time>2020-06-14T15:39:06.000Z</time>
      </trkpt>
      <trkpt lat="43.64418" lon="3.81821">
        <ele>121.31878206494</ele>
        <time>2020-06-14T15:39:07.000Z</time>
      </trkpt>
      <trkpt lat="43.64416" lon="3.81827">
        <ele>121.21725932125</ele>
        <time>2020-06-14T15:39:08.000Z</time>
      </trkpt>
      <trkpt lat="43.64416" lon="3.81833">
        <ele>121.11573657756</ele>
        <time>2020-06-14T15:39:09.000Z</time>
      </trkpt>
      <trkpt lat="43.64417" lon="3.8184">
        <ele>121.01421383386</ele>
        <time>2020-06-14T15:39:10.000Z</time>
      </trkpt>
      <trkpt lat="43.64417" lon="3.81846">
        <ele>120.82782894366</ele>
        <time>2020-06-14T15:39:11.000Z</time>
      </trkpt>
      <trkpt lat="43.64417" lon="3.81852">
        <ele>120.62762855107</ele>
        <time>2020-06-14T15:39:12.000Z</time>
      </trkpt>
      <trkpt lat="43.64417" lon="3.81859">
        <ele>120.42742815849</ele>
        <time>2020-06-14T15:39:13.000Z</time>
      </trkpt>
      <trkpt lat="43.64417" lon="3.81866">
        <ele>120.2272277659</ele>
        <time>2020-06-14T15:39:14.000Z</time>
      </trkpt>
      <trkpt lat="43.64417" lon="3.81874">
        <ele>120.02702737332</ele>
        <time>2020-06-14T15:39:15.000Z</time>
      </trkpt>
      <trkpt lat="43.64417" lon="3.81882">
        <ele>119.82682698074</ele>
        <time>2020-06-14T15:39:16.000Z</time>
      </trkpt>
      <trkpt lat="43.64417" lon="3.8189">
        <ele>119.62662658815</ele>
        <time>2020-06-14T15:39:17.000Z</time>
      </trkpt>
      <trkpt lat="43.64418" lon="3.81898">
        <ele>119.42642619556</ele>
        <time>2020-06-14T15:39:18.000Z</time>
      </trkpt>
      <trkpt lat="43.64417" lon="3.81905">
        <ele>119.22622580298</ele>
        <time>2020-06-14T15:39:19.000Z</time>
      </trkpt>
      <trkpt lat="43.64417" lon="3.8191">
        <ele>119.02602541039</ele>
        <time>2020-06-14T15:39:20.000Z</time>
      </trkpt>
      <trkpt lat="43.64416" lon="3.81913">
        <ele>118.91545155777</ele>
        <time>2020-06-14T15:39:21.000Z</time>
      </trkpt>
      <trkpt lat="43.64415" lon="3.81915">
        <ele>118.81826979771</ele>
        <time>2020-06-14T15:39:22.000Z</time>
      </trkpt>
      <trkpt lat="43.64413" lon="3.81919">
        <ele>118.6239062776</ele>
        <time>2020-06-14T15:39:24.000Z</time>
      </trkpt>
      <trkpt lat="43.64411" lon="3.81921">
        <ele>118.52672451754</ele>
        <time>2020-06-14T15:39:25.000Z</time>
      </trkpt>
      <trkpt lat="43.6441" lon="3.81924">
        <ele>118.42954275749</ele>
        <time>2020-06-14T15:39:26.000Z</time>
      </trkpt>
      <trkpt lat="43.64409" lon="3.81927">
        <ele>118.33236099743</ele>
        <time>2020-06-14T15:39:27.000Z</time>
      </trkpt>
      <trkpt lat="43.64408" lon="3.81931">
        <ele>118.23517923737</ele>
        <time>2020-06-14T15:39:28.000Z</time>
      </trkpt>
      <trkpt lat="43.64407" lon="3.81935">
        <ele>118.13799747732</ele>
        <time>2020-06-14T15:39:29.000Z</time>
      </trkpt>
      <trkpt lat="43.64406" lon="3.8194">
        <ele>118.04081571726</ele>
        <time>2020-06-14T15:39:30.000Z</time>
      </trkpt>
      <trkpt lat="43.64406" lon="3.81944">
        <ele>117.88053425152</ele>
        <time>2020-06-14T15:39:31.000Z</time>
      </trkpt>
      <trkpt lat="43.64405" lon="3.81949">
        <ele>117.67456109592</ele>
        <time>2020-06-14T15:39:32.000Z</time>
      </trkpt>
      <trkpt lat="43.64403" lon="3.81954">
        <ele>117.46858794032</ele>
        <time>2020-06-14T15:39:33.000Z</time>
      </trkpt>
      <trkpt lat="43.64401" lon="3.8196">
        <ele>117.26261478472</ele>
        <time>2020-06-14T15:39:34.000Z</time>
      </trkpt>
      <trkpt lat="43.64399" lon="3.81968">
        <ele>117.05664162912</ele>
        <time>2020-06-14T15:39:35.000Z</time>
      </trkpt>
      <trkpt lat="43.64395" lon="3.81975">
        <ele>116.85066847352</ele>
        <time>2020-06-14T15:39:36.000Z</time>
      </trkpt>
      <trkpt lat="43.64393" lon="3.81982">
        <ele>116.64469531792</ele>
        <time>2020-06-14T15:39:37.000Z</time>
      </trkpt>
      <trkpt lat="43.6439" lon="3.81989">
        <ele>116.43872216232</ele>
        <time>2020-06-14T15:39:38.000Z</time>
      </trkpt>
      <trkpt lat="43.64388" lon="3.81996">
        <ele>116.23274900671</ele>
        <time>2020-06-14T15:39:39.000Z</time>
      </trkpt>
      <trkpt lat="43.64385" lon="3.82004">
        <ele>116.02677585111</ele>
        <time>2020-06-14T15:39:40.000Z</time>
      </trkpt>
      <trkpt lat="43.64383" lon="3.82011">
        <ele>115.82599936</ele>
        <time>2020-06-14T15:39:41.000Z</time>
      </trkpt>
      <trkpt lat="43.6438" lon="3.82018">
        <ele>115.62599936</ele>
        <time>2020-06-14T15:39:42.000Z</time>
      </trkpt>
      <trkpt lat="43.64376" lon="3.82023">
        <ele>115.42599936</ele>
        <time>2020-06-14T15:39:43.000Z</time>
      </trkpt>
      <trkpt lat="43.64373" lon="3.82028">
        <ele>115.22599936</ele>
        <time>2020-06-14T15:39:44.000Z</time>
      </trkpt>
      <trkpt lat="43.6437" lon="3.82033">
        <ele>115.02599936</ele>
        <time>2020-06-14T15:39:45.000Z</time>
      </trkpt>
      <trkpt lat="43.64367" lon="3.82038">
        <ele>114.82599936</ele>
        <time>2020-06-14T15:39:46.000Z</time>
      </trkpt>
      <trkpt lat="43.64364" lon="3.82044">
        <ele>114.62599936</ele>
        <time>2020-06-14T15:39:47.000Z</time>
      </trkpt>
      <trkpt lat="43.64362" lon="3.8205">
        <ele>114.42599936</ele>
        <time>2020-06-14T15:39:48.000Z</time>
      </trkpt>
      <trkpt lat="43.64359" lon="3.82057">
        <ele>114.22599936</ele>
        <time>2020-06-14T15:39:49.000Z</time>
      </trkpt>
      <trkpt lat="43.64357" lon="3.82063">
        <ele>114.02599936</ele>
        <time>2020-06-14T15:39:50.000Z</time>
      </trkpt>
      <trkpt lat="43.64354" lon="3.8207">
        <ele>114</ele>
        <time>2020-06-14T15:39:51.000Z</time>
      </trkpt>
      <trkpt lat="43.64351" lon="3.82076">
        <ele>114</ele>
        <time>2020-06-14T15:39:52.000Z</time>
      </trkpt>
      <trkpt lat="43.64348" lon="3.82083">
        <ele>114</ele>
        <time>2020-06-14T15:39:53.000Z</time>
      </trkpt>
      <trkpt lat="43.64345" lon="3.82089">
        <ele>114</ele>
        <time>2020-06-14T15:39:54.000Z</time>
      </trkpt>
      <trkpt lat="43.64343" lon="3.82095">
        <ele>114</ele>
        <time>2020-06-14T15:39:55.000Z</time>
      </trkpt>
      <trkpt lat="43.6434" lon="3.82102">
        <ele>114</ele>
        <time>2020-06-14T15:39:56.000Z</time>
      </trkpt>
      <trkpt lat="43.64338" lon="3.8211">
        <ele>114</ele>
        <time>2020-06-14T15:39:57.000Z</time>
      </trkpt>
      <trkpt lat="43.64336" lon="3.82118">
        <ele>114</ele>
        <time>2020-06-14T15:39:58.000Z</time>
      </trkpt>
      <trkpt lat="43.64337" lon="3.82128">
        <ele>114</ele>
        <time>2020-06-14T15:39:59.000Z</time>
      </trkpt>
      <trkpt lat="43.64337" lon="3.82136">
        <ele>114</ele>
        <time>2020-06-14T15:40:00.000Z</time>
      </trkpt>
      <trkpt lat="43.64337" lon="3.82144">
        <ele>113.82782894366</ele>
        <time>2020-06-14T15:40:01.000Z</time>
      </trkpt>
      <trkpt lat="43.64337" lon="3.82152">
        <ele>113.62762855107</ele>
        <time>2020-06-14T15:40:02.000Z</time>
      </trkpt>
      <trkpt lat="43.64338" lon="3.82158">
        <ele>113.42742815849</ele>
        <time>2020-06-14T15:40:03.000Z</time>
      </trkpt>
      <trkpt lat="43.64339" lon="3.82164">
        <ele>113.2272277659</ele>
        <time>2020-06-14T15:40:04.000Z</time>
      </trkpt>
      <trkpt lat="43.6434" lon="3.82169">
        <ele>113.02702737332</ele>
        <time>2020-06-14T15:40:05.000Z</time>
      </trkpt>
      <trkpt lat="43.64341" lon="3.82173">
        <ele>112.82682698074</ele>
        <time>2020-06-14T15:40:06.000Z</time>
      </trkpt>
      <trkpt lat="43.64343" lon="3.82176">
        <ele>112.62662658815</ele>
        <time>2020-06-14T15:40:07.000Z</time>
      </trkpt>
      <trkpt lat="43.64344" lon="3.8218">
        <ele>112.42642619556</ele>
        <time>2020-06-14T15:40:08.000Z</time>
      </trkpt>
      <trkpt lat="43.64345" lon="3.82183">
        <ele>112.22622580298</ele>
        <time>2020-06-14T15:40:09.000Z</time>
      </trkpt>
      <trkpt lat="43.64346" lon="3.82187">
        <ele>112.02602541039</ele>
        <time>2020-06-14T15:40:10.000Z</time>
      </trkpt>
      <trkpt lat="43.64347" lon="3.82191">
        <ele>111.82599936</ele>
        <time>2020-06-14T15:40:11.000Z</time>
      </trkpt>
      <trkpt lat="43.64348" lon="3.82196">
        <ele>111.62599936</ele>
        <time>2020-06-14T15:40:12.000Z</time>
      </trkpt>
      <trkpt lat="43.64348" lon="3.82199">
        <ele>111.42599936</ele>
        <time>2020-06-14T15:40:13.000Z</time>
      </trkpt>
      <trkpt lat="43.64347" lon="3.82203">
        <ele>111.02599936</ele>
        <time>2020-06-14T15:40:15.000Z</time>
      </trkpt>
      <trkpt lat="43.64344" lon="3.82203">
        <ele>110.82599936</ele>
        <time>2020-06-14T15:40:16.000Z</time>
      </trkpt>
      <trkpt lat="43.64341" lon="3.82204">
        <ele>110.62599936</ele>
        <time>2020-06-14T15:40:17.000Z</time>
      </trkpt>
      <trkpt lat="43.64339" lon="3.82206">
        <ele>110.42599936</ele>
        <time>2020-06-14T15:40:18.000Z</time>
      </trkpt>
      <trkpt lat="43.6434" lon="3.82211">
        <ele>110.02599936</ele>
        <time>2020-06-14T15:40:20.000Z</time>
      </trkpt>
      <trkpt lat="43.6434" lon="3.82214">
        <ele>109.82599936</ele>
        <time>2020-06-14T15:40:21.000Z</time>
      </trkpt>
      <trkpt lat="43.64341" lon="3.82217">
        <ele>109.62599936</ele>
        <time>2020-06-14T15:40:22.000Z</time>
      </trkpt>
      <trkpt lat="43.64342" lon="3.82221">
        <ele>109.42599936</ele>
        <time>2020-06-14T15:40:23.000Z</time>
      </trkpt>
      <trkpt lat="43.64343" lon="3.82225">
        <ele>109.22599936</ele>
        <time>2020-06-14T15:40:24.000Z</time>
      </trkpt>
      <trkpt lat="43.64344" lon="3.8223">
        <ele>109.02599936</ele>
        <time>2020-06-14T15:40:25.000Z</time>
      </trkpt>
      <trkpt lat="43.64345" lon="3.82234">
        <ele>108.82599936</ele>
        <time>2020-06-14T15:40:26.000Z</time>
      </trkpt>
      <trkpt lat="43.64346" lon="3.82239">
        <ele>108.62599936</ele>
        <time>2020-06-14T15:40:27.000Z</time>
      </trkpt>
      <trkpt lat="43.64348" lon="3.82243">
        <ele>108.42599936</ele>
        <time>2020-06-14T15:40:28.000Z</time>
      </trkpt>
      <trkpt lat="43.64349" lon="3.82247">
        <ele>108.22599936</ele>
        <time>2020-06-14T15:40:29.000Z</time>
      </trkpt>
      <trkpt lat="43.6435" lon="3.82251">
        <ele>108.02599936</ele>
        <time>2020-06-14T15:40:30.000Z</time>
      </trkpt>
      <trkpt lat="43.64352" lon="3.82255">
        <ele>107.82599936</ele>
        <time>2020-06-14T15:40:31.000Z</time>
      </trkpt>
      <trkpt lat="43.64354" lon="3.82258">
        <ele>107.62599936</ele>
        <time>2020-06-14T15:40:32.000Z</time>
      </trkpt>
      <trkpt lat="43.64356" lon="3.82261">
        <ele>107.42599936</ele>
        <time>2020-06-14T15:40:33.000Z</time>
      </trkpt>
      <trkpt lat="43.64358" lon="3.82264">
        <ele>107.22599936</ele>
        <time>2020-06-14T15:40:34.000Z</time>
      </trkpt>
      <trkpt lat="43.64358" lon="3.82268">
        <ele>107.02599936</ele>
        <time>2020-06-14T15:40:35.000Z</time>
      </trkpt>
      <trkpt lat="43.64358" lon="3.82271">
        <ele>106.82599936</ele>
        <time>2020-06-14T15:40:36.000Z</time>
      </trkpt>
      <trkpt lat="43.64356" lon="3.82274">
        <ele>106.62599936</ele>
        <time>2020-06-14T15:40:37.000Z</time>
      </trkpt>
      <trkpt lat="43.64354" lon="3.82277">
        <ele>106.42599936</ele>
        <time>2020-06-14T15:40:38.000Z</time>
      </trkpt>
      <trkpt lat="43.64353" lon="3.82279">
        <ele>106.22599936</ele>
        <time>2020-06-14T15:40:39.000Z</time>
      </trkpt>
      <trkpt lat="43.64351" lon="3.82281">
        <ele>106.02599936</ele>
        <time>2020-06-14T15:40:40.000Z</time>
      </trkpt>
      <trkpt lat="43.64349" lon="3.82283">
        <ele>105.91299968</ele>
        <time>2020-06-14T15:40:41.000Z</time>
      </trkpt>
      <trkpt lat="43.64347" lon="3.82285">
        <ele>105.81299968</ele>
        <time>2020-06-14T15:40:42.000Z</time>
      </trkpt>
      <trkpt lat="43.64345" lon="3.82288">
        <ele>105.71299968</ele>
        <time>2020-06-14T15:40:43.000Z</time>
      </trkpt>
      <trkpt lat="43.64342" lon="3.82291">
        <ele>105.61299968</ele>
        <time>2020-06-14T15:40:44.000Z</time>
      </trkpt>
      <trkpt lat="43.64339" lon="3.82292">
        <ele>105.51299968</ele>
        <time>2020-06-14T15:40:45.000Z</time>
      </trkpt>
      <trkpt lat="43.64336" lon="3.82293">
        <ele>105.41299968</ele>
        <time>2020-06-14T15:40:46.000Z</time>
      </trkpt>
      <trkpt lat="43.64333" lon="3.82294">
        <ele>105.31299968</ele>
        <time>2020-06-14T15:40:47.000Z</time>
      </trkpt>
      <trkpt lat="43.6433" lon="3.82296">
        <ele>105.21299968</ele>
        <time>2020-06-14T15:40:48.000Z</time>
      </trkpt>
      <trkpt lat="43.64327" lon="3.82297">
        <ele>105.11299968</ele>
        <time>2020-06-14T15:40:49.000Z</time>
      </trkpt>
      <trkpt lat="43.64324" lon="3.82297">
        <ele>105.01299968</ele>
        <time>2020-06-14T15:40:50.000Z</time>
      </trkpt>
      <trkpt lat="43.64321" lon="3.82297">
        <ele>104.91299968</ele>
        <time>2020-06-14T15:40:51.000Z</time>
      </trkpt>
      <trkpt lat="43.64319" lon="3.82298">
        <ele>104.81299968</ele>
        <time>2020-06-14T15:40:52.000Z</time>
      </trkpt>
      <trkpt lat="43.64316" lon="3.82299">
        <ele>104.71299968</ele>
        <time>2020-06-14T15:40:53.000Z</time>
      </trkpt>
      <trkpt lat="43.64312" lon="3.823">
        <ele>104.61299968</ele>
        <time>2020-06-14T15:40:54.000Z</time>
      </trkpt>
      <trkpt lat="43.64309" lon="3.82301">
        <ele>104.51299968</ele>
        <time>2020-06-14T15:40:55.000Z</time>
      </trkpt>
      <trkpt lat="43.64306" lon="3.82301">
        <ele>104.41299968</ele>
        <time>2020-06-14T15:40:56.000Z</time>
      </trkpt>
      <trkpt lat="43.64302" lon="3.823">
        <ele>104.31299968</ele>
        <time>2020-06-14T15:40:57.000Z</time>
      </trkpt>
      <trkpt lat="43.64299" lon="3.82299">
        <ele>104.21299968</ele>
        <time>2020-06-14T15:40:58.000Z</time>
      </trkpt>
      <trkpt lat="43.64296" lon="3.82299">
        <ele>104.11299968</ele>
        <time>2020-06-14T15:40:59.000Z</time>
      </trkpt>
      <trkpt lat="43.64293" lon="3.823">
        <ele>104.01299968</ele>
        <time>2020-06-14T15:41:00.000Z</time>
      </trkpt>
      <trkpt lat="43.64291" lon="3.82304">
        <ele>104</ele>
        <time>2020-06-14T15:41:01.000Z</time>
      </trkpt>
      <trkpt lat="43.64289" lon="3.82308">
        <ele>104</ele>
        <time>2020-06-14T15:41:02.000Z</time>
      </trkpt>
      <trkpt lat="43.64286" lon="3.82311">
        <ele>104</ele>
        <time>2020-06-14T15:41:03.000Z</time>
      </trkpt>
      <trkpt lat="43.64282" lon="3.82313">
        <ele>104</ele>
        <time>2020-06-14T15:41:04.000Z</time>
      </trkpt>
      <trkpt lat="43.64278" lon="3.82315">
        <ele>104</ele>
        <time>2020-06-14T15:41:05.000Z</time>
      </trkpt>
      <trkpt lat="43.64274" lon="3.82316">
        <ele>104</ele>
        <time>2020-06-14T15:41:06.000Z</time>
      </trkpt>
      <trkpt lat="43.64271" lon="3.82315">
        <ele>104</ele>
        <time>2020-06-14T15:41:07.000Z</time>
      </trkpt>
      <trkpt lat="43.64267" lon="3.82313">
        <ele>104</ele>
        <time>2020-06-14T15:41:08.000Z</time>
      </trkpt>
      <trkpt lat="43.64264" lon="3.82311">
        <ele>104</ele>
        <time>2020-06-14T15:41:09.000Z</time>
      </trkpt>
      <trkpt lat="43.64262" lon="3.82308">
        <ele>104</ele>
        <time>2020-06-14T15:41:10.000Z</time>
      </trkpt>
      <trkpt lat="43.64259" lon="3.82307">
        <ele>104.05779155675</ele>
        <time>2020-06-14T15:41:11.000Z</time>
      </trkpt>
      <trkpt lat="43.64255" lon="3.82306">
        <ele>104.16099076524</ele>
        <time>2020-06-14T15:41:12.000Z</time>
      </trkpt>
      <trkpt lat="43.64252" lon="3.82306">
        <ele>104.26418997373</ele>
        <time>2020-06-14T15:41:13.000Z</time>
      </trkpt>
      <trkpt lat="43.64249" lon="3.82306">
        <ele>104.36738918221</ele>
        <time>2020-06-14T15:41:14.000Z</time>
      </trkpt>
      <trkpt lat="43.64246" lon="3.82306">
        <ele>104.4705883907</ele>
        <time>2020-06-14T15:41:15.000Z</time>
      </trkpt>
      <trkpt lat="43.64243" lon="3.82307">
        <ele>104.57378759919</ele>
        <time>2020-06-14T15:41:16.000Z</time>
      </trkpt>
      <trkpt lat="43.64241" lon="3.82307">
        <ele>104.67698680767</ele>
        <time>2020-06-14T15:41:17.000Z</time>
      </trkpt>
      <trkpt lat="43.64238" lon="3.82306">
        <ele>104.78018601616</ele>
        <time>2020-06-14T15:41:18.000Z</time>
      </trkpt>
      <trkpt lat="43.64236" lon="3.82306">
        <ele>104.88338522465</ele>
        <time>2020-06-14T15:41:19.000Z</time>
      </trkpt>
      <trkpt lat="43.64234" lon="3.82306">
        <ele>104.98658443313</ele>
        <time>2020-06-14T15:41:20.000Z</time>
      </trkpt>
      <trkpt lat="43.64231" lon="3.82306">
        <ele>105</ele>
        <time>2020-06-14T15:41:21.000Z</time>
      </trkpt>
      <trkpt lat="43.64228" lon="3.82306">
        <ele>105</ele>
        <time>2020-06-14T15:41:22.000Z</time>
      </trkpt>
      <trkpt lat="43.64225" lon="3.82306">
        <ele>105</ele>
        <time>2020-06-14T15:41:23.000Z</time>
      </trkpt>
      <trkpt lat="43.64222" lon="3.82307">
        <ele>105</ele>
        <time>2020-06-14T15:41:24.000Z</time>
      </trkpt>
      <trkpt lat="43.6422" lon="3.82307">
        <ele>105</ele>
        <time>2020-06-14T15:41:25.000Z</time>
      </trkpt>
      <trkpt lat="43.64217" lon="3.82307">
        <ele>105</ele>
        <time>2020-06-14T15:41:26.000Z</time>
      </trkpt>
      <trkpt lat="43.64215" lon="3.82307">
        <ele>105</ele>
        <time>2020-06-14T15:41:27.000Z</time>
      </trkpt>
      <trkpt lat="43.64213" lon="3.82308">
        <ele>105</ele>
        <time>2020-06-14T15:41:28.000Z</time>
      </trkpt>
      <trkpt lat="43.6421" lon="3.8231">
        <ele>105</ele>
        <time>2020-06-14T15:41:29.000Z</time>
      </trkpt>
      <trkpt lat="43.64208" lon="3.82311">
        <ele>105</ele>
        <time>2020-06-14T15:41:30.000Z</time>
      </trkpt>
      <trkpt lat="43.64205" lon="3.82312">
        <ele>105.08700032</ele>
        <time>2020-06-14T15:41:31.000Z</time>
      </trkpt>
      <trkpt lat="43.64203" lon="3.82314">
        <ele>105.18700032</ele>
        <time>2020-06-14T15:41:32.000Z</time>
      </trkpt>
      <trkpt lat="43.64201" lon="3.82315">
        <ele>105.28700032</ele>
        <time>2020-06-14T15:41:33.000Z</time>
      </trkpt>
      <trkpt lat="43.64199" lon="3.82316">
        <ele>105.38700032</ele>
        <time>2020-06-14T15:41:34.000Z</time>
      </trkpt>
      <trkpt lat="43.64197" lon="3.82318">
        <ele>105.48700032</ele>
        <time>2020-06-14T15:41:35.000Z</time>
      </trkpt>
      <trkpt lat="43.64194" lon="3.8232">
        <ele>105.58700032</ele>
        <time>2020-06-14T15:41:36.000Z</time>
      </trkpt>
      <trkpt lat="43.64192" lon="3.82322">
        <ele>105.68700032</ele>
        <time>2020-06-14T15:41:37.000Z</time>
      </trkpt>
      <trkpt lat="43.6419" lon="3.82324">
        <ele>105.78700032</ele>
        <time>2020-06-14T15:41:38.000Z</time>
      </trkpt>
      <trkpt lat="43.64187" lon="3.82327">
        <ele>105.88700032</ele>
        <time>2020-06-14T15:41:39.000Z</time>
      </trkpt>
      <trkpt lat="43.64185" lon="3.8233">
        <ele>105.98700032</ele>
        <time>2020-06-14T15:41:40.000Z</time>
      </trkpt>
      <trkpt lat="43.64183" lon="3.82333">
        <ele>106</ele>
        <time>2020-06-14T15:41:41.000Z</time>
      </trkpt>
      <trkpt lat="43.64182" lon="3.82336">
        <ele>106</ele>
        <time>2020-06-14T15:41:42.000Z</time>
      </trkpt>
      <trkpt lat="43.64181" lon="3.8234">
        <ele>106</ele>
        <time>2020-06-14T15:41:43.000Z</time>
      </trkpt>
      <trkpt lat="43.64181" lon="3.82344">
        <ele>106</ele>
        <time>2020-06-14T15:41:44.000Z</time>
      </trkpt>
      <trkpt lat="43.6418" lon="3.82348">
        <ele>106</ele>
        <time>2020-06-14T15:41:45.000Z</time>
      </trkpt>
      <trkpt lat="43.64179" lon="3.82352">
        <ele>106</ele>
        <time>2020-06-14T15:41:46.000Z</time>
      </trkpt>
      <trkpt lat="43.64179" lon="3.82356">
        <ele>106</ele>
        <time>2020-06-14T15:41:47.000Z</time>
      </trkpt>
      <trkpt lat="43.64177" lon="3.8236">
        <ele>106</ele>
        <time>2020-06-14T15:41:48.000Z</time>
      </trkpt>
      <trkpt lat="43.64176" lon="3.82364">
        <ele>106</ele>
        <time>2020-06-14T15:41:49.000Z</time>
      </trkpt>
      <trkpt lat="43.64175" lon="3.82367">
        <ele>106</ele>
        <time>2020-06-14T15:41:50.000Z</time>
      </trkpt>
      <trkpt lat="43.64174" lon="3.82371">
        <ele>105.91308667676</ele>
        <time>2020-06-14T15:41:51.000Z</time>
      </trkpt>
      <trkpt lat="43.64173" lon="3.82374">
        <ele>105.81318667267</ele>
        <time>2020-06-14T15:41:52.000Z</time>
      </trkpt>
      <trkpt lat="43.64172" lon="3.82376">
        <ele>105.71328666858</ele>
        <time>2020-06-14T15:41:53.000Z</time>
      </trkpt>
      <trkpt lat="43.64169" lon="3.82377">
        <ele>105.51348666039</ele>
        <time>2020-06-14T15:41:55.000Z</time>
      </trkpt>
      <trkpt lat="43.64167" lon="3.82378">
        <ele>105.4135866563</ele>
        <time>2020-06-14T15:41:56.000Z</time>
      </trkpt>
      <trkpt lat="43.64165" lon="3.82381">
        <ele>105.31368665221</ele>
        <time>2020-06-14T15:41:57.000Z</time>
      </trkpt>
      <trkpt lat="43.64163" lon="3.82384">
        <ele>105.21378664812</ele>
        <time>2020-06-14T15:41:58.000Z</time>
      </trkpt>
      <trkpt lat="43.64162" lon="3.82387">
        <ele>105.11388664403</ele>
        <time>2020-06-14T15:41:59.000Z</time>
      </trkpt>
      <trkpt lat="43.64161" lon="3.8239">
        <ele>105.01398663993</ele>
        <time>2020-06-14T15:42:00.000Z</time>
      </trkpt>
      <trkpt lat="43.6416" lon="3.82395">
        <ele>105</ele>
        <time>2020-06-14T15:42:01.000Z</time>
      </trkpt>
      <trkpt lat="43.64159" lon="3.82399">
        <ele>105</ele>
        <time>2020-06-14T15:42:02.000Z</time>
      </trkpt>
      <trkpt lat="43.64157" lon="3.82404">
        <ele>105</ele>
        <time>2020-06-14T15:42:03.000Z</time>
      </trkpt>
      <trkpt lat="43.64155" lon="3.82409">
        <ele>105</ele>
        <time>2020-06-14T15:42:04.000Z</time>
      </trkpt>
      <trkpt lat="43.64153" lon="3.82413">
        <ele>105</ele>
        <time>2020-06-14T15:42:05.000Z</time>
      </trkpt>
      <trkpt lat="43.64151" lon="3.82418">
        <ele>105</ele>
        <time>2020-06-14T15:42:06.000Z</time>
      </trkpt>
      <trkpt lat="43.6415" lon="3.82422">
        <ele>105</ele>
        <time>2020-06-14T15:42:07.000Z</time>
      </trkpt>
      <trkpt lat="43.6415" lon="3.82426">
        <ele>105</ele>
        <time>2020-06-14T15:42:08.000Z</time>
      </trkpt>
      <trkpt lat="43.6415" lon="3.8243">
        <ele>105</ele>
        <time>2020-06-14T15:42:09.000Z</time>
      </trkpt>
      <trkpt lat="43.64151" lon="3.82435">
        <ele>105</ele>
        <time>2020-06-14T15:42:10.000Z</time>
      </trkpt>
      <trkpt lat="43.6415" lon="3.82438">
        <ele>104.91462189138</ele>
        <time>2020-06-14T15:42:11.000Z</time>
      </trkpt>
      <trkpt lat="43.64148" lon="3.82442">
        <ele>104.81648649531</ele>
        <time>2020-06-14T15:42:12.000Z</time>
      </trkpt>
      <trkpt lat="43.64147" lon="3.82447">
        <ele>104.71835109924</ele>
        <time>2020-06-14T15:42:13.000Z</time>
      </trkpt>
      <trkpt lat="43.64147" lon="3.82452">
        <ele>104.62021570317</ele>
        <time>2020-06-14T15:42:14.000Z</time>
      </trkpt>
      <trkpt lat="43.64147" lon="3.82457">
        <ele>104.5220803071</ele>
        <time>2020-06-14T15:42:15.000Z</time>
      </trkpt>
      <trkpt lat="43.64146" lon="3.82463">
        <ele>104.42394491103</ele>
        <time>2020-06-14T15:42:16.000Z</time>
      </trkpt>
      <trkpt lat="43.64144" lon="3.82468">
        <ele>104.32580951496</ele>
        <time>2020-06-14T15:42:17.000Z</time>
      </trkpt>
      <trkpt lat="43.64142" lon="3.82472">
        <ele>104.22767411889</ele>
        <time>2020-06-14T15:42:18.000Z</time>
      </trkpt>
      <trkpt lat="43.6414" lon="3.82476">
        <ele>104.12953872281</ele>
        <time>2020-06-14T15:42:19.000Z</time>
      </trkpt>
      <trkpt lat="43.64138" lon="3.8248">
        <ele>104.03140332674</ele>
        <time>2020-06-14T15:42:20.000Z</time>
      </trkpt>
      <trkpt lat="43.64137" lon="3.82485">
        <ele>103.93068295394</ele>
        <time>2020-06-14T15:42:21.000Z</time>
      </trkpt>
      <trkpt lat="43.64135" lon="3.8249">
        <ele>103.82874612151</ele>
        <time>2020-06-14T15:42:22.000Z</time>
      </trkpt>
      <trkpt lat="43.64133" lon="3.82496">
        <ele>103.72680928907</ele>
        <time>2020-06-14T15:42:23.000Z</time>
      </trkpt>
      <trkpt lat="43.64131" lon="3.82501">
        <ele>103.62487245664</ele>
        <time>2020-06-14T15:42:24.000Z</time>
      </trkpt>
      <trkpt lat="43.64128" lon="3.82506">
        <ele>103.5229356242</ele>
        <time>2020-06-14T15:42:25.000Z</time>
      </trkpt>
      <trkpt lat="43.64126" lon="3.8251">
        <ele>103.42099879176</ele>
        <time>2020-06-14T15:42:26.000Z</time>
      </trkpt>
      <trkpt lat="43.64123" lon="3.82514">
        <ele>103.31906195933</ele>
        <time>2020-06-14T15:42:27.000Z</time>
      </trkpt>
      <trkpt lat="43.64121" lon="3.82517">
        <ele>103.21712512689</ele>
        <time>2020-06-14T15:42:28.000Z</time>
      </trkpt>
      <trkpt lat="43.64118" lon="3.82521">
        <ele>103.11518829445</ele>
        <time>2020-06-14T15:42:29.000Z</time>
      </trkpt>
      <trkpt lat="43.64116" lon="3.82525">
        <ele>103.01325146202</ele>
        <time>2020-06-14T15:42:30.000Z</time>
      </trkpt>
      <trkpt lat="43.64115" lon="3.82529">
        <ele>102.91545155777</ele>
        <time>2020-06-14T15:42:31.000Z</time>
      </trkpt>
      <trkpt lat="43.64114" lon="3.82532">
        <ele>102.81826979771</ele>
        <time>2020-06-14T15:42:32.000Z</time>
      </trkpt>
      <trkpt lat="43.64112" lon="3.82535">
        <ele>102.72108803766</ele>
        <time>2020-06-14T15:42:33.000Z</time>
      </trkpt>
      <trkpt lat="43.64111" lon="3.8254">
        <ele>102.6239062776</ele>
        <time>2020-06-14T15:42:34.000Z</time>
      </trkpt>
      <trkpt lat="43.64109" lon="3.82545">
        <ele>102.52672451754</ele>
        <time>2020-06-14T15:42:35.000Z</time>
      </trkpt>
      <trkpt lat="43.64108" lon="3.8255">
        <ele>102.42954275749</ele>
        <time>2020-06-14T15:42:36.000Z</time>
      </trkpt>
      <trkpt lat="43.64107" lon="3.82555">
        <ele>102.33236099743</ele>
        <time>2020-06-14T15:42:37.000Z</time>
      </trkpt>
      <trkpt lat="43.64106" lon="3.8256">
        <ele>102.23517923737</ele>
        <time>2020-06-14T15:42:38.000Z</time>
      </trkpt>
      <trkpt lat="43.64104" lon="3.82566">
        <ele>102.13799747732</ele>
        <time>2020-06-14T15:42:39.000Z</time>
      </trkpt>
      <trkpt lat="43.64102" lon="3.82571">
        <ele>102.04081571726</ele>
        <time>2020-06-14T15:42:40.000Z</time>
      </trkpt>
      <trkpt lat="43.641" lon="3.82577">
        <ele>101.82080137728</ele>
        <time>2020-06-14T15:42:41.000Z</time>
      </trkpt>
      <trkpt lat="43.64097" lon="3.82583">
        <ele>101.51184164388</ele>
        <time>2020-06-14T15:42:42.000Z</time>
      </trkpt>
      <trkpt lat="43.64095" lon="3.82588">
        <ele>101.20288191048</ele>
        <time>2020-06-14T15:42:43.000Z</time>
      </trkpt>
      <trkpt lat="43.64092" lon="3.82593">
        <ele>100.89392217708</ele>
        <time>2020-06-14T15:42:44.000Z</time>
      </trkpt>
      <trkpt lat="43.6409" lon="3.82599">
        <ele>100.58496244368</ele>
        <time>2020-06-14T15:42:45.000Z</time>
      </trkpt>
      <trkpt lat="43.64088" lon="3.82605">
        <ele>100.27600271028</ele>
        <time>2020-06-14T15:42:46.000Z</time>
      </trkpt>
      <trkpt lat="43.64086" lon="3.82611">
        <ele>99.967042976876</ele>
        <time>2020-06-14T15:42:47.000Z</time>
      </trkpt>
      <trkpt lat="43.64084" lon="3.82618">
        <ele>99.658083243474</ele>
        <time>2020-06-14T15:42:48.000Z</time>
      </trkpt>
      <trkpt lat="43.64082" lon="3.82624">
        <ele>99.349123510073</ele>
        <time>2020-06-14T15:42:49.000Z</time>
      </trkpt>
      <trkpt lat="43.64081" lon="3.82631">
        <ele>99.040163776671</ele>
        <time>2020-06-14T15:42:50.000Z</time>
      </trkpt>
      <trkpt lat="43.6408" lon="3.82637">
        <ele>98.73899904</ele>
        <time>2020-06-14T15:42:51.000Z</time>
      </trkpt>
      <trkpt lat="43.64079" lon="3.82645">
        <ele>98.43899904</ele>
        <time>2020-06-14T15:42:52.000Z</time>
      </trkpt>
      <trkpt lat="43.64077" lon="3.82652">
        <ele>98.13899904</ele>
        <time>2020-06-14T15:42:53.000Z</time>
      </trkpt>
      <trkpt lat="43.64074" lon="3.8266">
        <ele>97.83899904</ele>
        <time>2020-06-14T15:42:54.000Z</time>
      </trkpt>
      <trkpt lat="43.64071" lon="3.82668">
        <ele>97.53899904</ele>
        <time>2020-06-14T15:42:55.000Z</time>
      </trkpt>
      <trkpt lat="43.64067" lon="3.82675">
        <ele>97.23899904</ele>
        <time>2020-06-14T15:42:56.000Z</time>
      </trkpt>
      <trkpt lat="43.64063" lon="3.82682">
        <ele>96.93899904</ele>
        <time>2020-06-14T15:42:57.000Z</time>
      </trkpt>
      <trkpt lat="43.6406" lon="3.8269">
        <ele>96.63899904</ele>
        <time>2020-06-14T15:42:58.000Z</time>
      </trkpt>
      <trkpt lat="43.64058" lon="3.82699">
        <ele>96.33899904</ele>
        <time>2020-06-14T15:42:59.000Z</time>
      </trkpt>
      <trkpt lat="43.64056" lon="3.82707">
        <ele>96.03899904</ele>
        <time>2020-06-14T15:43:00.000Z</time>
      </trkpt>
      <trkpt lat="43.64053" lon="3.82714">
        <ele>95.5649984</ele>
        <time>2020-06-14T15:43:01.000Z</time>
      </trkpt>
      <trkpt lat="43.64049" lon="3.82722">
        <ele>95.0649984</ele>
        <time>2020-06-14T15:43:02.000Z</time>
      </trkpt>
      <trkpt lat="43.64044" lon="3.8273">
        <ele>94.5649984</ele>
        <time>2020-06-14T15:43:03.000Z</time>
      </trkpt>
      <trkpt lat="43.6404" lon="3.82737">
        <ele>94.0649984</ele>
        <time>2020-06-14T15:43:04.000Z</time>
      </trkpt>
      <trkpt lat="43.64036" lon="3.82744">
        <ele>93.5649984</ele>
        <time>2020-06-14T15:43:05.000Z</time>
      </trkpt>
      <trkpt lat="43.64033" lon="3.82751">
        <ele>93.0649984</ele>
        <time>2020-06-14T15:43:06.000Z</time>
      </trkpt>
      <trkpt lat="43.6403" lon="3.82758">
        <ele>92.5649984</ele>
        <time>2020-06-14T15:43:07.000Z</time>
      </trkpt>
      <trkpt lat="43.64026" lon="3.82765">
        <ele>92.0649984</ele>
        <time>2020-06-14T15:43:08.000Z</time>
      </trkpt>
      <trkpt lat="43.64023" lon="3.82772">
        <ele>91.5649984</ele>
        <time>2020-06-14T15:43:09.000Z</time>
      </trkpt>
      <trkpt lat="43.64019" lon="3.82778">
        <ele>91.0649984</ele>
        <time>2020-06-14T15:43:10.000Z</time>
      </trkpt>
      <trkpt lat="43.64017" lon="3.82783">
        <ele>90.82599936</ele>
        <time>2020-06-14T15:43:11.000Z</time>
      </trkpt>
      <trkpt lat="43.64015" lon="3.8279">
        <ele>90.62599936</ele>
        <time>2020-06-14T15:43:12.000Z</time>
      </trkpt>
      <trkpt lat="43.64013" lon="3.82796">
        <ele>90.42599936</ele>
        <time>2020-06-14T15:43:13.000Z</time>
      </trkpt>
      <trkpt lat="43.64008" lon="3.82799">
        <ele>90.22599936</ele>
        <time>2020-06-14T15:43:14.000Z</time>
      </trkpt>
      <trkpt lat="43.64003" lon="3.828">
        <ele>90.02599936</ele>
        <time>2020-06-14T15:43:15.000Z</time>
      </trkpt>
      <trkpt lat="43.63997" lon="3.828">
        <ele>89.82599936</ele>
        <time>2020-06-14T15:43:16.000Z</time>
      </trkpt>
      <trkpt lat="43.63992" lon="3.82801">
        <ele>89.62599936</ele>
        <time>2020-06-14T15:43:17.000Z</time>
      </trkpt>
      <trkpt lat="43.63986" lon="3.82801">
        <ele>89.42599936</ele>
        <time>2020-06-14T15:43:18.000Z</time>
      </trkpt>
      <trkpt lat="43.6398" lon="3.82802">
        <ele>89.22599936</ele>
        <time>2020-06-14T15:43:19.000Z</time>
      </trkpt>
      <trkpt lat="43.63975" lon="3.82803">
        <ele>89.02599936</ele>
        <time>2020-06-14T15:43:20.000Z</time>
      </trkpt>
      <trkpt lat="43.63971" lon="3.82803">
        <ele>88.82599936</ele>
        <time>2020-06-14T15:43:21.000Z</time>
      </trkpt>
      <trkpt lat="43.63968" lon="3.82804">
        <ele>88.62599936</ele>
        <time>2020-06-14T15:43:22.000Z</time>
      </trkpt>
      <trkpt lat="43.63966" lon="3.82806">
        <ele>88.42599936</ele>
        <time>2020-06-14T15:43:23.000Z</time>
      </trkpt>
      <trkpt lat="43.63963" lon="3.82807">
        <ele>88.22599936</ele>
        <time>2020-06-14T15:43:24.000Z</time>
      </trkpt>
      <trkpt lat="43.63961" lon="3.8281">
        <ele>88.02599936</ele>
        <time>2020-06-14T15:43:25.000Z</time>
      </trkpt>
      <trkpt lat="43.63958" lon="3.82812">
        <ele>87.82599936</ele>
        <time>2020-06-14T15:43:26.000Z</time>
      </trkpt>
      <trkpt lat="43.63956" lon="3.82814">
        <ele>87.62599936</ele>
        <time>2020-06-14T15:43:27.000Z</time>
      </trkpt>
      <trkpt lat="43.63953" lon="3.82816">
        <ele>87.42599936</ele>
        <time>2020-06-14T15:43:28.000Z</time>
      </trkpt>
      <trkpt lat="43.63952" lon="3.82818">
        <ele>87.22599936</ele>
        <time>2020-06-14T15:43:29.000Z</time>
      </trkpt>
      <trkpt lat="43.63952" lon="3.82818">
        <ele>86.996098598821</ele>
        <time>2020-06-14T15:43:34.000Z</time>
      </trkpt>
      <trkpt lat="43.63945" lon="3.82821">
        <ele>86.003014662345</ele>
        <time>2020-06-14T15:45:26.000Z</time>
      </trkpt>
      <trkpt lat="43.63943" lon="3.82821">
        <ele>85.867076232033</ele>
        <time>2020-06-14T15:45:27.000Z</time>
      </trkpt>
      <trkpt lat="43.63941" lon="3.82821">
        <ele>85.662577120705</ele>
        <time>2020-06-14T15:45:28.000Z</time>
      </trkpt>
      <trkpt lat="43.63939" lon="3.82822">
        <ele>85.458078009376</ele>
        <time>2020-06-14T15:45:29.000Z</time>
      </trkpt>
      <trkpt lat="43.63937" lon="3.82822">
        <ele>85.253578898047</ele>
        <time>2020-06-14T15:45:30.000Z</time>
      </trkpt>
      <trkpt lat="43.63934" lon="3.82824">
        <ele>85.049079786719</ele>
        <time>2020-06-14T15:45:31.000Z</time>
      </trkpt>
      <trkpt lat="43.63931" lon="3.82825">
        <ele>84.84458067539</ele>
        <time>2020-06-14T15:45:32.000Z</time>
      </trkpt>
      <trkpt lat="43.63928" lon="3.82826">
        <ele>84.640081564062</ele>
        <time>2020-06-14T15:45:33.000Z</time>
      </trkpt>
      <trkpt lat="43.63925" lon="3.82827">
        <ele>84.435582452733</ele>
        <time>2020-06-14T15:45:34.000Z</time>
      </trkpt>
      <trkpt lat="43.63923" lon="3.82828">
        <ele>84.231083341404</ele>
        <time>2020-06-14T15:45:35.000Z</time>
      </trkpt>
      <trkpt lat="43.63922" lon="3.82829">
        <ele>84.026584230076</ele>
        <time>2020-06-14T15:45:36.000Z</time>
      </trkpt>
      <trkpt lat="43.6392" lon="3.8283">
        <ele>83.915286959209</ele>
        <time>2020-06-14T15:45:37.000Z</time>
      </trkpt>
      <trkpt lat="43.63918" lon="3.82832">
        <ele>83.817916006102</ele>
        <time>2020-06-14T15:45:38.000Z</time>
      </trkpt>
      <trkpt lat="43.63916" lon="3.82834">
        <ele>83.720545052995</ele>
        <time>2020-06-14T15:45:39.000Z</time>
      </trkpt>
      <trkpt lat="43.63914" lon="3.82836">
        <ele>83.623174099887</ele>
        <time>2020-06-14T15:45:40.000Z</time>
      </trkpt>
      <trkpt lat="43.63913" lon="3.82839">
        <ele>83.52580314678</ele>
        <time>2020-06-14T15:45:41.000Z</time>
      </trkpt>
      <trkpt lat="43.63912" lon="3.82843">
        <ele>83.428432193673</ele>
        <time>2020-06-14T15:45:42.000Z</time>
      </trkpt>
      <trkpt lat="43.63912" lon="3.82848">
        <ele>83.331061240565</ele>
        <time>2020-06-14T15:45:43.000Z</time>
      </trkpt>
      <trkpt lat="43.63912" lon="3.82853">
        <ele>83.233690287458</ele>
        <time>2020-06-14T15:45:44.000Z</time>
      </trkpt>
      <trkpt lat="43.63911" lon="3.82858">
        <ele>83.13631933435</ele>
        <time>2020-06-14T15:45:45.000Z</time>
      </trkpt>
      <trkpt lat="43.63909" lon="3.82863">
        <ele>83.038948381243</ele>
        <time>2020-06-14T15:45:46.000Z</time>
      </trkpt>
      <trkpt lat="43.63908" lon="3.82869">
        <ele>82.938335025968</ele>
        <time>2020-06-14T15:45:47.000Z</time>
      </trkpt>
      <trkpt lat="43.63906" lon="3.82875">
        <ele>82.835560069249</ele>
        <time>2020-06-14T15:45:48.000Z</time>
      </trkpt>
      <trkpt lat="43.63905" lon="3.82881">
        <ele>82.732785112529</ele>
        <time>2020-06-14T15:45:49.000Z</time>
      </trkpt>
      <trkpt lat="43.63902" lon="3.82886">
        <ele>82.63001015581</ele>
        <time>2020-06-14T15:45:50.000Z</time>
      </trkpt>
      <trkpt lat="43.639" lon="3.82891">
        <ele>82.527235199091</ele>
        <time>2020-06-14T15:45:51.000Z</time>
      </trkpt>
      <trkpt lat="43.63899" lon="3.82897">
        <ele>82.424460242371</ele>
        <time>2020-06-14T15:45:52.000Z</time>
      </trkpt>
      <trkpt lat="43.63898" lon="3.82902">
        <ele>82.321685285652</ele>
        <time>2020-06-14T15:45:53.000Z</time>
      </trkpt>
      <trkpt lat="43.63896" lon="3.82907">
        <ele>82.218910328932</ele>
        <time>2020-06-14T15:45:54.000Z</time>
      </trkpt>
      <trkpt lat="43.63894" lon="3.82911">
        <ele>82.116135372213</ele>
        <time>2020-06-14T15:45:55.000Z</time>
      </trkpt>
      <trkpt lat="43.63891" lon="3.82916">
        <ele>82.013360415494</ele>
        <time>2020-06-14T15:45:56.000Z</time>
      </trkpt>
      <trkpt lat="43.63889" lon="3.82921">
        <ele>81.91308667676</ele>
        <time>2020-06-14T15:45:57.000Z</time>
      </trkpt>
      <trkpt lat="43.63886" lon="3.82926">
        <ele>81.813186672668</ele>
        <time>2020-06-14T15:45:58.000Z</time>
      </trkpt>
      <trkpt lat="43.63883" lon="3.82931">
        <ele>81.713286668576</ele>
        <time>2020-06-14T15:45:59.000Z</time>
      </trkpt>
      <trkpt lat="43.6388" lon="3.82935">
        <ele>81.613386664484</ele>
        <time>2020-06-14T15:46:00.000Z</time>
      </trkpt>
      <trkpt lat="43.63876" lon="3.8294">
        <ele>81.513486660392</ele>
        <time>2020-06-14T15:46:01.000Z</time>
      </trkpt>
      <trkpt lat="43.63873" lon="3.82945">
        <ele>81.4135866563</ele>
        <time>2020-06-14T15:46:02.000Z</time>
      </trkpt>
      <trkpt lat="43.6387" lon="3.8295">
        <ele>81.313686652209</ele>
        <time>2020-06-14T15:46:03.000Z</time>
      </trkpt>
      <trkpt lat="43.63866" lon="3.82955">
        <ele>81.213786648117</ele>
        <time>2020-06-14T15:46:04.000Z</time>
      </trkpt>
      <trkpt lat="43.63863" lon="3.8296">
        <ele>81.113886644025</ele>
        <time>2020-06-14T15:46:05.000Z</time>
      </trkpt>
      <trkpt lat="43.63859" lon="3.82965">
        <ele>81.013986639933</ele>
        <time>2020-06-14T15:46:06.000Z</time>
      </trkpt>
      <trkpt lat="43.63855" lon="3.8297">
        <ele>80.91391447183</ele>
        <time>2020-06-14T15:46:07.000Z</time>
      </trkpt>
      <trkpt lat="43.63851" lon="3.82975">
        <ele>80.813814275537</ele>
        <time>2020-06-14T15:46:08.000Z</time>
      </trkpt>
      <trkpt lat="43.63847" lon="3.8298">
        <ele>80.713714079245</ele>
        <time>2020-06-14T15:46:09.000Z</time>
      </trkpt>
      <trkpt lat="43.63843" lon="3.82985">
        <ele>80.613613882952</ele>
        <time>2020-06-14T15:46:10.000Z</time>
      </trkpt>
      <trkpt lat="43.63839" lon="3.8299">
        <ele>80.51351368666</ele>
        <time>2020-06-14T15:46:11.000Z</time>
      </trkpt>
      <trkpt lat="43.63835" lon="3.82994">
        <ele>80.413413490367</ele>
        <time>2020-06-14T15:46:12.000Z</time>
      </trkpt>
      <trkpt lat="43.63831" lon="3.82999">
        <ele>80.313313294075</ele>
        <time>2020-06-14T15:46:13.000Z</time>
      </trkpt>
      <trkpt lat="43.63826" lon="3.83004">
        <ele>80.213213097782</ele>
        <time>2020-06-14T15:46:14.000Z</time>
      </trkpt>
      <trkpt lat="43.63822" lon="3.83009">
        <ele>80.11311290149</ele>
        <time>2020-06-14T15:46:15.000Z</time>
      </trkpt>
      <trkpt lat="43.63818" lon="3.83014">
        <ele>80.013012705197</ele>
        <time>2020-06-14T15:46:16.000Z</time>
      </trkpt>
      <trkpt lat="43.63814" lon="3.83019">
        <ele>79.91308667676</ele>
        <time>2020-06-14T15:46:17.000Z</time>
      </trkpt>
      <trkpt lat="43.6381" lon="3.83023">
        <ele>79.813186672668</ele>
        <time>2020-06-14T15:46:18.000Z</time>
      </trkpt>
      <trkpt lat="43.63805" lon="3.83028">
        <ele>79.713286668576</ele>
        <time>2020-06-14T15:46:19.000Z</time>
      </trkpt>
      <trkpt lat="43.63801" lon="3.83032">
        <ele>79.613386664484</ele>
        <time>2020-06-14T15:46:20.000Z</time>
      </trkpt>
      <trkpt lat="43.63797" lon="3.83036">
        <ele>79.513486660392</ele>
        <time>2020-06-14T15:46:21.000Z</time>
      </trkpt>
      <trkpt lat="43.63793" lon="3.8304">
        <ele>79.4135866563</ele>
        <time>2020-06-14T15:46:22.000Z</time>
      </trkpt>
      <trkpt lat="43.6379" lon="3.83043">
        <ele>79.313686652209</ele>
        <time>2020-06-14T15:46:23.000Z</time>
      </trkpt>
      <trkpt lat="43.63787" lon="3.83046">
        <ele>79.213786648117</ele>
        <time>2020-06-14T15:46:24.000Z</time>
      </trkpt>
      <trkpt lat="43.63784" lon="3.83049">
        <ele>79.113886644025</ele>
        <time>2020-06-14T15:46:25.000Z</time>
      </trkpt>
      <trkpt lat="43.63781" lon="3.83052">
        <ele>79.013986639933</ele>
        <time>2020-06-14T15:46:26.000Z</time>
      </trkpt>
      <trkpt lat="43.63778" lon="3.83055">
        <ele>78.91400064</ele>
        <time>2020-06-14T15:46:27.000Z</time>
      </trkpt>
      <trkpt lat="43.63775" lon="3.83057">
        <ele>78.81400064</ele>
        <time>2020-06-14T15:46:28.000Z</time>
      </trkpt>
      <trkpt lat="43.63772" lon="3.8306">
        <ele>78.71400064</ele>
        <time>2020-06-14T15:46:29.000Z</time>
      </trkpt>
      <trkpt lat="43.63769" lon="3.83063">
        <ele>78.61400064</ele>
        <time>2020-06-14T15:46:30.000Z</time>
      </trkpt>
      <trkpt lat="43.63765" lon="3.83066">
        <ele>78.51400064</ele>
        <time>2020-06-14T15:46:31.000Z</time>
      </trkpt>
      <trkpt lat="43.63761" lon="3.83069">
        <ele>78.41400064</ele>
        <time>2020-06-14T15:46:32.000Z</time>
      </trkpt>
      <trkpt lat="43.63758" lon="3.83072">
        <ele>78.31400064</ele>
        <time>2020-06-14T15:46:33.000Z</time>
      </trkpt>
      <trkpt lat="43.63754" lon="3.83076">
        <ele>78.21400064</ele>
        <time>2020-06-14T15:46:34.000Z</time>
      </trkpt>
      <trkpt lat="43.6375" lon="3.83079">
        <ele>78.11400064</ele>
        <time>2020-06-14T15:46:35.000Z</time>
      </trkpt>
      <trkpt lat="43.63746" lon="3.83083">
        <ele>78.01400064</ele>
        <time>2020-06-14T15:46:36.000Z</time>
      </trkpt>
      <trkpt lat="43.63741" lon="3.83086">
        <ele>77.91391447183</ele>
        <time>2020-06-14T15:46:37.000Z</time>
      </trkpt>
      <trkpt lat="43.63737" lon="3.83089">
        <ele>77.813814275537</ele>
        <time>2020-06-14T15:46:38.000Z</time>
      </trkpt>
      <trkpt lat="43.63733" lon="3.83092">
        <ele>77.713714079245</ele>
        <time>2020-06-14T15:46:39.000Z</time>
      </trkpt>
      <trkpt lat="43.63729" lon="3.83096">
        <ele>77.613613882952</ele>
        <time>2020-06-14T15:46:40.000Z</time>
      </trkpt>
      <trkpt lat="43.63725" lon="3.831">
        <ele>77.51351368666</ele>
        <time>2020-06-14T15:46:41.000Z</time>
      </trkpt>
      <trkpt lat="43.6372" lon="3.83104">
        <ele>77.413413490367</ele>
        <time>2020-06-14T15:46:42.000Z</time>
      </trkpt>
      <trkpt lat="43.63716" lon="3.83106">
        <ele>77.313313294075</ele>
        <time>2020-06-14T15:46:43.000Z</time>
      </trkpt>
      <trkpt lat="43.63712" lon="3.83108">
        <ele>77.213213097782</ele>
        <time>2020-06-14T15:46:44.000Z</time>
      </trkpt>
      <trkpt lat="43.63707" lon="3.8311">
        <ele>77.11311290149</ele>
        <time>2020-06-14T15:46:45.000Z</time>
      </trkpt>
      <trkpt lat="43.63702" lon="3.83112">
        <ele>77.013012705197</ele>
        <time>2020-06-14T15:46:46.000Z</time>
      </trkpt>
      <trkpt lat="43.63697" lon="3.83114">
        <ele>76.91299968</ele>
        <time>2020-06-14T15:46:47.000Z</time>
      </trkpt>
      <trkpt lat="43.63692" lon="3.83116">
        <ele>76.81299968</ele>
        <time>2020-06-14T15:46:48.000Z</time>
      </trkpt>
      <trkpt lat="43.63687" lon="3.83118">
        <ele>76.71299968</ele>
        <time>2020-06-14T15:46:49.000Z</time>
      </trkpt>
      <trkpt lat="43.63682" lon="3.8312">
        <ele>76.61299968</ele>
        <time>2020-06-14T15:46:50.000Z</time>
      </trkpt>
      <trkpt lat="43.63677" lon="3.83122">
        <ele>76.51299968</ele>
        <time>2020-06-14T15:46:51.000Z</time>
      </trkpt>
      <trkpt lat="43.63672" lon="3.83124">
        <ele>76.41299968</ele>
        <time>2020-06-14T15:46:52.000Z</time>
      </trkpt>
      <trkpt lat="43.63667" lon="3.83127">
        <ele>76.31299968</ele>
        <time>2020-06-14T15:46:53.000Z</time>
      </trkpt>
      <trkpt lat="43.63662" lon="3.83129">
        <ele>76.21299968</ele>
        <time>2020-06-14T15:46:54.000Z</time>
      </trkpt>
      <trkpt lat="43.63657" lon="3.83131">
        <ele>76.11299968</ele>
        <time>2020-06-14T15:46:55.000Z</time>
      </trkpt>
      <trkpt lat="43.63652" lon="3.83134">
        <ele>76.01299968</ele>
        <time>2020-06-14T15:46:56.000Z</time>
      </trkpt>
      <trkpt lat="43.63647" lon="3.83136">
        <ele>75.914538049799</ele>
        <time>2020-06-14T15:46:57.000Z</time>
      </trkpt>
      <trkpt lat="43.63642" lon="3.83139">
        <ele>75.816306284444</ele>
        <time>2020-06-14T15:46:58.000Z</time>
      </trkpt>
      <trkpt lat="43.63637" lon="3.83142">
        <ele>75.718074519089</ele>
        <time>2020-06-14T15:46:59.000Z</time>
      </trkpt>
      <trkpt lat="43.63632" lon="3.83145">
        <ele>75.619842753733</ele>
        <time>2020-06-14T15:47:00.000Z</time>
      </trkpt>
      <trkpt lat="43.63627" lon="3.83148">
        <ele>75.521610988378</ele>
        <time>2020-06-14T15:47:01.000Z</time>
      </trkpt>
      <trkpt lat="43.63622" lon="3.83151">
        <ele>75.423379223023</ele>
        <time>2020-06-14T15:47:02.000Z</time>
      </trkpt>
      <trkpt lat="43.63617" lon="3.83154">
        <ele>75.325147457668</ele>
        <time>2020-06-14T15:47:03.000Z</time>
      </trkpt>
      <trkpt lat="43.63612" lon="3.83158">
        <ele>75.226915692312</ele>
        <time>2020-06-14T15:47:04.000Z</time>
      </trkpt>
      <trkpt lat="43.63607" lon="3.83161">
        <ele>75.128683926957</ele>
        <time>2020-06-14T15:47:05.000Z</time>
      </trkpt>
      <trkpt lat="43.63602" lon="3.83165">
        <ele>75.030452161602</ele>
        <time>2020-06-14T15:47:06.000Z</time>
      </trkpt>
      <trkpt lat="43.63598" lon="3.83168">
        <ele>75</ele>
        <time>2020-06-14T15:47:07.000Z</time>
      </trkpt>
      <trkpt lat="43.63593" lon="3.83172">
        <ele>75</ele>
        <time>2020-06-14T15:47:08.000Z</time>
      </trkpt>
      <trkpt lat="43.63589" lon="3.83176">
        <ele>75</ele>
        <time>2020-06-14T15:47:09.000Z</time>
      </trkpt>
      <trkpt lat="43.63584" lon="3.8318">
        <ele>75</ele>
        <time>2020-06-14T15:47:10.000Z</time>
      </trkpt>
      <trkpt lat="43.63579" lon="3.83184">
        <ele>75</ele>
        <time>2020-06-14T15:47:11.000Z</time>
      </trkpt>
      <trkpt lat="43.63575" lon="3.83188">
        <ele>75</ele>
        <time>2020-06-14T15:47:12.000Z</time>
      </trkpt>
      <trkpt lat="43.6357" lon="3.83192">
        <ele>75</ele>
        <time>2020-06-14T15:47:13.000Z</time>
      </trkpt>
      <trkpt lat="43.63566" lon="3.83197">
        <ele>75</ele>
        <time>2020-06-14T15:47:14.000Z</time>
      </trkpt>
      <trkpt lat="43.63561" lon="3.83202">
        <ele>75</ele>
        <time>2020-06-14T15:47:15.000Z</time>
      </trkpt>
      <trkpt lat="43.63557" lon="3.83207">
        <ele>75</ele>
        <time>2020-06-14T15:47:16.000Z</time>
      </trkpt>
      <trkpt lat="43.63552" lon="3.83211">
        <ele>74.91400064</ele>
        <time>2020-06-14T15:47:17.000Z</time>
      </trkpt>
      <trkpt lat="43.63548" lon="3.83216">
        <ele>74.81400064</ele>
        <time>2020-06-14T15:47:18.000Z</time>
      </trkpt>
      <trkpt lat="43.63543" lon="3.83221">
        <ele>74.71400064</ele>
        <time>2020-06-14T15:47:19.000Z</time>
      </trkpt>
      <trkpt lat="43.63539" lon="3.83226">
        <ele>74.61400064</ele>
        <time>2020-06-14T15:47:20.000Z</time>
      </trkpt>
      <trkpt lat="43.63534" lon="3.83231">
        <ele>74.51400064</ele>
        <time>2020-06-14T15:47:21.000Z</time>
      </trkpt>
      <trkpt lat="43.6353" lon="3.83236">
        <ele>74.41400064</ele>
        <time>2020-06-14T15:47:22.000Z</time>
      </trkpt>
      <trkpt lat="43.63525" lon="3.83241">
        <ele>74.31400064</ele>
        <time>2020-06-14T15:47:23.000Z</time>
      </trkpt>
      <trkpt lat="43.6352" lon="3.83246">
        <ele>74.21400064</ele>
        <time>2020-06-14T15:47:24.000Z</time>
      </trkpt>
      <trkpt lat="43.63516" lon="3.83251">
        <ele>74.11400064</ele>
        <time>2020-06-14T15:47:25.000Z</time>
      </trkpt>
      <trkpt lat="43.63511" lon="3.83256">
        <ele>74.01400064</ele>
        <time>2020-06-14T15:47:26.000Z</time>
      </trkpt>
      <trkpt lat="43.63507" lon="3.83261">
        <ele>73.91391447183</ele>
        <time>2020-06-14T15:47:27.000Z</time>
      </trkpt>
      <trkpt lat="43.63502" lon="3.83266">
        <ele>73.813814275537</ele>
        <time>2020-06-14T15:47:28.000Z</time>
      </trkpt>
      <trkpt lat="43.63497" lon="3.83271">
        <ele>73.713714079245</ele>
        <time>2020-06-14T15:47:29.000Z</time>
      </trkpt>
      <trkpt lat="43.63493" lon="3.83276">
        <ele>73.613613882952</ele>
        <time>2020-06-14T15:47:30.000Z</time>
      </trkpt>
      <trkpt lat="43.63488" lon="3.83282">
        <ele>73.51351368666</ele>
        <time>2020-06-14T15:47:31.000Z</time>
      </trkpt>
      <trkpt lat="43.63484" lon="3.83287">
        <ele>73.413413490367</ele>
        <time>2020-06-14T15:47:32.000Z</time>
      </trkpt>
      <trkpt lat="43.6348" lon="3.83293">
        <ele>73.313313294075</ele>
        <time>2020-06-14T15:47:33.000Z</time>
      </trkpt>
      <trkpt lat="43.63476" lon="3.83299">
        <ele>73.213213097782</ele>
        <time>2020-06-14T15:47:34.000Z</time>
      </trkpt>
      <trkpt lat="43.63472" lon="3.83304">
        <ele>73.11311290149</ele>
        <time>2020-06-14T15:47:35.000Z</time>
      </trkpt>
      <trkpt lat="43.63468" lon="3.8331">
        <ele>73.013012705197</ele>
        <time>2020-06-14T15:47:36.000Z</time>
      </trkpt>
      <trkpt lat="43.63465" lon="3.83315">
        <ele>72.91299968</ele>
        <time>2020-06-14T15:47:37.000Z</time>
      </trkpt>
      <trkpt lat="43.63462" lon="3.8332">
        <ele>72.81299968</ele>
        <time>2020-06-14T15:47:38.000Z</time>
      </trkpt>
      <trkpt lat="43.63459" lon="3.83325">
        <ele>72.71299968</ele>
        <time>2020-06-14T15:47:39.000Z</time>
      </trkpt>
      <trkpt lat="43.63457" lon="3.83331">
        <ele>72.61299968</ele>
        <time>2020-06-14T15:47:40.000Z</time>
      </trkpt>
      <trkpt lat="43.63454" lon="3.83335">
        <ele>72.51299968</ele>
        <time>2020-06-14T15:47:41.000Z</time>
      </trkpt>
      <trkpt lat="43.6345" lon="3.83339">
        <ele>72.41299968</ele>
        <time>2020-06-14T15:47:42.000Z</time>
      </trkpt>
      <trkpt lat="43.63447" lon="3.83343">
        <ele>72.31299968</ele>
        <time>2020-06-14T15:47:43.000Z</time>
      </trkpt>
      <trkpt lat="43.63444" lon="3.83347">
        <ele>72.21299968</ele>
        <time>2020-06-14T15:47:44.000Z</time>
      </trkpt>
      <trkpt lat="43.6344" lon="3.83351">
        <ele>72.11299968</ele>
        <time>2020-06-14T15:47:45.000Z</time>
      </trkpt>
      <trkpt lat="43.63437" lon="3.83354">
        <ele>72.01299968</ele>
        <time>2020-06-14T15:47:46.000Z</time>
      </trkpt>
      <trkpt lat="43.63434" lon="3.83358">
        <ele>71.91308667676</ele>
        <time>2020-06-14T15:47:47.000Z</time>
      </trkpt>
      <trkpt lat="43.63431" lon="3.83361">
        <ele>71.813186672668</ele>
        <time>2020-06-14T15:47:48.000Z</time>
      </trkpt>
      <trkpt lat="43.63428" lon="3.83365">
        <ele>71.713286668576</ele>
        <time>2020-06-14T15:47:49.000Z</time>
      </trkpt>
      <trkpt lat="43.63425" lon="3.83368">
        <ele>71.613386664484</ele>
        <time>2020-06-14T15:47:50.000Z</time>
      </trkpt>
      <trkpt lat="43.63423" lon="3.83371">
        <ele>71.513486660392</ele>
        <time>2020-06-14T15:47:51.000Z</time>
      </trkpt>
      <trkpt lat="43.63421" lon="3.83375">
        <ele>71.4135866563</ele>
        <time>2020-06-14T15:47:52.000Z</time>
      </trkpt>
      <trkpt lat="43.63419" lon="3.83378">
        <ele>71.313686652209</ele>
        <time>2020-06-14T15:47:53.000Z</time>
      </trkpt>
      <trkpt lat="43.63418" lon="3.8338">
        <ele>71.213786648117</ele>
        <time>2020-06-14T15:47:54.000Z</time>
      </trkpt>
      <trkpt lat="43.63417" lon="3.83383">
        <ele>71.113886644025</ele>
        <time>2020-06-14T15:47:55.000Z</time>
      </trkpt>
      <trkpt lat="43.63416" lon="3.83385">
        <ele>71.013986639933</ele>
        <time>2020-06-14T15:47:56.000Z</time>
      </trkpt>
      <trkpt lat="43.63415" lon="3.83388">
        <ele>70.91391447183</ele>
        <time>2020-06-14T15:47:57.000Z</time>
      </trkpt>
      <trkpt lat="43.63413" lon="3.83391">
        <ele>70.813814275537</ele>
        <time>2020-06-14T15:47:58.000Z</time>
      </trkpt>
      <trkpt lat="43.63412" lon="3.83394">
        <ele>70.713714079245</ele>
        <time>2020-06-14T15:47:59.000Z</time>
      </trkpt>
      <trkpt lat="43.63411" lon="3.83397">
        <ele>70.613613882952</ele>
        <time>2020-06-14T15:48:00.000Z</time>
      </trkpt>
      <trkpt lat="43.63409" lon="3.83401">
        <ele>70.51351368666</ele>
        <time>2020-06-14T15:48:01.000Z</time>
      </trkpt>
      <trkpt lat="43.63407" lon="3.83405">
        <ele>70.413413490367</ele>
        <time>2020-06-14T15:48:02.000Z</time>
      </trkpt>
      <trkpt lat="43.63405" lon="3.8341">
        <ele>70.313313294075</ele>
        <time>2020-06-14T15:48:03.000Z</time>
      </trkpt>
      <trkpt lat="43.63403" lon="3.83415">
        <ele>70.213213097782</ele>
        <time>2020-06-14T15:48:04.000Z</time>
      </trkpt>
      <trkpt lat="43.634" lon="3.8342">
        <ele>70.11311290149</ele>
        <time>2020-06-14T15:48:05.000Z</time>
      </trkpt>
      <trkpt lat="43.63398" lon="3.83427">
        <ele>70.013012705197</ele>
        <time>2020-06-14T15:48:06.000Z</time>
      </trkpt>
      <trkpt lat="43.63396" lon="3.83433">
        <ele>69.82617335352</ele>
        <time>2020-06-14T15:48:07.000Z</time>
      </trkpt>
      <trkpt lat="43.63393" lon="3.8344">
        <ele>69.626373345336</ele>
        <time>2020-06-14T15:48:08.000Z</time>
      </trkpt>
      <trkpt lat="43.63391" lon="3.83447">
        <ele>69.426573337152</ele>
        <time>2020-06-14T15:48:09.000Z</time>
      </trkpt>
      <trkpt lat="43.63388" lon="3.83454">
        <ele>69.226773328969</ele>
        <time>2020-06-14T15:48:10.000Z</time>
      </trkpt>
      <trkpt lat="43.63385" lon="3.83462">
        <ele>69.026973320785</ele>
        <time>2020-06-14T15:48:11.000Z</time>
      </trkpt>
      <trkpt lat="43.63382" lon="3.83469">
        <ele>68.827173312601</ele>
        <time>2020-06-14T15:48:12.000Z</time>
      </trkpt>
      <trkpt lat="43.6338" lon="3.83477">
        <ele>68.627373304417</ele>
        <time>2020-06-14T15:48:13.000Z</time>
      </trkpt>
      <trkpt lat="43.63377" lon="3.83484">
        <ele>68.427573296233</ele>
        <time>2020-06-14T15:48:14.000Z</time>
      </trkpt>
      <trkpt lat="43.63374" lon="3.83492">
        <ele>68.22777328805</ele>
        <time>2020-06-14T15:48:15.000Z</time>
      </trkpt>
      <trkpt lat="43.63371" lon="3.835">
        <ele>68.027973279866</ele>
        <time>2020-06-14T15:48:16.000Z</time>
      </trkpt>
      <trkpt lat="43.63368" lon="3.83508">
        <ele>67.831042408514</ele>
        <time>2020-06-14T15:48:17.000Z</time>
      </trkpt>
      <trkpt lat="43.63365" lon="3.83516">
        <ele>67.634578630776</ele>
        <time>2020-06-14T15:48:18.000Z</time>
      </trkpt>
      <trkpt lat="43.63362" lon="3.83523">
        <ele>67.438114853039</ele>
        <time>2020-06-14T15:48:19.000Z</time>
      </trkpt>
      <trkpt lat="43.63359" lon="3.83531">
        <ele>67.241651075301</ele>
        <time>2020-06-14T15:48:20.000Z</time>
      </trkpt>
      <trkpt lat="43.63356" lon="3.83538">
        <ele>67.045187297564</ele>
        <time>2020-06-14T15:48:21.000Z</time>
      </trkpt>
      <trkpt lat="43.63354" lon="3.83546">
        <ele>66.848723519826</ele>
        <time>2020-06-14T15:48:22.000Z</time>
      </trkpt>
      <trkpt lat="43.63351" lon="3.83553">
        <ele>66.652259742089</ele>
        <time>2020-06-14T15:48:23.000Z</time>
      </trkpt>
      <trkpt lat="43.63348" lon="3.8356">
        <ele>66.455795964351</ele>
        <time>2020-06-14T15:48:24.000Z</time>
      </trkpt>
      <trkpt lat="43.63346" lon="3.83567">
        <ele>66.259332186614</ele>
        <time>2020-06-14T15:48:25.000Z</time>
      </trkpt>
      <trkpt lat="43.63343" lon="3.83574">
        <ele>66.062868408876</ele>
        <time>2020-06-14T15:48:26.000Z</time>
      </trkpt>
      <trkpt lat="43.63341" lon="3.8358">
        <ele>65.930682953944</ele>
        <time>2020-06-14T15:48:27.000Z</time>
      </trkpt>
      <trkpt lat="43.63338" lon="3.83587">
        <ele>65.828746121507</ele>
        <time>2020-06-14T15:48:28.000Z</time>
      </trkpt>
      <trkpt lat="43.63335" lon="3.83592">
        <ele>65.726809289071</ele>
        <time>2020-06-14T15:48:29.000Z</time>
      </trkpt>
      <trkpt lat="43.63332" lon="3.83598">
        <ele>65.624872456635</ele>
        <time>2020-06-14T15:48:30.000Z</time>
      </trkpt>
      <trkpt lat="43.63329" lon="3.83604">
        <ele>65.522935624199</ele>
        <time>2020-06-14T15:48:31.000Z</time>
      </trkpt>
      <trkpt lat="43.63326" lon="3.8361">
        <ele>65.420998791763</ele>
        <time>2020-06-14T15:48:32.000Z</time>
      </trkpt>
      <trkpt lat="43.63323" lon="3.83616">
        <ele>65.319061959327</ele>
        <time>2020-06-14T15:48:33.000Z</time>
      </trkpt>
      <trkpt lat="43.6332" lon="3.83622">
        <ele>65.217125126891</ele>
        <time>2020-06-14T15:48:34.000Z</time>
      </trkpt>
      <trkpt lat="43.63317" lon="3.83628">
        <ele>65.115188294455</ele>
        <time>2020-06-14T15:48:35.000Z</time>
      </trkpt>
      <trkpt lat="43.63314" lon="3.83634">
        <ele>65.013251462019</ele>
        <time>2020-06-14T15:48:36.000Z</time>
      </trkpt>
      <trkpt lat="43.6331" lon="3.8364">
        <ele>64.82599936</ele>
        <time>2020-06-14T15:48:37.000Z</time>
      </trkpt>
      <trkpt lat="43.63307" lon="3.83645">
        <ele>64.62599936</ele>
        <time>2020-06-14T15:48:38.000Z</time>
      </trkpt>
      <trkpt lat="43.63303" lon="3.83651">
        <ele>64.42599936</ele>
        <time>2020-06-14T15:48:39.000Z</time>
      </trkpt>
      <trkpt lat="43.633" lon="3.83656">
        <ele>64.22599936</ele>
        <time>2020-06-14T15:48:40.000Z</time>
      </trkpt>
      <trkpt lat="43.63296" lon="3.83662">
        <ele>64.02599936</ele>
        <time>2020-06-14T15:48:41.000Z</time>
      </trkpt>
      <trkpt lat="43.63292" lon="3.83667">
        <ele>63.82599936</ele>
        <time>2020-06-14T15:48:42.000Z</time>
      </trkpt>
      <trkpt lat="43.63288" lon="3.83672">
        <ele>63.62599936</ele>
        <time>2020-06-14T15:48:43.000Z</time>
      </trkpt>
      <trkpt lat="43.63284" lon="3.83678">
        <ele>63.42599936</ele>
        <time>2020-06-14T15:48:44.000Z</time>
      </trkpt>
      <trkpt lat="43.6328" lon="3.83683">
        <ele>63.22599936</ele>
        <time>2020-06-14T15:48:45.000Z</time>
      </trkpt>
      <trkpt lat="43.63276" lon="3.83688">
        <ele>63.02599936</ele>
        <time>2020-06-14T15:48:46.000Z</time>
      </trkpt>
      <trkpt lat="43.63272" lon="3.83694">
        <ele>62.915451557769</ele>
        <time>2020-06-14T15:48:47.000Z</time>
      </trkpt>
      <trkpt lat="43.63268" lon="3.83699">
        <ele>62.818269797713</ele>
        <time>2020-06-14T15:48:48.000Z</time>
      </trkpt>
      <trkpt lat="43.63265" lon="3.83703">
        <ele>62.721088037656</ele>
        <time>2020-06-14T15:48:49.000Z</time>
      </trkpt>
      <trkpt lat="43.63261" lon="3.83708">
        <ele>62.6239062776</ele>
        <time>2020-06-14T15:48:50.000Z</time>
      </trkpt>
      <trkpt lat="43.63257" lon="3.83712">
        <ele>62.526724517543</ele>
        <time>2020-06-14T15:48:51.000Z</time>
      </trkpt>
      <trkpt lat="43.63253" lon="3.83717">
        <ele>62.429542757487</ele>
        <time>2020-06-14T15:48:52.000Z</time>
      </trkpt>
      <trkpt lat="43.63249" lon="3.83721">
        <ele>62.33236099743</ele>
        <time>2020-06-14T15:48:53.000Z</time>
      </trkpt>
      <trkpt lat="43.63245" lon="3.83726">
        <ele>62.235179237374</ele>
        <time>2020-06-14T15:48:54.000Z</time>
      </trkpt>
      <trkpt lat="43.63242" lon="3.8373">
        <ele>62.137997477317</ele>
        <time>2020-06-14T15:48:55.000Z</time>
      </trkpt>
      <trkpt lat="43.63239" lon="3.83733">
        <ele>62.040815717261</ele>
        <time>2020-06-14T15:48:56.000Z</time>
      </trkpt>
      <trkpt lat="43.63236" lon="3.83737">
        <ele>62.059732874238</ele>
        <time>2020-06-14T15:48:57.000Z</time>
      </trkpt>
      <trkpt lat="43.63233" lon="3.8374">
        <ele>62.162719452039</ele>
        <time>2020-06-14T15:48:58.000Z</time>
      </trkpt>
      <trkpt lat="43.6323" lon="3.83743">
        <ele>62.265706029839</ele>
        <time>2020-06-14T15:48:59.000Z</time>
      </trkpt>
      <trkpt lat="43.63227" lon="3.83746">
        <ele>62.36869260764</ele>
        <time>2020-06-14T15:49:00.000Z</time>
      </trkpt>
      <trkpt lat="43.63223" lon="3.83748">
        <ele>62.47167918544</ele>
        <time>2020-06-14T15:49:01.000Z</time>
      </trkpt>
      <trkpt lat="43.6322" lon="3.83748">
        <ele>62.574665763241</ele>
        <time>2020-06-14T15:49:02.000Z</time>
      </trkpt>
      <trkpt lat="43.63217" lon="3.83747">
        <ele>62.677652341042</ele>
        <time>2020-06-14T15:49:03.000Z</time>
      </trkpt>
      <trkpt lat="43.63214" lon="3.83745">
        <ele>62.780638918842</ele>
        <time>2020-06-14T15:49:04.000Z</time>
      </trkpt>
      <trkpt lat="43.63212" lon="3.83744">
        <ele>62.883625496643</ele>
        <time>2020-06-14T15:49:05.000Z</time>
      </trkpt>
      <trkpt lat="43.63209" lon="3.83744">
        <ele>62.986612074443</ele>
        <time>2020-06-14T15:49:06.000Z</time>
      </trkpt>
      <trkpt lat="43.63207" lon="3.83746">
        <ele>63</ele>
        <time>2020-06-14T15:49:07.000Z</time>
      </trkpt>
      <trkpt lat="43.63205" lon="3.83749">
        <ele>63</ele>
        <time>2020-06-14T15:49:08.000Z</time>
      </trkpt>
      <trkpt lat="43.63202" lon="3.83754">
        <ele>63</ele>
        <time>2020-06-14T15:49:09.000Z</time>
      </trkpt>
      <trkpt lat="43.63198" lon="3.83758">
        <ele>63</ele>
        <time>2020-06-14T15:49:10.000Z</time>
      </trkpt>
      <trkpt lat="43.63195" lon="3.83763">
        <ele>63</ele>
        <time>2020-06-14T15:49:11.000Z</time>
      </trkpt>
      <trkpt lat="43.63192" lon="3.83768">
        <ele>63</ele>
        <time>2020-06-14T15:49:12.000Z</time>
      </trkpt>
      <trkpt lat="43.63189" lon="3.83773">
        <ele>63</ele>
        <time>2020-06-14T15:49:13.000Z</time>
      </trkpt>
      <trkpt lat="43.63186" lon="3.83778">
        <ele>63</ele>
        <time>2020-06-14T15:49:14.000Z</time>
      </trkpt>
      <trkpt lat="43.63183" lon="3.83783">
        <ele>63</ele>
        <time>2020-06-14T15:49:15.000Z</time>
      </trkpt>
      <trkpt lat="43.6318" lon="3.83789">
        <ele>63</ele>
        <time>2020-06-14T15:49:16.000Z</time>
      </trkpt>
      <trkpt lat="43.63177" lon="3.83793">
        <ele>63</ele>
        <time>2020-06-14T15:49:17.000Z</time>
      </trkpt>
      <trkpt lat="43.63173" lon="3.83796">
        <ele>63</ele>
        <time>2020-06-14T15:49:18.000Z</time>
      </trkpt>
      <trkpt lat="43.6317" lon="3.83799">
        <ele>63</ele>
        <time>2020-06-14T15:49:19.000Z</time>
      </trkpt>
      <trkpt lat="43.63167" lon="3.83803">
        <ele>63</ele>
        <time>2020-06-14T15:49:20.000Z</time>
      </trkpt>
      <trkpt lat="43.63163" lon="3.83808">
        <ele>63</ele>
        <time>2020-06-14T15:49:21.000Z</time>
      </trkpt>
      <trkpt lat="43.63161" lon="3.83813">
        <ele>63</ele>
        <time>2020-06-14T15:49:22.000Z</time>
      </trkpt>
      <trkpt lat="43.63157" lon="3.83819">
        <ele>63</ele>
        <time>2020-06-14T15:49:23.000Z</time>
      </trkpt>
      <trkpt lat="43.63154" lon="3.83825">
        <ele>63</ele>
        <time>2020-06-14T15:49:24.000Z</time>
      </trkpt>
      <trkpt lat="43.63151" lon="3.8383">
        <ele>63</ele>
        <time>2020-06-14T15:49:25.000Z</time>
      </trkpt>
      <trkpt lat="43.63149" lon="3.83835">
        <ele>63</ele>
        <time>2020-06-14T15:49:26.000Z</time>
      </trkpt>
      <trkpt lat="43.63146" lon="3.83843">
        <ele>63</ele>
        <time>2020-06-14T15:49:27.000Z</time>
      </trkpt>
      <trkpt lat="43.63144" lon="3.83849">
        <ele>63</ele>
        <time>2020-06-14T15:49:28.000Z</time>
      </trkpt>
      <trkpt lat="43.63141" lon="3.83856">
        <ele>63</ele>
        <time>2020-06-14T15:49:29.000Z</time>
      </trkpt>
      <trkpt lat="43.63138" lon="3.83863">
        <ele>63</ele>
        <time>2020-06-14T15:49:30.000Z</time>
      </trkpt>
      <trkpt lat="43.63136" lon="3.83869">
        <ele>63</ele>
        <time>2020-06-14T15:49:31.000Z</time>
      </trkpt>
      <trkpt lat="43.63135" lon="3.83875">
        <ele>63</ele>
        <time>2020-06-14T15:49:32.000Z</time>
      </trkpt>
      <trkpt lat="43.63133" lon="3.83881">
        <ele>63</ele>
        <time>2020-06-14T15:49:33.000Z</time>
      </trkpt>
      <trkpt lat="43.63131" lon="3.83889">
        <ele>63</ele>
        <time>2020-06-14T15:49:34.000Z</time>
      </trkpt>
      <trkpt lat="43.63128" lon="3.83896">
        <ele>63</ele>
        <time>2020-06-14T15:49:35.000Z</time>
      </trkpt>
      <trkpt lat="43.63126" lon="3.83903">
        <ele>63</ele>
        <time>2020-06-14T15:49:36.000Z</time>
      </trkpt>
      <trkpt lat="43.63124" lon="3.83909">
        <ele>62.916424308315</ele>
        <time>2020-06-14T15:49:37.000Z</time>
      </trkpt>
      <trkpt lat="43.63121" lon="3.83916">
        <ele>62.819242548258</ele>
        <time>2020-06-14T15:49:38.000Z</time>
      </trkpt>
      <trkpt lat="43.63118" lon="3.83922">
        <ele>62.722060788202</ele>
        <time>2020-06-14T15:49:39.000Z</time>
      </trkpt>
      <trkpt lat="43.63116" lon="3.83929">
        <ele>62.624879028145</ele>
        <time>2020-06-14T15:49:40.000Z</time>
      </trkpt>
      <trkpt lat="43.63114" lon="3.83936">
        <ele>62.527697268089</ele>
        <time>2020-06-14T15:49:41.000Z</time>
      </trkpt>
      <trkpt lat="43.63112" lon="3.83942">
        <ele>62.430515508032</ele>
        <time>2020-06-14T15:49:42.000Z</time>
      </trkpt>
      <trkpt lat="43.6311" lon="3.83949">
        <ele>62.333333747976</ele>
        <time>2020-06-14T15:49:43.000Z</time>
      </trkpt>
      <trkpt lat="43.63108" lon="3.83955">
        <ele>62.236151987919</ele>
        <time>2020-06-14T15:49:44.000Z</time>
      </trkpt>
      <trkpt lat="43.63106" lon="3.83961">
        <ele>62.138970227863</ele>
        <time>2020-06-14T15:49:45.000Z</time>
      </trkpt>
      <trkpt lat="43.63104" lon="3.83967">
        <ele>62.041788467806</ele>
        <time>2020-06-14T15:49:46.000Z</time>
      </trkpt>
      <trkpt lat="43.63102" lon="3.83973">
        <ele>62</ele>
        <time>2020-06-14T15:49:47.000Z</time>
      </trkpt>
      <trkpt lat="43.631" lon="3.83979">
        <ele>62</ele>
        <time>2020-06-14T15:49:48.000Z</time>
      </trkpt>
      <trkpt lat="43.63098" lon="3.83985">
        <ele>62</ele>
        <time>2020-06-14T15:49:49.000Z</time>
      </trkpt>
      <trkpt lat="43.63096" lon="3.8399">
        <ele>62</ele>
        <time>2020-06-14T15:49:50.000Z</time>
      </trkpt>
      <trkpt lat="43.63095" lon="3.83996">
        <ele>62</ele>
        <time>2020-06-14T15:49:51.000Z</time>
      </trkpt>
      <trkpt lat="43.63093" lon="3.84001">
        <ele>62</ele>
        <time>2020-06-14T15:49:52.000Z</time>
      </trkpt>
      <trkpt lat="43.63092" lon="3.84006">
        <ele>62</ele>
        <time>2020-06-14T15:49:53.000Z</time>
      </trkpt>
      <trkpt lat="43.63091" lon="3.84012">
        <ele>62</ele>
        <time>2020-06-14T15:49:54.000Z</time>
      </trkpt>
      <trkpt lat="43.6309" lon="3.84018">
        <ele>62</ele>
        <time>2020-06-14T15:49:55.000Z</time>
      </trkpt>
      <trkpt lat="43.6309" lon="3.84024">
        <ele>62</ele>
        <time>2020-06-14T15:49:56.000Z</time>
      </trkpt>
      <trkpt lat="43.6309" lon="3.8403">
        <ele>61.91299968</ele>
        <time>2020-06-14T15:49:57.000Z</time>
      </trkpt>
      <trkpt lat="43.6309" lon="3.84036">
        <ele>61.81299968</ele>
        <time>2020-06-14T15:49:58.000Z</time>
      </trkpt>
      <trkpt lat="43.63089" lon="3.84042">
        <ele>61.71299968</ele>
        <time>2020-06-14T15:49:59.000Z</time>
      </trkpt>
      <trkpt lat="43.63086" lon="3.84048">
        <ele>61.61299968</ele>
        <time>2020-06-14T15:50:00.000Z</time>
      </trkpt>
      <trkpt lat="43.63083" lon="3.84053">
        <ele>61.51299968</ele>
        <time>2020-06-14T15:50:01.000Z</time>
      </trkpt>
      <trkpt lat="43.6308" lon="3.84059">
        <ele>61.41299968</ele>
        <time>2020-06-14T15:50:02.000Z</time>
      </trkpt>
      <trkpt lat="43.63078" lon="3.84064">
        <ele>61.31299968</ele>
        <time>2020-06-14T15:50:03.000Z</time>
      </trkpt>
      <trkpt lat="43.63076" lon="3.8407">
        <ele>61.21299968</ele>
        <time>2020-06-14T15:50:04.000Z</time>
      </trkpt>
      <trkpt lat="43.63075" lon="3.84075">
        <ele>61.11299968</ele>
        <time>2020-06-14T15:50:05.000Z</time>
      </trkpt>
      <trkpt lat="43.63074" lon="3.84081">
        <ele>61.01299968</ele>
        <time>2020-06-14T15:50:06.000Z</time>
      </trkpt>
      <trkpt lat="43.63073" lon="3.84087">
        <ele>60.830903115538</ele>
        <time>2020-06-14T15:50:07.000Z</time>
      </trkpt>
      <trkpt lat="43.63072" lon="3.84093">
        <ele>60.636539595425</ele>
        <time>2020-06-14T15:50:08.000Z</time>
      </trkpt>
      <trkpt lat="43.63072" lon="3.84099">
        <ele>60.442176075312</ele>
        <time>2020-06-14T15:50:09.000Z</time>
      </trkpt>
      <trkpt lat="43.63073" lon="3.84106">
        <ele>60.247812555199</ele>
        <time>2020-06-14T15:50:10.000Z</time>
      </trkpt>
      <trkpt lat="43.63073" lon="3.84113">
        <ele>60.053449035086</ele>
        <time>2020-06-14T15:50:11.000Z</time>
      </trkpt>
      <trkpt lat="43.63072" lon="3.84119">
        <ele>59.859085514973</ele>
        <time>2020-06-14T15:50:12.000Z</time>
      </trkpt>
      <trkpt lat="43.63068" lon="3.84125">
        <ele>59.66472199486</ele>
        <time>2020-06-14T15:50:13.000Z</time>
      </trkpt>
      <trkpt lat="43.63065" lon="3.8413">
        <ele>59.470358474747</ele>
        <time>2020-06-14T15:50:14.000Z</time>
      </trkpt>
      <trkpt lat="43.63062" lon="3.84134">
        <ele>59.275994954634</ele>
        <time>2020-06-14T15:50:15.000Z</time>
      </trkpt>
      <trkpt lat="43.63059" lon="3.84137">
        <ele>59.081631434521</ele>
        <time>2020-06-14T15:50:16.000Z</time>
      </trkpt>
      <trkpt lat="43.63057" lon="3.8414">
        <ele>58.940267125762</ele>
        <time>2020-06-14T15:50:17.000Z</time>
      </trkpt>
      <trkpt lat="43.63056" lon="3.84143">
        <ele>58.837280547961</ele>
        <time>2020-06-14T15:50:18.000Z</time>
      </trkpt>
      <trkpt lat="43.63054" lon="3.84146">
        <ele>58.734293970161</ele>
        <time>2020-06-14T15:50:19.000Z</time>
      </trkpt>
      <trkpt lat="43.63053" lon="3.84148">
        <ele>58.63130739236</ele>
        <time>2020-06-14T15:50:20.000Z</time>
      </trkpt>
      <trkpt lat="43.63052" lon="3.84152">
        <ele>58.425334236759</ele>
        <time>2020-06-14T15:50:22.000Z</time>
      </trkpt>
      <trkpt lat="43.63052" lon="3.84154">
        <ele>58.322347658958</ele>
        <time>2020-06-14T15:50:23.000Z</time>
      </trkpt>
      <trkpt lat="43.63051" lon="3.84157">
        <ele>58.219361081158</ele>
        <time>2020-06-14T15:50:24.000Z</time>
      </trkpt>
      <trkpt lat="43.63049" lon="3.8416">
        <ele>58.116374503357</ele>
        <time>2020-06-14T15:50:25.000Z</time>
      </trkpt>
      <trkpt lat="43.63048" lon="3.84164">
        <ele>58.013387925557</ele>
        <time>2020-06-14T15:50:26.000Z</time>
      </trkpt>
      <trkpt lat="43.63047" lon="3.84167">
        <ele>58</ele>
        <time>2020-06-14T15:50:27.000Z</time>
      </trkpt>
      <trkpt lat="43.63045" lon="3.84169">
        <ele>58</ele>
        <time>2020-06-14T15:50:28.000Z</time>
      </trkpt>
      <trkpt lat="43.63044" lon="3.84171">
        <ele>58</ele>
        <time>2020-06-14T15:50:29.000Z</time>
      </trkpt>
      <trkpt lat="43.63042" lon="3.84174">
        <ele>58</ele>
        <time>2020-06-14T15:50:31.000Z</time>
      </trkpt>
      <trkpt lat="43.63042" lon="3.84175">
        <ele>58</ele>
        <time>2020-06-14T15:50:35.000Z</time>
      </trkpt>
      <trkpt lat="43.63041" lon="3.84179">
        <ele>58</ele>
        <time>2020-06-14T15:50:38.000Z</time>
      </trkpt>
      <trkpt lat="43.63041" lon="3.84183">
        <ele>57.960042693629</ele>
        <time>2020-06-14T15:50:39.000Z</time>
      </trkpt>
      <trkpt lat="43.63041" lon="3.84187">
        <ele>57.854890116398</ele>
        <time>2020-06-14T15:50:40.000Z</time>
      </trkpt>
      <trkpt lat="43.6304" lon="3.84191">
        <ele>57.749737539167</ele>
        <time>2020-06-14T15:50:41.000Z</time>
      </trkpt>
      <trkpt lat="43.6304" lon="3.84195">
        <ele>57.644584961937</ele>
        <time>2020-06-14T15:50:42.000Z</time>
      </trkpt>
      <trkpt lat="43.63038" lon="3.842">
        <ele>57.539432384706</ele>
        <time>2020-06-14T15:50:43.000Z</time>
      </trkpt>
      <trkpt lat="43.63036" lon="3.84204">
        <ele>57.434279807475</ele>
        <time>2020-06-14T15:50:44.000Z</time>
      </trkpt>
      <trkpt lat="43.63035" lon="3.84209">
        <ele>57.329127230244</ele>
        <time>2020-06-14T15:50:45.000Z</time>
      </trkpt>
      <trkpt lat="43.63035" lon="3.84214">
        <ele>57.223974653013</ele>
        <time>2020-06-14T15:50:46.000Z</time>
      </trkpt>
      <trkpt lat="43.63035" lon="3.8422">
        <ele>57.118822075782</ele>
        <time>2020-06-14T15:50:47.000Z</time>
      </trkpt>
      <trkpt lat="43.63035" lon="3.84226">
        <ele>57.013669498552</ele>
        <time>2020-06-14T15:50:48.000Z</time>
      </trkpt>
      <trkpt lat="43.63036" lon="3.84231">
        <ele>57</ele>
        <time>2020-06-14T15:50:49.000Z</time>
      </trkpt>
      <trkpt lat="43.63036" lon="3.84236">
        <ele>57</ele>
        <time>2020-06-14T15:50:50.000Z</time>
      </trkpt>
      <trkpt lat="43.63037" lon="3.84241">
        <ele>57</ele>
        <time>2020-06-14T15:50:51.000Z</time>
      </trkpt>
      <trkpt lat="43.63038" lon="3.84247">
        <ele>57</ele>
        <time>2020-06-14T15:50:52.000Z</time>
      </trkpt>
      <trkpt lat="43.63039" lon="3.84252">
        <ele>57</ele>
        <time>2020-06-14T15:50:53.000Z</time>
      </trkpt>
      <trkpt lat="43.6304" lon="3.84257">
        <ele>57</ele>
        <time>2020-06-14T15:50:54.000Z</time>
      </trkpt>
      <trkpt lat="43.63039" lon="3.84262">
        <ele>57</ele>
        <time>2020-06-14T15:50:55.000Z</time>
      </trkpt>
      <trkpt lat="43.63038" lon="3.84266">
        <ele>57</ele>
        <time>2020-06-14T15:50:56.000Z</time>
      </trkpt>
      <trkpt lat="43.63037" lon="3.8427">
        <ele>57</ele>
        <time>2020-06-14T15:50:57.000Z</time>
      </trkpt>
      <trkpt lat="43.63035" lon="3.84274">
        <ele>57</ele>
        <time>2020-06-14T15:50:58.000Z</time>
      </trkpt>
      <trkpt lat="43.63033" lon="3.84279">
        <ele>56.97131147541</ele>
        <time>2020-06-14T15:50:59.000Z</time>
      </trkpt>
      <trkpt lat="43.6303" lon="3.84284">
        <ele>56.868852459016</ele>
        <time>2020-06-14T15:51:00.000Z</time>
      </trkpt>
      <trkpt lat="43.63028" lon="3.84289">
        <ele>56.766393442623</ele>
        <time>2020-06-14T15:51:01.000Z</time>
      </trkpt>
      <trkpt lat="43.63025" lon="3.84294">
        <ele>56.66393442623</ele>
        <time>2020-06-14T15:51:02.000Z</time>
      </trkpt>
      <trkpt lat="43.63022" lon="3.843">
        <ele>56.561475409836</ele>
        <time>2020-06-14T15:51:03.000Z</time>
      </trkpt>
      <trkpt lat="43.63018" lon="3.84305">
        <ele>56.459016393443</ele>
        <time>2020-06-14T15:51:04.000Z</time>
      </trkpt>
      <trkpt lat="43.63014" lon="3.8431">
        <ele>56.356557377049</ele>
        <time>2020-06-14T15:51:05.000Z</time>
      </trkpt>
      <trkpt lat="43.63009" lon="3.84314">
        <ele>56.254098360656</ele>
        <time>2020-06-14T15:51:06.000Z</time>
      </trkpt>
      <trkpt lat="43.63005" lon="3.8432">
        <ele>56.151639344262</ele>
        <time>2020-06-14T15:51:07.000Z</time>
      </trkpt>
      <trkpt lat="43.63001" lon="3.84325">
        <ele>56.049180327869</ele>
        <time>2020-06-14T15:51:08.000Z</time>
      </trkpt>
      <trkpt lat="43.62997" lon="3.84331">
        <ele>55.947791164659</ele>
        <time>2020-06-14T15:51:09.000Z</time>
      </trkpt>
      <trkpt lat="43.62994" lon="3.84336">
        <ele>55.847389558233</ele>
        <time>2020-06-14T15:51:10.000Z</time>
      </trkpt>
      <trkpt lat="43.6299" lon="3.84342">
        <ele>55.746987951807</ele>
        <time>2020-06-14T15:51:11.000Z</time>
      </trkpt>
      <trkpt lat="43.62986" lon="3.84347">
        <ele>55.646586345382</ele>
        <time>2020-06-14T15:51:12.000Z</time>
      </trkpt>
      <trkpt lat="43.62981" lon="3.84352">
        <ele>55.546184738956</ele>
        <time>2020-06-14T15:51:13.000Z</time>
      </trkpt>
      <trkpt lat="43.62978" lon="3.84357">
        <ele>55.44578313253</ele>
        <time>2020-06-14T15:51:14.000Z</time>
      </trkpt>
      <trkpt lat="43.62974" lon="3.84362">
        <ele>55.345381526104</ele>
        <time>2020-06-14T15:51:15.000Z</time>
      </trkpt>
      <trkpt lat="43.62971" lon="3.84367">
        <ele>55.244979919679</ele>
        <time>2020-06-14T15:51:16.000Z</time>
      </trkpt>
      <trkpt lat="43.62968" lon="3.84371">
        <ele>55.144578313253</ele>
        <time>2020-06-14T15:51:17.000Z</time>
      </trkpt>
      <trkpt lat="43.62966" lon="3.84374">
        <ele>55.044176706827</ele>
        <time>2020-06-14T15:51:18.000Z</time>
      </trkpt>
      <trkpt lat="43.62964" lon="3.84378">
        <ele>55</ele>
        <time>2020-06-14T15:51:19.000Z</time>
      </trkpt>
      <trkpt lat="43.62962" lon="3.8438">
        <ele>55</ele>
        <time>2020-06-14T15:51:20.000Z</time>
      </trkpt>
      <trkpt lat="43.6296" lon="3.84383">
        <ele>55</ele>
        <time>2020-06-14T15:51:21.000Z</time>
      </trkpt>
      <trkpt lat="43.62959" lon="3.84384">
        <ele>55</ele>
        <time>2020-06-14T15:51:22.000Z</time>
      </trkpt>
      <trkpt lat="43.62959" lon="3.84384">
        <ele>55</ele>
        <time>2020-06-14T15:51:28.000Z</time>
      </trkpt>
    </trkseg>
  </trk>
</gpx>